<?xml version='1.0' encoding='UTF-8' standalone='yes' ?><gpx xmlns="http://www.topografix.com/GPX/1/1" xmlns:gpxtpx="http://www.garmin.com/xmlschemas/TrackPointExtension/v1" xmlns:gpxx="http://www.garmin.com/xmlschemas/GpxExtensions/v3" xmlns:xsi="http://www.w3.org/2001/XMLSchema-instance" version="1.1" creator="Garmin Connect" xsi:schemaLocation="http://www.topografix.com/GPX/1/1 http://www.topografix.com/GPX/1/1/gpx.xsd http://www.garmin.com/xmlschemas/GpxExtensions/v3 http://www.garmin.com/xmlschemas/GpxExtensionsv3.xsd http://www.garmin.com/xmlschemas/TrackPointExtension/v1 http://www.garmin.com/xmlschemas/TrackPointExtensionv1.xsd"><trk><name>Ebike Biking</name><trkseg><trkpt lon="-999.0" lat="-999.0"><ele>0.0</ele><time>2019-09-10T15:04:52.000Z</time></trkpt><trkpt lon="-999.0" lat="-999.0"><ele>0.0</ele><time>2019-09-10T15:04:53.000Z</time></trkpt><trkpt lon="-999.0" lat="-999.0"><ele>0.0</ele><time>2019-09-10T15:04:54.000Z</time></trkpt><trkpt lon="-999.0" lat="-999.0"><ele>0.0</ele><time>2019-09-10T15:04:55.000Z</time></trkpt><trkpt lon="-999.0" lat="-999.0"><ele>0.0</ele><time>2019-09-10T15:04:56.000Z</time></trkpt><trkpt lon="15.6263019" lat="46.5500364"><ele>330</ele><time>2019-09-10T15:04:57.000Z</time></trkpt><trkpt lon="15.6263019" lat="46.5500364"><ele>330</ele><time>2019-09-10T15:04:58.000Z</time></trkpt><trkpt lon="15.6263019" lat="46.5500364"><ele>330</ele><time>2019-09-10T15:04:59.000Z</time></trkpt><trkpt lon="-999.0" lat="-999.0"><ele>0.0</ele><time>2019-09-10T15:05:00.000Z</time></trkpt><trkpt lon="-999.0" lat="-999.0"><ele>0.0</ele><time>2019-09-10T15:05:01.000Z</time></trkpt><trkpt lon="15.6262911" lat="46.5500103"><ele>330</ele><time>2019-09-10T15:05:02.000Z</time></trkpt><trkpt lon="15.6262911" lat="46.5500103"><ele>330</ele><time>2019-09-10T15:05:03.000Z</time></trkpt><trkpt lon="15.6262911" lat="46.5500103"><ele>330</ele><time>2019-09-10T15:05:04.000Z</time></trkpt><trkpt lon="-999.0" lat="-999.0"><ele>0.0</ele><time>2019-09-10T15:05:05.000Z</time></trkpt><trkpt lon="-999.0" lat="-999.0"><ele>0.0</ele><time>2019-09-10T15:05:06.000Z</time></trkpt><trkpt lon="-999.0" lat="-999.0"><ele>0.0</ele><time>2019-09-10T15:05:07.000Z</time></trkpt><trkpt lon="15.626303" lat="46.5499806"><ele>330</ele><time>2019-09-10T15:05:08.000Z</time></trkpt><trkpt lon="15.626303" lat="46.5499806"><ele>330</ele><time>2019-09-10T15:05:09.000Z</time></trkpt><trkpt lon="15.626303" lat="46.5499806"><ele>330</ele><time>2019-09-10T15:05:10.000Z</time></trkpt><trkpt lon="-999.0" lat="-999.0"><ele>0.0</ele><time>2019-09-10T15:05:11.000Z</time></trkpt><trkpt lon="-999.0" lat="-999.0"><ele>0.0</ele><time>2019-09-10T15:05:12.000Z</time></trkpt><trkpt lon="15.6263122" lat="46.549953"><ele>330</ele><time>2019-09-10T15:05:13.000Z</time></trkpt><trkpt lon="15.6263122" lat="46.549953"><ele>330</ele><time>2019-09-10T15:05:14.000Z</time></trkpt><trkpt lon="15.6263122" lat="46.549953"><ele>330</ele><time>2019-09-10T15:05:15.000Z</time></trkpt><trkpt lon="-999.0" lat="-999.0"><ele>0.0</ele><time>2019-09-10T15:05:16.000Z</time></trkpt><trkpt lon="-999.0" lat="-999.0"><ele>0.0</ele><time>2019-09-10T15:05:17.000Z</time></trkpt><trkpt lon="15.6262745" lat="46.5499272"><ele>314</ele><time>2019-09-10T15:05:18.000Z</time></trkpt><trkpt lon="15.6262745" lat="46.5499272"><ele>314</ele><time>2019-09-10T15:05:19.000Z</time></trkpt><trkpt lon="15.6262745" lat="46.5499272"><ele>314</ele><time>2019-09-10T15:05:20.000Z</time></trkpt><trkpt lon="-999.0" lat="-999.0"><ele>0.0</ele><time>2019-09-10T15:05:21.000Z</time></trkpt><trkpt lon="-999.0" lat="-999.0"><ele>0.0</ele><time>2019-09-10T15:05:22.000Z</time></trkpt><trkpt lon="-999.0" lat="-999.0"><ele>0.0</ele><time>2019-09-10T15:05:23.000Z</time></trkpt><trkpt lon="-999.0" lat="-999.0"><ele>0.0</ele><time>2019-09-10T15:05:24.000Z</time></trkpt><trkpt lon="-999.0" lat="-999.0"><ele>0.0</ele><time>2019-09-10T15:05:25.000Z</time></trkpt><trkpt lon="-999.0" lat="-999.0"><ele>0.0</ele><time>2019-09-10T15:05:26.000Z</time></trkpt><trkpt lon="-999.0" lat="-999.0"><ele>0.0</ele><time>2019-09-10T15:05:27.000Z</time></trkpt><trkpt lon="-999.0" lat="-999.0"><ele>0.0</ele><time>2019-09-10T15:05:28.000Z</time></trkpt><trkpt lon="-999.0" lat="-999.0"><ele>0.0</ele><time>2019-09-10T15:05:29.000Z</time></trkpt><trkpt lon="-999.0" lat="-999.0"><ele>0.0</ele><time>2019-09-10T15:05:30.000Z</time></trkpt><trkpt lon="-999.0" lat="-999.0"><ele>0.0</ele><time>2019-09-10T15:05:31.000Z</time></trkpt><trkpt lon="-999.0" lat="-999.0"><ele>0.0</ele><time>2019-09-10T15:05:32.000Z</time></trkpt><trkpt lon="-999.0" lat="-999.0"><ele>0.0</ele><time>2019-09-10T15:05:33.000Z</time></trkpt><trkpt lon="-999.0" lat="-999.0"><ele>0.0</ele><time>2019-09-10T15:05:34.000Z</time></trkpt><trkpt lon="-999.0" lat="-999.0"><ele>0.0</ele><time>2019-09-10T15:05:35.000Z</time></trkpt><trkpt lon="-999.0" lat="-999.0"><ele>0.0</ele><time>2019-09-10T15:05:36.000Z</time></trkpt><trkpt lon="-999.0" lat="-999.0"><ele>0.0</ele><time>2019-09-10T15:05:37.000Z</time></trkpt><trkpt lon="-999.0" lat="-999.0"><ele>0.0</ele><time>2019-09-10T15:05:38.000Z</time></trkpt><trkpt lon="-999.0" lat="-999.0"><ele>0.0</ele><time>2019-09-10T15:05:39.000Z</time></trkpt><trkpt lon="-999.0" lat="-999.0"><ele>0.0</ele><time>2019-09-10T15:05:40.000Z</time></trkpt><trkpt lon="-999.0" lat="-999.0"><ele>0.0</ele><time>2019-09-10T15:05:41.000Z</time></trkpt><trkpt lon="-999.0" lat="-999.0"><ele>0.0</ele><time>2019-09-10T15:05:42.000Z</time></trkpt><trkpt lon="-999.0" lat="-999.0"><ele>0.0</ele><time>2019-09-10T15:05:43.000Z</time></trkpt><trkpt lon="-999.0" lat="-999.0"><ele>0.0</ele><time>2019-09-10T15:05:44.000Z</time></trkpt><trkpt lon="-999.0" lat="-999.0"><ele>0.0</ele><time>2019-09-10T15:05:45.000Z</time></trkpt><trkpt lon="-999.0" lat="-999.0"><ele>0.0</ele><time>2019-09-10T15:05:46.000Z</time></trkpt><trkpt lon="-999.0" lat="-999.0"><ele>0.0</ele><time>2019-09-10T15:05:47.000Z</time></trkpt><trkpt lon="-999.0" lat="-999.0"><ele>0.0</ele><time>2019-09-10T15:05:48.000Z</time></trkpt><trkpt lon="-999.0" lat="-999.0"><ele>0.0</ele><time>2019-09-10T15:05:49.000Z</time></trkpt><trkpt lon="-999.0" lat="-999.0"><ele>0.0</ele><time>2019-09-10T15:05:50.000Z</time></trkpt><trkpt lon="-999.0" lat="-999.0"><ele>0.0</ele><time>2019-09-10T15:05:51.000Z</time></trkpt><trkpt lon="-999.0" lat="-999.0"><ele>0.0</ele><time>2019-09-10T15:05:52.000Z</time></trkpt><trkpt lon="-999.0" lat="-999.0"><ele>0.0</ele><time>2019-09-10T15:05:53.000Z</time></trkpt><trkpt lon="-999.0" lat="-999.0"><ele>0.0</ele><time>2019-09-10T15:05:54.000Z</time></trkpt><trkpt lon="-999.0" lat="-999.0"><ele>0.0</ele><time>2019-09-10T15:05:55.000Z</time></trkpt><trkpt lon="-999.0" lat="-999.0"><ele>0.0</ele><time>2019-09-10T15:05:56.000Z</time></trkpt><trkpt lon="-999.0" lat="-999.0"><ele>0.0</ele><time>2019-09-10T15:05:57.000Z</time></trkpt><trkpt lon="-999.0" lat="-999.0"><ele>0.0</ele><time>2019-09-10T15:05:58.000Z</time></trkpt><trkpt lon="-999.0" lat="-999.0"><ele>0.0</ele><time>2019-09-10T15:05:59.000Z</time></trkpt><trkpt lon="-999.0" lat="-999.0"><ele>0.0</ele><time>2019-09-10T15:06:00.000Z</time></trkpt><trkpt lon="-999.0" lat="-999.0"><ele>0.0</ele><time>2019-09-10T15:06:01.000Z</time></trkpt><trkpt lon="-999.0" lat="-999.0"><ele>0.0</ele><time>2019-09-10T15:06:02.000Z</time></trkpt><trkpt lon="-999.0" lat="-999.0"><ele>0.0</ele><time>2019-09-10T15:06:03.000Z</time></trkpt><trkpt lon="-999.0" lat="-999.0"><ele>0.0</ele><time>2019-09-10T15:06:04.000Z</time></trkpt><trkpt lon="-999.0" lat="-999.0"><ele>0.0</ele><time>2019-09-10T15:06:05.000Z</time></trkpt><trkpt lon="-999.0" lat="-999.0"><ele>0.0</ele><time>2019-09-10T15:06:06.000Z</time></trkpt><trkpt lon="-999.0" lat="-999.0"><ele>0.0</ele><time>2019-09-10T15:06:07.000Z</time></trkpt><trkpt lon="-999.0" lat="-999.0"><ele>0.0</ele><time>2019-09-10T15:06:08.000Z</time></trkpt><trkpt lon="-999.0" lat="-999.0"><ele>0.0</ele><time>2019-09-10T15:06:09.000Z</time></trkpt><trkpt lon="-999.0" lat="-999.0"><ele>0.0</ele><time>2019-09-10T15:06:10.000Z</time></trkpt><trkpt lon="-999.0" lat="-999.0"><ele>0.0</ele><time>2019-09-10T15:06:11.000Z</time></trkpt><trkpt lon="-999.0" lat="-999.0"><ele>0.0</ele><time>2019-09-10T15:06:12.000Z</time></trkpt><trkpt lon="-999.0" lat="-999.0"><ele>0.0</ele><time>2019-09-10T15:06:13.000Z</time></trkpt><trkpt lon="-999.0" lat="-999.0"><ele>0.0</ele><time>2019-09-10T15:06:14.000Z</time></trkpt><trkpt lon="-999.0" lat="-999.0"><ele>0.0</ele><time>2019-09-10T15:06:15.000Z</time></trkpt><trkpt lon="-999.0" lat="-999.0"><ele>0.0</ele><time>2019-09-10T15:06:16.000Z</time></trkpt><trkpt lon="-999.0" lat="-999.0"><ele>0.0</ele><time>2019-09-10T15:06:17.000Z</time></trkpt><trkpt lon="-999.0" lat="-999.0"><ele>0.0</ele><time>2019-09-10T15:06:18.000Z</time></trkpt><trkpt lon="-999.0" lat="-999.0"><ele>0.0</ele><time>2019-09-10T15:06:19.000Z</time></trkpt><trkpt lon="-999.0" lat="-999.0"><ele>0.0</ele><time>2019-09-10T15:06:20.000Z</time></trkpt><trkpt lon="-999.0" lat="-999.0"><ele>0.0</ele><time>2019-09-10T15:06:21.000Z</time></trkpt><trkpt lon="-999.0" lat="-999.0"><ele>0.0</ele><time>2019-09-10T15:06:22.000Z</time></trkpt><trkpt lon="-999.0" lat="-999.0"><ele>0.0</ele><time>2019-09-10T15:06:23.000Z</time></trkpt><trkpt lon="-999.0" lat="-999.0"><ele>0.0</ele><time>2019-09-10T15:06:24.000Z</time></trkpt><trkpt lon="-999.0" lat="-999.0"><ele>0.0</ele><time>2019-09-10T15:06:25.000Z</time></trkpt><trkpt lon="-999.0" lat="-999.0"><ele>0.0</ele><time>2019-09-10T15:06:26.000Z</time></trkpt><trkpt lon="-999.0" lat="-999.0"><ele>0.0</ele><time>2019-09-10T15:06:27.000Z</time></trkpt><trkpt lon="-999.0" lat="-999.0"><ele>0.0</ele><time>2019-09-10T15:06:28.000Z</time></trkpt><trkpt lon="-999.0" lat="-999.0"><ele>0.0</ele><time>2019-09-10T15:06:29.000Z</time></trkpt><trkpt lon="-999.0" lat="-999.0"><ele>0.0</ele><time>2019-09-10T15:06:30.000Z</time></trkpt><trkpt lon="-999.0" lat="-999.0"><ele>0.0</ele><time>2019-09-10T15:06:31.000Z</time></trkpt><trkpt lon="-999.0" lat="-999.0"><ele>0.0</ele><time>2019-09-10T15:06:32.000Z</time></trkpt><trkpt lon="-999.0" lat="-999.0"><ele>0.0</ele><time>2019-09-10T15:06:33.000Z</time></trkpt><trkpt lon="-999.0" lat="-999.0"><ele>0.0</ele><time>2019-09-10T15:06:34.000Z</time></trkpt><trkpt lon="-999.0" lat="-999.0"><ele>0.0</ele><time>2019-09-10T15:06:35.000Z</time></trkpt><trkpt lon="-999.0" lat="-999.0"><ele>0.0</ele><time>2019-09-10T15:06:36.000Z</time></trkpt><trkpt lon="-999.0" lat="-999.0"><ele>0.0</ele><time>2019-09-10T15:06:37.000Z</time></trkpt><trkpt lon="-999.0" lat="-999.0"><ele>0.0</ele><time>2019-09-10T15:06:38.000Z</time></trkpt><trkpt lon="-999.0" lat="-999.0"><ele>0.0</ele><time>2019-09-10T15:06:39.000Z</time></trkpt><trkpt lon="-999.0" lat="-999.0"><ele>0.0</ele><time>2019-09-10T15:06:40.000Z</time></trkpt><trkpt lon="-999.0" lat="-999.0"><ele>0.0</ele><time>2019-09-10T15:06:41.000Z</time></trkpt><trkpt lon="-999.0" lat="-999.0"><ele>0.0</ele><time>2019-09-10T15:06:42.000Z</time></trkpt><trkpt lon="-999.0" lat="-999.0"><ele>0.0</ele><time>2019-09-10T15:06:43.000Z</time></trkpt><trkpt lon="-999.0" lat="-999.0"><ele>0.0</ele><time>2019-09-10T15:06:44.000Z</time></trkpt><trkpt lon="-999.0" lat="-999.0"><ele>0.0</ele><time>2019-09-10T15:06:45.000Z</time></trkpt><trkpt lon="-999.0" lat="-999.0"><ele>0.0</ele><time>2019-09-10T15:06:46.000Z</time></trkpt><trkpt lon="-999.0" lat="-999.0"><ele>0.0</ele><time>2019-09-10T15:06:47.000Z</time></trkpt><trkpt lon="-999.0" lat="-999.0"><ele>0.0</ele><time>2019-09-10T15:06:48.000Z</time></trkpt><trkpt lon="-999.0" lat="-999.0"><ele>0.0</ele><time>2019-09-10T15:06:49.000Z</time></trkpt><trkpt lon="-999.0" lat="-999.0"><ele>0.0</ele><time>2019-09-10T15:06:50.000Z</time></trkpt><trkpt lon="-999.0" lat="-999.0"><ele>0.0</ele><time>2019-09-10T15:06:51.000Z</time></trkpt><trkpt lon="-999.0" lat="-999.0"><ele>0.0</ele><time>2019-09-10T15:06:52.000Z</time></trkpt><trkpt lon="-999.0" lat="-999.0"><ele>0.0</ele><time>2019-09-10T15:06:53.000Z</time></trkpt><trkpt lon="-999.0" lat="-999.0"><ele>0.0</ele><time>2019-09-10T15:06:54.000Z</time></trkpt><trkpt lon="-999.0" lat="-999.0"><ele>0.0</ele><time>2019-09-10T15:06:55.000Z</time></trkpt><trkpt lon="-999.0" lat="-999.0"><ele>0.0</ele><time>2019-09-10T15:06:56.000Z</time></trkpt><trkpt lon="-999.0" lat="-999.0"><ele>0.0</ele><time>2019-09-10T15:06:57.000Z</time></trkpt><trkpt lon="-999.0" lat="-999.0"><ele>0.0</ele><time>2019-09-10T15:06:58.000Z</time></trkpt><trkpt lon="-999.0" lat="-999.0"><ele>0.0</ele><time>2019-09-10T15:06:59.000Z</time></trkpt><trkpt lon="-999.0" lat="-999.0"><ele>0.0</ele><time>2019-09-10T15:07:00.000Z</time></trkpt><trkpt lon="-999.0" lat="-999.0"><ele>0.0</ele><time>2019-09-10T15:07:01.000Z</time></trkpt><trkpt lon="-999.0" lat="-999.0"><ele>0.0</ele><time>2019-09-10T15:07:02.000Z</time></trkpt><trkpt lon="-999.0" lat="-999.0"><ele>0.0</ele><time>2019-09-10T15:07:03.000Z</time></trkpt><trkpt lon="-999.0" lat="-999.0"><ele>0.0</ele><time>2019-09-10T15:07:04.000Z</time></trkpt><trkpt lon="-999.0" lat="-999.0"><ele>0.0</ele><time>2019-09-10T15:07:05.000Z</time></trkpt><trkpt lon="-999.0" lat="-999.0"><ele>0.0</ele><time>2019-09-10T15:07:06.000Z</time></trkpt><trkpt lon="-999.0" lat="-999.0"><ele>0.0</ele><time>2019-09-10T15:07:07.000Z</time></trkpt><trkpt lon="-999.0" lat="-999.0"><ele>0.0</ele><time>2019-09-10T15:07:08.000Z</time></trkpt><trkpt lon="-999.0" lat="-999.0"><ele>0.0</ele><time>2019-09-10T15:07:09.000Z</time></trkpt><trkpt lon="-999.0" lat="-999.0"><ele>0.0</ele><time>2019-09-10T15:07:10.000Z</time></trkpt><trkpt lon="-999.0" lat="-999.0"><ele>0.0</ele><time>2019-09-10T15:07:11.000Z</time></trkpt><trkpt lon="-999.0" lat="-999.0"><ele>0.0</ele><time>2019-09-10T15:07:12.000Z</time></trkpt><trkpt lon="-999.0" lat="-999.0"><ele>0.0</ele><time>2019-09-10T15:07:13.000Z</time></trkpt><trkpt lon="-999.0" lat="-999.0"><ele>0.0</ele><time>2019-09-10T15:07:14.000Z</time></trkpt><trkpt lon="-999.0" lat="-999.0"><ele>0.0</ele><time>2019-09-10T15:07:15.000Z</time></trkpt><trkpt lon="-999.0" lat="-999.0"><ele>0.0</ele><time>2019-09-10T15:07:16.000Z</time></trkpt><trkpt lon="-999.0" lat="-999.0"><ele>0.0</ele><time>2019-09-10T15:07:17.000Z</time></trkpt><trkpt lon="-999.0" lat="-999.0"><ele>0.0</ele><time>2019-09-10T15:07:18.000Z</time></trkpt><trkpt lon="-999.0" lat="-999.0"><ele>0.0</ele><time>2019-09-10T15:07:19.000Z</time></trkpt><trkpt lon="-999.0" lat="-999.0"><ele>0.0</ele><time>2019-09-10T15:07:20.000Z</time></trkpt><trkpt lon="-999.0" lat="-999.0"><ele>0.0</ele><time>2019-09-10T15:07:21.000Z</time></trkpt><trkpt lon="-999.0" lat="-999.0"><ele>0.0</ele><time>2019-09-10T15:07:22.000Z</time></trkpt><trkpt lon="-999.0" lat="-999.0"><ele>0.0</ele><time>2019-09-10T15:07:23.000Z</time></trkpt><trkpt lon="-999.0" lat="-999.0"><ele>0.0</ele><time>2019-09-10T15:07:24.000Z</time></trkpt><trkpt lon="-999.0" lat="-999.0"><ele>0.0</ele><time>2019-09-10T15:07:25.000Z</time></trkpt><trkpt lon="-999.0" lat="-999.0"><ele>0.0</ele><time>2019-09-10T15:07:26.000Z</time></trkpt><trkpt lon="-999.0" lat="-999.0"><ele>0.0</ele><time>2019-09-10T15:07:27.000Z</time></trkpt><trkpt lon="-999.0" lat="-999.0"><ele>0.0</ele><time>2019-09-10T15:07:28.000Z</time></trkpt><trkpt lon="-999.0" lat="-999.0"><ele>0.0</ele><time>2019-09-10T15:07:29.000Z</time></trkpt><trkpt lon="-999.0" lat="-999.0"><ele>0.0</ele><time>2019-09-10T15:07:30.000Z</time></trkpt><trkpt lon="-999.0" lat="-999.0"><ele>0.0</ele><time>2019-09-10T15:07:31.000Z</time></trkpt><trkpt lon="-999.0" lat="-999.0"><ele>0.0</ele><time>2019-09-10T15:07:32.000Z</time></trkpt><trkpt lon="-999.0" lat="-999.0"><ele>0.0</ele><time>2019-09-10T15:07:33.000Z</time></trkpt><trkpt lon="-999.0" lat="-999.0"><ele>0.0</ele><time>2019-09-10T15:07:34.000Z</time></trkpt><trkpt lon="-999.0" lat="-999.0"><ele>0.0</ele><time>2019-09-10T15:07:35.000Z</time></trkpt><trkpt lon="-999.0" lat="-999.0"><ele>0.0</ele><time>2019-09-10T15:07:36.000Z</time></trkpt><trkpt lon="-999.0" lat="-999.0"><ele>0.0</ele><time>2019-09-10T15:07:37.000Z</time></trkpt><trkpt lon="-999.0" lat="-999.0"><ele>0.0</ele><time>2019-09-10T15:07:38.000Z</time></trkpt><trkpt lon="-999.0" lat="-999.0"><ele>0.0</ele><time>2019-09-10T15:07:39.000Z</time></trkpt><trkpt lon="-999.0" lat="-999.0"><ele>0.0</ele><time>2019-09-10T15:07:40.000Z</time></trkpt><trkpt lon="-999.0" lat="-999.0"><ele>0.0</ele><time>2019-09-10T15:07:41.000Z</time></trkpt><trkpt lon="-999.0" lat="-999.0"><ele>0.0</ele><time>2019-09-10T15:07:42.000Z</time></trkpt><trkpt lon="-999.0" lat="-999.0"><ele>0.0</ele><time>2019-09-10T15:07:43.000Z</time></trkpt><trkpt lon="-999.0" lat="-999.0"><ele>0.0</ele><time>2019-09-10T15:07:44.000Z</time></trkpt><trkpt lon="-999.0" lat="-999.0"><ele>0.0</ele><time>2019-09-10T15:07:45.000Z</time></trkpt><trkpt lon="-999.0" lat="-999.0"><ele>0.0</ele><time>2019-09-10T15:07:46.000Z</time></trkpt><trkpt lon="-999.0" lat="-999.0"><ele>0.0</ele><time>2019-09-10T15:07:47.000Z</time></trkpt><trkpt lon="-999.0" lat="-999.0"><ele>0.0</ele><time>2019-09-10T15:07:48.000Z</time></trkpt><trkpt lon="-999.0" lat="-999.0"><ele>0.0</ele><time>2019-09-10T15:07:49.000Z</time></trkpt><trkpt lon="-999.0" lat="-999.0"><ele>0.0</ele><time>2019-09-10T15:07:50.000Z</time></trkpt><trkpt lon="-999.0" lat="-999.0"><ele>0.0</ele><time>2019-09-10T15:07:51.000Z</time></trkpt><trkpt lon="-999.0" lat="-999.0"><ele>0.0</ele><time>2019-09-10T15:07:52.000Z</time></trkpt><trkpt lon="-999.0" lat="-999.0"><ele>0.0</ele><time>2019-09-10T15:07:53.000Z</time></trkpt><trkpt lon="-999.0" lat="-999.0"><ele>0.0</ele><time>2019-09-10T15:07:54.000Z</time></trkpt><trkpt lon="-999.0" lat="-999.0"><ele>0.0</ele><time>2019-09-10T15:07:55.000Z</time></trkpt><trkpt lon="-999.0" lat="-999.0"><ele>0.0</ele><time>2019-09-10T15:07:56.000Z</time></trkpt><trkpt lon="-999.0" lat="-999.0"><ele>0.0</ele><time>2019-09-10T15:07:57.000Z</time></trkpt><trkpt lon="-999.0" lat="-999.0"><ele>0.0</ele><time>2019-09-10T15:07:58.000Z</time></trkpt><trkpt lon="-999.0" lat="-999.0"><ele>0.0</ele><time>2019-09-10T15:07:59.000Z</time></trkpt><trkpt lon="-999.0" lat="-999.0"><ele>0.0</ele><time>2019-09-10T15:08:00.000Z</time></trkpt><trkpt lon="-999.0" lat="-999.0"><ele>0.0</ele><time>2019-09-10T15:08:01.000Z</time></trkpt><trkpt lon="-999.0" lat="-999.0"><ele>0.0</ele><time>2019-09-10T15:08:02.000Z</time></trkpt><trkpt lon="-999.0" lat="-999.0"><ele>0.0</ele><time>2019-09-10T15:08:03.000Z</time></trkpt><trkpt lon="-999.0" lat="-999.0"><ele>0.0</ele><time>2019-09-10T15:08:04.000Z</time></trkpt><trkpt lon="-999.0" lat="-999.0"><ele>0.0</ele><time>2019-09-10T15:08:05.000Z</time></trkpt><trkpt lon="-999.0" lat="-999.0"><ele>0.0</ele><time>2019-09-10T15:08:06.000Z</time></trkpt><trkpt lon="-999.0" lat="-999.0"><ele>0.0</ele><time>2019-09-10T15:08:07.000Z</time></trkpt><trkpt lon="-999.0" lat="-999.0"><ele>0.0</ele><time>2019-09-10T15:08:08.000Z</time></trkpt><trkpt lon="-999.0" lat="-999.0"><ele>0.0</ele><time>2019-09-10T15:08:09.000Z</time></trkpt><trkpt lon="-999.0" lat="-999.0"><ele>0.0</ele><time>2019-09-10T15:08:10.000Z</time></trkpt><trkpt lon="-999.0" lat="-999.0"><ele>0.0</ele><time>2019-09-10T15:08:11.000Z</time></trkpt><trkpt lon="-999.0" lat="-999.0"><ele>0.0</ele><time>2019-09-10T15:08:12.000Z</time></trkpt><trkpt lon="-999.0" lat="-999.0"><ele>0.0</ele><time>2019-09-10T15:08:13.000Z</time></trkpt><trkpt lon="-999.0" lat="-999.0"><ele>0.0</ele><time>2019-09-10T15:08:14.000Z</time></trkpt><trkpt lon="-999.0" lat="-999.0"><ele>0.0</ele><time>2019-09-10T15:08:15.000Z</time></trkpt><trkpt lon="-999.0" lat="-999.0"><ele>0.0</ele><time>2019-09-10T15:08:16.000Z</time></trkpt><trkpt lon="-999.0" lat="-999.0"><ele>0.0</ele><time>2019-09-10T15:08:17.000Z</time></trkpt><trkpt lon="-999.0" lat="-999.0"><ele>0.0</ele><time>2019-09-10T15:08:18.000Z</time></trkpt><trkpt lon="-999.0" lat="-999.0"><ele>0.0</ele><time>2019-09-10T15:08:19.000Z</time></trkpt><trkpt lon="-999.0" lat="-999.0"><ele>0.0</ele><time>2019-09-10T15:08:20.000Z</time></trkpt><trkpt lon="-999.0" lat="-999.0"><ele>0.0</ele><time>2019-09-10T15:08:21.000Z</time></trkpt><trkpt lon="-999.0" lat="-999.0"><ele>0.0</ele><time>2019-09-10T15:08:22.000Z</time></trkpt><trkpt lon="-999.0" lat="-999.0"><ele>0.0</ele><time>2019-09-10T15:08:23.000Z</time></trkpt><trkpt lon="-999.0" lat="-999.0"><ele>0.0</ele><time>2019-09-10T15:08:24.000Z</time></trkpt><trkpt lon="-999.0" lat="-999.0"><ele>0.0</ele><time>2019-09-10T15:08:25.000Z</time></trkpt><trkpt lon="-999.0" lat="-999.0"><ele>0.0</ele><time>2019-09-10T15:08:26.000Z</time></trkpt><trkpt lon="-999.0" lat="-999.0"><ele>0.0</ele><time>2019-09-10T15:08:27.000Z</time></trkpt><trkpt lon="-999.0" lat="-999.0"><ele>0.0</ele><time>2019-09-10T15:08:28.000Z</time></trkpt><trkpt lon="-999.0" lat="-999.0"><ele>0.0</ele><time>2019-09-10T15:08:29.000Z</time></trkpt><trkpt lon="-999.0" lat="-999.0"><ele>0.0</ele><time>2019-09-10T15:08:30.000Z</time></trkpt><trkpt lon="-999.0" lat="-999.0"><ele>0.0</ele><time>2019-09-10T15:08:31.000Z</time></trkpt><trkpt lon="-999.0" lat="-999.0"><ele>0.0</ele><time>2019-09-10T15:08:32.000Z</time></trkpt><trkpt lon="-999.0" lat="-999.0"><ele>0.0</ele><time>2019-09-10T15:08:33.000Z</time></trkpt><trkpt lon="-999.0" lat="-999.0"><ele>0.0</ele><time>2019-09-10T15:08:34.000Z</time></trkpt><trkpt lon="-999.0" lat="-999.0"><ele>0.0</ele><time>2019-09-10T15:08:35.000Z</time></trkpt><trkpt lon="-999.0" lat="-999.0"><ele>0.0</ele><time>2019-09-10T15:08:36.000Z</time></trkpt><trkpt lon="-999.0" lat="-999.0"><ele>0.0</ele><time>2019-09-10T15:08:37.000Z</time></trkpt><trkpt lon="-999.0" lat="-999.0"><ele>0.0</ele><time>2019-09-10T15:08:38.000Z</time></trkpt><trkpt lon="-999.0" lat="-999.0"><ele>0.0</ele><time>2019-09-10T15:08:39.000Z</time></trkpt><trkpt lon="-999.0" lat="-999.0"><ele>0.0</ele><time>2019-09-10T15:08:40.000Z</time></trkpt><trkpt lon="-999.0" lat="-999.0"><ele>0.0</ele><time>2019-09-10T15:08:41.000Z</time></trkpt><trkpt lon="-999.0" lat="-999.0"><ele>0.0</ele><time>2019-09-10T15:08:42.000Z</time></trkpt><trkpt lon="-999.0" lat="-999.0"><ele>0.0</ele><time>2019-09-10T15:08:43.000Z</time></trkpt><trkpt lon="-999.0" lat="-999.0"><ele>0.0</ele><time>2019-09-10T15:08:44.000Z</time></trkpt><trkpt lon="-999.0" lat="-999.0"><ele>0.0</ele><time>2019-09-10T15:08:45.000Z</time></trkpt><trkpt lon="-999.0" lat="-999.0"><ele>0.0</ele><time>2019-09-10T15:08:46.000Z</time></trkpt><trkpt lon="-999.0" lat="-999.0"><ele>0.0</ele><time>2019-09-10T15:08:47.000Z</time></trkpt><trkpt lon="-999.0" lat="-999.0"><ele>0.0</ele><time>2019-09-10T15:08:48.000Z</time></trkpt><trkpt lon="-999.0" lat="-999.0"><ele>0.0</ele><time>2019-09-10T15:08:49.000Z</time></trkpt><trkpt lon="-999.0" lat="-999.0"><ele>0.0</ele><time>2019-09-10T15:08:50.000Z</time></trkpt><trkpt lon="-999.0" lat="-999.0"><ele>0.0</ele><time>2019-09-10T15:08:51.000Z</time></trkpt><trkpt lon="-999.0" lat="-999.0"><ele>0.0</ele><time>2019-09-10T15:08:52.000Z</time></trkpt><trkpt lon="-999.0" lat="-999.0"><ele>0.0</ele><time>2019-09-10T15:08:53.000Z</time></trkpt><trkpt lon="-999.0" lat="-999.0"><ele>0.0</ele><time>2019-09-10T15:08:54.000Z</time></trkpt><trkpt lon="-999.0" lat="-999.0"><ele>0.0</ele><time>2019-09-10T15:08:55.000Z</time></trkpt><trkpt lon="-999.0" lat="-999.0"><ele>0.0</ele><time>2019-09-10T15:08:56.000Z</time></trkpt><trkpt lon="-999.0" lat="-999.0"><ele>0.0</ele><time>2019-09-10T15:08:57.000Z</time></trkpt><trkpt lon="-999.0" lat="-999.0"><ele>0.0</ele><time>2019-09-10T15:08:58.000Z</time></trkpt><trkpt lon="-999.0" lat="-999.0"><ele>0.0</ele><time>2019-09-10T15:08:59.000Z</time></trkpt><trkpt lon="-999.0" lat="-999.0"><ele>0.0</ele><time>2019-09-10T15:09:00.000Z</time></trkpt><trkpt lon="-999.0" lat="-999.0"><ele>0.0</ele><time>2019-09-10T15:09:01.000Z</time></trkpt><trkpt lon="-999.0" lat="-999.0"><ele>0.0</ele><time>2019-09-10T15:09:02.000Z</time></trkpt><trkpt lon="-999.0" lat="-999.0"><ele>0.0</ele><time>2019-09-10T15:09:03.000Z</time></trkpt><trkpt lon="-999.0" lat="-999.0"><ele>0.0</ele><time>2019-09-10T15:09:04.000Z</time></trkpt><trkpt lon="-999.0" lat="-999.0"><ele>0.0</ele><time>2019-09-10T15:09:05.000Z</time></trkpt><trkpt lon="-999.0" lat="-999.0"><ele>0.0</ele><time>2019-09-10T15:09:06.000Z</time></trkpt><trkpt lon="-999.0" lat="-999.0"><ele>0.0</ele><time>2019-09-10T15:09:07.000Z</time></trkpt><trkpt lon="-999.0" lat="-999.0"><ele>0.0</ele><time>2019-09-10T15:09:08.000Z</time></trkpt><trkpt lon="-999.0" lat="-999.0"><ele>0.0</ele><time>2019-09-10T15:09:09.000Z</time></trkpt><trkpt lon="-999.0" lat="-999.0"><ele>0.0</ele><time>2019-09-10T15:09:10.000Z</time></trkpt><trkpt lon="15.6260783" lat="46.5500844"><ele>330</ele><time>2019-09-10T15:09:11.000Z</time></trkpt><trkpt lon="15.6260783" lat="46.5500844"><ele>330</ele><time>2019-09-10T15:09:12.000Z</time></trkpt><trkpt lon="15.6261848" lat="46.5500282"><ele>332</ele><time>2019-09-10T15:09:13.000Z</time></trkpt><trkpt lon="15.6261848" lat="46.5500282"><ele>332</ele><time>2019-09-10T15:09:14.000Z</time></trkpt><trkpt lon="15.6261848" lat="46.5500282"><ele>332</ele><time>2019-09-10T15:09:15.000Z</time></trkpt><trkpt lon="-999.0" lat="-999.0"><ele>0.0</ele><time>2019-09-10T15:09:16.000Z</time></trkpt><trkpt lon="-999.0" lat="-999.0"><ele>0.0</ele><time>2019-09-10T15:09:17.000Z</time></trkpt><trkpt lon="-999.0" lat="-999.0"><ele>0.0</ele><time>2019-09-10T15:09:18.000Z</time></trkpt><trkpt lon="-999.0" lat="-999.0"><ele>0.0</ele><time>2019-09-10T15:09:19.000Z</time></trkpt><trkpt lon="15.6262227" lat="46.5500429"><ele>324</ele><time>2019-09-10T15:09:20.000Z</time></trkpt><trkpt lon="15.6262227" lat="46.5500429"><ele>324</ele><time>2019-09-10T15:09:21.000Z</time></trkpt><trkpt lon="15.6262227" lat="46.5500429"><ele>324</ele><time>2019-09-10T15:09:22.000Z</time></trkpt><trkpt lon="15.6262227" lat="46.5500429"><ele>324</ele><time>2019-09-10T15:09:23.000Z</time></trkpt><trkpt lon="-999.0" lat="-999.0"><ele>0.0</ele><time>2019-09-10T15:09:24.000Z</time></trkpt><trkpt lon="15.6262269" lat="46.5500711"><ele>325</ele><time>2019-09-10T15:09:25.000Z</time></trkpt><trkpt lon="15.6262269" lat="46.5500711"><ele>325</ele><time>2019-09-10T15:09:26.000Z</time></trkpt><trkpt lon="15.6262269" lat="46.5500711"><ele>325</ele><time>2019-09-10T15:09:27.000Z</time></trkpt><trkpt lon="15.6262269" lat="46.5500711"><ele>325</ele><time>2019-09-10T15:09:28.000Z</time></trkpt><trkpt lon="-999.0" lat="-999.0"><ele>0.0</ele><time>2019-09-10T15:09:29.000Z</time></trkpt><trkpt lon="-999.0" lat="-999.0"><ele>0.0</ele><time>2019-09-10T15:09:30.000Z</time></trkpt><trkpt lon="-999.0" lat="-999.0"><ele>0.0</ele><time>2019-09-10T15:09:31.000Z</time></trkpt><trkpt lon="-999.0" lat="-999.0"><ele>0.0</ele><time>2019-09-10T15:09:32.000Z</time></trkpt><trkpt lon="-999.0" lat="-999.0"><ele>0.0</ele><time>2019-09-10T15:09:33.000Z</time></trkpt><trkpt lon="-999.0" lat="-999.0"><ele>0.0</ele><time>2019-09-10T15:09:34.000Z</time></trkpt><trkpt lon="-999.0" lat="-999.0"><ele>0.0</ele><time>2019-09-10T15:09:35.000Z</time></trkpt><trkpt lon="-999.0" lat="-999.0"><ele>0.0</ele><time>2019-09-10T15:09:36.000Z</time></trkpt><trkpt lon="-999.0" lat="-999.0"><ele>0.0</ele><time>2019-09-10T15:09:37.000Z</time></trkpt><trkpt lon="-999.0" lat="-999.0"><ele>0.0</ele><time>2019-09-10T15:09:38.000Z</time></trkpt><trkpt lon="-999.0" lat="-999.0"><ele>0.0</ele><time>2019-09-10T15:09:39.000Z</time></trkpt><trkpt lon="-999.0" lat="-999.0"><ele>0.0</ele><time>2019-09-10T15:09:40.000Z</time></trkpt><trkpt lon="15.6262242" lat="46.550101"><ele>327</ele><time>2019-09-10T15:09:41.000Z</time></trkpt><trkpt lon="15.6262242" lat="46.550101"><ele>327</ele><time>2019-09-10T15:09:42.000Z</time></trkpt><trkpt lon="15.6262114" lat="46.5501351"><ele>328</ele><time>2019-09-10T15:09:43.000Z</time></trkpt><trkpt lon="15.6262114" lat="46.5501351"><ele>328</ele><time>2019-09-10T15:09:44.000Z</time></trkpt><trkpt lon="15.6261667" lat="46.5501771"><ele>328</ele><time>2019-09-10T15:09:45.000Z</time></trkpt><trkpt lon="15.6261667" lat="46.5501771"><ele>328</ele><time>2019-09-10T15:09:46.000Z</time></trkpt><trkpt lon="15.6260786" lat="46.5502131"><ele>328</ele><time>2019-09-10T15:09:47.000Z</time></trkpt><trkpt lon="15.6260321" lat="46.5502292"><ele>328</ele><time>2019-09-10T15:09:48.000Z</time></trkpt><trkpt lon="15.6260321" lat="46.5502292"><ele>328</ele><time>2019-09-10T15:09:49.000Z</time></trkpt><trkpt lon="15.6259162" lat="46.5502659"><ele>328</ele><time>2019-09-10T15:09:50.000Z</time></trkpt><trkpt lon="15.6258176" lat="46.5502989"><ele>328</ele><time>2019-09-10T15:09:51.000Z</time></trkpt><trkpt lon="15.6258176" lat="46.5502989"><ele>328</ele><time>2019-09-10T15:09:52.000Z</time></trkpt><trkpt lon="15.6257005" lat="46.550328"><ele>328</ele><time>2019-09-10T15:09:53.000Z</time></trkpt><trkpt lon="15.6257005" lat="46.550328"><ele>328</ele><time>2019-09-10T15:09:54.000Z</time></trkpt><trkpt lon="15.6255911" lat="46.5503527"><ele>329</ele><time>2019-09-10T15:09:55.000Z</time></trkpt><trkpt lon="15.6255911" lat="46.5503527"><ele>329</ele><time>2019-09-10T15:09:56.000Z</time></trkpt><trkpt lon="15.625489" lat="46.5503916"><ele>329</ele><time>2019-09-10T15:09:57.000Z</time></trkpt><trkpt lon="15.625489" lat="46.5503916"><ele>329</ele><time>2019-09-10T15:09:58.000Z</time></trkpt><trkpt lon="15.6253728" lat="46.5504296"><ele>329</ele><time>2019-09-10T15:09:59.000Z</time></trkpt><trkpt lon="15.6253728" lat="46.5504296"><ele>329</ele><time>2019-09-10T15:10:00.000Z</time></trkpt><trkpt lon="15.6252542" lat="46.550464"><ele>329</ele><time>2019-09-10T15:10:01.000Z</time></trkpt><trkpt lon="15.6251946" lat="46.5504825"><ele>329</ele><time>2019-09-10T15:10:02.000Z</time></trkpt><trkpt lon="15.6251946" lat="46.5504825"><ele>329</ele><time>2019-09-10T15:10:03.000Z</time></trkpt><trkpt lon="15.6250685" lat="46.5505215"><ele>329</ele><time>2019-09-10T15:10:04.000Z</time></trkpt><trkpt lon="15.6250685" lat="46.5505215"><ele>329</ele><time>2019-09-10T15:10:05.000Z</time></trkpt><trkpt lon="15.6249454" lat="46.5505592"><ele>329</ele><time>2019-09-10T15:10:06.000Z</time></trkpt><trkpt lon="15.6249454" lat="46.5505592"><ele>329</ele><time>2019-09-10T15:10:07.000Z</time></trkpt><trkpt lon="15.6248132" lat="46.5505855"><ele>329</ele><time>2019-09-10T15:10:08.000Z</time></trkpt><trkpt lon="15.6248132" lat="46.5505855"><ele>329</ele><time>2019-09-10T15:10:09.000Z</time></trkpt><trkpt lon="15.6246794" lat="46.5506176"><ele>329</ele><time>2019-09-10T15:10:10.000Z</time></trkpt><trkpt lon="15.6246117" lat="46.55064"><ele>329</ele><time>2019-09-10T15:10:11.000Z</time></trkpt><trkpt lon="15.6246117" lat="46.55064"><ele>329</ele><time>2019-09-10T15:10:12.000Z</time></trkpt><trkpt lon="15.6244715" lat="46.5506742"><ele>329</ele><time>2019-09-10T15:10:13.000Z</time></trkpt><trkpt lon="15.6244715" lat="46.5506742"><ele>329</ele><time>2019-09-10T15:10:14.000Z</time></trkpt><trkpt lon="15.6243413" lat="46.5507124"><ele>329</ele><time>2019-09-10T15:10:15.000Z</time></trkpt><trkpt lon="15.6243413" lat="46.5507124"><ele>329</ele><time>2019-09-10T15:10:16.000Z</time></trkpt><trkpt lon="15.6242181" lat="46.5507518"><ele>329</ele><time>2019-09-10T15:10:17.000Z</time></trkpt><trkpt lon="15.6241571" lat="46.5507692"><ele>330</ele><time>2019-09-10T15:10:18.000Z</time></trkpt><trkpt lon="15.6241571" lat="46.5507692"><ele>330</ele><time>2019-09-10T15:10:19.000Z</time></trkpt><trkpt lon="15.6240379" lat="46.5508061"><ele>330</ele><time>2019-09-10T15:10:20.000Z</time></trkpt><trkpt lon="15.6239805" lat="46.550827"><ele>330</ele><time>2019-09-10T15:10:21.000Z</time></trkpt><trkpt lon="15.6239805" lat="46.550827"><ele>330</ele><time>2019-09-10T15:10:22.000Z</time></trkpt><trkpt lon="15.6238663" lat="46.5508678"><ele>330</ele><time>2019-09-10T15:10:23.000Z</time></trkpt><trkpt lon="15.6238087" lat="46.5508871"><ele>330</ele><time>2019-09-10T15:10:24.000Z</time></trkpt><trkpt lon="15.6237504" lat="46.5509088"><ele>330</ele><time>2019-09-10T15:10:25.000Z</time></trkpt><trkpt lon="15.6237504" lat="46.5509088"><ele>330</ele><time>2019-09-10T15:10:26.000Z</time></trkpt><trkpt lon="15.6236261" lat="46.5509437"><ele>330</ele><time>2019-09-10T15:10:27.000Z</time></trkpt><trkpt lon="15.6236261" lat="46.5509437"><ele>330</ele><time>2019-09-10T15:10:28.000Z</time></trkpt><trkpt lon="15.6235017" lat="46.5509821"><ele>330</ele><time>2019-09-10T15:10:29.000Z</time></trkpt><trkpt lon="15.6235017" lat="46.5509821"><ele>330</ele><time>2019-09-10T15:10:30.000Z</time></trkpt><trkpt lon="15.6233884" lat="46.5510184"><ele>330</ele><time>2019-09-10T15:10:31.000Z</time></trkpt><trkpt lon="15.6233884" lat="46.5510184"><ele>330</ele><time>2019-09-10T15:10:32.000Z</time></trkpt><trkpt lon="15.623287" lat="46.5510534"><ele>330</ele><time>2019-09-10T15:10:33.000Z</time></trkpt><trkpt lon="15.623238" lat="46.5510709"><ele>330</ele><time>2019-09-10T15:10:34.000Z</time></trkpt><trkpt lon="15.623238" lat="46.5510709"><ele>330</ele><time>2019-09-10T15:10:35.000Z</time></trkpt><trkpt lon="15.6231411" lat="46.5511037"><ele>330</ele><time>2019-09-10T15:10:36.000Z</time></trkpt><trkpt lon="15.6231411" lat="46.5511037"><ele>330</ele><time>2019-09-10T15:10:37.000Z</time></trkpt><trkpt lon="15.6230628" lat="46.5511289"><ele>330</ele><time>2019-09-10T15:10:38.000Z</time></trkpt><trkpt lon="15.6230628" lat="46.5511289"><ele>330</ele><time>2019-09-10T15:10:39.000Z</time></trkpt><trkpt lon="15.6230054" lat="46.5511469"><ele>330</ele><time>2019-09-10T15:10:40.000Z</time></trkpt><trkpt lon="15.6229598" lat="46.5511643"><ele>330</ele><time>2019-09-10T15:10:41.000Z</time></trkpt><trkpt lon="15.6229598" lat="46.5511643"><ele>330</ele><time>2019-09-10T15:10:42.000Z</time></trkpt><trkpt lon="15.6229088" lat="46.5511946"><ele>330</ele><time>2019-09-10T15:10:43.000Z</time></trkpt><trkpt lon="15.6229088" lat="46.5511946"><ele>330</ele><time>2019-09-10T15:10:44.000Z</time></trkpt><trkpt lon="15.6228649" lat="46.5512122"><ele>330</ele><time>2019-09-10T15:10:45.000Z</time></trkpt><trkpt lon="15.6228649" lat="46.5512122"><ele>330</ele><time>2019-09-10T15:10:46.000Z</time></trkpt><trkpt lon="15.6228214" lat="46.5512302"><ele>330</ele><time>2019-09-10T15:10:47.000Z</time></trkpt><trkpt lon="15.6228214" lat="46.5512302"><ele>330</ele><time>2019-09-10T15:10:48.000Z</time></trkpt><trkpt lon="15.6228214" lat="46.5512302"><ele>330</ele><time>2019-09-10T15:10:49.000Z</time></trkpt><trkpt lon="-999.0" lat="-999.0"><ele>0.0</ele><time>2019-09-10T15:10:50.000Z</time></trkpt><trkpt lon="-999.0" lat="-999.0"><ele>0.0</ele><time>2019-09-10T15:10:51.000Z</time></trkpt><trkpt lon="-999.0" lat="-999.0"><ele>0.0</ele><time>2019-09-10T15:10:52.000Z</time></trkpt><trkpt lon="-999.0" lat="-999.0"><ele>0.0</ele><time>2019-09-10T15:10:53.000Z</time></trkpt><trkpt lon="15.6227855" lat="46.5512415"><ele>330</ele><time>2019-09-10T15:10:54.000Z</time></trkpt><trkpt lon="15.6227855" lat="46.5512415"><ele>330</ele><time>2019-09-10T15:10:55.000Z</time></trkpt><trkpt lon="15.6227855" lat="46.5512415"><ele>330</ele><time>2019-09-10T15:10:56.000Z</time></trkpt><trkpt lon="15.6227384" lat="46.5512683"><ele>330</ele><time>2019-09-10T15:10:57.000Z</time></trkpt><trkpt lon="15.6227384" lat="46.5512683"><ele>330</ele><time>2019-09-10T15:10:58.000Z</time></trkpt><trkpt lon="15.6226924" lat="46.5513211"><ele>330</ele><time>2019-09-10T15:10:59.000Z</time></trkpt><trkpt lon="15.6226924" lat="46.5513211"><ele>330</ele><time>2019-09-10T15:11:00.000Z</time></trkpt><trkpt lon="15.6226196" lat="46.5513595"><ele>330</ele><time>2019-09-10T15:11:01.000Z</time></trkpt><trkpt lon="15.6226196" lat="46.5513595"><ele>330</ele><time>2019-09-10T15:11:02.000Z</time></trkpt><trkpt lon="15.6225395" lat="46.5513717"><ele>330</ele><time>2019-09-10T15:11:03.000Z</time></trkpt><trkpt lon="15.6224948" lat="46.5513739"><ele>329</ele><time>2019-09-10T15:11:04.000Z</time></trkpt><trkpt lon="15.6224349" lat="46.551373"><ele>329</ele><time>2019-09-10T15:11:05.000Z</time></trkpt><trkpt lon="15.6224349" lat="46.551373"><ele>329</ele><time>2019-09-10T15:11:06.000Z</time></trkpt><trkpt lon="15.6223342" lat="46.5513748"><ele>329</ele><time>2019-09-10T15:11:07.000Z</time></trkpt><trkpt lon="15.6223342" lat="46.5513748"><ele>329</ele><time>2019-09-10T15:11:08.000Z</time></trkpt><trkpt lon="15.6222074" lat="46.5513987"><ele>329</ele><time>2019-09-10T15:11:09.000Z</time></trkpt><trkpt lon="15.6221598" lat="46.5514131"><ele>329</ele><time>2019-09-10T15:11:10.000Z</time></trkpt><trkpt lon="15.6221598" lat="46.5514131"><ele>329</ele><time>2019-09-10T15:11:11.000Z</time></trkpt><trkpt lon="15.6220526" lat="46.5514488"><ele>329</ele><time>2019-09-10T15:11:12.000Z</time></trkpt><trkpt lon="15.6220526" lat="46.5514488"><ele>329</ele><time>2019-09-10T15:11:13.000Z</time></trkpt><trkpt lon="15.6219205" lat="46.5514923"><ele>329</ele><time>2019-09-10T15:11:14.000Z</time></trkpt><trkpt lon="15.6219205" lat="46.5514923"><ele>329</ele><time>2019-09-10T15:11:15.000Z</time></trkpt><trkpt lon="15.6218065" lat="46.5515268"><ele>330</ele><time>2019-09-10T15:11:16.000Z</time></trkpt><trkpt lon="15.6218065" lat="46.5515268"><ele>330</ele><time>2019-09-10T15:11:17.000Z</time></trkpt><trkpt lon="15.6216839" lat="46.5515612"><ele>330</ele><time>2019-09-10T15:11:18.000Z</time></trkpt><trkpt lon="15.621616" lat="46.5515802"><ele>330</ele><time>2019-09-10T15:11:19.000Z</time></trkpt><trkpt lon="15.6215462" lat="46.5516013"><ele>330</ele><time>2019-09-10T15:11:20.000Z</time></trkpt><trkpt lon="15.6215462" lat="46.5516013"><ele>330</ele><time>2019-09-10T15:11:21.000Z</time></trkpt><trkpt lon="15.6214015" lat="46.551647"><ele>330</ele><time>2019-09-10T15:11:22.000Z</time></trkpt><trkpt lon="15.6214015" lat="46.551647"><ele>330</ele><time>2019-09-10T15:11:23.000Z</time></trkpt><trkpt lon="15.6212652" lat="46.5516905"><ele>330</ele><time>2019-09-10T15:11:24.000Z</time></trkpt><trkpt lon="15.6212652" lat="46.5516905"><ele>330</ele><time>2019-09-10T15:11:25.000Z</time></trkpt><trkpt lon="15.6211513" lat="46.5517283"><ele>330</ele><time>2019-09-10T15:11:26.000Z</time></trkpt><trkpt lon="15.6211513" lat="46.5517283"><ele>330</ele><time>2019-09-10T15:11:27.000Z</time></trkpt><trkpt lon="15.6210467" lat="46.5517574"><ele>330</ele><time>2019-09-10T15:11:28.000Z</time></trkpt><trkpt lon="15.6210467" lat="46.5517574"><ele>330</ele><time>2019-09-10T15:11:29.000Z</time></trkpt><trkpt lon="15.6209452" lat="46.551792"><ele>329</ele><time>2019-09-10T15:11:30.000Z</time></trkpt><trkpt lon="15.6209452" lat="46.551792"><ele>329</ele><time>2019-09-10T15:11:31.000Z</time></trkpt><trkpt lon="15.6208474" lat="46.55183"><ele>330</ele><time>2019-09-10T15:11:32.000Z</time></trkpt><trkpt lon="15.6208474" lat="46.55183"><ele>330</ele><time>2019-09-10T15:11:33.000Z</time></trkpt><trkpt lon="15.6207434" lat="46.5518711"><ele>330</ele><time>2019-09-10T15:11:34.000Z</time></trkpt><trkpt lon="15.6207434" lat="46.5518711"><ele>330</ele><time>2019-09-10T15:11:35.000Z</time></trkpt><trkpt lon="15.6206384" lat="46.5519129"><ele>330</ele><time>2019-09-10T15:11:36.000Z</time></trkpt><trkpt lon="15.6205882" lat="46.551934"><ele>330</ele><time>2019-09-10T15:11:37.000Z</time></trkpt><trkpt lon="15.6205882" lat="46.551934"><ele>330</ele><time>2019-09-10T15:11:38.000Z</time></trkpt><trkpt lon="15.6204937" lat="46.5519775"><ele>330</ele><time>2019-09-10T15:11:39.000Z</time></trkpt><trkpt lon="15.6204937" lat="46.5519775"><ele>330</ele><time>2019-09-10T15:11:40.000Z</time></trkpt><trkpt lon="15.6204136" lat="46.5519941"><ele>330</ele><time>2019-09-10T15:11:41.000Z</time></trkpt><trkpt lon="15.6204136" lat="46.5519941"><ele>330</ele><time>2019-09-10T15:11:42.000Z</time></trkpt><trkpt lon="15.6203212" lat="46.5520243"><ele>330</ele><time>2019-09-10T15:11:43.000Z</time></trkpt><trkpt lon="15.6203212" lat="46.5520243"><ele>330</ele><time>2019-09-10T15:11:44.000Z</time></trkpt><trkpt lon="15.6202504" lat="46.5520485"><ele>330</ele><time>2019-09-10T15:11:45.000Z</time></trkpt><trkpt lon="15.6202085" lat="46.552062"><ele>330</ele><time>2019-09-10T15:11:46.000Z</time></trkpt><trkpt lon="15.6202085" lat="46.552062"><ele>330</ele><time>2019-09-10T15:11:47.000Z</time></trkpt><trkpt lon="15.6201091" lat="46.5520914"><ele>330</ele><time>2019-09-10T15:11:48.000Z</time></trkpt><trkpt lon="15.6201091" lat="46.5520914"><ele>330</ele><time>2019-09-10T15:11:49.000Z</time></trkpt><trkpt lon="15.6200201" lat="46.5521217"><ele>330</ele><time>2019-09-10T15:11:50.000Z</time></trkpt><trkpt lon="15.6200201" lat="46.5521217"><ele>330</ele><time>2019-09-10T15:11:51.000Z</time></trkpt><trkpt lon="15.6199009" lat="46.5521659"><ele>330</ele><time>2019-09-10T15:11:52.000Z</time></trkpt><trkpt lon="15.619852" lat="46.5521799"><ele>330</ele><time>2019-09-10T15:11:53.000Z</time></trkpt><trkpt lon="15.6198013" lat="46.5521945"><ele>330</ele><time>2019-09-10T15:11:54.000Z</time></trkpt><trkpt lon="15.6198013" lat="46.5521945"><ele>330</ele><time>2019-09-10T15:11:55.000Z</time></trkpt><trkpt lon="15.6197009" lat="46.5522321"><ele>330</ele><time>2019-09-10T15:11:56.000Z</time></trkpt><trkpt lon="15.6197009" lat="46.5522321"><ele>330</ele><time>2019-09-10T15:11:57.000Z</time></trkpt><trkpt lon="15.6195993" lat="46.5522756"><ele>330</ele><time>2019-09-10T15:11:58.000Z</time></trkpt><trkpt lon="15.6195993" lat="46.5522756"><ele>330</ele><time>2019-09-10T15:11:59.000Z</time></trkpt><trkpt lon="15.619491" lat="46.5523167"><ele>330</ele><time>2019-09-10T15:12:00.000Z</time></trkpt><trkpt lon="15.6194385" lat="46.5523368"><ele>330</ele><time>2019-09-10T15:12:01.000Z</time></trkpt><trkpt lon="15.6193865" lat="46.5523569"><ele>330</ele><time>2019-09-10T15:12:02.000Z</time></trkpt><trkpt lon="15.6193351" lat="46.552378"><ele>330</ele><time>2019-09-10T15:12:03.000Z</time></trkpt><trkpt lon="15.6193351" lat="46.552378"><ele>330</ele><time>2019-09-10T15:12:04.000Z</time></trkpt><trkpt lon="15.6192305" lat="46.5524209"><ele>331</ele><time>2019-09-10T15:12:05.000Z</time></trkpt><trkpt lon="15.6191765" lat="46.5524406"><ele>331</ele><time>2019-09-10T15:12:06.000Z</time></trkpt><trkpt lon="15.6191765" lat="46.5524406"><ele>331</ele><time>2019-09-10T15:12:07.000Z</time></trkpt><trkpt lon="15.6190696" lat="46.5524786"><ele>330</ele><time>2019-09-10T15:12:08.000Z</time></trkpt><trkpt lon="15.6190696" lat="46.5524786"><ele>330</ele><time>2019-09-10T15:12:09.000Z</time></trkpt><trkpt lon="15.6189697" lat="46.5525189"><ele>331</ele><time>2019-09-10T15:12:10.000Z</time></trkpt><trkpt lon="15.6189186" lat="46.5525368"><ele>331</ele><time>2019-09-10T15:12:11.000Z</time></trkpt><trkpt lon="15.6189186" lat="46.5525368"><ele>331</ele><time>2019-09-10T15:12:12.000Z</time></trkpt><trkpt lon="15.6188179" lat="46.5525751"><ele>331</ele><time>2019-09-10T15:12:13.000Z</time></trkpt><trkpt lon="15.6188179" lat="46.5525751"><ele>331</ele><time>2019-09-10T15:12:14.000Z</time></trkpt><trkpt lon="15.618719" lat="46.5526147"><ele>331</ele><time>2019-09-10T15:12:15.000Z</time></trkpt><trkpt lon="15.6186645" lat="46.5526345"><ele>331</ele><time>2019-09-10T15:12:16.000Z</time></trkpt><trkpt lon="15.6186645" lat="46.5526345"><ele>331</ele><time>2019-09-10T15:12:17.000Z</time></trkpt><trkpt lon="15.6185491" lat="46.5526762"><ele>331</ele><time>2019-09-10T15:12:18.000Z</time></trkpt><trkpt lon="15.6184935" lat="46.5526967"><ele>331</ele><time>2019-09-10T15:12:19.000Z</time></trkpt><trkpt lon="15.6184935" lat="46.5526967"><ele>331</ele><time>2019-09-10T15:12:20.000Z</time></trkpt><trkpt lon="15.6183782" lat="46.5527391"><ele>331</ele><time>2019-09-10T15:12:21.000Z</time></trkpt><trkpt lon="15.6183222" lat="46.5527617"><ele>331</ele><time>2019-09-10T15:12:22.000Z</time></trkpt><trkpt lon="15.6183222" lat="46.5527617"><ele>331</ele><time>2019-09-10T15:12:23.000Z</time></trkpt><trkpt lon="15.6182054" lat="46.5528078"><ele>330</ele><time>2019-09-10T15:12:24.000Z</time></trkpt><trkpt lon="15.6182054" lat="46.5528078"><ele>330</ele><time>2019-09-10T15:12:25.000Z</time></trkpt><trkpt lon="15.6180931" lat="46.5528579"><ele>330</ele><time>2019-09-10T15:12:26.000Z</time></trkpt><trkpt lon="15.6180931" lat="46.5528579"><ele>330</ele><time>2019-09-10T15:12:27.000Z</time></trkpt><trkpt lon="15.6179785" lat="46.5529091"><ele>331</ele><time>2019-09-10T15:12:28.000Z</time></trkpt><trkpt lon="15.6179192" lat="46.5529369"><ele>331</ele><time>2019-09-10T15:12:29.000Z</time></trkpt><trkpt lon="15.6178643" lat="46.5529624"><ele>331</ele><time>2019-09-10T15:12:30.000Z</time></trkpt><trkpt lon="15.6178643" lat="46.5529624"><ele>331</ele><time>2019-09-10T15:12:31.000Z</time></trkpt><trkpt lon="15.6177517" lat="46.5530168"><ele>331</ele><time>2019-09-10T15:12:32.000Z</time></trkpt><trkpt lon="15.6177517" lat="46.5530168"><ele>331</ele><time>2019-09-10T15:12:33.000Z</time></trkpt><trkpt lon="15.6176426" lat="46.5530749"><ele>331</ele><time>2019-09-10T15:12:34.000Z</time></trkpt><trkpt lon="15.6175884" lat="46.5531055"><ele>331</ele><time>2019-09-10T15:12:35.000Z</time></trkpt><trkpt lon="15.6175884" lat="46.5531055"><ele>331</ele><time>2019-09-10T15:12:36.000Z</time></trkpt><trkpt lon="15.6174804" lat="46.553163"><ele>331</ele><time>2019-09-10T15:12:37.000Z</time></trkpt><trkpt lon="15.6174804" lat="46.553163"><ele>331</ele><time>2019-09-10T15:12:38.000Z</time></trkpt><trkpt lon="15.6173685" lat="46.5532178"><ele>331</ele><time>2019-09-10T15:12:39.000Z</time></trkpt><trkpt lon="15.6173685" lat="46.5532178"><ele>331</ele><time>2019-09-10T15:12:40.000Z</time></trkpt><trkpt lon="15.6172539" lat="46.5532736"><ele>331</ele><time>2019-09-10T15:12:41.000Z</time></trkpt><trkpt lon="15.6172539" lat="46.5532736"><ele>331</ele><time>2019-09-10T15:12:42.000Z</time></trkpt><trkpt lon="15.6171531" lat="46.5533288"><ele>331</ele><time>2019-09-10T15:12:43.000Z</time></trkpt><trkpt lon="15.6171073" lat="46.5533574"><ele>331</ele><time>2019-09-10T15:12:44.000Z</time></trkpt><trkpt lon="15.6171073" lat="46.5533574"><ele>331</ele><time>2019-09-10T15:12:45.000Z</time></trkpt><trkpt lon="15.6170026" lat="46.5534129"><ele>331</ele><time>2019-09-10T15:12:46.000Z</time></trkpt><trkpt lon="15.6169481" lat="46.5534403"><ele>331</ele><time>2019-09-10T15:12:47.000Z</time></trkpt><trkpt lon="15.6168926" lat="46.5534683"><ele>331</ele><time>2019-09-10T15:12:48.000Z</time></trkpt><trkpt lon="15.6168371" lat="46.5534953"><ele>331</ele><time>2019-09-10T15:12:49.000Z</time></trkpt><trkpt lon="15.6168371" lat="46.5534953"><ele>331</ele><time>2019-09-10T15:12:50.000Z</time></trkpt><trkpt lon="15.6167241" lat="46.5535487"><ele>331</ele><time>2019-09-10T15:12:51.000Z</time></trkpt><trkpt lon="15.6167241" lat="46.5535487"><ele>331</ele><time>2019-09-10T15:12:52.000Z</time></trkpt><trkpt lon="15.6166104" lat="46.5536045"><ele>331</ele><time>2019-09-10T15:12:53.000Z</time></trkpt><trkpt lon="15.6166104" lat="46.5536045"><ele>331</ele><time>2019-09-10T15:12:54.000Z</time></trkpt><trkpt lon="15.6164923" lat="46.5536602"><ele>331</ele><time>2019-09-10T15:12:55.000Z</time></trkpt><trkpt lon="15.6164923" lat="46.5536602"><ele>331</ele><time>2019-09-10T15:12:56.000Z</time></trkpt><trkpt lon="15.6163764" lat="46.5537195"><ele>331</ele><time>2019-09-10T15:12:57.000Z</time></trkpt><trkpt lon="15.6163764" lat="46.5537195"><ele>331</ele><time>2019-09-10T15:12:58.000Z</time></trkpt><trkpt lon="15.6162574" lat="46.5537774"><ele>331</ele><time>2019-09-10T15:12:59.000Z</time></trkpt><trkpt lon="15.6162574" lat="46.5537774"><ele>331</ele><time>2019-09-10T15:13:00.000Z</time></trkpt><trkpt lon="15.616139" lat="46.5538323"><ele>331</ele><time>2019-09-10T15:13:01.000Z</time></trkpt><trkpt lon="15.6160814" lat="46.553859"><ele>331</ele><time>2019-09-10T15:13:02.000Z</time></trkpt><trkpt lon="15.6160814" lat="46.553859"><ele>331</ele><time>2019-09-10T15:13:03.000Z</time></trkpt><trkpt lon="15.6159692" lat="46.5539107"><ele>331</ele><time>2019-09-10T15:13:04.000Z</time></trkpt><trkpt lon="15.6159135" lat="46.5539333"><ele>331</ele><time>2019-09-10T15:13:05.000Z</time></trkpt><trkpt lon="15.6159135" lat="46.5539333"><ele>331</ele><time>2019-09-10T15:13:06.000Z</time></trkpt><trkpt lon="15.6158011" lat="46.5539739"><ele>331</ele><time>2019-09-10T15:13:07.000Z</time></trkpt><trkpt lon="15.615736" lat="46.55398"><ele>331</ele><time>2019-09-10T15:13:08.000Z</time></trkpt><trkpt lon="15.6156794" lat="46.5539604"><ele>331</ele><time>2019-09-10T15:13:09.000Z</time></trkpt><trkpt lon="15.6156794" lat="46.5539604"><ele>331</ele><time>2019-09-10T15:13:10.000Z</time></trkpt><trkpt lon="15.6155921" lat="46.553896"><ele>332</ele><time>2019-09-10T15:13:11.000Z</time></trkpt><trkpt lon="15.6155635" lat="46.5538495"><ele>332</ele><time>2019-09-10T15:13:12.000Z</time></trkpt><trkpt lon="15.6155364" lat="46.5538021"><ele>332</ele><time>2019-09-10T15:13:13.000Z</time></trkpt><trkpt lon="15.6155066" lat="46.5537562"><ele>332</ele><time>2019-09-10T15:13:14.000Z</time></trkpt><trkpt lon="15.6155066" lat="46.5537562"><ele>332</ele><time>2019-09-10T15:13:15.000Z</time></trkpt><trkpt lon="15.6154449" lat="46.5536702"><ele>332</ele><time>2019-09-10T15:13:16.000Z</time></trkpt><trkpt lon="15.6154449" lat="46.5536702"><ele>332</ele><time>2019-09-10T15:13:17.000Z</time></trkpt><trkpt lon="15.6153914" lat="46.5535844"><ele>332</ele><time>2019-09-10T15:13:18.000Z</time></trkpt><trkpt lon="15.6153914" lat="46.5535844"><ele>332</ele><time>2019-09-10T15:13:19.000Z</time></trkpt><trkpt lon="15.6153328" lat="46.5534991"><ele>332</ele><time>2019-09-10T15:13:20.000Z</time></trkpt><trkpt lon="15.6153075" lat="46.5534553"><ele>332</ele><time>2019-09-10T15:13:21.000Z</time></trkpt><trkpt lon="15.6153075" lat="46.5534553"><ele>332</ele><time>2019-09-10T15:13:22.000Z</time></trkpt><trkpt lon="15.615264" lat="46.5533684"><ele>332</ele><time>2019-09-10T15:13:23.000Z</time></trkpt><trkpt lon="15.615264" lat="46.5533684"><ele>332</ele><time>2019-09-10T15:13:24.000Z</time></trkpt><trkpt lon="15.6152144" lat="46.5532749"><ele>332</ele><time>2019-09-10T15:13:25.000Z</time></trkpt><trkpt lon="15.615185" lat="46.5532265"><ele>332</ele><time>2019-09-10T15:13:26.000Z</time></trkpt><trkpt lon="15.6151558" lat="46.5531776"><ele>332</ele><time>2019-09-10T15:13:27.000Z</time></trkpt><trkpt lon="15.6151307" lat="46.5531272"><ele>332</ele><time>2019-09-10T15:13:28.000Z</time></trkpt><trkpt lon="15.6151307" lat="46.5531272"><ele>332</ele><time>2019-09-10T15:13:29.000Z</time></trkpt><trkpt lon="15.6150838" lat="46.5530231"><ele>332</ele><time>2019-09-10T15:13:30.000Z</time></trkpt><trkpt lon="15.6150605" lat="46.5529706"><ele>332</ele><time>2019-09-10T15:13:31.000Z</time></trkpt><trkpt lon="15.6150344" lat="46.5529173"><ele>332</ele><time>2019-09-10T15:13:32.000Z</time></trkpt><trkpt lon="15.6150079" lat="46.5528636"><ele>332</ele><time>2019-09-10T15:13:33.000Z</time></trkpt><trkpt lon="15.6149818" lat="46.5528086"><ele>332</ele><time>2019-09-10T15:13:34.000Z</time></trkpt><trkpt lon="15.6149818" lat="46.5528086"><ele>332</ele><time>2019-09-10T15:13:35.000Z</time></trkpt><trkpt lon="15.6149213" lat="46.5526909"><ele>332</ele><time>2019-09-10T15:13:36.000Z</time></trkpt><trkpt lon="15.6148891" lat="46.552629"><ele>331</ele><time>2019-09-10T15:13:37.000Z</time></trkpt><trkpt lon="15.6148891" lat="46.552629"><ele>331</ele><time>2019-09-10T15:13:38.000Z</time></trkpt><trkpt lon="15.6148173" lat="46.5525055"><ele>331</ele><time>2019-09-10T15:13:39.000Z</time></trkpt><trkpt lon="15.6147809" lat="46.5524416"><ele>331</ele><time>2019-09-10T15:13:40.000Z</time></trkpt><trkpt lon="15.6147809" lat="46.5524416"><ele>331</ele><time>2019-09-10T15:13:41.000Z</time></trkpt><trkpt lon="15.6147045" lat="46.5523186"><ele>332</ele><time>2019-09-10T15:13:42.000Z</time></trkpt><trkpt lon="15.614663" lat="46.5522597"><ele>332</ele><time>2019-09-10T15:13:43.000Z</time></trkpt><trkpt lon="15.614663" lat="46.5522597"><ele>332</ele><time>2019-09-10T15:13:44.000Z</time></trkpt><trkpt lon="15.6145728" lat="46.5521461"><ele>332</ele><time>2019-09-10T15:13:45.000Z</time></trkpt><trkpt lon="15.6145728" lat="46.5521461"><ele>332</ele><time>2019-09-10T15:13:46.000Z</time></trkpt><trkpt lon="15.6144662" lat="46.5520395"><ele>332</ele><time>2019-09-10T15:13:47.000Z</time></trkpt><trkpt lon="15.6144662" lat="46.5520395"><ele>332</ele><time>2019-09-10T15:13:48.000Z</time></trkpt><trkpt lon="15.6143606" lat="46.5519344"><ele>332</ele><time>2019-09-10T15:13:49.000Z</time></trkpt><trkpt lon="15.6143606" lat="46.5519344"><ele>332</ele><time>2019-09-10T15:13:50.000Z</time></trkpt><trkpt lon="15.6142515" lat="46.5518331"><ele>332</ele><time>2019-09-10T15:13:51.000Z</time></trkpt><trkpt lon="15.6142515" lat="46.5518331"><ele>332</ele><time>2019-09-10T15:13:52.000Z</time></trkpt><trkpt lon="15.6141423" lat="46.5517318"><ele>332</ele><time>2019-09-10T15:13:53.000Z</time></trkpt><trkpt lon="15.6141423" lat="46.5517318"><ele>332</ele><time>2019-09-10T15:13:54.000Z</time></trkpt><trkpt lon="15.6140198" lat="46.5516346"><ele>332</ele><time>2019-09-10T15:13:55.000Z</time></trkpt><trkpt lon="15.6139553" lat="46.5515878"><ele>332</ele><time>2019-09-10T15:13:56.000Z</time></trkpt><trkpt lon="15.6139553" lat="46.5515878"><ele>332</ele><time>2019-09-10T15:13:57.000Z</time></trkpt><trkpt lon="15.613823" lat="46.5514925"><ele>332</ele><time>2019-09-10T15:13:58.000Z</time></trkpt><trkpt lon="15.613823" lat="46.5514925"><ele>332</ele><time>2019-09-10T15:13:59.000Z</time></trkpt><trkpt lon="15.6136824" lat="46.5513986"><ele>332</ele><time>2019-09-10T15:14:00.000Z</time></trkpt><trkpt lon="15.6136824" lat="46.5513986"><ele>332</ele><time>2019-09-10T15:14:01.000Z</time></trkpt><trkpt lon="15.613544" lat="46.5513061"><ele>332</ele><time>2019-09-10T15:14:02.000Z</time></trkpt><trkpt lon="15.613544" lat="46.5513061"><ele>332</ele><time>2019-09-10T15:14:03.000Z</time></trkpt><trkpt lon="15.6134025" lat="46.551219"><ele>332</ele><time>2019-09-10T15:14:04.000Z</time></trkpt><trkpt lon="15.6133286" lat="46.5511783"><ele>332</ele><time>2019-09-10T15:14:05.000Z</time></trkpt><trkpt lon="15.6133286" lat="46.5511783"><ele>332</ele><time>2019-09-10T15:14:06.000Z</time></trkpt><trkpt lon="15.6131809" lat="46.5510965"><ele>332</ele><time>2019-09-10T15:14:07.000Z</time></trkpt><trkpt lon="15.6131809" lat="46.5510965"><ele>332</ele><time>2019-09-10T15:14:08.000Z</time></trkpt><trkpt lon="15.6130403" lat="46.551008"><ele>333</ele><time>2019-09-10T15:14:09.000Z</time></trkpt><trkpt lon="15.6129681" lat="46.550964"><ele>333</ele><time>2019-09-10T15:14:10.000Z</time></trkpt><trkpt lon="15.6128938" lat="46.5509206"><ele>333</ele><time>2019-09-10T15:14:11.000Z</time></trkpt><trkpt lon="15.6128189" lat="46.550879"><ele>333</ele><time>2019-09-10T15:14:12.000Z</time></trkpt><trkpt lon="15.6128189" lat="46.550879"><ele>333</ele><time>2019-09-10T15:14:13.000Z</time></trkpt><trkpt lon="15.6126664" lat="46.5507983"><ele>333</ele><time>2019-09-10T15:14:14.000Z</time></trkpt><trkpt lon="15.6126664" lat="46.5507983"><ele>333</ele><time>2019-09-10T15:14:15.000Z</time></trkpt><trkpt lon="15.612506" lat="46.5507222"><ele>333</ele><time>2019-09-10T15:14:16.000Z</time></trkpt><trkpt lon="15.6124267" lat="46.5506833"><ele>333</ele><time>2019-09-10T15:14:17.000Z</time></trkpt><trkpt lon="15.6124267" lat="46.5506833"><ele>333</ele><time>2019-09-10T15:14:18.000Z</time></trkpt><trkpt lon="15.6122692" lat="46.5506059"><ele>333</ele><time>2019-09-10T15:14:19.000Z</time></trkpt><trkpt lon="15.6121917" lat="46.5505689"><ele>333</ele><time>2019-09-10T15:14:20.000Z</time></trkpt><trkpt lon="15.612115" lat="46.5505336"><ele>333</ele><time>2019-09-10T15:14:21.000Z</time></trkpt><trkpt lon="15.612115" lat="46.5505336"><ele>333</ele><time>2019-09-10T15:14:22.000Z</time></trkpt><trkpt lon="15.6119823" lat="46.5504462"><ele>333</ele><time>2019-09-10T15:14:23.000Z</time></trkpt><trkpt lon="15.6119823" lat="46.5504462"><ele>333</ele><time>2019-09-10T15:14:24.000Z</time></trkpt><trkpt lon="15.6118737" lat="46.5503429"><ele>333</ele><time>2019-09-10T15:14:25.000Z</time></trkpt><trkpt lon="15.6118223" lat="46.5502882"><ele>333</ele><time>2019-09-10T15:14:26.000Z</time></trkpt><trkpt lon="15.6117696" lat="46.5502328"><ele>333</ele><time>2019-09-10T15:14:27.000Z</time></trkpt><trkpt lon="15.6117696" lat="46.5502328"><ele>333</ele><time>2019-09-10T15:14:28.000Z</time></trkpt><trkpt lon="15.6116623" lat="46.5501216"><ele>333</ele><time>2019-09-10T15:14:29.000Z</time></trkpt><trkpt lon="15.6116093" lat="46.5500657"><ele>333</ele><time>2019-09-10T15:14:30.000Z</time></trkpt><trkpt lon="15.6116093" lat="46.5500657"><ele>333</ele><time>2019-09-10T15:14:31.000Z</time></trkpt><trkpt lon="15.6115036" lat="46.5499541"><ele>333</ele><time>2019-09-10T15:14:32.000Z</time></trkpt><trkpt lon="15.6114501" lat="46.5498981"><ele>333</ele><time>2019-09-10T15:14:33.000Z</time></trkpt><trkpt lon="15.6114501" lat="46.5498981"><ele>333</ele><time>2019-09-10T15:14:34.000Z</time></trkpt><trkpt lon="15.6113446" lat="46.5497861"><ele>333</ele><time>2019-09-10T15:14:35.000Z</time></trkpt><trkpt lon="15.6113446" lat="46.5497861"><ele>333</ele><time>2019-09-10T15:14:36.000Z</time></trkpt><trkpt lon="15.6112428" lat="46.5496741"><ele>333</ele><time>2019-09-10T15:14:37.000Z</time></trkpt><trkpt lon="15.6112428" lat="46.5496741"><ele>333</ele><time>2019-09-10T15:14:38.000Z</time></trkpt><trkpt lon="15.61114" lat="46.5495653"><ele>333</ele><time>2019-09-10T15:14:39.000Z</time></trkpt><trkpt lon="15.6110897" lat="46.5495113"><ele>333</ele><time>2019-09-10T15:14:40.000Z</time></trkpt><trkpt lon="15.6110333" lat="46.5494611"><ele>333</ele><time>2019-09-10T15:14:41.000Z</time></trkpt><trkpt lon="15.6110333" lat="46.5494611"><ele>333</ele><time>2019-09-10T15:14:42.000Z</time></trkpt><trkpt lon="15.6109264" lat="46.5493609"><ele>333</ele><time>2019-09-10T15:14:43.000Z</time></trkpt><trkpt lon="15.6109264" lat="46.5493609"><ele>333</ele><time>2019-09-10T15:14:44.000Z</time></trkpt><trkpt lon="15.6107861" lat="46.5492795"><ele>334</ele><time>2019-09-10T15:14:45.000Z</time></trkpt><trkpt lon="15.6107089" lat="46.5492479"><ele>334</ele><time>2019-09-10T15:14:46.000Z</time></trkpt><trkpt lon="15.6106281" lat="46.5492206"><ele>334</ele><time>2019-09-10T15:14:47.000Z</time></trkpt><trkpt lon="15.6106281" lat="46.5492206"><ele>334</ele><time>2019-09-10T15:14:48.000Z</time></trkpt><trkpt lon="15.6104519" lat="46.5491968"><ele>334</ele><time>2019-09-10T15:14:49.000Z</time></trkpt><trkpt lon="15.6104519" lat="46.5491968"><ele>334</ele><time>2019-09-10T15:14:50.000Z</time></trkpt><trkpt lon="15.6103014" lat="46.549229"><ele>334</ele><time>2019-09-10T15:14:51.000Z</time></trkpt><trkpt lon="15.6103014" lat="46.549229"><ele>334</ele><time>2019-09-10T15:14:52.000Z</time></trkpt><trkpt lon="15.6101963" lat="46.5492815"><ele>333</ele><time>2019-09-10T15:14:53.000Z</time></trkpt><trkpt lon="15.6101579" lat="46.5493211"><ele>333</ele><time>2019-09-10T15:14:54.000Z</time></trkpt><trkpt lon="15.6101101" lat="46.5493621"><ele>333</ele><time>2019-09-10T15:14:55.000Z</time></trkpt><trkpt lon="15.6101101" lat="46.5493621"><ele>333</ele><time>2019-09-10T15:14:56.000Z</time></trkpt><trkpt lon="15.6099978" lat="46.5494559"><ele>333</ele><time>2019-09-10T15:14:57.000Z</time></trkpt><trkpt lon="15.6099978" lat="46.5494559"><ele>333</ele><time>2019-09-10T15:14:58.000Z</time></trkpt><trkpt lon="15.6098853" lat="46.5495584"><ele>333</ele><time>2019-09-10T15:14:59.000Z</time></trkpt><trkpt lon="15.6098853" lat="46.5495584"><ele>333</ele><time>2019-09-10T15:15:00.000Z</time></trkpt><trkpt lon="15.6097575" lat="46.5496635"><ele>333</ele><time>2019-09-10T15:15:01.000Z</time></trkpt><trkpt lon="15.6097575" lat="46.5496635"><ele>333</ele><time>2019-09-10T15:15:02.000Z</time></trkpt><trkpt lon="15.6096313" lat="46.5497663"><ele>333</ele><time>2019-09-10T15:15:03.000Z</time></trkpt><trkpt lon="15.6096313" lat="46.5497663"><ele>333</ele><time>2019-09-10T15:15:04.000Z</time></trkpt><trkpt lon="15.6095114" lat="46.549871"><ele>334</ele><time>2019-09-10T15:15:05.000Z</time></trkpt><trkpt lon="15.6094393" lat="46.5499178"><ele>334</ele><time>2019-09-10T15:15:06.000Z</time></trkpt><trkpt lon="15.6094393" lat="46.5499178"><ele>334</ele><time>2019-09-10T15:15:07.000Z</time></trkpt><trkpt lon="15.6092915" lat="46.5500077"><ele>334</ele><time>2019-09-10T15:15:08.000Z</time></trkpt><trkpt lon="15.6092195" lat="46.5500541"><ele>334</ele><time>2019-09-10T15:15:09.000Z</time></trkpt><trkpt lon="15.6091466" lat="46.5501015"><ele>334</ele><time>2019-09-10T15:15:10.000Z</time></trkpt><trkpt lon="15.6090659" lat="46.5501437"><ele>334</ele><time>2019-09-10T15:15:11.000Z</time></trkpt><trkpt lon="15.6090659" lat="46.5501437"><ele>334</ele><time>2019-09-10T15:15:12.000Z</time></trkpt><trkpt lon="15.608915" lat="46.5502271"><ele>334</ele><time>2019-09-10T15:15:13.000Z</time></trkpt><trkpt lon="15.6088347" lat="46.5502657"><ele>334</ele><time>2019-09-10T15:15:14.000Z</time></trkpt><trkpt lon="15.6088347" lat="46.5502657"><ele>334</ele><time>2019-09-10T15:15:15.000Z</time></trkpt><trkpt lon="15.6086777" lat="46.5503399"><ele>334</ele><time>2019-09-10T15:15:16.000Z</time></trkpt><trkpt lon="15.6085961" lat="46.5503746"><ele>334</ele><time>2019-09-10T15:15:17.000Z</time></trkpt><trkpt lon="15.6085961" lat="46.5503746"><ele>334</ele><time>2019-09-10T15:15:18.000Z</time></trkpt><trkpt lon="15.6084168" lat="46.5504303"><ele>334</ele><time>2019-09-10T15:15:19.000Z</time></trkpt><trkpt lon="15.6083294" lat="46.5504601"><ele>334</ele><time>2019-09-10T15:15:20.000Z</time></trkpt><trkpt lon="15.6083294" lat="46.5504601"><ele>334</ele><time>2019-09-10T15:15:21.000Z</time></trkpt><trkpt lon="15.6081523" lat="46.5505158"><ele>334</ele><time>2019-09-10T15:15:22.000Z</time></trkpt><trkpt lon="15.6081523" lat="46.5505158"><ele>334</ele><time>2019-09-10T15:15:23.000Z</time></trkpt><trkpt lon="15.6079715" lat="46.5505613"><ele>334</ele><time>2019-09-10T15:15:24.000Z</time></trkpt><trkpt lon="15.6078834" lat="46.5505831"><ele>334</ele><time>2019-09-10T15:15:25.000Z</time></trkpt><trkpt lon="15.6078834" lat="46.5505831"><ele>334</ele><time>2019-09-10T15:15:26.000Z</time></trkpt><trkpt lon="15.6077053" lat="46.5506256"><ele>334</ele><time>2019-09-10T15:15:27.000Z</time></trkpt><trkpt lon="15.6077053" lat="46.5506256"><ele>334</ele><time>2019-09-10T15:15:28.000Z</time></trkpt><trkpt lon="15.6075292" lat="46.5506645"><ele>334</ele><time>2019-09-10T15:15:29.000Z</time></trkpt><trkpt lon="15.6074471" lat="46.5506811"><ele>335</ele><time>2019-09-10T15:15:30.000Z</time></trkpt><trkpt lon="15.6073615" lat="46.5506952"><ele>335</ele><time>2019-09-10T15:15:31.000Z</time></trkpt><trkpt lon="15.6072764" lat="46.550709"><ele>335</ele><time>2019-09-10T15:15:32.000Z</time></trkpt><trkpt lon="15.6072764" lat="46.550709"><ele>335</ele><time>2019-09-10T15:15:33.000Z</time></trkpt><trkpt lon="15.6071088" lat="46.5507341"><ele>336</ele><time>2019-09-10T15:15:34.000Z</time></trkpt><trkpt lon="15.6070243" lat="46.5507484"><ele>336</ele><time>2019-09-10T15:15:35.000Z</time></trkpt><trkpt lon="15.6070243" lat="46.5507484"><ele>336</ele><time>2019-09-10T15:15:36.000Z</time></trkpt><trkpt lon="15.6068408" lat="46.5507699"><ele>335</ele><time>2019-09-10T15:15:37.000Z</time></trkpt><trkpt lon="15.6068408" lat="46.5507699"><ele>335</ele><time>2019-09-10T15:15:38.000Z</time></trkpt><trkpt lon="15.6066496" lat="46.5507702"><ele>336</ele><time>2019-09-10T15:15:39.000Z</time></trkpt><trkpt lon="15.6065547" lat="46.5507616"><ele>335</ele><time>2019-09-10T15:15:40.000Z</time></trkpt><trkpt lon="15.6065547" lat="46.5507616"><ele>335</ele><time>2019-09-10T15:15:41.000Z</time></trkpt><trkpt lon="15.6063675" lat="46.5507247"><ele>336</ele><time>2019-09-10T15:15:42.000Z</time></trkpt><trkpt lon="15.6062799" lat="46.5506993"><ele>336</ele><time>2019-09-10T15:15:43.000Z</time></trkpt><trkpt lon="15.6062799" lat="46.5506993"><ele>336</ele><time>2019-09-10T15:15:44.000Z</time></trkpt><trkpt lon="15.606117" lat="46.5506407"><ele>336</ele><time>2019-09-10T15:15:45.000Z</time></trkpt><trkpt lon="15.6060348" lat="46.5506066"><ele>336</ele><time>2019-09-10T15:15:46.000Z</time></trkpt><trkpt lon="15.6059497" lat="46.5505746"><ele>336</ele><time>2019-09-10T15:15:47.000Z</time></trkpt><trkpt lon="15.6059497" lat="46.5505746"><ele>336</ele><time>2019-09-10T15:15:48.000Z</time></trkpt><trkpt lon="15.6057695" lat="46.550508"><ele>336</ele><time>2019-09-10T15:15:49.000Z</time></trkpt><trkpt lon="15.6056719" lat="46.5504741"><ele>335</ele><time>2019-09-10T15:15:50.000Z</time></trkpt><trkpt lon="15.6055787" lat="46.5504397"><ele>335</ele><time>2019-09-10T15:15:51.000Z</time></trkpt><trkpt lon="15.6055787" lat="46.5504397"><ele>335</ele><time>2019-09-10T15:15:52.000Z</time></trkpt><trkpt lon="15.6054077" lat="46.5503811"><ele>335</ele><time>2019-09-10T15:15:53.000Z</time></trkpt><trkpt lon="15.6053356" lat="46.5503477"><ele>334</ele><time>2019-09-10T15:15:54.000Z</time></trkpt><trkpt lon="15.6053356" lat="46.5503477"><ele>334</ele><time>2019-09-10T15:15:55.000Z</time></trkpt><trkpt lon="15.6051869" lat="46.5503066"><ele>336</ele><time>2019-09-10T15:15:56.000Z</time></trkpt><trkpt lon="15.6051244" lat="46.5502823"><ele>336</ele><time>2019-09-10T15:15:57.000Z</time></trkpt><trkpt lon="15.6051244" lat="46.5502823"><ele>336</ele><time>2019-09-10T15:15:58.000Z</time></trkpt><trkpt lon="15.6050003" lat="46.5502304"><ele>337</ele><time>2019-09-10T15:15:59.000Z</time></trkpt><trkpt lon="15.6050003" lat="46.5502304"><ele>337</ele><time>2019-09-10T15:16:00.000Z</time></trkpt><trkpt lon="15.6049309" lat="46.550201"><ele>338</ele><time>2019-09-10T15:16:01.000Z</time></trkpt><trkpt lon="15.6049309" lat="46.550201"><ele>338</ele><time>2019-09-10T15:16:02.000Z</time></trkpt><trkpt lon="15.6047806" lat="46.5501299"><ele>338</ele><time>2019-09-10T15:16:03.000Z</time></trkpt><trkpt lon="15.6047371" lat="46.5500889"><ele>337</ele><time>2019-09-10T15:16:04.000Z</time></trkpt><trkpt lon="15.6047371" lat="46.5500889"><ele>337</ele><time>2019-09-10T15:16:05.000Z</time></trkpt><trkpt lon="15.6046937" lat="46.5500038"><ele>337</ele><time>2019-09-10T15:16:06.000Z</time></trkpt><trkpt lon="15.6046937" lat="46.5500038"><ele>337</ele><time>2019-09-10T15:16:07.000Z</time></trkpt><trkpt lon="15.6046111" lat="46.5498903"><ele>336</ele><time>2019-09-10T15:16:08.000Z</time></trkpt><trkpt lon="15.6046111" lat="46.5498903"><ele>336</ele><time>2019-09-10T15:16:09.000Z</time></trkpt><trkpt lon="15.604541" lat="46.549765"><ele>336</ele><time>2019-09-10T15:16:10.000Z</time></trkpt><trkpt lon="15.6045097" lat="46.5497008"><ele>337</ele><time>2019-09-10T15:16:11.000Z</time></trkpt><trkpt lon="15.6044774" lat="46.549642"><ele>338</ele><time>2019-09-10T15:16:12.000Z</time></trkpt><trkpt lon="15.6044774" lat="46.549642"><ele>338</ele><time>2019-09-10T15:16:13.000Z</time></trkpt><trkpt lon="15.6044463" lat="46.5495165"><ele>338</ele><time>2019-09-10T15:16:14.000Z</time></trkpt><trkpt lon="15.6044463" lat="46.5495165"><ele>338</ele><time>2019-09-10T15:16:15.000Z</time></trkpt><trkpt lon="15.6044474" lat="46.5493822"><ele>338</ele><time>2019-09-10T15:16:16.000Z</time></trkpt><trkpt lon="15.6044474" lat="46.5493822"><ele>338</ele><time>2019-09-10T15:16:17.000Z</time></trkpt><trkpt lon="15.6044597" lat="46.5492434"><ele>338</ele><time>2019-09-10T15:16:18.000Z</time></trkpt><trkpt lon="15.6044509" lat="46.5491774"><ele>337</ele><time>2019-09-10T15:16:19.000Z</time></trkpt><trkpt lon="15.6044509" lat="46.5491774"><ele>337</ele><time>2019-09-10T15:16:20.000Z</time></trkpt><trkpt lon="15.604398" lat="46.5490569"><ele>337</ele><time>2019-09-10T15:16:21.000Z</time></trkpt><trkpt lon="15.6043721" lat="46.549007"><ele>337</ele><time>2019-09-10T15:16:22.000Z</time></trkpt><trkpt lon="15.6043476" lat="46.5489557"><ele>337</ele><time>2019-09-10T15:16:23.000Z</time></trkpt><trkpt lon="15.6043176" lat="46.5488983"><ele>337</ele><time>2019-09-10T15:16:24.000Z</time></trkpt><trkpt lon="15.6043176" lat="46.5488983"><ele>337</ele><time>2019-09-10T15:16:25.000Z</time></trkpt><trkpt lon="15.6042635" lat="46.5487762"><ele>337</ele><time>2019-09-10T15:16:26.000Z</time></trkpt><trkpt lon="15.6042635" lat="46.5487762"><ele>337</ele><time>2019-09-10T15:16:27.000Z</time></trkpt><trkpt lon="15.6042362" lat="46.5486616"><ele>337</ele><time>2019-09-10T15:16:28.000Z</time></trkpt><trkpt lon="15.6042362" lat="46.5486616"><ele>337</ele><time>2019-09-10T15:16:29.000Z</time></trkpt><trkpt lon="15.6042222" lat="46.5485627"><ele>337</ele><time>2019-09-10T15:16:30.000Z</time></trkpt><trkpt lon="15.6042159" lat="46.5485184"><ele>337</ele><time>2019-09-10T15:16:31.000Z</time></trkpt><trkpt lon="15.604212" lat="46.5484712"><ele>338</ele><time>2019-09-10T15:16:32.000Z</time></trkpt><trkpt lon="15.604212" lat="46.5484712"><ele>338</ele><time>2019-09-10T15:16:33.000Z</time></trkpt><trkpt lon="15.6041078" lat="46.5483532"><ele>338</ele><time>2019-09-10T15:16:34.000Z</time></trkpt><trkpt lon="15.6040477" lat="46.5482992"><ele>339</ele><time>2019-09-10T15:16:35.000Z</time></trkpt><trkpt lon="15.6040477" lat="46.5482992"><ele>339</ele><time>2019-09-10T15:16:36.000Z</time></trkpt><trkpt lon="15.6039441" lat="46.5481801"><ele>339</ele><time>2019-09-10T15:16:37.000Z</time></trkpt><trkpt lon="15.6039441" lat="46.5481801"><ele>339</ele><time>2019-09-10T15:16:38.000Z</time></trkpt><trkpt lon="15.60385" lat="46.5480508"><ele>340</ele><time>2019-09-10T15:16:39.000Z</time></trkpt><trkpt lon="15.60385" lat="46.5480508"><ele>340</ele><time>2019-09-10T15:16:40.000Z</time></trkpt><trkpt lon="15.6037645" lat="46.5479186"><ele>340</ele><time>2019-09-10T15:16:41.000Z</time></trkpt><trkpt lon="15.6037645" lat="46.5479186"><ele>340</ele><time>2019-09-10T15:16:42.000Z</time></trkpt><trkpt lon="15.6036798" lat="46.547798"><ele>340</ele><time>2019-09-10T15:16:43.000Z</time></trkpt><trkpt lon="15.6036798" lat="46.547798"><ele>340</ele><time>2019-09-10T15:16:44.000Z</time></trkpt><trkpt lon="15.603598" lat="46.5476833"><ele>340</ele><time>2019-09-10T15:16:45.000Z</time></trkpt><trkpt lon="15.603598" lat="46.5476833"><ele>340</ele><time>2019-09-10T15:16:46.000Z</time></trkpt><trkpt lon="15.6035022" lat="46.5475875"><ele>341</ele><time>2019-09-10T15:16:47.000Z</time></trkpt><trkpt lon="15.6035022" lat="46.5475875"><ele>341</ele><time>2019-09-10T15:16:48.000Z</time></trkpt><trkpt lon="15.6033563" lat="46.5474847"><ele>341</ele><time>2019-09-10T15:16:49.000Z</time></trkpt><trkpt lon="15.6032748" lat="46.5474382"><ele>342</ele><time>2019-09-10T15:16:50.000Z</time></trkpt><trkpt lon="15.6032748" lat="46.5474382"><ele>342</ele><time>2019-09-10T15:16:51.000Z</time></trkpt><trkpt lon="15.6031097" lat="46.5473504"><ele>342</ele><time>2019-09-10T15:16:52.000Z</time></trkpt><trkpt lon="15.6030323" lat="46.5473047"><ele>342</ele><time>2019-09-10T15:16:53.000Z</time></trkpt><trkpt lon="15.6030323" lat="46.5473047"><ele>342</ele><time>2019-09-10T15:16:54.000Z</time></trkpt><trkpt lon="15.6028865" lat="46.5472074"><ele>342</ele><time>2019-09-10T15:16:55.000Z</time></trkpt><trkpt lon="15.6028159" lat="46.5471602"><ele>341</ele><time>2019-09-10T15:16:56.000Z</time></trkpt><trkpt lon="15.6028159" lat="46.5471602"><ele>341</ele><time>2019-09-10T15:16:57.000Z</time></trkpt><trkpt lon="15.6026878" lat="46.5470622"><ele>342</ele><time>2019-09-10T15:16:58.000Z</time></trkpt><trkpt lon="15.6026878" lat="46.5470622"><ele>342</ele><time>2019-09-10T15:16:59.000Z</time></trkpt><trkpt lon="15.6025705" lat="46.546969"><ele>343</ele><time>2019-09-10T15:17:00.000Z</time></trkpt><trkpt lon="15.6025096" lat="46.5469231"><ele>343</ele><time>2019-09-10T15:17:01.000Z</time></trkpt><trkpt lon="15.6025096" lat="46.5469231"><ele>343</ele><time>2019-09-10T15:17:02.000Z</time></trkpt><trkpt lon="15.6023895" lat="46.5468297"><ele>344</ele><time>2019-09-10T15:17:03.000Z</time></trkpt><trkpt lon="15.6023348" lat="46.5467941"><ele>344</ele><time>2019-09-10T15:17:04.000Z</time></trkpt><trkpt lon="15.6023348" lat="46.5467941"><ele>344</ele><time>2019-09-10T15:17:05.000Z</time></trkpt><trkpt lon="15.6022" lat="46.5467013"><ele>344</ele><time>2019-09-10T15:17:06.000Z</time></trkpt><trkpt lon="15.6021319" lat="46.5466565"><ele>344</ele><time>2019-09-10T15:17:07.000Z</time></trkpt><trkpt lon="15.6021319" lat="46.5466565"><ele>344</ele><time>2019-09-10T15:17:08.000Z</time></trkpt><trkpt lon="15.6020053" lat="46.5465603"><ele>344</ele><time>2019-09-10T15:17:09.000Z</time></trkpt><trkpt lon="15.6019387" lat="46.5465144"><ele>345</ele><time>2019-09-10T15:17:10.000Z</time></trkpt><trkpt lon="15.6018743" lat="46.5464682"><ele>345</ele><time>2019-09-10T15:17:11.000Z</time></trkpt><trkpt lon="15.6018743" lat="46.5464682"><ele>345</ele><time>2019-09-10T15:17:12.000Z</time></trkpt><trkpt lon="15.601743" lat="46.5463772"><ele>345</ele><time>2019-09-10T15:17:13.000Z</time></trkpt><trkpt lon="15.6016769" lat="46.5463319"><ele>345</ele><time>2019-09-10T15:17:14.000Z</time></trkpt><trkpt lon="15.6016769" lat="46.5463319"><ele>345</ele><time>2019-09-10T15:17:15.000Z</time></trkpt><trkpt lon="15.6015464" lat="46.5462368"><ele>346</ele><time>2019-09-10T15:17:16.000Z</time></trkpt><trkpt lon="15.6014799" lat="46.5461897"><ele>346</ele><time>2019-09-10T15:17:17.000Z</time></trkpt><trkpt lon="15.6014799" lat="46.5461897"><ele>346</ele><time>2019-09-10T15:17:18.000Z</time></trkpt><trkpt lon="15.6013432" lat="46.5461019"><ele>346</ele><time>2019-09-10T15:17:19.000Z</time></trkpt><trkpt lon="15.6012738" lat="46.5460594"><ele>346</ele><time>2019-09-10T15:17:20.000Z</time></trkpt><trkpt lon="15.6012047" lat="46.546017"><ele>346</ele><time>2019-09-10T15:17:21.000Z</time></trkpt><trkpt lon="15.6012047" lat="46.546017"><ele>346</ele><time>2019-09-10T15:17:22.000Z</time></trkpt><trkpt lon="15.6010699" lat="46.5459308"><ele>346</ele><time>2019-09-10T15:17:23.000Z</time></trkpt><trkpt lon="15.601005" lat="46.5458875"><ele>347</ele><time>2019-09-10T15:17:24.000Z</time></trkpt><trkpt lon="15.601005" lat="46.5458875"><ele>347</ele><time>2019-09-10T15:17:25.000Z</time></trkpt><trkpt lon="15.6008783" lat="46.5458001"><ele>347</ele><time>2019-09-10T15:17:26.000Z</time></trkpt><trkpt lon="15.6008783" lat="46.5458001"><ele>347</ele><time>2019-09-10T15:17:27.000Z</time></trkpt><trkpt lon="15.6007511" lat="46.5457148"><ele>348</ele><time>2019-09-10T15:17:28.000Z</time></trkpt><trkpt lon="15.6006906" lat="46.5456724"><ele>348</ele><time>2019-09-10T15:17:29.000Z</time></trkpt><trkpt lon="15.6006906" lat="46.5456724"><ele>348</ele><time>2019-09-10T15:17:30.000Z</time></trkpt><trkpt lon="15.6005838" lat="46.5455947"><ele>349</ele><time>2019-09-10T15:17:31.000Z</time></trkpt><trkpt lon="15.6005381" lat="46.5455592"><ele>349</ele><time>2019-09-10T15:17:32.000Z</time></trkpt><trkpt lon="15.6005381" lat="46.5455592"><ele>349</ele><time>2019-09-10T15:17:33.000Z</time></trkpt><trkpt lon="15.600455" lat="46.5455013"><ele>349</ele><time>2019-09-10T15:17:34.000Z</time></trkpt><trkpt lon="15.600455" lat="46.5455013"><ele>349</ele><time>2019-09-10T15:17:35.000Z</time></trkpt><trkpt lon="15.6004129" lat="46.5454766"><ele>349</ele><time>2019-09-10T15:17:36.000Z</time></trkpt><trkpt lon="15.6004129" lat="46.5454766"><ele>349</ele><time>2019-09-10T15:17:37.000Z</time></trkpt><trkpt lon="15.6002894" lat="46.5454739"><ele>349</ele><time>2019-09-10T15:17:38.000Z</time></trkpt><trkpt lon="15.6002894" lat="46.5454739"><ele>349</ele><time>2019-09-10T15:17:39.000Z</time></trkpt><trkpt lon="15.6002003" lat="46.545548"><ele>348</ele><time>2019-09-10T15:17:40.000Z</time></trkpt><trkpt lon="15.6001466" lat="46.5455891"><ele>348</ele><time>2019-09-10T15:17:41.000Z</time></trkpt><trkpt lon="15.6000844" lat="46.5456336"><ele>348</ele><time>2019-09-10T15:17:42.000Z</time></trkpt><trkpt lon="15.6000844" lat="46.5456336"><ele>348</ele><time>2019-09-10T15:17:43.000Z</time></trkpt><trkpt lon="15.5999435" lat="46.5457323"><ele>347</ele><time>2019-09-10T15:17:44.000Z</time></trkpt><trkpt lon="15.5999435" lat="46.5457323"><ele>347</ele><time>2019-09-10T15:17:45.000Z</time></trkpt><trkpt lon="15.5997865" lat="46.5458385"><ele>346</ele><time>2019-09-10T15:17:46.000Z</time></trkpt><trkpt lon="15.5997039" lat="46.5458924"><ele>346</ele><time>2019-09-10T15:17:47.000Z</time></trkpt><trkpt lon="15.5996228" lat="46.5459489"><ele>346</ele><time>2019-09-10T15:17:48.000Z</time></trkpt><trkpt lon="15.5996228" lat="46.5459489"><ele>346</ele><time>2019-09-10T15:17:49.000Z</time></trkpt><trkpt lon="15.5994604" lat="46.546061"><ele>346</ele><time>2019-09-10T15:17:50.000Z</time></trkpt><trkpt lon="15.5994604" lat="46.546061"><ele>346</ele><time>2019-09-10T15:17:51.000Z</time></trkpt><trkpt lon="15.5993053" lat="46.5461682"><ele>346</ele><time>2019-09-10T15:17:52.000Z</time></trkpt><trkpt lon="15.5992313" lat="46.5462198"><ele>345</ele><time>2019-09-10T15:17:53.000Z</time></trkpt><trkpt lon="15.5991578" lat="46.5462692"><ele>345</ele><time>2019-09-10T15:17:54.000Z</time></trkpt><trkpt lon="15.5990859" lat="46.5463192"><ele>345</ele><time>2019-09-10T15:17:55.000Z</time></trkpt><trkpt lon="15.5990859" lat="46.5463192"><ele>345</ele><time>2019-09-10T15:17:56.000Z</time></trkpt><trkpt lon="15.5989428" lat="46.5464184"><ele>345</ele><time>2019-09-10T15:17:57.000Z</time></trkpt><trkpt lon="15.598872" lat="46.5464672"><ele>345</ele><time>2019-09-10T15:17:58.000Z</time></trkpt><trkpt lon="15.598872" lat="46.5464672"><ele>345</ele><time>2019-09-10T15:17:59.000Z</time></trkpt><trkpt lon="15.5987305" lat="46.5465653"><ele>345</ele><time>2019-09-10T15:18:00.000Z</time></trkpt><trkpt lon="15.5986597" lat="46.5466148"><ele>345</ele><time>2019-09-10T15:18:01.000Z</time></trkpt><trkpt lon="15.5986597" lat="46.5466148"><ele>345</ele><time>2019-09-10T15:18:02.000Z</time></trkpt><trkpt lon="15.5985204" lat="46.5467125"><ele>345</ele><time>2019-09-10T15:18:03.000Z</time></trkpt><trkpt lon="15.5984511" lat="46.5467607"><ele>345</ele><time>2019-09-10T15:18:04.000Z</time></trkpt><trkpt lon="15.5984511" lat="46.5467607"><ele>345</ele><time>2019-09-10T15:18:05.000Z</time></trkpt><trkpt lon="15.5983122" lat="46.5468543"><ele>345</ele><time>2019-09-10T15:18:06.000Z</time></trkpt><trkpt lon="15.5983122" lat="46.5468543"><ele>345</ele><time>2019-09-10T15:18:07.000Z</time></trkpt><trkpt lon="15.598175" lat="46.5469513"><ele>345</ele><time>2019-09-10T15:18:08.000Z</time></trkpt><trkpt lon="15.598175" lat="46.5469513"><ele>345</ele><time>2019-09-10T15:18:09.000Z</time></trkpt><trkpt lon="15.5980373" lat="46.5470464"><ele>345</ele><time>2019-09-10T15:18:10.000Z</time></trkpt><trkpt lon="15.5980373" lat="46.5470464"><ele>345</ele><time>2019-09-10T15:18:11.000Z</time></trkpt><trkpt lon="15.5978963" lat="46.5471395"><ele>344</ele><time>2019-09-10T15:18:12.000Z</time></trkpt><trkpt lon="15.5978963" lat="46.5471395"><ele>344</ele><time>2019-09-10T15:18:13.000Z</time></trkpt><trkpt lon="15.5977446" lat="46.5472278"><ele>344</ele><time>2019-09-10T15:18:14.000Z</time></trkpt><trkpt lon="15.5977446" lat="46.5472278"><ele>344</ele><time>2019-09-10T15:18:15.000Z</time></trkpt><trkpt lon="15.5975657" lat="46.5472918"><ele>344</ele><time>2019-09-10T15:18:16.000Z</time></trkpt><trkpt lon="15.5975657" lat="46.5472918"><ele>344</ele><time>2019-09-10T15:18:17.000Z</time></trkpt><trkpt lon="15.5973735" lat="46.5473304"><ele>344</ele><time>2019-09-10T15:18:18.000Z</time></trkpt><trkpt lon="15.5973735" lat="46.5473304"><ele>344</ele><time>2019-09-10T15:18:19.000Z</time></trkpt><trkpt lon="15.597184" lat="46.5473545"><ele>344</ele><time>2019-09-10T15:18:20.000Z</time></trkpt><trkpt lon="15.597184" lat="46.5473545"><ele>344</ele><time>2019-09-10T15:18:21.000Z</time></trkpt><trkpt lon="15.5970012" lat="46.5473685"><ele>345</ele><time>2019-09-10T15:18:22.000Z</time></trkpt><trkpt lon="15.5970012" lat="46.5473685"><ele>345</ele><time>2019-09-10T15:18:23.000Z</time></trkpt><trkpt lon="15.5968216" lat="46.5473901"><ele>345</ele><time>2019-09-10T15:18:24.000Z</time></trkpt><trkpt lon="15.5968216" lat="46.5473901"><ele>345</ele><time>2019-09-10T15:18:25.000Z</time></trkpt><trkpt lon="15.5966472" lat="46.5474171"><ele>345</ele><time>2019-09-10T15:18:26.000Z</time></trkpt><trkpt lon="15.5965612" lat="46.5474281"><ele>344</ele><time>2019-09-10T15:18:27.000Z</time></trkpt><trkpt lon="15.5965612" lat="46.5474281"><ele>344</ele><time>2019-09-10T15:18:28.000Z</time></trkpt><trkpt lon="15.5963902" lat="46.5474573"><ele>345</ele><time>2019-09-10T15:18:29.000Z</time></trkpt><trkpt lon="15.5963041" lat="46.5474781"><ele>345</ele><time>2019-09-10T15:18:30.000Z</time></trkpt><trkpt lon="15.5963041" lat="46.5474781"><ele>345</ele><time>2019-09-10T15:18:31.000Z</time></trkpt><trkpt lon="15.5961309" lat="46.54752"><ele>345</ele><time>2019-09-10T15:18:32.000Z</time></trkpt><trkpt lon="15.5961309" lat="46.54752"><ele>345</ele><time>2019-09-10T15:18:33.000Z</time></trkpt><trkpt lon="15.5959587" lat="46.5475667"><ele>345</ele><time>2019-09-10T15:18:34.000Z</time></trkpt><trkpt lon="15.5959587" lat="46.5475667"><ele>345</ele><time>2019-09-10T15:18:35.000Z</time></trkpt><trkpt lon="15.5957891" lat="46.547613"><ele>346</ele><time>2019-09-10T15:18:36.000Z</time></trkpt><trkpt lon="15.5957076" lat="46.5476357"><ele>346</ele><time>2019-09-10T15:18:37.000Z</time></trkpt><trkpt lon="15.5957076" lat="46.5476357"><ele>346</ele><time>2019-09-10T15:18:38.000Z</time></trkpt><trkpt lon="15.5955532" lat="46.5476927"><ele>346</ele><time>2019-09-10T15:18:39.000Z</time></trkpt><trkpt lon="15.5955532" lat="46.5476927"><ele>346</ele><time>2019-09-10T15:18:40.000Z</time></trkpt><trkpt lon="15.5954091" lat="46.5477574"><ele>346</ele><time>2019-09-10T15:18:41.000Z</time></trkpt><trkpt lon="15.5954091" lat="46.5477574"><ele>346</ele><time>2019-09-10T15:18:42.000Z</time></trkpt><trkpt lon="15.5952497" lat="46.5477891"><ele>347</ele><time>2019-09-10T15:18:43.000Z</time></trkpt><trkpt lon="15.5951672" lat="46.5477895"><ele>347</ele><time>2019-09-10T15:18:44.000Z</time></trkpt><trkpt lon="15.5951672" lat="46.5477895"><ele>347</ele><time>2019-09-10T15:18:45.000Z</time></trkpt><trkpt lon="15.5950452" lat="46.5477082"><ele>348</ele><time>2019-09-10T15:18:46.000Z</time></trkpt><trkpt lon="15.5950452" lat="46.5477082"><ele>348</ele><time>2019-09-10T15:18:47.000Z</time></trkpt><trkpt lon="15.5949496" lat="46.547604"><ele>349</ele><time>2019-09-10T15:18:48.000Z</time></trkpt><trkpt lon="15.5949107" lat="46.5475481"><ele>350</ele><time>2019-09-10T15:18:49.000Z</time></trkpt><trkpt lon="15.5948732" lat="46.5474884"><ele>350</ele><time>2019-09-10T15:18:50.000Z</time></trkpt><trkpt lon="15.5948732" lat="46.5474884"><ele>350</ele><time>2019-09-10T15:18:51.000Z</time></trkpt><trkpt lon="15.5947949" lat="46.5473716"><ele>351</ele><time>2019-09-10T15:18:52.000Z</time></trkpt><trkpt lon="15.5947542" lat="46.5473142"><ele>351</ele><time>2019-09-10T15:18:53.000Z</time></trkpt><trkpt lon="15.5947176" lat="46.5472571"><ele>351</ele><time>2019-09-10T15:18:54.000Z</time></trkpt><trkpt lon="15.5947176" lat="46.5472571"><ele>351</ele><time>2019-09-10T15:18:55.000Z</time></trkpt><trkpt lon="15.5946434" lat="46.5471452"><ele>352</ele><time>2019-09-10T15:18:56.000Z</time></trkpt><trkpt lon="15.5946434" lat="46.5471452"><ele>352</ele><time>2019-09-10T15:18:57.000Z</time></trkpt><trkpt lon="15.5945688" lat="46.5470349"><ele>352</ele><time>2019-09-10T15:18:58.000Z</time></trkpt><trkpt lon="15.5945688" lat="46.5470349"><ele>352</ele><time>2019-09-10T15:18:59.000Z</time></trkpt><trkpt lon="15.5945077" lat="46.5469332"><ele>352</ele><time>2019-09-10T15:19:00.000Z</time></trkpt><trkpt lon="15.5944778" lat="46.5468868"><ele>353</ele><time>2019-09-10T15:19:01.000Z</time></trkpt><trkpt lon="15.5944417" lat="46.5468458"><ele>352</ele><time>2019-09-10T15:19:02.000Z</time></trkpt><trkpt lon="15.5944417" lat="46.5468458"><ele>352</ele><time>2019-09-10T15:19:03.000Z</time></trkpt><trkpt lon="15.5943205" lat="46.5468229"><ele>352</ele><time>2019-09-10T15:19:04.000Z</time></trkpt><trkpt lon="15.5942546" lat="46.5468409"><ele>352</ele><time>2019-09-10T15:19:05.000Z</time></trkpt><trkpt lon="15.5942546" lat="46.5468409"><ele>352</ele><time>2019-09-10T15:19:06.000Z</time></trkpt><trkpt lon="15.5941164" lat="46.5468853"><ele>353</ele><time>2019-09-10T15:19:07.000Z</time></trkpt><trkpt lon="15.5941164" lat="46.5468853"><ele>353</ele><time>2019-09-10T15:19:08.000Z</time></trkpt><trkpt lon="15.5939737" lat="46.5469356"><ele>353</ele><time>2019-09-10T15:19:09.000Z</time></trkpt><trkpt lon="15.5939737" lat="46.5469356"><ele>353</ele><time>2019-09-10T15:19:10.000Z</time></trkpt><trkpt lon="15.5938371" lat="46.5469783"><ele>353</ele><time>2019-09-10T15:19:11.000Z</time></trkpt><trkpt lon="15.593783" lat="46.5469843"><ele>353</ele><time>2019-09-10T15:19:12.000Z</time></trkpt><trkpt lon="15.593783" lat="46.5469843"><ele>353</ele><time>2019-09-10T15:19:13.000Z</time></trkpt><trkpt lon="15.5936791" lat="46.5469614"><ele>354</ele><time>2019-09-10T15:19:14.000Z</time></trkpt><trkpt lon="15.5936336" lat="46.5469283"><ele>354</ele><time>2019-09-10T15:19:15.000Z</time></trkpt><trkpt lon="15.5935867" lat="46.5468933"><ele>354</ele><time>2019-09-10T15:19:16.000Z</time></trkpt><trkpt lon="15.5935517" lat="46.5468474"><ele>355</ele><time>2019-09-10T15:19:17.000Z</time></trkpt><trkpt lon="15.5935158" lat="46.5467987"><ele>355</ele><time>2019-09-10T15:19:18.000Z</time></trkpt><trkpt lon="15.5935158" lat="46.5467987"><ele>355</ele><time>2019-09-10T15:19:19.000Z</time></trkpt><trkpt lon="15.5934588" lat="46.5466865"><ele>356</ele><time>2019-09-10T15:19:20.000Z</time></trkpt><trkpt lon="15.5934315" lat="46.5466285"><ele>356</ele><time>2019-09-10T15:19:21.000Z</time></trkpt><trkpt lon="15.5934046" lat="46.5465717"><ele>356</ele><time>2019-09-10T15:19:22.000Z</time></trkpt><trkpt lon="15.5934046" lat="46.5465717"><ele>356</ele><time>2019-09-10T15:19:23.000Z</time></trkpt><trkpt lon="15.5933644" lat="46.5464534"><ele>357</ele><time>2019-09-10T15:19:24.000Z</time></trkpt><trkpt lon="15.5933644" lat="46.5464534"><ele>357</ele><time>2019-09-10T15:19:25.000Z</time></trkpt><trkpt lon="15.5933352" lat="46.5463456"><ele>358</ele><time>2019-09-10T15:19:26.000Z</time></trkpt><trkpt lon="15.5933241" lat="46.5463017"><ele>358</ele><time>2019-09-10T15:19:27.000Z</time></trkpt><trkpt lon="15.5933241" lat="46.5463017"><ele>358</ele><time>2019-09-10T15:19:28.000Z</time></trkpt><trkpt lon="15.5933024" lat="46.546214"><ele>358</ele><time>2019-09-10T15:19:29.000Z</time></trkpt><trkpt lon="15.5932858" lat="46.5461717"><ele>358</ele><time>2019-09-10T15:19:30.000Z</time></trkpt><trkpt lon="15.5932858" lat="46.5461717"><ele>358</ele><time>2019-09-10T15:19:31.000Z</time></trkpt><trkpt lon="15.5932707" lat="46.5460864"><ele>359</ele><time>2019-09-10T15:19:32.000Z</time></trkpt><trkpt lon="15.5932505" lat="46.5460436"><ele>359</ele><time>2019-09-10T15:19:33.000Z</time></trkpt><trkpt lon="15.5932325" lat="46.5460002"><ele>359</ele><time>2019-09-10T15:19:34.000Z</time></trkpt><trkpt lon="15.5932325" lat="46.5460002"><ele>359</ele><time>2019-09-10T15:19:35.000Z</time></trkpt><trkpt lon="15.5931968" lat="46.545913"><ele>359</ele><time>2019-09-10T15:19:36.000Z</time></trkpt><trkpt lon="15.5931968" lat="46.545913"><ele>359</ele><time>2019-09-10T15:19:37.000Z</time></trkpt><trkpt lon="15.5931617" lat="46.5458286"><ele>360</ele><time>2019-09-10T15:19:38.000Z</time></trkpt><trkpt lon="15.5931617" lat="46.5458286"><ele>360</ele><time>2019-09-10T15:19:39.000Z</time></trkpt><trkpt lon="15.5931224" lat="46.545742"><ele>361</ele><time>2019-09-10T15:19:40.000Z</time></trkpt><trkpt lon="15.5931224" lat="46.545742"><ele>361</ele><time>2019-09-10T15:19:41.000Z</time></trkpt><trkpt lon="15.5930758" lat="46.5456524"><ele>361</ele><time>2019-09-10T15:19:42.000Z</time></trkpt><trkpt lon="15.5930758" lat="46.5456524"><ele>361</ele><time>2019-09-10T15:19:43.000Z</time></trkpt><trkpt lon="15.5930278" lat="46.5455644"><ele>361</ele><time>2019-09-10T15:19:44.000Z</time></trkpt><trkpt lon="15.5930023" lat="46.5455206"><ele>362</ele><time>2019-09-10T15:19:45.000Z</time></trkpt><trkpt lon="15.5930023" lat="46.5455206"><ele>362</ele><time>2019-09-10T15:19:46.000Z</time></trkpt><trkpt lon="15.5929556" lat="46.5454303"><ele>362</ele><time>2019-09-10T15:19:47.000Z</time></trkpt><trkpt lon="15.5929556" lat="46.5454303"><ele>362</ele><time>2019-09-10T15:19:48.000Z</time></trkpt><trkpt lon="15.5929022" lat="46.5453387"><ele>362</ele><time>2019-09-10T15:19:49.000Z</time></trkpt><trkpt lon="15.5929022" lat="46.5453387"><ele>362</ele><time>2019-09-10T15:19:50.000Z</time></trkpt><trkpt lon="15.5928392" lat="46.5452502"><ele>362</ele><time>2019-09-10T15:19:51.000Z</time></trkpt><trkpt lon="15.5928071" lat="46.5452066"><ele>362</ele><time>2019-09-10T15:19:52.000Z</time></trkpt><trkpt lon="15.5928071" lat="46.5452066"><ele>362</ele><time>2019-09-10T15:19:53.000Z</time></trkpt><trkpt lon="15.5927462" lat="46.5451186"><ele>362</ele><time>2019-09-10T15:19:54.000Z</time></trkpt><trkpt lon="15.5927462" lat="46.5451186"><ele>362</ele><time>2019-09-10T15:19:55.000Z</time></trkpt><trkpt lon="15.5926759" lat="46.5450227"><ele>363</ele><time>2019-09-10T15:19:56.000Z</time></trkpt><trkpt lon="15.5926759" lat="46.5450227"><ele>363</ele><time>2019-09-10T15:19:57.000Z</time></trkpt><trkpt lon="15.5926105" lat="46.5449247"><ele>363</ele><time>2019-09-10T15:19:58.000Z</time></trkpt><trkpt lon="15.5926105" lat="46.5449247"><ele>363</ele><time>2019-09-10T15:19:59.000Z</time></trkpt><trkpt lon="15.5925411" lat="46.5448269"><ele>363</ele><time>2019-09-10T15:20:00.000Z</time></trkpt><trkpt lon="15.5925411" lat="46.5448269"><ele>363</ele><time>2019-09-10T15:20:01.000Z</time></trkpt><trkpt lon="15.5924749" lat="46.5447289"><ele>364</ele><time>2019-09-10T15:20:02.000Z</time></trkpt><trkpt lon="15.5924749" lat="46.5447289"><ele>364</ele><time>2019-09-10T15:20:03.000Z</time></trkpt><trkpt lon="15.592407" lat="46.5446327"><ele>364</ele><time>2019-09-10T15:20:04.000Z</time></trkpt><trkpt lon="15.592373" lat="46.5445869"><ele>364</ele><time>2019-09-10T15:20:05.000Z</time></trkpt><trkpt lon="15.592373" lat="46.5445869"><ele>364</ele><time>2019-09-10T15:20:06.000Z</time></trkpt><trkpt lon="15.5923023" lat="46.5444919"><ele>365</ele><time>2019-09-10T15:20:07.000Z</time></trkpt><trkpt lon="15.592269" lat="46.5444422"><ele>365</ele><time>2019-09-10T15:20:08.000Z</time></trkpt><trkpt lon="15.592269" lat="46.5444422"><ele>365</ele><time>2019-09-10T15:20:09.000Z</time></trkpt><trkpt lon="15.5921934" lat="46.5443464"><ele>365</ele><time>2019-09-10T15:20:10.000Z</time></trkpt><trkpt lon="15.5921573" lat="46.5442977"><ele>365</ele><time>2019-09-10T15:20:11.000Z</time></trkpt><trkpt lon="15.5921241" lat="46.5442489"><ele>365</ele><time>2019-09-10T15:20:12.000Z</time></trkpt><trkpt lon="15.5921241" lat="46.5442489"><ele>365</ele><time>2019-09-10T15:20:13.000Z</time></trkpt><trkpt lon="15.5920619" lat="46.5441496"><ele>366</ele><time>2019-09-10T15:20:14.000Z</time></trkpt><trkpt lon="15.5920322" lat="46.5440987"><ele>366</ele><time>2019-09-10T15:20:15.000Z</time></trkpt><trkpt lon="15.5919921" lat="46.5440508"><ele>366</ele><time>2019-09-10T15:20:16.000Z</time></trkpt><trkpt lon="15.5919543" lat="46.5440031"><ele>366</ele><time>2019-09-10T15:20:17.000Z</time></trkpt><trkpt lon="15.5919181" lat="46.5439549"><ele>366</ele><time>2019-09-10T15:20:18.000Z</time></trkpt><trkpt lon="15.5919181" lat="46.5439549"><ele>366</ele><time>2019-09-10T15:20:19.000Z</time></trkpt><trkpt lon="15.5918535" lat="46.5438601"><ele>367</ele><time>2019-09-10T15:20:20.000Z</time></trkpt><trkpt lon="15.5918206" lat="46.5438147"><ele>367</ele><time>2019-09-10T15:20:21.000Z</time></trkpt><trkpt lon="15.5918206" lat="46.5438147"><ele>367</ele><time>2019-09-10T15:20:22.000Z</time></trkpt><trkpt lon="15.5917556" lat="46.5437184"><ele>367</ele><time>2019-09-10T15:20:23.000Z</time></trkpt><trkpt lon="15.5917556" lat="46.5437184"><ele>367</ele><time>2019-09-10T15:20:24.000Z</time></trkpt><trkpt lon="15.5916875" lat="46.5436186"><ele>367</ele><time>2019-09-10T15:20:25.000Z</time></trkpt><trkpt lon="15.5916875" lat="46.5436186"><ele>367</ele><time>2019-09-10T15:20:26.000Z</time></trkpt><trkpt lon="15.5916154" lat="46.5435215"><ele>368</ele><time>2019-09-10T15:20:27.000Z</time></trkpt><trkpt lon="15.5916154" lat="46.5435215"><ele>368</ele><time>2019-09-10T15:20:28.000Z</time></trkpt><trkpt lon="15.5915458" lat="46.5434251"><ele>368</ele><time>2019-09-10T15:20:29.000Z</time></trkpt><trkpt lon="15.5915116" lat="46.5433764"><ele>368</ele><time>2019-09-10T15:20:30.000Z</time></trkpt><trkpt lon="15.5914778" lat="46.5433282"><ele>368</ele><time>2019-09-10T15:20:31.000Z</time></trkpt><trkpt lon="15.5914778" lat="46.5433282"><ele>368</ele><time>2019-09-10T15:20:32.000Z</time></trkpt><trkpt lon="15.591411" lat="46.5432317"><ele>369</ele><time>2019-09-10T15:20:33.000Z</time></trkpt><trkpt lon="15.591411" lat="46.5432317"><ele>369</ele><time>2019-09-10T15:20:34.000Z</time></trkpt><trkpt lon="15.5913467" lat="46.5431362"><ele>369</ele><time>2019-09-10T15:20:35.000Z</time></trkpt><trkpt lon="15.5913467" lat="46.5431362"><ele>369</ele><time>2019-09-10T15:20:36.000Z</time></trkpt><trkpt lon="15.5912792" lat="46.5430463"><ele>370</ele><time>2019-09-10T15:20:37.000Z</time></trkpt><trkpt lon="15.5912792" lat="46.5430463"><ele>370</ele><time>2019-09-10T15:20:38.000Z</time></trkpt><trkpt lon="15.5912111" lat="46.5429576"><ele>371</ele><time>2019-09-10T15:20:39.000Z</time></trkpt><trkpt lon="15.5911795" lat="46.5429125"><ele>371</ele><time>2019-09-10T15:20:40.000Z</time></trkpt><trkpt lon="15.5911795" lat="46.5429125"><ele>371</ele><time>2019-09-10T15:20:41.000Z</time></trkpt><trkpt lon="15.5911174" lat="46.542823"><ele>371</ele><time>2019-09-10T15:20:42.000Z</time></trkpt><trkpt lon="15.5911174" lat="46.542823"><ele>371</ele><time>2019-09-10T15:20:43.000Z</time></trkpt><trkpt lon="15.5910546" lat="46.5427343"><ele>372</ele><time>2019-09-10T15:20:44.000Z</time></trkpt><trkpt lon="15.5910225" lat="46.542689"><ele>372</ele><time>2019-09-10T15:20:45.000Z</time></trkpt><trkpt lon="15.5910225" lat="46.542689"><ele>372</ele><time>2019-09-10T15:20:46.000Z</time></trkpt><trkpt lon="15.5909593" lat="46.5425986"><ele>373</ele><time>2019-09-10T15:20:47.000Z</time></trkpt><trkpt lon="15.5909277" lat="46.5425532"><ele>373</ele><time>2019-09-10T15:20:48.000Z</time></trkpt><trkpt lon="15.5908966" lat="46.5425078"><ele>373</ele><time>2019-09-10T15:20:49.000Z</time></trkpt><trkpt lon="15.5908966" lat="46.5425078"><ele>373</ele><time>2019-09-10T15:20:50.000Z</time></trkpt><trkpt lon="15.5908388" lat="46.5424168"><ele>373</ele><time>2019-09-10T15:20:51.000Z</time></trkpt><trkpt lon="15.5908388" lat="46.5424168"><ele>373</ele><time>2019-09-10T15:20:52.000Z</time></trkpt><trkpt lon="15.5907747" lat="46.5423232"><ele>373</ele><time>2019-09-10T15:20:53.000Z</time></trkpt><trkpt lon="15.5907747" lat="46.5423232"><ele>373</ele><time>2019-09-10T15:20:54.000Z</time></trkpt><trkpt lon="15.5907102" lat="46.5422303"><ele>374</ele><time>2019-09-10T15:20:55.000Z</time></trkpt><trkpt lon="15.5906803" lat="46.5421847"><ele>374</ele><time>2019-09-10T15:20:56.000Z</time></trkpt><trkpt lon="15.5906803" lat="46.5421847"><ele>374</ele><time>2019-09-10T15:20:57.000Z</time></trkpt><trkpt lon="15.5906132" lat="46.542092"><ele>374</ele><time>2019-09-10T15:20:58.000Z</time></trkpt><trkpt lon="15.5906132" lat="46.542092"><ele>374</ele><time>2019-09-10T15:20:59.000Z</time></trkpt><trkpt lon="15.5905449" lat="46.5419985"><ele>375</ele><time>2019-09-10T15:21:00.000Z</time></trkpt><trkpt lon="15.5905449" lat="46.5419985"><ele>375</ele><time>2019-09-10T15:21:01.000Z</time></trkpt><trkpt lon="15.5904748" lat="46.5419021"><ele>375</ele><time>2019-09-10T15:21:02.000Z</time></trkpt><trkpt lon="15.5904748" lat="46.5419021"><ele>375</ele><time>2019-09-10T15:21:03.000Z</time></trkpt><trkpt lon="15.5904122" lat="46.5418146"><ele>375</ele><time>2019-09-10T15:21:04.000Z</time></trkpt><trkpt lon="15.5903856" lat="46.5417761"><ele>375</ele><time>2019-09-10T15:21:05.000Z</time></trkpt><trkpt lon="15.5903546" lat="46.5417364"><ele>375</ele><time>2019-09-10T15:21:06.000Z</time></trkpt><trkpt lon="15.5903546" lat="46.5417364"><ele>375</ele><time>2019-09-10T15:21:07.000Z</time></trkpt><trkpt lon="15.5902897" lat="46.5416472"><ele>375</ele><time>2019-09-10T15:21:08.000Z</time></trkpt><trkpt lon="15.5902598" lat="46.5416002"><ele>375</ele><time>2019-09-10T15:21:09.000Z</time></trkpt><trkpt lon="15.5902598" lat="46.5416002"><ele>375</ele><time>2019-09-10T15:21:10.000Z</time></trkpt><trkpt lon="15.5902018" lat="46.5415117"><ele>375</ele><time>2019-09-10T15:21:11.000Z</time></trkpt><trkpt lon="15.5901745" lat="46.5414703"><ele>376</ele><time>2019-09-10T15:21:12.000Z</time></trkpt><trkpt lon="15.5901745" lat="46.5414703"><ele>376</ele><time>2019-09-10T15:21:13.000Z</time></trkpt><trkpt lon="15.5901201" lat="46.5413823"><ele>376</ele><time>2019-09-10T15:21:14.000Z</time></trkpt><trkpt lon="15.5900913" lat="46.541337"><ele>376</ele><time>2019-09-10T15:21:15.000Z</time></trkpt><trkpt lon="15.5900582" lat="46.5412926"><ele>376</ele><time>2019-09-10T15:21:16.000Z</time></trkpt><trkpt lon="15.5900582" lat="46.5412926"><ele>376</ele><time>2019-09-10T15:21:17.000Z</time></trkpt><trkpt lon="15.5899949" lat="46.5411993"><ele>377</ele><time>2019-09-10T15:21:18.000Z</time></trkpt><trkpt lon="15.5899623" lat="46.5411552"><ele>377</ele><time>2019-09-10T15:21:19.000Z</time></trkpt><trkpt lon="15.5899623" lat="46.5411552"><ele>377</ele><time>2019-09-10T15:21:20.000Z</time></trkpt><trkpt lon="15.5899001" lat="46.54107"><ele>377</ele><time>2019-09-10T15:21:21.000Z</time></trkpt><trkpt lon="15.5899001" lat="46.54107"><ele>377</ele><time>2019-09-10T15:21:22.000Z</time></trkpt><trkpt lon="15.5898415" lat="46.5409839"><ele>378</ele><time>2019-09-10T15:21:23.000Z</time></trkpt><trkpt lon="15.5898415" lat="46.5409839"><ele>378</ele><time>2019-09-10T15:21:24.000Z</time></trkpt><trkpt lon="15.5897791" lat="46.5408972"><ele>378</ele><time>2019-09-10T15:21:25.000Z</time></trkpt><trkpt lon="15.5897455" lat="46.5408547"><ele>378</ele><time>2019-09-10T15:21:26.000Z</time></trkpt><trkpt lon="15.5897184" lat="46.5408133"><ele>379</ele><time>2019-09-10T15:21:27.000Z</time></trkpt><trkpt lon="15.5897184" lat="46.5408133"><ele>379</ele><time>2019-09-10T15:21:28.000Z</time></trkpt><trkpt lon="15.5896598" lat="46.5407338"><ele>379</ele><time>2019-09-10T15:21:29.000Z</time></trkpt><trkpt lon="15.5896598" lat="46.5407338"><ele>379</ele><time>2019-09-10T15:21:30.000Z</time></trkpt><trkpt lon="15.5896032" lat="46.5406551"><ele>380</ele><time>2019-09-10T15:21:31.000Z</time></trkpt><trkpt lon="15.5895753" lat="46.5406152"><ele>380</ele><time>2019-09-10T15:21:32.000Z</time></trkpt><trkpt lon="15.5895753" lat="46.5406152"><ele>380</ele><time>2019-09-10T15:21:33.000Z</time></trkpt><trkpt lon="15.589518" lat="46.5405393"><ele>380</ele><time>2019-09-10T15:21:34.000Z</time></trkpt><trkpt lon="15.589518" lat="46.5405393"><ele>380</ele><time>2019-09-10T15:21:35.000Z</time></trkpt><trkpt lon="15.5894704" lat="46.5404625"><ele>380</ele><time>2019-09-10T15:21:36.000Z</time></trkpt><trkpt lon="15.5894423" lat="46.5404248"><ele>381</ele><time>2019-09-10T15:21:37.000Z</time></trkpt><trkpt lon="15.5894145" lat="46.5403868"><ele>381</ele><time>2019-09-10T15:21:38.000Z</time></trkpt><trkpt lon="15.5894145" lat="46.5403868"><ele>381</ele><time>2019-09-10T15:21:39.000Z</time></trkpt><trkpt lon="15.5893618" lat="46.5403075"><ele>382</ele><time>2019-09-10T15:21:40.000Z</time></trkpt><trkpt lon="15.5893334" lat="46.5402692"><ele>382</ele><time>2019-09-10T15:21:41.000Z</time></trkpt><trkpt lon="15.5893334" lat="46.5402692"><ele>382</ele><time>2019-09-10T15:21:42.000Z</time></trkpt><trkpt lon="15.5892855" lat="46.5401938"><ele>382</ele><time>2019-09-10T15:21:43.000Z</time></trkpt><trkpt lon="15.5892567" lat="46.5401567"><ele>382</ele><time>2019-09-10T15:21:44.000Z</time></trkpt><trkpt lon="15.5892289" lat="46.5401184"><ele>383</ele><time>2019-09-10T15:21:45.000Z</time></trkpt><trkpt lon="15.5892289" lat="46.5401184"><ele>383</ele><time>2019-09-10T15:21:46.000Z</time></trkpt><trkpt lon="15.5891753" lat="46.5400432"><ele>383</ele><time>2019-09-10T15:21:47.000Z</time></trkpt><trkpt lon="15.5891753" lat="46.5400432"><ele>383</ele><time>2019-09-10T15:21:48.000Z</time></trkpt><trkpt lon="15.5891251" lat="46.5399713"><ele>384</ele><time>2019-09-10T15:21:49.000Z</time></trkpt><trkpt lon="15.5891009" lat="46.5399368"><ele>384</ele><time>2019-09-10T15:21:50.000Z</time></trkpt><trkpt lon="15.5891009" lat="46.5399368"><ele>384</ele><time>2019-09-10T15:21:51.000Z</time></trkpt><trkpt lon="15.5890548" lat="46.5398714"><ele>384</ele><time>2019-09-10T15:21:52.000Z</time></trkpt><trkpt lon="15.5890548" lat="46.5398714"><ele>384</ele><time>2019-09-10T15:21:53.000Z</time></trkpt><trkpt lon="15.5890341" lat="46.5398378"><ele>384</ele><time>2019-09-10T15:21:54.000Z</time></trkpt><trkpt lon="15.5890341" lat="46.5398378"><ele>384</ele><time>2019-09-10T15:21:55.000Z</time></trkpt><trkpt lon="15.5890175" lat="46.5398128"><ele>385</ele><time>2019-09-10T15:21:56.000Z</time></trkpt><trkpt lon="15.5890175" lat="46.5398128"><ele>385</ele><time>2019-09-10T15:21:57.000Z</time></trkpt><trkpt lon="15.5890175" lat="46.5398128"><ele>385</ele><time>2019-09-10T15:21:58.000Z</time></trkpt><trkpt lon="-999.0" lat="-999.0"><ele>0.0</ele><time>2019-09-10T15:21:59.000Z</time></trkpt><trkpt lon="-999.0" lat="-999.0"><ele>0.0</ele><time>2019-09-10T15:22:00.000Z</time></trkpt><trkpt lon="-999.0" lat="-999.0"><ele>0.0</ele><time>2019-09-10T15:22:01.000Z</time></trkpt><trkpt lon="-999.0" lat="-999.0"><ele>0.0</ele><time>2019-09-10T15:22:02.000Z</time></trkpt><trkpt lon="-999.0" lat="-999.0"><ele>0.0</ele><time>2019-09-10T15:22:03.000Z</time></trkpt><trkpt lon="-999.0" lat="-999.0"><ele>0.0</ele><time>2019-09-10T15:22:04.000Z</time></trkpt><trkpt lon="-999.0" lat="-999.0"><ele>0.0</ele><time>2019-09-10T15:22:05.000Z</time></trkpt><trkpt lon="-999.0" lat="-999.0"><ele>0.0</ele><time>2019-09-10T15:22:06.000Z</time></trkpt><trkpt lon="-999.0" lat="-999.0"><ele>0.0</ele><time>2019-09-10T15:22:07.000Z</time></trkpt><trkpt lon="-999.0" lat="-999.0"><ele>0.0</ele><time>2019-09-10T15:22:08.000Z</time></trkpt><trkpt lon="-999.0" lat="-999.0"><ele>0.0</ele><time>2019-09-10T15:22:09.000Z</time></trkpt><trkpt lon="-999.0" lat="-999.0"><ele>0.0</ele><time>2019-09-10T15:22:10.000Z</time></trkpt><trkpt lon="-999.0" lat="-999.0"><ele>0.0</ele><time>2019-09-10T15:22:11.000Z</time></trkpt><trkpt lon="-999.0" lat="-999.0"><ele>0.0</ele><time>2019-09-10T15:22:12.000Z</time></trkpt><trkpt lon="-999.0" lat="-999.0"><ele>0.0</ele><time>2019-09-10T15:22:13.000Z</time></trkpt><trkpt lon="15.5889973" lat="46.5397858"><ele>383</ele><time>2019-09-10T15:22:14.000Z</time></trkpt><trkpt lon="15.5889973" lat="46.5397858"><ele>383</ele><time>2019-09-10T15:22:15.000Z</time></trkpt><trkpt lon="15.5889973" lat="46.5397858"><ele>383</ele><time>2019-09-10T15:22:16.000Z</time></trkpt><trkpt lon="15.5889711" lat="46.5397474"><ele>384</ele><time>2019-09-10T15:22:17.000Z</time></trkpt><trkpt lon="15.5889711" lat="46.5397474"><ele>384</ele><time>2019-09-10T15:22:18.000Z</time></trkpt><trkpt lon="15.5889391" lat="46.539703"><ele>384</ele><time>2019-09-10T15:22:19.000Z</time></trkpt><trkpt lon="15.5889391" lat="46.539703"><ele>384</ele><time>2019-09-10T15:22:20.000Z</time></trkpt><trkpt lon="15.5889176" lat="46.5396689"><ele>384</ele><time>2019-09-10T15:22:21.000Z</time></trkpt><trkpt lon="15.5889176" lat="46.5396689"><ele>384</ele><time>2019-09-10T15:22:22.000Z</time></trkpt><trkpt lon="15.588889" lat="46.5396302"><ele>384</ele><time>2019-09-10T15:22:23.000Z</time></trkpt><trkpt lon="15.588889" lat="46.5396302"><ele>384</ele><time>2019-09-10T15:22:24.000Z</time></trkpt><trkpt lon="15.5888551" lat="46.5395918"><ele>385</ele><time>2019-09-10T15:22:25.000Z</time></trkpt><trkpt lon="15.5888551" lat="46.5395918"><ele>385</ele><time>2019-09-10T15:22:26.000Z</time></trkpt><trkpt lon="15.5888287" lat="46.5395492"><ele>385</ele><time>2019-09-10T15:22:27.000Z</time></trkpt><trkpt lon="15.5888287" lat="46.5395492"><ele>385</ele><time>2019-09-10T15:22:28.000Z</time></trkpt><trkpt lon="15.5887978" lat="46.539498"><ele>385</ele><time>2019-09-10T15:22:29.000Z</time></trkpt><trkpt lon="15.5887764" lat="46.5394687"><ele>386</ele><time>2019-09-10T15:22:30.000Z</time></trkpt><trkpt lon="15.5887764" lat="46.5394687"><ele>386</ele><time>2019-09-10T15:22:31.000Z</time></trkpt><trkpt lon="15.5887372" lat="46.539414"><ele>386</ele><time>2019-09-10T15:22:32.000Z</time></trkpt><trkpt lon="15.5887372" lat="46.539414"><ele>386</ele><time>2019-09-10T15:22:33.000Z</time></trkpt><trkpt lon="15.5886673" lat="46.5393269"><ele>386</ele><time>2019-09-10T15:22:34.000Z</time></trkpt><trkpt lon="15.5886375" lat="46.5392923"><ele>386</ele><time>2019-09-10T15:22:35.000Z</time></trkpt><trkpt lon="15.5886375" lat="46.5392923"><ele>386</ele><time>2019-09-10T15:22:36.000Z</time></trkpt><trkpt lon="15.5885956" lat="46.5392389"><ele>387</ele><time>2019-09-10T15:22:37.000Z</time></trkpt><trkpt lon="15.5885956" lat="46.5392389"><ele>387</ele><time>2019-09-10T15:22:38.000Z</time></trkpt><trkpt lon="15.5885836" lat="46.539196"><ele>387</ele><time>2019-09-10T15:22:39.000Z</time></trkpt><trkpt lon="15.5885836" lat="46.539196"><ele>387</ele><time>2019-09-10T15:22:40.000Z</time></trkpt><trkpt lon="15.588624" lat="46.5391922"><ele>387</ele><time>2019-09-10T15:22:41.000Z</time></trkpt><trkpt lon="15.588624" lat="46.5391922"><ele>387</ele><time>2019-09-10T15:22:42.000Z</time></trkpt><trkpt lon="15.5886925" lat="46.5392758"><ele>387</ele><time>2019-09-10T15:22:43.000Z</time></trkpt><trkpt lon="15.5886925" lat="46.5392758"><ele>387</ele><time>2019-09-10T15:22:44.000Z</time></trkpt><trkpt lon="15.5887535" lat="46.5393742"><ele>386</ele><time>2019-09-10T15:22:45.000Z</time></trkpt><trkpt lon="15.5887535" lat="46.5393742"><ele>386</ele><time>2019-09-10T15:22:46.000Z</time></trkpt><trkpt lon="15.5888248" lat="46.5394757"><ele>386</ele><time>2019-09-10T15:22:47.000Z</time></trkpt><trkpt lon="15.5888647" lat="46.5395235"><ele>386</ele><time>2019-09-10T15:22:48.000Z</time></trkpt><trkpt lon="15.5888647" lat="46.5395235"><ele>386</ele><time>2019-09-10T15:22:49.000Z</time></trkpt><trkpt lon="15.5889418" lat="46.5396202"><ele>385</ele><time>2019-09-10T15:22:50.000Z</time></trkpt><trkpt lon="15.5889758" lat="46.5396686"><ele>385</ele><time>2019-09-10T15:22:51.000Z</time></trkpt><trkpt lon="15.5890023" lat="46.5397126"><ele>384</ele><time>2019-09-10T15:22:52.000Z</time></trkpt><trkpt lon="15.5890023" lat="46.5397126"><ele>384</ele><time>2019-09-10T15:22:53.000Z</time></trkpt><trkpt lon="15.5890015" lat="46.5397505"><ele>384</ele><time>2019-09-10T15:22:54.000Z</time></trkpt><trkpt lon="15.5890015" lat="46.5397505"><ele>384</ele><time>2019-09-10T15:22:55.000Z</time></trkpt><trkpt lon="15.5890015" lat="46.5397505"><ele>384</ele><time>2019-09-10T15:22:56.000Z</time></trkpt><trkpt lon="15.5890015" lat="46.5397505"><ele>384</ele><time>2019-09-10T15:22:57.000Z</time></trkpt><trkpt lon="-999.0" lat="-999.0"><ele>0.0</ele><time>2019-09-10T15:22:58.000Z</time></trkpt><trkpt lon="-999.0" lat="-999.0"><ele>0.0</ele><time>2019-09-10T15:22:59.000Z</time></trkpt><trkpt lon="-999.0" lat="-999.0"><ele>0.0</ele><time>2019-09-10T15:23:00.000Z</time></trkpt><trkpt lon="-999.0" lat="-999.0"><ele>0.0</ele><time>2019-09-10T15:23:01.000Z</time></trkpt><trkpt lon="-999.0" lat="-999.0"><ele>0.0</ele><time>2019-09-10T15:23:02.000Z</time></trkpt><trkpt lon="15.5889972" lat="46.5397857"><ele>385</ele><time>2019-09-10T15:23:03.000Z</time></trkpt><trkpt lon="15.5889972" lat="46.5397857"><ele>385</ele><time>2019-09-10T15:23:04.000Z</time></trkpt><trkpt lon="15.5889972" lat="46.5397857"><ele>385</ele><time>2019-09-10T15:23:05.000Z</time></trkpt><trkpt lon="15.5889972" lat="46.5397857"><ele>385</ele><time>2019-09-10T15:23:06.000Z</time></trkpt><trkpt lon="-999.0" lat="-999.0"><ele>0.0</ele><time>2019-09-10T15:23:07.000Z</time></trkpt><trkpt lon="-999.0" lat="-999.0"><ele>0.0</ele><time>2019-09-10T15:23:08.000Z</time></trkpt><trkpt lon="-999.0" lat="-999.0"><ele>0.0</ele><time>2019-09-10T15:23:09.000Z</time></trkpt><trkpt lon="-999.0" lat="-999.0"><ele>0.0</ele><time>2019-09-10T15:23:10.000Z</time></trkpt><trkpt lon="-999.0" lat="-999.0"><ele>0.0</ele><time>2019-09-10T15:23:11.000Z</time></trkpt><trkpt lon="-999.0" lat="-999.0"><ele>0.0</ele><time>2019-09-10T15:23:12.000Z</time></trkpt><trkpt lon="-999.0" lat="-999.0"><ele>0.0</ele><time>2019-09-10T15:23:13.000Z</time></trkpt><trkpt lon="-999.0" lat="-999.0"><ele>0.0</ele><time>2019-09-10T15:23:14.000Z</time></trkpt><trkpt lon="-999.0" lat="-999.0"><ele>0.0</ele><time>2019-09-10T15:23:15.000Z</time></trkpt><trkpt lon="-999.0" lat="-999.0"><ele>0.0</ele><time>2019-09-10T15:23:16.000Z</time></trkpt><trkpt lon="15.5889733" lat="46.5397498"><ele>385</ele><time>2019-09-10T15:23:17.000Z</time></trkpt><trkpt lon="15.5889733" lat="46.5397498"><ele>385</ele><time>2019-09-10T15:23:18.000Z</time></trkpt><trkpt lon="15.5889733" lat="46.5397498"><ele>385</ele><time>2019-09-10T15:23:19.000Z</time></trkpt><trkpt lon="15.5889574" lat="46.5397166"><ele>386</ele><time>2019-09-10T15:23:20.000Z</time></trkpt><trkpt lon="15.5889574" lat="46.5397166"><ele>386</ele><time>2019-09-10T15:23:21.000Z</time></trkpt><trkpt lon="15.5889457" lat="46.5396879"><ele>386</ele><time>2019-09-10T15:23:22.000Z</time></trkpt><trkpt lon="15.5889457" lat="46.5396879"><ele>386</ele><time>2019-09-10T15:23:23.000Z</time></trkpt><trkpt lon="15.5889327" lat="46.5396547"><ele>386</ele><time>2019-09-10T15:23:24.000Z</time></trkpt><trkpt lon="15.5889327" lat="46.5396547"><ele>386</ele><time>2019-09-10T15:23:25.000Z</time></trkpt><trkpt lon="15.5889028" lat="46.5396173"><ele>386</ele><time>2019-09-10T15:23:26.000Z</time></trkpt><trkpt lon="15.5889028" lat="46.5396173"><ele>386</ele><time>2019-09-10T15:23:27.000Z</time></trkpt><trkpt lon="15.5888469" lat="46.5395636"><ele>386</ele><time>2019-09-10T15:23:28.000Z</time></trkpt><trkpt lon="15.5888263" lat="46.5395372"><ele>387</ele><time>2019-09-10T15:23:29.000Z</time></trkpt><trkpt lon="15.5888263" lat="46.5395372"><ele>387</ele><time>2019-09-10T15:23:30.000Z</time></trkpt><trkpt lon="15.5887632" lat="46.5394449"><ele>387</ele><time>2019-09-10T15:23:31.000Z</time></trkpt><trkpt lon="15.5887346" lat="46.5394115"><ele>387</ele><time>2019-09-10T15:23:32.000Z</time></trkpt><trkpt lon="15.5887083" lat="46.5393764"><ele>387</ele><time>2019-09-10T15:23:33.000Z</time></trkpt><trkpt lon="15.5886814" lat="46.5393397"><ele>388</ele><time>2019-09-10T15:23:34.000Z</time></trkpt><trkpt lon="15.5886538" lat="46.5393027"><ele>388</ele><time>2019-09-10T15:23:35.000Z</time></trkpt><trkpt lon="15.588627" lat="46.5392642"><ele>388</ele><time>2019-09-10T15:23:36.000Z</time></trkpt><trkpt lon="15.588627" lat="46.5392642"><ele>388</ele><time>2019-09-10T15:23:37.000Z</time></trkpt><trkpt lon="15.5885738" lat="46.5391935"><ele>389</ele><time>2019-09-10T15:23:38.000Z</time></trkpt><trkpt lon="15.5885457" lat="46.539159"><ele>389</ele><time>2019-09-10T15:23:39.000Z</time></trkpt><trkpt lon="15.5885203" lat="46.5391226"><ele>389</ele><time>2019-09-10T15:23:40.000Z</time></trkpt><trkpt lon="15.5885203" lat="46.5391226"><ele>389</ele><time>2019-09-10T15:23:41.000Z</time></trkpt><trkpt lon="15.5884756" lat="46.5390525"><ele>389</ele><time>2019-09-10T15:23:42.000Z</time></trkpt><trkpt lon="15.5884539" lat="46.5390194"><ele>390</ele><time>2019-09-10T15:23:43.000Z</time></trkpt><trkpt lon="15.5884539" lat="46.5390194"><ele>390</ele><time>2019-09-10T15:23:44.000Z</time></trkpt><trkpt lon="15.5884076" lat="46.5389536"><ele>390</ele><time>2019-09-10T15:23:45.000Z</time></trkpt><trkpt lon="15.588382" lat="46.5389205"><ele>390</ele><time>2019-09-10T15:23:46.000Z</time></trkpt><trkpt lon="15.588382" lat="46.5389205"><ele>390</ele><time>2019-09-10T15:23:47.000Z</time></trkpt><trkpt lon="15.5883314" lat="46.538851"><ele>391</ele><time>2019-09-10T15:23:48.000Z</time></trkpt><trkpt lon="15.5883081" lat="46.5388155"><ele>391</ele><time>2019-09-10T15:23:49.000Z</time></trkpt><trkpt lon="15.5883081" lat="46.5388155"><ele>391</ele><time>2019-09-10T15:23:50.000Z</time></trkpt><trkpt lon="15.5882592" lat="46.5387484"><ele>392</ele><time>2019-09-10T15:23:51.000Z</time></trkpt><trkpt lon="15.5882371" lat="46.5387143"><ele>392</ele><time>2019-09-10T15:23:52.000Z</time></trkpt><trkpt lon="15.5882371" lat="46.5387143"><ele>392</ele><time>2019-09-10T15:23:53.000Z</time></trkpt><trkpt lon="15.5881892" lat="46.5386457"><ele>393</ele><time>2019-09-10T15:23:54.000Z</time></trkpt><trkpt lon="15.5881668" lat="46.5386115"><ele>393</ele><time>2019-09-10T15:23:55.000Z</time></trkpt><trkpt lon="15.5881668" lat="46.5386115"><ele>393</ele><time>2019-09-10T15:23:56.000Z</time></trkpt><trkpt lon="15.5881223" lat="46.5385438"><ele>394</ele><time>2019-09-10T15:23:57.000Z</time></trkpt><trkpt lon="15.5880954" lat="46.5385097"><ele>394</ele><time>2019-09-10T15:23:58.000Z</time></trkpt><trkpt lon="15.5880694" lat="46.5384751"><ele>394</ele><time>2019-09-10T15:23:59.000Z</time></trkpt><trkpt lon="15.5880431" lat="46.5384395"><ele>395</ele><time>2019-09-10T15:24:00.000Z</time></trkpt><trkpt lon="15.5880431" lat="46.5384395"><ele>395</ele><time>2019-09-10T15:24:01.000Z</time></trkpt><trkpt lon="15.5879943" lat="46.5383696"><ele>395</ele><time>2019-09-10T15:24:02.000Z</time></trkpt><trkpt lon="15.5879943" lat="46.5383696"><ele>395</ele><time>2019-09-10T15:24:03.000Z</time></trkpt><trkpt lon="15.5879461" lat="46.5382993"><ele>396</ele><time>2019-09-10T15:24:04.000Z</time></trkpt><trkpt lon="15.5879231" lat="46.5382636"><ele>396</ele><time>2019-09-10T15:24:05.000Z</time></trkpt><trkpt lon="15.5879231" lat="46.5382636"><ele>396</ele><time>2019-09-10T15:24:06.000Z</time></trkpt><trkpt lon="15.5878732" lat="46.5381917"><ele>397</ele><time>2019-09-10T15:24:07.000Z</time></trkpt><trkpt lon="15.5878732" lat="46.5381917"><ele>397</ele><time>2019-09-10T15:24:08.000Z</time></trkpt><trkpt lon="15.5878243" lat="46.5381159"><ele>398</ele><time>2019-09-10T15:24:09.000Z</time></trkpt><trkpt lon="15.5878243" lat="46.5381159"><ele>398</ele><time>2019-09-10T15:24:10.000Z</time></trkpt><trkpt lon="15.5877712" lat="46.5380399"><ele>398</ele><time>2019-09-10T15:24:11.000Z</time></trkpt><trkpt lon="15.5877464" lat="46.5380016"><ele>398</ele><time>2019-09-10T15:24:12.000Z</time></trkpt><trkpt lon="15.5877209" lat="46.5379638"><ele>399</ele><time>2019-09-10T15:24:13.000Z</time></trkpt><trkpt lon="15.5877209" lat="46.5379638"><ele>399</ele><time>2019-09-10T15:24:14.000Z</time></trkpt><trkpt lon="15.5876679" lat="46.5378883"><ele>399</ele><time>2019-09-10T15:24:15.000Z</time></trkpt><trkpt lon="15.5876418" lat="46.5378512"><ele>400</ele><time>2019-09-10T15:24:16.000Z</time></trkpt><trkpt lon="15.5876418" lat="46.5378512"><ele>400</ele><time>2019-09-10T15:24:17.000Z</time></trkpt><trkpt lon="15.5875905" lat="46.5377808"><ele>400</ele><time>2019-09-10T15:24:18.000Z</time></trkpt><trkpt lon="15.5875905" lat="46.5377808"><ele>400</ele><time>2019-09-10T15:24:19.000Z</time></trkpt><trkpt lon="15.5875388" lat="46.5377134"><ele>401</ele><time>2019-09-10T15:24:20.000Z</time></trkpt><trkpt lon="15.5875388" lat="46.5377134"><ele>401</ele><time>2019-09-10T15:24:21.000Z</time></trkpt><trkpt lon="15.5874872" lat="46.5376421"><ele>402</ele><time>2019-09-10T15:24:22.000Z</time></trkpt><trkpt lon="15.5874609" lat="46.5376055"><ele>402</ele><time>2019-09-10T15:24:23.000Z</time></trkpt><trkpt lon="15.5874609" lat="46.5376055"><ele>402</ele><time>2019-09-10T15:24:24.000Z</time></trkpt><trkpt lon="15.5874055" lat="46.5375317"><ele>402</ele><time>2019-09-10T15:24:25.000Z</time></trkpt><trkpt lon="15.5874055" lat="46.5375317"><ele>402</ele><time>2019-09-10T15:24:26.000Z</time></trkpt><trkpt lon="15.587348" lat="46.5374642"><ele>403</ele><time>2019-09-10T15:24:27.000Z</time></trkpt><trkpt lon="15.587348" lat="46.5374642"><ele>403</ele><time>2019-09-10T15:24:28.000Z</time></trkpt><trkpt lon="15.587283" lat="46.5374013"><ele>403</ele><time>2019-09-10T15:24:29.000Z</time></trkpt><trkpt lon="15.5872442" lat="46.5373719"><ele>404</ele><time>2019-09-10T15:24:30.000Z</time></trkpt><trkpt lon="15.5872442" lat="46.5373719"><ele>404</ele><time>2019-09-10T15:24:31.000Z</time></trkpt><trkpt lon="15.5871616" lat="46.5373175"><ele>404</ele><time>2019-09-10T15:24:32.000Z</time></trkpt><trkpt lon="15.5871616" lat="46.5373175"><ele>404</ele><time>2019-09-10T15:24:33.000Z</time></trkpt><trkpt lon="15.5870753" lat="46.537271"><ele>405</ele><time>2019-09-10T15:24:34.000Z</time></trkpt><trkpt lon="15.5870753" lat="46.537271"><ele>405</ele><time>2019-09-10T15:24:35.000Z</time></trkpt><trkpt lon="15.5869902" lat="46.5372246"><ele>406</ele><time>2019-09-10T15:24:36.000Z</time></trkpt><trkpt lon="15.5869902" lat="46.5372246"><ele>406</ele><time>2019-09-10T15:24:37.000Z</time></trkpt><trkpt lon="15.5869017" lat="46.5371816"><ele>406</ele><time>2019-09-10T15:24:38.000Z</time></trkpt><trkpt lon="15.5868556" lat="46.5371594"><ele>407</ele><time>2019-09-10T15:24:39.000Z</time></trkpt><trkpt lon="15.5868556" lat="46.5371594"><ele>407</ele><time>2019-09-10T15:24:40.000Z</time></trkpt><trkpt lon="15.5867628" lat="46.5371134"><ele>407</ele><time>2019-09-10T15:24:41.000Z</time></trkpt><trkpt lon="15.5867164" lat="46.5370918"><ele>408</ele><time>2019-09-10T15:24:42.000Z</time></trkpt><trkpt lon="15.5866679" lat="46.5370699"><ele>408</ele><time>2019-09-10T15:24:43.000Z</time></trkpt><trkpt lon="15.5866679" lat="46.5370699"><ele>408</ele><time>2019-09-10T15:24:44.000Z</time></trkpt><trkpt lon="15.5865707" lat="46.5370244"><ele>409</ele><time>2019-09-10T15:24:45.000Z</time></trkpt><trkpt lon="15.5865247" lat="46.5370009"><ele>409</ele><time>2019-09-10T15:24:46.000Z</time></trkpt><trkpt lon="15.5864808" lat="46.5369746"><ele>409</ele><time>2019-09-10T15:24:47.000Z</time></trkpt><trkpt lon="15.5864808" lat="46.5369746"><ele>409</ele><time>2019-09-10T15:24:48.000Z</time></trkpt><trkpt lon="15.5863834" lat="46.5369276"><ele>410</ele><time>2019-09-10T15:24:49.000Z</time></trkpt><trkpt lon="15.5863834" lat="46.5369276"><ele>410</ele><time>2019-09-10T15:24:50.000Z</time></trkpt><trkpt lon="15.586292" lat="46.5368826"><ele>411</ele><time>2019-09-10T15:24:51.000Z</time></trkpt><trkpt lon="15.5862505" lat="46.5368589"><ele>411</ele><time>2019-09-10T15:24:52.000Z</time></trkpt><trkpt lon="15.5862505" lat="46.5368589"><ele>411</ele><time>2019-09-10T15:24:53.000Z</time></trkpt><trkpt lon="15.5861629" lat="46.5368151"><ele>412</ele><time>2019-09-10T15:24:54.000Z</time></trkpt><trkpt lon="15.5861629" lat="46.5368151"><ele>412</ele><time>2019-09-10T15:24:55.000Z</time></trkpt><trkpt lon="15.5860754" lat="46.536773"><ele>412</ele><time>2019-09-10T15:24:56.000Z</time></trkpt><trkpt lon="15.5860337" lat="46.5367509"><ele>413</ele><time>2019-09-10T15:24:57.000Z</time></trkpt><trkpt lon="15.5860337" lat="46.5367509"><ele>413</ele><time>2019-09-10T15:24:58.000Z</time></trkpt><trkpt lon="15.5859493" lat="46.536709"><ele>414</ele><time>2019-09-10T15:24:59.000Z</time></trkpt><trkpt lon="15.5859493" lat="46.536709"><ele>414</ele><time>2019-09-10T15:25:00.000Z</time></trkpt><trkpt lon="15.5858896" lat="46.5366794"><ele>414</ele><time>2019-09-10T15:25:01.000Z</time></trkpt><trkpt lon="15.5858896" lat="46.5366794"><ele>414</ele><time>2019-09-10T15:25:02.000Z</time></trkpt><trkpt lon="15.5858194" lat="46.5366457"><ele>415</ele><time>2019-09-10T15:25:03.000Z</time></trkpt><trkpt lon="15.5857769" lat="46.536625"><ele>416</ele><time>2019-09-10T15:25:04.000Z</time></trkpt><trkpt lon="15.5857769" lat="46.536625"><ele>416</ele><time>2019-09-10T15:25:05.000Z</time></trkpt><trkpt lon="15.5857091" lat="46.5365886"><ele>416</ele><time>2019-09-10T15:25:06.000Z</time></trkpt><trkpt lon="15.5857091" lat="46.5365886"><ele>416</ele><time>2019-09-10T15:25:07.000Z</time></trkpt><trkpt lon="15.5856311" lat="46.5365494"><ele>417</ele><time>2019-09-10T15:25:08.000Z</time></trkpt><trkpt lon="15.5856311" lat="46.5365494"><ele>417</ele><time>2019-09-10T15:25:09.000Z</time></trkpt><trkpt lon="15.5855604" lat="46.5365152"><ele>418</ele><time>2019-09-10T15:25:10.000Z</time></trkpt><trkpt lon="15.5855275" lat="46.5364983"><ele>418</ele><time>2019-09-10T15:25:11.000Z</time></trkpt><trkpt lon="15.5855275" lat="46.5364983"><ele>418</ele><time>2019-09-10T15:25:12.000Z</time></trkpt><trkpt lon="15.5854238" lat="46.536447"><ele>419</ele><time>2019-09-10T15:25:13.000Z</time></trkpt><trkpt lon="15.5854238" lat="46.536447"><ele>419</ele><time>2019-09-10T15:25:14.000Z</time></trkpt><trkpt lon="15.5853069" lat="46.5363866"><ele>419</ele><time>2019-09-10T15:25:15.000Z</time></trkpt><trkpt lon="15.5853069" lat="46.5363866"><ele>419</ele><time>2019-09-10T15:25:16.000Z</time></trkpt><trkpt lon="15.5852667" lat="46.5363596"><ele>420</ele><time>2019-09-10T15:25:17.000Z</time></trkpt><trkpt lon="15.5852366" lat="46.536341"><ele>421</ele><time>2019-09-10T15:25:18.000Z</time></trkpt><trkpt lon="15.5851936" lat="46.5363187"><ele>421</ele><time>2019-09-10T15:25:19.000Z</time></trkpt><trkpt lon="15.5851387" lat="46.5362926"><ele>421</ele><time>2019-09-10T15:25:20.000Z</time></trkpt><trkpt lon="15.5851387" lat="46.5362926"><ele>421</ele><time>2019-09-10T15:25:21.000Z</time></trkpt><trkpt lon="15.5850503" lat="46.536251"><ele>422</ele><time>2019-09-10T15:25:22.000Z</time></trkpt><trkpt lon="15.5850503" lat="46.536251"><ele>422</ele><time>2019-09-10T15:25:23.000Z</time></trkpt><trkpt lon="15.5849398" lat="46.5361932"><ele>422</ele><time>2019-09-10T15:25:24.000Z</time></trkpt><trkpt lon="15.5848961" lat="46.5361709"><ele>423</ele><time>2019-09-10T15:25:25.000Z</time></trkpt><trkpt lon="15.5848961" lat="46.5361709"><ele>423</ele><time>2019-09-10T15:25:26.000Z</time></trkpt><trkpt lon="15.5848041" lat="46.5361297"><ele>424</ele><time>2019-09-10T15:25:27.000Z</time></trkpt><trkpt lon="15.5847589" lat="46.5361084"><ele>424</ele><time>2019-09-10T15:25:28.000Z</time></trkpt><trkpt lon="15.5847589" lat="46.5361084"><ele>424</ele><time>2019-09-10T15:25:29.000Z</time></trkpt><trkpt lon="15.5846721" lat="46.5360664"><ele>425</ele><time>2019-09-10T15:25:30.000Z</time></trkpt><trkpt lon="15.5846721" lat="46.5360664"><ele>425</ele><time>2019-09-10T15:25:31.000Z</time></trkpt><trkpt lon="15.584601" lat="46.5360321"><ele>425</ele><time>2019-09-10T15:25:32.000Z</time></trkpt><trkpt lon="15.584601" lat="46.5360321"><ele>425</ele><time>2019-09-10T15:25:33.000Z</time></trkpt><trkpt lon="15.5844991" lat="46.5359837"><ele>426</ele><time>2019-09-10T15:25:34.000Z</time></trkpt><trkpt lon="15.5844991" lat="46.5359837"><ele>426</ele><time>2019-09-10T15:25:35.000Z</time></trkpt><trkpt lon="15.5844112" lat="46.5359403"><ele>426</ele><time>2019-09-10T15:25:36.000Z</time></trkpt><trkpt lon="15.5843653" lat="46.535921"><ele>427</ele><time>2019-09-10T15:25:37.000Z</time></trkpt><trkpt lon="15.5843231" lat="46.5358994"><ele>427</ele><time>2019-09-10T15:25:38.000Z</time></trkpt><trkpt lon="15.5843231" lat="46.5358994"><ele>427</ele><time>2019-09-10T15:25:39.000Z</time></trkpt><trkpt lon="15.5842359" lat="46.5358591"><ele>427</ele><time>2019-09-10T15:25:40.000Z</time></trkpt><trkpt lon="15.5841897" lat="46.5358389"><ele>428</ele><time>2019-09-10T15:25:41.000Z</time></trkpt><trkpt lon="15.5841429" lat="46.5358183"><ele>428</ele><time>2019-09-10T15:25:42.000Z</time></trkpt><trkpt lon="15.5841429" lat="46.5358183"><ele>428</ele><time>2019-09-10T15:25:43.000Z</time></trkpt><trkpt lon="15.5840545" lat="46.535774"><ele>429</ele><time>2019-09-10T15:25:44.000Z</time></trkpt><trkpt lon="15.5840545" lat="46.535774"><ele>429</ele><time>2019-09-10T15:25:45.000Z</time></trkpt><trkpt lon="15.5839648" lat="46.5357293"><ele>429</ele><time>2019-09-10T15:25:46.000Z</time></trkpt><trkpt lon="15.5839648" lat="46.5357293"><ele>429</ele><time>2019-09-10T15:25:47.000Z</time></trkpt><trkpt lon="15.5838788" lat="46.5356789"><ele>430</ele><time>2019-09-10T15:25:48.000Z</time></trkpt><trkpt lon="15.5838356" lat="46.5356532"><ele>430</ele><time>2019-09-10T15:25:49.000Z</time></trkpt><trkpt lon="15.5837948" lat="46.5356283"><ele>430</ele><time>2019-09-10T15:25:50.000Z</time></trkpt><trkpt lon="15.5837583" lat="46.5356002"><ele>430</ele><time>2019-09-10T15:25:51.000Z</time></trkpt><trkpt lon="15.5837583" lat="46.5356002"><ele>430</ele><time>2019-09-10T15:25:52.000Z</time></trkpt><trkpt lon="15.5836907" lat="46.5355428"><ele>431</ele><time>2019-09-10T15:25:53.000Z</time></trkpt><trkpt lon="15.5836536" lat="46.5355137"><ele>431</ele><time>2019-09-10T15:25:54.000Z</time></trkpt><trkpt lon="15.5836536" lat="46.5355137"><ele>431</ele><time>2019-09-10T15:25:55.000Z</time></trkpt><trkpt lon="15.5835766" lat="46.5354507"><ele>432</ele><time>2019-09-10T15:25:56.000Z</time></trkpt><trkpt lon="15.5835766" lat="46.5354507"><ele>432</ele><time>2019-09-10T15:25:57.000Z</time></trkpt><trkpt lon="15.5835055" lat="46.5353862"><ele>432</ele><time>2019-09-10T15:25:58.000Z</time></trkpt><trkpt lon="15.5835055" lat="46.5353862"><ele>432</ele><time>2019-09-10T15:25:59.000Z</time></trkpt><trkpt lon="15.5834493" lat="46.5353153"><ele>433</ele><time>2019-09-10T15:26:00.000Z</time></trkpt><trkpt lon="15.5834493" lat="46.5353153"><ele>433</ele><time>2019-09-10T15:26:01.000Z</time></trkpt><trkpt lon="15.583402" lat="46.5352413"><ele>434</ele><time>2019-09-10T15:26:02.000Z</time></trkpt><trkpt lon="15.583402" lat="46.5352413"><ele>434</ele><time>2019-09-10T15:26:03.000Z</time></trkpt><trkpt lon="15.5833649" lat="46.5351673"><ele>434</ele><time>2019-09-10T15:26:04.000Z</time></trkpt><trkpt lon="15.5833501" lat="46.5351297"><ele>435</ele><time>2019-09-10T15:26:05.000Z</time></trkpt><trkpt lon="15.5833338" lat="46.5350923"><ele>435</ele><time>2019-09-10T15:26:06.000Z</time></trkpt><trkpt lon="15.5833179" lat="46.5350539"><ele>435</ele><time>2019-09-10T15:26:07.000Z</time></trkpt><trkpt lon="15.5833179" lat="46.5350539"><ele>435</ele><time>2019-09-10T15:26:08.000Z</time></trkpt><trkpt lon="15.5832837" lat="46.5349794"><ele>436</ele><time>2019-09-10T15:26:09.000Z</time></trkpt><trkpt lon="15.583266" lat="46.5349448"><ele>436</ele><time>2019-09-10T15:26:10.000Z</time></trkpt><trkpt lon="15.583266" lat="46.5349448"><ele>436</ele><time>2019-09-10T15:26:11.000Z</time></trkpt><trkpt lon="15.583237" lat="46.5348727"><ele>437</ele><time>2019-09-10T15:26:12.000Z</time></trkpt><trkpt lon="15.583222" lat="46.5348369"><ele>437</ele><time>2019-09-10T15:26:13.000Z</time></trkpt><trkpt lon="15.583222" lat="46.5348369"><ele>437</ele><time>2019-09-10T15:26:14.000Z</time></trkpt><trkpt lon="15.5831953" lat="46.5347627"><ele>437</ele><time>2019-09-10T15:26:15.000Z</time></trkpt><trkpt lon="15.5831953" lat="46.5347627"><ele>437</ele><time>2019-09-10T15:26:16.000Z</time></trkpt><trkpt lon="15.5831698" lat="46.5346851"><ele>438</ele><time>2019-09-10T15:26:17.000Z</time></trkpt><trkpt lon="15.5831535" lat="46.5346486"><ele>438</ele><time>2019-09-10T15:26:18.000Z</time></trkpt><trkpt lon="15.5831384" lat="46.5346136"><ele>439</ele><time>2019-09-10T15:26:19.000Z</time></trkpt><trkpt lon="15.5831384" lat="46.5346136"><ele>439</ele><time>2019-09-10T15:26:20.000Z</time></trkpt><trkpt lon="15.583114" lat="46.53454"><ele>439</ele><time>2019-09-10T15:26:21.000Z</time></trkpt><trkpt lon="15.583114" lat="46.53454"><ele>439</ele><time>2019-09-10T15:26:22.000Z</time></trkpt><trkpt lon="15.5830936" lat="46.5344698"><ele>440</ele><time>2019-09-10T15:26:23.000Z</time></trkpt><trkpt lon="15.5830823" lat="46.5344337"><ele>440</ele><time>2019-09-10T15:26:24.000Z</time></trkpt><trkpt lon="15.5830694" lat="46.5343971"><ele>441</ele><time>2019-09-10T15:26:25.000Z</time></trkpt><trkpt lon="15.5830582" lat="46.5343595"><ele>441</ele><time>2019-09-10T15:26:26.000Z</time></trkpt><trkpt lon="15.5830421" lat="46.5343235"><ele>441</ele><time>2019-09-10T15:26:27.000Z</time></trkpt><trkpt lon="15.5830421" lat="46.5343235"><ele>441</ele><time>2019-09-10T15:26:28.000Z</time></trkpt><trkpt lon="15.5830197" lat="46.5342514"><ele>442</ele><time>2019-09-10T15:26:29.000Z</time></trkpt><trkpt lon="15.5830197" lat="46.5342514"><ele>442</ele><time>2019-09-10T15:26:30.000Z</time></trkpt><trkpt lon="15.5829937" lat="46.5341807"><ele>443</ele><time>2019-09-10T15:26:31.000Z</time></trkpt><trkpt lon="15.5829937" lat="46.5341807"><ele>443</ele><time>2019-09-10T15:26:32.000Z</time></trkpt><trkpt lon="15.5829676" lat="46.534111"><ele>443</ele><time>2019-09-10T15:26:33.000Z</time></trkpt><trkpt lon="15.5829676" lat="46.534111"><ele>443</ele><time>2019-09-10T15:26:34.000Z</time></trkpt><trkpt lon="15.5829377" lat="46.5340413"><ele>444</ele><time>2019-09-10T15:26:35.000Z</time></trkpt><trkpt lon="15.5829238" lat="46.5340053"><ele>445</ele><time>2019-09-10T15:26:36.000Z</time></trkpt><trkpt lon="15.5829238" lat="46.5340053"><ele>445</ele><time>2019-09-10T15:26:37.000Z</time></trkpt><trkpt lon="15.582897" lat="46.5339363"><ele>445</ele><time>2019-09-10T15:26:38.000Z</time></trkpt><trkpt lon="15.582897" lat="46.5339363"><ele>445</ele><time>2019-09-10T15:26:39.000Z</time></trkpt><trkpt lon="15.5828798" lat="46.5338927"><ele>446</ele><time>2019-09-10T15:26:40.000Z</time></trkpt><trkpt lon="15.5828798" lat="46.5338927"><ele>446</ele><time>2019-09-10T15:26:41.000Z</time></trkpt><trkpt lon="15.582862" lat="46.5338393"><ele>447</ele><time>2019-09-10T15:26:42.000Z</time></trkpt><trkpt lon="15.582862" lat="46.5338393"><ele>447</ele><time>2019-09-10T15:26:43.000Z</time></trkpt><trkpt lon="15.5828352" lat="46.5337614"><ele>448</ele><time>2019-09-10T15:26:44.000Z</time></trkpt><trkpt lon="15.5828221" lat="46.5337303"><ele>448</ele><time>2019-09-10T15:26:45.000Z</time></trkpt><trkpt lon="15.5828221" lat="46.5337303"><ele>448</ele><time>2019-09-10T15:26:46.000Z</time></trkpt><trkpt lon="15.5827884" lat="46.5336532"><ele>449</ele><time>2019-09-10T15:26:47.000Z</time></trkpt><trkpt lon="15.5827884" lat="46.5336532"><ele>449</ele><time>2019-09-10T15:26:48.000Z</time></trkpt><trkpt lon="15.5827675" lat="46.5335978"><ele>450</ele><time>2019-09-10T15:26:49.000Z</time></trkpt><trkpt lon="15.5827454" lat="46.5335296"><ele>450</ele><time>2019-09-10T15:26:50.000Z</time></trkpt><trkpt lon="15.5827454" lat="46.5335296"><ele>450</ele><time>2019-09-10T15:26:51.000Z</time></trkpt><trkpt lon="15.5827296" lat="46.533486"><ele>451</ele><time>2019-09-10T15:26:52.000Z</time></trkpt><trkpt lon="15.5827157" lat="46.5334564"><ele>451</ele><time>2019-09-10T15:26:53.000Z</time></trkpt><trkpt lon="15.5826985" lat="46.5334246"><ele>452</ele><time>2019-09-10T15:26:54.000Z</time></trkpt><trkpt lon="15.5826985" lat="46.5334246"><ele>452</ele><time>2019-09-10T15:26:55.000Z</time></trkpt><trkpt lon="15.582665" lat="46.533359"><ele>452</ele><time>2019-09-10T15:26:56.000Z</time></trkpt><trkpt lon="15.5826479" lat="46.5333262"><ele>453</ele><time>2019-09-10T15:26:57.000Z</time></trkpt><trkpt lon="15.5826282" lat="46.5332936"><ele>453</ele><time>2019-09-10T15:26:58.000Z</time></trkpt><trkpt lon="15.5825983" lat="46.5332512"><ele>453</ele><time>2019-09-10T15:26:59.000Z</time></trkpt><trkpt lon="15.5825983" lat="46.5332512"><ele>453</ele><time>2019-09-10T15:27:00.000Z</time></trkpt><trkpt lon="15.582564" lat="46.5332065"><ele>454</ele><time>2019-09-10T15:27:01.000Z</time></trkpt><trkpt lon="15.582564" lat="46.5332065"><ele>454</ele><time>2019-09-10T15:27:02.000Z</time></trkpt><trkpt lon="15.5825287" lat="46.5331678"><ele>455</ele><time>2019-09-10T15:27:03.000Z</time></trkpt><trkpt lon="15.5825287" lat="46.5331678"><ele>455</ele><time>2019-09-10T15:27:04.000Z</time></trkpt><trkpt lon="15.5825287" lat="46.5331678"><ele>455</ele><time>2019-09-10T15:27:05.000Z</time></trkpt><trkpt lon="15.5824973" lat="46.533141"><ele>454</ele><time>2019-09-10T15:27:06.000Z</time></trkpt><trkpt lon="15.5824973" lat="46.533141"><ele>454</ele><time>2019-09-10T15:27:07.000Z</time></trkpt><trkpt lon="15.5824973" lat="46.533141"><ele>454</ele><time>2019-09-10T15:27:08.000Z</time></trkpt><trkpt lon="-999.0" lat="-999.0"><ele>0.0</ele><time>2019-09-10T15:27:09.000Z</time></trkpt><trkpt lon="-999.0" lat="-999.0"><ele>0.0</ele><time>2019-09-10T15:27:10.000Z</time></trkpt><trkpt lon="-999.0" lat="-999.0"><ele>0.0</ele><time>2019-09-10T15:27:11.000Z</time></trkpt><trkpt lon="-999.0" lat="-999.0"><ele>0.0</ele><time>2019-09-10T15:27:12.000Z</time></trkpt><trkpt lon="-999.0" lat="-999.0"><ele>0.0</ele><time>2019-09-10T15:27:13.000Z</time></trkpt><trkpt lon="-999.0" lat="-999.0"><ele>0.0</ele><time>2019-09-10T15:27:14.000Z</time></trkpt><trkpt lon="-999.0" lat="-999.0"><ele>0.0</ele><time>2019-09-10T15:27:15.000Z</time></trkpt><trkpt lon="-999.0" lat="-999.0"><ele>0.0</ele><time>2019-09-10T15:27:16.000Z</time></trkpt><trkpt lon="-999.0" lat="-999.0"><ele>0.0</ele><time>2019-09-10T15:27:17.000Z</time></trkpt><trkpt lon="-999.0" lat="-999.0"><ele>0.0</ele><time>2019-09-10T15:27:18.000Z</time></trkpt><trkpt lon="-999.0" lat="-999.0"><ele>0.0</ele><time>2019-09-10T15:27:19.000Z</time></trkpt><trkpt lon="-999.0" lat="-999.0"><ele>0.0</ele><time>2019-09-10T15:27:20.000Z</time></trkpt><trkpt lon="-999.0" lat="-999.0"><ele>0.0</ele><time>2019-09-10T15:27:21.000Z</time></trkpt><trkpt lon="-999.0" lat="-999.0"><ele>0.0</ele><time>2019-09-10T15:27:22.000Z</time></trkpt><trkpt lon="-999.0" lat="-999.0"><ele>0.0</ele><time>2019-09-10T15:27:23.000Z</time></trkpt><trkpt lon="-999.0" lat="-999.0"><ele>0.0</ele><time>2019-09-10T15:27:24.000Z</time></trkpt><trkpt lon="-999.0" lat="-999.0"><ele>0.0</ele><time>2019-09-10T15:27:25.000Z</time></trkpt><trkpt lon="-999.0" lat="-999.0"><ele>0.0</ele><time>2019-09-10T15:27:26.000Z</time></trkpt><trkpt lon="-999.0" lat="-999.0"><ele>0.0</ele><time>2019-09-10T15:27:27.000Z</time></trkpt><trkpt lon="-999.0" lat="-999.0"><ele>0.0</ele><time>2019-09-10T15:27:28.000Z</time></trkpt><trkpt lon="-999.0" lat="-999.0"><ele>0.0</ele><time>2019-09-10T15:27:29.000Z</time></trkpt><trkpt lon="-999.0" lat="-999.0"><ele>0.0</ele><time>2019-09-10T15:27:30.000Z</time></trkpt><trkpt lon="-999.0" lat="-999.0"><ele>0.0</ele><time>2019-09-10T15:27:31.000Z</time></trkpt><trkpt lon="-999.0" lat="-999.0"><ele>0.0</ele><time>2019-09-10T15:27:32.000Z</time></trkpt><trkpt lon="-999.0" lat="-999.0"><ele>0.0</ele><time>2019-09-10T15:27:33.000Z</time></trkpt><trkpt lon="-999.0" lat="-999.0"><ele>0.0</ele><time>2019-09-10T15:27:34.000Z</time></trkpt><trkpt lon="-999.0" lat="-999.0"><ele>0.0</ele><time>2019-09-10T15:27:35.000Z</time></trkpt><trkpt lon="-999.0" lat="-999.0"><ele>0.0</ele><time>2019-09-10T15:27:36.000Z</time></trkpt><trkpt lon="-999.0" lat="-999.0"><ele>0.0</ele><time>2019-09-10T15:27:37.000Z</time></trkpt><trkpt lon="-999.0" lat="-999.0"><ele>0.0</ele><time>2019-09-10T15:27:38.000Z</time></trkpt><trkpt lon="15.5824506" lat="46.5331141"><ele>455</ele><time>2019-09-10T15:27:39.000Z</time></trkpt><trkpt lon="15.5824506" lat="46.5331141"><ele>455</ele><time>2019-09-10T15:27:40.000Z</time></trkpt><trkpt lon="15.5823814" lat="46.5330873"><ele>455</ele><time>2019-09-10T15:27:41.000Z</time></trkpt><trkpt lon="15.5822973" lat="46.533062"><ele>455</ele><time>2019-09-10T15:27:42.000Z</time></trkpt><trkpt lon="15.5822434" lat="46.5330375"><ele>455</ele><time>2019-09-10T15:27:43.000Z</time></trkpt><trkpt lon="15.5822434" lat="46.5330375"><ele>455</ele><time>2019-09-10T15:27:44.000Z</time></trkpt><trkpt lon="15.5821501" lat="46.5329829"><ele>456</ele><time>2019-09-10T15:27:45.000Z</time></trkpt><trkpt lon="15.5821501" lat="46.5329829"><ele>456</ele><time>2019-09-10T15:27:46.000Z</time></trkpt><trkpt lon="15.5820861" lat="46.5329109"><ele>457</ele><time>2019-09-10T15:27:47.000Z</time></trkpt><trkpt lon="15.5820861" lat="46.5329109"><ele>457</ele><time>2019-09-10T15:27:48.000Z</time></trkpt><trkpt lon="15.5820304" lat="46.532837"><ele>458</ele><time>2019-09-10T15:27:49.000Z</time></trkpt><trkpt lon="15.5820304" lat="46.532837"><ele>458</ele><time>2019-09-10T15:27:50.000Z</time></trkpt><trkpt lon="15.5820091" lat="46.532799"><ele>459</ele><time>2019-09-10T15:27:51.000Z</time></trkpt><trkpt lon="15.5820091" lat="46.532799"><ele>459</ele><time>2019-09-10T15:27:52.000Z</time></trkpt><trkpt lon="15.5819656" lat="46.5327322"><ele>460</ele><time>2019-09-10T15:27:53.000Z</time></trkpt><trkpt lon="15.5819459" lat="46.5326983"><ele>461</ele><time>2019-09-10T15:27:54.000Z</time></trkpt><trkpt lon="15.5819262" lat="46.5326619"><ele>462</ele><time>2019-09-10T15:27:55.000Z</time></trkpt><trkpt lon="15.5819262" lat="46.5326619"><ele>462</ele><time>2019-09-10T15:27:56.000Z</time></trkpt><trkpt lon="15.5818798" lat="46.5325633"><ele>463</ele><time>2019-09-10T15:27:57.000Z</time></trkpt><trkpt lon="15.5818798" lat="46.5325633"><ele>463</ele><time>2019-09-10T15:27:58.000Z</time></trkpt><trkpt lon="15.5818437" lat="46.5324995"><ele>463</ele><time>2019-09-10T15:27:59.000Z</time></trkpt><trkpt lon="15.5818437" lat="46.5324995"><ele>463</ele><time>2019-09-10T15:28:00.000Z</time></trkpt><trkpt lon="15.5817997" lat="46.5324062"><ele>463</ele><time>2019-09-10T15:28:01.000Z</time></trkpt><trkpt lon="15.5817906" lat="46.5323658"><ele>464</ele><time>2019-09-10T15:28:02.000Z</time></trkpt><trkpt lon="15.5817906" lat="46.5323658"><ele>464</ele><time>2019-09-10T15:28:03.000Z</time></trkpt><trkpt lon="15.5817533" lat="46.5322971"><ele>466</ele><time>2019-09-10T15:28:04.000Z</time></trkpt><trkpt lon="15.5817533" lat="46.5322971"><ele>466</ele><time>2019-09-10T15:28:05.000Z</time></trkpt><trkpt lon="15.5817333" lat="46.5322537"><ele>467</ele><time>2019-09-10T15:28:06.000Z</time></trkpt><trkpt lon="15.5817179" lat="46.532224"><ele>467</ele><time>2019-09-10T15:28:07.000Z</time></trkpt><trkpt lon="15.5817179" lat="46.532224"><ele>467</ele><time>2019-09-10T15:28:08.000Z</time></trkpt><trkpt lon="15.5816929" lat="46.5321723"><ele>468</ele><time>2019-09-10T15:28:09.000Z</time></trkpt><trkpt lon="15.5816795" lat="46.5321444"><ele>468</ele><time>2019-09-10T15:28:10.000Z</time></trkpt><trkpt lon="15.5816623" lat="46.5321112"><ele>467</ele><time>2019-09-10T15:28:11.000Z</time></trkpt><trkpt lon="15.5816623" lat="46.5321112"><ele>467</ele><time>2019-09-10T15:28:12.000Z</time></trkpt><trkpt lon="15.5816341" lat="46.5320475"><ele>468</ele><time>2019-09-10T15:28:13.000Z</time></trkpt><trkpt lon="15.5816341" lat="46.5320475"><ele>468</ele><time>2019-09-10T15:28:14.000Z</time></trkpt><trkpt lon="15.5816165" lat="46.5319924"><ele>469</ele><time>2019-09-10T15:28:15.000Z</time></trkpt><trkpt lon="15.581609" lat="46.5319639"><ele>469</ele><time>2019-09-10T15:28:16.000Z</time></trkpt><trkpt lon="15.581609" lat="46.5319639"><ele>469</ele><time>2019-09-10T15:28:17.000Z</time></trkpt><trkpt lon="15.5815827" lat="46.5318691"><ele>470</ele><time>2019-09-10T15:28:18.000Z</time></trkpt><trkpt lon="15.5815622" lat="46.5318209"><ele>470</ele><time>2019-09-10T15:28:19.000Z</time></trkpt><trkpt lon="15.5815622" lat="46.5318209"><ele>470</ele><time>2019-09-10T15:28:20.000Z</time></trkpt><trkpt lon="15.5815297" lat="46.5317273"><ele>472</ele><time>2019-09-10T15:28:21.000Z</time></trkpt><trkpt lon="15.5815297" lat="46.5317273"><ele>472</ele><time>2019-09-10T15:28:22.000Z</time></trkpt><trkpt lon="15.5815035" lat="46.5316406"><ele>472</ele><time>2019-09-10T15:28:23.000Z</time></trkpt><trkpt lon="15.5814905" lat="46.531599"><ele>473</ele><time>2019-09-10T15:28:24.000Z</time></trkpt><trkpt lon="15.5814681" lat="46.5315246"><ele>473</ele><time>2019-09-10T15:28:25.000Z</time></trkpt><trkpt lon="15.5814537" lat="46.5314846"><ele>474</ele><time>2019-09-10T15:28:26.000Z</time></trkpt><trkpt lon="15.5814537" lat="46.5314846"><ele>474</ele><time>2019-09-10T15:28:27.000Z</time></trkpt><trkpt lon="15.5814258" lat="46.5314042"><ele>475</ele><time>2019-09-10T15:28:28.000Z</time></trkpt><trkpt lon="15.5814258" lat="46.5314042"><ele>475</ele><time>2019-09-10T15:28:29.000Z</time></trkpt><trkpt lon="15.5813968" lat="46.5313252"><ele>476</ele><time>2019-09-10T15:28:30.000Z</time></trkpt><trkpt lon="15.581383" lat="46.5312876"><ele>476</ele><time>2019-09-10T15:28:31.000Z</time></trkpt><trkpt lon="15.5813674" lat="46.531253"><ele>477</ele><time>2019-09-10T15:28:32.000Z</time></trkpt><trkpt lon="15.5813674" lat="46.531253"><ele>477</ele><time>2019-09-10T15:28:33.000Z</time></trkpt><trkpt lon="15.5813297" lat="46.5311892"><ele>478</ele><time>2019-09-10T15:28:34.000Z</time></trkpt><trkpt lon="15.5813097" lat="46.5311592"><ele>478</ele><time>2019-09-10T15:28:35.000Z</time></trkpt><trkpt lon="15.5812926" lat="46.531128"><ele>479</ele><time>2019-09-10T15:28:36.000Z</time></trkpt><trkpt lon="15.5812926" lat="46.531128"><ele>479</ele><time>2019-09-10T15:28:37.000Z</time></trkpt><trkpt lon="15.5812516" lat="46.5310636"><ele>479</ele><time>2019-09-10T15:28:38.000Z</time></trkpt><trkpt lon="15.5812516" lat="46.5310636"><ele>479</ele><time>2019-09-10T15:28:39.000Z</time></trkpt><trkpt lon="15.5812202" lat="46.5310191"><ele>480</ele><time>2019-09-10T15:28:40.000Z</time></trkpt><trkpt lon="15.5812202" lat="46.5310191"><ele>480</ele><time>2019-09-10T15:28:41.000Z</time></trkpt><trkpt lon="15.5811786" lat="46.5309601"><ele>481</ele><time>2019-09-10T15:28:42.000Z</time></trkpt><trkpt lon="15.5811549" lat="46.5309239"><ele>482</ele><time>2019-09-10T15:28:43.000Z</time></trkpt><trkpt lon="15.5811549" lat="46.5309239"><ele>482</ele><time>2019-09-10T15:28:44.000Z</time></trkpt><trkpt lon="15.5811087" lat="46.530855"><ele>483</ele><time>2019-09-10T15:28:45.000Z</time></trkpt><trkpt lon="15.5811087" lat="46.530855"><ele>483</ele><time>2019-09-10T15:28:46.000Z</time></trkpt><trkpt lon="15.5810688" lat="46.5307955"><ele>483</ele><time>2019-09-10T15:28:47.000Z</time></trkpt><trkpt lon="15.5810688" lat="46.5307955"><ele>483</ele><time>2019-09-10T15:28:48.000Z</time></trkpt><trkpt lon="15.581027" lat="46.5307275"><ele>484</ele><time>2019-09-10T15:28:49.000Z</time></trkpt><trkpt lon="15.581027" lat="46.5307275"><ele>484</ele><time>2019-09-10T15:28:50.000Z</time></trkpt><trkpt lon="15.5809886" lat="46.5306691"><ele>485</ele><time>2019-09-10T15:28:51.000Z</time></trkpt><trkpt lon="15.5809886" lat="46.5306691"><ele>485</ele><time>2019-09-10T15:28:52.000Z</time></trkpt><trkpt lon="15.5809426" lat="46.5305989"><ele>486</ele><time>2019-09-10T15:28:53.000Z</time></trkpt><trkpt lon="15.5809426" lat="46.5305989"><ele>486</ele><time>2019-09-10T15:28:54.000Z</time></trkpt><trkpt lon="15.5809003" lat="46.5305353"><ele>487</ele><time>2019-09-10T15:28:55.000Z</time></trkpt><trkpt lon="15.5809003" lat="46.5305353"><ele>487</ele><time>2019-09-10T15:28:56.000Z</time></trkpt><trkpt lon="15.5808609" lat="46.5304774"><ele>488</ele><time>2019-09-10T15:28:57.000Z</time></trkpt><trkpt lon="15.5808609" lat="46.5304774"><ele>488</ele><time>2019-09-10T15:28:58.000Z</time></trkpt><trkpt lon="15.5808054" lat="46.5304047"><ele>489</ele><time>2019-09-10T15:28:59.000Z</time></trkpt><trkpt lon="15.5807798" lat="46.5303766"><ele>490</ele><time>2019-09-10T15:29:00.000Z</time></trkpt><trkpt lon="15.5807514" lat="46.5303503"><ele>490</ele><time>2019-09-10T15:29:01.000Z</time></trkpt><trkpt lon="15.5807514" lat="46.5303503"><ele>490</ele><time>2019-09-10T15:29:02.000Z</time></trkpt><trkpt lon="15.5806936" lat="46.5303008"><ele>490</ele><time>2019-09-10T15:29:03.000Z</time></trkpt><trkpt lon="15.5806936" lat="46.5303008"><ele>490</ele><time>2019-09-10T15:29:04.000Z</time></trkpt><trkpt lon="15.5806223" lat="46.5302495"><ele>491</ele><time>2019-09-10T15:29:05.000Z</time></trkpt><trkpt lon="15.5805756" lat="46.5302255"><ele>491</ele><time>2019-09-10T15:29:06.000Z</time></trkpt><trkpt lon="15.5805756" lat="46.5302255"><ele>491</ele><time>2019-09-10T15:29:07.000Z</time></trkpt><trkpt lon="15.5804933" lat="46.5301902"><ele>492</ele><time>2019-09-10T15:29:08.000Z</time></trkpt><trkpt lon="15.5804933" lat="46.5301902"><ele>492</ele><time>2019-09-10T15:29:09.000Z</time></trkpt><trkpt lon="15.5804305" lat="46.5301698"><ele>493</ele><time>2019-09-10T15:29:10.000Z</time></trkpt><trkpt lon="15.5804305" lat="46.5301698"><ele>493</ele><time>2019-09-10T15:29:11.000Z</time></trkpt><trkpt lon="15.5803611" lat="46.5301486"><ele>494</ele><time>2019-09-10T15:29:12.000Z</time></trkpt><trkpt lon="15.5803611" lat="46.5301486"><ele>494</ele><time>2019-09-10T15:29:13.000Z</time></trkpt><trkpt lon="15.5803001" lat="46.5301287"><ele>494</ele><time>2019-09-10T15:29:14.000Z</time></trkpt><trkpt lon="15.5803001" lat="46.5301287"><ele>494</ele><time>2019-09-10T15:29:15.000Z</time></trkpt><trkpt lon="15.5802481" lat="46.5301091"><ele>494</ele><time>2019-09-10T15:29:16.000Z</time></trkpt><trkpt lon="15.5802481" lat="46.5301091"><ele>494</ele><time>2019-09-10T15:29:17.000Z</time></trkpt><trkpt lon="15.5801869" lat="46.5300933"><ele>495</ele><time>2019-09-10T15:29:18.000Z</time></trkpt><trkpt lon="15.5801869" lat="46.5300933"><ele>495</ele><time>2019-09-10T15:29:19.000Z</time></trkpt><trkpt lon="15.5801119" lat="46.5300717"><ele>494</ele><time>2019-09-10T15:29:20.000Z</time></trkpt><trkpt lon="15.5800728" lat="46.5300608"><ele>494</ele><time>2019-09-10T15:29:21.000Z</time></trkpt><trkpt lon="15.5800728" lat="46.5300608"><ele>494</ele><time>2019-09-10T15:29:22.000Z</time></trkpt><trkpt lon="15.5799968" lat="46.5300497"><ele>495</ele><time>2019-09-10T15:29:23.000Z</time></trkpt><trkpt lon="15.5799968" lat="46.5300497"><ele>495</ele><time>2019-09-10T15:29:24.000Z</time></trkpt><trkpt lon="15.579921" lat="46.5300453"><ele>495</ele><time>2019-09-10T15:29:25.000Z</time></trkpt><trkpt lon="15.579921" lat="46.5300453"><ele>495</ele><time>2019-09-10T15:29:26.000Z</time></trkpt><trkpt lon="15.5798427" lat="46.5300611"><ele>496</ele><time>2019-09-10T15:29:27.000Z</time></trkpt><trkpt lon="15.5797991" lat="46.5300757"><ele>497</ele><time>2019-09-10T15:29:28.000Z</time></trkpt><trkpt lon="15.5797583" lat="46.5300905"><ele>497</ele><time>2019-09-10T15:29:29.000Z</time></trkpt><trkpt lon="15.5797153" lat="46.5301018"><ele>497</ele><time>2019-09-10T15:29:30.000Z</time></trkpt><trkpt lon="15.5797153" lat="46.5301018"><ele>497</ele><time>2019-09-10T15:29:31.000Z</time></trkpt><trkpt lon="15.5796468" lat="46.5301261"><ele>497</ele><time>2019-09-10T15:29:32.000Z</time></trkpt><trkpt lon="15.5796468" lat="46.5301261"><ele>497</ele><time>2019-09-10T15:29:33.000Z</time></trkpt><trkpt lon="15.5795834" lat="46.5301553"><ele>498</ele><time>2019-09-10T15:29:34.000Z</time></trkpt><trkpt lon="15.5795834" lat="46.5301553"><ele>498</ele><time>2019-09-10T15:29:35.000Z</time></trkpt><trkpt lon="15.5795304" lat="46.530184"><ele>499</ele><time>2019-09-10T15:29:36.000Z</time></trkpt><trkpt lon="15.5795304" lat="46.530184"><ele>499</ele><time>2019-09-10T15:29:37.000Z</time></trkpt><trkpt lon="15.5794751" lat="46.5302096"><ele>500</ele><time>2019-09-10T15:29:38.000Z</time></trkpt><trkpt lon="15.5794417" lat="46.5302265"><ele>500</ele><time>2019-09-10T15:29:39.000Z</time></trkpt><trkpt lon="15.5794417" lat="46.5302265"><ele>500</ele><time>2019-09-10T15:29:40.000Z</time></trkpt><trkpt lon="15.5793731" lat="46.5302595"><ele>501</ele><time>2019-09-10T15:29:41.000Z</time></trkpt><trkpt lon="15.5793731" lat="46.5302595"><ele>501</ele><time>2019-09-10T15:29:42.000Z</time></trkpt><trkpt lon="15.5793036" lat="46.5303024"><ele>502</ele><time>2019-09-10T15:29:43.000Z</time></trkpt><trkpt lon="15.5792735" lat="46.5303253"><ele>503</ele><time>2019-09-10T15:29:44.000Z</time></trkpt><trkpt lon="15.5792735" lat="46.5303253"><ele>503</ele><time>2019-09-10T15:29:45.000Z</time></trkpt><trkpt lon="15.5792223" lat="46.5303668"><ele>503</ele><time>2019-09-10T15:29:46.000Z</time></trkpt><trkpt lon="15.5792223" lat="46.5303668"><ele>503</ele><time>2019-09-10T15:29:47.000Z</time></trkpt><trkpt lon="15.5791846" lat="46.5304171"><ele>504</ele><time>2019-09-10T15:29:48.000Z</time></trkpt><trkpt lon="15.5791846" lat="46.5304171"><ele>504</ele><time>2019-09-10T15:29:49.000Z</time></trkpt><trkpt lon="15.5791478" lat="46.5304718"><ele>505</ele><time>2019-09-10T15:29:50.000Z</time></trkpt><trkpt lon="15.5791478" lat="46.5304718"><ele>505</ele><time>2019-09-10T15:29:51.000Z</time></trkpt><trkpt lon="15.5791151" lat="46.5305316"><ele>505</ele><time>2019-09-10T15:29:52.000Z</time></trkpt><trkpt lon="15.5791054" lat="46.5305609"><ele>505</ele><time>2019-09-10T15:29:53.000Z</time></trkpt><trkpt lon="15.5790977" lat="46.5306"><ele>506</ele><time>2019-09-10T15:29:54.000Z</time></trkpt><trkpt lon="15.5790929" lat="46.5306314"><ele>506</ele><time>2019-09-10T15:29:55.000Z</time></trkpt><trkpt lon="15.5790929" lat="46.5306314"><ele>506</ele><time>2019-09-10T15:29:56.000Z</time></trkpt><trkpt lon="15.5790843" lat="46.5306974"><ele>507</ele><time>2019-09-10T15:29:57.000Z</time></trkpt><trkpt lon="15.5790843" lat="46.5306974"><ele>507</ele><time>2019-09-10T15:29:58.000Z</time></trkpt><trkpt lon="15.5790778" lat="46.5307584"><ele>507</ele><time>2019-09-10T15:29:59.000Z</time></trkpt><trkpt lon="15.5790761" lat="46.5307867"><ele>507</ele><time>2019-09-10T15:30:00.000Z</time></trkpt><trkpt lon="15.5790761" lat="46.5307867"><ele>507</ele><time>2019-09-10T15:30:01.000Z</time></trkpt><trkpt lon="15.5790837" lat="46.5308628"><ele>508</ele><time>2019-09-10T15:30:02.000Z</time></trkpt><trkpt lon="15.5790837" lat="46.5308628"><ele>508</ele><time>2019-09-10T15:30:03.000Z</time></trkpt><trkpt lon="15.5790878" lat="46.5309342"><ele>508</ele><time>2019-09-10T15:30:04.000Z</time></trkpt><trkpt lon="15.5790878" lat="46.5309342"><ele>508</ele><time>2019-09-10T15:30:05.000Z</time></trkpt><trkpt lon="15.5790893" lat="46.5309929"><ele>508</ele><time>2019-09-10T15:30:06.000Z</time></trkpt><trkpt lon="15.5790911" lat="46.5310264"><ele>508</ele><time>2019-09-10T15:30:07.000Z</time></trkpt><trkpt lon="15.5790911" lat="46.5310264"><ele>508</ele><time>2019-09-10T15:30:08.000Z</time></trkpt><trkpt lon="15.5790946" lat="46.5310938"><ele>508</ele><time>2019-09-10T15:30:09.000Z</time></trkpt><trkpt lon="15.5790946" lat="46.5310938"><ele>508</ele><time>2019-09-10T15:30:10.000Z</time></trkpt><trkpt lon="15.5791044" lat="46.5311601"><ele>509</ele><time>2019-09-10T15:30:11.000Z</time></trkpt><trkpt lon="15.5791051" lat="46.5312177"><ele>509</ele><time>2019-09-10T15:30:12.000Z</time></trkpt><trkpt lon="15.5791051" lat="46.5312177"><ele>509</ele><time>2019-09-10T15:30:13.000Z</time></trkpt><trkpt lon="15.5791004" lat="46.5313122"><ele>509</ele><time>2019-09-10T15:30:14.000Z</time></trkpt><trkpt lon="15.5790723" lat="46.5314104"><ele>510</ele><time>2019-09-10T15:30:15.000Z</time></trkpt><trkpt lon="15.5790353" lat="46.5314604"><ele>510</ele><time>2019-09-10T15:30:16.000Z</time></trkpt><trkpt lon="15.5789889" lat="46.531504"><ele>510</ele><time>2019-09-10T15:30:17.000Z</time></trkpt><trkpt lon="15.5789352" lat="46.5315438"><ele>510</ele><time>2019-09-10T15:30:18.000Z</time></trkpt><trkpt lon="15.5789352" lat="46.5315438"><ele>510</ele><time>2019-09-10T15:30:19.000Z</time></trkpt><trkpt lon="15.5788096" lat="46.5316096"><ele>510</ele><time>2019-09-10T15:30:20.000Z</time></trkpt><trkpt lon="15.5788096" lat="46.5316096"><ele>510</ele><time>2019-09-10T15:30:21.000Z</time></trkpt><trkpt lon="15.5786731" lat="46.5316639"><ele>511</ele><time>2019-09-10T15:30:22.000Z</time></trkpt><trkpt lon="15.5786731" lat="46.5316639"><ele>511</ele><time>2019-09-10T15:30:23.000Z</time></trkpt><trkpt lon="15.5785299" lat="46.531702"><ele>511</ele><time>2019-09-10T15:30:24.000Z</time></trkpt><trkpt lon="15.5785299" lat="46.531702"><ele>511</ele><time>2019-09-10T15:30:25.000Z</time></trkpt><trkpt lon="15.5783878" lat="46.5317342"><ele>512</ele><time>2019-09-10T15:30:26.000Z</time></trkpt><trkpt lon="15.5783878" lat="46.5317342"><ele>512</ele><time>2019-09-10T15:30:27.000Z</time></trkpt><trkpt lon="15.5782499" lat="46.5317587"><ele>512</ele><time>2019-09-10T15:30:28.000Z</time></trkpt><trkpt lon="15.5781836" lat="46.5317633"><ele>513</ele><time>2019-09-10T15:30:29.000Z</time></trkpt><trkpt lon="15.5781836" lat="46.5317633"><ele>513</ele><time>2019-09-10T15:30:30.000Z</time></trkpt><trkpt lon="15.5780544" lat="46.5317548"><ele>513</ele><time>2019-09-10T15:30:31.000Z</time></trkpt><trkpt lon="15.5780544" lat="46.5317548"><ele>513</ele><time>2019-09-10T15:30:32.000Z</time></trkpt><trkpt lon="15.5779677" lat="46.5316944"><ele>514</ele><time>2019-09-10T15:30:33.000Z</time></trkpt><trkpt lon="15.5779341" lat="46.531656"><ele>514</ele><time>2019-09-10T15:30:34.000Z</time></trkpt><trkpt lon="15.5779316" lat="46.5316103"><ele>514</ele><time>2019-09-10T15:30:35.000Z</time></trkpt><trkpt lon="15.5779313" lat="46.5315623"><ele>515</ele><time>2019-09-10T15:30:36.000Z</time></trkpt><trkpt lon="15.5779313" lat="46.5315623"><ele>515</ele><time>2019-09-10T15:30:37.000Z</time></trkpt><trkpt lon="15.5779316" lat="46.5314695"><ele>516</ele><time>2019-09-10T15:30:38.000Z</time></trkpt><trkpt lon="15.5779316" lat="46.5314695"><ele>516</ele><time>2019-09-10T15:30:39.000Z</time></trkpt><trkpt lon="15.5779306" lat="46.5313844"><ele>517</ele><time>2019-09-10T15:30:40.000Z</time></trkpt><trkpt lon="15.5779276" lat="46.5313408"><ele>518</ele><time>2019-09-10T15:30:41.000Z</time></trkpt><trkpt lon="15.5779188" lat="46.5313042"><ele>518</ele><time>2019-09-10T15:30:42.000Z</time></trkpt><trkpt lon="15.5779188" lat="46.5313042"><ele>518</ele><time>2019-09-10T15:30:43.000Z</time></trkpt><trkpt lon="15.5779139" lat="46.5312616"><ele>519</ele><time>2019-09-10T15:30:44.000Z</time></trkpt><trkpt lon="15.5779139" lat="46.5312616"><ele>519</ele><time>2019-09-10T15:30:45.000Z</time></trkpt><trkpt lon="15.5779597" lat="46.5311776"><ele>519</ele><time>2019-09-10T15:30:46.000Z</time></trkpt><trkpt lon="15.5779864" lat="46.5311469"><ele>520</ele><time>2019-09-10T15:30:47.000Z</time></trkpt><trkpt lon="15.5779864" lat="46.5311469"><ele>520</ele><time>2019-09-10T15:30:48.000Z</time></trkpt><trkpt lon="15.5780438" lat="46.5310836"><ele>521</ele><time>2019-09-10T15:30:49.000Z</time></trkpt><trkpt lon="15.5780438" lat="46.5310836"><ele>521</ele><time>2019-09-10T15:30:50.000Z</time></trkpt><trkpt lon="15.5780966" lat="46.5310146"><ele>522</ele><time>2019-09-10T15:30:51.000Z</time></trkpt><trkpt lon="15.5781222" lat="46.5309767"><ele>523</ele><time>2019-09-10T15:30:52.000Z</time></trkpt><trkpt lon="15.5781222" lat="46.5309767"><ele>523</ele><time>2019-09-10T15:30:53.000Z</time></trkpt><trkpt lon="15.5781639" lat="46.5308986"><ele>524</ele><time>2019-09-10T15:30:54.000Z</time></trkpt><trkpt lon="15.5781639" lat="46.5308986"><ele>524</ele><time>2019-09-10T15:30:55.000Z</time></trkpt><trkpt lon="15.5781763" lat="46.5308132"><ele>524</ele><time>2019-09-10T15:30:56.000Z</time></trkpt><trkpt lon="15.5781763" lat="46.5308132"><ele>524</ele><time>2019-09-10T15:30:57.000Z</time></trkpt><trkpt lon="15.5781871" lat="46.5307407"><ele>524</ele><time>2019-09-10T15:30:58.000Z</time></trkpt><trkpt lon="15.5781871" lat="46.5307407"><ele>524</ele><time>2019-09-10T15:30:59.000Z</time></trkpt><trkpt lon="15.5781962" lat="46.5306966"><ele>526</ele><time>2019-09-10T15:31:00.000Z</time></trkpt><trkpt lon="15.5781962" lat="46.5306966"><ele>526</ele><time>2019-09-10T15:31:01.000Z</time></trkpt><trkpt lon="15.578204" lat="46.5306477"><ele>527</ele><time>2019-09-10T15:31:02.000Z</time></trkpt><trkpt lon="15.5782084" lat="46.5306059"><ele>528</ele><time>2019-09-10T15:31:03.000Z</time></trkpt><trkpt lon="15.5782084" lat="46.5306059"><ele>528</ele><time>2019-09-10T15:31:04.000Z</time></trkpt><trkpt lon="15.5782172" lat="46.5305017"><ele>529</ele><time>2019-09-10T15:31:05.000Z</time></trkpt><trkpt lon="15.5782297" lat="46.5304592"><ele>529</ele><time>2019-09-10T15:31:06.000Z</time></trkpt><trkpt lon="15.5782297" lat="46.5304592"><ele>529</ele><time>2019-09-10T15:31:07.000Z</time></trkpt><trkpt lon="15.5782605" lat="46.5303749"><ele>530</ele><time>2019-09-10T15:31:08.000Z</time></trkpt><trkpt lon="15.5782842" lat="46.5303334"><ele>531</ele><time>2019-09-10T15:31:09.000Z</time></trkpt><trkpt lon="15.5783062" lat="46.5302917"><ele>531</ele><time>2019-09-10T15:31:10.000Z</time></trkpt><trkpt lon="15.5783062" lat="46.5302917"><ele>531</ele><time>2019-09-10T15:31:11.000Z</time></trkpt><trkpt lon="15.5783376" lat="46.5302338"><ele>532</ele><time>2019-09-10T15:31:12.000Z</time></trkpt><trkpt lon="15.5783376" lat="46.5302338"><ele>532</ele><time>2019-09-10T15:31:13.000Z</time></trkpt><trkpt lon="15.5783629" lat="46.530193"><ele>533</ele><time>2019-09-10T15:31:14.000Z</time></trkpt><trkpt lon="15.5783629" lat="46.530193"><ele>533</ele><time>2019-09-10T15:31:15.000Z</time></trkpt><trkpt lon="15.5783862" lat="46.5301442"><ele>534</ele><time>2019-09-10T15:31:16.000Z</time></trkpt><trkpt lon="15.5783862" lat="46.5301442"><ele>534</ele><time>2019-09-10T15:31:17.000Z</time></trkpt><trkpt lon="15.5783963" lat="46.5300872"><ele>535</ele><time>2019-09-10T15:31:18.000Z</time></trkpt><trkpt lon="15.5783966" lat="46.530059"><ele>535</ele><time>2019-09-10T15:31:19.000Z</time></trkpt><trkpt lon="15.5783966" lat="46.530059"><ele>535</ele><time>2019-09-10T15:31:20.000Z</time></trkpt><trkpt lon="15.5783895" lat="46.5300026"><ele>536</ele><time>2019-09-10T15:31:21.000Z</time></trkpt><trkpt lon="15.5783756" lat="46.5299708"><ele>537</ele><time>2019-09-10T15:31:22.000Z</time></trkpt><trkpt lon="15.5783756" lat="46.5299708"><ele>537</ele><time>2019-09-10T15:31:23.000Z</time></trkpt><trkpt lon="15.5783361" lat="46.5299034"><ele>537</ele><time>2019-09-10T15:31:24.000Z</time></trkpt><trkpt lon="15.5783147" lat="46.5298651"><ele>538</ele><time>2019-09-10T15:31:25.000Z</time></trkpt><trkpt lon="15.5782972" lat="46.5298316"><ele>538</ele><time>2019-09-10T15:31:26.000Z</time></trkpt><trkpt lon="15.5782972" lat="46.5298316"><ele>538</ele><time>2019-09-10T15:31:27.000Z</time></trkpt><trkpt lon="15.578267" lat="46.5297753"><ele>539</ele><time>2019-09-10T15:31:28.000Z</time></trkpt><trkpt lon="15.5782518" lat="46.5297472"><ele>539</ele><time>2019-09-10T15:31:29.000Z</time></trkpt><trkpt lon="15.5782518" lat="46.5297472"><ele>539</ele><time>2019-09-10T15:31:30.000Z</time></trkpt><trkpt lon="15.5782322" lat="46.5296947"><ele>541</ele><time>2019-09-10T15:31:31.000Z</time></trkpt><trkpt lon="15.5782322" lat="46.5296947"><ele>541</ele><time>2019-09-10T15:31:32.000Z</time></trkpt><trkpt lon="15.5782633" lat="46.5295827"><ele>542</ele><time>2019-09-10T15:31:33.000Z</time></trkpt><trkpt lon="15.5782962" lat="46.5295458"><ele>542</ele><time>2019-09-10T15:31:34.000Z</time></trkpt><trkpt lon="15.5782962" lat="46.5295458"><ele>542</ele><time>2019-09-10T15:31:35.000Z</time></trkpt><trkpt lon="15.578341" lat="46.5295047"><ele>541</ele><time>2019-09-10T15:31:36.000Z</time></trkpt><trkpt lon="15.578341" lat="46.5295047"><ele>541</ele><time>2019-09-10T15:31:37.000Z</time></trkpt><trkpt lon="15.5784322" lat="46.5294401"><ele>542</ele><time>2019-09-10T15:31:38.000Z</time></trkpt><trkpt lon="15.5784322" lat="46.5294401"><ele>542</ele><time>2019-09-10T15:31:39.000Z</time></trkpt><trkpt lon="15.5784468" lat="46.5293593"><ele>544</ele><time>2019-09-10T15:31:40.000Z</time></trkpt><trkpt lon="15.5784468" lat="46.5293593"><ele>544</ele><time>2019-09-10T15:31:41.000Z</time></trkpt><trkpt lon="15.5783887" lat="46.529312"><ele>544</ele><time>2019-09-10T15:31:42.000Z</time></trkpt><trkpt lon="15.5783887" lat="46.529312"><ele>544</ele><time>2019-09-10T15:31:43.000Z</time></trkpt><trkpt lon="15.5782751" lat="46.5292982"><ele>546</ele><time>2019-09-10T15:31:44.000Z</time></trkpt><trkpt lon="15.5782751" lat="46.5292982"><ele>546</ele><time>2019-09-10T15:31:45.000Z</time></trkpt><trkpt lon="15.5781529" lat="46.529328"><ele>546</ele><time>2019-09-10T15:31:46.000Z</time></trkpt><trkpt lon="15.5781529" lat="46.529328"><ele>546</ele><time>2019-09-10T15:31:47.000Z</time></trkpt><trkpt lon="15.5780488" lat="46.5293669"><ele>547</ele><time>2019-09-10T15:31:48.000Z</time></trkpt><trkpt lon="15.5780095" lat="46.5293946"><ele>548</ele><time>2019-09-10T15:31:49.000Z</time></trkpt><trkpt lon="15.5780095" lat="46.5293946"><ele>548</ele><time>2019-09-10T15:31:50.000Z</time></trkpt><trkpt lon="15.577969" lat="46.5294212"><ele>548</ele><time>2019-09-10T15:31:51.000Z</time></trkpt><trkpt lon="15.577969" lat="46.5294212"><ele>548</ele><time>2019-09-10T15:31:52.000Z</time></trkpt><trkpt lon="15.5779289" lat="46.5294447"><ele>549</ele><time>2019-09-10T15:31:53.000Z</time></trkpt><trkpt lon="15.5779289" lat="46.5294447"><ele>549</ele><time>2019-09-10T15:31:54.000Z</time></trkpt><trkpt lon="15.5778499" lat="46.5294717"><ele>549</ele><time>2019-09-10T15:31:55.000Z</time></trkpt><trkpt lon="15.5778077" lat="46.5294796"><ele>549</ele><time>2019-09-10T15:31:56.000Z</time></trkpt><trkpt lon="15.5778077" lat="46.5294796"><ele>549</ele><time>2019-09-10T15:31:57.000Z</time></trkpt><trkpt lon="15.5777174" lat="46.5294691"><ele>551</ele><time>2019-09-10T15:31:58.000Z</time></trkpt><trkpt lon="15.5777174" lat="46.5294691"><ele>551</ele><time>2019-09-10T15:31:59.000Z</time></trkpt><trkpt lon="15.577547" lat="46.5294237"><ele>551</ele><time>2019-09-10T15:32:00.000Z</time></trkpt><trkpt lon="15.577547" lat="46.5294237"><ele>551</ele><time>2019-09-10T15:32:01.000Z</time></trkpt><trkpt lon="15.5774689" lat="46.5293958"><ele>552</ele><time>2019-09-10T15:32:02.000Z</time></trkpt><trkpt lon="15.5774689" lat="46.5293958"><ele>552</ele><time>2019-09-10T15:32:03.000Z</time></trkpt><trkpt lon="15.5773471" lat="46.5293545"><ele>553</ele><time>2019-09-10T15:32:04.000Z</time></trkpt><trkpt lon="15.5773471" lat="46.5293545"><ele>553</ele><time>2019-09-10T15:32:05.000Z</time></trkpt><trkpt lon="15.5772818" lat="46.529335"><ele>554</ele><time>2019-09-10T15:32:06.000Z</time></trkpt><trkpt lon="15.5772359" lat="46.5293253"><ele>555</ele><time>2019-09-10T15:32:07.000Z</time></trkpt><trkpt lon="15.5772359" lat="46.5293253"><ele>555</ele><time>2019-09-10T15:32:08.000Z</time></trkpt><trkpt lon="15.5771503" lat="46.529312"><ele>556</ele><time>2019-09-10T15:32:09.000Z</time></trkpt><trkpt lon="15.5771098" lat="46.5293078"><ele>556</ele><time>2019-09-10T15:32:10.000Z</time></trkpt><trkpt lon="15.5771098" lat="46.5293078"><ele>556</ele><time>2019-09-10T15:32:11.000Z</time></trkpt><trkpt lon="15.5770241" lat="46.5293004"><ele>557</ele><time>2019-09-10T15:32:12.000Z</time></trkpt><trkpt lon="15.5770241" lat="46.5293004"><ele>557</ele><time>2019-09-10T15:32:13.000Z</time></trkpt><trkpt lon="15.5768676" lat="46.5292995"><ele>556</ele><time>2019-09-10T15:32:14.000Z</time></trkpt><trkpt lon="15.5768676" lat="46.5292995"><ele>556</ele><time>2019-09-10T15:32:15.000Z</time></trkpt><trkpt lon="15.5768074" lat="46.5293029"><ele>557</ele><time>2019-09-10T15:32:16.000Z</time></trkpt><trkpt lon="15.5768074" lat="46.5293029"><ele>557</ele><time>2019-09-10T15:32:17.000Z</time></trkpt><trkpt lon="15.5767102" lat="46.5293064"><ele>558</ele><time>2019-09-10T15:32:18.000Z</time></trkpt><trkpt lon="15.5766594" lat="46.5293047"><ele>558</ele><time>2019-09-10T15:32:19.000Z</time></trkpt><trkpt lon="15.5766594" lat="46.5293047"><ele>558</ele><time>2019-09-10T15:32:20.000Z</time></trkpt><trkpt lon="15.576516" lat="46.5293101"><ele>559</ele><time>2019-09-10T15:32:21.000Z</time></trkpt><trkpt lon="15.576516" lat="46.5293101"><ele>559</ele><time>2019-09-10T15:32:22.000Z</time></trkpt><trkpt lon="15.5764039" lat="46.5293142"><ele>560</ele><time>2019-09-10T15:32:23.000Z</time></trkpt><trkpt lon="15.5764039" lat="46.5293142"><ele>560</ele><time>2019-09-10T15:32:24.000Z</time></trkpt><trkpt lon="15.5763355" lat="46.5293143"><ele>561</ele><time>2019-09-10T15:32:25.000Z</time></trkpt><trkpt lon="15.5763355" lat="46.5293143"><ele>561</ele><time>2019-09-10T15:32:26.000Z</time></trkpt><trkpt lon="15.5762438" lat="46.5293137"><ele>562</ele><time>2019-09-10T15:32:27.000Z</time></trkpt><trkpt lon="15.576201" lat="46.5293144"><ele>562</ele><time>2019-09-10T15:32:28.000Z</time></trkpt><trkpt lon="15.576201" lat="46.5293144"><ele>562</ele><time>2019-09-10T15:32:29.000Z</time></trkpt><trkpt lon="15.5761011" lat="46.5293185"><ele>563</ele><time>2019-09-10T15:32:30.000Z</time></trkpt><trkpt lon="15.5760508" lat="46.5293226"><ele>564</ele><time>2019-09-10T15:32:31.000Z</time></trkpt><trkpt lon="15.5760508" lat="46.5293226"><ele>564</ele><time>2019-09-10T15:32:32.000Z</time></trkpt><trkpt lon="15.5759657" lat="46.5293337"><ele>564</ele><time>2019-09-10T15:32:33.000Z</time></trkpt><trkpt lon="15.5758552" lat="46.5293612"><ele>564</ele><time>2019-09-10T15:32:34.000Z</time></trkpt><trkpt lon="15.5758068" lat="46.5293829"><ele>564</ele><time>2019-09-10T15:32:35.000Z</time></trkpt><trkpt lon="15.5758068" lat="46.5293829"><ele>564</ele><time>2019-09-10T15:32:36.000Z</time></trkpt><trkpt lon="15.5757257" lat="46.5294335"><ele>565</ele><time>2019-09-10T15:32:37.000Z</time></trkpt><trkpt lon="15.5757257" lat="46.5294335"><ele>565</ele><time>2019-09-10T15:32:38.000Z</time></trkpt><trkpt lon="15.575656" lat="46.5294888"><ele>566</ele><time>2019-09-10T15:32:39.000Z</time></trkpt><trkpt lon="15.5756227" lat="46.5295172"><ele>566</ele><time>2019-09-10T15:32:40.000Z</time></trkpt><trkpt lon="15.5755858" lat="46.529543"><ele>566</ele><time>2019-09-10T15:32:41.000Z</time></trkpt><trkpt lon="15.5755858" lat="46.529543"><ele>566</ele><time>2019-09-10T15:32:42.000Z</time></trkpt><trkpt lon="15.5755366" lat="46.5295734"><ele>567</ele><time>2019-09-10T15:32:43.000Z</time></trkpt><trkpt lon="15.5755055" lat="46.5295907"><ele>567</ele><time>2019-09-10T15:32:44.000Z</time></trkpt><trkpt lon="15.5755055" lat="46.5295907"><ele>567</ele><time>2019-09-10T15:32:45.000Z</time></trkpt><trkpt lon="15.5753713" lat="46.5296508"><ele>567</ele><time>2019-09-10T15:32:46.000Z</time></trkpt><trkpt lon="15.5753186" lat="46.5296579"><ele>568</ele><time>2019-09-10T15:32:47.000Z</time></trkpt><trkpt lon="15.5753186" lat="46.5296579"><ele>568</ele><time>2019-09-10T15:32:48.000Z</time></trkpt><trkpt lon="15.5752131" lat="46.5296394"><ele>569</ele><time>2019-09-10T15:32:49.000Z</time></trkpt><trkpt lon="15.5751645" lat="46.5296222"><ele>569</ele><time>2019-09-10T15:32:50.000Z</time></trkpt><trkpt lon="15.5751645" lat="46.5296222"><ele>569</ele><time>2019-09-10T15:32:51.000Z</time></trkpt><trkpt lon="15.5750757" lat="46.5295818"><ele>570</ele><time>2019-09-10T15:32:52.000Z</time></trkpt><trkpt lon="15.5750757" lat="46.5295818"><ele>570</ele><time>2019-09-10T15:32:53.000Z</time></trkpt><trkpt lon="15.575025" lat="46.5295552"><ele>570</ele><time>2019-09-10T15:32:54.000Z</time></trkpt><trkpt lon="15.5749669" lat="46.5295133"><ele>570</ele><time>2019-09-10T15:32:55.000Z</time></trkpt><trkpt lon="15.5749418" lat="46.5294815"><ele>571</ele><time>2019-09-10T15:32:56.000Z</time></trkpt><trkpt lon="15.5749418" lat="46.5294815"><ele>571</ele><time>2019-09-10T15:32:57.000Z</time></trkpt><trkpt lon="15.5749122" lat="46.5294288"><ele>571</ele><time>2019-09-10T15:32:58.000Z</time></trkpt><trkpt lon="15.5749023" lat="46.5294025"><ele>572</ele><time>2019-09-10T15:32:59.000Z</time></trkpt><trkpt lon="15.5749023" lat="46.5294025"><ele>572</ele><time>2019-09-10T15:33:00.000Z</time></trkpt><trkpt lon="15.5748819" lat="46.5293386"><ele>572</ele><time>2019-09-10T15:33:01.000Z</time></trkpt><trkpt lon="15.5748819" lat="46.5293386"><ele>572</ele><time>2019-09-10T15:33:02.000Z</time></trkpt><trkpt lon="15.5748612" lat="46.5292418"><ele>573</ele><time>2019-09-10T15:33:03.000Z</time></trkpt><trkpt lon="15.5748569" lat="46.5292022"><ele>573</ele><time>2019-09-10T15:33:04.000Z</time></trkpt><trkpt lon="15.5748502" lat="46.5291618"><ele>574</ele><time>2019-09-10T15:33:05.000Z</time></trkpt><trkpt lon="15.5748458" lat="46.5291205"><ele>574</ele><time>2019-09-10T15:33:06.000Z</time></trkpt><trkpt lon="15.5748385" lat="46.5290796"><ele>574</ele><time>2019-09-10T15:33:07.000Z</time></trkpt><trkpt lon="15.5748385" lat="46.5290796"><ele>574</ele><time>2019-09-10T15:33:08.000Z</time></trkpt><trkpt lon="15.5748254" lat="46.529002"><ele>575</ele><time>2019-09-10T15:33:09.000Z</time></trkpt><trkpt lon="15.5748198" lat="46.5289623"><ele>575</ele><time>2019-09-10T15:33:10.000Z</time></trkpt><trkpt lon="15.5748198" lat="46.5289623"><ele>575</ele><time>2019-09-10T15:33:11.000Z</time></trkpt><trkpt lon="15.574807" lat="46.5288869"><ele>575</ele><time>2019-09-10T15:33:12.000Z</time></trkpt><trkpt lon="15.574807" lat="46.5288869"><ele>575</ele><time>2019-09-10T15:33:13.000Z</time></trkpt><trkpt lon="15.5747974" lat="46.5288076"><ele>576</ele><time>2019-09-10T15:33:14.000Z</time></trkpt><trkpt lon="15.5747974" lat="46.5288076"><ele>576</ele><time>2019-09-10T15:33:15.000Z</time></trkpt><trkpt lon="15.5747658" lat="46.5287395"><ele>577</ele><time>2019-09-10T15:33:16.000Z</time></trkpt><trkpt lon="15.5747531" lat="46.5287031"><ele>577</ele><time>2019-09-10T15:33:17.000Z</time></trkpt><trkpt lon="15.5747531" lat="46.5287031"><ele>577</ele><time>2019-09-10T15:33:18.000Z</time></trkpt><trkpt lon="15.5747273" lat="46.5286354"><ele>577</ele><time>2019-09-10T15:33:19.000Z</time></trkpt><trkpt lon="15.5747273" lat="46.5286354"><ele>577</ele><time>2019-09-10T15:33:20.000Z</time></trkpt><trkpt lon="15.5747108" lat="46.5286078"><ele>577</ele><time>2019-09-10T15:33:21.000Z</time></trkpt><trkpt lon="15.5746484" lat="46.5285498"><ele>578</ele><time>2019-09-10T15:33:22.000Z</time></trkpt><trkpt lon="15.5746484" lat="46.5285498"><ele>578</ele><time>2019-09-10T15:33:23.000Z</time></trkpt><trkpt lon="15.5745418" lat="46.5285147"><ele>579</ele><time>2019-09-10T15:33:24.000Z</time></trkpt><trkpt lon="15.5744775" lat="46.5285005"><ele>579</ele><time>2019-09-10T15:33:25.000Z</time></trkpt><trkpt lon="15.5744775" lat="46.5285005"><ele>579</ele><time>2019-09-10T15:33:26.000Z</time></trkpt><trkpt lon="15.5743323" lat="46.5284876"><ele>580</ele><time>2019-09-10T15:33:27.000Z</time></trkpt><trkpt lon="15.5742574" lat="46.5284806"><ele>580</ele><time>2019-09-10T15:33:28.000Z</time></trkpt><trkpt lon="15.5742574" lat="46.5284806"><ele>580</ele><time>2019-09-10T15:33:29.000Z</time></trkpt><trkpt lon="15.5741254" lat="46.528467"><ele>580</ele><time>2019-09-10T15:33:30.000Z</time></trkpt><trkpt lon="15.5741254" lat="46.528467"><ele>580</ele><time>2019-09-10T15:33:31.000Z</time></trkpt><trkpt lon="15.5740058" lat="46.5284818"><ele>580</ele><time>2019-09-10T15:33:32.000Z</time></trkpt><trkpt lon="15.5740058" lat="46.5284818"><ele>580</ele><time>2019-09-10T15:33:33.000Z</time></trkpt><trkpt lon="15.5739056" lat="46.5285161"><ele>581</ele><time>2019-09-10T15:33:34.000Z</time></trkpt><trkpt lon="15.5739056" lat="46.5285161"><ele>581</ele><time>2019-09-10T15:33:35.000Z</time></trkpt><trkpt lon="15.573821" lat="46.5285695"><ele>581</ele><time>2019-09-10T15:33:36.000Z</time></trkpt><trkpt lon="15.573821" lat="46.5285695"><ele>581</ele><time>2019-09-10T15:33:37.000Z</time></trkpt><trkpt lon="15.5737456" lat="46.5286239"><ele>581</ele><time>2019-09-10T15:33:38.000Z</time></trkpt><trkpt lon="15.5737456" lat="46.5286239"><ele>581</ele><time>2019-09-10T15:33:39.000Z</time></trkpt><trkpt lon="15.5736611" lat="46.5286773"><ele>581</ele><time>2019-09-10T15:33:40.000Z</time></trkpt><trkpt lon="15.5736611" lat="46.5286773"><ele>581</ele><time>2019-09-10T15:33:41.000Z</time></trkpt><trkpt lon="15.5735737" lat="46.5287307"><ele>581</ele><time>2019-09-10T15:33:42.000Z</time></trkpt><trkpt lon="15.5735235" lat="46.5287483"><ele>581</ele><time>2019-09-10T15:33:43.000Z</time></trkpt><trkpt lon="15.5734752" lat="46.5287685"><ele>581</ele><time>2019-09-10T15:33:44.000Z</time></trkpt><trkpt lon="15.5734089" lat="46.5287769"><ele>582</ele><time>2019-09-10T15:33:45.000Z</time></trkpt><trkpt lon="15.5734089" lat="46.5287769"><ele>582</ele><time>2019-09-10T15:33:46.000Z</time></trkpt><trkpt lon="15.5733498" lat="46.5287913"><ele>582</ele><time>2019-09-10T15:33:47.000Z</time></trkpt><trkpt lon="15.5733" lat="46.5288023"><ele>582</ele><time>2019-09-10T15:33:48.000Z</time></trkpt><trkpt lon="15.5733" lat="46.5288023"><ele>582</ele><time>2019-09-10T15:33:49.000Z</time></trkpt><trkpt lon="15.5731392" lat="46.5288241"><ele>583</ele><time>2019-09-10T15:33:50.000Z</time></trkpt><trkpt lon="15.5730784" lat="46.528834"><ele>583</ele><time>2019-09-10T15:33:51.000Z</time></trkpt><trkpt lon="15.5730784" lat="46.528834"><ele>583</ele><time>2019-09-10T15:33:52.000Z</time></trkpt><trkpt lon="15.5729647" lat="46.5288498"><ele>584</ele><time>2019-09-10T15:33:53.000Z</time></trkpt><trkpt lon="15.5729141" lat="46.528865"><ele>584</ele><time>2019-09-10T15:33:54.000Z</time></trkpt><trkpt lon="15.5728563" lat="46.5288649"><ele>584</ele><time>2019-09-10T15:33:55.000Z</time></trkpt><trkpt lon="15.5728563" lat="46.5288649"><ele>584</ele><time>2019-09-10T15:33:56.000Z</time></trkpt><trkpt lon="15.5727971" lat="46.5288591"><ele>585</ele><time>2019-09-10T15:33:57.000Z</time></trkpt><trkpt lon="15.5727971" lat="46.5288591"><ele>585</ele><time>2019-09-10T15:33:58.000Z</time></trkpt><trkpt lon="15.5727896" lat="46.5288154"><ele>584</ele><time>2019-09-10T15:33:59.000Z</time></trkpt><trkpt lon="15.5727896" lat="46.5288154"><ele>584</ele><time>2019-09-10T15:34:00.000Z</time></trkpt><trkpt lon="15.572832" lat="46.5287823"><ele>585</ele><time>2019-09-10T15:34:01.000Z</time></trkpt><trkpt lon="15.572832" lat="46.5287823"><ele>585</ele><time>2019-09-10T15:34:02.000Z</time></trkpt><trkpt lon="15.5728943" lat="46.5287576"><ele>586</ele><time>2019-09-10T15:34:03.000Z</time></trkpt><trkpt lon="15.5729344" lat="46.5287453"><ele>587</ele><time>2019-09-10T15:34:04.000Z</time></trkpt><trkpt lon="15.5729344" lat="46.5287453"><ele>587</ele><time>2019-09-10T15:34:05.000Z</time></trkpt><trkpt lon="15.573087" lat="46.5286894"><ele>587</ele><time>2019-09-10T15:34:06.000Z</time></trkpt><trkpt lon="15.5731299" lat="46.5286646"><ele>588</ele><time>2019-09-10T15:34:07.000Z</time></trkpt><trkpt lon="15.5731299" lat="46.5286646"><ele>588</ele><time>2019-09-10T15:34:08.000Z</time></trkpt><trkpt lon="15.5732186" lat="46.5286161"><ele>588</ele><time>2019-09-10T15:34:09.000Z</time></trkpt><trkpt lon="15.5732664" lat="46.5285962"><ele>588</ele><time>2019-09-10T15:34:10.000Z</time></trkpt><trkpt lon="15.5732664" lat="46.5285962"><ele>588</ele><time>2019-09-10T15:34:11.000Z</time></trkpt><trkpt lon="15.5733549" lat="46.5285443"><ele>589</ele><time>2019-09-10T15:34:12.000Z</time></trkpt><trkpt lon="15.5733549" lat="46.5285443"><ele>589</ele><time>2019-09-10T15:34:13.000Z</time></trkpt><trkpt lon="15.5734412" lat="46.5284856"><ele>590</ele><time>2019-09-10T15:34:14.000Z</time></trkpt><trkpt lon="15.5734412" lat="46.5284856"><ele>590</ele><time>2019-09-10T15:34:15.000Z</time></trkpt><trkpt lon="15.5735193" lat="46.528417"><ele>591</ele><time>2019-09-10T15:34:16.000Z</time></trkpt><trkpt lon="15.573553" lat="46.5283841"><ele>592</ele><time>2019-09-10T15:34:17.000Z</time></trkpt><trkpt lon="15.5735822" lat="46.5283496"><ele>592</ele><time>2019-09-10T15:34:18.000Z</time></trkpt><trkpt lon="15.5736076" lat="46.5283175"><ele>593</ele><time>2019-09-10T15:34:19.000Z</time></trkpt><trkpt lon="15.573634" lat="46.5282877"><ele>593</ele><time>2019-09-10T15:34:20.000Z</time></trkpt><trkpt lon="15.573634" lat="46.5282877"><ele>593</ele><time>2019-09-10T15:34:21.000Z</time></trkpt><trkpt lon="15.5736875" lat="46.5282423"><ele>595</ele><time>2019-09-10T15:34:22.000Z</time></trkpt><trkpt lon="15.5736875" lat="46.5282423"><ele>595</ele><time>2019-09-10T15:34:23.000Z</time></trkpt><trkpt lon="15.5737555" lat="46.5281871"><ele>595</ele><time>2019-09-10T15:34:24.000Z</time></trkpt><trkpt lon="15.5737555" lat="46.5281871"><ele>595</ele><time>2019-09-10T15:34:25.000Z</time></trkpt><trkpt lon="15.5738255" lat="46.5281545"><ele>597</ele><time>2019-09-10T15:34:26.000Z</time></trkpt><trkpt lon="15.5738634" lat="46.5281409"><ele>597</ele><time>2019-09-10T15:34:27.000Z</time></trkpt><trkpt lon="15.5738634" lat="46.5281409"><ele>597</ele><time>2019-09-10T15:34:28.000Z</time></trkpt><trkpt lon="15.5739434" lat="46.5281107"><ele>598</ele><time>2019-09-10T15:34:29.000Z</time></trkpt><trkpt lon="15.5739434" lat="46.5281107"><ele>598</ele><time>2019-09-10T15:34:30.000Z</time></trkpt><trkpt lon="15.5740942" lat="46.5280212"><ele>598</ele><time>2019-09-10T15:34:31.000Z</time></trkpt><trkpt lon="15.5741369" lat="46.527991"><ele>598</ele><time>2019-09-10T15:34:32.000Z</time></trkpt><trkpt lon="15.5741369" lat="46.527991"><ele>598</ele><time>2019-09-10T15:34:33.000Z</time></trkpt><trkpt lon="15.5741775" lat="46.5279335"><ele>599</ele><time>2019-09-10T15:34:34.000Z</time></trkpt><trkpt lon="15.5741964" lat="46.5279082"><ele>600</ele><time>2019-09-10T15:34:35.000Z</time></trkpt><trkpt lon="15.5741964" lat="46.5279082"><ele>600</ele><time>2019-09-10T15:34:36.000Z</time></trkpt><trkpt lon="15.574236" lat="46.5278694"><ele>601</ele><time>2019-09-10T15:34:37.000Z</time></trkpt><trkpt lon="15.574236" lat="46.5278694"><ele>601</ele><time>2019-09-10T15:34:38.000Z</time></trkpt><trkpt lon="15.5742879" lat="46.527847"><ele>602</ele><time>2019-09-10T15:34:39.000Z</time></trkpt><trkpt lon="15.5742879" lat="46.527847"><ele>602</ele><time>2019-09-10T15:34:40.000Z</time></trkpt><trkpt lon="15.5743536" lat="46.5278237"><ele>603</ele><time>2019-09-10T15:34:41.000Z</time></trkpt><trkpt lon="15.5743981" lat="46.5278132"><ele>604</ele><time>2019-09-10T15:34:42.000Z</time></trkpt><trkpt lon="15.5743981" lat="46.5278132"><ele>604</ele><time>2019-09-10T15:34:43.000Z</time></trkpt><trkpt lon="15.5744948" lat="46.5277895"><ele>605</ele><time>2019-09-10T15:34:44.000Z</time></trkpt><trkpt lon="15.5744948" lat="46.5277895"><ele>605</ele><time>2019-09-10T15:34:45.000Z</time></trkpt><trkpt lon="15.5745918" lat="46.5277414"><ele>604</ele><time>2019-09-10T15:34:46.000Z</time></trkpt><trkpt lon="15.5745918" lat="46.5277414"><ele>604</ele><time>2019-09-10T15:34:47.000Z</time></trkpt><trkpt lon="15.5746335" lat="46.5276912"><ele>604</ele><time>2019-09-10T15:34:48.000Z</time></trkpt><trkpt lon="15.5746335" lat="46.5276912"><ele>604</ele><time>2019-09-10T15:34:49.000Z</time></trkpt><trkpt lon="15.5746058" lat="46.5276133"><ele>604</ele><time>2019-09-10T15:34:50.000Z</time></trkpt><trkpt lon="15.5746058" lat="46.5276133"><ele>604</ele><time>2019-09-10T15:34:51.000Z</time></trkpt><trkpt lon="15.5745473" lat="46.5275971"><ele>605</ele><time>2019-09-10T15:34:52.000Z</time></trkpt><trkpt lon="15.5745076" lat="46.5275908"><ele>605</ele><time>2019-09-10T15:34:53.000Z</time></trkpt><trkpt lon="15.5745076" lat="46.5275908"><ele>605</ele><time>2019-09-10T15:34:54.000Z</time></trkpt><trkpt lon="15.5744155" lat="46.5275802"><ele>606</ele><time>2019-09-10T15:34:55.000Z</time></trkpt><trkpt lon="15.574371" lat="46.5275763"><ele>606</ele><time>2019-09-10T15:34:56.000Z</time></trkpt><trkpt lon="15.574371" lat="46.5275763"><ele>606</ele><time>2019-09-10T15:34:57.000Z</time></trkpt><trkpt lon="15.5742828" lat="46.5275703"><ele>606</ele><time>2019-09-10T15:34:58.000Z</time></trkpt><trkpt lon="15.5742828" lat="46.5275703"><ele>606</ele><time>2019-09-10T15:34:59.000Z</time></trkpt><trkpt lon="15.5741955" lat="46.5275643"><ele>606</ele><time>2019-09-10T15:35:00.000Z</time></trkpt><trkpt lon="15.5741955" lat="46.5275643"><ele>606</ele><time>2019-09-10T15:35:01.000Z</time></trkpt><trkpt lon="15.5741093" lat="46.5275585"><ele>606</ele><time>2019-09-10T15:35:02.000Z</time></trkpt><trkpt lon="15.5740681" lat="46.5275566"><ele>607</ele><time>2019-09-10T15:35:03.000Z</time></trkpt><trkpt lon="15.5740681" lat="46.5275566"><ele>607</ele><time>2019-09-10T15:35:04.000Z</time></trkpt><trkpt lon="15.5740056" lat="46.527562"><ele>608</ele><time>2019-09-10T15:35:05.000Z</time></trkpt><trkpt lon="15.5740056" lat="46.527562"><ele>608</ele><time>2019-09-10T15:35:06.000Z</time></trkpt><trkpt lon="15.5739268" lat="46.5275727"><ele>609</ele><time>2019-09-10T15:35:07.000Z</time></trkpt><trkpt lon="15.5738818" lat="46.5275783"><ele>610</ele><time>2019-09-10T15:35:08.000Z</time></trkpt><trkpt lon="15.5738818" lat="46.5275783"><ele>610</ele><time>2019-09-10T15:35:09.000Z</time></trkpt><trkpt lon="15.5737955" lat="46.5275896"><ele>610</ele><time>2019-09-10T15:35:10.000Z</time></trkpt><trkpt lon="15.573753" lat="46.5275982"><ele>610</ele><time>2019-09-10T15:35:11.000Z</time></trkpt><trkpt lon="15.573753" lat="46.5275982"><ele>610</ele><time>2019-09-10T15:35:12.000Z</time></trkpt><trkpt lon="15.5736574" lat="46.5276205"><ele>611</ele><time>2019-09-10T15:35:13.000Z</time></trkpt><trkpt lon="15.5736574" lat="46.5276205"><ele>611</ele><time>2019-09-10T15:35:14.000Z</time></trkpt><trkpt lon="15.5735933" lat="46.5276354"><ele>612</ele><time>2019-09-10T15:35:15.000Z</time></trkpt><trkpt lon="15.5735933" lat="46.5276354"><ele>612</ele><time>2019-09-10T15:35:16.000Z</time></trkpt><trkpt lon="15.5735025" lat="46.52766"><ele>612</ele><time>2019-09-10T15:35:17.000Z</time></trkpt><trkpt lon="15.5735025" lat="46.52766"><ele>612</ele><time>2019-09-10T15:35:18.000Z</time></trkpt><trkpt lon="15.5734086" lat="46.5276865"><ele>613</ele><time>2019-09-10T15:35:19.000Z</time></trkpt><trkpt lon="15.5734086" lat="46.5276865"><ele>613</ele><time>2019-09-10T15:35:20.000Z</time></trkpt><trkpt lon="15.5733347" lat="46.5277022"><ele>614</ele><time>2019-09-10T15:35:21.000Z</time></trkpt><trkpt lon="15.5733347" lat="46.5277022"><ele>614</ele><time>2019-09-10T15:35:22.000Z</time></trkpt><trkpt lon="15.5732393" lat="46.5277209"><ele>615</ele><time>2019-09-10T15:35:23.000Z</time></trkpt><trkpt lon="15.5731959" lat="46.5277306"><ele>616</ele><time>2019-09-10T15:35:24.000Z</time></trkpt><trkpt lon="15.5731571" lat="46.5277383"><ele>617</ele><time>2019-09-10T15:35:25.000Z</time></trkpt><trkpt lon="15.5731571" lat="46.5277383"><ele>617</ele><time>2019-09-10T15:35:26.000Z</time></trkpt><trkpt lon="15.5730845" lat="46.5277516"><ele>617</ele><time>2019-09-10T15:35:27.000Z</time></trkpt><trkpt lon="15.5730845" lat="46.5277516"><ele>617</ele><time>2019-09-10T15:35:28.000Z</time></trkpt><trkpt lon="15.5730145" lat="46.5277613"><ele>618</ele><time>2019-09-10T15:35:29.000Z</time></trkpt><trkpt lon="15.5730145" lat="46.5277613"><ele>618</ele><time>2019-09-10T15:35:30.000Z</time></trkpt><trkpt lon="15.5729449" lat="46.5277638"><ele>618</ele><time>2019-09-10T15:35:31.000Z</time></trkpt><trkpt lon="15.5729449" lat="46.5277638"><ele>618</ele><time>2019-09-10T15:35:32.000Z</time></trkpt><trkpt lon="15.5728861" lat="46.527762"><ele>620</ele><time>2019-09-10T15:35:33.000Z</time></trkpt><trkpt lon="15.5728861" lat="46.527762"><ele>620</ele><time>2019-09-10T15:35:34.000Z</time></trkpt><trkpt lon="15.5728405" lat="46.5277524"><ele>620</ele><time>2019-09-10T15:35:35.000Z</time></trkpt><trkpt lon="15.5728405" lat="46.5277524"><ele>620</ele><time>2019-09-10T15:35:36.000Z</time></trkpt><trkpt lon="15.5727987" lat="46.5277323"><ele>620</ele><time>2019-09-10T15:35:37.000Z</time></trkpt><trkpt lon="15.5727987" lat="46.5277323"><ele>620</ele><time>2019-09-10T15:35:38.000Z</time></trkpt><trkpt lon="15.5727987" lat="46.5277323"><ele>620</ele><time>2019-09-10T15:35:39.000Z</time></trkpt><trkpt lon="15.5727665" lat="46.5277168"><ele>621</ele><time>2019-09-10T15:35:40.000Z</time></trkpt><trkpt lon="15.5727665" lat="46.5277168"><ele>621</ele><time>2019-09-10T15:35:41.000Z</time></trkpt><trkpt lon="15.5727458" lat="46.5276927"><ele>621</ele><time>2019-09-10T15:35:42.000Z</time></trkpt><trkpt lon="15.5727458" lat="46.5276927"><ele>621</ele><time>2019-09-10T15:35:43.000Z</time></trkpt><trkpt lon="15.5727421" lat="46.5276583"><ele>623</ele><time>2019-09-10T15:35:44.000Z</time></trkpt><trkpt lon="15.5727421" lat="46.5276583"><ele>623</ele><time>2019-09-10T15:35:45.000Z</time></trkpt><trkpt lon="15.5727698" lat="46.5276316"><ele>625</ele><time>2019-09-10T15:35:46.000Z</time></trkpt><trkpt lon="15.5727698" lat="46.5276316"><ele>625</ele><time>2019-09-10T15:35:47.000Z</time></trkpt><trkpt lon="15.5728222" lat="46.5276088"><ele>625</ele><time>2019-09-10T15:35:48.000Z</time></trkpt><trkpt lon="15.5728222" lat="46.5276088"><ele>625</ele><time>2019-09-10T15:35:49.000Z</time></trkpt><trkpt lon="15.5728925" lat="46.5275807"><ele>626</ele><time>2019-09-10T15:35:50.000Z</time></trkpt><trkpt lon="15.5728925" lat="46.5275807"><ele>626</ele><time>2019-09-10T15:35:51.000Z</time></trkpt><trkpt lon="15.5730793" lat="46.5275072"><ele>628</ele><time>2019-09-10T15:35:52.000Z</time></trkpt><trkpt lon="15.5731413" lat="46.5274815"><ele>628</ele><time>2019-09-10T15:35:53.000Z</time></trkpt><trkpt lon="15.5731892" lat="46.5274525"><ele>627</ele><time>2019-09-10T15:35:54.000Z</time></trkpt><trkpt lon="15.5731892" lat="46.5274525"><ele>627</ele><time>2019-09-10T15:35:55.000Z</time></trkpt><trkpt lon="15.573308" lat="46.5273976"><ele>627</ele><time>2019-09-10T15:35:56.000Z</time></trkpt><trkpt lon="15.573308" lat="46.5273976"><ele>627</ele><time>2019-09-10T15:35:57.000Z</time></trkpt><trkpt lon="15.5734351" lat="46.5273394"><ele>628</ele><time>2019-09-10T15:35:58.000Z</time></trkpt><trkpt lon="15.5734909" lat="46.5273124"><ele>628</ele><time>2019-09-10T15:35:59.000Z</time></trkpt><trkpt lon="15.5734909" lat="46.5273124"><ele>628</ele><time>2019-09-10T15:36:00.000Z</time></trkpt><trkpt lon="15.5735783" lat="46.5272786"><ele>628</ele><time>2019-09-10T15:36:01.000Z</time></trkpt><trkpt lon="15.5735783" lat="46.5272786"><ele>628</ele><time>2019-09-10T15:36:02.000Z</time></trkpt><trkpt lon="15.5736425" lat="46.5272497"><ele>628</ele><time>2019-09-10T15:36:03.000Z</time></trkpt><trkpt lon="15.57375" lat="46.5272043"><ele>627</ele><time>2019-09-10T15:36:04.000Z</time></trkpt><trkpt lon="15.57375" lat="46.5272043"><ele>627</ele><time>2019-09-10T15:36:05.000Z</time></trkpt><trkpt lon="15.5738424" lat="46.52714"><ele>627</ele><time>2019-09-10T15:36:06.000Z</time></trkpt><trkpt lon="15.5738424" lat="46.52714"><ele>627</ele><time>2019-09-10T15:36:07.000Z</time></trkpt><trkpt lon="15.5738867" lat="46.5271248"><ele>629</ele><time>2019-09-10T15:36:08.000Z</time></trkpt><trkpt lon="15.5738867" lat="46.5271248"><ele>629</ele><time>2019-09-10T15:36:09.000Z</time></trkpt><trkpt lon="15.5739539" lat="46.5271062"><ele>631</ele><time>2019-09-10T15:36:10.000Z</time></trkpt><trkpt lon="15.5739917" lat="46.527093"><ele>631</ele><time>2019-09-10T15:36:11.000Z</time></trkpt><trkpt lon="15.5739917" lat="46.527093"><ele>631</ele><time>2019-09-10T15:36:12.000Z</time></trkpt><trkpt lon="15.5741726" lat="46.5270189"><ele>631</ele><time>2019-09-10T15:36:13.000Z</time></trkpt><trkpt lon="15.5741726" lat="46.5270189"><ele>631</ele><time>2019-09-10T15:36:14.000Z</time></trkpt><trkpt lon="15.574282" lat="46.5269493"><ele>632</ele><time>2019-09-10T15:36:15.000Z</time></trkpt><trkpt lon="15.5743391" lat="46.5269293"><ele>633</ele><time>2019-09-10T15:36:16.000Z</time></trkpt><trkpt lon="15.5743391" lat="46.5269293"><ele>633</ele><time>2019-09-10T15:36:17.000Z</time></trkpt><trkpt lon="15.5744233" lat="46.5268955"><ele>633</ele><time>2019-09-10T15:36:18.000Z</time></trkpt><trkpt lon="15.5744591" lat="46.5268835"><ele>634</ele><time>2019-09-10T15:36:19.000Z</time></trkpt><trkpt lon="15.5744591" lat="46.5268835"><ele>634</ele><time>2019-09-10T15:36:20.000Z</time></trkpt><trkpt lon="15.5745353" lat="46.5268545"><ele>636</ele><time>2019-09-10T15:36:21.000Z</time></trkpt><trkpt lon="15.5745798" lat="46.5268395"><ele>636</ele><time>2019-09-10T15:36:22.000Z</time></trkpt><trkpt lon="15.5745798" lat="46.5268395"><ele>636</ele><time>2019-09-10T15:36:23.000Z</time></trkpt><trkpt lon="15.5747659" lat="46.5267633"><ele>636</ele><time>2019-09-10T15:36:24.000Z</time></trkpt><trkpt lon="15.5748086" lat="46.5267328"><ele>637</ele><time>2019-09-10T15:36:25.000Z</time></trkpt><trkpt lon="15.5748086" lat="46.5267328"><ele>637</ele><time>2019-09-10T15:36:26.000Z</time></trkpt><trkpt lon="15.5748585" lat="46.5266945"><ele>638</ele><time>2019-09-10T15:36:27.000Z</time></trkpt><trkpt lon="15.5748827" lat="46.526672"><ele>637</ele><time>2019-09-10T15:36:28.000Z</time></trkpt><trkpt lon="15.5749084" lat="46.5266448"><ele>637</ele><time>2019-09-10T15:36:29.000Z</time></trkpt><trkpt lon="15.5749898" lat="46.526562"><ele>637</ele><time>2019-09-10T15:36:30.000Z</time></trkpt><trkpt lon="15.5749898" lat="46.526562"><ele>637</ele><time>2019-09-10T15:36:31.000Z</time></trkpt><trkpt lon="15.575037" lat="46.5264821"><ele>637</ele><time>2019-09-10T15:36:32.000Z</time></trkpt><trkpt lon="15.575037" lat="46.5264821"><ele>637</ele><time>2019-09-10T15:36:33.000Z</time></trkpt><trkpt lon="15.5751077" lat="46.5264141"><ele>638</ele><time>2019-09-10T15:36:34.000Z</time></trkpt><trkpt lon="15.5751617" lat="46.5263796"><ele>638</ele><time>2019-09-10T15:36:35.000Z</time></trkpt><trkpt lon="15.5751617" lat="46.5263796"><ele>638</ele><time>2019-09-10T15:36:36.000Z</time></trkpt><trkpt lon="15.5752647" lat="46.5263218"><ele>639</ele><time>2019-09-10T15:36:37.000Z</time></trkpt><trkpt lon="15.5752647" lat="46.5263218"><ele>639</ele><time>2019-09-10T15:36:38.000Z</time></trkpt><trkpt lon="15.5753578" lat="46.5262757"><ele>639</ele><time>2019-09-10T15:36:39.000Z</time></trkpt><trkpt lon="15.5753578" lat="46.5262757"><ele>639</ele><time>2019-09-10T15:36:40.000Z</time></trkpt><trkpt lon="15.575406" lat="46.5262302"><ele>640</ele><time>2019-09-10T15:36:41.000Z</time></trkpt><trkpt lon="15.575406" lat="46.5262302"><ele>640</ele><time>2019-09-10T15:36:42.000Z</time></trkpt><trkpt lon="15.5754554" lat="46.5261798"><ele>641</ele><time>2019-09-10T15:36:43.000Z</time></trkpt><trkpt lon="15.5754815" lat="46.5261519"><ele>641</ele><time>2019-09-10T15:36:44.000Z</time></trkpt><trkpt lon="15.5754815" lat="46.5261519"><ele>641</ele><time>2019-09-10T15:36:45.000Z</time></trkpt><trkpt lon="15.575552" lat="46.5259966"><ele>640</ele><time>2019-09-10T15:36:46.000Z</time></trkpt><trkpt lon="15.575552" lat="46.5259966"><ele>640</ele><time>2019-09-10T15:36:47.000Z</time></trkpt><trkpt lon="15.5755767" lat="46.5259318"><ele>640</ele><time>2019-09-10T15:36:48.000Z</time></trkpt><trkpt lon="15.5755767" lat="46.5259318"><ele>640</ele><time>2019-09-10T15:36:49.000Z</time></trkpt><trkpt lon="15.5755777" lat="46.525891"><ele>641</ele><time>2019-09-10T15:36:50.000Z</time></trkpt><trkpt lon="15.5755777" lat="46.525891"><ele>641</ele><time>2019-09-10T15:36:51.000Z</time></trkpt><trkpt lon="15.5755884" lat="46.5258426"><ele>642</ele><time>2019-09-10T15:36:52.000Z</time></trkpt><trkpt lon="15.5755884" lat="46.5258426"><ele>642</ele><time>2019-09-10T15:36:53.000Z</time></trkpt><trkpt lon="15.575597" lat="46.5257812"><ele>643</ele><time>2019-09-10T15:36:54.000Z</time></trkpt><trkpt lon="15.575597" lat="46.5257812"><ele>643</ele><time>2019-09-10T15:36:55.000Z</time></trkpt><trkpt lon="15.5756041" lat="46.5257303"><ele>644</ele><time>2019-09-10T15:36:56.000Z</time></trkpt><trkpt lon="15.5756152" lat="46.5256982"><ele>644</ele><time>2019-09-10T15:36:57.000Z</time></trkpt><trkpt lon="15.575633" lat="46.5256627"><ele>644</ele><time>2019-09-10T15:36:58.000Z</time></trkpt><trkpt lon="15.575633" lat="46.5256627"><ele>644</ele><time>2019-09-10T15:36:59.000Z</time></trkpt><trkpt lon="15.5757092" lat="46.5255602"><ele>644</ele><time>2019-09-10T15:37:00.000Z</time></trkpt><trkpt lon="15.5757409" lat="46.5255249"><ele>645</ele><time>2019-09-10T15:37:01.000Z</time></trkpt><trkpt lon="15.5757409" lat="46.5255249"><ele>645</ele><time>2019-09-10T15:37:02.000Z</time></trkpt><trkpt lon="15.5757838" lat="46.5254737"><ele>645</ele><time>2019-09-10T15:37:03.000Z</time></trkpt><trkpt lon="15.5757838" lat="46.5254737"><ele>645</ele><time>2019-09-10T15:37:04.000Z</time></trkpt><trkpt lon="15.5758468" lat="46.5253907"><ele>646</ele><time>2019-09-10T15:37:05.000Z</time></trkpt><trkpt lon="15.5758732" lat="46.5253573"><ele>647</ele><time>2019-09-10T15:37:06.000Z</time></trkpt><trkpt lon="15.5759038" lat="46.5253208"><ele>647</ele><time>2019-09-10T15:37:07.000Z</time></trkpt><trkpt lon="15.5759313" lat="46.5252855"><ele>646</ele><time>2019-09-10T15:37:08.000Z</time></trkpt><trkpt lon="15.5759313" lat="46.5252855"><ele>646</ele><time>2019-09-10T15:37:09.000Z</time></trkpt><trkpt lon="15.5759894" lat="46.5252126"><ele>647</ele><time>2019-09-10T15:37:10.000Z</time></trkpt><trkpt lon="15.5759894" lat="46.5252126"><ele>647</ele><time>2019-09-10T15:37:11.000Z</time></trkpt><trkpt lon="15.5760479" lat="46.5251345"><ele>648</ele><time>2019-09-10T15:37:12.000Z</time></trkpt><trkpt lon="15.5760806" lat="46.5250998"><ele>649</ele><time>2019-09-10T15:37:13.000Z</time></trkpt><trkpt lon="15.5761137" lat="46.5250681"><ele>649</ele><time>2019-09-10T15:37:14.000Z</time></trkpt><trkpt lon="15.5761137" lat="46.5250681"><ele>649</ele><time>2019-09-10T15:37:15.000Z</time></trkpt><trkpt lon="15.5761804" lat="46.5250104"><ele>650</ele><time>2019-09-10T15:37:16.000Z</time></trkpt><trkpt lon="15.5761804" lat="46.5250104"><ele>650</ele><time>2019-09-10T15:37:17.000Z</time></trkpt><trkpt lon="15.5763016" lat="46.5248967"><ele>650</ele><time>2019-09-10T15:37:18.000Z</time></trkpt><trkpt lon="15.5763407" lat="46.5248527"><ele>650</ele><time>2019-09-10T15:37:19.000Z</time></trkpt><trkpt lon="15.5763629" lat="46.5248111"><ele>650</ele><time>2019-09-10T15:37:20.000Z</time></trkpt><trkpt lon="15.5763629" lat="46.5248111"><ele>650</ele><time>2019-09-10T15:37:21.000Z</time></trkpt><trkpt lon="15.5763794" lat="46.5247568"><ele>652</ele><time>2019-09-10T15:37:22.000Z</time></trkpt><trkpt lon="15.5763794" lat="46.5247568"><ele>652</ele><time>2019-09-10T15:37:23.000Z</time></trkpt><trkpt lon="15.576389" lat="46.5247292"><ele>653</ele><time>2019-09-10T15:37:24.000Z</time></trkpt><trkpt lon="15.5763941" lat="46.5246986"><ele>653</ele><time>2019-09-10T15:37:25.000Z</time></trkpt><trkpt lon="15.5763941" lat="46.5246986"><ele>653</ele><time>2019-09-10T15:37:26.000Z</time></trkpt><trkpt lon="15.5764089" lat="46.5246351"><ele>653</ele><time>2019-09-10T15:37:27.000Z</time></trkpt><trkpt lon="15.5764172" lat="46.5246008"><ele>652</ele><time>2019-09-10T15:37:28.000Z</time></trkpt><trkpt lon="15.5764172" lat="46.5246008"><ele>652</ele><time>2019-09-10T15:37:29.000Z</time></trkpt><trkpt lon="15.5764248" lat="46.5245338"><ele>654</ele><time>2019-09-10T15:37:30.000Z</time></trkpt><trkpt lon="15.5764248" lat="46.5245338"><ele>654</ele><time>2019-09-10T15:37:31.000Z</time></trkpt><trkpt lon="15.5764173" lat="46.5244748"><ele>654</ele><time>2019-09-10T15:37:32.000Z</time></trkpt><trkpt lon="15.5764173" lat="46.5244748"><ele>654</ele><time>2019-09-10T15:37:33.000Z</time></trkpt><trkpt lon="15.5764031" lat="46.5244227"><ele>654</ele><time>2019-09-10T15:37:34.000Z</time></trkpt><trkpt lon="15.5763917" lat="46.5243937"><ele>654</ele><time>2019-09-10T15:37:35.000Z</time></trkpt><trkpt lon="15.5763917" lat="46.5243937"><ele>654</ele><time>2019-09-10T15:37:36.000Z</time></trkpt><trkpt lon="15.5763566" lat="46.524259"><ele>657</ele><time>2019-09-10T15:37:37.000Z</time></trkpt><trkpt lon="15.5763566" lat="46.524259"><ele>657</ele><time>2019-09-10T15:37:38.000Z</time></trkpt><trkpt lon="15.5763736" lat="46.5242182"><ele>659</ele><time>2019-09-10T15:37:39.000Z</time></trkpt><trkpt lon="15.5763736" lat="46.5242182"><ele>659</ele><time>2019-09-10T15:37:40.000Z</time></trkpt><trkpt lon="15.5764064" lat="46.5241812"><ele>660</ele><time>2019-09-10T15:37:41.000Z</time></trkpt><trkpt lon="15.5764064" lat="46.5241812"><ele>660</ele><time>2019-09-10T15:37:42.000Z</time></trkpt><trkpt lon="15.5764534" lat="46.5241476"><ele>661</ele><time>2019-09-10T15:37:43.000Z</time></trkpt><trkpt lon="15.5764534" lat="46.5241476"><ele>661</ele><time>2019-09-10T15:37:44.000Z</time></trkpt><trkpt lon="15.5764534" lat="46.5241476"><ele>661</ele><time>2019-09-10T15:37:45.000Z</time></trkpt><trkpt lon="15.5765228" lat="46.5241293"><ele>663</ele><time>2019-09-10T15:37:46.000Z</time></trkpt><trkpt lon="15.5765633" lat="46.5241219"><ele>663</ele><time>2019-09-10T15:37:47.000Z</time></trkpt><trkpt lon="15.5767202" lat="46.5241084"><ele>663</ele><time>2019-09-10T15:37:48.000Z</time></trkpt><trkpt lon="15.5767202" lat="46.5241084"><ele>663</ele><time>2019-09-10T15:37:49.000Z</time></trkpt><trkpt lon="15.5767607" lat="46.5241171"><ele>663</ele><time>2019-09-10T15:37:50.000Z</time></trkpt><trkpt lon="15.5767607" lat="46.5241171"><ele>663</ele><time>2019-09-10T15:37:51.000Z</time></trkpt><trkpt lon="15.5768209" lat="46.5241513"><ele>664</ele><time>2019-09-10T15:37:52.000Z</time></trkpt><trkpt lon="15.5768209" lat="46.5241513"><ele>664</ele><time>2019-09-10T15:37:53.000Z</time></trkpt><trkpt lon="15.5768429" lat="46.5241783"><ele>666</ele><time>2019-09-10T15:37:54.000Z</time></trkpt><trkpt lon="15.5768429" lat="46.5241783"><ele>666</ele><time>2019-09-10T15:37:55.000Z</time></trkpt><trkpt lon="15.5768759" lat="46.5242115"><ele>667</ele><time>2019-09-10T15:37:56.000Z</time></trkpt><trkpt lon="15.5768759" lat="46.5242115"><ele>667</ele><time>2019-09-10T15:37:57.000Z</time></trkpt><trkpt lon="15.5769148" lat="46.524255"><ele>669</ele><time>2019-09-10T15:37:58.000Z</time></trkpt><trkpt lon="15.5769148" lat="46.524255"><ele>669</ele><time>2019-09-10T15:37:59.000Z</time></trkpt><trkpt lon="15.5769644" lat="46.5243056"><ele>671</ele><time>2019-09-10T15:38:00.000Z</time></trkpt><trkpt lon="15.5770686" lat="46.5243631"><ele>671</ele><time>2019-09-10T15:38:01.000Z</time></trkpt><trkpt lon="15.5771498" lat="46.5243786"><ele>671</ele><time>2019-09-10T15:38:02.000Z</time></trkpt><trkpt lon="15.5771498" lat="46.5243786"><ele>671</ele><time>2019-09-10T15:38:03.000Z</time></trkpt><trkpt lon="15.5772149" lat="46.5243982"><ele>670</ele><time>2019-09-10T15:38:04.000Z</time></trkpt><trkpt lon="15.5772149" lat="46.5243982"><ele>670</ele><time>2019-09-10T15:38:05.000Z</time></trkpt><trkpt lon="15.5773131" lat="46.5244151"><ele>670</ele><time>2019-09-10T15:38:06.000Z</time></trkpt><trkpt lon="15.5773131" lat="46.5244151"><ele>670</ele><time>2019-09-10T15:38:07.000Z</time></trkpt><trkpt lon="15.5773874" lat="46.5244354"><ele>671</ele><time>2019-09-10T15:38:08.000Z</time></trkpt><trkpt lon="15.5774262" lat="46.5244475"><ele>672</ele><time>2019-09-10T15:38:09.000Z</time></trkpt><trkpt lon="15.5774262" lat="46.5244475"><ele>672</ele><time>2019-09-10T15:38:10.000Z</time></trkpt><trkpt lon="15.5775215" lat="46.5244768"><ele>672</ele><time>2019-09-10T15:38:11.000Z</time></trkpt><trkpt lon="15.5775648" lat="46.5244933"><ele>673</ele><time>2019-09-10T15:38:12.000Z</time></trkpt><trkpt lon="15.5775648" lat="46.5244933"><ele>673</ele><time>2019-09-10T15:38:13.000Z</time></trkpt><trkpt lon="15.5776521" lat="46.5245226"><ele>674</ele><time>2019-09-10T15:38:14.000Z</time></trkpt><trkpt lon="15.5777041" lat="46.5245424"><ele>674</ele><time>2019-09-10T15:38:15.000Z</time></trkpt><trkpt lon="15.5777041" lat="46.5245424"><ele>674</ele><time>2019-09-10T15:38:16.000Z</time></trkpt><trkpt lon="15.5777745" lat="46.5245708"><ele>673</ele><time>2019-09-10T15:38:17.000Z</time></trkpt><trkpt lon="15.5778207" lat="46.5245825"><ele>673</ele><time>2019-09-10T15:38:18.000Z</time></trkpt><trkpt lon="15.5778207" lat="46.5245825"><ele>673</ele><time>2019-09-10T15:38:19.000Z</time></trkpt><trkpt lon="15.5779231" lat="46.5245953"><ele>673</ele><time>2019-09-10T15:38:20.000Z</time></trkpt><trkpt lon="15.5779231" lat="46.5245953"><ele>673</ele><time>2019-09-10T15:38:21.000Z</time></trkpt><trkpt lon="15.5780353" lat="46.5245943"><ele>673</ele><time>2019-09-10T15:38:22.000Z</time></trkpt><trkpt lon="15.5780886" lat="46.5245905"><ele>673</ele><time>2019-09-10T15:38:23.000Z</time></trkpt><trkpt lon="15.5780886" lat="46.5245905"><ele>673</ele><time>2019-09-10T15:38:24.000Z</time></trkpt><trkpt lon="15.5782017" lat="46.5245934"><ele>672</ele><time>2019-09-10T15:38:25.000Z</time></trkpt><trkpt lon="15.5782017" lat="46.5245934"><ele>672</ele><time>2019-09-10T15:38:26.000Z</time></trkpt><trkpt lon="15.5783256" lat="46.5246121"><ele>673</ele><time>2019-09-10T15:38:27.000Z</time></trkpt><trkpt lon="15.5783651" lat="46.5246166"><ele>673</ele><time>2019-09-10T15:38:28.000Z</time></trkpt><trkpt lon="15.5783651" lat="46.5246166"><ele>673</ele><time>2019-09-10T15:38:29.000Z</time></trkpt><trkpt lon="15.5784578" lat="46.5246247"><ele>675</ele><time>2019-09-10T15:38:30.000Z</time></trkpt><trkpt lon="15.5784578" lat="46.5246247"><ele>675</ele><time>2019-09-10T15:38:31.000Z</time></trkpt><trkpt lon="15.5785518" lat="46.5246324"><ele>675</ele><time>2019-09-10T15:38:32.000Z</time></trkpt><trkpt lon="15.5786009" lat="46.5246335"><ele>675</ele><time>2019-09-10T15:38:33.000Z</time></trkpt><trkpt lon="15.5786519" lat="46.5246321"><ele>676</ele><time>2019-09-10T15:38:34.000Z</time></trkpt><trkpt lon="15.5786519" lat="46.5246321"><ele>676</ele><time>2019-09-10T15:38:35.000Z</time></trkpt><trkpt lon="15.5788442" lat="46.5246033"><ele>677</ele><time>2019-09-10T15:38:36.000Z</time></trkpt><trkpt lon="15.578887" lat="46.5245923"><ele>677</ele><time>2019-09-10T15:38:37.000Z</time></trkpt><trkpt lon="15.5789317" lat="46.5245818"><ele>677</ele><time>2019-09-10T15:38:38.000Z</time></trkpt><trkpt lon="15.5789766" lat="46.5245673"><ele>678</ele><time>2019-09-10T15:38:39.000Z</time></trkpt><trkpt lon="15.5789766" lat="46.5245673"><ele>678</ele><time>2019-09-10T15:38:40.000Z</time></trkpt><trkpt lon="15.5791726" lat="46.5245071"><ele>678</ele><time>2019-09-10T15:38:41.000Z</time></trkpt><trkpt lon="15.5791726" lat="46.5245071"><ele>678</ele><time>2019-09-10T15:38:42.000Z</time></trkpt><trkpt lon="15.5792397" lat="46.5244821"><ele>678</ele><time>2019-09-10T15:38:43.000Z</time></trkpt><trkpt lon="15.5792799" lat="46.5244655"><ele>678</ele><time>2019-09-10T15:38:44.000Z</time></trkpt><trkpt lon="15.5792799" lat="46.5244655"><ele>678</ele><time>2019-09-10T15:38:45.000Z</time></trkpt><trkpt lon="15.5793672" lat="46.5244287"><ele>679</ele><time>2019-09-10T15:38:46.000Z</time></trkpt><trkpt lon="15.5793672" lat="46.5244287"><ele>679</ele><time>2019-09-10T15:38:47.000Z</time></trkpt><trkpt lon="15.5794274" lat="46.524403"><ele>679</ele><time>2019-09-10T15:38:48.000Z</time></trkpt><trkpt lon="15.5794274" lat="46.524403"><ele>679</ele><time>2019-09-10T15:38:49.000Z</time></trkpt><trkpt lon="15.5795101" lat="46.5243732"><ele>680</ele><time>2019-09-10T15:38:50.000Z</time></trkpt><trkpt lon="15.5795101" lat="46.5243732"><ele>680</ele><time>2019-09-10T15:38:51.000Z</time></trkpt><trkpt lon="15.5796275" lat="46.5243449"><ele>681</ele><time>2019-09-10T15:38:52.000Z</time></trkpt><trkpt lon="15.5796734" lat="46.5243397"><ele>681</ele><time>2019-09-10T15:38:53.000Z</time></trkpt><trkpt lon="15.5796734" lat="46.5243397"><ele>681</ele><time>2019-09-10T15:38:54.000Z</time></trkpt><trkpt lon="15.5797591" lat="46.5243365"><ele>682</ele><time>2019-09-10T15:38:55.000Z</time></trkpt><trkpt lon="15.5797591" lat="46.5243365"><ele>682</ele><time>2019-09-10T15:38:56.000Z</time></trkpt><trkpt lon="15.5798429" lat="46.524334"><ele>683</ele><time>2019-09-10T15:38:57.000Z</time></trkpt><trkpt lon="15.5798429" lat="46.524334"><ele>683</ele><time>2019-09-10T15:38:58.000Z</time></trkpt><trkpt lon="15.5799075" lat="46.5243299"><ele>684</ele><time>2019-09-10T15:38:59.000Z</time></trkpt><trkpt lon="15.5799507" lat="46.5243217"><ele>683</ele><time>2019-09-10T15:39:00.000Z</time></trkpt><trkpt lon="15.5799507" lat="46.5243217"><ele>683</ele><time>2019-09-10T15:39:01.000Z</time></trkpt><trkpt lon="15.5801388" lat="46.5242437"><ele>685</ele><time>2019-09-10T15:39:02.000Z</time></trkpt><trkpt lon="15.580189" lat="46.524205"><ele>684</ele><time>2019-09-10T15:39:03.000Z</time></trkpt><trkpt lon="15.580189" lat="46.524205"><ele>684</ele><time>2019-09-10T15:39:04.000Z</time></trkpt><trkpt lon="15.5802536" lat="46.5241615"><ele>683</ele><time>2019-09-10T15:39:05.000Z</time></trkpt><trkpt lon="15.5802792" lat="46.5241372"><ele>683</ele><time>2019-09-10T15:39:06.000Z</time></trkpt><trkpt lon="15.5803054" lat="46.5241125"><ele>684</ele><time>2019-09-10T15:39:07.000Z</time></trkpt><trkpt lon="15.5803054" lat="46.5241125"><ele>684</ele><time>2019-09-10T15:39:08.000Z</time></trkpt><trkpt lon="15.5803854" lat="46.5240537"><ele>685</ele><time>2019-09-10T15:39:09.000Z</time></trkpt><trkpt lon="15.5803854" lat="46.5240537"><ele>685</ele><time>2019-09-10T15:39:10.000Z</time></trkpt><trkpt lon="15.5804342" lat="46.5240079"><ele>686</ele><time>2019-09-10T15:39:11.000Z</time></trkpt><trkpt lon="15.5804342" lat="46.5240079"><ele>686</ele><time>2019-09-10T15:39:12.000Z</time></trkpt><trkpt lon="15.5804878" lat="46.5239501"><ele>687</ele><time>2019-09-10T15:39:13.000Z</time></trkpt><trkpt lon="15.5804878" lat="46.5239501"><ele>687</ele><time>2019-09-10T15:39:14.000Z</time></trkpt><trkpt lon="15.5805434" lat="46.5238969"><ele>688</ele><time>2019-09-10T15:39:15.000Z</time></trkpt><trkpt lon="15.5805434" lat="46.5238969"><ele>688</ele><time>2019-09-10T15:39:16.000Z</time></trkpt><trkpt lon="15.580607" lat="46.5238487"><ele>689</ele><time>2019-09-10T15:39:17.000Z</time></trkpt><trkpt lon="15.580607" lat="46.5238487"><ele>689</ele><time>2019-09-10T15:39:18.000Z</time></trkpt><trkpt lon="15.5807319" lat="46.5237513"><ele>689</ele><time>2019-09-10T15:39:19.000Z</time></trkpt><trkpt lon="15.5807319" lat="46.5237513"><ele>689</ele><time>2019-09-10T15:39:20.000Z</time></trkpt><trkpt lon="15.5807769" lat="46.5237131"><ele>689</ele><time>2019-09-10T15:39:21.000Z</time></trkpt><trkpt lon="15.5807769" lat="46.5237131"><ele>689</ele><time>2019-09-10T15:39:22.000Z</time></trkpt><trkpt lon="15.580907" lat="46.5236374"><ele>691</ele><time>2019-09-10T15:39:23.000Z</time></trkpt><trkpt lon="15.580962" lat="46.5236078"><ele>691</ele><time>2019-09-10T15:39:24.000Z</time></trkpt><trkpt lon="15.5809963" lat="46.5235934"><ele>691</ele><time>2019-09-10T15:39:25.000Z</time></trkpt><trkpt lon="15.5809963" lat="46.5235934"><ele>691</ele><time>2019-09-10T15:39:26.000Z</time></trkpt><trkpt lon="15.581048" lat="46.5235808"><ele>691</ele><time>2019-09-10T15:39:27.000Z</time></trkpt><trkpt lon="15.581048" lat="46.5235808"><ele>691</ele><time>2019-09-10T15:39:28.000Z</time></trkpt><trkpt lon="15.5811308" lat="46.5235601"><ele>693</ele><time>2019-09-10T15:39:29.000Z</time></trkpt><trkpt lon="15.5811308" lat="46.5235601"><ele>693</ele><time>2019-09-10T15:39:30.000Z</time></trkpt><trkpt lon="15.581206" lat="46.5235393"><ele>694</ele><time>2019-09-10T15:39:31.000Z</time></trkpt><trkpt lon="15.581206" lat="46.5235393"><ele>694</ele><time>2019-09-10T15:39:32.000Z</time></trkpt><trkpt lon="15.5812562" lat="46.5235289"><ele>695</ele><time>2019-09-10T15:39:33.000Z</time></trkpt><trkpt lon="15.5812562" lat="46.5235289"><ele>695</ele><time>2019-09-10T15:39:34.000Z</time></trkpt><trkpt lon="15.5813295" lat="46.5235136"><ele>696</ele><time>2019-09-10T15:39:35.000Z</time></trkpt><trkpt lon="15.5813295" lat="46.5235136"><ele>696</ele><time>2019-09-10T15:39:36.000Z</time></trkpt><trkpt lon="15.5814089" lat="46.5235015"><ele>696</ele><time>2019-09-10T15:39:37.000Z</time></trkpt><trkpt lon="15.5814498" lat="46.5234935"><ele>697</ele><time>2019-09-10T15:39:38.000Z</time></trkpt><trkpt lon="15.5814498" lat="46.5234935"><ele>697</ele><time>2019-09-10T15:39:39.000Z</time></trkpt><trkpt lon="15.5815466" lat="46.5234654"><ele>697</ele><time>2019-09-10T15:39:40.000Z</time></trkpt><trkpt lon="15.5815986" lat="46.5234474"><ele>698</ele><time>2019-09-10T15:39:41.000Z</time></trkpt><trkpt lon="15.5815986" lat="46.5234474"><ele>698</ele><time>2019-09-10T15:39:42.000Z</time></trkpt><trkpt lon="15.5817052" lat="46.5234051"><ele>697</ele><time>2019-09-10T15:39:43.000Z</time></trkpt><trkpt lon="15.5818629" lat="46.5233465"><ele>696</ele><time>2019-09-10T15:39:44.000Z</time></trkpt><trkpt lon="15.5818968" lat="46.5233318"><ele>697</ele><time>2019-09-10T15:39:45.000Z</time></trkpt><trkpt lon="15.5818968" lat="46.5233318"><ele>697</ele><time>2019-09-10T15:39:46.000Z</time></trkpt><trkpt lon="15.5820263" lat="46.5232986"><ele>698</ele><time>2019-09-10T15:39:47.000Z</time></trkpt><trkpt lon="15.5820263" lat="46.5232986"><ele>698</ele><time>2019-09-10T15:39:48.000Z</time></trkpt><trkpt lon="15.5820926" lat="46.5232769"><ele>698</ele><time>2019-09-10T15:39:49.000Z</time></trkpt><trkpt lon="15.5820926" lat="46.5232769"><ele>698</ele><time>2019-09-10T15:39:50.000Z</time></trkpt><trkpt lon="15.582151" lat="46.5232556"><ele>700</ele><time>2019-09-10T15:39:51.000Z</time></trkpt><trkpt lon="15.582173" lat="46.523198"><ele>698</ele><time>2019-09-10T15:39:52.000Z</time></trkpt><trkpt lon="15.5821288" lat="46.5231671"><ele>697</ele><time>2019-09-10T15:39:53.000Z</time></trkpt><trkpt lon="15.5821288" lat="46.5231671"><ele>697</ele><time>2019-09-10T15:39:54.000Z</time></trkpt><trkpt lon="15.5820835" lat="46.5231466"><ele>696</ele><time>2019-09-10T15:39:55.000Z</time></trkpt><trkpt lon="15.5820835" lat="46.5231466"><ele>696</ele><time>2019-09-10T15:39:56.000Z</time></trkpt><trkpt lon="15.5820382" lat="46.5231389"><ele>696</ele><time>2019-09-10T15:39:57.000Z</time></trkpt><trkpt lon="15.5820382" lat="46.5231389"><ele>696</ele><time>2019-09-10T15:39:58.000Z</time></trkpt><trkpt lon="15.5819387" lat="46.5231282"><ele>697</ele><time>2019-09-10T15:39:59.000Z</time></trkpt><trkpt lon="15.5819387" lat="46.5231282"><ele>697</ele><time>2019-09-10T15:40:00.000Z</time></trkpt><trkpt lon="15.5818636" lat="46.5231186"><ele>697</ele><time>2019-09-10T15:40:01.000Z</time></trkpt><trkpt lon="15.5818636" lat="46.5231186"><ele>697</ele><time>2019-09-10T15:40:02.000Z</time></trkpt><trkpt lon="15.5818066" lat="46.523099"><ele>698</ele><time>2019-09-10T15:40:03.000Z</time></trkpt><trkpt lon="15.5818066" lat="46.523099"><ele>698</ele><time>2019-09-10T15:40:04.000Z</time></trkpt><trkpt lon="15.5817385" lat="46.5230773"><ele>699</ele><time>2019-09-10T15:40:05.000Z</time></trkpt><trkpt lon="15.5817385" lat="46.5230773"><ele>699</ele><time>2019-09-10T15:40:06.000Z</time></trkpt><trkpt lon="15.5816672" lat="46.5230585"><ele>699</ele><time>2019-09-10T15:40:07.000Z</time></trkpt><trkpt lon="15.5816177" lat="46.5230465"><ele>700</ele><time>2019-09-10T15:40:08.000Z</time></trkpt><trkpt lon="15.5816177" lat="46.5230465"><ele>700</ele><time>2019-09-10T15:40:09.000Z</time></trkpt><trkpt lon="15.581561" lat="46.5230294"><ele>700</ele><time>2019-09-10T15:40:10.000Z</time></trkpt><trkpt lon="15.581561" lat="46.5230294"><ele>700</ele><time>2019-09-10T15:40:11.000Z</time></trkpt><trkpt lon="15.5814922" lat="46.5229986"><ele>701</ele><time>2019-09-10T15:40:12.000Z</time></trkpt><trkpt lon="15.5814551" lat="46.5229811"><ele>701</ele><time>2019-09-10T15:40:13.000Z</time></trkpt><trkpt lon="15.5814195" lat="46.5229656"><ele>701</ele><time>2019-09-10T15:40:14.000Z</time></trkpt><trkpt lon="15.5814195" lat="46.5229656"><ele>701</ele><time>2019-09-10T15:40:15.000Z</time></trkpt><trkpt lon="15.5813589" lat="46.5229374"><ele>702</ele><time>2019-09-10T15:40:16.000Z</time></trkpt><trkpt lon="15.5813589" lat="46.5229374"><ele>702</ele><time>2019-09-10T15:40:17.000Z</time></trkpt><trkpt lon="15.5812914" lat="46.5229014"><ele>702</ele><time>2019-09-10T15:40:18.000Z</time></trkpt><trkpt lon="15.5812914" lat="46.5229014"><ele>702</ele><time>2019-09-10T15:40:19.000Z</time></trkpt><trkpt lon="15.5812097" lat="46.5228698"><ele>702</ele><time>2019-09-10T15:40:20.000Z</time></trkpt><trkpt lon="15.5812097" lat="46.5228698"><ele>702</ele><time>2019-09-10T15:40:21.000Z</time></trkpt><trkpt lon="15.5811193" lat="46.5228465"><ele>703</ele><time>2019-09-10T15:40:22.000Z</time></trkpt><trkpt lon="15.5810696" lat="46.5228395"><ele>704</ele><time>2019-09-10T15:40:23.000Z</time></trkpt><trkpt lon="15.5810182" lat="46.5228371"><ele>705</ele><time>2019-09-10T15:40:24.000Z</time></trkpt><trkpt lon="15.5810182" lat="46.5228371"><ele>705</ele><time>2019-09-10T15:40:25.000Z</time></trkpt><trkpt lon="15.5809456" lat="46.5228372"><ele>704</ele><time>2019-09-10T15:40:26.000Z</time></trkpt><trkpt lon="15.580746" lat="46.5228283"><ele>705</ele><time>2019-09-10T15:40:27.000Z</time></trkpt><trkpt lon="15.580746" lat="46.5228283"><ele>705</ele><time>2019-09-10T15:40:28.000Z</time></trkpt><trkpt lon="15.5806761" lat="46.5228379"><ele>705</ele><time>2019-09-10T15:40:29.000Z</time></trkpt><trkpt lon="15.5806761" lat="46.5228379"><ele>705</ele><time>2019-09-10T15:40:30.000Z</time></trkpt><trkpt lon="15.5805996" lat="46.5228552"><ele>706</ele><time>2019-09-10T15:40:31.000Z</time></trkpt><trkpt lon="15.5805273" lat="46.5228674"><ele>707</ele><time>2019-09-10T15:40:32.000Z</time></trkpt><trkpt lon="15.5805273" lat="46.5228674"><ele>707</ele><time>2019-09-10T15:40:33.000Z</time></trkpt><trkpt lon="15.5803224" lat="46.5229054"><ele>708</ele><time>2019-09-10T15:40:34.000Z</time></trkpt><trkpt lon="15.5803224" lat="46.5229054"><ele>708</ele><time>2019-09-10T15:40:35.000Z</time></trkpt><trkpt lon="15.5802602" lat="46.5229239"><ele>708</ele><time>2019-09-10T15:40:36.000Z</time></trkpt><trkpt lon="15.5802171" lat="46.522929"><ele>708</ele><time>2019-09-10T15:40:37.000Z</time></trkpt><trkpt lon="15.5802171" lat="46.522929"><ele>708</ele><time>2019-09-10T15:40:38.000Z</time></trkpt><trkpt lon="15.5801189" lat="46.522931"><ele>709</ele><time>2019-09-10T15:40:39.000Z</time></trkpt><trkpt lon="15.5800667" lat="46.5229247"><ele>709</ele><time>2019-09-10T15:40:40.000Z</time></trkpt><trkpt lon="15.5799011" lat="46.5228911"><ele>709</ele><time>2019-09-10T15:40:41.000Z</time></trkpt><trkpt lon="15.5799011" lat="46.5228911"><ele>709</ele><time>2019-09-10T15:40:42.000Z</time></trkpt><trkpt lon="15.5798272" lat="46.5228771"><ele>709</ele><time>2019-09-10T15:40:43.000Z</time></trkpt><trkpt lon="15.5798272" lat="46.5228771"><ele>709</ele><time>2019-09-10T15:40:44.000Z</time></trkpt><trkpt lon="15.5796866" lat="46.5228528"><ele>709</ele><time>2019-09-10T15:40:45.000Z</time></trkpt><trkpt lon="15.5796866" lat="46.5228528"><ele>709</ele><time>2019-09-10T15:40:46.000Z</time></trkpt><trkpt lon="15.5796072" lat="46.5228489"><ele>711</ele><time>2019-09-10T15:40:47.000Z</time></trkpt><trkpt lon="15.5795509" lat="46.5228499"><ele>711</ele><time>2019-09-10T15:40:48.000Z</time></trkpt><trkpt lon="15.5795509" lat="46.5228499"><ele>711</ele><time>2019-09-10T15:40:49.000Z</time></trkpt><trkpt lon="15.5794602" lat="46.522848"><ele>712</ele><time>2019-09-10T15:40:50.000Z</time></trkpt><trkpt lon="15.5794602" lat="46.522848"><ele>712</ele><time>2019-09-10T15:40:51.000Z</time></trkpt><trkpt lon="15.5793908" lat="46.5228444"><ele>712</ele><time>2019-09-10T15:40:52.000Z</time></trkpt><trkpt lon="15.5793433" lat="46.5228428"><ele>712</ele><time>2019-09-10T15:40:53.000Z</time></trkpt><trkpt lon="15.5793433" lat="46.5228428"><ele>712</ele><time>2019-09-10T15:40:54.000Z</time></trkpt><trkpt lon="15.5792233" lat="46.5228398"><ele>712</ele><time>2019-09-10T15:40:55.000Z</time></trkpt><trkpt lon="15.5792233" lat="46.5228398"><ele>712</ele><time>2019-09-10T15:40:56.000Z</time></trkpt><trkpt lon="15.5791319" lat="46.522834"><ele>712</ele><time>2019-09-10T15:40:57.000Z</time></trkpt><trkpt lon="15.5790902" lat="46.5228276"><ele>712</ele><time>2019-09-10T15:40:58.000Z</time></trkpt><trkpt lon="15.5790902" lat="46.5228276"><ele>712</ele><time>2019-09-10T15:40:59.000Z</time></trkpt><trkpt lon="15.5790103" lat="46.5228182"><ele>713</ele><time>2019-09-10T15:41:00.000Z</time></trkpt><trkpt lon="15.5790103" lat="46.5228182"><ele>713</ele><time>2019-09-10T15:41:01.000Z</time></trkpt><trkpt lon="15.5789488" lat="46.5228098"><ele>713</ele><time>2019-09-10T15:41:02.000Z</time></trkpt><trkpt lon="15.5789488" lat="46.5228098"><ele>713</ele><time>2019-09-10T15:41:03.000Z</time></trkpt><trkpt lon="15.5788917" lat="46.522798"><ele>714</ele><time>2019-09-10T15:41:04.000Z</time></trkpt><trkpt lon="15.5788917" lat="46.522798"><ele>714</ele><time>2019-09-10T15:41:05.000Z</time></trkpt><trkpt lon="15.578834" lat="46.5227827"><ele>715</ele><time>2019-09-10T15:41:06.000Z</time></trkpt><trkpt lon="15.578834" lat="46.5227827"><ele>715</ele><time>2019-09-10T15:41:07.000Z</time></trkpt><trkpt lon="15.5787639" lat="46.5227684"><ele>716</ele><time>2019-09-10T15:41:08.000Z</time></trkpt><trkpt lon="15.5787639" lat="46.5227684"><ele>716</ele><time>2019-09-10T15:41:09.000Z</time></trkpt><trkpt lon="15.5786915" lat="46.5227597"><ele>716</ele><time>2019-09-10T15:41:10.000Z</time></trkpt><trkpt lon="15.5786915" lat="46.5227597"><ele>716</ele><time>2019-09-10T15:41:11.000Z</time></trkpt><trkpt lon="15.5786233" lat="46.5227453"><ele>717</ele><time>2019-09-10T15:41:12.000Z</time></trkpt><trkpt lon="15.5786233" lat="46.5227453"><ele>717</ele><time>2019-09-10T15:41:13.000Z</time></trkpt><trkpt lon="15.5785592" lat="46.5227267"><ele>717</ele><time>2019-09-10T15:41:14.000Z</time></trkpt><trkpt lon="15.5785592" lat="46.5227267"><ele>717</ele><time>2019-09-10T15:41:15.000Z</time></trkpt><trkpt lon="15.5785031" lat="46.5227015"><ele>719</ele><time>2019-09-10T15:41:16.000Z</time></trkpt><trkpt lon="15.5785031" lat="46.5227015"><ele>719</ele><time>2019-09-10T15:41:17.000Z</time></trkpt><trkpt lon="15.5784275" lat="46.5226607"><ele>718</ele><time>2019-09-10T15:41:18.000Z</time></trkpt><trkpt lon="15.5784275" lat="46.5226607"><ele>718</ele><time>2019-09-10T15:41:19.000Z</time></trkpt><trkpt lon="15.5782627" lat="46.522572"><ele>719</ele><time>2019-09-10T15:41:20.000Z</time></trkpt><trkpt lon="15.5782124" lat="46.5225499"><ele>719</ele><time>2019-09-10T15:41:21.000Z</time></trkpt><trkpt lon="15.5782124" lat="46.5225499"><ele>719</ele><time>2019-09-10T15:41:22.000Z</time></trkpt><trkpt lon="15.5780967" lat="46.5225093"><ele>720</ele><time>2019-09-10T15:41:23.000Z</time></trkpt><trkpt lon="15.5780384" lat="46.5224922"><ele>720</ele><time>2019-09-10T15:41:24.000Z</time></trkpt><trkpt lon="15.5780016" lat="46.5224799"><ele>720</ele><time>2019-09-10T15:41:25.000Z</time></trkpt><trkpt lon="15.5780016" lat="46.5224799"><ele>720</ele><time>2019-09-10T15:41:26.000Z</time></trkpt><trkpt lon="15.5779429" lat="46.5224651"><ele>720</ele><time>2019-09-10T15:41:27.000Z</time></trkpt><trkpt lon="15.5779429" lat="46.5224651"><ele>720</ele><time>2019-09-10T15:41:28.000Z</time></trkpt><trkpt lon="15.5778699" lat="46.5224539"><ele>721</ele><time>2019-09-10T15:41:29.000Z</time></trkpt><trkpt lon="15.5778699" lat="46.5224539"><ele>721</ele><time>2019-09-10T15:41:30.000Z</time></trkpt><trkpt lon="15.5776968" lat="46.5224456"><ele>721</ele><time>2019-09-10T15:41:31.000Z</time></trkpt><trkpt lon="15.5776382" lat="46.5224578"><ele>721</ele><time>2019-09-10T15:41:32.000Z</time></trkpt><trkpt lon="15.5775793" lat="46.5224659"><ele>721</ele><time>2019-09-10T15:41:33.000Z</time></trkpt><trkpt lon="15.5775793" lat="46.5224659"><ele>721</ele><time>2019-09-10T15:41:34.000Z</time></trkpt><trkpt lon="15.5775123" lat="46.5224928"><ele>722</ele><time>2019-09-10T15:41:35.000Z</time></trkpt><trkpt lon="15.5775123" lat="46.5224928"><ele>722</ele><time>2019-09-10T15:41:36.000Z</time></trkpt><trkpt lon="15.5773993" lat="46.5225394"><ele>722</ele><time>2019-09-10T15:41:37.000Z</time></trkpt><trkpt lon="15.5773534" lat="46.522553"><ele>722</ele><time>2019-09-10T15:41:38.000Z</time></trkpt><trkpt lon="15.577302" lat="46.5225645"><ele>723</ele><time>2019-09-10T15:41:39.000Z</time></trkpt><trkpt lon="15.5772416" lat="46.5225673"><ele>723</ele><time>2019-09-10T15:41:40.000Z</time></trkpt><trkpt lon="15.5771734" lat="46.5225711"><ele>723</ele><time>2019-09-10T15:41:41.000Z</time></trkpt><trkpt lon="15.5771734" lat="46.5225711"><ele>723</ele><time>2019-09-10T15:41:42.000Z</time></trkpt><trkpt lon="15.577066" lat="46.5225615"><ele>723</ele><time>2019-09-10T15:41:43.000Z</time></trkpt><trkpt lon="15.5770164" lat="46.5225564"><ele>723</ele><time>2019-09-10T15:41:44.000Z</time></trkpt><trkpt lon="15.5770164" lat="46.5225564"><ele>723</ele><time>2019-09-10T15:41:45.000Z</time></trkpt><trkpt lon="15.5769083" lat="46.5225336"><ele>723</ele><time>2019-09-10T15:41:46.000Z</time></trkpt><trkpt lon="15.5769083" lat="46.5225336"><ele>723</ele><time>2019-09-10T15:41:47.000Z</time></trkpt><trkpt lon="15.5768374" lat="46.5225204"><ele>723</ele><time>2019-09-10T15:41:48.000Z</time></trkpt><trkpt lon="15.5767891" lat="46.5225122"><ele>723</ele><time>2019-09-10T15:41:49.000Z</time></trkpt><trkpt lon="15.5767891" lat="46.5225122"><ele>723</ele><time>2019-09-10T15:41:50.000Z</time></trkpt><trkpt lon="15.5766788" lat="46.522484"><ele>723</ele><time>2019-09-10T15:41:51.000Z</time></trkpt><trkpt lon="15.5766177" lat="46.5224643"><ele>723</ele><time>2019-09-10T15:41:52.000Z</time></trkpt><trkpt lon="15.5766177" lat="46.5224643"><ele>723</ele><time>2019-09-10T15:41:53.000Z</time></trkpt><trkpt lon="15.5764812" lat="46.5224252"><ele>723</ele><time>2019-09-10T15:41:54.000Z</time></trkpt><trkpt lon="15.5764812" lat="46.5224252"><ele>723</ele><time>2019-09-10T15:41:55.000Z</time></trkpt><trkpt lon="15.576341" lat="46.5223769"><ele>724</ele><time>2019-09-10T15:41:56.000Z</time></trkpt><trkpt lon="15.576341" lat="46.5223769"><ele>724</ele><time>2019-09-10T15:41:57.000Z</time></trkpt><trkpt lon="15.5761086" lat="46.5222951"><ele>724</ele><time>2019-09-10T15:41:58.000Z</time></trkpt><trkpt lon="15.5760461" lat="46.5222729"><ele>725</ele><time>2019-09-10T15:41:59.000Z</time></trkpt><trkpt lon="15.5760461" lat="46.5222729"><ele>725</ele><time>2019-09-10T15:42:00.000Z</time></trkpt><trkpt lon="15.5759551" lat="46.522251"><ele>725</ele><time>2019-09-10T15:42:01.000Z</time></trkpt><trkpt lon="15.5759143" lat="46.522242"><ele>725</ele><time>2019-09-10T15:42:02.000Z</time></trkpt><trkpt lon="15.5759143" lat="46.522242"><ele>725</ele><time>2019-09-10T15:42:03.000Z</time></trkpt><trkpt lon="15.5758313" lat="46.5222109"><ele>726</ele><time>2019-09-10T15:42:04.000Z</time></trkpt><trkpt lon="15.5758313" lat="46.5222109"><ele>726</ele><time>2019-09-10T15:42:05.000Z</time></trkpt><trkpt lon="15.57573" lat="46.5221746"><ele>727</ele><time>2019-09-10T15:42:06.000Z</time></trkpt><trkpt lon="15.57573" lat="46.5221746"><ele>727</ele><time>2019-09-10T15:42:07.000Z</time></trkpt><trkpt lon="15.575631" lat="46.5221319"><ele>727</ele><time>2019-09-10T15:42:08.000Z</time></trkpt><trkpt lon="15.575587" lat="46.5221138"><ele>728</ele><time>2019-09-10T15:42:09.000Z</time></trkpt><trkpt lon="15.575587" lat="46.5221138"><ele>728</ele><time>2019-09-10T15:42:10.000Z</time></trkpt><trkpt lon="15.5755111" lat="46.5220886"><ele>729</ele><time>2019-09-10T15:42:11.000Z</time></trkpt><trkpt lon="15.5755111" lat="46.5220886"><ele>729</ele><time>2019-09-10T15:42:12.000Z</time></trkpt><trkpt lon="15.5754415" lat="46.5220648"><ele>729</ele><time>2019-09-10T15:42:13.000Z</time></trkpt><trkpt lon="15.5754415" lat="46.5220648"><ele>729</ele><time>2019-09-10T15:42:14.000Z</time></trkpt><trkpt lon="15.5753757" lat="46.5220392"><ele>729</ele><time>2019-09-10T15:42:15.000Z</time></trkpt><trkpt lon="15.5753757" lat="46.5220392"><ele>729</ele><time>2019-09-10T15:42:16.000Z</time></trkpt><trkpt lon="15.5753039" lat="46.5220118"><ele>730</ele><time>2019-09-10T15:42:17.000Z</time></trkpt><trkpt lon="15.5753039" lat="46.5220118"><ele>730</ele><time>2019-09-10T15:42:18.000Z</time></trkpt><trkpt lon="15.5752469" lat="46.521996"><ele>731</ele><time>2019-09-10T15:42:19.000Z</time></trkpt><trkpt lon="15.5752469" lat="46.521996"><ele>731</ele><time>2019-09-10T15:42:20.000Z</time></trkpt><trkpt lon="15.5751977" lat="46.5219788"><ele>731</ele><time>2019-09-10T15:42:21.000Z</time></trkpt><trkpt lon="15.5751977" lat="46.5219788"><ele>731</ele><time>2019-09-10T15:42:22.000Z</time></trkpt><trkpt lon="15.5751603" lat="46.5219573"><ele>731</ele><time>2019-09-10T15:42:23.000Z</time></trkpt><trkpt lon="15.5751603" lat="46.5219573"><ele>731</ele><time>2019-09-10T15:42:24.000Z</time></trkpt><trkpt lon="15.5751603" lat="46.5219573"><ele>731</ele><time>2019-09-10T15:42:25.000Z</time></trkpt><trkpt lon="15.5751173" lat="46.5219371"><ele>732</ele><time>2019-09-10T15:42:26.000Z</time></trkpt><trkpt lon="15.5751173" lat="46.5219371"><ele>732</ele><time>2019-09-10T15:42:27.000Z</time></trkpt><trkpt lon="15.5750798" lat="46.5219157"><ele>731</ele><time>2019-09-10T15:42:28.000Z</time></trkpt><trkpt lon="15.5750798" lat="46.5219157"><ele>731</ele><time>2019-09-10T15:42:29.000Z</time></trkpt><trkpt lon="15.575028" lat="46.5218946"><ele>732</ele><time>2019-09-10T15:42:30.000Z</time></trkpt><trkpt lon="15.575028" lat="46.5218946"><ele>732</ele><time>2019-09-10T15:42:31.000Z</time></trkpt><trkpt lon="15.5749771" lat="46.5218879"><ele>732</ele><time>2019-09-10T15:42:32.000Z</time></trkpt><trkpt lon="15.5749771" lat="46.5218879"><ele>732</ele><time>2019-09-10T15:42:33.000Z</time></trkpt><trkpt lon="15.5749312" lat="46.5218995"><ele>732</ele><time>2019-09-10T15:42:34.000Z</time></trkpt><trkpt lon="15.5749312" lat="46.5218995"><ele>732</ele><time>2019-09-10T15:42:35.000Z</time></trkpt><trkpt lon="15.574868" lat="46.5219144"><ele>732</ele><time>2019-09-10T15:42:36.000Z</time></trkpt><trkpt lon="15.574868" lat="46.5219144"><ele>732</ele><time>2019-09-10T15:42:37.000Z</time></trkpt><trkpt lon="15.5747914" lat="46.5219416"><ele>733</ele><time>2019-09-10T15:42:38.000Z</time></trkpt><trkpt lon="15.5747914" lat="46.5219416"><ele>733</ele><time>2019-09-10T15:42:39.000Z</time></trkpt><trkpt lon="15.5747058" lat="46.5219844"><ele>733</ele><time>2019-09-10T15:42:40.000Z</time></trkpt><trkpt lon="15.5746595" lat="46.5220057"><ele>733</ele><time>2019-09-10T15:42:41.000Z</time></trkpt><trkpt lon="15.5746595" lat="46.5220057"><ele>733</ele><time>2019-09-10T15:42:42.000Z</time></trkpt><trkpt lon="15.5745397" lat="46.5220359"><ele>734</ele><time>2019-09-10T15:42:43.000Z</time></trkpt><trkpt lon="15.5745397" lat="46.5220359"><ele>734</ele><time>2019-09-10T15:42:44.000Z</time></trkpt><trkpt lon="15.5744017" lat="46.5220588"><ele>735</ele><time>2019-09-10T15:42:45.000Z</time></trkpt><trkpt lon="15.5744017" lat="46.5220588"><ele>735</ele><time>2019-09-10T15:42:46.000Z</time></trkpt><trkpt lon="15.5742709" lat="46.5220864"><ele>736</ele><time>2019-09-10T15:42:47.000Z</time></trkpt><trkpt lon="15.5742203" lat="46.5221014"><ele>737</ele><time>2019-09-10T15:42:48.000Z</time></trkpt><trkpt lon="15.574181" lat="46.5221212"><ele>737</ele><time>2019-09-10T15:42:49.000Z</time></trkpt><trkpt lon="15.574181" lat="46.5221212"><ele>737</ele><time>2019-09-10T15:42:50.000Z</time></trkpt><trkpt lon="15.5741346" lat="46.5221809"><ele>738</ele><time>2019-09-10T15:42:51.000Z</time></trkpt><trkpt lon="15.5741346" lat="46.5221809"><ele>738</ele><time>2019-09-10T15:42:52.000Z</time></trkpt><trkpt lon="15.574111" lat="46.5222536"><ele>737</ele><time>2019-09-10T15:42:53.000Z</time></trkpt><trkpt lon="15.574111" lat="46.5222536"><ele>737</ele><time>2019-09-10T15:42:54.000Z</time></trkpt><trkpt lon="15.5740987" lat="46.5223133"><ele>738</ele><time>2019-09-10T15:42:55.000Z</time></trkpt><trkpt lon="15.5740987" lat="46.5223133"><ele>738</ele><time>2019-09-10T15:42:56.000Z</time></trkpt><trkpt lon="15.5740858" lat="46.522369"><ele>738</ele><time>2019-09-10T15:42:57.000Z</time></trkpt><trkpt lon="15.5740757" lat="46.5224014"><ele>739</ele><time>2019-09-10T15:42:58.000Z</time></trkpt><trkpt lon="15.5740714" lat="46.522432"><ele>739</ele><time>2019-09-10T15:42:59.000Z</time></trkpt><trkpt lon="15.5740714" lat="46.522432"><ele>739</ele><time>2019-09-10T15:43:00.000Z</time></trkpt><trkpt lon="15.5740649" lat="46.5224923"><ele>739</ele><time>2019-09-10T15:43:01.000Z</time></trkpt><trkpt lon="15.5740587" lat="46.5225303"><ele>738</ele><time>2019-09-10T15:43:02.000Z</time></trkpt><trkpt lon="15.5740587" lat="46.5225303"><ele>738</ele><time>2019-09-10T15:43:03.000Z</time></trkpt><trkpt lon="15.5740443" lat="46.5226248"><ele>739</ele><time>2019-09-10T15:43:04.000Z</time></trkpt><trkpt lon="15.5740443" lat="46.5226248"><ele>739</ele><time>2019-09-10T15:43:05.000Z</time></trkpt><trkpt lon="15.5740298" lat="46.5227276"><ele>740</ele><time>2019-09-10T15:43:06.000Z</time></trkpt><trkpt lon="15.5740258" lat="46.5227752"><ele>741</ele><time>2019-09-10T15:43:07.000Z</time></trkpt><trkpt lon="15.5740258" lat="46.5228218"><ele>742</ele><time>2019-09-10T15:43:08.000Z</time></trkpt><trkpt lon="15.5740258" lat="46.5228218"><ele>742</ele><time>2019-09-10T15:43:09.000Z</time></trkpt><trkpt lon="15.5740282" lat="46.5229151"><ele>742</ele><time>2019-09-10T15:43:10.000Z</time></trkpt><trkpt lon="15.5740282" lat="46.5229151"><ele>742</ele><time>2019-09-10T15:43:11.000Z</time></trkpt><trkpt lon="15.5740351" lat="46.5230033"><ele>743</ele><time>2019-09-10T15:43:12.000Z</time></trkpt><trkpt lon="15.574039" lat="46.5230392"><ele>743</ele><time>2019-09-10T15:43:13.000Z</time></trkpt><trkpt lon="15.5740417" lat="46.5230754"><ele>743</ele><time>2019-09-10T15:43:14.000Z</time></trkpt><trkpt lon="15.5740417" lat="46.5230754"><ele>743</ele><time>2019-09-10T15:43:15.000Z</time></trkpt><trkpt lon="15.5740346" lat="46.5231545"><ele>743</ele><time>2019-09-10T15:43:16.000Z</time></trkpt><trkpt lon="15.5740173" lat="46.5231996"><ele>743</ele><time>2019-09-10T15:43:17.000Z</time></trkpt><trkpt lon="15.5740173" lat="46.5231996"><ele>743</ele><time>2019-09-10T15:43:18.000Z</time></trkpt><trkpt lon="15.5739582" lat="46.5232821"><ele>743</ele><time>2019-09-10T15:43:19.000Z</time></trkpt><trkpt lon="15.5739201" lat="46.5233158"><ele>744</ele><time>2019-09-10T15:43:20.000Z</time></trkpt><trkpt lon="15.5738781" lat="46.5233452"><ele>744</ele><time>2019-09-10T15:43:21.000Z</time></trkpt><trkpt lon="15.5738383" lat="46.5233656"><ele>745</ele><time>2019-09-10T15:43:22.000Z</time></trkpt><trkpt lon="15.5738383" lat="46.5233656"><ele>745</ele><time>2019-09-10T15:43:23.000Z</time></trkpt><trkpt lon="15.5737611" lat="46.523399"><ele>746</ele><time>2019-09-10T15:43:24.000Z</time></trkpt><trkpt lon="15.5737178" lat="46.5234153"><ele>746</ele><time>2019-09-10T15:43:25.000Z</time></trkpt><trkpt lon="15.5736739" lat="46.5234294"><ele>746</ele><time>2019-09-10T15:43:26.000Z</time></trkpt><trkpt lon="15.5736739" lat="46.5234294"><ele>746</ele><time>2019-09-10T15:43:27.000Z</time></trkpt><trkpt lon="15.5735811" lat="46.5234479"><ele>746</ele><time>2019-09-10T15:43:28.000Z</time></trkpt><trkpt lon="15.5735811" lat="46.5234479"><ele>746</ele><time>2019-09-10T15:43:29.000Z</time></trkpt><trkpt lon="15.5735026" lat="46.5234576"><ele>746</ele><time>2019-09-10T15:43:30.000Z</time></trkpt><trkpt lon="15.5735026" lat="46.5234576"><ele>746</ele><time>2019-09-10T15:43:31.000Z</time></trkpt><trkpt lon="15.5734276" lat="46.5234665"><ele>747</ele><time>2019-09-10T15:43:32.000Z</time></trkpt><trkpt lon="15.5734276" lat="46.5234665"><ele>747</ele><time>2019-09-10T15:43:33.000Z</time></trkpt><trkpt lon="15.5733531" lat="46.5234747"><ele>747</ele><time>2019-09-10T15:43:34.000Z</time></trkpt><trkpt lon="15.5733531" lat="46.5234747"><ele>747</ele><time>2019-09-10T15:43:35.000Z</time></trkpt><trkpt lon="15.5732699" lat="46.5234791"><ele>748</ele><time>2019-09-10T15:43:36.000Z</time></trkpt><trkpt lon="15.5732699" lat="46.5234791"><ele>748</ele><time>2019-09-10T15:43:37.000Z</time></trkpt><trkpt lon="15.5731898" lat="46.5234787"><ele>748</ele><time>2019-09-10T15:43:38.000Z</time></trkpt><trkpt lon="15.5731898" lat="46.5234787"><ele>748</ele><time>2019-09-10T15:43:39.000Z</time></trkpt><trkpt lon="15.5731032" lat="46.5234795"><ele>749</ele><time>2019-09-10T15:43:40.000Z</time></trkpt><trkpt lon="15.573057" lat="46.5234831"><ele>749</ele><time>2019-09-10T15:43:41.000Z</time></trkpt><trkpt lon="15.573057" lat="46.5234831"><ele>749</ele><time>2019-09-10T15:43:42.000Z</time></trkpt><trkpt lon="15.572951" lat="46.5234827"><ele>749</ele><time>2019-09-10T15:43:43.000Z</time></trkpt><trkpt lon="15.5728931" lat="46.5234743"><ele>749</ele><time>2019-09-10T15:43:44.000Z</time></trkpt><trkpt lon="15.5728931" lat="46.5234743"><ele>749</ele><time>2019-09-10T15:43:45.000Z</time></trkpt><trkpt lon="15.5727951" lat="46.5234597"><ele>749</ele><time>2019-09-10T15:43:46.000Z</time></trkpt><trkpt lon="15.572746" lat="46.5234534"><ele>749</ele><time>2019-09-10T15:43:47.000Z</time></trkpt><trkpt lon="15.572746" lat="46.5234534"><ele>749</ele><time>2019-09-10T15:43:48.000Z</time></trkpt><trkpt lon="15.5726479" lat="46.5234454"><ele>750</ele><time>2019-09-10T15:43:49.000Z</time></trkpt><trkpt lon="15.5726479" lat="46.5234454"><ele>750</ele><time>2019-09-10T15:43:50.000Z</time></trkpt><trkpt lon="15.5725571" lat="46.5234373"><ele>750</ele><time>2019-09-10T15:43:51.000Z</time></trkpt><trkpt lon="15.5725571" lat="46.5234373"><ele>750</ele><time>2019-09-10T15:43:52.000Z</time></trkpt><trkpt lon="15.5724621" lat="46.5234215"><ele>751</ele><time>2019-09-10T15:43:53.000Z</time></trkpt><trkpt lon="15.5724621" lat="46.5234215"><ele>751</ele><time>2019-09-10T15:43:54.000Z</time></trkpt><trkpt lon="15.5723476" lat="46.5233972"><ele>751</ele><time>2019-09-10T15:43:55.000Z</time></trkpt><trkpt lon="15.5722834" lat="46.5233858"><ele>752</ele><time>2019-09-10T15:43:56.000Z</time></trkpt><trkpt lon="15.5722834" lat="46.5233858"><ele>752</ele><time>2019-09-10T15:43:57.000Z</time></trkpt><trkpt lon="15.5721513" lat="46.5233658"><ele>753</ele><time>2019-09-10T15:43:58.000Z</time></trkpt><trkpt lon="15.5721513" lat="46.5233658"><ele>753</ele><time>2019-09-10T15:43:59.000Z</time></trkpt><trkpt lon="15.5720395" lat="46.5233401"><ele>753</ele><time>2019-09-10T15:44:00.000Z</time></trkpt><trkpt lon="15.5719864" lat="46.5233261"><ele>753</ele><time>2019-09-10T15:44:01.000Z</time></trkpt><trkpt lon="15.5719325" lat="46.5233113"><ele>753</ele><time>2019-09-10T15:44:02.000Z</time></trkpt><trkpt lon="15.5718754" lat="46.5232951"><ele>753</ele><time>2019-09-10T15:44:03.000Z</time></trkpt><trkpt lon="15.5718754" lat="46.5232951"><ele>753</ele><time>2019-09-10T15:44:04.000Z</time></trkpt><trkpt lon="15.5717191" lat="46.5232522"><ele>754</ele><time>2019-09-10T15:44:05.000Z</time></trkpt><trkpt lon="15.5716561" lat="46.5232317"><ele>754</ele><time>2019-09-10T15:44:06.000Z</time></trkpt><trkpt lon="15.5716561" lat="46.5232317"><ele>754</ele><time>2019-09-10T15:44:07.000Z</time></trkpt><trkpt lon="15.5715398" lat="46.5231963"><ele>755</ele><time>2019-09-10T15:44:08.000Z</time></trkpt><trkpt lon="15.571483" lat="46.5231754"><ele>754</ele><time>2019-09-10T15:44:09.000Z</time></trkpt><trkpt lon="15.571483" lat="46.5231754"><ele>754</ele><time>2019-09-10T15:44:10.000Z</time></trkpt><trkpt lon="15.5713709" lat="46.5231256"><ele>754</ele><time>2019-09-10T15:44:11.000Z</time></trkpt><trkpt lon="15.5713231" lat="46.5231021"><ele>754</ele><time>2019-09-10T15:44:12.000Z</time></trkpt><trkpt lon="15.571278" lat="46.5230797"><ele>755</ele><time>2019-09-10T15:44:13.000Z</time></trkpt><trkpt lon="15.571278" lat="46.5230797"><ele>755</ele><time>2019-09-10T15:44:14.000Z</time></trkpt><trkpt lon="15.5712013" lat="46.5230368"><ele>755</ele><time>2019-09-10T15:44:15.000Z</time></trkpt><trkpt lon="15.571174" lat="46.5230162"><ele>755</ele><time>2019-09-10T15:44:16.000Z</time></trkpt><trkpt lon="15.5711509" lat="46.5229941"><ele>756</ele><time>2019-09-10T15:44:17.000Z</time></trkpt><trkpt lon="15.5711509" lat="46.5229941"><ele>756</ele><time>2019-09-10T15:44:18.000Z</time></trkpt><trkpt lon="15.5711107" lat="46.5229374"><ele>757</ele><time>2019-09-10T15:44:19.000Z</time></trkpt><trkpt lon="15.5710988" lat="46.5229099"><ele>757</ele><time>2019-09-10T15:44:20.000Z</time></trkpt><trkpt lon="15.5710988" lat="46.5229099"><ele>757</ele><time>2019-09-10T15:44:21.000Z</time></trkpt><trkpt lon="15.5710875" lat="46.522867"><ele>757</ele><time>2019-09-10T15:44:22.000Z</time></trkpt><trkpt lon="15.5710804" lat="46.522839"><ele>758</ele><time>2019-09-10T15:44:23.000Z</time></trkpt><trkpt lon="15.571071" lat="46.5228085"><ele>758</ele><time>2019-09-10T15:44:24.000Z</time></trkpt><trkpt lon="15.571071" lat="46.5228085"><ele>758</ele><time>2019-09-10T15:44:25.000Z</time></trkpt><trkpt lon="15.5710468" lat="46.5227497"><ele>758</ele><time>2019-09-10T15:44:26.000Z</time></trkpt><trkpt lon="15.5710468" lat="46.5227497"><ele>758</ele><time>2019-09-10T15:44:27.000Z</time></trkpt><trkpt lon="15.5710208" lat="46.52269"><ele>759</ele><time>2019-09-10T15:44:28.000Z</time></trkpt><trkpt lon="15.5710066" lat="46.5226618"><ele>759</ele><time>2019-09-10T15:44:29.000Z</time></trkpt><trkpt lon="15.5710066" lat="46.5226618"><ele>759</ele><time>2019-09-10T15:44:30.000Z</time></trkpt><trkpt lon="15.570976" lat="46.5226025"><ele>759</ele><time>2019-09-10T15:44:31.000Z</time></trkpt><trkpt lon="15.5709614" lat="46.5225692"><ele>760</ele><time>2019-09-10T15:44:32.000Z</time></trkpt><trkpt lon="15.5709614" lat="46.5225692"><ele>760</ele><time>2019-09-10T15:44:33.000Z</time></trkpt><trkpt lon="15.570936" lat="46.5224924"><ele>760</ele><time>2019-09-10T15:44:34.000Z</time></trkpt><trkpt lon="15.570936" lat="46.5224924"><ele>760</ele><time>2019-09-10T15:44:35.000Z</time></trkpt><trkpt lon="15.5709147" lat="46.522415"><ele>760</ele><time>2019-09-10T15:44:36.000Z</time></trkpt><trkpt lon="15.5709147" lat="46.522415"><ele>760</ele><time>2019-09-10T15:44:37.000Z</time></trkpt><trkpt lon="15.570902" lat="46.522312"><ele>760</ele><time>2019-09-10T15:44:38.000Z</time></trkpt><trkpt lon="15.570902" lat="46.522312"><ele>760</ele><time>2019-09-10T15:44:39.000Z</time></trkpt><trkpt lon="15.5708937" lat="46.5222433"><ele>762</ele><time>2019-09-10T15:44:40.000Z</time></trkpt><trkpt lon="15.5708937" lat="46.5222433"><ele>762</ele><time>2019-09-10T15:44:41.000Z</time></trkpt><trkpt lon="15.5708795" lat="46.522166"><ele>763</ele><time>2019-09-10T15:44:42.000Z</time></trkpt><trkpt lon="15.5708795" lat="46.522166"><ele>763</ele><time>2019-09-10T15:44:43.000Z</time></trkpt><trkpt lon="15.5708648" lat="46.5220955"><ele>763</ele><time>2019-09-10T15:44:44.000Z</time></trkpt><trkpt lon="15.5708648" lat="46.5220955"><ele>763</ele><time>2019-09-10T15:44:45.000Z</time></trkpt><trkpt lon="15.5708503" lat="46.5220547"><ele>763</ele><time>2019-09-10T15:44:46.000Z</time></trkpt><trkpt lon="15.5708503" lat="46.5220547"><ele>763</ele><time>2019-09-10T15:44:47.000Z</time></trkpt><trkpt lon="15.5708238" lat="46.5219991"><ele>763</ele><time>2019-09-10T15:44:48.000Z</time></trkpt><trkpt lon="15.5708238" lat="46.5219991"><ele>763</ele><time>2019-09-10T15:44:49.000Z</time></trkpt><trkpt lon="15.5707908" lat="46.5219482"><ele>764</ele><time>2019-09-10T15:44:50.000Z</time></trkpt><trkpt lon="15.5707732" lat="46.5219178"><ele>763</ele><time>2019-09-10T15:44:51.000Z</time></trkpt><trkpt lon="15.5707732" lat="46.5219178"><ele>763</ele><time>2019-09-10T15:44:52.000Z</time></trkpt><trkpt lon="15.570741" lat="46.5218478"><ele>763</ele><time>2019-09-10T15:44:53.000Z</time></trkpt><trkpt lon="15.570741" lat="46.5218478"><ele>763</ele><time>2019-09-10T15:44:54.000Z</time></trkpt><trkpt lon="15.570709" lat="46.5217679"><ele>764</ele><time>2019-09-10T15:44:55.000Z</time></trkpt><trkpt lon="15.570709" lat="46.5217679"><ele>764</ele><time>2019-09-10T15:44:56.000Z</time></trkpt><trkpt lon="15.5706825" lat="46.5216947"><ele>764</ele><time>2019-09-10T15:44:57.000Z</time></trkpt><trkpt lon="15.5706825" lat="46.5216947"><ele>764</ele><time>2019-09-10T15:44:58.000Z</time></trkpt><trkpt lon="15.5706614" lat="46.5216219"><ele>766</ele><time>2019-09-10T15:44:59.000Z</time></trkpt><trkpt lon="15.5706614" lat="46.5216219"><ele>766</ele><time>2019-09-10T15:45:00.000Z</time></trkpt><trkpt lon="15.5706388" lat="46.5215425"><ele>767</ele><time>2019-09-10T15:45:01.000Z</time></trkpt><trkpt lon="15.5706388" lat="46.5215425"><ele>767</ele><time>2019-09-10T15:45:02.000Z</time></trkpt><trkpt lon="15.5706183" lat="46.5214693"><ele>768</ele><time>2019-09-10T15:45:03.000Z</time></trkpt><trkpt lon="15.5706183" lat="46.5214693"><ele>768</ele><time>2019-09-10T15:45:04.000Z</time></trkpt><trkpt lon="15.5705982" lat="46.5213977"><ele>769</ele><time>2019-09-10T15:45:05.000Z</time></trkpt><trkpt lon="15.5705982" lat="46.5213977"><ele>769</ele><time>2019-09-10T15:45:06.000Z</time></trkpt><trkpt lon="15.5705802" lat="46.521333"><ele>770</ele><time>2019-09-10T15:45:07.000Z</time></trkpt><trkpt lon="15.5705726" lat="46.5213049"><ele>770</ele><time>2019-09-10T15:45:08.000Z</time></trkpt><trkpt lon="15.5705726" lat="46.5213049"><ele>770</ele><time>2019-09-10T15:45:09.000Z</time></trkpt><trkpt lon="15.5705552" lat="46.5212518"><ele>770</ele><time>2019-09-10T15:45:10.000Z</time></trkpt><trkpt lon="15.5705419" lat="46.5212264"><ele>771</ele><time>2019-09-10T15:45:11.000Z</time></trkpt><trkpt lon="15.5705419" lat="46.5212264"><ele>771</ele><time>2019-09-10T15:45:12.000Z</time></trkpt><trkpt lon="15.570519" lat="46.5211679"><ele>770</ele><time>2019-09-10T15:45:13.000Z</time></trkpt><trkpt lon="15.570519" lat="46.5211679"><ele>770</ele><time>2019-09-10T15:45:14.000Z</time></trkpt><trkpt lon="15.5704938" lat="46.5211093"><ele>771</ele><time>2019-09-10T15:45:15.000Z</time></trkpt><trkpt lon="15.5704796" lat="46.5210784"><ele>771</ele><time>2019-09-10T15:45:16.000Z</time></trkpt><trkpt lon="15.5704796" lat="46.5210784"><ele>771</ele><time>2019-09-10T15:45:17.000Z</time></trkpt><trkpt lon="15.5704516" lat="46.5210179"><ele>772</ele><time>2019-09-10T15:45:18.000Z</time></trkpt><trkpt lon="15.5704516" lat="46.5210179"><ele>772</ele><time>2019-09-10T15:45:19.000Z</time></trkpt><trkpt lon="15.5704119" lat="46.5209536"><ele>773</ele><time>2019-09-10T15:45:20.000Z</time></trkpt><trkpt lon="15.5704119" lat="46.5209536"><ele>773</ele><time>2019-09-10T15:45:21.000Z</time></trkpt><trkpt lon="15.5703709" lat="46.5208847"><ele>773</ele><time>2019-09-10T15:45:22.000Z</time></trkpt><trkpt lon="15.5703497" lat="46.5208502"><ele>774</ele><time>2019-09-10T15:45:23.000Z</time></trkpt><trkpt lon="15.5703497" lat="46.5208502"><ele>774</ele><time>2019-09-10T15:45:24.000Z</time></trkpt><trkpt lon="15.5703136" lat="46.5207839"><ele>775</ele><time>2019-09-10T15:45:25.000Z</time></trkpt><trkpt lon="15.5702975" lat="46.5207522"><ele>775</ele><time>2019-09-10T15:45:26.000Z</time></trkpt><trkpt lon="15.5702975" lat="46.5207522"><ele>775</ele><time>2019-09-10T15:45:27.000Z</time></trkpt><trkpt lon="15.5702646" lat="46.5206832"><ele>776</ele><time>2019-09-10T15:45:29.000Z</time></trkpt><trkpt lon="15.5702646" lat="46.5206832"><ele>776</ele><time>2019-09-10T15:45:30.000Z</time></trkpt><trkpt lon="15.5702384" lat="46.5206155"><ele>777</ele><time>2019-09-10T15:45:31.000Z</time></trkpt><trkpt lon="15.5702235" lat="46.5205827"><ele>778</ele><time>2019-09-10T15:45:32.000Z</time></trkpt><trkpt lon="15.5702064" lat="46.5205507"><ele>778</ele><time>2019-09-10T15:45:33.000Z</time></trkpt><trkpt lon="15.5702064" lat="46.5205507"><ele>778</ele><time>2019-09-10T15:45:34.000Z</time></trkpt><trkpt lon="15.5701735" lat="46.5204898"><ele>779</ele><time>2019-09-10T15:45:35.000Z</time></trkpt><trkpt lon="15.5701577" lat="46.5204628"><ele>779</ele><time>2019-09-10T15:45:36.000Z</time></trkpt><trkpt lon="15.5701422" lat="46.520432"><ele>778</ele><time>2019-09-10T15:45:37.000Z</time></trkpt><trkpt lon="15.5701422" lat="46.520432"><ele>778</ele><time>2019-09-10T15:45:38.000Z</time></trkpt><trkpt lon="15.5701164" lat="46.5203734"><ele>779</ele><time>2019-09-10T15:45:39.000Z</time></trkpt><trkpt lon="15.5701164" lat="46.5203734"><ele>779</ele><time>2019-09-10T15:45:40.000Z</time></trkpt><trkpt lon="15.5700824" lat="46.5203192"><ele>779</ele><time>2019-09-10T15:45:41.000Z</time></trkpt><trkpt lon="15.5700824" lat="46.5203192"><ele>779</ele><time>2019-09-10T15:45:42.000Z</time></trkpt><trkpt lon="15.5700457" lat="46.5202728"><ele>780</ele><time>2019-09-10T15:45:43.000Z</time></trkpt><trkpt lon="15.5700457" lat="46.5202728"><ele>780</ele><time>2019-09-10T15:45:44.000Z</time></trkpt><trkpt lon="15.570011" lat="46.520234"><ele>780</ele><time>2019-09-10T15:45:45.000Z</time></trkpt><trkpt lon="15.570011" lat="46.520234"><ele>780</ele><time>2019-09-10T15:45:46.000Z</time></trkpt><trkpt lon="15.5699778" lat="46.5201978"><ele>781</ele><time>2019-09-10T15:45:47.000Z</time></trkpt><trkpt lon="15.5699778" lat="46.5201978"><ele>781</ele><time>2019-09-10T15:45:48.000Z</time></trkpt><trkpt lon="15.5699409" lat="46.5201571"><ele>781</ele><time>2019-09-10T15:45:49.000Z</time></trkpt><trkpt lon="15.5699151" lat="46.5201303"><ele>781</ele><time>2019-09-10T15:45:50.000Z</time></trkpt><trkpt lon="15.5698785" lat="46.5200959"><ele>780</ele><time>2019-09-10T15:45:51.000Z</time></trkpt><trkpt lon="15.5698785" lat="46.5200959"><ele>780</ele><time>2019-09-10T15:45:52.000Z</time></trkpt><trkpt lon="15.5697855" lat="46.5200167"><ele>780</ele><time>2019-09-10T15:45:53.000Z</time></trkpt><trkpt lon="15.5697855" lat="46.5200167"><ele>780</ele><time>2019-09-10T15:45:54.000Z</time></trkpt><trkpt lon="15.569689" lat="46.5199779"><ele>782</ele><time>2019-09-10T15:45:55.000Z</time></trkpt><trkpt lon="15.569689" lat="46.5199779"><ele>782</ele><time>2019-09-10T15:45:56.000Z</time></trkpt><trkpt lon="15.5695754" lat="46.519965"><ele>783</ele><time>2019-09-10T15:45:57.000Z</time></trkpt><trkpt lon="15.5695754" lat="46.519965"><ele>783</ele><time>2019-09-10T15:45:58.000Z</time></trkpt><trkpt lon="15.5694628" lat="46.5199914"><ele>783</ele><time>2019-09-10T15:45:59.000Z</time></trkpt><trkpt lon="15.5694628" lat="46.5199914"><ele>783</ele><time>2019-09-10T15:46:00.000Z</time></trkpt><trkpt lon="15.5693617" lat="46.5200196"><ele>784</ele><time>2019-09-10T15:46:01.000Z</time></trkpt><trkpt lon="15.5693108" lat="46.5200295"><ele>784</ele><time>2019-09-10T15:46:02.000Z</time></trkpt><trkpt lon="15.5693108" lat="46.5200295"><ele>784</ele><time>2019-09-10T15:46:03.000Z</time></trkpt><trkpt lon="15.5691814" lat="46.5200357"><ele>785</ele><time>2019-09-10T15:46:04.000Z</time></trkpt><trkpt lon="15.5691814" lat="46.5200357"><ele>785</ele><time>2019-09-10T15:46:05.000Z</time></trkpt><trkpt lon="15.5690456" lat="46.5200389"><ele>785</ele><time>2019-09-10T15:46:06.000Z</time></trkpt><trkpt lon="15.5689841" lat="46.5200444"><ele>786</ele><time>2019-09-10T15:46:07.000Z</time></trkpt><trkpt lon="15.5689841" lat="46.5200444"><ele>786</ele><time>2019-09-10T15:46:08.000Z</time></trkpt><trkpt lon="15.5688792" lat="46.5200605"><ele>787</ele><time>2019-09-10T15:46:09.000Z</time></trkpt><trkpt lon="15.5688087" lat="46.5200752"><ele>787</ele><time>2019-09-10T15:46:10.000Z</time></trkpt><trkpt lon="15.5687571" lat="46.5200878"><ele>786</ele><time>2019-09-10T15:46:11.000Z</time></trkpt><trkpt lon="15.5687571" lat="46.5200878"><ele>786</ele><time>2019-09-10T15:46:12.000Z</time></trkpt><trkpt lon="15.5686825" lat="46.5201357"><ele>789</ele><time>2019-09-10T15:46:13.000Z</time></trkpt><trkpt lon="15.5686103" lat="46.5201896"><ele>789</ele><time>2019-09-10T15:46:14.000Z</time></trkpt><trkpt lon="15.5686103" lat="46.5201896"><ele>789</ele><time>2019-09-10T15:46:15.000Z</time></trkpt><trkpt lon="15.5685295" lat="46.5202432"><ele>789</ele><time>2019-09-10T15:46:16.000Z</time></trkpt><trkpt lon="15.5684955" lat="46.5202714"><ele>789</ele><time>2019-09-10T15:46:17.000Z</time></trkpt><trkpt lon="15.5684632" lat="46.5203008"><ele>789</ele><time>2019-09-10T15:46:18.000Z</time></trkpt><trkpt lon="15.568428" lat="46.5203279"><ele>789</ele><time>2019-09-10T15:46:19.000Z</time></trkpt><trkpt lon="15.568428" lat="46.5203279"><ele>789</ele><time>2019-09-10T15:46:20.000Z</time></trkpt><trkpt lon="15.5683539" lat="46.5203883"><ele>790</ele><time>2019-09-10T15:46:21.000Z</time></trkpt><trkpt lon="15.5683539" lat="46.5203883"><ele>790</ele><time>2019-09-10T15:46:22.000Z</time></trkpt><trkpt lon="15.5682962" lat="46.5204546"><ele>790</ele><time>2019-09-10T15:46:23.000Z</time></trkpt><trkpt lon="15.5682962" lat="46.5204546"><ele>790</ele><time>2019-09-10T15:46:24.000Z</time></trkpt><trkpt lon="15.5682199" lat="46.5205274"><ele>790</ele><time>2019-09-10T15:46:25.000Z</time></trkpt><trkpt lon="15.5681952" lat="46.520556"><ele>791</ele><time>2019-09-10T15:46:26.000Z</time></trkpt><trkpt lon="15.5681952" lat="46.520556"><ele>791</ele><time>2019-09-10T15:46:27.000Z</time></trkpt><trkpt lon="15.5681417" lat="46.5206212"><ele>792</ele><time>2019-09-10T15:46:28.000Z</time></trkpt><trkpt lon="15.5681041" lat="46.5206556"><ele>792</ele><time>2019-09-10T15:46:29.000Z</time></trkpt><trkpt lon="15.5681041" lat="46.5206556"><ele>792</ele><time>2019-09-10T15:46:30.000Z</time></trkpt><trkpt lon="15.568045" lat="46.5207233"><ele>793</ele><time>2019-09-10T15:46:31.000Z</time></trkpt><trkpt lon="15.568045" lat="46.5207233"><ele>793</ele><time>2019-09-10T15:46:32.000Z</time></trkpt><trkpt lon="15.5679785" lat="46.5207855"><ele>793</ele><time>2019-09-10T15:46:33.000Z</time></trkpt><trkpt lon="15.5679785" lat="46.5207855"><ele>793</ele><time>2019-09-10T15:46:34.000Z</time></trkpt><trkpt lon="15.5679077" lat="46.5208487"><ele>794</ele><time>2019-09-10T15:46:35.000Z</time></trkpt><trkpt lon="15.5679077" lat="46.5208487"><ele>794</ele><time>2019-09-10T15:46:36.000Z</time></trkpt><trkpt lon="15.567838" lat="46.5209182"><ele>794</ele><time>2019-09-10T15:46:37.000Z</time></trkpt><trkpt lon="15.5678064" lat="46.5209454"><ele>794</ele><time>2019-09-10T15:46:38.000Z</time></trkpt><trkpt lon="15.5677744" lat="46.5209716"><ele>795</ele><time>2019-09-10T15:46:39.000Z</time></trkpt><trkpt lon="15.5677744" lat="46.5209716"><ele>795</ele><time>2019-09-10T15:46:40.000Z</time></trkpt><trkpt lon="15.5677396" lat="46.5210021"><ele>795</ele><time>2019-09-10T15:46:41.000Z</time></trkpt><trkpt lon="15.5677396" lat="46.5210021"><ele>795</ele><time>2019-09-10T15:46:42.000Z</time></trkpt><trkpt lon="15.567703" lat="46.5210309"><ele>795</ele><time>2019-09-10T15:46:43.000Z</time></trkpt><trkpt lon="15.567703" lat="46.5210309"><ele>795</ele><time>2019-09-10T15:46:44.000Z</time></trkpt><trkpt lon="15.5676484" lat="46.5210697"><ele>796</ele><time>2019-09-10T15:46:45.000Z</time></trkpt><trkpt lon="15.5676199" lat="46.5210899"><ele>796</ele><time>2019-09-10T15:46:46.000Z</time></trkpt><trkpt lon="15.5676199" lat="46.5210899"><ele>796</ele><time>2019-09-10T15:46:47.000Z</time></trkpt><trkpt lon="15.5675606" lat="46.5211248"><ele>797</ele><time>2019-09-10T15:46:48.000Z</time></trkpt><trkpt lon="15.5675606" lat="46.5211248"><ele>797</ele><time>2019-09-10T15:46:49.000Z</time></trkpt><trkpt lon="15.5674989" lat="46.5211545"><ele>797</ele><time>2019-09-10T15:46:50.000Z</time></trkpt><trkpt lon="15.5674625" lat="46.5211658"><ele>797</ele><time>2019-09-10T15:46:51.000Z</time></trkpt><trkpt lon="15.5674259" lat="46.5211764"><ele>798</ele><time>2019-09-10T15:46:52.000Z</time></trkpt><trkpt lon="15.5674259" lat="46.5211764"><ele>798</ele><time>2019-09-10T15:46:53.000Z</time></trkpt><trkpt lon="15.5673475" lat="46.5211997"><ele>799</ele><time>2019-09-10T15:46:54.000Z</time></trkpt><trkpt lon="15.5673041" lat="46.5212149"><ele>799</ele><time>2019-09-10T15:46:55.000Z</time></trkpt><trkpt lon="15.5672533" lat="46.5212308"><ele>799</ele><time>2019-09-10T15:46:56.000Z</time></trkpt><trkpt lon="15.5672533" lat="46.5212308"><ele>799</ele><time>2019-09-10T15:46:57.000Z</time></trkpt><trkpt lon="15.5671267" lat="46.5212641"><ele>799</ele><time>2019-09-10T15:46:58.000Z</time></trkpt><trkpt lon="15.5670713" lat="46.5212787"><ele>800</ele><time>2019-09-10T15:46:59.000Z</time></trkpt><trkpt lon="15.5670713" lat="46.5212787"><ele>800</ele><time>2019-09-10T15:47:00.000Z</time></trkpt><trkpt lon="15.5669557" lat="46.5213121"><ele>800</ele><time>2019-09-10T15:47:01.000Z</time></trkpt><trkpt lon="15.5669557" lat="46.5213121"><ele>800</ele><time>2019-09-10T15:47:02.000Z</time></trkpt><trkpt lon="15.5668285" lat="46.5213486"><ele>801</ele><time>2019-09-10T15:47:03.000Z</time></trkpt><trkpt lon="15.5668285" lat="46.5213486"><ele>801</ele><time>2019-09-10T15:47:04.000Z</time></trkpt><trkpt lon="15.5666938" lat="46.5213825"><ele>801</ele><time>2019-09-10T15:47:05.000Z</time></trkpt><trkpt lon="15.5666191" lat="46.5213906"><ele>802</ele><time>2019-09-10T15:47:06.000Z</time></trkpt><trkpt lon="15.5666191" lat="46.5213906"><ele>802</ele><time>2019-09-10T15:47:07.000Z</time></trkpt><trkpt lon="15.5664048" lat="46.521391"><ele>802</ele><time>2019-09-10T15:47:08.000Z</time></trkpt><trkpt lon="15.5663471" lat="46.5213909"><ele>803</ele><time>2019-09-10T15:47:09.000Z</time></trkpt><trkpt lon="15.5662798" lat="46.5213838"><ele>803</ele><time>2019-09-10T15:47:10.000Z</time></trkpt><trkpt lon="15.5662798" lat="46.5213838"><ele>803</ele><time>2019-09-10T15:47:11.000Z</time></trkpt><trkpt lon="15.5661647" lat="46.5213645"><ele>804</ele><time>2019-09-10T15:47:12.000Z</time></trkpt><trkpt lon="15.5661647" lat="46.5213645"><ele>804</ele><time>2019-09-10T15:47:13.000Z</time></trkpt><trkpt lon="15.5660526" lat="46.5213289"><ele>805</ele><time>2019-09-10T15:47:14.000Z</time></trkpt><trkpt lon="15.5660526" lat="46.5213289"><ele>805</ele><time>2019-09-10T15:47:15.000Z</time></trkpt><trkpt lon="15.5659494" lat="46.5212805"><ele>806</ele><time>2019-09-10T15:47:16.000Z</time></trkpt><trkpt lon="15.5659043" lat="46.5212521"><ele>806</ele><time>2019-09-10T15:47:17.000Z</time></trkpt><trkpt lon="15.56587" lat="46.5212205"><ele>806</ele><time>2019-09-10T15:47:18.000Z</time></trkpt><trkpt lon="15.56587" lat="46.5212205"><ele>806</ele><time>2019-09-10T15:47:19.000Z</time></trkpt><trkpt lon="15.5658001" lat="46.5211561"><ele>807</ele><time>2019-09-10T15:47:20.000Z</time></trkpt><trkpt lon="15.5658001" lat="46.5211561"><ele>807</ele><time>2019-09-10T15:47:21.000Z</time></trkpt><trkpt lon="15.5657187" lat="46.5210968"><ele>807</ele><time>2019-09-10T15:47:22.000Z</time></trkpt><trkpt lon="15.5656879" lat="46.5210612"><ele>808</ele><time>2019-09-10T15:47:23.000Z</time></trkpt><trkpt lon="15.5656879" lat="46.5210612"><ele>808</ele><time>2019-09-10T15:47:24.000Z</time></trkpt><trkpt lon="15.5656559" lat="46.5209855"><ele>808</ele><time>2019-09-10T15:47:25.000Z</time></trkpt><trkpt lon="15.5656559" lat="46.5209855"><ele>808</ele><time>2019-09-10T15:47:26.000Z</time></trkpt><trkpt lon="15.5656384" lat="46.5209161"><ele>810</ele><time>2019-09-10T15:47:27.000Z</time></trkpt><trkpt lon="15.565632" lat="46.5208861"><ele>810</ele><time>2019-09-10T15:47:28.000Z</time></trkpt><trkpt lon="15.565632" lat="46.5208861"><ele>810</ele><time>2019-09-10T15:47:29.000Z</time></trkpt><trkpt lon="15.5656351" lat="46.5208251"><ele>810</ele><time>2019-09-10T15:47:30.000Z</time></trkpt><trkpt lon="15.5656351" lat="46.5208251"><ele>810</ele><time>2019-09-10T15:47:31.000Z</time></trkpt><trkpt lon="15.5656363" lat="46.5207665"><ele>810</ele><time>2019-09-10T15:47:32.000Z</time></trkpt><trkpt lon="15.5656363" lat="46.5207665"><ele>810</ele><time>2019-09-10T15:47:33.000Z</time></trkpt><trkpt lon="15.5656334" lat="46.5207357"><ele>811</ele><time>2019-09-10T15:47:34.000Z</time></trkpt><trkpt lon="15.5656334" lat="46.5207357"><ele>811</ele><time>2019-09-10T15:47:35.000Z</time></trkpt><trkpt lon="15.5656283" lat="46.5206995"><ele>811</ele><time>2019-09-10T15:47:36.000Z</time></trkpt><trkpt lon="15.5656283" lat="46.5206995"><ele>811</ele><time>2019-09-10T15:47:37.000Z</time></trkpt><trkpt lon="15.5656155" lat="46.5206647"><ele>811</ele><time>2019-09-10T15:47:38.000Z</time></trkpt><trkpt lon="15.5656155" lat="46.5206647"><ele>811</ele><time>2019-09-10T15:47:39.000Z</time></trkpt><trkpt lon="15.5656014" lat="46.5206098"><ele>811</ele><time>2019-09-10T15:47:40.000Z</time></trkpt><trkpt lon="15.5655924" lat="46.5205738"><ele>812</ele><time>2019-09-10T15:47:41.000Z</time></trkpt><trkpt lon="15.5655924" lat="46.5205738"><ele>812</ele><time>2019-09-10T15:47:42.000Z</time></trkpt><trkpt lon="15.5655772" lat="46.5205158"><ele>812</ele><time>2019-09-10T15:47:43.000Z</time></trkpt><trkpt lon="15.5655772" lat="46.5205158"><ele>812</ele><time>2019-09-10T15:47:44.000Z</time></trkpt><trkpt lon="15.5655621" lat="46.5204674"><ele>812</ele><time>2019-09-10T15:47:45.000Z</time></trkpt><trkpt lon="15.5655621" lat="46.5204674"><ele>812</ele><time>2019-09-10T15:47:46.000Z</time></trkpt><trkpt lon="15.5655521" lat="46.5204202"><ele>812</ele><time>2019-09-10T15:47:47.000Z</time></trkpt><trkpt lon="15.5655521" lat="46.5204202"><ele>812</ele><time>2019-09-10T15:47:48.000Z</time></trkpt><trkpt lon="15.5655449" lat="46.5203578"><ele>813</ele><time>2019-09-10T15:47:49.000Z</time></trkpt><trkpt lon="15.5655387" lat="46.5203204"><ele>813</ele><time>2019-09-10T15:47:50.000Z</time></trkpt><trkpt lon="15.5655305" lat="46.5202799"><ele>813</ele><time>2019-09-10T15:47:51.000Z</time></trkpt><trkpt lon="15.5655305" lat="46.5202799"><ele>813</ele><time>2019-09-10T15:47:52.000Z</time></trkpt><trkpt lon="15.5655077" lat="46.520215"><ele>814</ele><time>2019-09-10T15:47:53.000Z</time></trkpt><trkpt lon="15.5654946" lat="46.5201795"><ele>813</ele><time>2019-09-10T15:47:54.000Z</time></trkpt><trkpt lon="15.5654946" lat="46.5201795"><ele>813</ele><time>2019-09-10T15:47:55.000Z</time></trkpt><trkpt lon="15.5654667" lat="46.5201082"><ele>814</ele><time>2019-09-10T15:47:56.000Z</time></trkpt><trkpt lon="15.5654513" lat="46.5200751"><ele>814</ele><time>2019-09-10T15:47:57.000Z</time></trkpt><trkpt lon="15.5654513" lat="46.5200751"><ele>814</ele><time>2019-09-10T15:47:58.000Z</time></trkpt><trkpt lon="15.5654197" lat="46.5200088"><ele>815</ele><time>2019-09-10T15:47:59.000Z</time></trkpt><trkpt lon="15.5654019" lat="46.5199747"><ele>815</ele><time>2019-09-10T15:48:00.000Z</time></trkpt><trkpt lon="15.5654019" lat="46.5199747"><ele>815</ele><time>2019-09-10T15:48:01.000Z</time></trkpt><trkpt lon="15.5653632" lat="46.5199017"><ele>815</ele><time>2019-09-10T15:48:02.000Z</time></trkpt><trkpt lon="15.5653632" lat="46.5199017"><ele>815</ele><time>2019-09-10T15:48:03.000Z</time></trkpt><trkpt lon="15.5653207" lat="46.5198266"><ele>815</ele><time>2019-09-10T15:48:04.000Z</time></trkpt><trkpt lon="15.5653207" lat="46.5198266"><ele>815</ele><time>2019-09-10T15:48:05.000Z</time></trkpt><trkpt lon="15.5652698" lat="46.5197468"><ele>815</ele><time>2019-09-10T15:48:06.000Z</time></trkpt><trkpt lon="15.5652434" lat="46.5197006"><ele>816</ele><time>2019-09-10T15:48:07.000Z</time></trkpt><trkpt lon="15.5652434" lat="46.5197006"><ele>816</ele><time>2019-09-10T15:48:08.000Z</time></trkpt><trkpt lon="15.5651931" lat="46.5196263"><ele>816</ele><time>2019-09-10T15:48:09.000Z</time></trkpt><trkpt lon="15.5651931" lat="46.5196263"><ele>816</ele><time>2019-09-10T15:48:10.000Z</time></trkpt><trkpt lon="15.5651521" lat="46.5195598"><ele>817</ele><time>2019-09-10T15:48:11.000Z</time></trkpt><trkpt lon="15.5651344" lat="46.5195282"><ele>817</ele><time>2019-09-10T15:48:12.000Z</time></trkpt><trkpt lon="15.5651344" lat="46.5195282"><ele>817</ele><time>2019-09-10T15:48:13.000Z</time></trkpt><trkpt lon="15.5650906" lat="46.5194588"><ele>819</ele><time>2019-09-10T15:48:14.000Z</time></trkpt><trkpt lon="15.5650906" lat="46.5194588"><ele>819</ele><time>2019-09-10T15:48:15.000Z</time></trkpt><trkpt lon="15.5650466" lat="46.5193974"><ele>819</ele><time>2019-09-10T15:48:16.000Z</time></trkpt><trkpt lon="15.5650466" lat="46.5193974"><ele>819</ele><time>2019-09-10T15:48:17.000Z</time></trkpt><trkpt lon="15.5649922" lat="46.5193333"><ele>820</ele><time>2019-09-10T15:48:18.000Z</time></trkpt><trkpt lon="15.5649615" lat="46.5192982"><ele>820</ele><time>2019-09-10T15:48:19.000Z</time></trkpt><trkpt lon="15.5649615" lat="46.5192982"><ele>820</ele><time>2019-09-10T15:48:20.000Z</time></trkpt><trkpt lon="15.5648847" lat="46.5192137"><ele>821</ele><time>2019-09-10T15:48:21.000Z</time></trkpt><trkpt lon="15.5648444" lat="46.5191681"><ele>821</ele><time>2019-09-10T15:48:22.000Z</time></trkpt><trkpt lon="15.5648012" lat="46.5191212"><ele>821</ele><time>2019-09-10T15:48:23.000Z</time></trkpt><trkpt lon="15.5648012" lat="46.5191212"><ele>821</ele><time>2019-09-10T15:48:24.000Z</time></trkpt><trkpt lon="15.5647208" lat="46.5190314"><ele>822</ele><time>2019-09-10T15:48:25.000Z</time></trkpt><trkpt lon="15.5646845" lat="46.5189944"><ele>823</ele><time>2019-09-10T15:48:26.000Z</time></trkpt><trkpt lon="15.5646845" lat="46.5189944"><ele>823</ele><time>2019-09-10T15:48:27.000Z</time></trkpt><trkpt lon="15.5646152" lat="46.5189359"><ele>824</ele><time>2019-09-10T15:48:28.000Z</time></trkpt><trkpt lon="15.5646152" lat="46.5189359"><ele>824</ele><time>2019-09-10T15:48:29.000Z</time></trkpt><trkpt lon="15.5645425" lat="46.5188776"><ele>824</ele><time>2019-09-10T15:48:30.000Z</time></trkpt><trkpt lon="15.5644997" lat="46.5188462"><ele>823</ele><time>2019-09-10T15:48:31.000Z</time></trkpt><trkpt lon="15.5644997" lat="46.5188462"><ele>823</ele><time>2019-09-10T15:48:32.000Z</time></trkpt><trkpt lon="15.5644129" lat="46.5187807"><ele>825</ele><time>2019-09-10T15:48:33.000Z</time></trkpt><trkpt lon="15.5644129" lat="46.5187807"><ele>825</ele><time>2019-09-10T15:48:34.000Z</time></trkpt><trkpt lon="15.5643339" lat="46.5187211"><ele>825</ele><time>2019-09-10T15:48:35.000Z</time></trkpt><trkpt lon="15.5643339" lat="46.5187211"><ele>825</ele><time>2019-09-10T15:48:36.000Z</time></trkpt><trkpt lon="15.564256" lat="46.5186644"><ele>825</ele><time>2019-09-10T15:48:37.000Z</time></trkpt><trkpt lon="15.5642207" lat="46.5186398"><ele>825</ele><time>2019-09-10T15:48:38.000Z</time></trkpt><trkpt lon="15.5642207" lat="46.5186398"><ele>825</ele><time>2019-09-10T15:48:39.000Z</time></trkpt><trkpt lon="15.5641506" lat="46.5185901"><ele>825</ele><time>2019-09-10T15:48:40.000Z</time></trkpt><trkpt lon="15.5641179" lat="46.5185663"><ele>825</ele><time>2019-09-10T15:48:41.000Z</time></trkpt><trkpt lon="15.5641179" lat="46.5185663"><ele>825</ele><time>2019-09-10T15:48:42.000Z</time></trkpt><trkpt lon="15.5640513" lat="46.5185139"><ele>824</ele><time>2019-09-10T15:48:43.000Z</time></trkpt><trkpt lon="15.5640513" lat="46.5185139"><ele>824</ele><time>2019-09-10T15:48:44.000Z</time></trkpt><trkpt lon="15.5639857" lat="46.5184585"><ele>824</ele><time>2019-09-10T15:48:45.000Z</time></trkpt><trkpt lon="15.563949" lat="46.5184302"><ele>825</ele><time>2019-09-10T15:48:46.000Z</time></trkpt><trkpt lon="15.563949" lat="46.5184302"><ele>825</ele><time>2019-09-10T15:48:47.000Z</time></trkpt><trkpt lon="15.5638781" lat="46.5183755"><ele>825</ele><time>2019-09-10T15:48:48.000Z</time></trkpt><trkpt lon="15.5638456" lat="46.5183523"><ele>826</ele><time>2019-09-10T15:48:49.000Z</time></trkpt><trkpt lon="15.5638149" lat="46.5183332"><ele>826</ele><time>2019-09-10T15:48:50.000Z</time></trkpt><trkpt lon="15.5638149" lat="46.5183332"><ele>826</ele><time>2019-09-10T15:48:51.000Z</time></trkpt><trkpt lon="15.5637561" lat="46.5182956"><ele>826</ele><time>2019-09-10T15:48:52.000Z</time></trkpt><trkpt lon="15.5637251" lat="46.5182757"><ele>826</ele><time>2019-09-10T15:48:53.000Z</time></trkpt><trkpt lon="15.5637251" lat="46.5182757"><ele>826</ele><time>2019-09-10T15:48:54.000Z</time></trkpt><trkpt lon="15.5636568" lat="46.5182348"><ele>827</ele><time>2019-09-10T15:48:55.000Z</time></trkpt><trkpt lon="15.5636167" lat="46.5182091"><ele>827</ele><time>2019-09-10T15:48:56.000Z</time></trkpt><trkpt lon="15.5636167" lat="46.5182091"><ele>827</ele><time>2019-09-10T15:48:57.000Z</time></trkpt><trkpt lon="15.5635392" lat="46.5181516"><ele>827</ele><time>2019-09-10T15:48:58.000Z</time></trkpt><trkpt lon="15.5634998" lat="46.5181181"><ele>827</ele><time>2019-09-10T15:48:59.000Z</time></trkpt><trkpt lon="15.5634998" lat="46.5181181"><ele>827</ele><time>2019-09-10T15:49:00.000Z</time></trkpt><trkpt lon="15.5634235" lat="46.5180585"><ele>829</ele><time>2019-09-10T15:49:01.000Z</time></trkpt><trkpt lon="15.5634235" lat="46.5180585"><ele>829</ele><time>2019-09-10T15:49:02.000Z</time></trkpt><trkpt lon="15.5633555" lat="46.518016"><ele>829</ele><time>2019-09-10T15:49:03.000Z</time></trkpt><trkpt lon="15.563322" lat="46.5179955"><ele>829</ele><time>2019-09-10T15:49:04.000Z</time></trkpt><trkpt lon="15.563322" lat="46.5179955"><ele>829</ele><time>2019-09-10T15:49:05.000Z</time></trkpt><trkpt lon="15.563255" lat="46.5179508"><ele>829</ele><time>2019-09-10T15:49:06.000Z</time></trkpt><trkpt lon="15.563255" lat="46.5179508"><ele>829</ele><time>2019-09-10T15:49:07.000Z</time></trkpt><trkpt lon="15.563188" lat="46.5179112"><ele>829</ele><time>2019-09-10T15:49:08.000Z</time></trkpt><trkpt lon="15.563188" lat="46.5179112"><ele>829</ele><time>2019-09-10T15:49:09.000Z</time></trkpt><trkpt lon="15.5631152" lat="46.517874"><ele>831</ele><time>2019-09-10T15:49:10.000Z</time></trkpt><trkpt lon="15.5631152" lat="46.517874"><ele>831</ele><time>2019-09-10T15:49:11.000Z</time></trkpt><trkpt lon="15.5630333" lat="46.5178596"><ele>831</ele><time>2019-09-10T15:49:12.000Z</time></trkpt><trkpt lon="15.5629823" lat="46.5178585"><ele>831</ele><time>2019-09-10T15:49:13.000Z</time></trkpt><trkpt lon="15.5629823" lat="46.5178585"><ele>831</ele><time>2019-09-10T15:49:14.000Z</time></trkpt><trkpt lon="15.5628728" lat="46.5178653"><ele>831</ele><time>2019-09-10T15:49:15.000Z</time></trkpt><trkpt lon="15.5628177" lat="46.5178824"><ele>831</ele><time>2019-09-10T15:49:16.000Z</time></trkpt><trkpt lon="15.5628177" lat="46.5178824"><ele>831</ele><time>2019-09-10T15:49:17.000Z</time></trkpt><trkpt lon="15.5627103" lat="46.5179313"><ele>832</ele><time>2019-09-10T15:49:18.000Z</time></trkpt><trkpt lon="15.5626593" lat="46.5179603"><ele>831</ele><time>2019-09-10T15:49:19.000Z</time></trkpt><trkpt lon="15.5626593" lat="46.5179603"><ele>831</ele><time>2019-09-10T15:49:20.000Z</time></trkpt><trkpt lon="15.56258" lat="46.5180144"><ele>831</ele><time>2019-09-10T15:49:21.000Z</time></trkpt><trkpt lon="15.5625436" lat="46.5180423"><ele>832</ele><time>2019-09-10T15:49:22.000Z</time></trkpt><trkpt lon="15.5625054" lat="46.5180742"><ele>832</ele><time>2019-09-10T15:49:23.000Z</time></trkpt><trkpt lon="15.5625054" lat="46.5180742"><ele>832</ele><time>2019-09-10T15:49:24.000Z</time></trkpt><trkpt lon="15.5624242" lat="46.5181451"><ele>832</ele><time>2019-09-10T15:49:25.000Z</time></trkpt><trkpt lon="15.5624242" lat="46.5181451"><ele>832</ele><time>2019-09-10T15:49:26.000Z</time></trkpt><trkpt lon="15.5623544" lat="46.5182199"><ele>833</ele><time>2019-09-10T15:49:27.000Z</time></trkpt><trkpt lon="15.5623241" lat="46.5182584"><ele>833</ele><time>2019-09-10T15:49:28.000Z</time></trkpt><trkpt lon="15.5622995" lat="46.518295"><ele>833</ele><time>2019-09-10T15:49:29.000Z</time></trkpt><trkpt lon="15.5622995" lat="46.518295"><ele>833</ele><time>2019-09-10T15:49:30.000Z</time></trkpt><trkpt lon="15.5622505" lat="46.5183727"><ele>834</ele><time>2019-09-10T15:49:31.000Z</time></trkpt><trkpt lon="15.5622295" lat="46.5184126"><ele>834</ele><time>2019-09-10T15:49:32.000Z</time></trkpt><trkpt lon="15.5622095" lat="46.5184515"><ele>834</ele><time>2019-09-10T15:49:33.000Z</time></trkpt><trkpt lon="15.5622095" lat="46.5184515"><ele>834</ele><time>2019-09-10T15:49:34.000Z</time></trkpt><trkpt lon="15.5621795" lat="46.5185317"><ele>835</ele><time>2019-09-10T15:49:35.000Z</time></trkpt><trkpt lon="15.5621795" lat="46.5185317"><ele>835</ele><time>2019-09-10T15:49:36.000Z</time></trkpt><trkpt lon="15.5621421" lat="46.5186206"><ele>836</ele><time>2019-09-10T15:49:37.000Z</time></trkpt><trkpt lon="15.5621421" lat="46.5186206"><ele>836</ele><time>2019-09-10T15:49:38.000Z</time></trkpt><trkpt lon="15.5621055" lat="46.5187139"><ele>837</ele><time>2019-09-10T15:49:39.000Z</time></trkpt><trkpt lon="15.5620916" lat="46.5187647"><ele>837</ele><time>2019-09-10T15:49:40.000Z</time></trkpt><trkpt lon="15.5620804" lat="46.5188091"><ele>837</ele><time>2019-09-10T15:49:41.000Z</time></trkpt><trkpt lon="15.5620804" lat="46.5188091"><ele>837</ele><time>2019-09-10T15:49:42.000Z</time></trkpt><trkpt lon="15.5620602" lat="46.5189268"><ele>839</ele><time>2019-09-10T15:49:43.000Z</time></trkpt><trkpt lon="15.5620602" lat="46.5189268"><ele>839</ele><time>2019-09-10T15:49:44.000Z</time></trkpt><trkpt lon="15.562031" lat="46.5189999"><ele>838</ele><time>2019-09-10T15:49:45.000Z</time></trkpt><trkpt lon="15.5620068" lat="46.5190257"><ele>838</ele><time>2019-09-10T15:49:46.000Z</time></trkpt><trkpt lon="15.5620068" lat="46.5190257"><ele>838</ele><time>2019-09-10T15:49:47.000Z</time></trkpt><trkpt lon="15.561943" lat="46.5190455"><ele>838</ele><time>2019-09-10T15:49:48.000Z</time></trkpt><trkpt lon="15.561943" lat="46.5190455"><ele>838</ele><time>2019-09-10T15:49:49.000Z</time></trkpt><trkpt lon="15.5618614" lat="46.5190272"><ele>838</ele><time>2019-09-10T15:49:50.000Z</time></trkpt><trkpt lon="15.5618614" lat="46.5190272"><ele>838</ele><time>2019-09-10T15:49:51.000Z</time></trkpt><trkpt lon="15.5617866" lat="46.51899"><ele>838</ele><time>2019-09-10T15:49:52.000Z</time></trkpt><trkpt lon="15.5617514" lat="46.5189679"><ele>838</ele><time>2019-09-10T15:49:53.000Z</time></trkpt><trkpt lon="15.5617169" lat="46.5189434"><ele>838</ele><time>2019-09-10T15:49:54.000Z</time></trkpt><trkpt lon="15.5617169" lat="46.5189434"><ele>838</ele><time>2019-09-10T15:49:55.000Z</time></trkpt><trkpt lon="15.5616532" lat="46.5188911"><ele>838</ele><time>2019-09-10T15:49:56.000Z</time></trkpt><trkpt lon="15.5616532" lat="46.5188911"><ele>838</ele><time>2019-09-10T15:49:57.000Z</time></trkpt><trkpt lon="15.561604" lat="46.51885"><ele>839</ele><time>2019-09-10T15:49:58.000Z</time></trkpt><trkpt lon="15.561604" lat="46.51885"><ele>839</ele><time>2019-09-10T15:49:59.000Z</time></trkpt><trkpt lon="15.5615354" lat="46.5188006"><ele>838</ele><time>2019-09-10T15:50:00.000Z</time></trkpt><trkpt lon="15.5614978" lat="46.5187756"><ele>839</ele><time>2019-09-10T15:50:01.000Z</time></trkpt><trkpt lon="15.5614627" lat="46.5187528"><ele>839</ele><time>2019-09-10T15:50:02.000Z</time></trkpt><trkpt lon="15.5614627" lat="46.5187528"><ele>839</ele><time>2019-09-10T15:50:03.000Z</time></trkpt><trkpt lon="15.5613832" lat="46.5187092"><ele>839</ele><time>2019-09-10T15:50:04.000Z</time></trkpt><trkpt lon="15.5613422" lat="46.5186869"><ele>839</ele><time>2019-09-10T15:50:05.000Z</time></trkpt><trkpt lon="15.5612963" lat="46.518662"><ele>839</ele><time>2019-09-10T15:50:06.000Z</time></trkpt><trkpt lon="15.5612495" lat="46.5186403"><ele>839</ele><time>2019-09-10T15:50:07.000Z</time></trkpt><trkpt lon="15.5612062" lat="46.5186197"><ele>839</ele><time>2019-09-10T15:50:08.000Z</time></trkpt><trkpt lon="15.5611608" lat="46.5185941"><ele>839</ele><time>2019-09-10T15:50:09.000Z</time></trkpt><trkpt lon="15.5611608" lat="46.5185941"><ele>839</ele><time>2019-09-10T15:50:10.000Z</time></trkpt><trkpt lon="15.5610633" lat="46.5185393"><ele>840</ele><time>2019-09-10T15:50:11.000Z</time></trkpt><trkpt lon="15.5610098" lat="46.5185122"><ele>841</ele><time>2019-09-10T15:50:12.000Z</time></trkpt><trkpt lon="15.5610098" lat="46.5185122"><ele>841</ele><time>2019-09-10T15:50:13.000Z</time></trkpt><trkpt lon="15.5608997" lat="46.5184571"><ele>841</ele><time>2019-09-10T15:50:14.000Z</time></trkpt><trkpt lon="15.5608997" lat="46.5184571"><ele>841</ele><time>2019-09-10T15:50:15.000Z</time></trkpt><trkpt lon="15.5607789" lat="46.5183905"><ele>841</ele><time>2019-09-10T15:50:16.000Z</time></trkpt><trkpt lon="15.5607222" lat="46.5183608"><ele>842</ele><time>2019-09-10T15:50:17.000Z</time></trkpt><trkpt lon="15.5607222" lat="46.5183608"><ele>842</ele><time>2019-09-10T15:50:18.000Z</time></trkpt><trkpt lon="15.5605506" lat="46.5182655"><ele>842</ele><time>2019-09-10T15:50:19.000Z</time></trkpt><trkpt lon="15.5604867" lat="46.5182278"><ele>842</ele><time>2019-09-10T15:50:20.000Z</time></trkpt><trkpt lon="15.5604867" lat="46.5182278"><ele>842</ele><time>2019-09-10T15:50:21.000Z</time></trkpt><trkpt lon="15.5604008" lat="46.5181868"><ele>842</ele><time>2019-09-10T15:50:22.000Z</time></trkpt><trkpt lon="15.5604008" lat="46.5181868"><ele>842</ele><time>2019-09-10T15:50:23.000Z</time></trkpt><trkpt lon="15.5603069" lat="46.5181478"><ele>843</ele><time>2019-09-10T15:50:24.000Z</time></trkpt><trkpt lon="15.5602719" lat="46.5181332"><ele>843</ele><time>2019-09-10T15:50:25.000Z</time></trkpt><trkpt lon="15.5602719" lat="46.5181332"><ele>843</ele><time>2019-09-10T15:50:26.000Z</time></trkpt><trkpt lon="15.5601966" lat="46.5181086"><ele>842</ele><time>2019-09-10T15:50:27.000Z</time></trkpt><trkpt lon="15.5601514" lat="46.5180925"><ele>843</ele><time>2019-09-10T15:50:28.000Z</time></trkpt><trkpt lon="15.5601514" lat="46.5180925"><ele>843</ele><time>2019-09-10T15:50:29.000Z</time></trkpt><trkpt lon="15.560041" lat="46.5180606"><ele>844</ele><time>2019-09-10T15:50:30.000Z</time></trkpt><trkpt lon="15.560041" lat="46.5180606"><ele>844</ele><time>2019-09-10T15:50:31.000Z</time></trkpt><trkpt lon="15.5599522" lat="46.5180388"><ele>844</ele><time>2019-09-10T15:50:32.000Z</time></trkpt><trkpt lon="15.5599104" lat="46.5180282"><ele>844</ele><time>2019-09-10T15:50:33.000Z</time></trkpt><trkpt lon="15.5598655" lat="46.5180184"><ele>845</ele><time>2019-09-10T15:50:34.000Z</time></trkpt><trkpt lon="15.5598655" lat="46.5180184"><ele>845</ele><time>2019-09-10T15:50:35.000Z</time></trkpt><trkpt lon="15.5597643" lat="46.5179944"><ele>845</ele><time>2019-09-10T15:50:36.000Z</time></trkpt><trkpt lon="15.5597079" lat="46.5179801"><ele>846</ele><time>2019-09-10T15:50:37.000Z</time></trkpt><trkpt lon="15.5597079" lat="46.5179801"><ele>846</ele><time>2019-09-10T15:50:38.000Z</time></trkpt><trkpt lon="15.5596017" lat="46.5179516"><ele>846</ele><time>2019-09-10T15:50:39.000Z</time></trkpt><trkpt lon="15.5596017" lat="46.5179516"><ele>846</ele><time>2019-09-10T15:50:40.000Z</time></trkpt><trkpt lon="15.5595104" lat="46.5179276"><ele>846</ele><time>2019-09-10T15:50:41.000Z</time></trkpt><trkpt lon="15.5595104" lat="46.5179276"><ele>846</ele><time>2019-09-10T15:50:42.000Z</time></trkpt><trkpt lon="15.5594012" lat="46.5178931"><ele>846</ele><time>2019-09-10T15:50:43.000Z</time></trkpt><trkpt lon="15.5593598" lat="46.5178796"><ele>847</ele><time>2019-09-10T15:50:44.000Z</time></trkpt><trkpt lon="15.5593162" lat="46.5178615"><ele>847</ele><time>2019-09-10T15:50:45.000Z</time></trkpt><trkpt lon="15.5593162" lat="46.5178615"><ele>847</ele><time>2019-09-10T15:50:46.000Z</time></trkpt><trkpt lon="15.5592623" lat="46.5178381"><ele>847</ele><time>2019-09-10T15:50:47.000Z</time></trkpt><trkpt lon="15.5592254" lat="46.517823"><ele>847</ele><time>2019-09-10T15:50:48.000Z</time></trkpt><trkpt lon="15.5592254" lat="46.517823"><ele>847</ele><time>2019-09-10T15:50:49.000Z</time></trkpt><trkpt lon="15.5591497" lat="46.5177963"><ele>848</ele><time>2019-09-10T15:50:50.000Z</time></trkpt><trkpt lon="15.5591497" lat="46.5177963"><ele>848</ele><time>2019-09-10T15:50:51.000Z</time></trkpt><trkpt lon="15.55906" lat="46.5177641"><ele>847</ele><time>2019-09-10T15:50:52.000Z</time></trkpt><trkpt lon="15.5590072" lat="46.5177457"><ele>848</ele><time>2019-09-10T15:50:53.000Z</time></trkpt><trkpt lon="15.5590072" lat="46.5177457"><ele>848</ele><time>2019-09-10T15:50:54.000Z</time></trkpt><trkpt lon="15.5588839" lat="46.5177024"><ele>849</ele><time>2019-09-10T15:50:55.000Z</time></trkpt><trkpt lon="15.5588321" lat="46.5176878"><ele>849</ele><time>2019-09-10T15:50:56.000Z</time></trkpt><trkpt lon="15.5588321" lat="46.5176878"><ele>849</ele><time>2019-09-10T15:50:57.000Z</time></trkpt><trkpt lon="15.5587356" lat="46.5176853"><ele>850</ele><time>2019-09-10T15:50:58.000Z</time></trkpt><trkpt lon="15.5587356" lat="46.5176853"><ele>850</ele><time>2019-09-10T15:50:59.000Z</time></trkpt><trkpt lon="15.5586537" lat="46.51771"><ele>850</ele><time>2019-09-10T15:51:00.000Z</time></trkpt><trkpt lon="15.558609" lat="46.5177311"><ele>849</ele><time>2019-09-10T15:51:01.000Z</time></trkpt><trkpt lon="15.558609" lat="46.5177311"><ele>849</ele><time>2019-09-10T15:51:02.000Z</time></trkpt><trkpt lon="15.558543" lat="46.5177848"><ele>850</ele><time>2019-09-10T15:51:03.000Z</time></trkpt><trkpt lon="15.5585157" lat="46.5178144"><ele>850</ele><time>2019-09-10T15:51:04.000Z</time></trkpt><trkpt lon="15.5585157" lat="46.5178144"><ele>850</ele><time>2019-09-10T15:51:05.000Z</time></trkpt><trkpt lon="15.5584761" lat="46.5178779"><ele>852</ele><time>2019-09-10T15:51:06.000Z</time></trkpt><trkpt lon="15.5584761" lat="46.5178779"><ele>852</ele><time>2019-09-10T15:51:07.000Z</time></trkpt><trkpt lon="15.5584647" lat="46.517936"><ele>852</ele><time>2019-09-10T15:51:08.000Z</time></trkpt><trkpt lon="15.5584647" lat="46.517936"><ele>852</ele><time>2019-09-10T15:51:09.000Z</time></trkpt><trkpt lon="15.5584652" lat="46.5179754"><ele>852</ele><time>2019-09-10T15:51:10.000Z</time></trkpt><trkpt lon="15.5584652" lat="46.5179754"><ele>852</ele><time>2019-09-10T15:51:11.000Z</time></trkpt><trkpt lon="15.558463" lat="46.5180175"><ele>853</ele><time>2019-09-10T15:51:12.000Z</time></trkpt><trkpt lon="15.558463" lat="46.5180175"><ele>853</ele><time>2019-09-10T15:51:13.000Z</time></trkpt><trkpt lon="15.5584409" lat="46.518081"><ele>853</ele><time>2019-09-10T15:51:14.000Z</time></trkpt><trkpt lon="15.5584253" lat="46.5181163"><ele>853</ele><time>2019-09-10T15:51:15.000Z</time></trkpt><trkpt lon="15.5584253" lat="46.5181163"><ele>853</ele><time>2019-09-10T15:51:16.000Z</time></trkpt><trkpt lon="15.5583959" lat="46.5181827"><ele>853</ele><time>2019-09-10T15:51:17.000Z</time></trkpt><trkpt lon="15.5583837" lat="46.5182114"><ele>853</ele><time>2019-09-10T15:51:18.000Z</time></trkpt><trkpt lon="15.5583837" lat="46.5182114"><ele>853</ele><time>2019-09-10T15:51:19.000Z</time></trkpt><trkpt lon="15.5583616" lat="46.5182765"><ele>854</ele><time>2019-09-10T15:51:20.000Z</time></trkpt><trkpt lon="15.558355" lat="46.5183124"><ele>854</ele><time>2019-09-10T15:51:21.000Z</time></trkpt><trkpt lon="15.5583508" lat="46.5183496"><ele>855</ele><time>2019-09-10T15:51:22.000Z</time></trkpt><trkpt lon="15.5583508" lat="46.5183496"><ele>855</ele><time>2019-09-10T15:51:23.000Z</time></trkpt><trkpt lon="15.5583391" lat="46.5184285"><ele>855</ele><time>2019-09-10T15:51:24.000Z</time></trkpt><trkpt lon="15.5583278" lat="46.5184739"><ele>855</ele><time>2019-09-10T15:51:25.000Z</time></trkpt><trkpt lon="15.5583207" lat="46.5185163"><ele>856</ele><time>2019-09-10T15:51:26.000Z</time></trkpt><trkpt lon="15.5583207" lat="46.5185163"><ele>856</ele><time>2019-09-10T15:51:27.000Z</time></trkpt><trkpt lon="15.5583158" lat="46.5186002"><ele>855</ele><time>2019-09-10T15:51:28.000Z</time></trkpt><trkpt lon="15.5583158" lat="46.5186002"><ele>855</ele><time>2019-09-10T15:51:29.000Z</time></trkpt><trkpt lon="15.5582999" lat="46.5187062"><ele>855</ele><time>2019-09-10T15:51:30.000Z</time></trkpt><trkpt lon="15.5582791" lat="46.5188067"><ele>856</ele><time>2019-09-10T15:51:31.000Z</time></trkpt><trkpt lon="15.5582791" lat="46.5188067"><ele>856</ele><time>2019-09-10T15:51:32.000Z</time></trkpt><trkpt lon="15.5582705" lat="46.5188585"><ele>856</ele><time>2019-09-10T15:51:33.000Z</time></trkpt><trkpt lon="15.5582589" lat="46.5189002"><ele>856</ele><time>2019-09-10T15:51:34.000Z</time></trkpt><trkpt lon="15.5582467" lat="46.5189417"><ele>857</ele><time>2019-09-10T15:51:35.000Z</time></trkpt><trkpt lon="15.5582299" lat="46.5189866"><ele>857</ele><time>2019-09-10T15:51:36.000Z</time></trkpt><trkpt lon="15.5581933" lat="46.5190786"><ele>858</ele><time>2019-09-10T15:51:37.000Z</time></trkpt><trkpt lon="15.5581933" lat="46.5190786"><ele>858</ele><time>2019-09-10T15:51:38.000Z</time></trkpt><trkpt lon="15.5581933" lat="46.5190786"><ele>858</ele><time>2019-09-10T15:51:39.000Z</time></trkpt><trkpt lon="15.5581345" lat="46.5191654"><ele>858</ele><time>2019-09-10T15:51:40.000Z</time></trkpt><trkpt lon="15.5580912" lat="46.5192052"><ele>858</ele><time>2019-09-10T15:51:41.000Z</time></trkpt><trkpt lon="15.5580912" lat="46.5192052"><ele>858</ele><time>2019-09-10T15:51:42.000Z</time></trkpt><trkpt lon="15.5579165" lat="46.5192998"><ele>859</ele><time>2019-09-10T15:51:43.000Z</time></trkpt><trkpt lon="15.5579165" lat="46.5192998"><ele>859</ele><time>2019-09-10T15:51:44.000Z</time></trkpt><trkpt lon="15.5577931" lat="46.5192925"><ele>859</ele><time>2019-09-10T15:51:45.000Z</time></trkpt><trkpt lon="15.5577329" lat="46.5192892"><ele>859</ele><time>2019-09-10T15:51:46.000Z</time></trkpt><trkpt lon="15.5576676" lat="46.5192877"><ele>860</ele><time>2019-09-10T15:51:47.000Z</time></trkpt><trkpt lon="15.5576676" lat="46.5192877"><ele>860</ele><time>2019-09-10T15:51:48.000Z</time></trkpt><trkpt lon="15.5575642" lat="46.5192587"><ele>860</ele><time>2019-09-10T15:51:49.000Z</time></trkpt><trkpt lon="15.5575195" lat="46.5192419"><ele>860</ele><time>2019-09-10T15:51:50.000Z</time></trkpt><trkpt lon="15.5574677" lat="46.5192308"><ele>860</ele><time>2019-09-10T15:51:51.000Z</time></trkpt><trkpt lon="15.557353" lat="46.5192138"><ele>860</ele><time>2019-09-10T15:51:52.000Z</time></trkpt><trkpt lon="15.557353" lat="46.5192138"><ele>860</ele><time>2019-09-10T15:51:53.000Z</time></trkpt><trkpt lon="15.5572955" lat="46.5192063"><ele>861</ele><time>2019-09-10T15:51:54.000Z</time></trkpt><trkpt lon="15.5571596" lat="46.5192043"><ele>861</ele><time>2019-09-10T15:51:55.000Z</time></trkpt><trkpt lon="15.5571596" lat="46.5192043"><ele>861</ele><time>2019-09-10T15:51:56.000Z</time></trkpt><trkpt lon="15.5571596" lat="46.5192043"><ele>861</ele><time>2019-09-10T15:51:57.000Z</time></trkpt><trkpt lon="15.5570278" lat="46.5191915"><ele>862</ele><time>2019-09-10T15:51:58.000Z</time></trkpt><trkpt lon="15.5570278" lat="46.5191915"><ele>862</ele><time>2019-09-10T15:51:59.000Z</time></trkpt><trkpt lon="15.5568979" lat="46.5191827"><ele>862</ele><time>2019-09-10T15:52:00.000Z</time></trkpt><trkpt lon="15.5567712" lat="46.5191753"><ele>863</ele><time>2019-09-10T15:52:01.000Z</time></trkpt><trkpt lon="15.5567712" lat="46.5191753"><ele>863</ele><time>2019-09-10T15:52:02.000Z</time></trkpt><trkpt lon="15.5567072" lat="46.5191691"><ele>863</ele><time>2019-09-10T15:52:03.000Z</time></trkpt><trkpt lon="15.5567072" lat="46.5191691"><ele>863</ele><time>2019-09-10T15:52:04.000Z</time></trkpt><trkpt lon="15.5565897" lat="46.5191434"><ele>863</ele><time>2019-09-10T15:52:05.000Z</time></trkpt><trkpt lon="15.556469" lat="46.5191459"><ele>864</ele><time>2019-09-10T15:52:06.000Z</time></trkpt><trkpt lon="15.556469" lat="46.5191459"><ele>864</ele><time>2019-09-10T15:52:07.000Z</time></trkpt><trkpt lon="15.5564158" lat="46.5191482"><ele>864</ele><time>2019-09-10T15:52:08.000Z</time></trkpt><trkpt lon="15.5564158" lat="46.5191482"><ele>864</ele><time>2019-09-10T15:52:09.000Z</time></trkpt><trkpt lon="15.556317" lat="46.5191596"><ele>865</ele><time>2019-09-10T15:52:10.000Z</time></trkpt><trkpt lon="15.556317" lat="46.5191596"><ele>865</ele><time>2019-09-10T15:52:11.000Z</time></trkpt><trkpt lon="15.5562303" lat="46.5191762"><ele>866</ele><time>2019-09-10T15:52:12.000Z</time></trkpt><trkpt lon="15.5562303" lat="46.5191762"><ele>866</ele><time>2019-09-10T15:52:13.000Z</time></trkpt><trkpt lon="15.5561119" lat="46.5191913"><ele>866</ele><time>2019-09-10T15:52:14.000Z</time></trkpt><trkpt lon="15.5561119" lat="46.5191913"><ele>866</ele><time>2019-09-10T15:52:15.000Z</time></trkpt><trkpt lon="15.556019" lat="46.5191993"><ele>866</ele><time>2019-09-10T15:52:16.000Z</time></trkpt><trkpt lon="15.556019" lat="46.5191993"><ele>866</ele><time>2019-09-10T15:52:17.000Z</time></trkpt><trkpt lon="15.5559536" lat="46.5191991"><ele>867</ele><time>2019-09-10T15:52:18.000Z</time></trkpt><trkpt lon="15.5559536" lat="46.5191991"><ele>867</ele><time>2019-09-10T15:52:19.000Z</time></trkpt><trkpt lon="15.5559536" lat="46.5191991"><ele>867</ele><time>2019-09-10T15:52:20.000Z</time></trkpt><trkpt lon="15.5558812" lat="46.5192066"><ele>866</ele><time>2019-09-10T15:52:21.000Z</time></trkpt><trkpt lon="15.5557926" lat="46.5192144"><ele>867</ele><time>2019-09-10T15:52:22.000Z</time></trkpt><trkpt lon="15.5557926" lat="46.5192144"><ele>867</ele><time>2019-09-10T15:52:23.000Z</time></trkpt><trkpt lon="15.5556958" lat="46.5192203"><ele>867</ele><time>2019-09-10T15:52:24.000Z</time></trkpt><trkpt lon="15.5556958" lat="46.5192203"><ele>867</ele><time>2019-09-10T15:52:25.000Z</time></trkpt><trkpt lon="15.5555915" lat="46.5192311"><ele>867</ele><time>2019-09-10T15:52:26.000Z</time></trkpt><trkpt lon="15.5555915" lat="46.5192311"><ele>867</ele><time>2019-09-10T15:52:27.000Z</time></trkpt><trkpt lon="15.5554655" lat="46.5192504"><ele>868</ele><time>2019-09-10T15:52:28.000Z</time></trkpt><trkpt lon="15.5554655" lat="46.5192504"><ele>868</ele><time>2019-09-10T15:52:29.000Z</time></trkpt><trkpt lon="15.5553356" lat="46.5192748"><ele>869</ele><time>2019-09-10T15:52:30.000Z</time></trkpt><trkpt lon="15.5553356" lat="46.5192748"><ele>869</ele><time>2019-09-10T15:52:31.000Z</time></trkpt><trkpt lon="15.5551869" lat="46.5193131"><ele>869</ele><time>2019-09-10T15:52:32.000Z</time></trkpt><trkpt lon="15.5551869" lat="46.5193131"><ele>869</ele><time>2019-09-10T15:52:33.000Z</time></trkpt><trkpt lon="15.5549804" lat="46.5193869"><ele>870</ele><time>2019-09-10T15:52:34.000Z</time></trkpt><trkpt lon="15.5549304" lat="46.5194128"><ele>870</ele><time>2019-09-10T15:52:35.000Z</time></trkpt><trkpt lon="15.5549304" lat="46.5194128"><ele>870</ele><time>2019-09-10T15:52:36.000Z</time></trkpt><trkpt lon="15.5548209" lat="46.5194394"><ele>870</ele><time>2019-09-10T15:52:37.000Z</time></trkpt><trkpt lon="15.5547772" lat="46.519453"><ele>870</ele><time>2019-09-10T15:52:38.000Z</time></trkpt><trkpt lon="15.5547158" lat="46.5194683"><ele>871</ele><time>2019-09-10T15:52:39.000Z</time></trkpt><trkpt lon="15.5547158" lat="46.5194683"><ele>871</ele><time>2019-09-10T15:52:40.000Z</time></trkpt><trkpt lon="15.5546304" lat="46.5195078"><ele>871</ele><time>2019-09-10T15:52:41.000Z</time></trkpt><trkpt lon="15.5546304" lat="46.5195078"><ele>871</ele><time>2019-09-10T15:52:42.000Z</time></trkpt><trkpt lon="15.5545622" lat="46.5195343"><ele>871</ele><time>2019-09-10T15:52:43.000Z</time></trkpt><trkpt lon="15.5545622" lat="46.5195343"><ele>871</ele><time>2019-09-10T15:52:44.000Z</time></trkpt><trkpt lon="15.5544851" lat="46.5195643"><ele>872</ele><time>2019-09-10T15:52:45.000Z</time></trkpt><trkpt lon="15.5544851" lat="46.5195643"><ele>872</ele><time>2019-09-10T15:52:46.000Z</time></trkpt><trkpt lon="15.5544012" lat="46.5195872"><ele>872</ele><time>2019-09-10T15:52:47.000Z</time></trkpt><trkpt lon="15.554357" lat="46.5195956"><ele>872</ele><time>2019-09-10T15:52:48.000Z</time></trkpt><trkpt lon="15.554357" lat="46.5195956"><ele>872</ele><time>2019-09-10T15:52:49.000Z</time></trkpt><trkpt lon="15.5542701" lat="46.5195983"><ele>873</ele><time>2019-09-10T15:52:50.000Z</time></trkpt><trkpt lon="15.554228" lat="46.519594"><ele>873</ele><time>2019-09-10T15:52:51.000Z</time></trkpt><trkpt lon="15.554228" lat="46.519594"><ele>873</ele><time>2019-09-10T15:52:52.000Z</time></trkpt><trkpt lon="15.5541671" lat="46.5195698"><ele>874</ele><time>2019-09-10T15:52:53.000Z</time></trkpt><trkpt lon="15.5541671" lat="46.5195698"><ele>874</ele><time>2019-09-10T15:52:54.000Z</time></trkpt><trkpt lon="15.5541228" lat="46.5195357"><ele>874</ele><time>2019-09-10T15:52:55.000Z</time></trkpt><trkpt lon="15.5541228" lat="46.5195357"><ele>874</ele><time>2019-09-10T15:52:56.000Z</time></trkpt><trkpt lon="15.5540794" lat="46.5194914"><ele>874</ele><time>2019-09-10T15:52:57.000Z</time></trkpt><trkpt lon="15.5540576" lat="46.5194662"><ele>875</ele><time>2019-09-10T15:52:58.000Z</time></trkpt><trkpt lon="15.5540576" lat="46.5194662"><ele>875</ele><time>2019-09-10T15:52:59.000Z</time></trkpt><trkpt lon="15.5540172" lat="46.5194128"><ele>875</ele><time>2019-09-10T15:53:00.000Z</time></trkpt><trkpt lon="15.5540172" lat="46.5194128"><ele>875</ele><time>2019-09-10T15:53:01.000Z</time></trkpt><trkpt lon="15.5539765" lat="46.5193531"><ele>876</ele><time>2019-09-10T15:53:02.000Z</time></trkpt><trkpt lon="15.5539565" lat="46.5193209"><ele>876</ele><time>2019-09-10T15:53:03.000Z</time></trkpt><trkpt lon="15.5539565" lat="46.5193209"><ele>876</ele><time>2019-09-10T15:53:04.000Z</time></trkpt><trkpt lon="15.5539244" lat="46.5192639"><ele>876</ele><time>2019-09-10T15:53:05.000Z</time></trkpt><trkpt lon="15.5539244" lat="46.5192639"><ele>876</ele><time>2019-09-10T15:53:06.000Z</time></trkpt><trkpt lon="15.5538986" lat="46.5192175"><ele>877</ele><time>2019-09-10T15:53:07.000Z</time></trkpt><trkpt lon="15.5538842" lat="46.519192"><ele>877</ele><time>2019-09-10T15:53:08.000Z</time></trkpt><trkpt lon="15.5538842" lat="46.519192"><ele>877</ele><time>2019-09-10T15:53:09.000Z</time></trkpt><trkpt lon="15.5538567" lat="46.5191372"><ele>878</ele><time>2019-09-10T15:53:10.000Z</time></trkpt><trkpt lon="15.5538445" lat="46.5191092"><ele>878</ele><time>2019-09-10T15:53:11.000Z</time></trkpt><trkpt lon="15.5538445" lat="46.5191092"><ele>878</ele><time>2019-09-10T15:53:12.000Z</time></trkpt><trkpt lon="15.5538179" lat="46.519053"><ele>879</ele><time>2019-09-10T15:53:13.000Z</time></trkpt><trkpt lon="15.5538012" lat="46.519027"><ele>879</ele><time>2019-09-10T15:53:14.000Z</time></trkpt><trkpt lon="15.5538012" lat="46.519027"><ele>879</ele><time>2019-09-10T15:53:15.000Z</time></trkpt><trkpt lon="15.5537667" lat="46.5189788"><ele>879</ele><time>2019-09-10T15:53:16.000Z</time></trkpt><trkpt lon="15.5537667" lat="46.5189788"><ele>879</ele><time>2019-09-10T15:53:17.000Z</time></trkpt><trkpt lon="15.5537313" lat="46.5189315"><ele>880</ele><time>2019-09-10T15:53:18.000Z</time></trkpt><trkpt lon="15.5537139" lat="46.5189064"><ele>880</ele><time>2019-09-10T15:53:19.000Z</time></trkpt><trkpt lon="15.5537139" lat="46.5189064"><ele>880</ele><time>2019-09-10T15:53:20.000Z</time></trkpt><trkpt lon="15.5536781" lat="46.5188503"><ele>880</ele><time>2019-09-10T15:53:21.000Z</time></trkpt><trkpt lon="15.5536781" lat="46.5188503"><ele>880</ele><time>2019-09-10T15:53:22.000Z</time></trkpt><trkpt lon="15.5536333" lat="46.5187786"><ele>882</ele><time>2019-09-10T15:53:23.000Z</time></trkpt><trkpt lon="15.5536105" lat="46.5187409"><ele>883</ele><time>2019-09-10T15:53:24.000Z</time></trkpt><trkpt lon="15.5535887" lat="46.5187048"><ele>883</ele><time>2019-09-10T15:53:25.000Z</time></trkpt><trkpt lon="15.5535887" lat="46.5187048"><ele>883</ele><time>2019-09-10T15:53:26.000Z</time></trkpt><trkpt lon="15.5535529" lat="46.5186312"><ele>883</ele><time>2019-09-10T15:53:27.000Z</time></trkpt><trkpt lon="15.5535354" lat="46.5185923"><ele>883</ele><time>2019-09-10T15:53:28.000Z</time></trkpt><trkpt lon="15.553517" lat="46.5185504"><ele>884</ele><time>2019-09-10T15:53:29.000Z</time></trkpt><trkpt lon="15.553517" lat="46.5185504"><ele>884</ele><time>2019-09-10T15:53:30.000Z</time></trkpt><trkpt lon="15.5534796" lat="46.5184676"><ele>885</ele><time>2019-09-10T15:53:31.000Z</time></trkpt><trkpt lon="15.553464" lat="46.5184209"><ele>886</ele><time>2019-09-10T15:53:32.000Z</time></trkpt><trkpt lon="15.553464" lat="46.5184209"><ele>886</ele><time>2019-09-10T15:53:33.000Z</time></trkpt><trkpt lon="15.5534476" lat="46.5183251"><ele>888</ele><time>2019-09-10T15:53:34.000Z</time></trkpt><trkpt lon="15.5534476" lat="46.5183251"><ele>888</ele><time>2019-09-10T15:53:35.000Z</time></trkpt><trkpt lon="15.5534451" lat="46.5182089"><ele>889</ele><time>2019-09-10T15:53:36.000Z</time></trkpt><trkpt lon="15.5534451" lat="46.5182089"><ele>889</ele><time>2019-09-10T15:53:37.000Z</time></trkpt><trkpt lon="15.5534347" lat="46.5181328"><ele>890</ele><time>2019-09-10T15:53:38.000Z</time></trkpt><trkpt lon="15.5534347" lat="46.5181328"><ele>890</ele><time>2019-09-10T15:53:39.000Z</time></trkpt><trkpt lon="15.5534024" lat="46.5180756"><ele>891</ele><time>2019-09-10T15:53:40.000Z</time></trkpt><trkpt lon="15.5533788" lat="46.5180473"><ele>891</ele><time>2019-09-10T15:53:41.000Z</time></trkpt><trkpt lon="15.5533788" lat="46.5180473"><ele>891</ele><time>2019-09-10T15:53:42.000Z</time></trkpt><trkpt lon="15.5533291" lat="46.5179894"><ele>892</ele><time>2019-09-10T15:53:43.000Z</time></trkpt><trkpt lon="15.553304" lat="46.5179605"><ele>892</ele><time>2019-09-10T15:53:44.000Z</time></trkpt><trkpt lon="15.5532788" lat="46.5179321"><ele>892</ele><time>2019-09-10T15:53:45.000Z</time></trkpt><trkpt lon="15.5532788" lat="46.5179321"><ele>892</ele><time>2019-09-10T15:53:46.000Z</time></trkpt><trkpt lon="15.5532235" lat="46.5178793"><ele>893</ele><time>2019-09-10T15:53:47.000Z</time></trkpt><trkpt lon="15.5532235" lat="46.5178793"><ele>893</ele><time>2019-09-10T15:53:48.000Z</time></trkpt><trkpt lon="15.553171" lat="46.5178321"><ele>894</ele><time>2019-09-10T15:53:49.000Z</time></trkpt><trkpt lon="15.553171" lat="46.5178321"><ele>894</ele><time>2019-09-10T15:53:50.000Z</time></trkpt><trkpt lon="15.5531256" lat="46.5177899"><ele>894</ele><time>2019-09-10T15:53:51.000Z</time></trkpt><trkpt lon="15.5531256" lat="46.5177899"><ele>894</ele><time>2019-09-10T15:53:52.000Z</time></trkpt><trkpt lon="15.5530858" lat="46.5177515"><ele>895</ele><time>2019-09-10T15:53:53.000Z</time></trkpt><trkpt lon="15.5530553" lat="46.5177237"><ele>895</ele><time>2019-09-10T15:53:54.000Z</time></trkpt><trkpt lon="15.5530553" lat="46.5177237"><ele>895</ele><time>2019-09-10T15:53:55.000Z</time></trkpt><trkpt lon="15.5529658" lat="46.5176499"><ele>896</ele><time>2019-09-10T15:53:56.000Z</time></trkpt><trkpt lon="15.5529658" lat="46.5176499"><ele>896</ele><time>2019-09-10T15:53:57.000Z</time></trkpt><trkpt lon="15.5528911" lat="46.517601"><ele>896</ele><time>2019-09-10T15:53:58.000Z</time></trkpt><trkpt lon="15.5528573" lat="46.517578"><ele>897</ele><time>2019-09-10T15:53:59.000Z</time></trkpt><trkpt lon="15.5528252" lat="46.5175564"><ele>897</ele><time>2019-09-10T15:54:00.000Z</time></trkpt><trkpt lon="15.5528252" lat="46.5175564"><ele>897</ele><time>2019-09-10T15:54:01.000Z</time></trkpt><trkpt lon="15.5527679" lat="46.5175165"><ele>898</ele><time>2019-09-10T15:54:02.000Z</time></trkpt><trkpt lon="15.5527679" lat="46.5175165"><ele>898</ele><time>2019-09-10T15:54:03.000Z</time></trkpt><trkpt lon="15.5527009" lat="46.5174685"><ele>899</ele><time>2019-09-10T15:54:04.000Z</time></trkpt><trkpt lon="15.5527009" lat="46.5174685"><ele>899</ele><time>2019-09-10T15:54:05.000Z</time></trkpt><trkpt lon="15.5526245" lat="46.5174189"><ele>900</ele><time>2019-09-10T15:54:06.000Z</time></trkpt><trkpt lon="15.5526245" lat="46.5174189"><ele>900</ele><time>2019-09-10T15:54:07.000Z</time></trkpt><trkpt lon="15.5525431" lat="46.5173729"><ele>901</ele><time>2019-09-10T15:54:08.000Z</time></trkpt><trkpt lon="15.5525008" lat="46.5173524"><ele>901</ele><time>2019-09-10T15:54:09.000Z</time></trkpt><trkpt lon="15.5525008" lat="46.5173524"><ele>901</ele><time>2019-09-10T15:54:10.000Z</time></trkpt><trkpt lon="15.5524114" lat="46.5173148"><ele>901</ele><time>2019-09-10T15:54:11.000Z</time></trkpt><trkpt lon="15.5524114" lat="46.5173148"><ele>901</ele><time>2019-09-10T15:54:12.000Z</time></trkpt><trkpt lon="15.5523218" lat="46.5172831"><ele>903</ele><time>2019-09-10T15:54:13.000Z</time></trkpt><trkpt lon="15.5522771" lat="46.5172715"><ele>903</ele><time>2019-09-10T15:54:14.000Z</time></trkpt><trkpt lon="15.552231" lat="46.5172613"><ele>903</ele><time>2019-09-10T15:54:15.000Z</time></trkpt><trkpt lon="15.552231" lat="46.5172613"><ele>903</ele><time>2019-09-10T15:54:16.000Z</time></trkpt><trkpt lon="15.5521542" lat="46.5172419"><ele>903</ele><time>2019-09-10T15:54:17.000Z</time></trkpt><trkpt lon="15.5521192" lat="46.5172295"><ele>904</ele><time>2019-09-10T15:54:18.000Z</time></trkpt><trkpt lon="15.5521192" lat="46.5172295"><ele>904</ele><time>2019-09-10T15:54:19.000Z</time></trkpt><trkpt lon="15.5520442" lat="46.5172082"><ele>906</ele><time>2019-09-10T15:54:20.000Z</time></trkpt><trkpt lon="15.5520442" lat="46.5172082"><ele>906</ele><time>2019-09-10T15:54:21.000Z</time></trkpt><trkpt lon="15.5519899" lat="46.5171851"><ele>906</ele><time>2019-09-10T15:54:22.000Z</time></trkpt><trkpt lon="15.5519899" lat="46.5171851"><ele>906</ele><time>2019-09-10T15:54:23.000Z</time></trkpt><trkpt lon="15.5519564" lat="46.5171668"><ele>906</ele><time>2019-09-10T15:54:24.000Z</time></trkpt><trkpt lon="15.5519564" lat="46.5171668"><ele>906</ele><time>2019-09-10T15:54:25.000Z</time></trkpt><trkpt lon="15.5519333" lat="46.517141"><ele>909</ele><time>2019-09-10T15:54:26.000Z</time></trkpt><trkpt lon="15.5519333" lat="46.517141"><ele>909</ele><time>2019-09-10T15:54:27.000Z</time></trkpt><trkpt lon="15.5519114" lat="46.5171045"><ele>909</ele><time>2019-09-10T15:54:28.000Z</time></trkpt><trkpt lon="15.5519114" lat="46.5171045"><ele>909</ele><time>2019-09-10T15:54:29.000Z</time></trkpt><trkpt lon="15.5518909" lat="46.5170638"><ele>909</ele><time>2019-09-10T15:54:30.000Z</time></trkpt><trkpt lon="15.5518909" lat="46.5170638"><ele>909</ele><time>2019-09-10T15:54:31.000Z</time></trkpt><trkpt lon="15.5518702" lat="46.5170274"><ele>910</ele><time>2019-09-10T15:54:32.000Z</time></trkpt><trkpt lon="15.5518702" lat="46.5170274"><ele>910</ele><time>2019-09-10T15:54:33.000Z</time></trkpt><trkpt lon="15.5518507" lat="46.5169894"><ele>910</ele><time>2019-09-10T15:54:34.000Z</time></trkpt><trkpt lon="15.5518507" lat="46.5169894"><ele>910</ele><time>2019-09-10T15:54:35.000Z</time></trkpt><trkpt lon="15.5518344" lat="46.5169525"><ele>910</ele><time>2019-09-10T15:54:36.000Z</time></trkpt><trkpt lon="15.5518344" lat="46.5169525"><ele>910</ele><time>2019-09-10T15:54:37.000Z</time></trkpt><trkpt lon="15.5518172" lat="46.5169154"><ele>910</ele><time>2019-09-10T15:54:38.000Z</time></trkpt><trkpt lon="15.5518172" lat="46.5169154"><ele>910</ele><time>2019-09-10T15:54:39.000Z</time></trkpt><trkpt lon="15.5518011" lat="46.5168735"><ele>910</ele><time>2019-09-10T15:54:40.000Z</time></trkpt><trkpt lon="15.5518011" lat="46.5168735"><ele>910</ele><time>2019-09-10T15:54:41.000Z</time></trkpt><trkpt lon="15.5517913" lat="46.5168279"><ele>911</ele><time>2019-09-10T15:54:42.000Z</time></trkpt><trkpt lon="15.5517913" lat="46.5168279"><ele>911</ele><time>2019-09-10T15:54:43.000Z</time></trkpt><trkpt lon="15.5517913" lat="46.5167763"><ele>911</ele><time>2019-09-10T15:54:44.000Z</time></trkpt><trkpt lon="15.5517913" lat="46.5167763"><ele>911</ele><time>2019-09-10T15:54:45.000Z</time></trkpt><trkpt lon="15.5518016" lat="46.5167255"><ele>911</ele><time>2019-09-10T15:54:46.000Z</time></trkpt><trkpt lon="15.5518016" lat="46.5167255"><ele>911</ele><time>2019-09-10T15:54:47.000Z</time></trkpt><trkpt lon="15.55182" lat="46.5166631"><ele>912</ele><time>2019-09-10T15:54:48.000Z</time></trkpt><trkpt lon="15.55182" lat="46.5166631"><ele>912</ele><time>2019-09-10T15:54:49.000Z</time></trkpt><trkpt lon="15.5518381" lat="46.5166086"><ele>913</ele><time>2019-09-10T15:54:50.000Z</time></trkpt><trkpt lon="15.5518381" lat="46.5166086"><ele>913</ele><time>2019-09-10T15:54:51.000Z</time></trkpt><trkpt lon="15.5518639" lat="46.5165671"><ele>913</ele><time>2019-09-10T15:54:52.000Z</time></trkpt><trkpt lon="15.5518639" lat="46.5165671"><ele>913</ele><time>2019-09-10T15:54:53.000Z</time></trkpt><trkpt lon="15.5518855" lat="46.5165274"><ele>914</ele><time>2019-09-10T15:54:54.000Z</time></trkpt><trkpt lon="15.5518855" lat="46.5165274"><ele>914</ele><time>2019-09-10T15:54:55.000Z</time></trkpt><trkpt lon="15.5519052" lat="46.51648"><ele>915</ele><time>2019-09-10T15:54:56.000Z</time></trkpt><trkpt lon="15.5519186" lat="46.5164499"><ele>917</ele><time>2019-09-10T15:54:57.000Z</time></trkpt><trkpt lon="15.5519318" lat="46.5164223"><ele>917</ele><time>2019-09-10T15:54:58.000Z</time></trkpt><trkpt lon="15.5519463" lat="46.5163972"><ele>917</ele><time>2019-09-10T15:54:59.000Z</time></trkpt><trkpt lon="15.5519463" lat="46.5163972"><ele>917</ele><time>2019-09-10T15:55:00.000Z</time></trkpt><trkpt lon="15.5519703" lat="46.516342"><ele>918</ele><time>2019-09-10T15:55:01.000Z</time></trkpt><trkpt lon="15.5519818" lat="46.5163137"><ele>917</ele><time>2019-09-10T15:55:02.000Z</time></trkpt><trkpt lon="15.5519818" lat="46.5163137"><ele>917</ele><time>2019-09-10T15:55:03.000Z</time></trkpt><trkpt lon="15.5520054" lat="46.5162627"><ele>919</ele><time>2019-09-10T15:55:04.000Z</time></trkpt><trkpt lon="15.5520054" lat="46.5162627"><ele>919</ele><time>2019-09-10T15:55:05.000Z</time></trkpt><trkpt lon="15.552032" lat="46.5162172"><ele>919</ele><time>2019-09-10T15:55:06.000Z</time></trkpt><trkpt lon="15.552032" lat="46.5162172"><ele>919</ele><time>2019-09-10T15:55:07.000Z</time></trkpt><trkpt lon="15.5520534" lat="46.5161691"><ele>920</ele><time>2019-09-10T15:55:08.000Z</time></trkpt><trkpt lon="15.5520534" lat="46.5161691"><ele>920</ele><time>2019-09-10T15:55:09.000Z</time></trkpt><trkpt lon="15.5520676" lat="46.5161171"><ele>920</ele><time>2019-09-10T15:55:10.000Z</time></trkpt><trkpt lon="15.5520699" lat="46.5160885"><ele>921</ele><time>2019-09-10T15:55:11.000Z</time></trkpt><trkpt lon="15.5520699" lat="46.5160885"><ele>921</ele><time>2019-09-10T15:55:12.000Z</time></trkpt><trkpt lon="15.5520919" lat="46.5160535"><ele>921</ele><time>2019-09-10T15:55:13.000Z</time></trkpt><trkpt lon="15.5520919" lat="46.5160535"><ele>921</ele><time>2019-09-10T15:55:14.000Z</time></trkpt><trkpt lon="15.5521029" lat="46.5160156"><ele>923</ele><time>2019-09-10T15:55:15.000Z</time></trkpt><trkpt lon="15.5521029" lat="46.5160156"><ele>923</ele><time>2019-09-10T15:55:16.000Z</time></trkpt><trkpt lon="15.5521132" lat="46.5159723"><ele>924</ele><time>2019-09-10T15:55:17.000Z</time></trkpt><trkpt lon="15.5521132" lat="46.5159723"><ele>924</ele><time>2019-09-10T15:55:18.000Z</time></trkpt><trkpt lon="15.5521281" lat="46.5159375"><ele>924</ele><time>2019-09-10T15:55:19.000Z</time></trkpt><trkpt lon="15.5521281" lat="46.5159375"><ele>924</ele><time>2019-09-10T15:55:20.000Z</time></trkpt><trkpt lon="15.552163" lat="46.5158964"><ele>925</ele><time>2019-09-10T15:55:21.000Z</time></trkpt><trkpt lon="15.552163" lat="46.5158964"><ele>925</ele><time>2019-09-10T15:55:22.000Z</time></trkpt><trkpt lon="15.5521872" lat="46.5158615"><ele>926</ele><time>2019-09-10T15:55:23.000Z</time></trkpt><trkpt lon="15.5521872" lat="46.5158615"><ele>926</ele><time>2019-09-10T15:55:24.000Z</time></trkpt><trkpt lon="15.5522114" lat="46.5158272"><ele>926</ele><time>2019-09-10T15:55:25.000Z</time></trkpt><trkpt lon="15.5522114" lat="46.5158272"><ele>926</ele><time>2019-09-10T15:55:26.000Z</time></trkpt><trkpt lon="15.5522352" lat="46.5157863"><ele>926</ele><time>2019-09-10T15:55:27.000Z</time></trkpt><trkpt lon="15.5522352" lat="46.5157863"><ele>926</ele><time>2019-09-10T15:55:28.000Z</time></trkpt><trkpt lon="15.5522478" lat="46.5157468"><ele>926</ele><time>2019-09-10T15:55:29.000Z</time></trkpt><trkpt lon="15.5522478" lat="46.5157468"><ele>926</ele><time>2019-09-10T15:55:30.000Z</time></trkpt><trkpt lon="15.5522609" lat="46.5156983"><ele>927</ele><time>2019-09-10T15:55:31.000Z</time></trkpt><trkpt lon="15.5522609" lat="46.5156983"><ele>927</ele><time>2019-09-10T15:55:32.000Z</time></trkpt><trkpt lon="15.5522734" lat="46.5156586"><ele>927</ele><time>2019-09-10T15:55:33.000Z</time></trkpt><trkpt lon="15.5522734" lat="46.5156586"><ele>927</ele><time>2019-09-10T15:55:34.000Z</time></trkpt><trkpt lon="15.552289" lat="46.5156228"><ele>927</ele><time>2019-09-10T15:55:35.000Z</time></trkpt><trkpt lon="15.552289" lat="46.5156228"><ele>927</ele><time>2019-09-10T15:55:36.000Z</time></trkpt><trkpt lon="15.5522983" lat="46.5155843"><ele>927</ele><time>2019-09-10T15:55:37.000Z</time></trkpt><trkpt lon="15.5522983" lat="46.5155843"><ele>927</ele><time>2019-09-10T15:55:38.000Z</time></trkpt><trkpt lon="15.5523014" lat="46.5155408"><ele>927</ele><time>2019-09-10T15:55:39.000Z</time></trkpt><trkpt lon="15.5523014" lat="46.5155408"><ele>927</ele><time>2019-09-10T15:55:40.000Z</time></trkpt><trkpt lon="15.5523094" lat="46.5154936"><ele>927</ele><time>2019-09-10T15:55:41.000Z</time></trkpt><trkpt lon="15.5523094" lat="46.5154936"><ele>927</ele><time>2019-09-10T15:55:42.000Z</time></trkpt><trkpt lon="15.5523141" lat="46.515437"><ele>928</ele><time>2019-09-10T15:55:43.000Z</time></trkpt><trkpt lon="15.5523175" lat="46.515409"><ele>928</ele><time>2019-09-10T15:55:44.000Z</time></trkpt><trkpt lon="15.5523175" lat="46.515409"><ele>928</ele><time>2019-09-10T15:55:45.000Z</time></trkpt><trkpt lon="15.5523243" lat="46.5153559"><ele>928</ele><time>2019-09-10T15:55:46.000Z</time></trkpt><trkpt lon="15.5523243" lat="46.5153559"><ele>928</ele><time>2019-09-10T15:55:47.000Z</time></trkpt><trkpt lon="15.5523311" lat="46.5153078"><ele>929</ele><time>2019-09-10T15:55:48.000Z</time></trkpt><trkpt lon="15.5523311" lat="46.5153078"><ele>929</ele><time>2019-09-10T15:55:49.000Z</time></trkpt><trkpt lon="15.5523387" lat="46.5152553"><ele>929</ele><time>2019-09-10T15:55:50.000Z</time></trkpt><trkpt lon="15.5523419" lat="46.5152273"><ele>929</ele><time>2019-09-10T15:55:51.000Z</time></trkpt><trkpt lon="15.5523419" lat="46.5152273"><ele>929</ele><time>2019-09-10T15:55:52.000Z</time></trkpt><trkpt lon="15.5523366" lat="46.5151652"><ele>930</ele><time>2019-09-10T15:55:53.000Z</time></trkpt><trkpt lon="15.5523366" lat="46.5151652"><ele>930</ele><time>2019-09-10T15:55:54.000Z</time></trkpt><trkpt lon="15.5523296" lat="46.5150828"><ele>931</ele><time>2019-09-10T15:55:55.000Z</time></trkpt><trkpt lon="15.5523296" lat="46.5150828"><ele>931</ele><time>2019-09-10T15:55:56.000Z</time></trkpt><trkpt lon="15.5523297" lat="46.5150172"><ele>931</ele><time>2019-09-10T15:55:57.000Z</time></trkpt><trkpt lon="15.5523297" lat="46.5150172"><ele>931</ele><time>2019-09-10T15:55:58.000Z</time></trkpt><trkpt lon="15.5523308" lat="46.514959"><ele>933</ele><time>2019-09-10T15:55:59.000Z</time></trkpt><trkpt lon="15.5523308" lat="46.514959"><ele>933</ele><time>2019-09-10T15:56:00.000Z</time></trkpt><trkpt lon="15.5523344" lat="46.5149034"><ele>933</ele><time>2019-09-10T15:56:01.000Z</time></trkpt><trkpt lon="15.5523344" lat="46.5149034"><ele>933</ele><time>2019-09-10T15:56:02.000Z</time></trkpt><trkpt lon="15.5523375" lat="46.5148598"><ele>934</ele><time>2019-09-10T15:56:03.000Z</time></trkpt><trkpt lon="15.5523375" lat="46.5148598"><ele>934</ele><time>2019-09-10T15:56:04.000Z</time></trkpt><trkpt lon="15.5523442" lat="46.5148195"><ele>934</ele><time>2019-09-10T15:56:05.000Z</time></trkpt><trkpt lon="15.5523442" lat="46.5148195"><ele>934</ele><time>2019-09-10T15:56:06.000Z</time></trkpt><trkpt lon="15.5523536" lat="46.5147788"><ele>934</ele><time>2019-09-10T15:56:07.000Z</time></trkpt><trkpt lon="15.5523536" lat="46.5147788"><ele>934</ele><time>2019-09-10T15:56:08.000Z</time></trkpt><trkpt lon="15.5523669" lat="46.5147303"><ele>934</ele><time>2019-09-10T15:56:09.000Z</time></trkpt><trkpt lon="15.5523669" lat="46.5147303"><ele>934</ele><time>2019-09-10T15:56:10.000Z</time></trkpt><trkpt lon="15.5523789" lat="46.5146848"><ele>934</ele><time>2019-09-10T15:56:11.000Z</time></trkpt><trkpt lon="15.5523789" lat="46.5146848"><ele>934</ele><time>2019-09-10T15:56:12.000Z</time></trkpt><trkpt lon="15.5523927" lat="46.5146331"><ele>935</ele><time>2019-09-10T15:56:13.000Z</time></trkpt><trkpt lon="15.552399" lat="46.5146064"><ele>936</ele><time>2019-09-10T15:56:14.000Z</time></trkpt><trkpt lon="15.552399" lat="46.5146064"><ele>936</ele><time>2019-09-10T15:56:15.000Z</time></trkpt><trkpt lon="15.5524094" lat="46.5145617"><ele>935</ele><time>2019-09-10T15:56:16.000Z</time></trkpt><trkpt lon="15.5524094" lat="46.5145617"><ele>935</ele><time>2019-09-10T15:56:17.000Z</time></trkpt><trkpt lon="15.5524197" lat="46.5145229"><ele>936</ele><time>2019-09-10T15:56:18.000Z</time></trkpt><trkpt lon="15.5524197" lat="46.5145229"><ele>936</ele><time>2019-09-10T15:56:19.000Z</time></trkpt><trkpt lon="15.5524244" lat="46.5144851"><ele>937</ele><time>2019-09-10T15:56:20.000Z</time></trkpt><trkpt lon="15.5524244" lat="46.5144851"><ele>937</ele><time>2019-09-10T15:56:21.000Z</time></trkpt><trkpt lon="15.5524321" lat="46.5144525"><ele>938</ele><time>2019-09-10T15:56:22.000Z</time></trkpt><trkpt lon="15.5524321" lat="46.5144525"><ele>938</ele><time>2019-09-10T15:56:23.000Z</time></trkpt><trkpt lon="15.5524638" lat="46.5144078"><ele>938</ele><time>2019-09-10T15:56:24.000Z</time></trkpt><trkpt lon="15.5524638" lat="46.5144078"><ele>938</ele><time>2019-09-10T15:56:25.000Z</time></trkpt><trkpt lon="15.5525089" lat="46.5143723"><ele>939</ele><time>2019-09-10T15:56:26.000Z</time></trkpt><trkpt lon="15.5525089" lat="46.5143723"><ele>939</ele><time>2019-09-10T15:56:27.000Z</time></trkpt><trkpt lon="15.5525679" lat="46.5143599"><ele>940</ele><time>2019-09-10T15:56:28.000Z</time></trkpt><trkpt lon="15.5525679" lat="46.5143599"><ele>940</ele><time>2019-09-10T15:56:29.000Z</time></trkpt><trkpt lon="15.5526205" lat="46.5143669"><ele>941</ele><time>2019-09-10T15:56:30.000Z</time></trkpt><trkpt lon="15.5526205" lat="46.5143669"><ele>941</ele><time>2019-09-10T15:56:31.000Z</time></trkpt><trkpt lon="15.5526205" lat="46.5143669"><ele>941</ele><time>2019-09-10T15:56:32.000Z</time></trkpt><trkpt lon="15.5526522" lat="46.5143872"><ele>943</ele><time>2019-09-10T15:56:33.000Z</time></trkpt><trkpt lon="15.5526522" lat="46.5143872"><ele>943</ele><time>2019-09-10T15:56:34.000Z</time></trkpt><trkpt lon="15.5526522" lat="46.5143872"><ele>943</ele><time>2019-09-10T15:56:35.000Z</time></trkpt><trkpt lon="15.5526904" lat="46.5144193"><ele>944</ele><time>2019-09-10T15:56:36.000Z</time></trkpt><trkpt lon="15.5526904" lat="46.5144193"><ele>944</ele><time>2019-09-10T15:56:37.000Z</time></trkpt><trkpt lon="15.5527178" lat="46.5144501"><ele>945</ele><time>2019-09-10T15:56:38.000Z</time></trkpt><trkpt lon="15.5527178" lat="46.5144501"><ele>945</ele><time>2019-09-10T15:56:39.000Z</time></trkpt><trkpt lon="15.5527502" lat="46.5144989"><ele>945</ele><time>2019-09-10T15:56:40.000Z</time></trkpt><trkpt lon="15.5527502" lat="46.5144989"><ele>945</ele><time>2019-09-10T15:56:41.000Z</time></trkpt><trkpt lon="15.5527962" lat="46.5145546"><ele>948</ele><time>2019-09-10T15:56:42.000Z</time></trkpt><trkpt lon="15.5527962" lat="46.5145546"><ele>948</ele><time>2019-09-10T15:56:43.000Z</time></trkpt><trkpt lon="15.552846" lat="46.51461"><ele>950</ele><time>2019-09-10T15:56:44.000Z</time></trkpt><trkpt lon="15.5528683" lat="46.5146371"><ele>950</ele><time>2019-09-10T15:56:45.000Z</time></trkpt><trkpt lon="15.5528683" lat="46.5146371"><ele>950</ele><time>2019-09-10T15:56:46.000Z</time></trkpt><trkpt lon="15.552892" lat="46.5146803"><ele>950</ele><time>2019-09-10T15:56:47.000Z</time></trkpt><trkpt lon="15.552892" lat="46.5146803"><ele>950</ele><time>2019-09-10T15:56:48.000Z</time></trkpt><trkpt lon="15.5529178" lat="46.5147278"><ele>950</ele><time>2019-09-10T15:56:49.000Z</time></trkpt><trkpt lon="15.5529178" lat="46.5147278"><ele>950</ele><time>2019-09-10T15:56:50.000Z</time></trkpt><trkpt lon="15.5529496" lat="46.5147901"><ele>953</ele><time>2019-09-10T15:56:51.000Z</time></trkpt><trkpt lon="15.5529496" lat="46.5147901"><ele>953</ele><time>2019-09-10T15:56:52.000Z</time></trkpt><trkpt lon="15.5529869" lat="46.5148582"><ele>954</ele><time>2019-09-10T15:56:53.000Z</time></trkpt><trkpt lon="15.5529869" lat="46.5148582"><ele>954</ele><time>2019-09-10T15:56:54.000Z</time></trkpt><trkpt lon="15.5530171" lat="46.5149276"><ele>955</ele><time>2019-09-10T15:56:55.000Z</time></trkpt><trkpt lon="15.5530171" lat="46.5149276"><ele>955</ele><time>2019-09-10T15:56:56.000Z</time></trkpt><trkpt lon="15.55303" lat="46.5150002"><ele>958</ele><time>2019-09-10T15:56:57.000Z</time></trkpt><trkpt lon="15.5530361" lat="46.5150391"><ele>957</ele><time>2019-09-10T15:56:58.000Z</time></trkpt><trkpt lon="15.5530361" lat="46.5150391"><ele>957</ele><time>2019-09-10T15:56:59.000Z</time></trkpt><trkpt lon="15.5530511" lat="46.5151159"><ele>958</ele><time>2019-09-10T15:57:00.000Z</time></trkpt><trkpt lon="15.5530571" lat="46.5151442"><ele>958</ele><time>2019-09-10T15:57:01.000Z</time></trkpt><trkpt lon="15.5530571" lat="46.5151442"><ele>958</ele><time>2019-09-10T15:57:02.000Z</time></trkpt><trkpt lon="15.5530665" lat="46.5152005"><ele>958</ele><time>2019-09-10T15:57:03.000Z</time></trkpt><trkpt lon="15.5530665" lat="46.5152005"><ele>958</ele><time>2019-09-10T15:57:04.000Z</time></trkpt><trkpt lon="15.5530791" lat="46.5152538"><ele>959</ele><time>2019-09-10T15:57:05.000Z</time></trkpt><trkpt lon="15.5530791" lat="46.5152538"><ele>959</ele><time>2019-09-10T15:57:06.000Z</time></trkpt><trkpt lon="15.5530917" lat="46.5152989"><ele>960</ele><time>2019-09-10T15:57:07.000Z</time></trkpt><trkpt lon="15.5530917" lat="46.5152989"><ele>960</ele><time>2019-09-10T15:57:08.000Z</time></trkpt><trkpt lon="15.5531125" lat="46.5153515"><ele>960</ele><time>2019-09-10T15:57:09.000Z</time></trkpt><trkpt lon="15.5531125" lat="46.5153515"><ele>960</ele><time>2019-09-10T15:57:10.000Z</time></trkpt><trkpt lon="15.5531429" lat="46.5154018"><ele>959</ele><time>2019-09-10T15:57:11.000Z</time></trkpt><trkpt lon="15.5531595" lat="46.5154273"><ele>959</ele><time>2019-09-10T15:57:12.000Z</time></trkpt><trkpt lon="15.5531595" lat="46.5154273"><ele>959</ele><time>2019-09-10T15:57:13.000Z</time></trkpt><trkpt lon="15.5531927" lat="46.5154793"><ele>959</ele><time>2019-09-10T15:57:14.000Z</time></trkpt><trkpt lon="15.5531927" lat="46.5154793"><ele>959</ele><time>2019-09-10T15:57:15.000Z</time></trkpt><trkpt lon="15.5532263" lat="46.5155334"><ele>961</ele><time>2019-09-10T15:57:16.000Z</time></trkpt><trkpt lon="15.5532263" lat="46.5155334"><ele>961</ele><time>2019-09-10T15:57:17.000Z</time></trkpt><trkpt lon="15.5532533" lat="46.5155842"><ele>961</ele><time>2019-09-10T15:57:18.000Z</time></trkpt><trkpt lon="15.5532533" lat="46.5155842"><ele>961</ele><time>2019-09-10T15:57:19.000Z</time></trkpt><trkpt lon="15.5532738" lat="46.5156294"><ele>963</ele><time>2019-09-10T15:57:20.000Z</time></trkpt><trkpt lon="15.5532738" lat="46.5156294"><ele>963</ele><time>2019-09-10T15:57:21.000Z</time></trkpt><trkpt lon="15.5532912" lat="46.5156822"><ele>963</ele><time>2019-09-10T15:57:22.000Z</time></trkpt><trkpt lon="15.5532912" lat="46.5156822"><ele>963</ele><time>2019-09-10T15:57:23.000Z</time></trkpt><trkpt lon="15.5532936" lat="46.5157122"><ele>963</ele><time>2019-09-10T15:57:24.000Z</time></trkpt><trkpt lon="15.5532936" lat="46.5157122"><ele>963</ele><time>2019-09-10T15:57:25.000Z</time></trkpt><trkpt lon="15.5533182" lat="46.5157598"><ele>963</ele><time>2019-09-10T15:57:26.000Z</time></trkpt><trkpt lon="15.5533182" lat="46.5157598"><ele>963</ele><time>2019-09-10T15:57:27.000Z</time></trkpt><trkpt lon="15.5533575" lat="46.5158339"><ele>963</ele><time>2019-09-10T15:57:28.000Z</time></trkpt><trkpt lon="15.5533715" lat="46.5158658"><ele>964</ele><time>2019-09-10T15:57:29.000Z</time></trkpt><trkpt lon="15.5533715" lat="46.5158658"><ele>964</ele><time>2019-09-10T15:57:30.000Z</time></trkpt><trkpt lon="15.5533922" lat="46.5159115"><ele>964</ele><time>2019-09-10T15:57:31.000Z</time></trkpt><trkpt lon="15.5533922" lat="46.5159115"><ele>964</ele><time>2019-09-10T15:57:32.000Z</time></trkpt><trkpt lon="15.5534024" lat="46.5159481"><ele>965</ele><time>2019-09-10T15:57:33.000Z</time></trkpt><trkpt lon="15.5534024" lat="46.5159481"><ele>965</ele><time>2019-09-10T15:57:34.000Z</time></trkpt><trkpt lon="15.5534148" lat="46.5160044"><ele>966</ele><time>2019-09-10T15:57:35.000Z</time></trkpt><trkpt lon="15.5534148" lat="46.5160044"><ele>966</ele><time>2019-09-10T15:57:36.000Z</time></trkpt><trkpt lon="15.5534368" lat="46.5160694"><ele>966</ele><time>2019-09-10T15:57:37.000Z</time></trkpt><trkpt lon="15.5534368" lat="46.5160694"><ele>966</ele><time>2019-09-10T15:57:38.000Z</time></trkpt><trkpt lon="15.5534716" lat="46.5161396"><ele>967</ele><time>2019-09-10T15:57:39.000Z</time></trkpt><trkpt lon="15.5534864" lat="46.5161713"><ele>967</ele><time>2019-09-10T15:57:40.000Z</time></trkpt><trkpt lon="15.5534864" lat="46.5161713"><ele>967</ele><time>2019-09-10T15:57:41.000Z</time></trkpt><trkpt lon="15.5535177" lat="46.5162296"><ele>967</ele><time>2019-09-10T15:57:42.000Z</time></trkpt><trkpt lon="15.5535177" lat="46.5162296"><ele>967</ele><time>2019-09-10T15:57:43.000Z</time></trkpt><trkpt lon="15.553549" lat="46.5162876"><ele>967</ele><time>2019-09-10T15:57:44.000Z</time></trkpt><trkpt lon="15.553549" lat="46.5162876"><ele>967</ele><time>2019-09-10T15:57:45.000Z</time></trkpt><trkpt lon="15.5535795" lat="46.5163504"><ele>968</ele><time>2019-09-10T15:57:46.000Z</time></trkpt><trkpt lon="15.5535795" lat="46.5163504"><ele>968</ele><time>2019-09-10T15:57:47.000Z</time></trkpt><trkpt lon="15.5536048" lat="46.5164093"><ele>969</ele><time>2019-09-10T15:57:48.000Z</time></trkpt><trkpt lon="15.5536158" lat="46.5164352"><ele>969</ele><time>2019-09-10T15:57:49.000Z</time></trkpt><trkpt lon="15.5536158" lat="46.5164352"><ele>969</ele><time>2019-09-10T15:57:50.000Z</time></trkpt><trkpt lon="15.5536428" lat="46.5164822"><ele>970</ele><time>2019-09-10T15:57:51.000Z</time></trkpt><trkpt lon="15.5536428" lat="46.5164822"><ele>970</ele><time>2019-09-10T15:57:52.000Z</time></trkpt><trkpt lon="15.5536776" lat="46.5165382"><ele>971</ele><time>2019-09-10T15:57:53.000Z</time></trkpt><trkpt lon="15.5536776" lat="46.5165382"><ele>971</ele><time>2019-09-10T15:57:54.000Z</time></trkpt><trkpt lon="15.5537164" lat="46.5166007"><ele>972</ele><time>2019-09-10T15:57:55.000Z</time></trkpt><trkpt lon="15.5537421" lat="46.5166315"><ele>972</ele><time>2019-09-10T15:57:56.000Z</time></trkpt><trkpt lon="15.5537421" lat="46.5166315"><ele>972</ele><time>2019-09-10T15:57:57.000Z</time></trkpt><trkpt lon="15.5538016" lat="46.516689"><ele>973</ele><time>2019-09-10T15:57:58.000Z</time></trkpt><trkpt lon="15.5538293" lat="46.5167163"><ele>973</ele><time>2019-09-10T15:57:59.000Z</time></trkpt><trkpt lon="15.5538293" lat="46.5167163"><ele>973</ele><time>2019-09-10T15:58:00.000Z</time></trkpt><trkpt lon="15.553882" lat="46.5167661"><ele>974</ele><time>2019-09-10T15:58:01.000Z</time></trkpt><trkpt lon="15.553882" lat="46.5167661"><ele>974</ele><time>2019-09-10T15:58:02.000Z</time></trkpt><trkpt lon="15.5539428" lat="46.5168178"><ele>975</ele><time>2019-09-10T15:58:03.000Z</time></trkpt><trkpt lon="15.5539716" lat="46.5168404"><ele>975</ele><time>2019-09-10T15:58:04.000Z</time></trkpt><trkpt lon="15.5540035" lat="46.516862"><ele>976</ele><time>2019-09-10T15:58:05.000Z</time></trkpt><trkpt lon="15.5540035" lat="46.516862"><ele>976</ele><time>2019-09-10T15:58:06.000Z</time></trkpt><trkpt lon="15.5540733" lat="46.5169073"><ele>976</ele><time>2019-09-10T15:58:07.000Z</time></trkpt><trkpt lon="15.5541094" lat="46.5169322"><ele>976</ele><time>2019-09-10T15:58:08.000Z</time></trkpt><trkpt lon="15.5541482" lat="46.5169563"><ele>977</ele><time>2019-09-10T15:58:09.000Z</time></trkpt><trkpt lon="15.5541482" lat="46.5169563"><ele>977</ele><time>2019-09-10T15:58:10.000Z</time></trkpt><trkpt lon="15.5542404" lat="46.5170029"><ele>977</ele><time>2019-09-10T15:58:11.000Z</time></trkpt><trkpt lon="15.5542815" lat="46.5170245"><ele>978</ele><time>2019-09-10T15:58:12.000Z</time></trkpt><trkpt lon="15.55432" lat="46.5170476"><ele>978</ele><time>2019-09-10T15:58:13.000Z</time></trkpt><trkpt lon="15.55432" lat="46.5170476"><ele>978</ele><time>2019-09-10T15:58:14.000Z</time></trkpt><trkpt lon="15.5543897" lat="46.5170937"><ele>979</ele><time>2019-09-10T15:58:15.000Z</time></trkpt><trkpt lon="15.5543897" lat="46.5170937"><ele>979</ele><time>2019-09-10T15:58:16.000Z</time></trkpt><trkpt lon="15.5544568" lat="46.5171351"><ele>979</ele><time>2019-09-10T15:58:17.000Z</time></trkpt><trkpt lon="15.5544926" lat="46.5171548"><ele>980</ele><time>2019-09-10T15:58:18.000Z</time></trkpt><trkpt lon="15.5544926" lat="46.5171548"><ele>980</ele><time>2019-09-10T15:58:19.000Z</time></trkpt><trkpt lon="15.5545648" lat="46.517195"><ele>981</ele><time>2019-09-10T15:58:20.000Z</time></trkpt><trkpt lon="15.5545648" lat="46.517195"><ele>981</ele><time>2019-09-10T15:58:21.000Z</time></trkpt><trkpt lon="15.5546328" lat="46.5172364"><ele>981</ele><time>2019-09-10T15:58:22.000Z</time></trkpt><trkpt lon="15.5546328" lat="46.5172364"><ele>981</ele><time>2019-09-10T15:58:23.000Z</time></trkpt><trkpt lon="15.5547025" lat="46.5172707"><ele>982</ele><time>2019-09-10T15:58:24.000Z</time></trkpt><trkpt lon="15.5547025" lat="46.5172707"><ele>982</ele><time>2019-09-10T15:58:25.000Z</time></trkpt><trkpt lon="15.5547774" lat="46.5173003"><ele>982</ele><time>2019-09-10T15:58:26.000Z</time></trkpt><trkpt lon="15.5548167" lat="46.5173133"><ele>982</ele><time>2019-09-10T15:58:27.000Z</time></trkpt><trkpt lon="15.5548167" lat="46.5173133"><ele>982</ele><time>2019-09-10T15:58:28.000Z</time></trkpt><trkpt lon="15.5548961" lat="46.5173337"><ele>983</ele><time>2019-09-10T15:58:29.000Z</time></trkpt><trkpt lon="15.5549361" lat="46.5173423"><ele>984</ele><time>2019-09-10T15:58:30.000Z</time></trkpt><trkpt lon="15.554976" lat="46.5173545"><ele>984</ele><time>2019-09-10T15:58:31.000Z</time></trkpt><trkpt lon="15.554976" lat="46.5173545"><ele>984</ele><time>2019-09-10T15:58:32.000Z</time></trkpt><trkpt lon="15.555081" lat="46.5173625"><ele>984</ele><time>2019-09-10T15:58:33.000Z</time></trkpt><trkpt lon="15.555081" lat="46.5173625"><ele>984</ele><time>2019-09-10T15:58:34.000Z</time></trkpt><trkpt lon="15.5551679" lat="46.5173508"><ele>984</ele><time>2019-09-10T15:58:35.000Z</time></trkpt><trkpt lon="15.5551679" lat="46.5173508"><ele>984</ele><time>2019-09-10T15:58:36.000Z</time></trkpt><trkpt lon="15.5552373" lat="46.5173252"><ele>985</ele><time>2019-09-10T15:58:37.000Z</time></trkpt><trkpt lon="15.5552373" lat="46.5173252"><ele>985</ele><time>2019-09-10T15:58:38.000Z</time></trkpt><trkpt lon="15.5553019" lat="46.5173001"><ele>986</ele><time>2019-09-10T15:58:39.000Z</time></trkpt><trkpt lon="15.5553019" lat="46.5173001"><ele>986</ele><time>2019-09-10T15:58:40.000Z</time></trkpt><trkpt lon="15.5553376" lat="46.5172764"><ele>986</ele><time>2019-09-10T15:58:41.000Z</time></trkpt><trkpt lon="15.5553376" lat="46.5172764"><ele>986</ele><time>2019-09-10T15:58:42.000Z</time></trkpt><trkpt lon="15.5553812" lat="46.5172422"><ele>987</ele><time>2019-09-10T15:58:43.000Z</time></trkpt><trkpt lon="15.5553812" lat="46.5172422"><ele>987</ele><time>2019-09-10T15:58:44.000Z</time></trkpt><trkpt lon="15.5554249" lat="46.5172088"><ele>987</ele><time>2019-09-10T15:58:45.000Z</time></trkpt><trkpt lon="15.5554249" lat="46.5172088"><ele>987</ele><time>2019-09-10T15:58:46.000Z</time></trkpt><trkpt lon="15.5554613" lat="46.5171714"><ele>988</ele><time>2019-09-10T15:58:47.000Z</time></trkpt><trkpt lon="15.5554613" lat="46.5171714"><ele>988</ele><time>2019-09-10T15:58:48.000Z</time></trkpt><trkpt lon="15.5554921" lat="46.5171394"><ele>988</ele><time>2019-09-10T15:58:49.000Z</time></trkpt><trkpt lon="15.5554921" lat="46.5171394"><ele>988</ele><time>2019-09-10T15:58:50.000Z</time></trkpt><trkpt lon="15.5555117" lat="46.5171101"><ele>988</ele><time>2019-09-10T15:58:51.000Z</time></trkpt><trkpt lon="15.5555117" lat="46.5171101"><ele>988</ele><time>2019-09-10T15:58:52.000Z</time></trkpt><trkpt lon="15.5555237" lat="46.517079"><ele>989</ele><time>2019-09-10T15:58:53.000Z</time></trkpt><trkpt lon="15.5555237" lat="46.517079"><ele>989</ele><time>2019-09-10T15:58:54.000Z</time></trkpt><trkpt lon="15.5555245" lat="46.5170379"><ele>990</ele><time>2019-09-10T15:58:55.000Z</time></trkpt><trkpt lon="15.5555245" lat="46.5170379"><ele>990</ele><time>2019-09-10T15:58:56.000Z</time></trkpt><trkpt lon="15.5555473" lat="46.5169944"><ele>990</ele><time>2019-09-10T15:58:57.000Z</time></trkpt><trkpt lon="15.5555679" lat="46.5169706"><ele>991</ele><time>2019-09-10T15:58:58.000Z</time></trkpt><trkpt lon="15.5555902" lat="46.5169463"><ele>991</ele><time>2019-09-10T15:58:59.000Z</time></trkpt><trkpt lon="15.5556196" lat="46.516916"><ele>991</ele><time>2019-09-10T15:59:00.000Z</time></trkpt><trkpt lon="15.5556196" lat="46.516916"><ele>991</ele><time>2019-09-10T15:59:01.000Z</time></trkpt><trkpt lon="15.5556855" lat="46.516857"><ele>992</ele><time>2019-09-10T15:59:02.000Z</time></trkpt><trkpt lon="15.5556855" lat="46.516857"><ele>992</ele><time>2019-09-10T15:59:03.000Z</time></trkpt><trkpt lon="15.5557483" lat="46.5168076"><ele>993</ele><time>2019-09-10T15:59:04.000Z</time></trkpt><trkpt lon="15.5557864" lat="46.5167824"><ele>993</ele><time>2019-09-10T15:59:05.000Z</time></trkpt><trkpt lon="15.5557864" lat="46.5167824"><ele>993</ele><time>2019-09-10T15:59:06.000Z</time></trkpt><trkpt lon="15.5558487" lat="46.5167403"><ele>994</ele><time>2019-09-10T15:59:07.000Z</time></trkpt><trkpt lon="15.5558782" lat="46.5167162"><ele>994</ele><time>2019-09-10T15:59:08.000Z</time></trkpt><trkpt lon="15.5558782" lat="46.5167162"><ele>994</ele><time>2019-09-10T15:59:09.000Z</time></trkpt><trkpt lon="15.5559324" lat="46.5166663"><ele>995</ele><time>2019-09-10T15:59:10.000Z</time></trkpt><trkpt lon="15.5559568" lat="46.5166362"><ele>995</ele><time>2019-09-10T15:59:11.000Z</time></trkpt><trkpt lon="15.555982" lat="46.5166036"><ele>995</ele><time>2019-09-10T15:59:12.000Z</time></trkpt><trkpt lon="15.555982" lat="46.5166036"><ele>995</ele><time>2019-09-10T15:59:13.000Z</time></trkpt><trkpt lon="15.5560356" lat="46.5165446"><ele>995</ele><time>2019-09-10T15:59:14.000Z</time></trkpt><trkpt lon="15.5560356" lat="46.5165446"><ele>995</ele><time>2019-09-10T15:59:15.000Z</time></trkpt><trkpt lon="15.5560782" lat="46.5165019"><ele>996</ele><time>2019-09-10T15:59:16.000Z</time></trkpt><trkpt lon="15.5560782" lat="46.5165019"><ele>996</ele><time>2019-09-10T15:59:17.000Z</time></trkpt><trkpt lon="15.5561174" lat="46.5164581"><ele>996</ele><time>2019-09-10T15:59:18.000Z</time></trkpt><trkpt lon="15.5561399" lat="46.5164307"><ele>995</ele><time>2019-09-10T15:59:19.000Z</time></trkpt><trkpt lon="15.5561399" lat="46.5164307"><ele>995</ele><time>2019-09-10T15:59:20.000Z</time></trkpt><trkpt lon="15.5561872" lat="46.5163693"><ele>995</ele><time>2019-09-10T15:59:21.000Z</time></trkpt><trkpt lon="15.5561872" lat="46.5163693"><ele>995</ele><time>2019-09-10T15:59:22.000Z</time></trkpt><trkpt lon="15.556234" lat="46.5163097"><ele>996</ele><time>2019-09-10T15:59:23.000Z</time></trkpt><trkpt lon="15.556234" lat="46.5163097"><ele>996</ele><time>2019-09-10T15:59:24.000Z</time></trkpt><trkpt lon="15.5562669" lat="46.5162516"><ele>996</ele><time>2019-09-10T15:59:25.000Z</time></trkpt><trkpt lon="15.5562669" lat="46.5162516"><ele>996</ele><time>2019-09-10T15:59:26.000Z</time></trkpt><trkpt lon="15.5562963" lat="46.5161827"><ele>997</ele><time>2019-09-10T15:59:27.000Z</time></trkpt><trkpt lon="15.5563146" lat="46.5161222"><ele>998</ele><time>2019-09-10T15:59:28.000Z</time></trkpt><trkpt lon="15.5563278" lat="46.5160847"><ele>998</ele><time>2019-09-10T15:59:29.000Z</time></trkpt><trkpt lon="15.5563415" lat="46.5160561"><ele>998</ele><time>2019-09-10T15:59:30.000Z</time></trkpt><trkpt lon="15.5563575" lat="46.5160313"><ele>998</ele><time>2019-09-10T15:59:31.000Z</time></trkpt><trkpt lon="15.5563575" lat="46.5160313"><ele>998</ele><time>2019-09-10T15:59:32.000Z</time></trkpt><trkpt lon="15.5563773" lat="46.5159969"><ele>999</ele><time>2019-09-10T15:59:33.000Z</time></trkpt><trkpt lon="15.5563773" lat="46.5159969"><ele>999</ele><time>2019-09-10T15:59:34.000Z</time></trkpt><trkpt lon="15.5563996" lat="46.5159533"><ele>999</ele><time>2019-09-10T15:59:35.000Z</time></trkpt><trkpt lon="15.5563996" lat="46.5159533"><ele>999</ele><time>2019-09-10T15:59:36.000Z</time></trkpt><trkpt lon="15.5564233" lat="46.515911"><ele>1000</ele><time>2019-09-10T15:59:37.000Z</time></trkpt><trkpt lon="15.5564233" lat="46.515911"><ele>1000</ele><time>2019-09-10T15:59:38.000Z</time></trkpt><trkpt lon="15.5564464" lat="46.5158698"><ele>1000</ele><time>2019-09-10T15:59:39.000Z</time></trkpt><trkpt lon="15.5564464" lat="46.5158698"><ele>1000</ele><time>2019-09-10T15:59:40.000Z</time></trkpt><trkpt lon="15.5564738" lat="46.5158277"><ele>1001</ele><time>2019-09-10T15:59:41.000Z</time></trkpt><trkpt lon="15.5564738" lat="46.5158277"><ele>1001</ele><time>2019-09-10T15:59:42.000Z</time></trkpt><trkpt lon="15.5565115" lat="46.5157871"><ele>1001</ele><time>2019-09-10T15:59:43.000Z</time></trkpt><trkpt lon="15.5565115" lat="46.5157871"><ele>1001</ele><time>2019-09-10T15:59:44.000Z</time></trkpt><trkpt lon="15.55655" lat="46.5157481"><ele>1001</ele><time>2019-09-10T15:59:45.000Z</time></trkpt><trkpt lon="15.55655" lat="46.5157481"><ele>1001</ele><time>2019-09-10T15:59:46.000Z</time></trkpt><trkpt lon="15.5565902" lat="46.5157133"><ele>1001</ele><time>2019-09-10T15:59:47.000Z</time></trkpt><trkpt lon="15.5565902" lat="46.5157133"><ele>1001</ele><time>2019-09-10T15:59:48.000Z</time></trkpt><trkpt lon="15.5566371" lat="46.5156735"><ele>1002</ele><time>2019-09-10T15:59:49.000Z</time></trkpt><trkpt lon="15.5566371" lat="46.5156735"><ele>1002</ele><time>2019-09-10T15:59:50.000Z</time></trkpt><trkpt lon="15.5566888" lat="46.5156284"><ele>1003</ele><time>2019-09-10T15:59:51.000Z</time></trkpt><trkpt lon="15.5566888" lat="46.5156284"><ele>1003</ele><time>2019-09-10T15:59:52.000Z</time></trkpt><trkpt lon="15.5567445" lat="46.5155875"><ele>1004</ele><time>2019-09-10T15:59:53.000Z</time></trkpt><trkpt lon="15.5567772" lat="46.5155662"><ele>1004</ele><time>2019-09-10T15:59:54.000Z</time></trkpt><trkpt lon="15.5567772" lat="46.5155662"><ele>1004</ele><time>2019-09-10T15:59:55.000Z</time></trkpt><trkpt lon="15.5568593" lat="46.5155202"><ele>1003</ele><time>2019-09-10T15:59:56.000Z</time></trkpt><trkpt lon="15.5568593" lat="46.5155202"><ele>1003</ele><time>2019-09-10T15:59:57.000Z</time></trkpt><trkpt lon="15.5569342" lat="46.5154694"><ele>1005</ele><time>2019-09-10T15:59:58.000Z</time></trkpt><trkpt lon="15.5569342" lat="46.5154694"><ele>1005</ele><time>2019-09-10T15:59:59.000Z</time></trkpt><trkpt lon="15.5570004" lat="46.5154036"><ele>1003</ele><time>2019-09-10T16:00:00.000Z</time></trkpt><trkpt lon="15.5570332" lat="46.5153676"><ele>1004</ele><time>2019-09-10T16:00:01.000Z</time></trkpt><trkpt lon="15.5570332" lat="46.5153676"><ele>1004</ele><time>2019-09-10T16:00:02.000Z</time></trkpt><trkpt lon="15.5571005" lat="46.5153095"><ele>1004</ele><time>2019-09-10T16:00:03.000Z</time></trkpt><trkpt lon="15.5571005" lat="46.5153095"><ele>1004</ele><time>2019-09-10T16:00:04.000Z</time></trkpt><trkpt lon="15.5571798" lat="46.5152542"><ele>1005</ele><time>2019-09-10T16:00:05.000Z</time></trkpt><trkpt lon="15.5572185" lat="46.5152243"><ele>1005</ele><time>2019-09-10T16:00:06.000Z</time></trkpt><trkpt lon="15.5572659" lat="46.5151972"><ele>1006</ele><time>2019-09-10T16:00:07.000Z</time></trkpt><trkpt lon="15.5573183" lat="46.5151684"><ele>1006</ele><time>2019-09-10T16:00:08.000Z</time></trkpt><trkpt lon="15.5573183" lat="46.5151684"><ele>1006</ele><time>2019-09-10T16:00:09.000Z</time></trkpt><trkpt lon="15.5574198" lat="46.5151115"><ele>1006</ele><time>2019-09-10T16:00:10.000Z</time></trkpt><trkpt lon="15.5574685" lat="46.515085"><ele>1006</ele><time>2019-09-10T16:00:11.000Z</time></trkpt><trkpt lon="15.5574685" lat="46.515085"><ele>1006</ele><time>2019-09-10T16:00:12.000Z</time></trkpt><trkpt lon="15.5575942" lat="46.5150353"><ele>1007</ele><time>2019-09-10T16:00:13.000Z</time></trkpt><trkpt lon="15.5575942" lat="46.5150353"><ele>1007</ele><time>2019-09-10T16:00:14.000Z</time></trkpt><trkpt lon="15.5576908" lat="46.5150077"><ele>1007</ele><time>2019-09-10T16:00:15.000Z</time></trkpt><trkpt lon="15.5577357" lat="46.5149965"><ele>1007</ele><time>2019-09-10T16:00:16.000Z</time></trkpt><trkpt lon="15.5577357" lat="46.5149965"><ele>1007</ele><time>2019-09-10T16:00:17.000Z</time></trkpt><trkpt lon="15.5578122" lat="46.5149973"><ele>1009</ele><time>2019-09-10T16:00:18.000Z</time></trkpt><trkpt lon="15.5578122" lat="46.5149973"><ele>1009</ele><time>2019-09-10T16:00:19.000Z</time></trkpt><trkpt lon="15.5578694" lat="46.5150051"><ele>1009</ele><time>2019-09-10T16:00:20.000Z</time></trkpt><trkpt lon="15.5578694" lat="46.5150051"><ele>1009</ele><time>2019-09-10T16:00:21.000Z</time></trkpt><trkpt lon="15.5579367" lat="46.5150121"><ele>1009</ele><time>2019-09-10T16:00:22.000Z</time></trkpt><trkpt lon="15.5579777" lat="46.5150182"><ele>1009</ele><time>2019-09-10T16:00:23.000Z</time></trkpt><trkpt lon="15.5580356" lat="46.5150194"><ele>1009</ele><time>2019-09-10T16:00:24.000Z</time></trkpt><trkpt lon="15.5580356" lat="46.5150194"><ele>1009</ele><time>2019-09-10T16:00:25.000Z</time></trkpt><trkpt lon="15.5581504" lat="46.5150178"><ele>1010</ele><time>2019-09-10T16:00:26.000Z</time></trkpt><trkpt lon="15.5582115" lat="46.5150193"><ele>1010</ele><time>2019-09-10T16:00:27.000Z</time></trkpt><trkpt lon="15.5582726" lat="46.5150198"><ele>1010</ele><time>2019-09-10T16:00:28.000Z</time></trkpt><trkpt lon="15.5583264" lat="46.5150221"><ele>1010</ele><time>2019-09-10T16:00:29.000Z</time></trkpt><trkpt lon="15.5583264" lat="46.5150221"><ele>1010</ele><time>2019-09-10T16:00:30.000Z</time></trkpt><trkpt lon="15.5584296" lat="46.5150318"><ele>1011</ele><time>2019-09-10T16:00:31.000Z</time></trkpt><trkpt lon="15.5584863" lat="46.5150327"><ele>1011</ele><time>2019-09-10T16:00:32.000Z</time></trkpt><trkpt lon="15.5585574" lat="46.5150339"><ele>1011</ele><time>2019-09-10T16:00:33.000Z</time></trkpt><trkpt lon="15.5585574" lat="46.5150339"><ele>1011</ele><time>2019-09-10T16:00:34.000Z</time></trkpt><trkpt lon="15.5586921" lat="46.5150244"><ele>1011</ele><time>2019-09-10T16:00:35.000Z</time></trkpt><trkpt lon="15.5586921" lat="46.5150244"><ele>1011</ele><time>2019-09-10T16:00:36.000Z</time></trkpt><trkpt lon="15.5588094" lat="46.5150109"><ele>1011</ele><time>2019-09-10T16:00:37.000Z</time></trkpt><trkpt lon="15.5588094" lat="46.5150109"><ele>1011</ele><time>2019-09-10T16:00:38.000Z</time></trkpt><trkpt lon="15.5589231" lat="46.5150039"><ele>1012</ele><time>2019-09-10T16:00:39.000Z</time></trkpt><trkpt lon="15.5589231" lat="46.5150039"><ele>1012</ele><time>2019-09-10T16:00:40.000Z</time></trkpt><trkpt lon="15.5590811" lat="46.5150221"><ele>1013</ele><time>2019-09-10T16:00:41.000Z</time></trkpt><trkpt lon="15.5590811" lat="46.5150221"><ele>1013</ele><time>2019-09-10T16:00:42.000Z</time></trkpt><trkpt lon="15.5591962" lat="46.5150435"><ele>1014</ele><time>2019-09-10T16:00:43.000Z</time></trkpt><trkpt lon="15.5591962" lat="46.5150435"><ele>1014</ele><time>2019-09-10T16:00:44.000Z</time></trkpt><trkpt lon="15.5592783" lat="46.5150535"><ele>1014</ele><time>2019-09-10T16:00:45.000Z</time></trkpt><trkpt lon="15.5592783" lat="46.5150535"><ele>1014</ele><time>2019-09-10T16:00:46.000Z</time></trkpt><trkpt lon="15.5593573" lat="46.5150588"><ele>1014</ele><time>2019-09-10T16:00:47.000Z</time></trkpt><trkpt lon="15.5593573" lat="46.5150588"><ele>1014</ele><time>2019-09-10T16:00:48.000Z</time></trkpt><trkpt lon="15.5594311" lat="46.5150473"><ele>1015</ele><time>2019-09-10T16:00:49.000Z</time></trkpt><trkpt lon="15.5594311" lat="46.5150473"><ele>1015</ele><time>2019-09-10T16:00:50.000Z</time></trkpt><trkpt lon="15.5595438" lat="46.5150354"><ele>1016</ele><time>2019-09-10T16:00:51.000Z</time></trkpt><trkpt lon="15.5596021" lat="46.5150199"><ele>1015</ele><time>2019-09-10T16:00:52.000Z</time></trkpt><trkpt lon="15.5596021" lat="46.5150199"><ele>1015</ele><time>2019-09-10T16:00:53.000Z</time></trkpt><trkpt lon="15.5597208" lat="46.5149739"><ele>1016</ele><time>2019-09-10T16:00:54.000Z</time></trkpt><trkpt lon="15.5597208" lat="46.5149739"><ele>1016</ele><time>2019-09-10T16:00:55.000Z</time></trkpt><trkpt lon="15.5598197" lat="46.51492"><ele>1016</ele><time>2019-09-10T16:00:56.000Z</time></trkpt><trkpt lon="15.5598197" lat="46.51492"><ele>1016</ele><time>2019-09-10T16:00:57.000Z</time></trkpt><trkpt lon="15.5599062" lat="46.5148669"><ele>1017</ele><time>2019-09-10T16:00:58.000Z</time></trkpt><trkpt lon="15.5599443" lat="46.5148411"><ele>1017</ele><time>2019-09-10T16:00:59.000Z</time></trkpt><trkpt lon="15.5599443" lat="46.5148411"><ele>1017</ele><time>2019-09-10T16:01:00.000Z</time></trkpt><trkpt lon="15.5600153" lat="46.5147944"><ele>1017</ele><time>2019-09-10T16:01:01.000Z</time></trkpt><trkpt lon="15.5600521" lat="46.514772"><ele>1018</ele><time>2019-09-10T16:01:02.000Z</time></trkpt><trkpt lon="15.5600902" lat="46.5147515"><ele>1018</ele><time>2019-09-10T16:01:03.000Z</time></trkpt><trkpt lon="15.5600902" lat="46.5147515"><ele>1018</ele><time>2019-09-10T16:01:04.000Z</time></trkpt><trkpt lon="15.5601579" lat="46.514723"><ele>1019</ele><time>2019-09-10T16:01:05.000Z</time></trkpt><trkpt lon="15.5601579" lat="46.514723"><ele>1019</ele><time>2019-09-10T16:01:06.000Z</time></trkpt><trkpt lon="15.5602199" lat="46.5146999"><ele>1020</ele><time>2019-09-10T16:01:07.000Z</time></trkpt><trkpt lon="15.5602199" lat="46.5146999"><ele>1020</ele><time>2019-09-10T16:01:08.000Z</time></trkpt><trkpt lon="15.5602895" lat="46.5146788"><ele>1021</ele><time>2019-09-10T16:01:09.000Z</time></trkpt><trkpt lon="15.5602895" lat="46.5146788"><ele>1021</ele><time>2019-09-10T16:01:10.000Z</time></trkpt><trkpt lon="15.560365" lat="46.5146649"><ele>1021</ele><time>2019-09-10T16:01:11.000Z</time></trkpt><trkpt lon="15.560365" lat="46.5146649"><ele>1021</ele><time>2019-09-10T16:01:12.000Z</time></trkpt><trkpt lon="15.560429" lat="46.514651"><ele>1022</ele><time>2019-09-10T16:01:13.000Z</time></trkpt><trkpt lon="15.560429" lat="46.514651"><ele>1022</ele><time>2019-09-10T16:01:14.000Z</time></trkpt><trkpt lon="15.5604881" lat="46.5146267"><ele>1022</ele><time>2019-09-10T16:01:15.000Z</time></trkpt><trkpt lon="15.5604881" lat="46.5146267"><ele>1022</ele><time>2019-09-10T16:01:16.000Z</time></trkpt><trkpt lon="15.5605471" lat="46.5145929"><ele>1024</ele><time>2019-09-10T16:01:17.000Z</time></trkpt><trkpt lon="15.5605471" lat="46.5145929"><ele>1024</ele><time>2019-09-10T16:01:18.000Z</time></trkpt><trkpt lon="15.5606114" lat="46.5145539"><ele>1023</ele><time>2019-09-10T16:01:19.000Z</time></trkpt><trkpt lon="15.5606114" lat="46.5145539"><ele>1023</ele><time>2019-09-10T16:01:20.000Z</time></trkpt><trkpt lon="15.5606827" lat="46.5145127"><ele>1024</ele><time>2019-09-10T16:01:21.000Z</time></trkpt><trkpt lon="15.5607187" lat="46.5144879"><ele>1022</ele><time>2019-09-10T16:01:22.000Z</time></trkpt><trkpt lon="15.5607187" lat="46.5144879"><ele>1022</ele><time>2019-09-10T16:01:23.000Z</time></trkpt><trkpt lon="15.5607851" lat="46.5144522"><ele>1024</ele><time>2019-09-10T16:01:24.000Z</time></trkpt><trkpt lon="15.5608161" lat="46.5144302"><ele>1024</ele><time>2019-09-10T16:01:25.000Z</time></trkpt><trkpt lon="15.5608161" lat="46.5144302"><ele>1024</ele><time>2019-09-10T16:01:26.000Z</time></trkpt><trkpt lon="15.5608669" lat="46.5143855"><ele>1025</ele><time>2019-09-10T16:01:27.000Z</time></trkpt><trkpt lon="15.5608669" lat="46.5143855"><ele>1025</ele><time>2019-09-10T16:01:28.000Z</time></trkpt><trkpt lon="15.560916" lat="46.5143445"><ele>1025</ele><time>2019-09-10T16:01:29.000Z</time></trkpt><trkpt lon="15.560945" lat="46.5143244"><ele>1025</ele><time>2019-09-10T16:01:30.000Z</time></trkpt><trkpt lon="15.560945" lat="46.5143244"><ele>1025</ele><time>2019-09-10T16:01:31.000Z</time></trkpt><trkpt lon="15.561016" lat="46.5142895"><ele>1027</ele><time>2019-09-10T16:01:32.000Z</time></trkpt><trkpt lon="15.561016" lat="46.5142895"><ele>1027</ele><time>2019-09-10T16:01:33.000Z</time></trkpt><trkpt lon="15.561099" lat="46.5142607"><ele>1027</ele><time>2019-09-10T16:01:34.000Z</time></trkpt><trkpt lon="15.5611451" lat="46.5142376"><ele>1028</ele><time>2019-09-10T16:01:35.000Z</time></trkpt><trkpt lon="15.5611451" lat="46.5142376"><ele>1028</ele><time>2019-09-10T16:01:36.000Z</time></trkpt><trkpt lon="15.5612358" lat="46.5141972"><ele>1028</ele><time>2019-09-10T16:01:37.000Z</time></trkpt><trkpt lon="15.5612763" lat="46.5141826"><ele>1028</ele><time>2019-09-10T16:01:38.000Z</time></trkpt><trkpt lon="15.5612763" lat="46.5141826"><ele>1028</ele><time>2019-09-10T16:01:39.000Z</time></trkpt><trkpt lon="15.5613506" lat="46.5141583"><ele>1029</ele><time>2019-09-10T16:01:40.000Z</time></trkpt><trkpt lon="15.5613933" lat="46.5141448"><ele>1029</ele><time>2019-09-10T16:01:41.000Z</time></trkpt><trkpt lon="15.5613933" lat="46.5141448"><ele>1029</ele><time>2019-09-10T16:01:42.000Z</time></trkpt><trkpt lon="15.56146" lat="46.5141387"><ele>1030</ele><time>2019-09-10T16:01:43.000Z</time></trkpt><trkpt lon="15.56146" lat="46.5141387"><ele>1030</ele><time>2019-09-10T16:01:44.000Z</time></trkpt><trkpt lon="15.5615129" lat="46.5141541"><ele>1031</ele><time>2019-09-10T16:01:45.000Z</time></trkpt><trkpt lon="15.5615129" lat="46.5141541"><ele>1031</ele><time>2019-09-10T16:01:46.000Z</time></trkpt><trkpt lon="15.5615649" lat="46.514183"><ele>1032</ele><time>2019-09-10T16:01:47.000Z</time></trkpt><trkpt lon="15.5615649" lat="46.514183"><ele>1032</ele><time>2019-09-10T16:01:48.000Z</time></trkpt><trkpt lon="15.5616142" lat="46.5142058"><ele>1033</ele><time>2019-09-10T16:01:49.000Z</time></trkpt><trkpt lon="15.5616142" lat="46.5142058"><ele>1033</ele><time>2019-09-10T16:01:50.000Z</time></trkpt><trkpt lon="15.5616583" lat="46.5142235"><ele>1033</ele><time>2019-09-10T16:01:51.000Z</time></trkpt><trkpt lon="15.5616583" lat="46.5142235"><ele>1033</ele><time>2019-09-10T16:01:52.000Z</time></trkpt><trkpt lon="15.5617129" lat="46.5142427"><ele>1034</ele><time>2019-09-10T16:01:53.000Z</time></trkpt><trkpt lon="15.5617129" lat="46.5142427"><ele>1034</ele><time>2019-09-10T16:01:54.000Z</time></trkpt><trkpt lon="15.5617847" lat="46.5142627"><ele>1035</ele><time>2019-09-10T16:01:55.000Z</time></trkpt><trkpt lon="15.5617847" lat="46.5142627"><ele>1035</ele><time>2019-09-10T16:01:56.000Z</time></trkpt><trkpt lon="15.561849" lat="46.5142776"><ele>1035</ele><time>2019-09-10T16:01:57.000Z</time></trkpt><trkpt lon="15.561886" lat="46.514287"><ele>1035</ele><time>2019-09-10T16:01:58.000Z</time></trkpt><trkpt lon="15.561886" lat="46.514287"><ele>1035</ele><time>2019-09-10T16:01:59.000Z</time></trkpt><trkpt lon="15.5619561" lat="46.5143041"><ele>1036</ele><time>2019-09-10T16:02:00.000Z</time></trkpt><trkpt lon="15.5619561" lat="46.5143041"><ele>1036</ele><time>2019-09-10T16:02:01.000Z</time></trkpt><trkpt lon="15.562049" lat="46.5143233"><ele>1036</ele><time>2019-09-10T16:02:02.000Z</time></trkpt><trkpt lon="15.562049" lat="46.5143233"><ele>1036</ele><time>2019-09-10T16:02:03.000Z</time></trkpt><trkpt lon="15.5621373" lat="46.5143422"><ele>1036</ele><time>2019-09-10T16:02:04.000Z</time></trkpt><trkpt lon="15.5621373" lat="46.5143422"><ele>1036</ele><time>2019-09-10T16:02:05.000Z</time></trkpt><trkpt lon="15.5622153" lat="46.514354"><ele>1035</ele><time>2019-09-10T16:02:06.000Z</time></trkpt><trkpt lon="15.5622572" lat="46.5143597"><ele>1035</ele><time>2019-09-10T16:02:07.000Z</time></trkpt><trkpt lon="15.5622572" lat="46.5143597"><ele>1035</ele><time>2019-09-10T16:02:08.000Z</time></trkpt><trkpt lon="15.5623395" lat="46.5143724"><ele>1035</ele><time>2019-09-10T16:02:09.000Z</time></trkpt><trkpt lon="15.5623843" lat="46.5143828"><ele>1036</ele><time>2019-09-10T16:02:10.000Z</time></trkpt><trkpt lon="15.5623843" lat="46.5143828"><ele>1036</ele><time>2019-09-10T16:02:11.000Z</time></trkpt><trkpt lon="15.5624918" lat="46.514413"><ele>1037</ele><time>2019-09-10T16:02:12.000Z</time></trkpt><trkpt lon="15.5624918" lat="46.514413"><ele>1037</ele><time>2019-09-10T16:02:13.000Z</time></trkpt><trkpt lon="15.5625805" lat="46.5144384"><ele>1038</ele><time>2019-09-10T16:02:14.000Z</time></trkpt><trkpt lon="15.5626219" lat="46.5144476"><ele>1038</ele><time>2019-09-10T16:02:15.000Z</time></trkpt><trkpt lon="15.5626219" lat="46.5144476"><ele>1038</ele><time>2019-09-10T16:02:16.000Z</time></trkpt><trkpt lon="15.5627063" lat="46.5144672"><ele>1039</ele><time>2019-09-10T16:02:17.000Z</time></trkpt><trkpt lon="15.5627063" lat="46.5144672"><ele>1039</ele><time>2019-09-10T16:02:18.000Z</time></trkpt><trkpt lon="15.5627881" lat="46.5144867"><ele>1039</ele><time>2019-09-10T16:02:19.000Z</time></trkpt><trkpt lon="15.5627881" lat="46.5144867"><ele>1039</ele><time>2019-09-10T16:02:20.000Z</time></trkpt><trkpt lon="15.5628479" lat="46.5145037"><ele>1039</ele><time>2019-09-10T16:02:21.000Z</time></trkpt><trkpt lon="15.5628479" lat="46.5145037"><ele>1039</ele><time>2019-09-10T16:02:22.000Z</time></trkpt><trkpt lon="15.5628981" lat="46.5145187"><ele>1040</ele><time>2019-09-10T16:02:23.000Z</time></trkpt><trkpt lon="15.5628981" lat="46.5145187"><ele>1040</ele><time>2019-09-10T16:02:24.000Z</time></trkpt><trkpt lon="15.5629352" lat="46.5145312"><ele>1041</ele><time>2019-09-10T16:02:25.000Z</time></trkpt><trkpt lon="15.5629352" lat="46.5145312"><ele>1041</ele><time>2019-09-10T16:02:26.000Z</time></trkpt><trkpt lon="15.562994" lat="46.5145479"><ele>1042</ele><time>2019-09-10T16:02:27.000Z</time></trkpt><trkpt lon="15.5630308" lat="46.5145584"><ele>1042</ele><time>2019-09-10T16:02:28.000Z</time></trkpt><trkpt lon="15.5630777" lat="46.5145655"><ele>1042</ele><time>2019-09-10T16:02:29.000Z</time></trkpt><trkpt lon="15.5630777" lat="46.5145655"><ele>1042</ele><time>2019-09-10T16:02:30.000Z</time></trkpt><trkpt lon="15.5631751" lat="46.5145728"><ele>1042</ele><time>2019-09-10T16:02:31.000Z</time></trkpt><trkpt lon="15.5632197" lat="46.5145716"><ele>1043</ele><time>2019-09-10T16:02:32.000Z</time></trkpt><trkpt lon="15.5632197" lat="46.5145716"><ele>1043</ele><time>2019-09-10T16:02:33.000Z</time></trkpt><trkpt lon="15.563312" lat="46.5145755"><ele>1043</ele><time>2019-09-10T16:02:34.000Z</time></trkpt><trkpt lon="15.563312" lat="46.5145755"><ele>1043</ele><time>2019-09-10T16:02:35.000Z</time></trkpt><trkpt lon="15.5634036" lat="46.5145819"><ele>1044</ele><time>2019-09-10T16:02:36.000Z</time></trkpt><trkpt lon="15.5634036" lat="46.5145819"><ele>1044</ele><time>2019-09-10T16:02:37.000Z</time></trkpt><trkpt lon="15.5634937" lat="46.5145807"><ele>1044</ele><time>2019-09-10T16:02:38.000Z</time></trkpt><trkpt lon="15.5634937" lat="46.5145807"><ele>1044</ele><time>2019-09-10T16:02:39.000Z</time></trkpt><trkpt lon="15.5635956" lat="46.5145727"><ele>1044</ele><time>2019-09-10T16:02:40.000Z</time></trkpt><trkpt lon="15.5636519" lat="46.5145652"><ele>1045</ele><time>2019-09-10T16:02:41.000Z</time></trkpt><trkpt lon="15.5636519" lat="46.5145652"><ele>1045</ele><time>2019-09-10T16:02:42.000Z</time></trkpt><trkpt lon="15.5637478" lat="46.5145597"><ele>1045</ele><time>2019-09-10T16:02:43.000Z</time></trkpt><trkpt lon="15.5637993" lat="46.5145564"><ele>1047</ele><time>2019-09-10T16:02:44.000Z</time></trkpt><trkpt lon="15.563852" lat="46.5145534"><ele>1047</ele><time>2019-09-10T16:02:45.000Z</time></trkpt><trkpt lon="15.563852" lat="46.5145534"><ele>1047</ele><time>2019-09-10T16:02:46.000Z</time></trkpt><trkpt lon="15.5639453" lat="46.5145458"><ele>1047</ele><time>2019-09-10T16:02:47.000Z</time></trkpt><trkpt lon="15.5639876" lat="46.5145431"><ele>1048</ele><time>2019-09-10T16:02:48.000Z</time></trkpt><trkpt lon="15.5640277" lat="46.5145416"><ele>1048</ele><time>2019-09-10T16:02:49.000Z</time></trkpt><trkpt lon="15.5640687" lat="46.5145419"><ele>1048</ele><time>2019-09-10T16:02:50.000Z</time></trkpt><trkpt lon="15.5640687" lat="46.5145419"><ele>1048</ele><time>2019-09-10T16:02:51.000Z</time></trkpt><trkpt lon="15.5641474" lat="46.5145415"><ele>1048</ele><time>2019-09-10T16:02:52.000Z</time></trkpt><trkpt lon="15.5641474" lat="46.5145415"><ele>1048</ele><time>2019-09-10T16:02:53.000Z</time></trkpt><trkpt lon="15.5642138" lat="46.5145507"><ele>1049</ele><time>2019-09-10T16:02:54.000Z</time></trkpt><trkpt lon="15.5642138" lat="46.5145507"><ele>1049</ele><time>2019-09-10T16:02:55.000Z</time></trkpt><trkpt lon="15.5642814" lat="46.5145637"><ele>1049</ele><time>2019-09-10T16:02:56.000Z</time></trkpt><trkpt lon="15.5642814" lat="46.5145637"><ele>1049</ele><time>2019-09-10T16:02:57.000Z</time></trkpt><trkpt lon="15.5643519" lat="46.5145801"><ele>1054</ele><time>2019-09-10T16:02:58.000Z</time></trkpt><trkpt lon="15.564393" lat="46.5145874"><ele>1054</ele><time>2019-09-10T16:02:59.000Z</time></trkpt><trkpt lon="15.5644349" lat="46.5145922"><ele>1054</ele><time>2019-09-10T16:03:00.000Z</time></trkpt><trkpt lon="15.5644349" lat="46.5145922"><ele>1054</ele><time>2019-09-10T16:03:01.000Z</time></trkpt><trkpt lon="15.5645122" lat="46.5146038"><ele>1054</ele><time>2019-09-10T16:03:02.000Z</time></trkpt><trkpt lon="15.5645122" lat="46.5146038"><ele>1054</ele><time>2019-09-10T16:03:03.000Z</time></trkpt><trkpt lon="15.5645837" lat="46.5146153"><ele>1054</ele><time>2019-09-10T16:03:04.000Z</time></trkpt><trkpt lon="15.5645837" lat="46.5146153"><ele>1054</ele><time>2019-09-10T16:03:05.000Z</time></trkpt><trkpt lon="15.564652" lat="46.5146161"><ele>1054</ele><time>2019-09-10T16:03:06.000Z</time></trkpt><trkpt lon="15.564652" lat="46.5146161"><ele>1054</ele><time>2019-09-10T16:03:07.000Z</time></trkpt><trkpt lon="15.5647154" lat="46.5146162"><ele>1055</ele><time>2019-09-10T16:03:08.000Z</time></trkpt><trkpt lon="15.5647154" lat="46.5146162"><ele>1055</ele><time>2019-09-10T16:03:09.000Z</time></trkpt><trkpt lon="15.5647833" lat="46.5146267"><ele>1055</ele><time>2019-09-10T16:03:10.000Z</time></trkpt><trkpt lon="15.5648213" lat="46.5146335"><ele>1055</ele><time>2019-09-10T16:03:11.000Z</time></trkpt><trkpt lon="15.5648575" lat="46.514644"><ele>1055</ele><time>2019-09-10T16:03:12.000Z</time></trkpt><trkpt lon="15.5648575" lat="46.514644"><ele>1055</ele><time>2019-09-10T16:03:13.000Z</time></trkpt><trkpt lon="15.5649307" lat="46.5146542"><ele>1055</ele><time>2019-09-10T16:03:14.000Z</time></trkpt><trkpt lon="15.5649734" lat="46.5146549"><ele>1055</ele><time>2019-09-10T16:03:15.000Z</time></trkpt><trkpt lon="15.5650209" lat="46.5146546"><ele>1055</ele><time>2019-09-10T16:03:16.000Z</time></trkpt><trkpt lon="15.5650209" lat="46.5146546"><ele>1055</ele><time>2019-09-10T16:03:17.000Z</time></trkpt><trkpt lon="15.5651247" lat="46.5146548"><ele>1055</ele><time>2019-09-10T16:03:18.000Z</time></trkpt><trkpt lon="15.5651798" lat="46.5146545"><ele>1056</ele><time>2019-09-10T16:03:19.000Z</time></trkpt><trkpt lon="15.5652654" lat="46.5146578"><ele>1056</ele><time>2019-09-10T16:03:20.000Z</time></trkpt><trkpt lon="15.5652654" lat="46.5146578"><ele>1056</ele><time>2019-09-10T16:03:21.000Z</time></trkpt><trkpt lon="15.565367" lat="46.5146697"><ele>1057</ele><time>2019-09-10T16:03:22.000Z</time></trkpt><trkpt lon="15.5654153" lat="46.5146784"><ele>1057</ele><time>2019-09-10T16:03:23.000Z</time></trkpt><trkpt lon="15.5654153" lat="46.5146784"><ele>1057</ele><time>2019-09-10T16:03:24.000Z</time></trkpt><trkpt lon="15.5655085" lat="46.5146963"><ele>1058</ele><time>2019-09-10T16:03:25.000Z</time></trkpt><trkpt lon="15.5655085" lat="46.5146963"><ele>1058</ele><time>2019-09-10T16:03:26.000Z</time></trkpt><trkpt lon="15.5655983" lat="46.5147104"><ele>1059</ele><time>2019-09-10T16:03:27.000Z</time></trkpt><trkpt lon="15.5656409" lat="46.5147178"><ele>1059</ele><time>2019-09-10T16:03:28.000Z</time></trkpt><trkpt lon="15.5656409" lat="46.5147178"><ele>1059</ele><time>2019-09-10T16:03:29.000Z</time></trkpt><trkpt lon="15.5657406" lat="46.5147343"><ele>1060</ele><time>2019-09-10T16:03:30.000Z</time></trkpt><trkpt lon="15.5657406" lat="46.5147343"><ele>1060</ele><time>2019-09-10T16:03:31.000Z</time></trkpt><trkpt lon="15.565806" lat="46.5147512"><ele>1060</ele><time>2019-09-10T16:03:32.000Z</time></trkpt><trkpt lon="15.565806" lat="46.5147512"><ele>1060</ele><time>2019-09-10T16:03:33.000Z</time></trkpt><trkpt lon="15.5658779" lat="46.5147735"><ele>1061</ele><time>2019-09-10T16:03:34.000Z</time></trkpt><trkpt lon="15.5658779" lat="46.5147735"><ele>1061</ele><time>2019-09-10T16:03:35.000Z</time></trkpt><trkpt lon="15.5659472" lat="46.5147923"><ele>1062</ele><time>2019-09-10T16:03:36.000Z</time></trkpt><trkpt lon="15.5659472" lat="46.5147923"><ele>1062</ele><time>2019-09-10T16:03:37.000Z</time></trkpt><trkpt lon="15.5660104" lat="46.5148122"><ele>1062</ele><time>2019-09-10T16:03:38.000Z</time></trkpt><trkpt lon="15.5660104" lat="46.5148122"><ele>1062</ele><time>2019-09-10T16:03:39.000Z</time></trkpt><trkpt lon="15.5660527" lat="46.5148234"><ele>1062</ele><time>2019-09-10T16:03:40.000Z</time></trkpt><trkpt lon="15.5660527" lat="46.5148234"><ele>1062</ele><time>2019-09-10T16:03:41.000Z</time></trkpt><trkpt lon="15.5661159" lat="46.5148372"><ele>1062</ele><time>2019-09-10T16:03:42.000Z</time></trkpt><trkpt lon="15.5661159" lat="46.5148372"><ele>1062</ele><time>2019-09-10T16:03:43.000Z</time></trkpt><trkpt lon="15.5661872" lat="46.5148497"><ele>1062</ele><time>2019-09-10T16:03:44.000Z</time></trkpt><trkpt lon="15.5661872" lat="46.5148497"><ele>1062</ele><time>2019-09-10T16:03:45.000Z</time></trkpt><trkpt lon="15.5662718" lat="46.5148594"><ele>1063</ele><time>2019-09-10T16:03:46.000Z</time></trkpt><trkpt lon="15.566311" lat="46.5148661"><ele>1063</ele><time>2019-09-10T16:03:47.000Z</time></trkpt><trkpt lon="15.566311" lat="46.5148661"><ele>1063</ele><time>2019-09-10T16:03:48.000Z</time></trkpt><trkpt lon="15.5663719" lat="46.5148768"><ele>1063</ele><time>2019-09-10T16:03:49.000Z</time></trkpt><trkpt lon="15.5663719" lat="46.5148768"><ele>1063</ele><time>2019-09-10T16:03:50.000Z</time></trkpt><trkpt lon="15.5664333" lat="46.5148869"><ele>1064</ele><time>2019-09-10T16:03:51.000Z</time></trkpt><trkpt lon="15.5664333" lat="46.5148869"><ele>1064</ele><time>2019-09-10T16:03:52.000Z</time></trkpt><trkpt lon="15.5664926" lat="46.5148987"><ele>1064</ele><time>2019-09-10T16:03:53.000Z</time></trkpt><trkpt lon="15.5664926" lat="46.5148987"><ele>1064</ele><time>2019-09-10T16:03:54.000Z</time></trkpt><trkpt lon="15.5665523" lat="46.5149041"><ele>1064</ele><time>2019-09-10T16:03:55.000Z</time></trkpt><trkpt lon="15.5665523" lat="46.5149041"><ele>1064</ele><time>2019-09-10T16:03:56.000Z</time></trkpt><trkpt lon="15.5665971" lat="46.5149164"><ele>1064</ele><time>2019-09-10T16:03:57.000Z</time></trkpt><trkpt lon="15.5665971" lat="46.5149164"><ele>1064</ele><time>2019-09-10T16:03:58.000Z</time></trkpt><trkpt lon="15.5666469" lat="46.5149214"><ele>1064</ele><time>2019-09-10T16:03:59.000Z</time></trkpt><trkpt lon="15.5666469" lat="46.5149214"><ele>1064</ele><time>2019-09-10T16:04:00.000Z</time></trkpt><trkpt lon="15.5666889" lat="46.5149208"><ele>1064</ele><time>2019-09-10T16:04:01.000Z</time></trkpt><trkpt lon="15.5666889" lat="46.5149208"><ele>1064</ele><time>2019-09-10T16:04:02.000Z</time></trkpt><trkpt lon="15.5667434" lat="46.51491"><ele>1065</ele><time>2019-09-10T16:04:03.000Z</time></trkpt><trkpt lon="15.5667434" lat="46.51491"><ele>1065</ele><time>2019-09-10T16:04:04.000Z</time></trkpt><trkpt lon="15.566804" lat="46.5148995"><ele>1065</ele><time>2019-09-10T16:04:05.000Z</time></trkpt><trkpt lon="15.566804" lat="46.5148995"><ele>1065</ele><time>2019-09-10T16:04:06.000Z</time></trkpt><trkpt lon="15.5668618" lat="46.5148907"><ele>1065</ele><time>2019-09-10T16:04:07.000Z</time></trkpt><trkpt lon="15.5668618" lat="46.5148907"><ele>1065</ele><time>2019-09-10T16:04:08.000Z</time></trkpt><trkpt lon="15.5669236" lat="46.5148763"><ele>1065</ele><time>2019-09-10T16:04:09.000Z</time></trkpt><trkpt lon="15.5669236" lat="46.5148763"><ele>1065</ele><time>2019-09-10T16:04:10.000Z</time></trkpt><trkpt lon="15.566992" lat="46.5148576"><ele>1066</ele><time>2019-09-10T16:04:11.000Z</time></trkpt><trkpt lon="15.566992" lat="46.5148576"><ele>1066</ele><time>2019-09-10T16:04:12.000Z</time></trkpt><trkpt lon="15.5670826" lat="46.5148185"><ele>1066</ele><time>2019-09-10T16:04:13.000Z</time></trkpt><trkpt lon="15.5671412" lat="46.5147865"><ele>1067</ele><time>2019-09-10T16:04:14.000Z</time></trkpt><trkpt lon="15.5671412" lat="46.5147865"><ele>1067</ele><time>2019-09-10T16:04:15.000Z</time></trkpt><trkpt lon="15.5672654" lat="46.5147326"><ele>1067</ele><time>2019-09-10T16:04:16.000Z</time></trkpt><trkpt lon="15.5673344" lat="46.5147046"><ele>1067</ele><time>2019-09-10T16:04:17.000Z</time></trkpt><trkpt lon="15.5673344" lat="46.5147046"><ele>1067</ele><time>2019-09-10T16:04:18.000Z</time></trkpt><trkpt lon="15.5674601" lat="46.5146446"><ele>1066</ele><time>2019-09-10T16:04:19.000Z</time></trkpt><trkpt lon="15.5675227" lat="46.5146128"><ele>1066</ele><time>2019-09-10T16:04:20.000Z</time></trkpt><trkpt lon="15.5675803" lat="46.5145867"><ele>1066</ele><time>2019-09-10T16:04:21.000Z</time></trkpt><trkpt lon="15.5676474" lat="46.5145525"><ele>1066</ele><time>2019-09-10T16:04:22.000Z</time></trkpt><trkpt lon="15.5676474" lat="46.5145525"><ele>1066</ele><time>2019-09-10T16:04:23.000Z</time></trkpt><trkpt lon="15.5678136" lat="46.5144697"><ele>1065</ele><time>2019-09-10T16:04:24.000Z</time></trkpt><trkpt lon="15.5680392" lat="46.5143671"><ele>1065</ele><time>2019-09-10T16:04:25.000Z</time></trkpt><trkpt lon="15.5680392" lat="46.5143671"><ele>1065</ele><time>2019-09-10T16:04:26.000Z</time></trkpt><trkpt lon="15.5681924" lat="46.5142932"><ele>1066</ele><time>2019-09-10T16:04:27.000Z</time></trkpt><trkpt lon="15.5682572" lat="46.5142767"><ele>1065</ele><time>2019-09-10T16:04:28.000Z</time></trkpt><trkpt lon="15.5682572" lat="46.5142767"><ele>1065</ele><time>2019-09-10T16:04:29.000Z</time></trkpt><trkpt lon="15.5683656" lat="46.5142429"><ele>1065</ele><time>2019-09-10T16:04:30.000Z</time></trkpt><trkpt lon="15.5683656" lat="46.5142429"><ele>1065</ele><time>2019-09-10T16:04:31.000Z</time></trkpt><trkpt lon="15.5685016" lat="46.5142008"><ele>1064</ele><time>2019-09-10T16:04:32.000Z</time></trkpt><trkpt lon="15.5685482" lat="46.5141927"><ele>1065</ele><time>2019-09-10T16:04:33.000Z</time></trkpt><trkpt lon="15.5685988" lat="46.514185"><ele>1065</ele><time>2019-09-10T16:04:34.000Z</time></trkpt><trkpt lon="15.5685988" lat="46.514185"><ele>1065</ele><time>2019-09-10T16:04:35.000Z</time></trkpt><trkpt lon="15.5688712" lat="46.5141565"><ele>1066</ele><time>2019-09-10T16:04:36.000Z</time></trkpt><trkpt lon="15.5688712" lat="46.5141565"><ele>1066</ele><time>2019-09-10T16:04:37.000Z</time></trkpt><trkpt lon="15.5690455" lat="46.5141727"><ele>1064</ele><time>2019-09-10T16:04:38.000Z</time></trkpt><trkpt lon="15.5691522" lat="46.514187"><ele>1064</ele><time>2019-09-10T16:04:39.000Z</time></trkpt><trkpt lon="15.5691522" lat="46.514187"><ele>1064</ele><time>2019-09-10T16:04:40.000Z</time></trkpt><trkpt lon="15.5693668" lat="46.5142297"><ele>1063</ele><time>2019-09-10T16:04:41.000Z</time></trkpt><trkpt lon="15.5693668" lat="46.5142297"><ele>1063</ele><time>2019-09-10T16:04:42.000Z</time></trkpt><trkpt lon="15.5695682" lat="46.5142555"><ele>1062</ele><time>2019-09-10T16:04:43.000Z</time></trkpt><trkpt lon="15.5696526" lat="46.5142797"><ele>1062</ele><time>2019-09-10T16:04:44.000Z</time></trkpt><trkpt lon="15.569721" lat="46.514308"><ele>1061</ele><time>2019-09-10T16:04:45.000Z</time></trkpt><trkpt lon="15.569721" lat="46.514308"><ele>1061</ele><time>2019-09-10T16:04:46.000Z</time></trkpt><trkpt lon="15.5698525" lat="46.5143385"><ele>1060</ele><time>2019-09-10T16:04:47.000Z</time></trkpt><trkpt lon="15.5699135" lat="46.5143491"><ele>1060</ele><time>2019-09-10T16:04:48.000Z</time></trkpt><trkpt lon="15.5699135" lat="46.5143491"><ele>1060</ele><time>2019-09-10T16:04:49.000Z</time></trkpt><trkpt lon="15.5699509" lat="46.5143704"><ele>1061</ele><time>2019-09-10T16:04:50.000Z</time></trkpt><trkpt lon="15.5699509" lat="46.5143704"><ele>1061</ele><time>2019-09-10T16:04:51.000Z</time></trkpt><trkpt lon="15.5699978" lat="46.5144011"><ele>1061</ele><time>2019-09-10T16:04:52.000Z</time></trkpt><trkpt lon="15.5699978" lat="46.5144011"><ele>1061</ele><time>2019-09-10T16:04:53.000Z</time></trkpt><trkpt lon="15.5700464" lat="46.5144218"><ele>1061</ele><time>2019-09-10T16:04:54.000Z</time></trkpt><trkpt lon="15.5700464" lat="46.5144218"><ele>1061</ele><time>2019-09-10T16:04:55.000Z</time></trkpt><trkpt lon="15.5700979" lat="46.5144432"><ele>1061</ele><time>2019-09-10T16:04:56.000Z</time></trkpt><trkpt lon="15.5700979" lat="46.5144432"><ele>1061</ele><time>2019-09-10T16:04:57.000Z</time></trkpt><trkpt lon="15.5701603" lat="46.5144618"><ele>1061</ele><time>2019-09-10T16:04:58.000Z</time></trkpt><trkpt lon="15.5701603" lat="46.5144618"><ele>1061</ele><time>2019-09-10T16:04:59.000Z</time></trkpt><trkpt lon="15.5702332" lat="46.5144765"><ele>1060</ele><time>2019-09-10T16:05:00.000Z</time></trkpt><trkpt lon="15.5702332" lat="46.5144765"><ele>1060</ele><time>2019-09-10T16:05:01.000Z</time></trkpt><trkpt lon="15.570296" lat="46.5145069"><ele>1061</ele><time>2019-09-10T16:05:02.000Z</time></trkpt><trkpt lon="15.570296" lat="46.5145069"><ele>1061</ele><time>2019-09-10T16:05:03.000Z</time></trkpt><trkpt lon="15.570337" lat="46.5145323"><ele>1063</ele><time>2019-09-10T16:05:04.000Z</time></trkpt><trkpt lon="15.570337" lat="46.5145323"><ele>1063</ele><time>2019-09-10T16:05:05.000Z</time></trkpt><trkpt lon="15.5703855" lat="46.5145758"><ele>1063</ele><time>2019-09-10T16:05:06.000Z</time></trkpt><trkpt lon="15.5704365" lat="46.514622"><ele>1063</ele><time>2019-09-10T16:05:07.000Z</time></trkpt><trkpt lon="15.570474" lat="46.5146567"><ele>1063</ele><time>2019-09-10T16:05:08.000Z</time></trkpt><trkpt lon="15.570474" lat="46.5146567"><ele>1063</ele><time>2019-09-10T16:05:09.000Z</time></trkpt><trkpt lon="15.5705176" lat="46.5146958"><ele>1063</ele><time>2019-09-10T16:05:10.000Z</time></trkpt><trkpt lon="15.5705176" lat="46.5146958"><ele>1063</ele><time>2019-09-10T16:05:11.000Z</time></trkpt><trkpt lon="15.5705835" lat="46.5147433"><ele>1062</ele><time>2019-09-10T16:05:12.000Z</time></trkpt><trkpt lon="15.5705835" lat="46.5147433"><ele>1062</ele><time>2019-09-10T16:05:13.000Z</time></trkpt><trkpt lon="15.5706629" lat="46.5147967"><ele>1063</ele><time>2019-09-10T16:05:14.000Z</time></trkpt><trkpt lon="15.5706629" lat="46.5147967"><ele>1063</ele><time>2019-09-10T16:05:15.000Z</time></trkpt><trkpt lon="15.5708487" lat="46.5149426"><ele>1062</ele><time>2019-09-10T16:05:16.000Z</time></trkpt><trkpt lon="15.5708487" lat="46.5149426"><ele>1062</ele><time>2019-09-10T16:05:17.000Z</time></trkpt><trkpt lon="15.5709529" lat="46.5150157"><ele>1063</ele><time>2019-09-10T16:05:18.000Z</time></trkpt><trkpt lon="15.5709529" lat="46.5150157"><ele>1063</ele><time>2019-09-10T16:05:19.000Z</time></trkpt><trkpt lon="15.5710758" lat="46.515091"><ele>1063</ele><time>2019-09-10T16:05:20.000Z</time></trkpt><trkpt lon="15.5710758" lat="46.515091"><ele>1063</ele><time>2019-09-10T16:05:21.000Z</time></trkpt><trkpt lon="15.5711393" lat="46.5151032"><ele>1063</ele><time>2019-09-10T16:05:22.000Z</time></trkpt><trkpt lon="15.5711393" lat="46.5151032"><ele>1063</ele><time>2019-09-10T16:05:23.000Z</time></trkpt><trkpt lon="15.5712139" lat="46.5151206"><ele>1064</ele><time>2019-09-10T16:05:24.000Z</time></trkpt><trkpt lon="15.5712139" lat="46.5151206"><ele>1064</ele><time>2019-09-10T16:05:25.000Z</time></trkpt><trkpt lon="15.5713067" lat="46.5151392"><ele>1066</ele><time>2019-09-10T16:05:26.000Z</time></trkpt><trkpt lon="15.5713462" lat="46.5151472"><ele>1066</ele><time>2019-09-10T16:05:27.000Z</time></trkpt><trkpt lon="15.5713912" lat="46.5151565"><ele>1065</ele><time>2019-09-10T16:05:28.000Z</time></trkpt><trkpt lon="15.5713912" lat="46.5151565"><ele>1065</ele><time>2019-09-10T16:05:29.000Z</time></trkpt><trkpt lon="15.5714975" lat="46.5151739"><ele>1065</ele><time>2019-09-10T16:05:30.000Z</time></trkpt><trkpt lon="15.5714975" lat="46.5151739"><ele>1065</ele><time>2019-09-10T16:05:31.000Z</time></trkpt><trkpt lon="15.5716125" lat="46.5151909"><ele>1066</ele><time>2019-09-10T16:05:32.000Z</time></trkpt><trkpt lon="15.5716125" lat="46.5151909"><ele>1066</ele><time>2019-09-10T16:05:33.000Z</time></trkpt><trkpt lon="15.5717416" lat="46.5151902"><ele>1065</ele><time>2019-09-10T16:05:34.000Z</time></trkpt><trkpt lon="15.571807" lat="46.5151879"><ele>1065</ele><time>2019-09-10T16:05:35.000Z</time></trkpt><trkpt lon="15.571807" lat="46.5151879"><ele>1065</ele><time>2019-09-10T16:05:36.000Z</time></trkpt><trkpt lon="15.5719281" lat="46.5151789"><ele>1064</ele><time>2019-09-10T16:05:37.000Z</time></trkpt><trkpt lon="15.5719692" lat="46.5151773"><ele>1066</ele><time>2019-09-10T16:05:38.000Z</time></trkpt><trkpt lon="15.5720222" lat="46.5151791"><ele>1065</ele><time>2019-09-10T16:05:39.000Z</time></trkpt><trkpt lon="15.5720222" lat="46.5151791"><ele>1065</ele><time>2019-09-10T16:05:40.000Z</time></trkpt><trkpt lon="15.572153" lat="46.5151788"><ele>1066</ele><time>2019-09-10T16:05:41.000Z</time></trkpt><trkpt lon="15.5722589" lat="46.5151835"><ele>1066</ele><time>2019-09-10T16:05:42.000Z</time></trkpt><trkpt lon="15.5722589" lat="46.5151835"><ele>1066</ele><time>2019-09-10T16:05:43.000Z</time></trkpt><trkpt lon="15.5724516" lat="46.5152042"><ele>1065</ele><time>2019-09-10T16:05:44.000Z</time></trkpt><trkpt lon="15.572525" lat="46.5152179"><ele>1067</ele><time>2019-09-10T16:05:45.000Z</time></trkpt><trkpt lon="15.5725848" lat="46.5152316"><ele>1067</ele><time>2019-09-10T16:05:46.000Z</time></trkpt><trkpt lon="15.5725848" lat="46.5152316"><ele>1067</ele><time>2019-09-10T16:05:47.000Z</time></trkpt><trkpt lon="15.5726793" lat="46.5152445"><ele>1068</ele><time>2019-09-10T16:05:48.000Z</time></trkpt><trkpt lon="15.5726793" lat="46.5152445"><ele>1068</ele><time>2019-09-10T16:05:49.000Z</time></trkpt><trkpt lon="15.5727475" lat="46.5152651"><ele>1070</ele><time>2019-09-10T16:05:50.000Z</time></trkpt><trkpt lon="15.5727475" lat="46.5152651"><ele>1070</ele><time>2019-09-10T16:05:51.000Z</time></trkpt><trkpt lon="15.5728506" lat="46.515279"><ele>1071</ele><time>2019-09-10T16:05:52.000Z</time></trkpt><trkpt lon="15.5728506" lat="46.515279"><ele>1071</ele><time>2019-09-10T16:05:53.000Z</time></trkpt><trkpt lon="15.5731342" lat="46.5152796"><ele>1070</ele><time>2019-09-10T16:05:54.000Z</time></trkpt><trkpt lon="15.5731342" lat="46.5152796"><ele>1070</ele><time>2019-09-10T16:05:55.000Z</time></trkpt><trkpt lon="15.5732734" lat="46.5152901"><ele>1071</ele><time>2019-09-10T16:05:56.000Z</time></trkpt><trkpt lon="15.5733318" lat="46.5152835"><ele>1071</ele><time>2019-09-10T16:05:57.000Z</time></trkpt><trkpt lon="15.5733318" lat="46.5152835"><ele>1071</ele><time>2019-09-10T16:05:58.000Z</time></trkpt><trkpt lon="15.5733991" lat="46.5152738"><ele>1071</ele><time>2019-09-10T16:05:59.000Z</time></trkpt><trkpt lon="15.5733991" lat="46.5152738"><ele>1071</ele><time>2019-09-10T16:06:00.000Z</time></trkpt><trkpt lon="15.5734782" lat="46.5152651"><ele>1072</ele><time>2019-09-10T16:06:01.000Z</time></trkpt><trkpt lon="15.5735256" lat="46.5152603"><ele>1072</ele><time>2019-09-10T16:06:02.000Z</time></trkpt><trkpt lon="15.5735256" lat="46.5152603"><ele>1072</ele><time>2019-09-10T16:06:03.000Z</time></trkpt><trkpt lon="15.5736263" lat="46.5152497"><ele>1072</ele><time>2019-09-10T16:06:04.000Z</time></trkpt><trkpt lon="15.5736263" lat="46.5152497"><ele>1072</ele><time>2019-09-10T16:06:05.000Z</time></trkpt><trkpt lon="15.5737151" lat="46.5152371"><ele>1072</ele><time>2019-09-10T16:06:06.000Z</time></trkpt><trkpt lon="15.5737151" lat="46.5152371"><ele>1072</ele><time>2019-09-10T16:06:07.000Z</time></trkpt><trkpt lon="15.5737704" lat="46.5152299"><ele>1071</ele><time>2019-09-10T16:06:08.000Z</time></trkpt><trkpt lon="15.5737704" lat="46.5152299"><ele>1071</ele><time>2019-09-10T16:06:09.000Z</time></trkpt><trkpt lon="15.5738464" lat="46.515214"><ele>1071</ele><time>2019-09-10T16:06:10.000Z</time></trkpt><trkpt lon="15.5738464" lat="46.515214"><ele>1071</ele><time>2019-09-10T16:06:11.000Z</time></trkpt><trkpt lon="15.5739363" lat="46.5151961"><ele>1070</ele><time>2019-09-10T16:06:12.000Z</time></trkpt><trkpt lon="15.5739363" lat="46.5151961"><ele>1070</ele><time>2019-09-10T16:06:13.000Z</time></trkpt><trkpt lon="15.5740439" lat="46.5151789"><ele>1071</ele><time>2019-09-10T16:06:14.000Z</time></trkpt><trkpt lon="15.5742218" lat="46.5151718"><ele>1071</ele><time>2019-09-10T16:06:15.000Z</time></trkpt><trkpt lon="15.574295" lat="46.5151815"><ele>1070</ele><time>2019-09-10T16:06:16.000Z</time></trkpt><trkpt lon="15.574295" lat="46.5151815"><ele>1070</ele><time>2019-09-10T16:06:17.000Z</time></trkpt><trkpt lon="15.5744278" lat="46.5151901"><ele>1069</ele><time>2019-09-10T16:06:18.000Z</time></trkpt><trkpt lon="15.5744278" lat="46.5151901"><ele>1069</ele><time>2019-09-10T16:06:19.000Z</time></trkpt><trkpt lon="15.5745597" lat="46.5152086"><ele>1069</ele><time>2019-09-10T16:06:20.000Z</time></trkpt><trkpt lon="15.5746309" lat="46.5152137"><ele>1069</ele><time>2019-09-10T16:06:21.000Z</time></trkpt><trkpt lon="15.5746309" lat="46.5152137"><ele>1069</ele><time>2019-09-10T16:06:22.000Z</time></trkpt><trkpt lon="15.5747517" lat="46.5152456"><ele>1068</ele><time>2019-09-10T16:06:23.000Z</time></trkpt><trkpt lon="15.5748109" lat="46.5152669"><ele>1068</ele><time>2019-09-10T16:06:24.000Z</time></trkpt><trkpt lon="15.5748109" lat="46.5152669"><ele>1068</ele><time>2019-09-10T16:06:25.000Z</time></trkpt><trkpt lon="15.57493" lat="46.5153221"><ele>1068</ele><time>2019-09-10T16:06:26.000Z</time></trkpt><trkpt lon="15.57493" lat="46.5153221"><ele>1068</ele><time>2019-09-10T16:06:27.000Z</time></trkpt><trkpt lon="15.5750441" lat="46.5153542"><ele>1069</ele><time>2019-09-10T16:06:28.000Z</time></trkpt><trkpt lon="15.5750441" lat="46.5153542"><ele>1069</ele><time>2019-09-10T16:06:29.000Z</time></trkpt><trkpt lon="15.5751482" lat="46.5154082"><ele>1068</ele><time>2019-09-10T16:06:30.000Z</time></trkpt><trkpt lon="15.5751482" lat="46.5154082"><ele>1068</ele><time>2019-09-10T16:06:31.000Z</time></trkpt><trkpt lon="15.5752541" lat="46.5154757"><ele>1067</ele><time>2019-09-10T16:06:32.000Z</time></trkpt><trkpt lon="15.5753083" lat="46.5155141"><ele>1067</ele><time>2019-09-10T16:06:33.000Z</time></trkpt><trkpt lon="15.5753678" lat="46.5155436"><ele>1067</ele><time>2019-09-10T16:06:34.000Z</time></trkpt><trkpt lon="15.5754283" lat="46.5155723"><ele>1067</ele><time>2019-09-10T16:06:35.000Z</time></trkpt><trkpt lon="15.5754283" lat="46.5155723"><ele>1067</ele><time>2019-09-10T16:06:36.000Z</time></trkpt><trkpt lon="15.5755728" lat="46.5156242"><ele>1067</ele><time>2019-09-10T16:06:37.000Z</time></trkpt><trkpt lon="15.5756505" lat="46.5156482"><ele>1066</ele><time>2019-09-10T16:06:38.000Z</time></trkpt><trkpt lon="15.5756505" lat="46.5156482"><ele>1066</ele><time>2019-09-10T16:06:39.000Z</time></trkpt><trkpt lon="15.5758064" lat="46.5156944"><ele>1066</ele><time>2019-09-10T16:06:40.000Z</time></trkpt><trkpt lon="15.5758064" lat="46.5156944"><ele>1066</ele><time>2019-09-10T16:06:41.000Z</time></trkpt><trkpt lon="15.5759675" lat="46.5157473"><ele>1066</ele><time>2019-09-10T16:06:42.000Z</time></trkpt><trkpt lon="15.5759675" lat="46.5157473"><ele>1066</ele><time>2019-09-10T16:06:43.000Z</time></trkpt><trkpt lon="15.5761046" lat="46.5157814"><ele>1065</ele><time>2019-09-10T16:06:44.000Z</time></trkpt><trkpt lon="15.5761046" lat="46.5157814"><ele>1065</ele><time>2019-09-10T16:06:45.000Z</time></trkpt><trkpt lon="15.5762383" lat="46.515813"><ele>1065</ele><time>2019-09-10T16:06:46.000Z</time></trkpt><trkpt lon="15.5762383" lat="46.515813"><ele>1065</ele><time>2019-09-10T16:06:47.000Z</time></trkpt><trkpt lon="15.5763742" lat="46.5158605"><ele>1065</ele><time>2019-09-10T16:06:48.000Z</time></trkpt><trkpt lon="15.5763742" lat="46.5158605"><ele>1065</ele><time>2019-09-10T16:06:49.000Z</time></trkpt><trkpt lon="15.5765235" lat="46.5159027"><ele>1066</ele><time>2019-09-10T16:06:50.000Z</time></trkpt><trkpt lon="15.5765235" lat="46.5159027"><ele>1066</ele><time>2019-09-10T16:06:51.000Z</time></trkpt><trkpt lon="15.5766751" lat="46.5159242"><ele>1066</ele><time>2019-09-10T16:06:52.000Z</time></trkpt><trkpt lon="15.5766751" lat="46.5159242"><ele>1066</ele><time>2019-09-10T16:06:53.000Z</time></trkpt><trkpt lon="15.5768286" lat="46.5159332"><ele>1067</ele><time>2019-09-10T16:06:54.000Z</time></trkpt><trkpt lon="15.5769081" lat="46.515932"><ele>1067</ele><time>2019-09-10T16:06:55.000Z</time></trkpt><trkpt lon="15.5769081" lat="46.515932"><ele>1067</ele><time>2019-09-10T16:06:56.000Z</time></trkpt><trkpt lon="15.5770523" lat="46.5159369"><ele>1068</ele><time>2019-09-10T16:06:57.000Z</time></trkpt><trkpt lon="15.5770523" lat="46.5159369"><ele>1068</ele><time>2019-09-10T16:06:58.000Z</time></trkpt><trkpt lon="15.5771956" lat="46.5159324"><ele>1068</ele><time>2019-09-10T16:06:59.000Z</time></trkpt><trkpt lon="15.5771956" lat="46.5159324"><ele>1068</ele><time>2019-09-10T16:07:00.000Z</time></trkpt><trkpt lon="15.5773158" lat="46.5159449"><ele>1069</ele><time>2019-09-10T16:07:01.000Z</time></trkpt><trkpt lon="15.5773158" lat="46.5159449"><ele>1069</ele><time>2019-09-10T16:07:02.000Z</time></trkpt><trkpt lon="15.577382" lat="46.5159558"><ele>1069</ele><time>2019-09-10T16:07:03.000Z</time></trkpt><trkpt lon="15.577382" lat="46.5159558"><ele>1069</ele><time>2019-09-10T16:07:04.000Z</time></trkpt><trkpt lon="15.577444" lat="46.5159692"><ele>1071</ele><time>2019-09-10T16:07:05.000Z</time></trkpt><trkpt lon="15.577444" lat="46.5159692"><ele>1071</ele><time>2019-09-10T16:07:06.000Z</time></trkpt><trkpt lon="15.5775467" lat="46.5159765"><ele>1072</ele><time>2019-09-10T16:07:07.000Z</time></trkpt><trkpt lon="15.5775467" lat="46.5159765"><ele>1072</ele><time>2019-09-10T16:07:08.000Z</time></trkpt><trkpt lon="15.577613" lat="46.5159815"><ele>1073</ele><time>2019-09-10T16:07:09.000Z</time></trkpt><trkpt lon="15.577613" lat="46.5159815"><ele>1073</ele><time>2019-09-10T16:07:10.000Z</time></trkpt><trkpt lon="15.5776655" lat="46.515985"><ele>1073</ele><time>2019-09-10T16:07:11.000Z</time></trkpt><trkpt lon="15.5776655" lat="46.515985"><ele>1073</ele><time>2019-09-10T16:07:12.000Z</time></trkpt><trkpt lon="15.5777143" lat="46.5159924"><ele>1072</ele><time>2019-09-10T16:07:13.000Z</time></trkpt><trkpt lon="15.5777143" lat="46.5159924"><ele>1072</ele><time>2019-09-10T16:07:14.000Z</time></trkpt><trkpt lon="15.5778055" lat="46.5160106"><ele>1072</ele><time>2019-09-10T16:07:15.000Z</time></trkpt><trkpt lon="15.5778055" lat="46.5160106"><ele>1072</ele><time>2019-09-10T16:07:16.000Z</time></trkpt><trkpt lon="15.5779053" lat="46.5160294"><ele>1072</ele><time>2019-09-10T16:07:17.000Z</time></trkpt><trkpt lon="15.5779473" lat="46.5160386"><ele>1072</ele><time>2019-09-10T16:07:18.000Z</time></trkpt><trkpt lon="15.5779473" lat="46.5160386"><ele>1072</ele><time>2019-09-10T16:07:19.000Z</time></trkpt><trkpt lon="15.5779986" lat="46.5160587"><ele>1072</ele><time>2019-09-10T16:07:20.000Z</time></trkpt><trkpt lon="15.5779986" lat="46.5160587"><ele>1072</ele><time>2019-09-10T16:07:21.000Z</time></trkpt><trkpt lon="15.5780301" lat="46.5160798"><ele>1071</ele><time>2019-09-10T16:07:22.000Z</time></trkpt><trkpt lon="15.5780301" lat="46.5160798"><ele>1071</ele><time>2019-09-10T16:07:23.000Z</time></trkpt><trkpt lon="15.5780301" lat="46.5160798"><ele>1071</ele><time>2019-09-10T16:07:24.000Z</time></trkpt><trkpt lon="-999.0" lat="-999.0"><ele>0.0</ele><time>2019-09-10T16:07:25.000Z</time></trkpt><trkpt lon="-999.0" lat="-999.0"><ele>0.0</ele><time>2019-09-10T16:07:26.000Z</time></trkpt><trkpt lon="15.5780589" lat="46.5160991"><ele>1072</ele><time>2019-09-10T16:07:27.000Z</time></trkpt><trkpt lon="15.5780589" lat="46.5160991"><ele>1072</ele><time>2019-09-10T16:07:28.000Z</time></trkpt><trkpt lon="15.5780589" lat="46.5160991"><ele>1072</ele><time>2019-09-10T16:07:29.000Z</time></trkpt><trkpt lon="-999.0" lat="-999.0"><ele>0.0</ele><time>2019-09-10T16:07:30.000Z</time></trkpt><trkpt lon="-999.0" lat="-999.0"><ele>0.0</ele><time>2019-09-10T16:07:31.000Z</time></trkpt><trkpt lon="-999.0" lat="-999.0"><ele>0.0</ele><time>2019-09-10T16:07:32.000Z</time></trkpt><trkpt lon="-999.0" lat="-999.0"><ele>0.0</ele><time>2019-09-10T16:07:33.000Z</time></trkpt><trkpt lon="-999.0" lat="-999.0"><ele>0.0</ele><time>2019-09-10T16:07:34.000Z</time></trkpt><trkpt lon="-999.0" lat="-999.0"><ele>0.0</ele><time>2019-09-10T16:07:35.000Z</time></trkpt><trkpt lon="-999.0" lat="-999.0"><ele>0.0</ele><time>2019-09-10T16:07:36.000Z</time></trkpt><trkpt lon="-999.0" lat="-999.0"><ele>0.0</ele><time>2019-09-10T16:07:37.000Z</time></trkpt><trkpt lon="-999.0" lat="-999.0"><ele>0.0</ele><time>2019-09-10T16:07:38.000Z</time></trkpt><trkpt lon="-999.0" lat="-999.0"><ele>0.0</ele><time>2019-09-10T16:07:39.000Z</time></trkpt><trkpt lon="-999.0" lat="-999.0"><ele>0.0</ele><time>2019-09-10T16:07:40.000Z</time></trkpt><trkpt lon="-999.0" lat="-999.0"><ele>0.0</ele><time>2019-09-10T16:07:41.000Z</time></trkpt><trkpt lon="-999.0" lat="-999.0"><ele>0.0</ele><time>2019-09-10T16:07:42.000Z</time></trkpt><trkpt lon="-999.0" lat="-999.0"><ele>0.0</ele><time>2019-09-10T16:07:43.000Z</time></trkpt><trkpt lon="-999.0" lat="-999.0"><ele>0.0</ele><time>2019-09-10T16:07:44.000Z</time></trkpt><trkpt lon="-999.0" lat="-999.0"><ele>0.0</ele><time>2019-09-10T16:07:45.000Z</time></trkpt><trkpt lon="-999.0" lat="-999.0"><ele>0.0</ele><time>2019-09-10T16:07:46.000Z</time></trkpt><trkpt lon="-999.0" lat="-999.0"><ele>0.0</ele><time>2019-09-10T16:07:47.000Z</time></trkpt><trkpt lon="-999.0" lat="-999.0"><ele>0.0</ele><time>2019-09-10T16:07:48.000Z</time></trkpt><trkpt lon="-999.0" lat="-999.0"><ele>0.0</ele><time>2019-09-10T16:07:49.000Z</time></trkpt><trkpt lon="-999.0" lat="-999.0"><ele>0.0</ele><time>2019-09-10T16:07:50.000Z</time></trkpt><trkpt lon="-999.0" lat="-999.0"><ele>0.0</ele><time>2019-09-10T16:07:51.000Z</time></trkpt><trkpt lon="-999.0" lat="-999.0"><ele>0.0</ele><time>2019-09-10T16:07:52.000Z</time></trkpt><trkpt lon="-999.0" lat="-999.0"><ele>0.0</ele><time>2019-09-10T16:07:53.000Z</time></trkpt><trkpt lon="-999.0" lat="-999.0"><ele>0.0</ele><time>2019-09-10T16:07:54.000Z</time></trkpt><trkpt lon="-999.0" lat="-999.0"><ele>0.0</ele><time>2019-09-10T16:07:55.000Z</time></trkpt><trkpt lon="-999.0" lat="-999.0"><ele>0.0</ele><time>2019-09-10T16:07:56.000Z</time></trkpt><trkpt lon="-999.0" lat="-999.0"><ele>0.0</ele><time>2019-09-10T16:07:57.000Z</time></trkpt><trkpt lon="-999.0" lat="-999.0"><ele>0.0</ele><time>2019-09-10T16:07:58.000Z</time></trkpt><trkpt lon="-999.0" lat="-999.0"><ele>0.0</ele><time>2019-09-10T16:07:59.000Z</time></trkpt><trkpt lon="-999.0" lat="-999.0"><ele>0.0</ele><time>2019-09-10T16:08:00.000Z</time></trkpt><trkpt lon="-999.0" lat="-999.0"><ele>0.0</ele><time>2019-09-10T16:08:01.000Z</time></trkpt><trkpt lon="-999.0" lat="-999.0"><ele>0.0</ele><time>2019-09-10T16:08:02.000Z</time></trkpt><trkpt lon="-999.0" lat="-999.0"><ele>0.0</ele><time>2019-09-10T16:08:03.000Z</time></trkpt><trkpt lon="-999.0" lat="-999.0"><ele>0.0</ele><time>2019-09-10T16:08:04.000Z</time></trkpt><trkpt lon="-999.0" lat="-999.0"><ele>0.0</ele><time>2019-09-10T16:08:05.000Z</time></trkpt><trkpt lon="-999.0" lat="-999.0"><ele>0.0</ele><time>2019-09-10T16:08:06.000Z</time></trkpt><trkpt lon="-999.0" lat="-999.0"><ele>0.0</ele><time>2019-09-10T16:08:07.000Z</time></trkpt><trkpt lon="-999.0" lat="-999.0"><ele>0.0</ele><time>2019-09-10T16:08:08.000Z</time></trkpt><trkpt lon="15.578101" lat="46.5160988"><ele>1072</ele><time>2019-09-10T16:08:09.000Z</time></trkpt><trkpt lon="15.578101" lat="46.5160988"><ele>1072</ele><time>2019-09-10T16:08:10.000Z</time></trkpt><trkpt lon="15.5781434" lat="46.5161048"><ele>1072</ele><time>2019-09-10T16:08:11.000Z</time></trkpt><trkpt lon="15.5781434" lat="46.5161048"><ele>1072</ele><time>2019-09-10T16:08:12.000Z</time></trkpt><trkpt lon="15.5781434" lat="46.5161048"><ele>1072</ele><time>2019-09-10T16:08:13.000Z</time></trkpt><trkpt lon="-999.0" lat="-999.0"><ele>0.0</ele><time>2019-09-10T16:08:14.000Z</time></trkpt><trkpt lon="-999.0" lat="-999.0"><ele>0.0</ele><time>2019-09-10T16:08:15.000Z</time></trkpt><trkpt lon="-999.0" lat="-999.0"><ele>0.0</ele><time>2019-09-10T16:08:16.000Z</time></trkpt><trkpt lon="-999.0" lat="-999.0"><ele>0.0</ele><time>2019-09-10T16:08:17.000Z</time></trkpt><trkpt lon="-999.0" lat="-999.0"><ele>0.0</ele><time>2019-09-10T16:08:18.000Z</time></trkpt><trkpt lon="-999.0" lat="-999.0"><ele>0.0</ele><time>2019-09-10T16:08:19.000Z</time></trkpt><trkpt lon="-999.0" lat="-999.0"><ele>0.0</ele><time>2019-09-10T16:08:20.000Z</time></trkpt><trkpt lon="-999.0" lat="-999.0"><ele>0.0</ele><time>2019-09-10T16:08:21.000Z</time></trkpt><trkpt lon="-999.0" lat="-999.0"><ele>0.0</ele><time>2019-09-10T16:08:22.000Z</time></trkpt><trkpt lon="-999.0" lat="-999.0"><ele>0.0</ele><time>2019-09-10T16:08:23.000Z</time></trkpt><trkpt lon="-999.0" lat="-999.0"><ele>0.0</ele><time>2019-09-10T16:08:24.000Z</time></trkpt><trkpt lon="-999.0" lat="-999.0"><ele>0.0</ele><time>2019-09-10T16:08:25.000Z</time></trkpt><trkpt lon="-999.0" lat="-999.0"><ele>0.0</ele><time>2019-09-10T16:08:26.000Z</time></trkpt><trkpt lon="-999.0" lat="-999.0"><ele>0.0</ele><time>2019-09-10T16:08:27.000Z</time></trkpt><trkpt lon="-999.0" lat="-999.0"><ele>0.0</ele><time>2019-09-10T16:08:28.000Z</time></trkpt><trkpt lon="15.5782012" lat="46.5161222"><ele>1072</ele><time>2019-09-10T16:08:29.000Z</time></trkpt><trkpt lon="15.5782012" lat="46.5161222"><ele>1072</ele><time>2019-09-10T16:08:30.000Z</time></trkpt><trkpt lon="15.5782012" lat="46.5161222"><ele>1072</ele><time>2019-09-10T16:08:31.000Z</time></trkpt><trkpt lon="15.5782012" lat="46.5161222"><ele>1072</ele><time>2019-09-10T16:08:32.000Z</time></trkpt><trkpt lon="-999.0" lat="-999.0"><ele>0.0</ele><time>2019-09-10T16:08:33.000Z</time></trkpt><trkpt lon="-999.0" lat="-999.0"><ele>0.0</ele><time>2019-09-10T16:08:34.000Z</time></trkpt><trkpt lon="-999.0" lat="-999.0"><ele>0.0</ele><time>2019-09-10T16:08:35.000Z</time></trkpt><trkpt lon="-999.0" lat="-999.0"><ele>0.0</ele><time>2019-09-10T16:08:36.000Z</time></trkpt><trkpt lon="-999.0" lat="-999.0"><ele>0.0</ele><time>2019-09-10T16:08:37.000Z</time></trkpt><trkpt lon="-999.0" lat="-999.0"><ele>0.0</ele><time>2019-09-10T16:08:38.000Z</time></trkpt><trkpt lon="-999.0" lat="-999.0"><ele>0.0</ele><time>2019-09-10T16:08:39.000Z</time></trkpt><trkpt lon="-999.0" lat="-999.0"><ele>0.0</ele><time>2019-09-10T16:08:40.000Z</time></trkpt><trkpt lon="-999.0" lat="-999.0"><ele>0.0</ele><time>2019-09-10T16:08:41.000Z</time></trkpt><trkpt lon="-999.0" lat="-999.0"><ele>0.0</ele><time>2019-09-10T16:08:42.000Z</time></trkpt><trkpt lon="-999.0" lat="-999.0"><ele>0.0</ele><time>2019-09-10T16:08:43.000Z</time></trkpt><trkpt lon="-999.0" lat="-999.0"><ele>0.0</ele><time>2019-09-10T16:08:44.000Z</time></trkpt><trkpt lon="-999.0" lat="-999.0"><ele>0.0</ele><time>2019-09-10T16:08:45.000Z</time></trkpt><trkpt lon="-999.0" lat="-999.0"><ele>0.0</ele><time>2019-09-10T16:08:46.000Z</time></trkpt><trkpt lon="-999.0" lat="-999.0"><ele>0.0</ele><time>2019-09-10T16:08:47.000Z</time></trkpt><trkpt lon="-999.0" lat="-999.0"><ele>0.0</ele><time>2019-09-10T16:08:48.000Z</time></trkpt><trkpt lon="-999.0" lat="-999.0"><ele>0.0</ele><time>2019-09-10T16:08:49.000Z</time></trkpt><trkpt lon="-999.0" lat="-999.0"><ele>0.0</ele><time>2019-09-10T16:08:50.000Z</time></trkpt><trkpt lon="-999.0" lat="-999.0"><ele>0.0</ele><time>2019-09-10T16:08:51.000Z</time></trkpt><trkpt lon="-999.0" lat="-999.0"><ele>0.0</ele><time>2019-09-10T16:08:52.000Z</time></trkpt><trkpt lon="-999.0" lat="-999.0"><ele>0.0</ele><time>2019-09-10T16:08:53.000Z</time></trkpt><trkpt lon="-999.0" lat="-999.0"><ele>0.0</ele><time>2019-09-10T16:08:54.000Z</time></trkpt><trkpt lon="-999.0" lat="-999.0"><ele>0.0</ele><time>2019-09-10T16:08:55.000Z</time></trkpt><trkpt lon="-999.0" lat="-999.0"><ele>0.0</ele><time>2019-09-10T16:08:56.000Z</time></trkpt><trkpt lon="-999.0" lat="-999.0"><ele>0.0</ele><time>2019-09-10T16:08:57.000Z</time></trkpt><trkpt lon="-999.0" lat="-999.0"><ele>0.0</ele><time>2019-09-10T16:08:58.000Z</time></trkpt><trkpt lon="-999.0" lat="-999.0"><ele>0.0</ele><time>2019-09-10T16:08:59.000Z</time></trkpt><trkpt lon="-999.0" lat="-999.0"><ele>0.0</ele><time>2019-09-10T16:09:00.000Z</time></trkpt><trkpt lon="-999.0" lat="-999.0"><ele>0.0</ele><time>2019-09-10T16:09:01.000Z</time></trkpt><trkpt lon="-999.0" lat="-999.0"><ele>0.0</ele><time>2019-09-10T16:09:02.000Z</time></trkpt><trkpt lon="-999.0" lat="-999.0"><ele>0.0</ele><time>2019-09-10T16:09:03.000Z</time></trkpt><trkpt lon="-999.0" lat="-999.0"><ele>0.0</ele><time>2019-09-10T16:09:04.000Z</time></trkpt><trkpt lon="-999.0" lat="-999.0"><ele>0.0</ele><time>2019-09-10T16:09:05.000Z</time></trkpt><trkpt lon="-999.0" lat="-999.0"><ele>0.0</ele><time>2019-09-10T16:09:06.000Z</time></trkpt><trkpt lon="-999.0" lat="-999.0"><ele>0.0</ele><time>2019-09-10T16:09:07.000Z</time></trkpt><trkpt lon="-999.0" lat="-999.0"><ele>0.0</ele><time>2019-09-10T16:09:08.000Z</time></trkpt><trkpt lon="-999.0" lat="-999.0"><ele>0.0</ele><time>2019-09-10T16:09:09.000Z</time></trkpt><trkpt lon="-999.0" lat="-999.0"><ele>0.0</ele><time>2019-09-10T16:09:10.000Z</time></trkpt><trkpt lon="-999.0" lat="-999.0"><ele>0.0</ele><time>2019-09-10T16:09:11.000Z</time></trkpt><trkpt lon="-999.0" lat="-999.0"><ele>0.0</ele><time>2019-09-10T16:09:12.000Z</time></trkpt><trkpt lon="-999.0" lat="-999.0"><ele>0.0</ele><time>2019-09-10T16:09:13.000Z</time></trkpt><trkpt lon="-999.0" lat="-999.0"><ele>0.0</ele><time>2019-09-10T16:09:14.000Z</time></trkpt><trkpt lon="-999.0" lat="-999.0"><ele>0.0</ele><time>2019-09-10T16:09:15.000Z</time></trkpt><trkpt lon="-999.0" lat="-999.0"><ele>0.0</ele><time>2019-09-10T16:09:16.000Z</time></trkpt><trkpt lon="-999.0" lat="-999.0"><ele>0.0</ele><time>2019-09-10T16:09:17.000Z</time></trkpt><trkpt lon="-999.0" lat="-999.0"><ele>0.0</ele><time>2019-09-10T16:09:18.000Z</time></trkpt><trkpt lon="-999.0" lat="-999.0"><ele>0.0</ele><time>2019-09-10T16:09:19.000Z</time></trkpt><trkpt lon="-999.0" lat="-999.0"><ele>0.0</ele><time>2019-09-10T16:09:20.000Z</time></trkpt><trkpt lon="-999.0" lat="-999.0"><ele>0.0</ele><time>2019-09-10T16:09:21.000Z</time></trkpt><trkpt lon="-999.0" lat="-999.0"><ele>0.0</ele><time>2019-09-10T16:09:22.000Z</time></trkpt><trkpt lon="-999.0" lat="-999.0"><ele>0.0</ele><time>2019-09-10T16:09:23.000Z</time></trkpt><trkpt lon="-999.0" lat="-999.0"><ele>0.0</ele><time>2019-09-10T16:09:24.000Z</time></trkpt><trkpt lon="-999.0" lat="-999.0"><ele>0.0</ele><time>2019-09-10T16:09:25.000Z</time></trkpt><trkpt lon="-999.0" lat="-999.0"><ele>0.0</ele><time>2019-09-10T16:09:26.000Z</time></trkpt><trkpt lon="-999.0" lat="-999.0"><ele>0.0</ele><time>2019-09-10T16:09:27.000Z</time></trkpt><trkpt lon="-999.0" lat="-999.0"><ele>0.0</ele><time>2019-09-10T16:09:28.000Z</time></trkpt><trkpt lon="-999.0" lat="-999.0"><ele>0.0</ele><time>2019-09-10T16:09:29.000Z</time></trkpt><trkpt lon="-999.0" lat="-999.0"><ele>0.0</ele><time>2019-09-10T16:09:30.000Z</time></trkpt><trkpt lon="-999.0" lat="-999.0"><ele>0.0</ele><time>2019-09-10T16:09:31.000Z</time></trkpt><trkpt lon="-999.0" lat="-999.0"><ele>0.0</ele><time>2019-09-10T16:09:32.000Z</time></trkpt><trkpt lon="-999.0" lat="-999.0"><ele>0.0</ele><time>2019-09-10T16:09:33.000Z</time></trkpt><trkpt lon="-999.0" lat="-999.0"><ele>0.0</ele><time>2019-09-10T16:09:34.000Z</time></trkpt><trkpt lon="-999.0" lat="-999.0"><ele>0.0</ele><time>2019-09-10T16:09:35.000Z</time></trkpt><trkpt lon="-999.0" lat="-999.0"><ele>0.0</ele><time>2019-09-10T16:09:36.000Z</time></trkpt><trkpt lon="-999.0" lat="-999.0"><ele>0.0</ele><time>2019-09-10T16:09:37.000Z</time></trkpt><trkpt lon="-999.0" lat="-999.0"><ele>0.0</ele><time>2019-09-10T16:09:38.000Z</time></trkpt><trkpt lon="-999.0" lat="-999.0"><ele>0.0</ele><time>2019-09-10T16:09:39.000Z</time></trkpt><trkpt lon="-999.0" lat="-999.0"><ele>0.0</ele><time>2019-09-10T16:09:40.000Z</time></trkpt><trkpt lon="15.5782137" lat="46.5161531"><ele>1073</ele><time>2019-09-10T16:09:41.000Z</time></trkpt><trkpt lon="15.5782137" lat="46.5161531"><ele>1073</ele><time>2019-09-10T16:09:42.000Z</time></trkpt><trkpt lon="15.5782137" lat="46.5161531"><ele>1073</ele><time>2019-09-10T16:09:43.000Z</time></trkpt><trkpt lon="-999.0" lat="-999.0"><ele>0.0</ele><time>2019-09-10T16:09:44.000Z</time></trkpt><trkpt lon="-999.0" lat="-999.0"><ele>0.0</ele><time>2019-09-10T16:09:45.000Z</time></trkpt><trkpt lon="-999.0" lat="-999.0"><ele>0.0</ele><time>2019-09-10T16:09:46.000Z</time></trkpt><trkpt lon="-999.0" lat="-999.0"><ele>0.0</ele><time>2019-09-10T16:09:47.000Z</time></trkpt><trkpt lon="-999.0" lat="-999.0"><ele>0.0</ele><time>2019-09-10T16:09:48.000Z</time></trkpt><trkpt lon="-999.0" lat="-999.0"><ele>0.0</ele><time>2019-09-10T16:09:49.000Z</time></trkpt><trkpt lon="-999.0" lat="-999.0"><ele>0.0</ele><time>2019-09-10T16:09:50.000Z</time></trkpt><trkpt lon="-999.0" lat="-999.0"><ele>0.0</ele><time>2019-09-10T16:09:51.000Z</time></trkpt><trkpt lon="-999.0" lat="-999.0"><ele>0.0</ele><time>2019-09-10T16:09:52.000Z</time></trkpt><trkpt lon="-999.0" lat="-999.0"><ele>0.0</ele><time>2019-09-10T16:09:53.000Z</time></trkpt><trkpt lon="-999.0" lat="-999.0"><ele>0.0</ele><time>2019-09-10T16:09:54.000Z</time></trkpt><trkpt lon="-999.0" lat="-999.0"><ele>0.0</ele><time>2019-09-10T16:09:55.000Z</time></trkpt><trkpt lon="-999.0" lat="-999.0"><ele>0.0</ele><time>2019-09-10T16:09:56.000Z</time></trkpt><trkpt lon="-999.0" lat="-999.0"><ele>0.0</ele><time>2019-09-10T16:09:57.000Z</time></trkpt><trkpt lon="-999.0" lat="-999.0"><ele>0.0</ele><time>2019-09-10T16:09:58.000Z</time></trkpt><trkpt lon="-999.0" lat="-999.0"><ele>0.0</ele><time>2019-09-10T16:09:59.000Z</time></trkpt><trkpt lon="-999.0" lat="-999.0"><ele>0.0</ele><time>2019-09-10T16:10:00.000Z</time></trkpt><trkpt lon="-999.0" lat="-999.0"><ele>0.0</ele><time>2019-09-10T16:10:01.000Z</time></trkpt><trkpt lon="-999.0" lat="-999.0"><ele>0.0</ele><time>2019-09-10T16:10:02.000Z</time></trkpt><trkpt lon="-999.0" lat="-999.0"><ele>0.0</ele><time>2019-09-10T16:10:03.000Z</time></trkpt><trkpt lon="15.5781727" lat="46.5161379"><ele>1072</ele><time>2019-09-10T16:10:04.000Z</time></trkpt><trkpt lon="15.5781727" lat="46.5161379"><ele>1072</ele><time>2019-09-10T16:10:05.000Z</time></trkpt><trkpt lon="15.5781376" lat="46.516119"><ele>1072</ele><time>2019-09-10T16:10:06.000Z</time></trkpt><trkpt lon="15.5781376" lat="46.516119"><ele>1072</ele><time>2019-09-10T16:10:07.000Z</time></trkpt><trkpt lon="15.5780893" lat="46.5160982"><ele>1073</ele><time>2019-09-10T16:10:08.000Z</time></trkpt><trkpt lon="15.5780893" lat="46.5160982"><ele>1073</ele><time>2019-09-10T16:10:09.000Z</time></trkpt><trkpt lon="15.5780336" lat="46.516079"><ele>1073</ele><time>2019-09-10T16:10:10.000Z</time></trkpt><trkpt lon="15.5780336" lat="46.516079"><ele>1073</ele><time>2019-09-10T16:10:11.000Z</time></trkpt><trkpt lon="15.5779652" lat="46.5160528"><ele>1073</ele><time>2019-09-10T16:10:12.000Z</time></trkpt><trkpt lon="15.5779332" lat="46.5160368"><ele>1073</ele><time>2019-09-10T16:10:13.000Z</time></trkpt><trkpt lon="15.5779332" lat="46.5160368"><ele>1073</ele><time>2019-09-10T16:10:14.000Z</time></trkpt><trkpt lon="15.5777975" lat="46.5159565"><ele>1074</ele><time>2019-09-10T16:10:15.000Z</time></trkpt><trkpt lon="15.5777975" lat="46.5159565"><ele>1074</ele><time>2019-09-10T16:10:16.000Z</time></trkpt><trkpt lon="15.5777479" lat="46.5159281"><ele>1074</ele><time>2019-09-10T16:10:17.000Z</time></trkpt><trkpt lon="15.5777189" lat="46.5159094"><ele>1074</ele><time>2019-09-10T16:10:18.000Z</time></trkpt><trkpt lon="15.5777189" lat="46.5159094"><ele>1074</ele><time>2019-09-10T16:10:19.000Z</time></trkpt><trkpt lon="15.5776016" lat="46.515836"><ele>1075</ele><time>2019-09-10T16:10:20.000Z</time></trkpt><trkpt lon="15.5776016" lat="46.515836"><ele>1075</ele><time>2019-09-10T16:10:21.000Z</time></trkpt><trkpt lon="15.5775275" lat="46.5157824"><ele>1076</ele><time>2019-09-10T16:10:22.000Z</time></trkpt><trkpt lon="15.5774913" lat="46.5157543"><ele>1076</ele><time>2019-09-10T16:10:23.000Z</time></trkpt><trkpt lon="15.5774913" lat="46.5157543"><ele>1076</ele><time>2019-09-10T16:10:24.000Z</time></trkpt><trkpt lon="15.5774528" lat="46.5157189"><ele>1077</ele><time>2019-09-10T16:10:25.000Z</time></trkpt><trkpt lon="15.5773999" lat="46.515667"><ele>1077</ele><time>2019-09-10T16:10:26.000Z</time></trkpt><trkpt lon="15.5773999" lat="46.515667"><ele>1077</ele><time>2019-09-10T16:10:27.000Z</time></trkpt><trkpt lon="15.5773644" lat="46.5156187"><ele>1077</ele><time>2019-09-10T16:10:28.000Z</time></trkpt><trkpt lon="15.5773644" lat="46.5156187"><ele>1077</ele><time>2019-09-10T16:10:29.000Z</time></trkpt><trkpt lon="15.5773239" lat="46.51557"><ele>1078</ele><time>2019-09-10T16:10:30.000Z</time></trkpt><trkpt lon="15.5773239" lat="46.51557"><ele>1078</ele><time>2019-09-10T16:10:31.000Z</time></trkpt><trkpt lon="15.5772427" lat="46.5154773"><ele>1079</ele><time>2019-09-10T16:10:32.000Z</time></trkpt><trkpt lon="15.5772149" lat="46.5154453"><ele>1080</ele><time>2019-09-10T16:10:33.000Z</time></trkpt><trkpt lon="15.5772149" lat="46.5154453"><ele>1080</ele><time>2019-09-10T16:10:34.000Z</time></trkpt><trkpt lon="15.5771582" lat="46.5153808"><ele>1081</ele><time>2019-09-10T16:10:35.000Z</time></trkpt><trkpt lon="15.5771324" lat="46.5153479"><ele>1081</ele><time>2019-09-10T16:10:36.000Z</time></trkpt><trkpt lon="15.5771324" lat="46.5153479"><ele>1081</ele><time>2019-09-10T16:10:37.000Z</time></trkpt><trkpt lon="15.5770973" lat="46.5153131"><ele>1082</ele><time>2019-09-10T16:10:38.000Z</time></trkpt><trkpt lon="15.5770973" lat="46.5153131"><ele>1082</ele><time>2019-09-10T16:10:39.000Z</time></trkpt><trkpt lon="15.5770519" lat="46.5152676"><ele>1084</ele><time>2019-09-10T16:10:40.000Z</time></trkpt><trkpt lon="15.5770519" lat="46.5152676"><ele>1084</ele><time>2019-09-10T16:10:41.000Z</time></trkpt><trkpt lon="15.5770154" lat="46.5152276"><ele>1084</ele><time>2019-09-10T16:10:42.000Z</time></trkpt><trkpt lon="15.5769774" lat="46.5151861"><ele>1084</ele><time>2019-09-10T16:10:43.000Z</time></trkpt><trkpt lon="15.5769493" lat="46.5151604"><ele>1085</ele><time>2019-09-10T16:10:44.000Z</time></trkpt><trkpt lon="15.5769493" lat="46.5151604"><ele>1085</ele><time>2019-09-10T16:10:45.000Z</time></trkpt><trkpt lon="15.5768812" lat="46.5151043"><ele>1085</ele><time>2019-09-10T16:10:46.000Z</time></trkpt><trkpt lon="15.5768812" lat="46.5151043"><ele>1085</ele><time>2019-09-10T16:10:47.000Z</time></trkpt><trkpt lon="15.5768385" lat="46.5150685"><ele>1085</ele><time>2019-09-10T16:10:48.000Z</time></trkpt><trkpt lon="15.5768106" lat="46.5150473"><ele>1086</ele><time>2019-09-10T16:10:49.000Z</time></trkpt><trkpt lon="15.5768106" lat="46.5150473"><ele>1086</ele><time>2019-09-10T16:10:50.000Z</time></trkpt><trkpt lon="15.5767399" lat="46.5149876"><ele>1086</ele><time>2019-09-10T16:10:51.000Z</time></trkpt><trkpt lon="15.5767399" lat="46.5149876"><ele>1086</ele><time>2019-09-10T16:10:52.000Z</time></trkpt><trkpt lon="15.5766865" lat="46.5149371"><ele>1087</ele><time>2019-09-10T16:10:53.000Z</time></trkpt><trkpt lon="15.5766865" lat="46.5149371"><ele>1087</ele><time>2019-09-10T16:10:54.000Z</time></trkpt><trkpt lon="15.576649" lat="46.5148923"><ele>1088</ele><time>2019-09-10T16:10:55.000Z</time></trkpt><trkpt lon="15.576649" lat="46.5148923"><ele>1088</ele><time>2019-09-10T16:10:56.000Z</time></trkpt><trkpt lon="15.5765856" lat="46.514826"><ele>1088</ele><time>2019-09-10T16:10:57.000Z</time></trkpt><trkpt lon="15.5765298" lat="46.514769"><ele>1088</ele><time>2019-09-10T16:10:58.000Z</time></trkpt><trkpt lon="15.5765298" lat="46.514769"><ele>1088</ele><time>2019-09-10T16:10:59.000Z</time></trkpt><trkpt lon="15.5764598" lat="46.5147187"><ele>1089</ele><time>2019-09-10T16:11:00.000Z</time></trkpt><trkpt lon="15.5764224" lat="46.514692"><ele>1089</ele><time>2019-09-10T16:11:01.000Z</time></trkpt><trkpt lon="15.5764224" lat="46.514692"><ele>1089</ele><time>2019-09-10T16:11:02.000Z</time></trkpt><trkpt lon="15.5763685" lat="46.5146626"><ele>1089</ele><time>2019-09-10T16:11:03.000Z</time></trkpt><trkpt lon="15.5763685" lat="46.5146626"><ele>1089</ele><time>2019-09-10T16:11:04.000Z</time></trkpt><trkpt lon="15.5763223" lat="46.5146262"><ele>1090</ele><time>2019-09-10T16:11:05.000Z</time></trkpt><trkpt lon="15.5763223" lat="46.5146262"><ele>1090</ele><time>2019-09-10T16:11:06.000Z</time></trkpt><trkpt lon="15.5762114" lat="46.5145509"><ele>1090</ele><time>2019-09-10T16:11:07.000Z</time></trkpt><trkpt lon="15.5761707" lat="46.5145279"><ele>1090</ele><time>2019-09-10T16:11:08.000Z</time></trkpt><trkpt lon="15.5761707" lat="46.5145279"><ele>1090</ele><time>2019-09-10T16:11:09.000Z</time></trkpt><trkpt lon="15.5760908" lat="46.5144807"><ele>1090</ele><time>2019-09-10T16:11:10.000Z</time></trkpt><trkpt lon="15.5760908" lat="46.5144807"><ele>1090</ele><time>2019-09-10T16:11:11.000Z</time></trkpt><trkpt lon="15.5759977" lat="46.5144363"><ele>1090</ele><time>2019-09-10T16:11:12.000Z</time></trkpt><trkpt lon="15.5759519" lat="46.5144161"><ele>1090</ele><time>2019-09-10T16:11:13.000Z</time></trkpt><trkpt lon="15.5759519" lat="46.5144161"><ele>1090</ele><time>2019-09-10T16:11:14.000Z</time></trkpt><trkpt lon="15.5758564" lat="46.5143733"><ele>1090</ele><time>2019-09-10T16:11:15.000Z</time></trkpt><trkpt lon="15.5758096" lat="46.5143491"><ele>1090</ele><time>2019-09-10T16:11:16.000Z</time></trkpt><trkpt lon="15.5758096" lat="46.5143491"><ele>1090</ele><time>2019-09-10T16:11:17.000Z</time></trkpt><trkpt lon="15.5757256" lat="46.5142964"><ele>1090</ele><time>2019-09-10T16:11:18.000Z</time></trkpt><trkpt lon="15.5757256" lat="46.5142964"><ele>1090</ele><time>2019-09-10T16:11:19.000Z</time></trkpt><trkpt lon="15.5756796" lat="46.5142694"><ele>1091</ele><time>2019-09-10T16:11:20.000Z</time></trkpt><trkpt lon="15.5756796" lat="46.5142694"><ele>1091</ele><time>2019-09-10T16:11:21.000Z</time></trkpt><trkpt lon="15.5755663" lat="46.5142067"><ele>1091</ele><time>2019-09-10T16:11:22.000Z</time></trkpt><trkpt lon="15.5755232" lat="46.5141799"><ele>1091</ele><time>2019-09-10T16:11:23.000Z</time></trkpt><trkpt lon="15.5755232" lat="46.5141799"><ele>1091</ele><time>2019-09-10T16:11:24.000Z</time></trkpt><trkpt lon="15.5754455" lat="46.5141223"><ele>1091</ele><time>2019-09-10T16:11:25.000Z</time></trkpt><trkpt lon="15.5754455" lat="46.5141223"><ele>1091</ele><time>2019-09-10T16:11:26.000Z</time></trkpt><trkpt lon="15.575355" lat="46.5140561"><ele>1090</ele><time>2019-09-10T16:11:27.000Z</time></trkpt><trkpt lon="15.575308" lat="46.5140212"><ele>1090</ele><time>2019-09-10T16:11:28.000Z</time></trkpt><trkpt lon="15.575308" lat="46.5140212"><ele>1090</ele><time>2019-09-10T16:11:29.000Z</time></trkpt><trkpt lon="15.5752007" lat="46.5139487"><ele>1090</ele><time>2019-09-10T16:11:30.000Z</time></trkpt><trkpt lon="15.5751398" lat="46.5139125"><ele>1090</ele><time>2019-09-10T16:11:31.000Z</time></trkpt><trkpt lon="15.5750744" lat="46.5138764"><ele>1090</ele><time>2019-09-10T16:11:32.000Z</time></trkpt><trkpt lon="15.5750744" lat="46.5138764"><ele>1090</ele><time>2019-09-10T16:11:33.000Z</time></trkpt><trkpt lon="15.574941" lat="46.5138097"><ele>1090</ele><time>2019-09-10T16:11:34.000Z</time></trkpt><trkpt lon="15.5748763" lat="46.51378"><ele>1090</ele><time>2019-09-10T16:11:35.000Z</time></trkpt><trkpt lon="15.5748127" lat="46.5137515"><ele>1090</ele><time>2019-09-10T16:11:36.000Z</time></trkpt><trkpt lon="15.574752" lat="46.5137207"><ele>1090</ele><time>2019-09-10T16:11:37.000Z</time></trkpt><trkpt lon="15.574752" lat="46.5137207"><ele>1090</ele><time>2019-09-10T16:11:38.000Z</time></trkpt><trkpt lon="15.5746398" lat="46.5136581"><ele>1090</ele><time>2019-09-10T16:11:39.000Z</time></trkpt><trkpt lon="15.5746398" lat="46.5136581"><ele>1090</ele><time>2019-09-10T16:11:40.000Z</time></trkpt><trkpt lon="15.5745221" lat="46.5135974"><ele>1091</ele><time>2019-09-10T16:11:41.000Z</time></trkpt><trkpt lon="15.5745221" lat="46.5135974"><ele>1091</ele><time>2019-09-10T16:11:42.000Z</time></trkpt><trkpt lon="15.5744283" lat="46.5135333"><ele>1092</ele><time>2019-09-10T16:11:43.000Z</time></trkpt><trkpt lon="15.5744283" lat="46.5135333"><ele>1092</ele><time>2019-09-10T16:11:44.000Z</time></trkpt><trkpt lon="15.5743378" lat="46.5134707"><ele>1092</ele><time>2019-09-10T16:11:45.000Z</time></trkpt><trkpt lon="15.5743378" lat="46.5134707"><ele>1092</ele><time>2019-09-10T16:11:46.000Z</time></trkpt><trkpt lon="15.574251" lat="46.5134006"><ele>1093</ele><time>2019-09-10T16:11:47.000Z</time></trkpt><trkpt lon="15.5742071" lat="46.5133639"><ele>1093</ele><time>2019-09-10T16:11:48.000Z</time></trkpt><trkpt lon="15.5742071" lat="46.5133639"><ele>1093</ele><time>2019-09-10T16:11:49.000Z</time></trkpt><trkpt lon="15.5741341" lat="46.5132802"><ele>1093</ele><time>2019-09-10T16:11:50.000Z</time></trkpt><trkpt lon="15.5741341" lat="46.5132802"><ele>1093</ele><time>2019-09-10T16:11:51.000Z</time></trkpt><trkpt lon="15.5740489" lat="46.5131939"><ele>1093</ele><time>2019-09-10T16:11:52.000Z</time></trkpt><trkpt lon="15.5739959" lat="46.5131485"><ele>1093</ele><time>2019-09-10T16:11:53.000Z</time></trkpt><trkpt lon="15.5739959" lat="46.5131485"><ele>1093</ele><time>2019-09-10T16:11:54.000Z</time></trkpt><trkpt lon="15.5738907" lat="46.513063"><ele>1093</ele><time>2019-09-10T16:11:55.000Z</time></trkpt><trkpt lon="15.5738907" lat="46.513063"><ele>1093</ele><time>2019-09-10T16:11:56.000Z</time></trkpt><trkpt lon="15.5737827" lat="46.5129625"><ele>1094</ele><time>2019-09-10T16:11:57.000Z</time></trkpt><trkpt lon="15.5737827" lat="46.5129625"><ele>1094</ele><time>2019-09-10T16:11:58.000Z</time></trkpt><trkpt lon="15.5736422" lat="46.5128607"><ele>1092</ele><time>2019-09-10T16:11:59.000Z</time></trkpt><trkpt lon="15.5735678" lat="46.5128078"><ele>1092</ele><time>2019-09-10T16:12:00.000Z</time></trkpt><trkpt lon="15.5735678" lat="46.5128078"><ele>1092</ele><time>2019-09-10T16:12:01.000Z</time></trkpt><trkpt lon="15.5734127" lat="46.512719"><ele>1091</ele><time>2019-09-10T16:12:02.000Z</time></trkpt><trkpt lon="15.5734127" lat="46.512719"><ele>1091</ele><time>2019-09-10T16:12:03.000Z</time></trkpt><trkpt lon="15.5732439" lat="46.5126267"><ele>1091</ele><time>2019-09-10T16:12:04.000Z</time></trkpt><trkpt lon="15.5731515" lat="46.5125818"><ele>1090</ele><time>2019-09-10T16:12:05.000Z</time></trkpt><trkpt lon="15.5731515" lat="46.5125818"><ele>1090</ele><time>2019-09-10T16:12:06.000Z</time></trkpt><trkpt lon="15.5729698" lat="46.5124998"><ele>1089</ele><time>2019-09-10T16:12:07.000Z</time></trkpt><trkpt lon="15.5729698" lat="46.5124998"><ele>1089</ele><time>2019-09-10T16:12:08.000Z</time></trkpt><trkpt lon="15.572771" lat="46.5124171"><ele>1087</ele><time>2019-09-10T16:12:09.000Z</time></trkpt><trkpt lon="15.5726799" lat="46.5123788"><ele>1088</ele><time>2019-09-10T16:12:10.000Z</time></trkpt><trkpt lon="15.5726799" lat="46.5123788"><ele>1088</ele><time>2019-09-10T16:12:11.000Z</time></trkpt><trkpt lon="15.5724977" lat="46.5123088"><ele>1087</ele><time>2019-09-10T16:12:12.000Z</time></trkpt><trkpt lon="15.5724108" lat="46.5122762"><ele>1087</ele><time>2019-09-10T16:12:13.000Z</time></trkpt><trkpt lon="15.5723196" lat="46.5122463"><ele>1087</ele><time>2019-09-10T16:12:14.000Z</time></trkpt><trkpt lon="15.5723196" lat="46.5122463"><ele>1087</ele><time>2019-09-10T16:12:15.000Z</time></trkpt><trkpt lon="15.5721498" lat="46.5121779"><ele>1087</ele><time>2019-09-10T16:12:16.000Z</time></trkpt><trkpt lon="15.5721498" lat="46.5121779"><ele>1087</ele><time>2019-09-10T16:12:17.000Z</time></trkpt><trkpt lon="15.5719884" lat="46.5121147"><ele>1087</ele><time>2019-09-10T16:12:18.000Z</time></trkpt><trkpt lon="15.5719115" lat="46.5120768"><ele>1087</ele><time>2019-09-10T16:12:19.000Z</time></trkpt><trkpt lon="15.5719115" lat="46.5120768"><ele>1087</ele><time>2019-09-10T16:12:20.000Z</time></trkpt><trkpt lon="15.5717551" lat="46.5120126"><ele>1088</ele><time>2019-09-10T16:12:21.000Z</time></trkpt><trkpt lon="15.5717551" lat="46.5120126"><ele>1088</ele><time>2019-09-10T16:12:22.000Z</time></trkpt><trkpt lon="15.5715972" lat="46.5119477"><ele>1088</ele><time>2019-09-10T16:12:23.000Z</time></trkpt><trkpt lon="15.5715186" lat="46.5119139"><ele>1088</ele><time>2019-09-10T16:12:24.000Z</time></trkpt><trkpt lon="15.5714356" lat="46.5118847"><ele>1089</ele><time>2019-09-10T16:12:25.000Z</time></trkpt><trkpt lon="15.5714356" lat="46.5118847"><ele>1089</ele><time>2019-09-10T16:12:26.000Z</time></trkpt><trkpt lon="15.5712679" lat="46.5118304"><ele>1089</ele><time>2019-09-10T16:12:27.000Z</time></trkpt><trkpt lon="15.5712679" lat="46.5118304"><ele>1089</ele><time>2019-09-10T16:12:28.000Z</time></trkpt><trkpt lon="15.5710972" lat="46.5117875"><ele>1090</ele><time>2019-09-10T16:12:29.000Z</time></trkpt><trkpt lon="15.5710092" lat="46.5117714"><ele>1090</ele><time>2019-09-10T16:12:30.000Z</time></trkpt><trkpt lon="15.5709217" lat="46.5117574"><ele>1091</ele><time>2019-09-10T16:12:31.000Z</time></trkpt><trkpt lon="15.5709217" lat="46.5117574"><ele>1091</ele><time>2019-09-10T16:12:32.000Z</time></trkpt><trkpt lon="15.5707536" lat="46.5117278"><ele>1091</ele><time>2019-09-10T16:12:33.000Z</time></trkpt><trkpt lon="15.5707536" lat="46.5117278"><ele>1091</ele><time>2019-09-10T16:12:34.000Z</time></trkpt><trkpt lon="15.5705931" lat="46.5117019"><ele>1092</ele><time>2019-09-10T16:12:35.000Z</time></trkpt><trkpt lon="15.5705931" lat="46.5117019"><ele>1092</ele><time>2019-09-10T16:12:36.000Z</time></trkpt><trkpt lon="15.5704284" lat="46.5116778"><ele>1092</ele><time>2019-09-10T16:12:37.000Z</time></trkpt><trkpt lon="15.5703479" lat="46.5116659"><ele>1092</ele><time>2019-09-10T16:12:38.000Z</time></trkpt><trkpt lon="15.5702666" lat="46.5116532"><ele>1092</ele><time>2019-09-10T16:12:39.000Z</time></trkpt><trkpt lon="15.5702666" lat="46.5116532"><ele>1092</ele><time>2019-09-10T16:12:40.000Z</time></trkpt><trkpt lon="15.5701046" lat="46.5116271"><ele>1093</ele><time>2019-09-10T16:12:41.000Z</time></trkpt><trkpt lon="15.5700222" lat="46.5116139"><ele>1093</ele><time>2019-09-10T16:12:42.000Z</time></trkpt><trkpt lon="15.5700222" lat="46.5116139"><ele>1093</ele><time>2019-09-10T16:12:43.000Z</time></trkpt><trkpt lon="15.5698628" lat="46.5115879"><ele>1093</ele><time>2019-09-10T16:12:44.000Z</time></trkpt><trkpt lon="15.5697849" lat="46.5115756"><ele>1093</ele><time>2019-09-10T16:12:45.000Z</time></trkpt><trkpt lon="15.5697849" lat="46.5115756"><ele>1093</ele><time>2019-09-10T16:12:46.000Z</time></trkpt><trkpt lon="15.569631" lat="46.5115444"><ele>1093</ele><time>2019-09-10T16:12:47.000Z</time></trkpt><trkpt lon="15.5695558" lat="46.5115284"><ele>1093</ele><time>2019-09-10T16:12:48.000Z</time></trkpt><trkpt lon="15.5695558" lat="46.5115284"><ele>1093</ele><time>2019-09-10T16:12:49.000Z</time></trkpt><trkpt lon="15.5694124" lat="46.5114826"><ele>1093</ele><time>2019-09-10T16:12:50.000Z</time></trkpt><trkpt lon="15.5694124" lat="46.5114826"><ele>1093</ele><time>2019-09-10T16:12:51.000Z</time></trkpt><trkpt lon="15.5692887" lat="46.5114096"><ele>1094</ele><time>2019-09-10T16:12:52.000Z</time></trkpt><trkpt lon="15.5692887" lat="46.5114096"><ele>1094</ele><time>2019-09-10T16:12:53.000Z</time></trkpt><trkpt lon="15.5691737" lat="46.5113302"><ele>1094</ele><time>2019-09-10T16:12:54.000Z</time></trkpt><trkpt lon="15.5691737" lat="46.5113302"><ele>1094</ele><time>2019-09-10T16:12:55.000Z</time></trkpt><trkpt lon="15.5690942" lat="46.5112309"><ele>1094</ele><time>2019-09-10T16:12:56.000Z</time></trkpt><trkpt lon="15.5690597" lat="46.5111784"><ele>1094</ele><time>2019-09-10T16:12:57.000Z</time></trkpt><trkpt lon="15.5690362" lat="46.5111208"><ele>1093</ele><time>2019-09-10T16:12:58.000Z</time></trkpt><trkpt lon="15.5690151" lat="46.5110633"><ele>1093</ele><time>2019-09-10T16:12:59.000Z</time></trkpt><trkpt lon="15.5690151" lat="46.5110633"><ele>1093</ele><time>2019-09-10T16:13:00.000Z</time></trkpt><trkpt lon="15.568966" lat="46.5109481"><ele>1094</ele><time>2019-09-10T16:13:01.000Z</time></trkpt><trkpt lon="15.568966" lat="46.5109481"><ele>1094</ele><time>2019-09-10T16:13:02.000Z</time></trkpt><trkpt lon="15.5689263" lat="46.5108307"><ele>1094</ele><time>2019-09-10T16:13:03.000Z</time></trkpt><trkpt lon="15.5689058" lat="46.5107709"><ele>1094</ele><time>2019-09-10T16:13:04.000Z</time></trkpt><trkpt lon="15.5689058" lat="46.5107709"><ele>1094</ele><time>2019-09-10T16:13:05.000Z</time></trkpt><trkpt lon="15.5688575" lat="46.5106526"><ele>1094</ele><time>2019-09-10T16:13:06.000Z</time></trkpt><trkpt lon="15.5688575" lat="46.5106526"><ele>1094</ele><time>2019-09-10T16:13:07.000Z</time></trkpt><trkpt lon="15.5688065" lat="46.5105308"><ele>1094</ele><time>2019-09-10T16:13:08.000Z</time></trkpt><trkpt lon="15.5688065" lat="46.5105308"><ele>1094</ele><time>2019-09-10T16:13:09.000Z</time></trkpt><trkpt lon="15.5687625" lat="46.5104109"><ele>1093</ele><time>2019-09-10T16:13:10.000Z</time></trkpt><trkpt lon="15.5687156" lat="46.5103514"><ele>1093</ele><time>2019-09-10T16:13:11.000Z</time></trkpt><trkpt lon="15.5686816" lat="46.5102893"><ele>1093</ele><time>2019-09-10T16:13:12.000Z</time></trkpt><trkpt lon="15.5686816" lat="46.5102893"><ele>1093</ele><time>2019-09-10T16:13:13.000Z</time></trkpt><trkpt lon="15.5686031" lat="46.5101719"><ele>1094</ele><time>2019-09-10T16:13:14.000Z</time></trkpt><trkpt lon="15.5685646" lat="46.5101158"><ele>1094</ele><time>2019-09-10T16:13:15.000Z</time></trkpt><trkpt lon="15.568512" lat="46.5100629"><ele>1093</ele><time>2019-09-10T16:13:16.000Z</time></trkpt><trkpt lon="15.568512" lat="46.5100629"><ele>1093</ele><time>2019-09-10T16:13:17.000Z</time></trkpt><trkpt lon="15.5684045" lat="46.5099642"><ele>1094</ele><time>2019-09-10T16:13:18.000Z</time></trkpt><trkpt lon="15.5684045" lat="46.5099642"><ele>1094</ele><time>2019-09-10T16:13:19.000Z</time></trkpt><trkpt lon="15.5682799" lat="46.5098712"><ele>1093</ele><time>2019-09-10T16:13:20.000Z</time></trkpt><trkpt lon="15.5682131" lat="46.5098268"><ele>1093</ele><time>2019-09-10T16:13:21.000Z</time></trkpt><trkpt lon="15.5682131" lat="46.5098268"><ele>1093</ele><time>2019-09-10T16:13:22.000Z</time></trkpt><trkpt lon="15.5680528" lat="46.5097544"><ele>1093</ele><time>2019-09-10T16:13:23.000Z</time></trkpt><trkpt lon="15.5679679" lat="46.5097237"><ele>1093</ele><time>2019-09-10T16:13:24.000Z</time></trkpt><trkpt lon="15.5679679" lat="46.5097237"><ele>1093</ele><time>2019-09-10T16:13:25.000Z</time></trkpt><trkpt lon="15.5677775" lat="46.5096933"><ele>1093</ele><time>2019-09-10T16:13:26.000Z</time></trkpt><trkpt lon="15.5677775" lat="46.5096933"><ele>1093</ele><time>2019-09-10T16:13:27.000Z</time></trkpt><trkpt lon="15.5675875" lat="46.5096761"><ele>1092</ele><time>2019-09-10T16:13:28.000Z</time></trkpt><trkpt lon="15.5674969" lat="46.5096647"><ele>1092</ele><time>2019-09-10T16:13:29.000Z</time></trkpt><trkpt lon="15.5674046" lat="46.5096572"><ele>1092</ele><time>2019-09-10T16:13:30.000Z</time></trkpt><trkpt lon="15.5673114" lat="46.5096512"><ele>1091</ele><time>2019-09-10T16:13:31.000Z</time></trkpt><trkpt lon="15.5672174" lat="46.5096379"><ele>1091</ele><time>2019-09-10T16:13:32.000Z</time></trkpt><trkpt lon="15.5672174" lat="46.5096379"><ele>1091</ele><time>2019-09-10T16:13:33.000Z</time></trkpt><trkpt lon="15.5670424" lat="46.5095924"><ele>1091</ele><time>2019-09-10T16:13:34.000Z</time></trkpt><trkpt lon="15.5670424" lat="46.5095924"><ele>1091</ele><time>2019-09-10T16:13:35.000Z</time></trkpt><trkpt lon="15.5668979" lat="46.5095253"><ele>1091</ele><time>2019-09-10T16:13:36.000Z</time></trkpt><trkpt lon="15.5668979" lat="46.5095253"><ele>1091</ele><time>2019-09-10T16:13:37.000Z</time></trkpt><trkpt lon="15.5667963" lat="46.5094236"><ele>1091</ele><time>2019-09-10T16:13:38.000Z</time></trkpt><trkpt lon="15.5667963" lat="46.5094236"><ele>1091</ele><time>2019-09-10T16:13:39.000Z</time></trkpt><trkpt lon="15.5667483" lat="46.5093134"><ele>1091</ele><time>2019-09-10T16:13:40.000Z</time></trkpt><trkpt lon="15.5667483" lat="46.5093134"><ele>1091</ele><time>2019-09-10T16:13:41.000Z</time></trkpt><trkpt lon="15.566696" lat="46.5092069"><ele>1091</ele><time>2019-09-10T16:13:42.000Z</time></trkpt><trkpt lon="15.5666736" lat="46.5091509"><ele>1092</ele><time>2019-09-10T16:13:43.000Z</time></trkpt><trkpt lon="15.5666561" lat="46.5090904"><ele>1091</ele><time>2019-09-10T16:13:44.000Z</time></trkpt><trkpt lon="15.5666561" lat="46.5090904"><ele>1091</ele><time>2019-09-10T16:13:45.000Z</time></trkpt><trkpt lon="15.5666138" lat="46.508975"><ele>1091</ele><time>2019-09-10T16:13:46.000Z</time></trkpt><trkpt lon="15.5666138" lat="46.508975"><ele>1091</ele><time>2019-09-10T16:13:47.000Z</time></trkpt><trkpt lon="15.5665566" lat="46.5088458"><ele>1091</ele><time>2019-09-10T16:13:48.000Z</time></trkpt><trkpt lon="15.5665265" lat="46.5087855"><ele>1091</ele><time>2019-09-10T16:13:49.000Z</time></trkpt><trkpt lon="15.5665265" lat="46.5087855"><ele>1091</ele><time>2019-09-10T16:13:50.000Z</time></trkpt><trkpt lon="15.5664625" lat="46.5086539"><ele>1091</ele><time>2019-09-10T16:13:51.000Z</time></trkpt><trkpt lon="15.5664334" lat="46.5085916"><ele>1091</ele><time>2019-09-10T16:13:52.000Z</time></trkpt><trkpt lon="15.5664334" lat="46.5085916"><ele>1091</ele><time>2019-09-10T16:13:53.000Z</time></trkpt><trkpt lon="15.5663705" lat="46.5084554"><ele>1090</ele><time>2019-09-10T16:13:54.000Z</time></trkpt><trkpt lon="15.5663705" lat="46.5084554"><ele>1090</ele><time>2019-09-10T16:13:55.000Z</time></trkpt><trkpt lon="15.5663028" lat="46.5083157"><ele>1090</ele><time>2019-09-10T16:13:56.000Z</time></trkpt><trkpt lon="15.5663028" lat="46.5083157"><ele>1090</ele><time>2019-09-10T16:13:57.000Z</time></trkpt><trkpt lon="15.5661857" lat="46.5081846"><ele>1089</ele><time>2019-09-10T16:13:58.000Z</time></trkpt><trkpt lon="15.5661857" lat="46.5081846"><ele>1089</ele><time>2019-09-10T16:13:59.000Z</time></trkpt><trkpt lon="15.5660319" lat="46.508057"><ele>1088</ele><time>2019-09-10T16:14:00.000Z</time></trkpt><trkpt lon="15.5660319" lat="46.508057"><ele>1088</ele><time>2019-09-10T16:14:01.000Z</time></trkpt><trkpt lon="15.5658582" lat="46.5079173"><ele>1087</ele><time>2019-09-10T16:14:02.000Z</time></trkpt><trkpt lon="15.5658582" lat="46.5079173"><ele>1087</ele><time>2019-09-10T16:14:03.000Z</time></trkpt><trkpt lon="15.5656979" lat="46.5077706"><ele>1087</ele><time>2019-09-10T16:14:04.000Z</time></trkpt><trkpt lon="15.5656528" lat="46.507688"><ele>1086</ele><time>2019-09-10T16:14:05.000Z</time></trkpt><trkpt lon="15.5656528" lat="46.507688"><ele>1086</ele><time>2019-09-10T16:14:06.000Z</time></trkpt><trkpt lon="15.5656461" lat="46.5075014"><ele>1085</ele><time>2019-09-10T16:14:07.000Z</time></trkpt><trkpt lon="15.5656771" lat="46.5073832"><ele>1084</ele><time>2019-09-10T16:14:08.000Z</time></trkpt><trkpt lon="15.5656771" lat="46.5073832"><ele>1084</ele><time>2019-09-10T16:14:09.000Z</time></trkpt><trkpt lon="15.5656566" lat="46.5071491"><ele>1081</ele><time>2019-09-10T16:14:10.000Z</time></trkpt><trkpt lon="15.5656559" lat="46.5070271"><ele>1080</ele><time>2019-09-10T16:14:11.000Z</time></trkpt><trkpt lon="15.5656559" lat="46.5070271"><ele>1080</ele><time>2019-09-10T16:14:12.000Z</time></trkpt><trkpt lon="15.5655296" lat="46.5068152"><ele>1076</ele><time>2019-09-10T16:14:13.000Z</time></trkpt><trkpt lon="15.5654506" lat="46.5067169"><ele>1075</ele><time>2019-09-10T16:14:14.000Z</time></trkpt><trkpt lon="15.5654506" lat="46.5067169"><ele>1075</ele><time>2019-09-10T16:14:15.000Z</time></trkpt><trkpt lon="15.5652631" lat="46.5065045"><ele>1075</ele><time>2019-09-10T16:14:16.000Z</time></trkpt><trkpt lon="15.5652631" lat="46.5065045"><ele>1075</ele><time>2019-09-10T16:14:17.000Z</time></trkpt><trkpt lon="15.5650332" lat="46.5063383"><ele>1074</ele><time>2019-09-10T16:14:18.000Z</time></trkpt><trkpt lon="15.5649103" lat="46.5062568"><ele>1074</ele><time>2019-09-10T16:14:19.000Z</time></trkpt><trkpt lon="15.5648003" lat="46.506175"><ele>1074</ele><time>2019-09-10T16:14:20.000Z</time></trkpt><trkpt lon="15.5648003" lat="46.506175"><ele>1074</ele><time>2019-09-10T16:14:21.000Z</time></trkpt><trkpt lon="15.5645647" lat="46.5060308"><ele>1074</ele><time>2019-09-10T16:14:22.000Z</time></trkpt><trkpt lon="15.5644694" lat="46.5059564"><ele>1074</ele><time>2019-09-10T16:14:23.000Z</time></trkpt><trkpt lon="15.5643964" lat="46.5058803"><ele>1073</ele><time>2019-09-10T16:14:24.000Z</time></trkpt><trkpt lon="15.5643964" lat="46.5058803"><ele>1073</ele><time>2019-09-10T16:14:25.000Z</time></trkpt><trkpt lon="15.564281" lat="46.5057267"><ele>1073</ele><time>2019-09-10T16:14:26.000Z</time></trkpt><trkpt lon="15.564281" lat="46.5057267"><ele>1073</ele><time>2019-09-10T16:14:27.000Z</time></trkpt><trkpt lon="15.5641872" lat="46.5056048"><ele>1073</ele><time>2019-09-10T16:14:28.000Z</time></trkpt><trkpt lon="15.5641422" lat="46.5055577"><ele>1073</ele><time>2019-09-10T16:14:29.000Z</time></trkpt><trkpt lon="15.5641422" lat="46.5055577"><ele>1073</ele><time>2019-09-10T16:14:30.000Z</time></trkpt><trkpt lon="15.5640543" lat="46.5054816"><ele>1074</ele><time>2019-09-10T16:14:31.000Z</time></trkpt><trkpt lon="15.5640543" lat="46.5054816"><ele>1074</ele><time>2019-09-10T16:14:32.000Z</time></trkpt><trkpt lon="15.564" lat="46.5054433"><ele>1075</ele><time>2019-09-10T16:14:33.000Z</time></trkpt><trkpt lon="15.564" lat="46.5054433"><ele>1075</ele><time>2019-09-10T16:14:34.000Z</time></trkpt><trkpt lon="15.5639762" lat="46.5054187"><ele>1075</ele><time>2019-09-10T16:14:35.000Z</time></trkpt><trkpt lon="15.5639762" lat="46.5054187"><ele>1075</ele><time>2019-09-10T16:14:36.000Z</time></trkpt><trkpt lon="15.5639762" lat="46.5054187"><ele>1075</ele><time>2019-09-10T16:14:37.000Z</time></trkpt><trkpt lon="-999.0" lat="-999.0"><ele>0.0</ele><time>2019-09-10T16:14:38.000Z</time></trkpt><trkpt lon="15.5639393" lat="46.5054005"><ele>1075</ele><time>2019-09-10T16:14:39.000Z</time></trkpt><trkpt lon="15.5639393" lat="46.5054005"><ele>1075</ele><time>2019-09-10T16:14:40.000Z</time></trkpt><trkpt lon="15.5639393" lat="46.5054005"><ele>1075</ele><time>2019-09-10T16:14:41.000Z</time></trkpt><trkpt lon="15.5639393" lat="46.5054005"><ele>1075</ele><time>2019-09-10T16:14:42.000Z</time></trkpt><trkpt lon="-999.0" lat="-999.0"><ele>0.0</ele><time>2019-09-10T16:14:43.000Z</time></trkpt><trkpt lon="-999.0" lat="-999.0"><ele>0.0</ele><time>2019-09-10T16:14:44.000Z</time></trkpt><trkpt lon="-999.0" lat="-999.0"><ele>0.0</ele><time>2019-09-10T16:14:45.000Z</time></trkpt><trkpt lon="-999.0" lat="-999.0"><ele>0.0</ele><time>2019-09-10T16:14:46.000Z</time></trkpt><trkpt lon="-999.0" lat="-999.0"><ele>0.0</ele><time>2019-09-10T16:14:47.000Z</time></trkpt><trkpt lon="-999.0" lat="-999.0"><ele>0.0</ele><time>2019-09-10T16:14:48.000Z</time></trkpt><trkpt lon="-999.0" lat="-999.0"><ele>0.0</ele><time>2019-09-10T16:14:49.000Z</time></trkpt><trkpt lon="-999.0" lat="-999.0"><ele>0.0</ele><time>2019-09-10T16:14:50.000Z</time></trkpt><trkpt lon="-999.0" lat="-999.0"><ele>0.0</ele><time>2019-09-10T16:14:51.000Z</time></trkpt><trkpt lon="-999.0" lat="-999.0"><ele>0.0</ele><time>2019-09-10T16:14:52.000Z</time></trkpt><trkpt lon="-999.0" lat="-999.0"><ele>0.0</ele><time>2019-09-10T16:14:53.000Z</time></trkpt><trkpt lon="-999.0" lat="-999.0"><ele>0.0</ele><time>2019-09-10T16:14:54.000Z</time></trkpt><trkpt lon="-999.0" lat="-999.0"><ele>0.0</ele><time>2019-09-10T16:14:55.000Z</time></trkpt><trkpt lon="-999.0" lat="-999.0"><ele>0.0</ele><time>2019-09-10T16:14:56.000Z</time></trkpt><trkpt lon="-999.0" lat="-999.0"><ele>0.0</ele><time>2019-09-10T16:14:57.000Z</time></trkpt><trkpt lon="-999.0" lat="-999.0"><ele>0.0</ele><time>2019-09-10T16:14:58.000Z</time></trkpt><trkpt lon="-999.0" lat="-999.0"><ele>0.0</ele><time>2019-09-10T16:14:59.000Z</time></trkpt><trkpt lon="-999.0" lat="-999.0"><ele>0.0</ele><time>2019-09-10T16:15:00.000Z</time></trkpt><trkpt lon="-999.0" lat="-999.0"><ele>0.0</ele><time>2019-09-10T16:15:01.000Z</time></trkpt><trkpt lon="15.5638943" lat="46.5053873"><ele>1075</ele><time>2019-09-10T16:15:02.000Z</time></trkpt><trkpt lon="15.5638943" lat="46.5053873"><ele>1075</ele><time>2019-09-10T16:15:03.000Z</time></trkpt><trkpt lon="15.5638431" lat="46.5053694"><ele>1075</ele><time>2019-09-10T16:15:04.000Z</time></trkpt><trkpt lon="15.5638431" lat="46.5053694"><ele>1075</ele><time>2019-09-10T16:15:05.000Z</time></trkpt><trkpt lon="15.5637533" lat="46.5053356"><ele>1076</ele><time>2019-09-10T16:15:06.000Z</time></trkpt><trkpt lon="15.5637533" lat="46.5053356"><ele>1076</ele><time>2019-09-10T16:15:07.000Z</time></trkpt><trkpt lon="15.5636009" lat="46.5052815"><ele>1076</ele><time>2019-09-10T16:15:08.000Z</time></trkpt><trkpt lon="15.5635504" lat="46.5052559"><ele>1076</ele><time>2019-09-10T16:15:09.000Z</time></trkpt><trkpt lon="15.5635504" lat="46.5052559"><ele>1076</ele><time>2019-09-10T16:15:10.000Z</time></trkpt><trkpt lon="15.5634305" lat="46.505226"><ele>1078</ele><time>2019-09-10T16:15:11.000Z</time></trkpt><trkpt lon="15.5633611" lat="46.5052081"><ele>1078</ele><time>2019-09-10T16:15:12.000Z</time></trkpt><trkpt lon="15.5633611" lat="46.5052081"><ele>1078</ele><time>2019-09-10T16:15:13.000Z</time></trkpt><trkpt lon="15.563212" lat="46.5051581"><ele>1078</ele><time>2019-09-10T16:15:14.000Z</time></trkpt><trkpt lon="15.563212" lat="46.5051581"><ele>1078</ele><time>2019-09-10T16:15:15.000Z</time></trkpt><trkpt lon="15.5630307" lat="46.5051038"><ele>1078</ele><time>2019-09-10T16:15:16.000Z</time></trkpt><trkpt lon="15.5630307" lat="46.5051038"><ele>1078</ele><time>2019-09-10T16:15:17.000Z</time></trkpt><trkpt lon="15.5628437" lat="46.5050368"><ele>1079</ele><time>2019-09-10T16:15:18.000Z</time></trkpt><trkpt lon="15.5628437" lat="46.5050368"><ele>1079</ele><time>2019-09-10T16:15:19.000Z</time></trkpt><trkpt lon="15.5626803" lat="46.50494"><ele>1078</ele><time>2019-09-10T16:15:20.000Z</time></trkpt><trkpt lon="15.5626068" lat="46.5048826"><ele>1078</ele><time>2019-09-10T16:15:21.000Z</time></trkpt><trkpt lon="15.5626068" lat="46.5048826"><ele>1078</ele><time>2019-09-10T16:15:22.000Z</time></trkpt><trkpt lon="15.5624618" lat="46.5047603"><ele>1078</ele><time>2019-09-10T16:15:23.000Z</time></trkpt><trkpt lon="15.5624618" lat="46.5047603"><ele>1078</ele><time>2019-09-10T16:15:24.000Z</time></trkpt><trkpt lon="15.5623294" lat="46.5046107"><ele>1076</ele><time>2019-09-10T16:15:25.000Z</time></trkpt><trkpt lon="15.5623294" lat="46.5046107"><ele>1076</ele><time>2019-09-10T16:15:26.000Z</time></trkpt><trkpt lon="15.5621775" lat="46.5044549"><ele>1075</ele><time>2019-09-10T16:15:27.000Z</time></trkpt><trkpt lon="15.5620953" lat="46.5043597"><ele>1075</ele><time>2019-09-10T16:15:28.000Z</time></trkpt><trkpt lon="15.562018" lat="46.5042656"><ele>1074</ele><time>2019-09-10T16:15:29.000Z</time></trkpt><trkpt lon="15.562018" lat="46.5042656"><ele>1074</ele><time>2019-09-10T16:15:30.000Z</time></trkpt><trkpt lon="15.561888" lat="46.5040578"><ele>1073</ele><time>2019-09-10T16:15:31.000Z</time></trkpt><trkpt lon="15.561844" lat="46.5039451"><ele>1072</ele><time>2019-09-10T16:15:32.000Z</time></trkpt><trkpt lon="15.5618142" lat="46.5038305"><ele>1071</ele><time>2019-09-10T16:15:33.000Z</time></trkpt><trkpt lon="15.5617952" lat="46.5037142"><ele>1069</ele><time>2019-09-10T16:15:34.000Z</time></trkpt><trkpt lon="15.5617952" lat="46.5037142"><ele>1069</ele><time>2019-09-10T16:15:35.000Z</time></trkpt><trkpt lon="15.5617882" lat="46.5034834"><ele>1068</ele><time>2019-09-10T16:15:36.000Z</time></trkpt><trkpt lon="15.5617882" lat="46.5034834"><ele>1068</ele><time>2019-09-10T16:15:37.000Z</time></trkpt><trkpt lon="15.5618787" lat="46.5032446"><ele>1067</ele><time>2019-09-10T16:15:38.000Z</time></trkpt><trkpt lon="15.5619531" lat="46.5031152"><ele>1066</ele><time>2019-09-10T16:15:39.000Z</time></trkpt><trkpt lon="15.5619531" lat="46.5031152"><ele>1066</ele><time>2019-09-10T16:15:40.000Z</time></trkpt><trkpt lon="15.5620579" lat="46.5028501"><ele>1064</ele><time>2019-09-10T16:15:41.000Z</time></trkpt><trkpt lon="15.5621016" lat="46.5027112"><ele>1063</ele><time>2019-09-10T16:15:42.000Z</time></trkpt><trkpt lon="15.5621016" lat="46.5027112"><ele>1063</ele><time>2019-09-10T16:15:43.000Z</time></trkpt><trkpt lon="15.5621449" lat="46.5024165"><ele>1061</ele><time>2019-09-10T16:15:44.000Z</time></trkpt><trkpt lon="15.5621449" lat="46.5024165"><ele>1061</ele><time>2019-09-10T16:15:45.000Z</time></trkpt><trkpt lon="15.5621502" lat="46.5021337"><ele>1058</ele><time>2019-09-10T16:15:46.000Z</time></trkpt><trkpt lon="15.562167" lat="46.5019969"><ele>1057</ele><time>2019-09-10T16:15:47.000Z</time></trkpt><trkpt lon="15.562167" lat="46.5019969"><ele>1057</ele><time>2019-09-10T16:15:48.000Z</time></trkpt><trkpt lon="15.56224" lat="46.5017332"><ele>1057</ele><time>2019-09-10T16:15:49.000Z</time></trkpt><trkpt lon="15.56224" lat="46.5017332"><ele>1057</ele><time>2019-09-10T16:15:50.000Z</time></trkpt><trkpt lon="15.5623313" lat="46.5014934"><ele>1057</ele><time>2019-09-10T16:15:51.000Z</time></trkpt><trkpt lon="15.5623722" lat="46.5013879"><ele>1057</ele><time>2019-09-10T16:15:52.000Z</time></trkpt><trkpt lon="15.5624069" lat="46.5012868"><ele>1057</ele><time>2019-09-10T16:15:53.000Z</time></trkpt><trkpt lon="15.5624069" lat="46.5012868"><ele>1057</ele><time>2019-09-10T16:15:54.000Z</time></trkpt><trkpt lon="15.562459" lat="46.501079"><ele>1056</ele><time>2019-09-10T16:15:55.000Z</time></trkpt><trkpt lon="15.562459" lat="46.501079"><ele>1056</ele><time>2019-09-10T16:15:56.000Z</time></trkpt><trkpt lon="15.5624647" lat="46.5008532"><ele>1054</ele><time>2019-09-10T16:15:57.000Z</time></trkpt><trkpt lon="15.5624647" lat="46.5008532"><ele>1054</ele><time>2019-09-10T16:15:58.000Z</time></trkpt><trkpt lon="15.5623764" lat="46.5006165"><ele>1053</ele><time>2019-09-10T16:15:59.000Z</time></trkpt><trkpt lon="15.562325" lat="46.5005097"><ele>1051</ele><time>2019-09-10T16:16:00.000Z</time></trkpt><trkpt lon="15.5622604" lat="46.5003972"><ele>1050</ele><time>2019-09-10T16:16:01.000Z</time></trkpt><trkpt lon="15.5622604" lat="46.5003972"><ele>1050</ele><time>2019-09-10T16:16:02.000Z</time></trkpt><trkpt lon="15.5621268" lat="46.5001793"><ele>1049</ele><time>2019-09-10T16:16:03.000Z</time></trkpt><trkpt lon="15.562045" lat="46.5000743"><ele>1048</ele><time>2019-09-10T16:16:04.000Z</time></trkpt><trkpt lon="15.562045" lat="46.5000743"><ele>1048</ele><time>2019-09-10T16:16:05.000Z</time></trkpt><trkpt lon="15.5618758" lat="46.4998741"><ele>1047</ele><time>2019-09-10T16:16:06.000Z</time></trkpt><trkpt lon="15.5618758" lat="46.4998741"><ele>1047</ele><time>2019-09-10T16:16:07.000Z</time></trkpt><trkpt lon="15.5616817" lat="46.4996838"><ele>1046</ele><time>2019-09-10T16:16:08.000Z</time></trkpt><trkpt lon="15.561581" lat="46.4995924"><ele>1046</ele><time>2019-09-10T16:16:09.000Z</time></trkpt><trkpt lon="15.561581" lat="46.4995924"><ele>1046</ele><time>2019-09-10T16:16:10.000Z</time></trkpt><trkpt lon="15.5613858" lat="46.4994188"><ele>1045</ele><time>2019-09-10T16:16:11.000Z</time></trkpt><trkpt lon="15.5612747" lat="46.4993411"><ele>1045</ele><time>2019-09-10T16:16:12.000Z</time></trkpt><trkpt lon="15.5611485" lat="46.499271"><ele>1045</ele><time>2019-09-10T16:16:13.000Z</time></trkpt><trkpt lon="15.5611485" lat="46.499271"><ele>1045</ele><time>2019-09-10T16:16:14.000Z</time></trkpt><trkpt lon="15.5608874" lat="46.499142"><ele>1044</ele><time>2019-09-10T16:16:15.000Z</time></trkpt><trkpt lon="15.5607402" lat="46.4990859"><ele>1043</ele><time>2019-09-10T16:16:16.000Z</time></trkpt><trkpt lon="15.5607402" lat="46.4990859"><ele>1043</ele><time>2019-09-10T16:16:17.000Z</time></trkpt><trkpt lon="15.5604363" lat="46.4990044"><ele>1041</ele><time>2019-09-10T16:16:18.000Z</time></trkpt><trkpt lon="15.5602756" lat="46.4989736"><ele>1040</ele><time>2019-09-10T16:16:19.000Z</time></trkpt><trkpt lon="15.5602756" lat="46.4989736"><ele>1040</ele><time>2019-09-10T16:16:20.000Z</time></trkpt><trkpt lon="15.5599495" lat="46.4989189"><ele>1039</ele><time>2019-09-10T16:16:21.000Z</time></trkpt><trkpt lon="15.5597815" lat="46.4988965"><ele>1038</ele><time>2019-09-10T16:16:22.000Z</time></trkpt><trkpt lon="15.5597815" lat="46.4988965"><ele>1038</ele><time>2019-09-10T16:16:23.000Z</time></trkpt><trkpt lon="15.5594496" lat="46.4988552"><ele>1037</ele><time>2019-09-10T16:16:24.000Z</time></trkpt><trkpt lon="15.5592827" lat="46.4988361"><ele>1036</ele><time>2019-09-10T16:16:25.000Z</time></trkpt><trkpt lon="15.5592827" lat="46.4988361"><ele>1036</ele><time>2019-09-10T16:16:26.000Z</time></trkpt><trkpt lon="15.5589428" lat="46.4987905"><ele>1035</ele><time>2019-09-10T16:16:27.000Z</time></trkpt><trkpt lon="15.5587759" lat="46.4987674"><ele>1034</ele><time>2019-09-10T16:16:28.000Z</time></trkpt><trkpt lon="15.5586113" lat="46.4987595"><ele>1034</ele><time>2019-09-10T16:16:29.000Z</time></trkpt><trkpt lon="15.5586113" lat="46.4987595"><ele>1034</ele><time>2019-09-10T16:16:30.000Z</time></trkpt><trkpt lon="15.5582865" lat="46.4987645"><ele>1032</ele><time>2019-09-10T16:16:31.000Z</time></trkpt><trkpt lon="15.5582865" lat="46.4987645"><ele>1032</ele><time>2019-09-10T16:16:32.000Z</time></trkpt><trkpt lon="15.5579508" lat="46.4987756"><ele>1031</ele><time>2019-09-10T16:16:33.000Z</time></trkpt><trkpt lon="15.5579508" lat="46.4987756"><ele>1031</ele><time>2019-09-10T16:16:34.000Z</time></trkpt><trkpt lon="15.5576233" lat="46.4987873"><ele>1030</ele><time>2019-09-10T16:16:35.000Z</time></trkpt><trkpt lon="15.5574626" lat="46.4988026"><ele>1029</ele><time>2019-09-10T16:16:36.000Z</time></trkpt><trkpt lon="15.5574626" lat="46.4988026"><ele>1029</ele><time>2019-09-10T16:16:37.000Z</time></trkpt><trkpt lon="15.557164" lat="46.4988613"><ele>1029</ele><time>2019-09-10T16:16:38.000Z</time></trkpt><trkpt lon="15.5570421" lat="46.4989188"><ele>1028</ele><time>2019-09-10T16:16:39.000Z</time></trkpt><trkpt lon="15.5569319" lat="46.4989776"><ele>1027</ele><time>2019-09-10T16:16:40.000Z</time></trkpt><trkpt lon="15.5569319" lat="46.4989776"><ele>1027</ele><time>2019-09-10T16:16:41.000Z</time></trkpt><trkpt lon="15.5568174" lat="46.4991596"><ele>1026</ele><time>2019-09-10T16:16:42.000Z</time></trkpt><trkpt lon="15.5567905" lat="46.499257"><ele>1026</ele><time>2019-09-10T16:16:43.000Z</time></trkpt><trkpt lon="15.5567905" lat="46.499257"><ele>1026</ele><time>2019-09-10T16:16:44.000Z</time></trkpt><trkpt lon="15.5567184" lat="46.4994586"><ele>1025</ele><time>2019-09-10T16:16:45.000Z</time></trkpt><trkpt lon="15.5566678" lat="46.4995533"><ele>1025</ele><time>2019-09-10T16:16:46.000Z</time></trkpt><trkpt lon="15.5566678" lat="46.4995533"><ele>1025</ele><time>2019-09-10T16:16:47.000Z</time></trkpt><trkpt lon="15.5564518" lat="46.4996813"><ele>1025</ele><time>2019-09-10T16:16:48.000Z</time></trkpt><trkpt lon="15.5564518" lat="46.4996813"><ele>1025</ele><time>2019-09-10T16:16:49.000Z</time></trkpt><trkpt lon="15.5561687" lat="46.4996836"><ele>1024</ele><time>2019-09-10T16:16:50.000Z</time></trkpt><trkpt lon="15.5560449" lat="46.4996399"><ele>1023</ele><time>2019-09-10T16:16:51.000Z</time></trkpt><trkpt lon="15.5560449" lat="46.4996399"><ele>1023</ele><time>2019-09-10T16:16:52.000Z</time></trkpt><trkpt lon="15.5557869" lat="46.499534"><ele>1022</ele><time>2019-09-10T16:16:53.000Z</time></trkpt><trkpt lon="15.5557869" lat="46.499534"><ele>1022</ele><time>2019-09-10T16:16:54.000Z</time></trkpt><trkpt lon="15.5555195" lat="46.4994377"><ele>1021</ele><time>2019-09-10T16:16:55.000Z</time></trkpt><trkpt lon="15.5555195" lat="46.4994377"><ele>1021</ele><time>2019-09-10T16:16:56.000Z</time></trkpt><trkpt lon="15.5552275" lat="46.499407"><ele>1020</ele><time>2019-09-10T16:16:57.000Z</time></trkpt><trkpt lon="15.5552275" lat="46.499407"><ele>1020</ele><time>2019-09-10T16:16:58.000Z</time></trkpt><trkpt lon="15.5549266" lat="46.4994188"><ele>1019</ele><time>2019-09-10T16:16:59.000Z</time></trkpt><trkpt lon="15.5549266" lat="46.4994188"><ele>1019</ele><time>2019-09-10T16:17:00.000Z</time></trkpt><trkpt lon="15.5546227" lat="46.4994604"><ele>1017</ele><time>2019-09-10T16:17:01.000Z</time></trkpt><trkpt lon="15.5544632" lat="46.4994661"><ele>1016</ele><time>2019-09-10T16:17:02.000Z</time></trkpt><trkpt lon="15.5543001" lat="46.4994484"><ele>1015</ele><time>2019-09-10T16:17:03.000Z</time></trkpt><trkpt lon="15.5541402" lat="46.4994118"><ele>1014</ele><time>2019-09-10T16:17:04.000Z</time></trkpt><trkpt lon="15.5541402" lat="46.4994118"><ele>1014</ele><time>2019-09-10T16:17:05.000Z</time></trkpt><trkpt lon="15.5538268" lat="46.4993075"><ele>1011</ele><time>2019-09-10T16:17:06.000Z</time></trkpt><trkpt lon="15.5538268" lat="46.4993075"><ele>1011</ele><time>2019-09-10T16:17:07.000Z</time></trkpt><trkpt lon="15.5534996" lat="46.4991906"><ele>1010</ele><time>2019-09-10T16:17:08.000Z</time></trkpt><trkpt lon="15.5534996" lat="46.4991906"><ele>1010</ele><time>2019-09-10T16:17:09.000Z</time></trkpt><trkpt lon="15.5531542" lat="46.4990786"><ele>1007</ele><time>2019-09-10T16:17:10.000Z</time></trkpt><trkpt lon="15.5529732" lat="46.4990293"><ele>1006</ele><time>2019-09-10T16:17:11.000Z</time></trkpt><trkpt lon="15.5527883" lat="46.4989788"><ele>1006</ele><time>2019-09-10T16:17:12.000Z</time></trkpt><trkpt lon="15.5527883" lat="46.4989788"><ele>1006</ele><time>2019-09-10T16:17:13.000Z</time></trkpt><trkpt lon="15.5523966" lat="46.498916"><ele>1003</ele><time>2019-09-10T16:17:14.000Z</time></trkpt><trkpt lon="15.5521982" lat="46.4988906"><ele>1002</ele><time>2019-09-10T16:17:15.000Z</time></trkpt><trkpt lon="15.5520001" lat="46.49887"><ele>1001</ele><time>2019-09-10T16:17:16.000Z</time></trkpt><trkpt lon="15.5520001" lat="46.49887"><ele>1001</ele><time>2019-09-10T16:17:17.000Z</time></trkpt><trkpt lon="15.5516" lat="46.4988507"><ele>999</ele><time>2019-09-10T16:17:18.000Z</time></trkpt><trkpt lon="15.551408" lat="46.498869"><ele>998</ele><time>2019-09-10T16:17:19.000Z</time></trkpt><trkpt lon="15.5512217" lat="46.4989006"><ele>997</ele><time>2019-09-10T16:17:20.000Z</time></trkpt><trkpt lon="15.5512217" lat="46.4989006"><ele>997</ele><time>2019-09-10T16:17:21.000Z</time></trkpt><trkpt lon="15.5508561" lat="46.49896"><ele>996</ele><time>2019-09-10T16:17:22.000Z</time></trkpt><trkpt lon="15.5508561" lat="46.49896"><ele>996</ele><time>2019-09-10T16:17:23.000Z</time></trkpt><trkpt lon="15.5505372" lat="46.4989152"><ele>995</ele><time>2019-09-10T16:17:24.000Z</time></trkpt><trkpt lon="15.5504336" lat="46.4988537"><ele>994</ele><time>2019-09-10T16:17:25.000Z</time></trkpt><trkpt lon="15.5504336" lat="46.4988537"><ele>994</ele><time>2019-09-10T16:17:26.000Z</time></trkpt><trkpt lon="15.5502993" lat="46.4986864"><ele>993</ele><time>2019-09-10T16:17:27.000Z</time></trkpt><trkpt lon="15.5502993" lat="46.4986864"><ele>993</ele><time>2019-09-10T16:17:28.000Z</time></trkpt><trkpt lon="15.5503774" lat="46.4985028"><ele>992</ele><time>2019-09-10T16:17:29.000Z</time></trkpt><trkpt lon="15.5504921" lat="46.4984499"><ele>990</ele><time>2019-09-10T16:17:30.000Z</time></trkpt><trkpt lon="15.5506233" lat="46.4984159"><ele>989</ele><time>2019-09-10T16:17:31.000Z</time></trkpt><trkpt lon="15.5506233" lat="46.4984159"><ele>989</ele><time>2019-09-10T16:17:32.000Z</time></trkpt><trkpt lon="15.5508351" lat="46.4983365"><ele>988</ele><time>2019-09-10T16:17:33.000Z</time></trkpt><trkpt lon="15.5508351" lat="46.4983365"><ele>988</ele><time>2019-09-10T16:17:34.000Z</time></trkpt><trkpt lon="15.5508639" lat="46.4981751"><ele>987</ele><time>2019-09-10T16:17:35.000Z</time></trkpt><trkpt lon="15.5508639" lat="46.4981751"><ele>987</ele><time>2019-09-10T16:17:36.000Z</time></trkpt><trkpt lon="15.5508583" lat="46.4980534"><ele>987</ele><time>2019-09-10T16:17:37.000Z</time></trkpt><trkpt lon="15.5508583" lat="46.4980534"><ele>987</ele><time>2019-09-10T16:17:38.000Z</time></trkpt><trkpt lon="15.5508341" lat="46.4979488"><ele>987</ele><time>2019-09-10T16:17:39.000Z</time></trkpt><trkpt lon="15.5508341" lat="46.4979488"><ele>987</ele><time>2019-09-10T16:17:40.000Z</time></trkpt><trkpt lon="15.5508226" lat="46.4978516"><ele>988</ele><time>2019-09-10T16:17:41.000Z</time></trkpt><trkpt lon="15.5508226" lat="46.4978516"><ele>988</ele><time>2019-09-10T16:17:42.000Z</time></trkpt><trkpt lon="15.5507902" lat="46.4977601"><ele>988</ele><time>2019-09-10T16:17:43.000Z</time></trkpt><trkpt lon="15.5507902" lat="46.4977601"><ele>988</ele><time>2019-09-10T16:17:44.000Z</time></trkpt><trkpt lon="15.5507588" lat="46.4976899"><ele>989</ele><time>2019-09-10T16:17:45.000Z</time></trkpt><trkpt lon="15.5507588" lat="46.4976899"><ele>989</ele><time>2019-09-10T16:17:46.000Z</time></trkpt><trkpt lon="15.5507357" lat="46.497649"><ele>989</ele><time>2019-09-10T16:17:47.000Z</time></trkpt><trkpt lon="15.5507146" lat="46.497623"><ele>989</ele><time>2019-09-10T16:17:48.000Z</time></trkpt><trkpt lon="15.5507146" lat="46.497623"><ele>989</ele><time>2019-09-10T16:17:49.000Z</time></trkpt><trkpt lon="15.5506238" lat="46.4975266"><ele>990</ele><time>2019-09-10T16:17:50.000Z</time></trkpt><trkpt lon="15.5506238" lat="46.4975266"><ele>990</ele><time>2019-09-10T16:17:51.000Z</time></trkpt><trkpt lon="15.5505743" lat="46.4974518"><ele>990</ele><time>2019-09-10T16:17:52.000Z</time></trkpt><trkpt lon="15.5505743" lat="46.4974518"><ele>990</ele><time>2019-09-10T16:17:53.000Z</time></trkpt><trkpt lon="15.5505233" lat="46.4973851"><ele>991</ele><time>2019-09-10T16:17:54.000Z</time></trkpt><trkpt lon="15.5505055" lat="46.497348"><ele>991</ele><time>2019-09-10T16:17:55.000Z</time></trkpt><trkpt lon="15.5505055" lat="46.497348"><ele>991</ele><time>2019-09-10T16:17:56.000Z</time></trkpt><trkpt lon="15.5504723" lat="46.4973071"><ele>992</ele><time>2019-09-10T16:17:57.000Z</time></trkpt><trkpt lon="15.5504723" lat="46.4973071"><ele>992</ele><time>2019-09-10T16:17:58.000Z</time></trkpt><trkpt lon="15.5504331" lat="46.4972616"><ele>993</ele><time>2019-09-10T16:17:59.000Z</time></trkpt><trkpt lon="15.5504331" lat="46.4972616"><ele>993</ele><time>2019-09-10T16:18:00.000Z</time></trkpt><trkpt lon="15.5503551" lat="46.4971772"><ele>993</ele><time>2019-09-10T16:18:01.000Z</time></trkpt><trkpt lon="15.5503263" lat="46.4971355"><ele>994</ele><time>2019-09-10T16:18:02.000Z</time></trkpt><trkpt lon="15.5503263" lat="46.4971355"><ele>994</ele><time>2019-09-10T16:18:03.000Z</time></trkpt><trkpt lon="15.5502632" lat="46.4970713"><ele>995</ele><time>2019-09-10T16:18:04.000Z</time></trkpt><trkpt lon="15.5502632" lat="46.4970713"><ele>995</ele><time>2019-09-10T16:18:05.000Z</time></trkpt><trkpt lon="15.5501714" lat="46.4969961"><ele>994</ele><time>2019-09-10T16:18:06.000Z</time></trkpt><trkpt lon="15.5501714" lat="46.4969961"><ele>994</ele><time>2019-09-10T16:18:07.000Z</time></trkpt><trkpt lon="15.5500689" lat="46.4969057"><ele>995</ele><time>2019-09-10T16:18:08.000Z</time></trkpt><trkpt lon="15.5499974" lat="46.4968658"><ele>994</ele><time>2019-09-10T16:18:09.000Z</time></trkpt><trkpt lon="15.5499273" lat="46.4968313"><ele>995</ele><time>2019-09-10T16:18:10.000Z</time></trkpt><trkpt lon="15.5499273" lat="46.4968313"><ele>995</ele><time>2019-09-10T16:18:11.000Z</time></trkpt><trkpt lon="15.5498129" lat="46.4967621"><ele>996</ele><time>2019-09-10T16:18:12.000Z</time></trkpt><trkpt lon="15.5498129" lat="46.4967621"><ele>996</ele><time>2019-09-10T16:18:13.000Z</time></trkpt><trkpt lon="15.5496989" lat="46.4966991"><ele>996</ele><time>2019-09-10T16:18:14.000Z</time></trkpt><trkpt lon="15.5496989" lat="46.4966991"><ele>996</ele><time>2019-09-10T16:18:15.000Z</time></trkpt><trkpt lon="15.549597" lat="46.4966328"><ele>996</ele><time>2019-09-10T16:18:16.000Z</time></trkpt><trkpt lon="15.5495456" lat="46.4966012"><ele>996</ele><time>2019-09-10T16:18:17.000Z</time></trkpt><trkpt lon="15.5494951" lat="46.4965664"><ele>996</ele><time>2019-09-10T16:18:18.000Z</time></trkpt><trkpt lon="15.5494951" lat="46.4965664"><ele>996</ele><time>2019-09-10T16:18:19.000Z</time></trkpt><trkpt lon="15.549417" lat="46.4965046"><ele>997</ele><time>2019-09-10T16:18:20.000Z</time></trkpt><trkpt lon="15.549417" lat="46.4965046"><ele>997</ele><time>2019-09-10T16:18:21.000Z</time></trkpt><trkpt lon="15.5493448" lat="46.4964332"><ele>997</ele><time>2019-09-10T16:18:22.000Z</time></trkpt><trkpt lon="15.5493107" lat="46.4964027"><ele>997</ele><time>2019-09-10T16:18:23.000Z</time></trkpt><trkpt lon="15.5493107" lat="46.4964027"><ele>997</ele><time>2019-09-10T16:18:24.000Z</time></trkpt><trkpt lon="15.5492679" lat="46.4963534"><ele>998</ele><time>2019-09-10T16:18:25.000Z</time></trkpt><trkpt lon="15.5492679" lat="46.4963534"><ele>998</ele><time>2019-09-10T16:18:26.000Z</time></trkpt><trkpt lon="15.5492377" lat="46.496305"><ele>999</ele><time>2019-09-10T16:18:27.000Z</time></trkpt><trkpt lon="15.5492377" lat="46.496305"><ele>999</ele><time>2019-09-10T16:18:28.000Z</time></trkpt><trkpt lon="15.5491994" lat="46.4962276"><ele>1000</ele><time>2019-09-10T16:18:29.000Z</time></trkpt><trkpt lon="15.5491757" lat="46.4961866"><ele>1000</ele><time>2019-09-10T16:18:30.000Z</time></trkpt><trkpt lon="15.5491757" lat="46.4961866"><ele>1000</ele><time>2019-09-10T16:18:31.000Z</time></trkpt><trkpt lon="15.5490762" lat="46.4960761"><ele>1000</ele><time>2019-09-10T16:18:32.000Z</time></trkpt><trkpt lon="15.5490762" lat="46.4960761"><ele>1000</ele><time>2019-09-10T16:18:33.000Z</time></trkpt><trkpt lon="15.5490022" lat="46.4960256"><ele>1001</ele><time>2019-09-10T16:18:34.000Z</time></trkpt><trkpt lon="15.5490022" lat="46.4960256"><ele>1001</ele><time>2019-09-10T16:18:35.000Z</time></trkpt><trkpt lon="15.548941" lat="46.4959889"><ele>1001</ele><time>2019-09-10T16:18:36.000Z</time></trkpt><trkpt lon="15.548941" lat="46.4959889"><ele>1001</ele><time>2019-09-10T16:18:37.000Z</time></trkpt><trkpt lon="15.5488182" lat="46.4959235"><ele>1003</ele><time>2019-09-10T16:18:38.000Z</time></trkpt><trkpt lon="15.5488182" lat="46.4959235"><ele>1003</ele><time>2019-09-10T16:18:39.000Z</time></trkpt><trkpt lon="15.5487175" lat="46.4958748"><ele>1004</ele><time>2019-09-10T16:18:40.000Z</time></trkpt><trkpt lon="15.5487175" lat="46.4958748"><ele>1004</ele><time>2019-09-10T16:18:41.000Z</time></trkpt><trkpt lon="15.5486212" lat="46.4958191"><ele>1004</ele><time>2019-09-10T16:18:42.000Z</time></trkpt><trkpt lon="15.5486212" lat="46.4958191"><ele>1004</ele><time>2019-09-10T16:18:43.000Z</time></trkpt><trkpt lon="15.5485192" lat="46.4957718"><ele>1004</ele><time>2019-09-10T16:18:44.000Z</time></trkpt><trkpt lon="15.5484728" lat="46.4957445"><ele>1004</ele><time>2019-09-10T16:18:45.000Z</time></trkpt><trkpt lon="15.5484728" lat="46.4957445"><ele>1004</ele><time>2019-09-10T16:18:46.000Z</time></trkpt><trkpt lon="15.548385" lat="46.4956931"><ele>1004</ele><time>2019-09-10T16:18:47.000Z</time></trkpt><trkpt lon="15.548385" lat="46.4956931"><ele>1004</ele><time>2019-09-10T16:18:48.000Z</time></trkpt><trkpt lon="15.5482874" lat="46.4956415"><ele>1005</ele><time>2019-09-10T16:18:49.000Z</time></trkpt><trkpt lon="15.5482432" lat="46.4956154"><ele>1005</ele><time>2019-09-10T16:18:50.000Z</time></trkpt><trkpt lon="15.5482432" lat="46.4956154"><ele>1005</ele><time>2019-09-10T16:18:51.000Z</time></trkpt><trkpt lon="15.5481631" lat="46.4955517"><ele>1006</ele><time>2019-09-10T16:18:52.000Z</time></trkpt><trkpt lon="15.5481631" lat="46.4955517"><ele>1006</ele><time>2019-09-10T16:18:53.000Z</time></trkpt><trkpt lon="15.5481103" lat="46.4955085"><ele>1006</ele><time>2019-09-10T16:18:54.000Z</time></trkpt><trkpt lon="15.5481103" lat="46.4955085"><ele>1006</ele><time>2019-09-10T16:18:55.000Z</time></trkpt><trkpt lon="15.5480433" lat="46.4954372"><ele>1007</ele><time>2019-09-10T16:18:56.000Z</time></trkpt><trkpt lon="15.5480433" lat="46.4954372"><ele>1007</ele><time>2019-09-10T16:18:57.000Z</time></trkpt><trkpt lon="15.5480102" lat="46.4953892"><ele>1007</ele><time>2019-09-10T16:18:58.000Z</time></trkpt><trkpt lon="15.5479602" lat="46.4953247"><ele>1008</ele><time>2019-09-10T16:18:59.000Z</time></trkpt><trkpt lon="15.5479602" lat="46.4953247"><ele>1008</ele><time>2019-09-10T16:19:00.000Z</time></trkpt><trkpt lon="15.5478935" lat="46.4952568"><ele>1008</ele><time>2019-09-10T16:19:01.000Z</time></trkpt><trkpt lon="15.5478592" lat="46.495226"><ele>1008</ele><time>2019-09-10T16:19:02.000Z</time></trkpt><trkpt lon="15.5478592" lat="46.495226"><ele>1008</ele><time>2019-09-10T16:19:03.000Z</time></trkpt><trkpt lon="15.5477992" lat="46.4951548"><ele>1008</ele><time>2019-09-10T16:19:04.000Z</time></trkpt><trkpt lon="15.5477992" lat="46.4951548"><ele>1008</ele><time>2019-09-10T16:19:05.000Z</time></trkpt><trkpt lon="15.5477241" lat="46.4950985"><ele>1010</ele><time>2019-09-10T16:19:06.000Z</time></trkpt><trkpt lon="15.5476887" lat="46.4950577"><ele>1010</ele><time>2019-09-10T16:19:07.000Z</time></trkpt><trkpt lon="15.5476887" lat="46.4950577"><ele>1010</ele><time>2019-09-10T16:19:08.000Z</time></trkpt><trkpt lon="15.5476001" lat="46.4949945"><ele>1010</ele><time>2019-09-10T16:19:09.000Z</time></trkpt><trkpt lon="15.5476001" lat="46.4949945"><ele>1010</ele><time>2019-09-10T16:19:10.000Z</time></trkpt><trkpt lon="15.5475377" lat="46.4949255"><ele>1011</ele><time>2019-09-10T16:19:11.000Z</time></trkpt><trkpt lon="15.5475063" lat="46.4948875"><ele>1011</ele><time>2019-09-10T16:19:12.000Z</time></trkpt><trkpt lon="15.5475063" lat="46.4948875"><ele>1011</ele><time>2019-09-10T16:19:13.000Z</time></trkpt><trkpt lon="15.5474489" lat="46.4948113"><ele>1011</ele><time>2019-09-10T16:19:14.000Z</time></trkpt><trkpt lon="15.5474151" lat="46.4947741"><ele>1012</ele><time>2019-09-10T16:19:15.000Z</time></trkpt><trkpt lon="15.5474151" lat="46.4947741"><ele>1012</ele><time>2019-09-10T16:19:16.000Z</time></trkpt><trkpt lon="15.5473505" lat="46.4947041"><ele>1012</ele><time>2019-09-10T16:19:17.000Z</time></trkpt><trkpt lon="15.5473505" lat="46.4947041"><ele>1012</ele><time>2019-09-10T16:19:18.000Z</time></trkpt><trkpt lon="15.5473065" lat="46.4946336"><ele>1013</ele><time>2019-09-10T16:19:19.000Z</time></trkpt><trkpt lon="15.547294" lat="46.4945967"><ele>1013</ele><time>2019-09-10T16:19:20.000Z</time></trkpt><trkpt lon="15.547294" lat="46.4945967"><ele>1013</ele><time>2019-09-10T16:19:21.000Z</time></trkpt><trkpt lon="15.5472835" lat="46.4945459"><ele>1013</ele><time>2019-09-10T16:19:22.000Z</time></trkpt><trkpt lon="15.5472835" lat="46.4945459"><ele>1013</ele><time>2019-09-10T16:19:23.000Z</time></trkpt><trkpt lon="15.5472692" lat="46.4945081"><ele>1014</ele><time>2019-09-10T16:19:24.000Z</time></trkpt><trkpt lon="15.5472692" lat="46.4945081"><ele>1014</ele><time>2019-09-10T16:19:25.000Z</time></trkpt><trkpt lon="15.5472721" lat="46.494464"><ele>1014</ele><time>2019-09-10T16:19:26.000Z</time></trkpt><trkpt lon="15.5472721" lat="46.494464"><ele>1014</ele><time>2019-09-10T16:19:27.000Z</time></trkpt><trkpt lon="15.5472791" lat="46.4944281"><ele>1015</ele><time>2019-09-10T16:19:28.000Z</time></trkpt><trkpt lon="15.5472791" lat="46.4944281"><ele>1015</ele><time>2019-09-10T16:19:29.000Z</time></trkpt><trkpt lon="15.5472948" lat="46.4943831"><ele>1015</ele><time>2019-09-10T16:19:30.000Z</time></trkpt><trkpt lon="15.5472948" lat="46.4943831"><ele>1015</ele><time>2019-09-10T16:19:31.000Z</time></trkpt><trkpt lon="15.5473361" lat="46.4943273"><ele>1016</ele><time>2019-09-10T16:19:32.000Z</time></trkpt><trkpt lon="15.5473361" lat="46.4943273"><ele>1016</ele><time>2019-09-10T16:19:33.000Z</time></trkpt><trkpt lon="15.5473922" lat="46.4942744"><ele>1017</ele><time>2019-09-10T16:19:34.000Z</time></trkpt><trkpt lon="15.5473922" lat="46.4942744"><ele>1017</ele><time>2019-09-10T16:19:35.000Z</time></trkpt><trkpt lon="15.5474535" lat="46.4942186"><ele>1017</ele><time>2019-09-10T16:19:36.000Z</time></trkpt><trkpt lon="15.5474535" lat="46.4942186"><ele>1017</ele><time>2019-09-10T16:19:37.000Z</time></trkpt><trkpt lon="15.547513" lat="46.4941608"><ele>1017</ele><time>2019-09-10T16:19:38.000Z</time></trkpt><trkpt lon="15.547513" lat="46.4941608"><ele>1017</ele><time>2019-09-10T16:19:39.000Z</time></trkpt><trkpt lon="15.5475637" lat="46.4941096"><ele>1017</ele><time>2019-09-10T16:19:40.000Z</time></trkpt><trkpt lon="15.5475637" lat="46.4941096"><ele>1017</ele><time>2019-09-10T16:19:41.000Z</time></trkpt><trkpt lon="15.5476032" lat="46.4940618"><ele>1018</ele><time>2019-09-10T16:19:42.000Z</time></trkpt><trkpt lon="15.5476032" lat="46.4940618"><ele>1018</ele><time>2019-09-10T16:19:43.000Z</time></trkpt><trkpt lon="15.5476335" lat="46.4939804"><ele>1018</ele><time>2019-09-10T16:19:44.000Z</time></trkpt><trkpt lon="15.5476416" lat="46.4939304"><ele>1019</ele><time>2019-09-10T16:19:45.000Z</time></trkpt><trkpt lon="15.5476416" lat="46.4939304"><ele>1019</ele><time>2019-09-10T16:19:46.000Z</time></trkpt><trkpt lon="15.5476546" lat="46.4937443"><ele>1017</ele><time>2019-09-10T16:19:47.000Z</time></trkpt><trkpt lon="15.5476546" lat="46.4937443"><ele>1017</ele><time>2019-09-10T16:19:48.000Z</time></trkpt><trkpt lon="15.5476496" lat="46.4936439"><ele>1016</ele><time>2019-09-10T16:19:49.000Z</time></trkpt><trkpt lon="15.5476496" lat="46.4936439"><ele>1016</ele><time>2019-09-10T16:19:50.000Z</time></trkpt><trkpt lon="15.5476333" lat="46.4935448"><ele>1016</ele><time>2019-09-10T16:19:51.000Z</time></trkpt><trkpt lon="15.5476333" lat="46.4935448"><ele>1016</ele><time>2019-09-10T16:19:52.000Z</time></trkpt><trkpt lon="15.5475973" lat="46.4934662"><ele>1018</ele><time>2019-09-10T16:19:53.000Z</time></trkpt><trkpt lon="15.5475973" lat="46.4934662"><ele>1018</ele><time>2019-09-10T16:19:54.000Z</time></trkpt><trkpt lon="15.5475629" lat="46.4934067"><ele>1020</ele><time>2019-09-10T16:19:55.000Z</time></trkpt><trkpt lon="15.5475191" lat="46.4933569"><ele>1021</ele><time>2019-09-10T16:19:56.000Z</time></trkpt><trkpt lon="15.5475191" lat="46.4933569"><ele>1021</ele><time>2019-09-10T16:19:57.000Z</time></trkpt><trkpt lon="15.5474758" lat="46.4932822"><ele>1022</ele><time>2019-09-10T16:19:58.000Z</time></trkpt><trkpt lon="15.5474758" lat="46.4932822"><ele>1022</ele><time>2019-09-10T16:19:59.000Z</time></trkpt><trkpt lon="15.5474007" lat="46.493212"><ele>1024</ele><time>2019-09-10T16:20:00.000Z</time></trkpt><trkpt lon="15.5474007" lat="46.493212"><ele>1024</ele><time>2019-09-10T16:20:01.000Z</time></trkpt><trkpt lon="15.5473146" lat="46.493156"><ele>1026</ele><time>2019-09-10T16:20:02.000Z</time></trkpt><trkpt lon="15.5473146" lat="46.493156"><ele>1026</ele><time>2019-09-10T16:20:03.000Z</time></trkpt><trkpt lon="15.5472133" lat="46.4931252"><ele>1026</ele><time>2019-09-10T16:20:04.000Z</time></trkpt><trkpt lon="15.5472133" lat="46.4931252"><ele>1026</ele><time>2019-09-10T16:20:05.000Z</time></trkpt><trkpt lon="15.5471273" lat="46.493108"><ele>1027</ele><time>2019-09-10T16:20:06.000Z</time></trkpt><trkpt lon="15.5471273" lat="46.493108"><ele>1027</ele><time>2019-09-10T16:20:07.000Z</time></trkpt><trkpt lon="15.5470028" lat="46.4930907"><ele>1027</ele><time>2019-09-10T16:20:08.000Z</time></trkpt><trkpt lon="15.5469513" lat="46.4930826"><ele>1028</ele><time>2019-09-10T16:20:09.000Z</time></trkpt><trkpt lon="15.5469513" lat="46.4930826"><ele>1028</ele><time>2019-09-10T16:20:10.000Z</time></trkpt><trkpt lon="15.5468451" lat="46.4930744"><ele>1028</ele><time>2019-09-10T16:20:11.000Z</time></trkpt><trkpt lon="15.5468451" lat="46.4930744"><ele>1028</ele><time>2019-09-10T16:20:12.000Z</time></trkpt><trkpt lon="15.546738" lat="46.4930789"><ele>1030</ele><time>2019-09-10T16:20:13.000Z</time></trkpt><trkpt lon="15.546738" lat="46.4930789"><ele>1030</ele><time>2019-09-10T16:20:14.000Z</time></trkpt><trkpt lon="15.5466326" lat="46.4930946"><ele>1030</ele><time>2019-09-10T16:20:15.000Z</time></trkpt><trkpt lon="15.5465821" lat="46.4931"><ele>1030</ele><time>2019-09-10T16:20:16.000Z</time></trkpt><trkpt lon="15.5465821" lat="46.4931"><ele>1030</ele><time>2019-09-10T16:20:17.000Z</time></trkpt><trkpt lon="15.546481" lat="46.4931136"><ele>1031</ele><time>2019-09-10T16:20:18.000Z</time></trkpt><trkpt lon="15.546481" lat="46.4931136"><ele>1031</ele><time>2019-09-10T16:20:19.000Z</time></trkpt><trkpt lon="15.546382" lat="46.4931302"><ele>1032</ele><time>2019-09-10T16:20:20.000Z</time></trkpt><trkpt lon="15.546382" lat="46.4931302"><ele>1032</ele><time>2019-09-10T16:20:21.000Z</time></trkpt><trkpt lon="15.5463142" lat="46.4931391"><ele>1031</ele><time>2019-09-10T16:20:22.000Z</time></trkpt><trkpt lon="15.5462716" lat="46.4931471"><ele>1031</ele><time>2019-09-10T16:20:23.000Z</time></trkpt><trkpt lon="15.5462716" lat="46.4931471"><ele>1031</ele><time>2019-09-10T16:20:24.000Z</time></trkpt><trkpt lon="15.5461801" lat="46.4931577"><ele>1032</ele><time>2019-09-10T16:20:25.000Z</time></trkpt><trkpt lon="15.5460905" lat="46.4931765"><ele>1032</ele><time>2019-09-10T16:20:26.000Z</time></trkpt><trkpt lon="15.5460905" lat="46.4931765"><ele>1032</ele><time>2019-09-10T16:20:27.000Z</time></trkpt><trkpt lon="15.5460215" lat="46.4931841"><ele>1033</ele><time>2019-09-10T16:20:28.000Z</time></trkpt><trkpt lon="15.5459772" lat="46.4931926"><ele>1033</ele><time>2019-09-10T16:20:29.000Z</time></trkpt><trkpt lon="15.5459772" lat="46.4931926"><ele>1033</ele><time>2019-09-10T16:20:30.000Z</time></trkpt><trkpt lon="15.5458856" lat="46.4932094"><ele>1034</ele><time>2019-09-10T16:20:31.000Z</time></trkpt><trkpt lon="15.5458856" lat="46.4932094"><ele>1034</ele><time>2019-09-10T16:20:32.000Z</time></trkpt><trkpt lon="15.5457914" lat="46.4932274"><ele>1034</ele><time>2019-09-10T16:20:33.000Z</time></trkpt><trkpt lon="15.5457914" lat="46.4932274"><ele>1034</ele><time>2019-09-10T16:20:34.000Z</time></trkpt><trkpt lon="15.5457176" lat="46.4932402"><ele>1035</ele><time>2019-09-10T16:20:35.000Z</time></trkpt><trkpt lon="15.5457176" lat="46.4932402"><ele>1035</ele><time>2019-09-10T16:20:36.000Z</time></trkpt><trkpt lon="15.5456073" lat="46.4932589"><ele>1035</ele><time>2019-09-10T16:20:37.000Z</time></trkpt><trkpt lon="15.5456073" lat="46.4932589"><ele>1035</ele><time>2019-09-10T16:20:38.000Z</time></trkpt><trkpt lon="15.5455108" lat="46.4932743"><ele>1036</ele><time>2019-09-10T16:20:39.000Z</time></trkpt><trkpt lon="15.5454631" lat="46.4932845"><ele>1036</ele><time>2019-09-10T16:20:40.000Z</time></trkpt><trkpt lon="15.5454155" lat="46.4932957"><ele>1036</ele><time>2019-09-10T16:20:41.000Z</time></trkpt><trkpt lon="15.5454155" lat="46.4932957"><ele>1036</ele><time>2019-09-10T16:20:42.000Z</time></trkpt><trkpt lon="15.5453211" lat="46.4933173"><ele>1036</ele><time>2019-09-10T16:20:43.000Z</time></trkpt><trkpt lon="15.5453211" lat="46.4933173"><ele>1036</ele><time>2019-09-10T16:20:44.000Z</time></trkpt><trkpt lon="15.5452298" lat="46.49334"><ele>1037</ele><time>2019-09-10T16:20:45.000Z</time></trkpt><trkpt lon="15.5452298" lat="46.49334"><ele>1037</ele><time>2019-09-10T16:20:46.000Z</time></trkpt><trkpt lon="15.5451369" lat="46.4933634"><ele>1037</ele><time>2019-09-10T16:20:47.000Z</time></trkpt><trkpt lon="15.5450911" lat="46.4933764"><ele>1038</ele><time>2019-09-10T16:20:48.000Z</time></trkpt><trkpt lon="15.545048" lat="46.4933882"><ele>1038</ele><time>2019-09-10T16:20:49.000Z</time></trkpt><trkpt lon="15.545048" lat="46.4933882"><ele>1038</ele><time>2019-09-10T16:20:50.000Z</time></trkpt><trkpt lon="15.5449696" lat="46.4934135"><ele>1038</ele><time>2019-09-10T16:20:51.000Z</time></trkpt><trkpt lon="15.5449248" lat="46.4934244"><ele>1038</ele><time>2019-09-10T16:20:52.000Z</time></trkpt><trkpt lon="15.5449248" lat="46.4934244"><ele>1038</ele><time>2019-09-10T16:20:53.000Z</time></trkpt><trkpt lon="15.5448435" lat="46.493447"><ele>1039</ele><time>2019-09-10T16:20:54.000Z</time></trkpt><trkpt lon="15.5447947" lat="46.4934567"><ele>1039</ele><time>2019-09-10T16:20:55.000Z</time></trkpt><trkpt lon="15.5447947" lat="46.4934567"><ele>1039</ele><time>2019-09-10T16:20:56.000Z</time></trkpt><trkpt lon="15.5447147" lat="46.4934714"><ele>1039</ele><time>2019-09-10T16:20:57.000Z</time></trkpt><trkpt lon="15.5447147" lat="46.4934714"><ele>1039</ele><time>2019-09-10T16:20:58.000Z</time></trkpt><trkpt lon="15.5446154" lat="46.4934786"><ele>1040</ele><time>2019-09-10T16:20:59.000Z</time></trkpt><trkpt lon="15.5445523" lat="46.4934826"><ele>1040</ele><time>2019-09-10T16:21:00.000Z</time></trkpt><trkpt lon="15.5445523" lat="46.4934826"><ele>1040</ele><time>2019-09-10T16:21:01.000Z</time></trkpt><trkpt lon="15.5444701" lat="46.4934815"><ele>1041</ele><time>2019-09-10T16:21:02.000Z</time></trkpt><trkpt lon="15.5444701" lat="46.4934815"><ele>1041</ele><time>2019-09-10T16:21:03.000Z</time></trkpt><trkpt lon="15.5443946" lat="46.4934708"><ele>1042</ele><time>2019-09-10T16:21:04.000Z</time></trkpt><trkpt lon="15.5443946" lat="46.4934708"><ele>1042</ele><time>2019-09-10T16:21:05.000Z</time></trkpt><trkpt lon="15.5443025" lat="46.4934549"><ele>1041</ele><time>2019-09-10T16:21:06.000Z</time></trkpt><trkpt lon="15.5443025" lat="46.4934549"><ele>1041</ele><time>2019-09-10T16:21:07.000Z</time></trkpt><trkpt lon="15.5442087" lat="46.4934267"><ele>1041</ele><time>2019-09-10T16:21:08.000Z</time></trkpt><trkpt lon="15.5442087" lat="46.4934267"><ele>1041</ele><time>2019-09-10T16:21:09.000Z</time></trkpt><trkpt lon="15.5441085" lat="46.4933859"><ele>1042</ele><time>2019-09-10T16:21:10.000Z</time></trkpt><trkpt lon="15.5441085" lat="46.4933859"><ele>1042</ele><time>2019-09-10T16:21:11.000Z</time></trkpt><trkpt lon="15.5440255" lat="46.4933534"><ele>1043</ele><time>2019-09-10T16:21:12.000Z</time></trkpt><trkpt lon="15.54399" lat="46.4933367"><ele>1043</ele><time>2019-09-10T16:21:13.000Z</time></trkpt><trkpt lon="15.54399" lat="46.4933367"><ele>1043</ele><time>2019-09-10T16:21:14.000Z</time></trkpt><trkpt lon="15.5438624" lat="46.4932721"><ele>1043</ele><time>2019-09-10T16:21:15.000Z</time></trkpt><trkpt lon="15.543825" lat="46.4932463"><ele>1044</ele><time>2019-09-10T16:21:16.000Z</time></trkpt><trkpt lon="15.543825" lat="46.4932463"><ele>1044</ele><time>2019-09-10T16:21:17.000Z</time></trkpt><trkpt lon="15.5437744" lat="46.4932081"><ele>1044</ele><time>2019-09-10T16:21:18.000Z</time></trkpt><trkpt lon="15.5437744" lat="46.4932081"><ele>1044</ele><time>2019-09-10T16:21:19.000Z</time></trkpt><trkpt lon="15.5436938" lat="46.4931341"><ele>1044</ele><time>2019-09-10T16:21:20.000Z</time></trkpt><trkpt lon="15.5436591" lat="46.4931082"><ele>1045</ele><time>2019-09-10T16:21:21.000Z</time></trkpt><trkpt lon="15.5436333" lat="46.4930859"><ele>1045</ele><time>2019-09-10T16:21:22.000Z</time></trkpt><trkpt lon="15.5436333" lat="46.4930859"><ele>1045</ele><time>2019-09-10T16:21:23.000Z</time></trkpt><trkpt lon="15.5435954" lat="46.4930535"><ele>1046</ele><time>2019-09-10T16:21:24.000Z</time></trkpt><trkpt lon="15.5435954" lat="46.4930535"><ele>1046</ele><time>2019-09-10T16:21:25.000Z</time></trkpt><trkpt lon="15.5435652" lat="46.4930043"><ele>1046</ele><time>2019-09-10T16:21:26.000Z</time></trkpt><trkpt lon="15.543549" lat="46.4929781"><ele>1046</ele><time>2019-09-10T16:21:27.000Z</time></trkpt><trkpt lon="15.543549" lat="46.4929781"><ele>1046</ele><time>2019-09-10T16:21:28.000Z</time></trkpt><trkpt lon="15.5435053" lat="46.4929243"><ele>1046</ele><time>2019-09-10T16:21:29.000Z</time></trkpt><trkpt lon="15.5435053" lat="46.4929243"><ele>1046</ele><time>2019-09-10T16:21:30.000Z</time></trkpt><trkpt lon="15.5434615" lat="46.4928799"><ele>1048</ele><time>2019-09-10T16:21:31.000Z</time></trkpt><trkpt lon="15.543432" lat="46.4928596"><ele>1049</ele><time>2019-09-10T16:21:32.000Z</time></trkpt><trkpt lon="15.543432" lat="46.4928596"><ele>1049</ele><time>2019-09-10T16:21:33.000Z</time></trkpt><trkpt lon="15.5433736" lat="46.4928231"><ele>1049</ele><time>2019-09-10T16:21:34.000Z</time></trkpt><trkpt lon="15.5433299" lat="46.492787"><ele>1049</ele><time>2019-09-10T16:21:35.000Z</time></trkpt><trkpt lon="15.5433299" lat="46.492787"><ele>1049</ele><time>2019-09-10T16:21:36.000Z</time></trkpt><trkpt lon="15.5432702" lat="46.4927329"><ele>1049</ele><time>2019-09-10T16:21:37.000Z</time></trkpt><trkpt lon="15.5432702" lat="46.4927329"><ele>1049</ele><time>2019-09-10T16:21:38.000Z</time></trkpt><trkpt lon="15.5431579" lat="46.492657"><ele>1050</ele><time>2019-09-10T16:21:39.000Z</time></trkpt><trkpt lon="15.5431579" lat="46.492657"><ele>1050</ele><time>2019-09-10T16:21:40.000Z</time></trkpt><trkpt lon="15.5431106" lat="46.4926134"><ele>1049</ele><time>2019-09-10T16:21:41.000Z</time></trkpt><trkpt lon="15.543083" lat="46.4925873"><ele>1050</ele><time>2019-09-10T16:21:42.000Z</time></trkpt><trkpt lon="15.543083" lat="46.4925873"><ele>1050</ele><time>2019-09-10T16:21:43.000Z</time></trkpt><trkpt lon="15.5429903" lat="46.4925088"><ele>1050</ele><time>2019-09-10T16:21:44.000Z</time></trkpt><trkpt lon="15.5429903" lat="46.4925088"><ele>1050</ele><time>2019-09-10T16:21:45.000Z</time></trkpt><trkpt lon="15.5429563" lat="46.4924763"><ele>1050</ele><time>2019-09-10T16:21:46.000Z</time></trkpt><trkpt lon="15.5429563" lat="46.4924763"><ele>1050</ele><time>2019-09-10T16:21:47.000Z</time></trkpt><trkpt lon="15.5428974" lat="46.4924375"><ele>1051</ele><time>2019-09-10T16:21:48.000Z</time></trkpt><trkpt lon="15.5428974" lat="46.4924375"><ele>1051</ele><time>2019-09-10T16:21:49.000Z</time></trkpt><trkpt lon="15.5428329" lat="46.4923938"><ele>1051</ele><time>2019-09-10T16:21:50.000Z</time></trkpt><trkpt lon="15.5427856" lat="46.4923615"><ele>1051</ele><time>2019-09-10T16:21:51.000Z</time></trkpt><trkpt lon="15.5427856" lat="46.4923615"><ele>1051</ele><time>2019-09-10T16:21:52.000Z</time></trkpt><trkpt lon="15.5427229" lat="46.4923183"><ele>1050</ele><time>2019-09-10T16:21:53.000Z</time></trkpt><trkpt lon="15.5426862" lat="46.4922928"><ele>1051</ele><time>2019-09-10T16:21:54.000Z</time></trkpt><trkpt lon="15.5426862" lat="46.4922928"><ele>1051</ele><time>2019-09-10T16:21:55.000Z</time></trkpt><trkpt lon="15.5425798" lat="46.4922234"><ele>1051</ele><time>2019-09-10T16:21:56.000Z</time></trkpt><trkpt lon="15.5425798" lat="46.4922234"><ele>1051</ele><time>2019-09-10T16:21:57.000Z</time></trkpt><trkpt lon="15.5425334" lat="46.4921846"><ele>1052</ele><time>2019-09-10T16:21:58.000Z</time></trkpt><trkpt lon="15.5425052" lat="46.4921607"><ele>1052</ele><time>2019-09-10T16:21:59.000Z</time></trkpt><trkpt lon="15.5424448" lat="46.4921107"><ele>1052</ele><time>2019-09-10T16:22:00.000Z</time></trkpt><trkpt lon="15.5424448" lat="46.4921107"><ele>1052</ele><time>2019-09-10T16:22:01.000Z</time></trkpt><trkpt lon="15.5423741" lat="46.4920509"><ele>1052</ele><time>2019-09-10T16:22:02.000Z</time></trkpt><trkpt lon="15.5423741" lat="46.4920509"><ele>1052</ele><time>2019-09-10T16:22:03.000Z</time></trkpt><trkpt lon="15.5422959" lat="46.4920038"><ele>1054</ele><time>2019-09-10T16:22:04.000Z</time></trkpt><trkpt lon="15.5422959" lat="46.4920038"><ele>1054</ele><time>2019-09-10T16:22:05.000Z</time></trkpt><trkpt lon="15.5421981" lat="46.4919654"><ele>1055</ele><time>2019-09-10T16:22:06.000Z</time></trkpt><trkpt lon="15.5421981" lat="46.4919654"><ele>1055</ele><time>2019-09-10T16:22:07.000Z</time></trkpt><trkpt lon="15.542102" lat="46.4919339"><ele>1056</ele><time>2019-09-10T16:22:08.000Z</time></trkpt><trkpt lon="15.542102" lat="46.4919339"><ele>1056</ele><time>2019-09-10T16:22:09.000Z</time></trkpt><trkpt lon="15.5420283" lat="46.4919168"><ele>1056</ele><time>2019-09-10T16:22:10.000Z</time></trkpt><trkpt lon="15.5419878" lat="46.4919076"><ele>1056</ele><time>2019-09-10T16:22:11.000Z</time></trkpt><trkpt lon="15.5419461" lat="46.4919008"><ele>1056</ele><time>2019-09-10T16:22:12.000Z</time></trkpt><trkpt lon="15.5419461" lat="46.4919008"><ele>1056</ele><time>2019-09-10T16:22:13.000Z</time></trkpt><trkpt lon="15.5418797" lat="46.491891"><ele>1057</ele><time>2019-09-10T16:22:14.000Z</time></trkpt><trkpt lon="15.5418797" lat="46.491891"><ele>1057</ele><time>2019-09-10T16:22:15.000Z</time></trkpt><trkpt lon="15.5418084" lat="46.4918849"><ele>1057</ele><time>2019-09-10T16:22:16.000Z</time></trkpt><trkpt lon="15.5418084" lat="46.4918849"><ele>1057</ele><time>2019-09-10T16:22:17.000Z</time></trkpt><trkpt lon="15.5417195" lat="46.4918818"><ele>1058</ele><time>2019-09-10T16:22:18.000Z</time></trkpt><trkpt lon="15.5417195" lat="46.4918818"><ele>1058</ele><time>2019-09-10T16:22:19.000Z</time></trkpt><trkpt lon="15.5416436" lat="46.4918864"><ele>1058</ele><time>2019-09-10T16:22:20.000Z</time></trkpt><trkpt lon="15.5416436" lat="46.4918864"><ele>1058</ele><time>2019-09-10T16:22:21.000Z</time></trkpt><trkpt lon="15.5415772" lat="46.4918888"><ele>1059</ele><time>2019-09-10T16:22:22.000Z</time></trkpt><trkpt lon="15.5415772" lat="46.4918888"><ele>1059</ele><time>2019-09-10T16:22:23.000Z</time></trkpt><trkpt lon="15.5415106" lat="46.4918802"><ele>1060</ele><time>2019-09-10T16:22:24.000Z</time></trkpt><trkpt lon="15.5415106" lat="46.4918802"><ele>1060</ele><time>2019-09-10T16:22:25.000Z</time></trkpt><trkpt lon="15.5414396" lat="46.4918744"><ele>1060</ele><time>2019-09-10T16:22:26.000Z</time></trkpt><trkpt lon="15.5414396" lat="46.4918744"><ele>1060</ele><time>2019-09-10T16:22:27.000Z</time></trkpt><trkpt lon="15.5413704" lat="46.4918738"><ele>1060</ele><time>2019-09-10T16:22:28.000Z</time></trkpt><trkpt lon="15.5413704" lat="46.4918738"><ele>1060</ele><time>2019-09-10T16:22:29.000Z</time></trkpt><trkpt lon="15.5413033" lat="46.4918775"><ele>1061</ele><time>2019-09-10T16:22:30.000Z</time></trkpt><trkpt lon="15.5413033" lat="46.4918775"><ele>1061</ele><time>2019-09-10T16:22:31.000Z</time></trkpt><trkpt lon="15.5412445" lat="46.491883"><ele>1061</ele><time>2019-09-10T16:22:32.000Z</time></trkpt><trkpt lon="15.5412445" lat="46.491883"><ele>1061</ele><time>2019-09-10T16:22:33.000Z</time></trkpt><trkpt lon="15.541181" lat="46.4918898"><ele>1061</ele><time>2019-09-10T16:22:34.000Z</time></trkpt><trkpt lon="15.541181" lat="46.4918898"><ele>1061</ele><time>2019-09-10T16:22:35.000Z</time></trkpt><trkpt lon="15.5410992" lat="46.4918939"><ele>1062</ele><time>2019-09-10T16:22:36.000Z</time></trkpt><trkpt lon="15.5410992" lat="46.4918939"><ele>1062</ele><time>2019-09-10T16:22:37.000Z</time></trkpt><trkpt lon="15.5410121" lat="46.4918868"><ele>1063</ele><time>2019-09-10T16:22:38.000Z</time></trkpt><trkpt lon="15.5409712" lat="46.4918836"><ele>1062</ele><time>2019-09-10T16:22:39.000Z</time></trkpt><trkpt lon="15.5409712" lat="46.4918836"><ele>1062</ele><time>2019-09-10T16:22:40.000Z</time></trkpt><trkpt lon="15.5408891" lat="46.4918778"><ele>1063</ele><time>2019-09-10T16:22:41.000Z</time></trkpt><trkpt lon="15.5408891" lat="46.4918778"><ele>1063</ele><time>2019-09-10T16:22:42.000Z</time></trkpt><trkpt lon="15.5408111" lat="46.4918676"><ele>1063</ele><time>2019-09-10T16:22:43.000Z</time></trkpt><trkpt lon="15.5407696" lat="46.491865"><ele>1063</ele><time>2019-09-10T16:22:44.000Z</time></trkpt><trkpt lon="15.5407287" lat="46.49186"><ele>1063</ele><time>2019-09-10T16:22:45.000Z</time></trkpt><trkpt lon="15.5407287" lat="46.49186"><ele>1063</ele><time>2019-09-10T16:22:46.000Z</time></trkpt><trkpt lon="15.5406354" lat="46.4918559"><ele>1064</ele><time>2019-09-10T16:22:47.000Z</time></trkpt><trkpt lon="15.540595" lat="46.4918543"><ele>1064</ele><time>2019-09-10T16:22:48.000Z</time></trkpt><trkpt lon="15.5405532" lat="46.4918538"><ele>1065</ele><time>2019-09-10T16:22:49.000Z</time></trkpt><trkpt lon="15.5405532" lat="46.4918538"><ele>1065</ele><time>2019-09-10T16:22:50.000Z</time></trkpt><trkpt lon="15.540471" lat="46.4918541"><ele>1065</ele><time>2019-09-10T16:22:51.000Z</time></trkpt><trkpt lon="15.5404291" lat="46.4918545"><ele>1066</ele><time>2019-09-10T16:22:52.000Z</time></trkpt><trkpt lon="15.5404291" lat="46.4918545"><ele>1066</ele><time>2019-09-10T16:22:53.000Z</time></trkpt><trkpt lon="15.5403502" lat="46.4918572"><ele>1066</ele><time>2019-09-10T16:22:54.000Z</time></trkpt><trkpt lon="15.5403502" lat="46.4918572"><ele>1066</ele><time>2019-09-10T16:22:55.000Z</time></trkpt><trkpt lon="15.5402649" lat="46.4918619"><ele>1066</ele><time>2019-09-10T16:22:56.000Z</time></trkpt><trkpt lon="15.5402241" lat="46.4918649"><ele>1066</ele><time>2019-09-10T16:22:57.000Z</time></trkpt><trkpt lon="15.5402241" lat="46.4918649"><ele>1066</ele><time>2019-09-10T16:22:58.000Z</time></trkpt><trkpt lon="15.5401457" lat="46.4918765"><ele>1067</ele><time>2019-09-10T16:22:59.000Z</time></trkpt><trkpt lon="15.5401075" lat="46.4918833"><ele>1067</ele><time>2019-09-10T16:23:00.000Z</time></trkpt><trkpt lon="15.5400695" lat="46.4918905"><ele>1067</ele><time>2019-09-10T16:23:01.000Z</time></trkpt><trkpt lon="15.5400695" lat="46.4918905"><ele>1067</ele><time>2019-09-10T16:23:02.000Z</time></trkpt><trkpt lon="15.539993" lat="46.4919096"><ele>1068</ele><time>2019-09-10T16:23:03.000Z</time></trkpt><trkpt lon="15.5399545" lat="46.4919194"><ele>1068</ele><time>2019-09-10T16:23:04.000Z</time></trkpt><trkpt lon="15.5399545" lat="46.4919194"><ele>1068</ele><time>2019-09-10T16:23:05.000Z</time></trkpt><trkpt lon="15.5398872" lat="46.4919361"><ele>1068</ele><time>2019-09-10T16:23:06.000Z</time></trkpt><trkpt lon="15.5398492" lat="46.4919462"><ele>1068</ele><time>2019-09-10T16:23:07.000Z</time></trkpt><trkpt lon="15.5397931" lat="46.4919615"><ele>1069</ele><time>2019-09-10T16:23:08.000Z</time></trkpt><trkpt lon="15.5397931" lat="46.4919615"><ele>1069</ele><time>2019-09-10T16:23:09.000Z</time></trkpt><trkpt lon="15.5397063" lat="46.4919833"><ele>1069</ele><time>2019-09-10T16:23:10.000Z</time></trkpt><trkpt lon="15.5397063" lat="46.4919833"><ele>1069</ele><time>2019-09-10T16:23:11.000Z</time></trkpt><trkpt lon="15.5396129" lat="46.4920049"><ele>1070</ele><time>2019-09-10T16:23:12.000Z</time></trkpt><trkpt lon="15.539573" lat="46.4920147"><ele>1070</ele><time>2019-09-10T16:23:13.000Z</time></trkpt><trkpt lon="15.5395266" lat="46.4920252"><ele>1070</ele><time>2019-09-10T16:23:14.000Z</time></trkpt><trkpt lon="15.5395266" lat="46.4920252"><ele>1070</ele><time>2019-09-10T16:23:15.000Z</time></trkpt><trkpt lon="15.5394479" lat="46.4920443"><ele>1071</ele><time>2019-09-10T16:23:16.000Z</time></trkpt><trkpt lon="15.5393915" lat="46.4920576"><ele>1071</ele><time>2019-09-10T16:23:17.000Z</time></trkpt><trkpt lon="15.5393437" lat="46.4920679"><ele>1071</ele><time>2019-09-10T16:23:19.000Z</time></trkpt><trkpt lon="15.5393437" lat="46.4920679"><ele>1071</ele><time>2019-09-10T16:23:20.000Z</time></trkpt><trkpt lon="15.5392474" lat="46.4920883"><ele>1071</ele><time>2019-09-10T16:23:21.000Z</time></trkpt><trkpt lon="15.5392474" lat="46.4920883"><ele>1071</ele><time>2019-09-10T16:23:22.000Z</time></trkpt><trkpt lon="15.5391525" lat="46.4921111"><ele>1072</ele><time>2019-09-10T16:23:23.000Z</time></trkpt><trkpt lon="15.5391525" lat="46.4921111"><ele>1072</ele><time>2019-09-10T16:23:24.000Z</time></trkpt><trkpt lon="15.5390735" lat="46.4921286"><ele>1072</ele><time>2019-09-10T16:23:25.000Z</time></trkpt><trkpt lon="15.5390325" lat="46.4921376"><ele>1072</ele><time>2019-09-10T16:23:26.000Z</time></trkpt><trkpt lon="15.5390325" lat="46.4921376"><ele>1072</ele><time>2019-09-10T16:23:27.000Z</time></trkpt><trkpt lon="15.5389109" lat="46.4921677"><ele>1073</ele><time>2019-09-10T16:23:28.000Z</time></trkpt><trkpt lon="15.5389109" lat="46.4921677"><ele>1073</ele><time>2019-09-10T16:23:29.000Z</time></trkpt><trkpt lon="15.5388334" lat="46.4921866"><ele>1073</ele><time>2019-09-10T16:23:30.000Z</time></trkpt><trkpt lon="15.5388334" lat="46.4921866"><ele>1073</ele><time>2019-09-10T16:23:31.000Z</time></trkpt><trkpt lon="15.5387425" lat="46.4922069"><ele>1073</ele><time>2019-09-10T16:23:32.000Z</time></trkpt><trkpt lon="15.5386948" lat="46.4922161"><ele>1073</ele><time>2019-09-10T16:23:33.000Z</time></trkpt><trkpt lon="15.5386948" lat="46.4922161"><ele>1073</ele><time>2019-09-10T16:23:34.000Z</time></trkpt><trkpt lon="15.5386179" lat="46.4922334"><ele>1073</ele><time>2019-09-10T16:23:35.000Z</time></trkpt><trkpt lon="15.5386179" lat="46.4922334"><ele>1073</ele><time>2019-09-10T16:23:36.000Z</time></trkpt><trkpt lon="15.5385228" lat="46.4922556"><ele>1074</ele><time>2019-09-10T16:23:37.000Z</time></trkpt><trkpt lon="15.538476" lat="46.4922661"><ele>1074</ele><time>2019-09-10T16:23:38.000Z</time></trkpt><trkpt lon="15.5384298" lat="46.4922752"><ele>1075</ele><time>2019-09-10T16:23:39.000Z</time></trkpt><trkpt lon="15.5384298" lat="46.4922752"><ele>1075</ele><time>2019-09-10T16:23:40.000Z</time></trkpt><trkpt lon="15.5383212" lat="46.492296"><ele>1075</ele><time>2019-09-10T16:23:41.000Z</time></trkpt><trkpt lon="15.5382736" lat="46.4923022"><ele>1075</ele><time>2019-09-10T16:23:42.000Z</time></trkpt><trkpt lon="15.5382736" lat="46.4923022"><ele>1075</ele><time>2019-09-10T16:23:43.000Z</time></trkpt><trkpt lon="15.5381784" lat="46.4923121"><ele>1076</ele><time>2019-09-10T16:23:44.000Z</time></trkpt><trkpt lon="15.5381784" lat="46.4923121"><ele>1076</ele><time>2019-09-10T16:23:45.000Z</time></trkpt><trkpt lon="15.5380334" lat="46.4923133"><ele>1076</ele><time>2019-09-10T16:23:46.000Z</time></trkpt><trkpt lon="15.5380334" lat="46.4923133"><ele>1076</ele><time>2019-09-10T16:23:47.000Z</time></trkpt><trkpt lon="15.5379758" lat="46.4923058"><ele>1076</ele><time>2019-09-10T16:23:48.000Z</time></trkpt><trkpt lon="15.537937" lat="46.4922994"><ele>1076</ele><time>2019-09-10T16:23:49.000Z</time></trkpt><trkpt lon="15.537937" lat="46.4922994"><ele>1076</ele><time>2019-09-10T16:23:50.000Z</time></trkpt><trkpt lon="15.537855" lat="46.4922762"><ele>1077</ele><time>2019-09-10T16:23:51.000Z</time></trkpt><trkpt lon="15.537855" lat="46.4922762"><ele>1077</ele><time>2019-09-10T16:23:52.000Z</time></trkpt><trkpt lon="15.5377539" lat="46.4922312"><ele>1077</ele><time>2019-09-10T16:23:53.000Z</time></trkpt><trkpt lon="15.5377539" lat="46.4922312"><ele>1077</ele><time>2019-09-10T16:23:54.000Z</time></trkpt><trkpt lon="15.5376945" lat="46.4921877"><ele>1078</ele><time>2019-09-10T16:23:55.000Z</time></trkpt><trkpt lon="15.5376945" lat="46.4921877"><ele>1078</ele><time>2019-09-10T16:23:56.000Z</time></trkpt><trkpt lon="15.5376124" lat="46.4920926"><ele>1078</ele><time>2019-09-10T16:23:57.000Z</time></trkpt><trkpt lon="15.5376124" lat="46.4920926"><ele>1078</ele><time>2019-09-10T16:23:58.000Z</time></trkpt><trkpt lon="15.5375885" lat="46.4920472"><ele>1077</ele><time>2019-09-10T16:23:59.000Z</time></trkpt><trkpt lon="15.5375885" lat="46.4920472"><ele>1077</ele><time>2019-09-10T16:24:00.000Z</time></trkpt><trkpt lon="15.5375662" lat="46.49199"><ele>1078</ele><time>2019-09-10T16:24:01.000Z</time></trkpt><trkpt lon="15.5375662" lat="46.49199"><ele>1078</ele><time>2019-09-10T16:24:02.000Z</time></trkpt><trkpt lon="15.5375504" lat="46.4919452"><ele>1078</ele><time>2019-09-10T16:24:03.000Z</time></trkpt><trkpt lon="15.5375504" lat="46.4919452"><ele>1078</ele><time>2019-09-10T16:24:04.000Z</time></trkpt><trkpt lon="15.5375408" lat="46.4919011"><ele>1079</ele><time>2019-09-10T16:24:05.000Z</time></trkpt><trkpt lon="15.5375408" lat="46.4919011"><ele>1079</ele><time>2019-09-10T16:24:06.000Z</time></trkpt><trkpt lon="15.5375235" lat="46.491841"><ele>1079</ele><time>2019-09-10T16:24:07.000Z</time></trkpt><trkpt lon="15.5375128" lat="46.4918063"><ele>1079</ele><time>2019-09-10T16:24:08.000Z</time></trkpt><trkpt lon="15.5375026" lat="46.4917708"><ele>1079</ele><time>2019-09-10T16:24:09.000Z</time></trkpt><trkpt lon="15.5375026" lat="46.4917708"><ele>1079</ele><time>2019-09-10T16:24:10.000Z</time></trkpt><trkpt lon="15.537477" lat="46.4917002"><ele>1079</ele><time>2019-09-10T16:24:11.000Z</time></trkpt><trkpt lon="15.5374634" lat="46.491665"><ele>1079</ele><time>2019-09-10T16:24:12.000Z</time></trkpt><trkpt lon="15.5374476" lat="46.4916305"><ele>1080</ele><time>2019-09-10T16:24:13.000Z</time></trkpt><trkpt lon="15.5374476" lat="46.4916305"><ele>1080</ele><time>2019-09-10T16:24:14.000Z</time></trkpt><trkpt lon="15.5373959" lat="46.4915235"><ele>1080</ele><time>2019-09-10T16:24:15.000Z</time></trkpt><trkpt lon="15.5373959" lat="46.4915235"><ele>1080</ele><time>2019-09-10T16:24:16.000Z</time></trkpt><trkpt lon="15.5373781" lat="46.4914785"><ele>1080</ele><time>2019-09-10T16:24:17.000Z</time></trkpt><trkpt lon="15.5373781" lat="46.4914785"><ele>1080</ele><time>2019-09-10T16:24:18.000Z</time></trkpt><trkpt lon="15.5373365" lat="46.491381"><ele>1081</ele><time>2019-09-10T16:24:19.000Z</time></trkpt><trkpt lon="15.5373365" lat="46.491381"><ele>1081</ele><time>2019-09-10T16:24:20.000Z</time></trkpt><trkpt lon="15.5372864" lat="46.4913082"><ele>1081</ele><time>2019-09-10T16:24:21.000Z</time></trkpt><trkpt lon="15.5372864" lat="46.4913082"><ele>1081</ele><time>2019-09-10T16:24:22.000Z</time></trkpt><trkpt lon="15.5372235" lat="46.4912457"><ele>1080</ele><time>2019-09-10T16:24:23.000Z</time></trkpt><trkpt lon="15.5371844" lat="46.4912206"><ele>1080</ele><time>2019-09-10T16:24:24.000Z</time></trkpt><trkpt lon="15.5371844" lat="46.4912206"><ele>1080</ele><time>2019-09-10T16:24:25.000Z</time></trkpt><trkpt lon="15.5370992" lat="46.4911792"><ele>1081</ele><time>2019-09-10T16:24:26.000Z</time></trkpt><trkpt lon="15.5370494" lat="46.4911653"><ele>1082</ele><time>2019-09-10T16:24:27.000Z</time></trkpt><trkpt lon="15.5369939" lat="46.4911605"><ele>1082</ele><time>2019-09-10T16:24:28.000Z</time></trkpt><trkpt lon="15.5369939" lat="46.4911605"><ele>1082</ele><time>2019-09-10T16:24:29.000Z</time></trkpt><trkpt lon="15.5368871" lat="46.491164"><ele>1082</ele><time>2019-09-10T16:24:30.000Z</time></trkpt><trkpt lon="15.5368871" lat="46.491164"><ele>1082</ele><time>2019-09-10T16:24:31.000Z</time></trkpt><trkpt lon="15.5367891" lat="46.4911697"><ele>1083</ele><time>2019-09-10T16:24:32.000Z</time></trkpt><trkpt lon="15.5367375" lat="46.4911754"><ele>1083</ele><time>2019-09-10T16:24:33.000Z</time></trkpt><trkpt lon="15.5367375" lat="46.4911754"><ele>1083</ele><time>2019-09-10T16:24:34.000Z</time></trkpt><trkpt lon="15.5366337" lat="46.4911884"><ele>1083</ele><time>2019-09-10T16:24:35.000Z</time></trkpt><trkpt lon="15.5366337" lat="46.4911884"><ele>1083</ele><time>2019-09-10T16:24:36.000Z</time></trkpt><trkpt lon="15.5365297" lat="46.4911943"><ele>1083</ele><time>2019-09-10T16:24:37.000Z</time></trkpt><trkpt lon="15.5365297" lat="46.4911943"><ele>1083</ele><time>2019-09-10T16:24:38.000Z</time></trkpt><trkpt lon="15.5364601" lat="46.4911984"><ele>1084</ele><time>2019-09-10T16:24:39.000Z</time></trkpt><trkpt lon="15.5364153" lat="46.4912016"><ele>1084</ele><time>2019-09-10T16:24:40.000Z</time></trkpt><trkpt lon="15.5364153" lat="46.4912016"><ele>1084</ele><time>2019-09-10T16:24:41.000Z</time></trkpt><trkpt lon="15.5363182" lat="46.4912044"><ele>1085</ele><time>2019-09-10T16:24:42.000Z</time></trkpt><trkpt lon="15.5363182" lat="46.4912044"><ele>1085</ele><time>2019-09-10T16:24:43.000Z</time></trkpt><trkpt lon="15.5361942" lat="46.4911962"><ele>1086</ele><time>2019-09-10T16:24:44.000Z</time></trkpt><trkpt lon="15.5361199" lat="46.4911886"><ele>1086</ele><time>2019-09-10T16:24:45.000Z</time></trkpt><trkpt lon="15.5361199" lat="46.4911886"><ele>1086</ele><time>2019-09-10T16:24:46.000Z</time></trkpt><trkpt lon="15.536051" lat="46.4911779"><ele>1086</ele><time>2019-09-10T16:24:47.000Z</time></trkpt><trkpt lon="15.536051" lat="46.4911779"><ele>1086</ele><time>2019-09-10T16:24:48.000Z</time></trkpt><trkpt lon="15.5359194" lat="46.491158"><ele>1086</ele><time>2019-09-10T16:24:49.000Z</time></trkpt><trkpt lon="15.5359194" lat="46.491158"><ele>1086</ele><time>2019-09-10T16:24:50.000Z</time></trkpt><trkpt lon="15.5358174" lat="46.491141"><ele>1087</ele><time>2019-09-10T16:24:51.000Z</time></trkpt><trkpt lon="15.5358174" lat="46.491141"><ele>1087</ele><time>2019-09-10T16:24:52.000Z</time></trkpt><trkpt lon="15.5357141" lat="46.491128"><ele>1088</ele><time>2019-09-10T16:24:53.000Z</time></trkpt><trkpt lon="15.5357141" lat="46.491128"><ele>1088</ele><time>2019-09-10T16:24:54.000Z</time></trkpt><trkpt lon="15.5356314" lat="46.491121"><ele>1088</ele><time>2019-09-10T16:24:55.000Z</time></trkpt><trkpt lon="15.5356314" lat="46.491121"><ele>1088</ele><time>2019-09-10T16:24:56.000Z</time></trkpt><trkpt lon="15.5355282" lat="46.4911187"><ele>1089</ele><time>2019-09-10T16:24:57.000Z</time></trkpt><trkpt lon="15.5355282" lat="46.4911187"><ele>1089</ele><time>2019-09-10T16:24:58.000Z</time></trkpt><trkpt lon="15.5354238" lat="46.4911196"><ele>1089</ele><time>2019-09-10T16:24:59.000Z</time></trkpt><trkpt lon="15.5354238" lat="46.4911196"><ele>1089</ele><time>2019-09-10T16:25:00.000Z</time></trkpt><trkpt lon="15.5353211" lat="46.4911253"><ele>1089</ele><time>2019-09-10T16:25:01.000Z</time></trkpt><trkpt lon="15.5352714" lat="46.4911277"><ele>1089</ele><time>2019-09-10T16:25:02.000Z</time></trkpt><trkpt lon="15.535222" lat="46.491135"><ele>1089</ele><time>2019-09-10T16:25:03.000Z</time></trkpt><trkpt lon="15.535222" lat="46.491135"><ele>1089</ele><time>2019-09-10T16:25:04.000Z</time></trkpt><trkpt lon="15.5351256" lat="46.491147"><ele>1090</ele><time>2019-09-10T16:25:05.000Z</time></trkpt><trkpt lon="15.5350741" lat="46.4911471"><ele>1090</ele><time>2019-09-10T16:25:06.000Z</time></trkpt><trkpt lon="15.5350741" lat="46.4911471"><ele>1090</ele><time>2019-09-10T16:25:07.000Z</time></trkpt><trkpt lon="15.5349783" lat="46.4911459"><ele>1091</ele><time>2019-09-10T16:25:08.000Z</time></trkpt><trkpt lon="15.5349783" lat="46.4911459"><ele>1091</ele><time>2019-09-10T16:25:09.000Z</time></trkpt><trkpt lon="15.534883" lat="46.4911442"><ele>1091</ele><time>2019-09-10T16:25:10.000Z</time></trkpt><trkpt lon="15.534883" lat="46.4911442"><ele>1091</ele><time>2019-09-10T16:25:11.000Z</time></trkpt><trkpt lon="15.5347863" lat="46.4911392"><ele>1091</ele><time>2019-09-10T16:25:12.000Z</time></trkpt><trkpt lon="15.5347348" lat="46.4911363"><ele>1092</ele><time>2019-09-10T16:25:13.000Z</time></trkpt><trkpt lon="15.5346839" lat="46.4911314"><ele>1093</ele><time>2019-09-10T16:25:14.000Z</time></trkpt><trkpt lon="15.5346839" lat="46.4911314"><ele>1093</ele><time>2019-09-10T16:25:15.000Z</time></trkpt><trkpt lon="15.5345806" lat="46.4911219"><ele>1093</ele><time>2019-09-10T16:25:16.000Z</time></trkpt><trkpt lon="15.5345286" lat="46.4911196"><ele>1093</ele><time>2019-09-10T16:25:17.000Z</time></trkpt><trkpt lon="15.5345286" lat="46.4911196"><ele>1093</ele><time>2019-09-10T16:25:18.000Z</time></trkpt><trkpt lon="15.5344278" lat="46.491112"><ele>1094</ele><time>2019-09-10T16:25:19.000Z</time></trkpt><trkpt lon="15.5343761" lat="46.4911063"><ele>1094</ele><time>2019-09-10T16:25:20.000Z</time></trkpt><trkpt lon="15.5343761" lat="46.4911063"><ele>1094</ele><time>2019-09-10T16:25:21.000Z</time></trkpt><trkpt lon="15.5342728" lat="46.4910931"><ele>1094</ele><time>2019-09-10T16:25:22.000Z</time></trkpt><trkpt lon="15.5342263" lat="46.4910853"><ele>1094</ele><time>2019-09-10T16:25:23.000Z</time></trkpt><trkpt lon="15.5342263" lat="46.4910853"><ele>1094</ele><time>2019-09-10T16:25:24.000Z</time></trkpt><trkpt lon="15.5341316" lat="46.4910805"><ele>1095</ele><time>2019-09-10T16:25:25.000Z</time></trkpt><trkpt lon="15.5341316" lat="46.4910805"><ele>1095</ele><time>2019-09-10T16:25:26.000Z</time></trkpt><trkpt lon="15.5340212" lat="46.4910848"><ele>1095</ele><time>2019-09-10T16:25:27.000Z</time></trkpt><trkpt lon="15.5340212" lat="46.4910848"><ele>1095</ele><time>2019-09-10T16:25:28.000Z</time></trkpt><trkpt lon="15.5339212" lat="46.4910895"><ele>1096</ele><time>2019-09-10T16:25:29.000Z</time></trkpt><trkpt lon="15.5338692" lat="46.4910926"><ele>1096</ele><time>2019-09-10T16:25:30.000Z</time></trkpt><trkpt lon="15.5338173" lat="46.4910964"><ele>1097</ele><time>2019-09-10T16:25:31.000Z</time></trkpt><trkpt lon="15.5338173" lat="46.4910964"><ele>1097</ele><time>2019-09-10T16:25:32.000Z</time></trkpt><trkpt lon="15.5337168" lat="46.4911064"><ele>1097</ele><time>2019-09-10T16:25:33.000Z</time></trkpt><trkpt lon="15.5337168" lat="46.4911064"><ele>1097</ele><time>2019-09-10T16:25:34.000Z</time></trkpt><trkpt lon="15.5336189" lat="46.4911143"><ele>1098</ele><time>2019-09-10T16:25:35.000Z</time></trkpt><trkpt lon="15.5335717" lat="46.4911208"><ele>1098</ele><time>2019-09-10T16:25:36.000Z</time></trkpt><trkpt lon="15.5335717" lat="46.4911208"><ele>1098</ele><time>2019-09-10T16:25:37.000Z</time></trkpt><trkpt lon="15.5334797" lat="46.4911358"><ele>1099</ele><time>2019-09-10T16:25:38.000Z</time></trkpt><trkpt lon="15.5334797" lat="46.4911358"><ele>1099</ele><time>2019-09-10T16:25:39.000Z</time></trkpt><trkpt lon="15.5333951" lat="46.4911499"><ele>1099</ele><time>2019-09-10T16:25:40.000Z</time></trkpt><trkpt lon="15.5333951" lat="46.4911499"><ele>1099</ele><time>2019-09-10T16:25:41.000Z</time></trkpt><trkpt lon="15.5333175" lat="46.4911649"><ele>1099</ele><time>2019-09-10T16:25:42.000Z</time></trkpt><trkpt lon="15.5333175" lat="46.4911649"><ele>1099</ele><time>2019-09-10T16:25:43.000Z</time></trkpt><trkpt lon="15.5332487" lat="46.4911828"><ele>1100</ele><time>2019-09-10T16:25:44.000Z</time></trkpt><trkpt lon="15.5332487" lat="46.4911828"><ele>1100</ele><time>2019-09-10T16:25:45.000Z</time></trkpt><trkpt lon="15.533182" lat="46.4912009"><ele>1100</ele><time>2019-09-10T16:25:46.000Z</time></trkpt><trkpt lon="15.533182" lat="46.4912009"><ele>1100</ele><time>2019-09-10T16:25:47.000Z</time></trkpt><trkpt lon="15.5331139" lat="46.4912187"><ele>1101</ele><time>2019-09-10T16:25:48.000Z</time></trkpt><trkpt lon="15.5331139" lat="46.4912187"><ele>1101</ele><time>2019-09-10T16:25:49.000Z</time></trkpt><trkpt lon="15.533042" lat="46.4912383"><ele>1100</ele><time>2019-09-10T16:25:50.000Z</time></trkpt><trkpt lon="15.533042" lat="46.4912383"><ele>1100</ele><time>2019-09-10T16:25:51.000Z</time></trkpt><trkpt lon="15.5329702" lat="46.4912597"><ele>1101</ele><time>2019-09-10T16:25:52.000Z</time></trkpt><trkpt lon="15.5329702" lat="46.4912597"><ele>1101</ele><time>2019-09-10T16:25:53.000Z</time></trkpt><trkpt lon="15.5328995" lat="46.4912783"><ele>1101</ele><time>2019-09-10T16:25:54.000Z</time></trkpt><trkpt lon="15.5328995" lat="46.4912783"><ele>1101</ele><time>2019-09-10T16:25:55.000Z</time></trkpt><trkpt lon="15.5328254" lat="46.4912915"><ele>1101</ele><time>2019-09-10T16:25:56.000Z</time></trkpt><trkpt lon="15.5328254" lat="46.4912915"><ele>1101</ele><time>2019-09-10T16:25:57.000Z</time></trkpt><trkpt lon="15.5327462" lat="46.4913"><ele>1102</ele><time>2019-09-10T16:25:58.000Z</time></trkpt><trkpt lon="15.5327062" lat="46.4913037"><ele>1102</ele><time>2019-09-10T16:25:59.000Z</time></trkpt><trkpt lon="15.5327062" lat="46.4913037"><ele>1102</ele><time>2019-09-10T16:26:00.000Z</time></trkpt><trkpt lon="15.5326268" lat="46.4913072"><ele>1102</ele><time>2019-09-10T16:26:01.000Z</time></trkpt><trkpt lon="15.532587" lat="46.4913074"><ele>1102</ele><time>2019-09-10T16:26:02.000Z</time></trkpt><trkpt lon="15.532587" lat="46.4913074"><ele>1102</ele><time>2019-09-10T16:26:03.000Z</time></trkpt><trkpt lon="15.5325104" lat="46.4913024"><ele>1103</ele><time>2019-09-10T16:26:04.000Z</time></trkpt><trkpt lon="15.5325104" lat="46.4913024"><ele>1103</ele><time>2019-09-10T16:26:05.000Z</time></trkpt><trkpt lon="15.5324382" lat="46.4912918"><ele>1103</ele><time>2019-09-10T16:26:06.000Z</time></trkpt><trkpt lon="15.5324382" lat="46.4912918"><ele>1103</ele><time>2019-09-10T16:26:07.000Z</time></trkpt><trkpt lon="15.5323695" lat="46.4912659"><ele>1104</ele><time>2019-09-10T16:26:08.000Z</time></trkpt><trkpt lon="15.5323329" lat="46.4912506"><ele>1105</ele><time>2019-09-10T16:26:09.000Z</time></trkpt><trkpt lon="15.5323329" lat="46.4912506"><ele>1105</ele><time>2019-09-10T16:26:10.000Z</time></trkpt><trkpt lon="15.5322615" lat="46.4912182"><ele>1105</ele><time>2019-09-10T16:26:11.000Z</time></trkpt><trkpt lon="15.5322273" lat="46.4912028"><ele>1105</ele><time>2019-09-10T16:26:12.000Z</time></trkpt><trkpt lon="15.5321938" lat="46.4911872"><ele>1105</ele><time>2019-09-10T16:26:13.000Z</time></trkpt><trkpt lon="15.5321606" lat="46.491171"><ele>1105</ele><time>2019-09-10T16:26:14.000Z</time></trkpt><trkpt lon="15.5321606" lat="46.491171"><ele>1105</ele><time>2019-09-10T16:26:15.000Z</time></trkpt><trkpt lon="15.5320936" lat="46.4911423"><ele>1106</ele><time>2019-09-10T16:26:16.000Z</time></trkpt><trkpt lon="15.5320936" lat="46.4911423"><ele>1106</ele><time>2019-09-10T16:26:17.000Z</time></trkpt><trkpt lon="15.5320263" lat="46.4911158"><ele>1106</ele><time>2019-09-10T16:26:18.000Z</time></trkpt><trkpt lon="15.5320263" lat="46.4911158"><ele>1106</ele><time>2019-09-10T16:26:19.000Z</time></trkpt><trkpt lon="15.5319458" lat="46.4910922"><ele>1106</ele><time>2019-09-10T16:26:20.000Z</time></trkpt><trkpt lon="15.5319458" lat="46.4910922"><ele>1106</ele><time>2019-09-10T16:26:21.000Z</time></trkpt><trkpt lon="15.5318769" lat="46.4910754"><ele>1107</ele><time>2019-09-10T16:26:22.000Z</time></trkpt><trkpt lon="15.5318388" lat="46.4910683"><ele>1107</ele><time>2019-09-10T16:26:23.000Z</time></trkpt><trkpt lon="15.5317991" lat="46.4910616"><ele>1107</ele><time>2019-09-10T16:26:24.000Z</time></trkpt><trkpt lon="15.5317596" lat="46.4910552"><ele>1107</ele><time>2019-09-10T16:26:25.000Z</time></trkpt><trkpt lon="15.531719" lat="46.49105"><ele>1107</ele><time>2019-09-10T16:26:26.000Z</time></trkpt><trkpt lon="15.531719" lat="46.49105"><ele>1107</ele><time>2019-09-10T16:26:27.000Z</time></trkpt><trkpt lon="15.5316358" lat="46.4910453"><ele>1108</ele><time>2019-09-10T16:26:28.000Z</time></trkpt><trkpt lon="15.5315966" lat="46.491044"><ele>1108</ele><time>2019-09-10T16:26:29.000Z</time></trkpt><trkpt lon="15.5315567" lat="46.4910432"><ele>1108</ele><time>2019-09-10T16:26:30.000Z</time></trkpt><trkpt lon="15.5315567" lat="46.4910432"><ele>1108</ele><time>2019-09-10T16:26:31.000Z</time></trkpt><trkpt lon="15.5314771" lat="46.4910452"><ele>1108</ele><time>2019-09-10T16:26:32.000Z</time></trkpt><trkpt lon="15.5314771" lat="46.4910452"><ele>1108</ele><time>2019-09-10T16:26:33.000Z</time></trkpt><trkpt lon="15.5313996" lat="46.4910457"><ele>1109</ele><time>2019-09-10T16:26:34.000Z</time></trkpt><trkpt lon="15.5313595" lat="46.4910495"><ele>1109</ele><time>2019-09-10T16:26:35.000Z</time></trkpt><trkpt lon="15.5313595" lat="46.4910495"><ele>1109</ele><time>2019-09-10T16:26:36.000Z</time></trkpt><trkpt lon="15.5312798" lat="46.4910617"><ele>1109</ele><time>2019-09-10T16:26:37.000Z</time></trkpt><trkpt lon="15.5312798" lat="46.4910617"><ele>1109</ele><time>2019-09-10T16:26:38.000Z</time></trkpt><trkpt lon="15.5312013" lat="46.491077"><ele>1110</ele><time>2019-09-10T16:26:39.000Z</time></trkpt><trkpt lon="15.5311629" lat="46.4910868"><ele>1110</ele><time>2019-09-10T16:26:40.000Z</time></trkpt><trkpt lon="15.5311243" lat="46.4910941"><ele>1110</ele><time>2019-09-10T16:26:41.000Z</time></trkpt><trkpt lon="15.5311243" lat="46.4910941"><ele>1110</ele><time>2019-09-10T16:26:42.000Z</time></trkpt><trkpt lon="15.5310536" lat="46.4911148"><ele>1110</ele><time>2019-09-10T16:26:43.000Z</time></trkpt><trkpt lon="15.5310536" lat="46.4911148"><ele>1110</ele><time>2019-09-10T16:26:44.000Z</time></trkpt><trkpt lon="15.5309781" lat="46.4911315"><ele>1112</ele><time>2019-09-10T16:26:45.000Z</time></trkpt><trkpt lon="15.5309781" lat="46.4911315"><ele>1112</ele><time>2019-09-10T16:26:46.000Z</time></trkpt><trkpt lon="15.5309053" lat="46.4911563"><ele>1113</ele><time>2019-09-10T16:26:47.000Z</time></trkpt><trkpt lon="15.5308703" lat="46.4911717"><ele>1113</ele><time>2019-09-10T16:26:48.000Z</time></trkpt><trkpt lon="15.5308703" lat="46.4911717"><ele>1113</ele><time>2019-09-10T16:26:49.000Z</time></trkpt><trkpt lon="15.5308037" lat="46.4912069"><ele>1113</ele><time>2019-09-10T16:26:50.000Z</time></trkpt><trkpt lon="15.5308037" lat="46.4912069"><ele>1113</ele><time>2019-09-10T16:26:51.000Z</time></trkpt><trkpt lon="15.5307378" lat="46.4912471"><ele>1113</ele><time>2019-09-10T16:26:52.000Z</time></trkpt><trkpt lon="15.5307051" lat="46.4912695"><ele>1114</ele><time>2019-09-10T16:26:53.000Z</time></trkpt><trkpt lon="15.5307051" lat="46.4912695"><ele>1114</ele><time>2019-09-10T16:26:54.000Z</time></trkpt><trkpt lon="15.530645" lat="46.4913152"><ele>1114</ele><time>2019-09-10T16:26:55.000Z</time></trkpt><trkpt lon="15.530645" lat="46.4913152"><ele>1114</ele><time>2019-09-10T16:26:56.000Z</time></trkpt><trkpt lon="15.5305838" lat="46.4913622"><ele>1115</ele><time>2019-09-10T16:26:57.000Z</time></trkpt><trkpt lon="15.5305545" lat="46.4913849"><ele>1115</ele><time>2019-09-10T16:26:58.000Z</time></trkpt><trkpt lon="15.5305545" lat="46.4913849"><ele>1115</ele><time>2019-09-10T16:26:59.000Z</time></trkpt><trkpt lon="15.5304928" lat="46.491426"><ele>1116</ele><time>2019-09-10T16:27:00.000Z</time></trkpt><trkpt lon="15.5304604" lat="46.4914442"><ele>1116</ele><time>2019-09-10T16:27:01.000Z</time></trkpt><trkpt lon="15.5304604" lat="46.4914442"><ele>1116</ele><time>2019-09-10T16:27:02.000Z</time></trkpt><trkpt lon="15.5303899" lat="46.4914773"><ele>1116</ele><time>2019-09-10T16:27:03.000Z</time></trkpt><trkpt lon="15.53035" lat="46.4914922"><ele>1116</ele><time>2019-09-10T16:27:04.000Z</time></trkpt><trkpt lon="15.53035" lat="46.4914922"><ele>1116</ele><time>2019-09-10T16:27:05.000Z</time></trkpt><trkpt lon="15.530267" lat="46.491515"><ele>1116</ele><time>2019-09-10T16:27:06.000Z</time></trkpt><trkpt lon="15.5302251" lat="46.491521"><ele>1117</ele><time>2019-09-10T16:27:07.000Z</time></trkpt><trkpt lon="15.5302251" lat="46.491521"><ele>1117</ele><time>2019-09-10T16:27:08.000Z</time></trkpt><trkpt lon="15.5301433" lat="46.4915257"><ele>1117</ele><time>2019-09-10T16:27:09.000Z</time></trkpt><trkpt lon="15.5301433" lat="46.4915257"><ele>1117</ele><time>2019-09-10T16:27:10.000Z</time></trkpt><trkpt lon="15.530057" lat="46.4915235"><ele>1117</ele><time>2019-09-10T16:27:11.000Z</time></trkpt><trkpt lon="15.530057" lat="46.4915235"><ele>1117</ele><time>2019-09-10T16:27:12.000Z</time></trkpt><trkpt lon="15.5299731" lat="46.4915148"><ele>1118</ele><time>2019-09-10T16:27:13.000Z</time></trkpt><trkpt lon="15.5299332" lat="46.4915068"><ele>1118</ele><time>2019-09-10T16:27:14.000Z</time></trkpt><trkpt lon="15.5299332" lat="46.4915068"><ele>1118</ele><time>2019-09-10T16:27:15.000Z</time></trkpt><trkpt lon="15.5298555" lat="46.4914855"><ele>1118</ele><time>2019-09-10T16:27:16.000Z</time></trkpt><trkpt lon="15.5298555" lat="46.4914855"><ele>1118</ele><time>2019-09-10T16:27:17.000Z</time></trkpt><trkpt lon="15.5297818" lat="46.4914545"><ele>1119</ele><time>2019-09-10T16:27:18.000Z</time></trkpt><trkpt lon="15.5297818" lat="46.4914545"><ele>1119</ele><time>2019-09-10T16:27:19.000Z</time></trkpt><trkpt lon="15.5297081" lat="46.4914206"><ele>1119</ele><time>2019-09-10T16:27:20.000Z</time></trkpt><trkpt lon="15.5297081" lat="46.4914206"><ele>1119</ele><time>2019-09-10T16:27:21.000Z</time></trkpt><trkpt lon="15.5296358" lat="46.4913825"><ele>1120</ele><time>2019-09-10T16:27:22.000Z</time></trkpt><trkpt lon="15.5296358" lat="46.4913825"><ele>1120</ele><time>2019-09-10T16:27:23.000Z</time></trkpt><trkpt lon="15.5295634" lat="46.4913445"><ele>1120</ele><time>2019-09-10T16:27:24.000Z</time></trkpt><trkpt lon="15.5295246" lat="46.4913268"><ele>1120</ele><time>2019-09-10T16:27:25.000Z</time></trkpt><trkpt lon="15.5294854" lat="46.4913088"><ele>1121</ele><time>2019-09-10T16:27:26.000Z</time></trkpt><trkpt lon="15.5294447" lat="46.4912909"><ele>1121</ele><time>2019-09-10T16:27:27.000Z</time></trkpt><trkpt lon="15.5294447" lat="46.4912909"><ele>1121</ele><time>2019-09-10T16:27:28.000Z</time></trkpt><trkpt lon="15.5293381" lat="46.4912519"><ele>1121</ele><time>2019-09-10T16:27:29.000Z</time></trkpt><trkpt lon="15.5293381" lat="46.4912519"><ele>1121</ele><time>2019-09-10T16:27:30.000Z</time></trkpt><trkpt lon="15.5292711" lat="46.4912312"><ele>1122</ele><time>2019-09-10T16:27:31.000Z</time></trkpt><trkpt lon="15.529225" lat="46.4912179"><ele>1122</ele><time>2019-09-10T16:27:32.000Z</time></trkpt><trkpt lon="15.529225" lat="46.4912179"><ele>1122</ele><time>2019-09-10T16:27:33.000Z</time></trkpt><trkpt lon="15.5291348" lat="46.4911937"><ele>1122</ele><time>2019-09-10T16:27:34.000Z</time></trkpt><trkpt lon="15.5290883" lat="46.4911847"><ele>1123</ele><time>2019-09-10T16:27:35.000Z</time></trkpt><trkpt lon="15.5290436" lat="46.4911742"><ele>1123</ele><time>2019-09-10T16:27:36.000Z</time></trkpt><trkpt lon="15.5290436" lat="46.4911742"><ele>1123</ele><time>2019-09-10T16:27:37.000Z</time></trkpt><trkpt lon="15.5289527" lat="46.4911624"><ele>1123</ele><time>2019-09-10T16:27:38.000Z</time></trkpt><trkpt lon="15.5289527" lat="46.4911624"><ele>1123</ele><time>2019-09-10T16:27:39.000Z</time></trkpt><trkpt lon="15.5288632" lat="46.4911541"><ele>1123</ele><time>2019-09-10T16:27:40.000Z</time></trkpt><trkpt lon="15.5288632" lat="46.4911541"><ele>1123</ele><time>2019-09-10T16:27:41.000Z</time></trkpt><trkpt lon="15.528773" lat="46.4911516"><ele>1124</ele><time>2019-09-10T16:27:42.000Z</time></trkpt><trkpt lon="15.528773" lat="46.4911516"><ele>1124</ele><time>2019-09-10T16:27:43.000Z</time></trkpt><trkpt lon="15.5286826" lat="46.4911561"><ele>1124</ele><time>2019-09-10T16:27:44.000Z</time></trkpt><trkpt lon="15.5286826" lat="46.4911561"><ele>1124</ele><time>2019-09-10T16:27:45.000Z</time></trkpt><trkpt lon="15.5285907" lat="46.4911631"><ele>1125</ele><time>2019-09-10T16:27:46.000Z</time></trkpt><trkpt lon="15.5285907" lat="46.4911631"><ele>1125</ele><time>2019-09-10T16:27:47.000Z</time></trkpt><trkpt lon="15.5285008" lat="46.491174"><ele>1125</ele><time>2019-09-10T16:27:48.000Z</time></trkpt><trkpt lon="15.5284559" lat="46.4911801"><ele>1125</ele><time>2019-09-10T16:27:49.000Z</time></trkpt><trkpt lon="15.5284559" lat="46.4911801"><ele>1125</ele><time>2019-09-10T16:27:50.000Z</time></trkpt><trkpt lon="15.5283679" lat="46.4911974"><ele>1126</ele><time>2019-09-10T16:27:51.000Z</time></trkpt><trkpt lon="15.5283236" lat="46.4912063"><ele>1126</ele><time>2019-09-10T16:27:52.000Z</time></trkpt><trkpt lon="15.5283236" lat="46.4912063"><ele>1126</ele><time>2019-09-10T16:27:53.000Z</time></trkpt><trkpt lon="15.5282373" lat="46.4912285"><ele>1126</ele><time>2019-09-10T16:27:54.000Z</time></trkpt><trkpt lon="15.5281937" lat="46.4912431"><ele>1127</ele><time>2019-09-10T16:27:55.000Z</time></trkpt><trkpt lon="15.5281937" lat="46.4912431"><ele>1127</ele><time>2019-09-10T16:27:56.000Z</time></trkpt><trkpt lon="15.5281121" lat="46.4912711"><ele>1127</ele><time>2019-09-10T16:27:57.000Z</time></trkpt><trkpt lon="15.5281121" lat="46.4912711"><ele>1127</ele><time>2019-09-10T16:27:58.000Z</time></trkpt><trkpt lon="15.5280345" lat="46.4913017"><ele>1127</ele><time>2019-09-10T16:27:59.000Z</time></trkpt><trkpt lon="15.5279953" lat="46.491315"><ele>1127</ele><time>2019-09-10T16:28:00.000Z</time></trkpt><trkpt lon="15.5279953" lat="46.491315"><ele>1127</ele><time>2019-09-10T16:28:01.000Z</time></trkpt><trkpt lon="15.5279195" lat="46.4913439"><ele>1128</ele><time>2019-09-10T16:28:02.000Z</time></trkpt><trkpt lon="15.5278788" lat="46.4913602"><ele>1128</ele><time>2019-09-10T16:28:03.000Z</time></trkpt><trkpt lon="15.5278788" lat="46.4913602"><ele>1128</ele><time>2019-09-10T16:28:04.000Z</time></trkpt><trkpt lon="15.5277981" lat="46.4913929"><ele>1128</ele><time>2019-09-10T16:28:05.000Z</time></trkpt><trkpt lon="15.5277582" lat="46.4914124"><ele>1128</ele><time>2019-09-10T16:28:06.000Z</time></trkpt><trkpt lon="15.5277582" lat="46.4914124"><ele>1128</ele><time>2019-09-10T16:28:07.000Z</time></trkpt><trkpt lon="15.5276917" lat="46.4914468"><ele>1129</ele><time>2019-09-10T16:28:08.000Z</time></trkpt><trkpt lon="15.5276504" lat="46.4914687"><ele>1129</ele><time>2019-09-10T16:28:09.000Z</time></trkpt><trkpt lon="15.5276504" lat="46.4914687"><ele>1129</ele><time>2019-09-10T16:28:10.000Z</time></trkpt><trkpt lon="15.5275735" lat="46.491516"><ele>1130</ele><time>2019-09-10T16:28:11.000Z</time></trkpt><trkpt lon="15.5275735" lat="46.491516"><ele>1130</ele><time>2019-09-10T16:28:12.000Z</time></trkpt><trkpt lon="15.5275106" lat="46.4915653"><ele>1131</ele><time>2019-09-10T16:28:13.000Z</time></trkpt><trkpt lon="15.5275106" lat="46.4915653"><ele>1131</ele><time>2019-09-10T16:28:14.000Z</time></trkpt><trkpt lon="15.5274493" lat="46.4916308"><ele>1131</ele><time>2019-09-10T16:28:15.000Z</time></trkpt><trkpt lon="15.5274493" lat="46.4916308"><ele>1131</ele><time>2019-09-10T16:28:16.000Z</time></trkpt><trkpt lon="15.5274122" lat="46.4916777"><ele>1132</ele><time>2019-09-10T16:28:17.000Z</time></trkpt><trkpt lon="15.5274122" lat="46.4916777"><ele>1132</ele><time>2019-09-10T16:28:18.000Z</time></trkpt><trkpt lon="15.5273744" lat="46.4917332"><ele>1132</ele><time>2019-09-10T16:28:19.000Z</time></trkpt><trkpt lon="15.5273563" lat="46.4917672"><ele>1132</ele><time>2019-09-10T16:28:20.000Z</time></trkpt><trkpt lon="15.5273563" lat="46.4917672"><ele>1132</ele><time>2019-09-10T16:28:21.000Z</time></trkpt><trkpt lon="15.5273289" lat="46.4918264"><ele>1133</ele><time>2019-09-10T16:28:22.000Z</time></trkpt><trkpt lon="15.5273165" lat="46.4918553"><ele>1133</ele><time>2019-09-10T16:28:23.000Z</time></trkpt><trkpt lon="15.5273165" lat="46.4918553"><ele>1133</ele><time>2019-09-10T16:28:24.000Z</time></trkpt><trkpt lon="15.5272901" lat="46.4919152"><ele>1134</ele><time>2019-09-10T16:28:25.000Z</time></trkpt><trkpt lon="15.5272901" lat="46.4919152"><ele>1134</ele><time>2019-09-10T16:28:26.000Z</time></trkpt><trkpt lon="15.5272632" lat="46.491975"><ele>1135</ele><time>2019-09-10T16:28:27.000Z</time></trkpt><trkpt lon="15.5272493" lat="46.4920051"><ele>1135</ele><time>2019-09-10T16:28:28.000Z</time></trkpt><trkpt lon="15.5272325" lat="46.4920347"><ele>1135</ele><time>2019-09-10T16:28:29.000Z</time></trkpt><trkpt lon="15.5272136" lat="46.4920638"><ele>1135</ele><time>2019-09-10T16:28:30.000Z</time></trkpt><trkpt lon="15.5272136" lat="46.4920638"><ele>1135</ele><time>2019-09-10T16:28:31.000Z</time></trkpt><trkpt lon="15.5271745" lat="46.4921187"><ele>1136</ele><time>2019-09-10T16:28:32.000Z</time></trkpt><trkpt lon="15.5271545" lat="46.4921466"><ele>1136</ele><time>2019-09-10T16:28:33.000Z</time></trkpt><trkpt lon="15.5271545" lat="46.4921466"><ele>1136</ele><time>2019-09-10T16:28:34.000Z</time></trkpt><trkpt lon="15.5271129" lat="46.4922007"><ele>1136</ele><time>2019-09-10T16:28:35.000Z</time></trkpt><trkpt lon="15.5270923" lat="46.4922267"><ele>1136</ele><time>2019-09-10T16:28:36.000Z</time></trkpt><trkpt lon="15.5270923" lat="46.4922267"><ele>1136</ele><time>2019-09-10T16:28:37.000Z</time></trkpt><trkpt lon="15.5270507" lat="46.4922807"><ele>1137</ele><time>2019-09-10T16:28:38.000Z</time></trkpt><trkpt lon="15.5270283" lat="46.4923087"><ele>1137</ele><time>2019-09-10T16:28:39.000Z</time></trkpt><trkpt lon="15.527006" lat="46.4923356"><ele>1137</ele><time>2019-09-10T16:28:40.000Z</time></trkpt><trkpt lon="15.527006" lat="46.4923356"><ele>1137</ele><time>2019-09-10T16:28:41.000Z</time></trkpt><trkpt lon="15.5269556" lat="46.4923897"><ele>1137</ele><time>2019-09-10T16:28:42.000Z</time></trkpt><trkpt lon="15.5269313" lat="46.4924172"><ele>1138</ele><time>2019-09-10T16:28:43.000Z</time></trkpt><trkpt lon="15.5269313" lat="46.4924172"><ele>1138</ele><time>2019-09-10T16:28:44.000Z</time></trkpt><trkpt lon="15.5268833" lat="46.492472"><ele>1138</ele><time>2019-09-10T16:28:45.000Z</time></trkpt><trkpt lon="15.5268607" lat="46.4924987"><ele>1138</ele><time>2019-09-10T16:28:46.000Z</time></trkpt><trkpt lon="15.5268607" lat="46.4924987"><ele>1138</ele><time>2019-09-10T16:28:47.000Z</time></trkpt><trkpt lon="15.5268139" lat="46.4925528"><ele>1139</ele><time>2019-09-10T16:28:48.000Z</time></trkpt><trkpt lon="15.5267887" lat="46.4925806"><ele>1139</ele><time>2019-09-10T16:28:49.000Z</time></trkpt><trkpt lon="15.5267381" lat="46.4926359"><ele>1140</ele><time>2019-09-10T16:28:50.000Z</time></trkpt><trkpt lon="15.5267381" lat="46.4926359"><ele>1140</ele><time>2019-09-10T16:28:51.000Z</time></trkpt><trkpt lon="15.5266871" lat="46.4926915"><ele>1140</ele><time>2019-09-10T16:28:52.000Z</time></trkpt><trkpt lon="15.5266871" lat="46.4926915"><ele>1140</ele><time>2019-09-10T16:28:53.000Z</time></trkpt><trkpt lon="15.5266401" lat="46.4927454"><ele>1141</ele><time>2019-09-10T16:28:54.000Z</time></trkpt><trkpt lon="15.5266401" lat="46.4927454"><ele>1141</ele><time>2019-09-10T16:28:55.000Z</time></trkpt><trkpt lon="15.5266152" lat="46.4927726"><ele>1141</ele><time>2019-09-10T16:28:56.000Z</time></trkpt><trkpt lon="15.52659" lat="46.4928002"><ele>1142</ele><time>2019-09-10T16:28:57.000Z</time></trkpt><trkpt lon="15.5265639" lat="46.4928284"><ele>1142</ele><time>2019-09-10T16:28:58.000Z</time></trkpt><trkpt lon="15.5265372" lat="46.492856"><ele>1142</ele><time>2019-09-10T16:28:59.000Z</time></trkpt><trkpt lon="15.5264789" lat="46.4929074"><ele>1143</ele><time>2019-09-10T16:29:00.000Z</time></trkpt><trkpt lon="15.5264789" lat="46.4929074"><ele>1143</ele><time>2019-09-10T16:29:01.000Z</time></trkpt><trkpt lon="15.5264477" lat="46.4929322"><ele>1143</ele><time>2019-09-10T16:29:02.000Z</time></trkpt><trkpt lon="15.5264143" lat="46.4929582"><ele>1143</ele><time>2019-09-10T16:29:03.000Z</time></trkpt><trkpt lon="15.5264143" lat="46.4929582"><ele>1143</ele><time>2019-09-10T16:29:04.000Z</time></trkpt><trkpt lon="15.5263503" lat="46.4930062"><ele>1144</ele><time>2019-09-10T16:29:05.000Z</time></trkpt><trkpt lon="15.5263147" lat="46.4930286"><ele>1144</ele><time>2019-09-10T16:29:06.000Z</time></trkpt><trkpt lon="15.5262764" lat="46.4930483"><ele>1144</ele><time>2019-09-10T16:29:07.000Z</time></trkpt><trkpt lon="15.5262764" lat="46.4930483"><ele>1144</ele><time>2019-09-10T16:29:08.000Z</time></trkpt><trkpt lon="15.5261986" lat="46.4930886"><ele>1144</ele><time>2019-09-10T16:29:09.000Z</time></trkpt><trkpt lon="15.5261573" lat="46.4931061"><ele>1145</ele><time>2019-09-10T16:29:10.000Z</time></trkpt><trkpt lon="15.5261573" lat="46.4931061"><ele>1145</ele><time>2019-09-10T16:29:11.000Z</time></trkpt><trkpt lon="15.5260761" lat="46.4931418"><ele>1145</ele><time>2019-09-10T16:29:12.000Z</time></trkpt><trkpt lon="15.5260356" lat="46.4931592"><ele>1145</ele><time>2019-09-10T16:29:13.000Z</time></trkpt><trkpt lon="15.5259944" lat="46.4931766"><ele>1145</ele><time>2019-09-10T16:29:14.000Z</time></trkpt><trkpt lon="15.5259528" lat="46.493193"><ele>1146</ele><time>2019-09-10T16:29:15.000Z</time></trkpt><trkpt lon="15.5258696" lat="46.4932263"><ele>1146</ele><time>2019-09-10T16:29:16.000Z</time></trkpt><trkpt lon="15.5258696" lat="46.4932263"><ele>1146</ele><time>2019-09-10T16:29:17.000Z</time></trkpt><trkpt lon="15.525827" lat="46.4932426"><ele>1146</ele><time>2019-09-10T16:29:18.000Z</time></trkpt><trkpt lon="15.5257445" lat="46.4932761"><ele>1147</ele><time>2019-09-10T16:29:19.000Z</time></trkpt><trkpt lon="15.5257445" lat="46.4932761"><ele>1147</ele><time>2019-09-10T16:29:20.000Z</time></trkpt><trkpt lon="15.525702" lat="46.4932926"><ele>1147</ele><time>2019-09-10T16:29:21.000Z</time></trkpt><trkpt lon="15.5256588" lat="46.4933084"><ele>1147</ele><time>2019-09-10T16:29:22.000Z</time></trkpt><trkpt lon="15.5255751" lat="46.4933421"><ele>1148</ele><time>2019-09-10T16:29:23.000Z</time></trkpt><trkpt lon="15.5255751" lat="46.4933421"><ele>1148</ele><time>2019-09-10T16:29:24.000Z</time></trkpt><trkpt lon="15.5255751" lat="46.4933421"><ele>1148</ele><time>2019-09-10T16:29:25.000Z</time></trkpt><trkpt lon="15.5254911" lat="46.4933757"><ele>1148</ele><time>2019-09-10T16:29:26.000Z</time></trkpt><trkpt lon="15.5254911" lat="46.4933757"><ele>1148</ele><time>2019-09-10T16:29:27.000Z</time></trkpt><trkpt lon="15.5254088" lat="46.4934078"><ele>1149</ele><time>2019-09-10T16:29:28.000Z</time></trkpt><trkpt lon="15.525328" lat="46.49344"><ele>1149</ele><time>2019-09-10T16:29:29.000Z</time></trkpt><trkpt lon="15.525328" lat="46.49344"><ele>1149</ele><time>2019-09-10T16:29:30.000Z</time></trkpt><trkpt lon="15.525328" lat="46.49344"><ele>1149</ele><time>2019-09-10T16:29:31.000Z</time></trkpt><trkpt lon="15.5252436" lat="46.4934712"><ele>1150</ele><time>2019-09-10T16:29:32.000Z</time></trkpt><trkpt lon="15.5251612" lat="46.4935113"><ele>1150</ele><time>2019-09-10T16:29:33.000Z</time></trkpt><trkpt lon="15.5251612" lat="46.4935113"><ele>1150</ele><time>2019-09-10T16:29:34.000Z</time></trkpt><trkpt lon="15.5251142" lat="46.4935268"><ele>1150</ele><time>2019-09-10T16:29:35.000Z</time></trkpt><trkpt lon="15.5251142" lat="46.4935268"><ele>1150</ele><time>2019-09-10T16:29:36.000Z</time></trkpt><trkpt lon="15.5250229" lat="46.4935554"><ele>1151</ele><time>2019-09-10T16:29:37.000Z</time></trkpt><trkpt lon="15.5249781" lat="46.4935686"><ele>1151</ele><time>2019-09-10T16:29:38.000Z</time></trkpt><trkpt lon="15.5249781" lat="46.4935686"><ele>1151</ele><time>2019-09-10T16:29:39.000Z</time></trkpt><trkpt lon="15.5248874" lat="46.4935922"><ele>1151</ele><time>2019-09-10T16:29:40.000Z</time></trkpt><trkpt lon="15.5248874" lat="46.4935922"><ele>1151</ele><time>2019-09-10T16:29:41.000Z</time></trkpt><trkpt lon="15.5247912" lat="46.4936097"><ele>1151</ele><time>2019-09-10T16:29:42.000Z</time></trkpt><trkpt lon="15.5247912" lat="46.4936097"><ele>1151</ele><time>2019-09-10T16:29:43.000Z</time></trkpt><trkpt lon="15.5246973" lat="46.4936238"><ele>1152</ele><time>2019-09-10T16:29:44.000Z</time></trkpt><trkpt lon="15.5246973" lat="46.4936238"><ele>1152</ele><time>2019-09-10T16:29:45.000Z</time></trkpt><trkpt lon="15.5246026" lat="46.4936338"><ele>1152</ele><time>2019-09-10T16:29:46.000Z</time></trkpt><trkpt lon="15.5245541" lat="46.4936353"><ele>1152</ele><time>2019-09-10T16:29:47.000Z</time></trkpt><trkpt lon="15.5244604" lat="46.4936351"><ele>1153</ele><time>2019-09-10T16:29:48.000Z</time></trkpt><trkpt lon="15.5244604" lat="46.4936351"><ele>1153</ele><time>2019-09-10T16:29:49.000Z</time></trkpt><trkpt lon="15.5244604" lat="46.4936351"><ele>1153</ele><time>2019-09-10T16:29:50.000Z</time></trkpt><trkpt lon="15.5243688" lat="46.4936307"><ele>1153</ele><time>2019-09-10T16:29:51.000Z</time></trkpt><trkpt lon="15.5243688" lat="46.4936307"><ele>1153</ele><time>2019-09-10T16:29:52.000Z</time></trkpt><trkpt lon="15.5242746" lat="46.4936231"><ele>1153</ele><time>2019-09-10T16:29:53.000Z</time></trkpt><trkpt lon="15.5241787" lat="46.4936168"><ele>1154</ele><time>2019-09-10T16:29:54.000Z</time></trkpt><trkpt lon="15.5241787" lat="46.4936168"><ele>1154</ele><time>2019-09-10T16:29:55.000Z</time></trkpt><trkpt lon="15.5241287" lat="46.4936149"><ele>1154</ele><time>2019-09-10T16:29:56.000Z</time></trkpt><trkpt lon="15.5240295" lat="46.4936103"><ele>1155</ele><time>2019-09-10T16:29:57.000Z</time></trkpt><trkpt lon="15.5240295" lat="46.4936103"><ele>1155</ele><time>2019-09-10T16:29:58.000Z</time></trkpt><trkpt lon="15.5239789" lat="46.4936084"><ele>1155</ele><time>2019-09-10T16:29:59.000Z</time></trkpt><trkpt lon="15.5238818" lat="46.4936087"><ele>1156</ele><time>2019-09-10T16:30:00.000Z</time></trkpt><trkpt lon="15.523833" lat="46.4936096"><ele>1156</ele><time>2019-09-10T16:30:01.000Z</time></trkpt><trkpt lon="15.523833" lat="46.4936096"><ele>1156</ele><time>2019-09-10T16:30:02.000Z</time></trkpt><trkpt lon="15.5237845" lat="46.4936107"><ele>1156</ele><time>2019-09-10T16:30:03.000Z</time></trkpt><trkpt lon="15.5236985" lat="46.493613"><ele>1157</ele><time>2019-09-10T16:30:04.000Z</time></trkpt><trkpt lon="15.5236985" lat="46.493613"><ele>1157</ele><time>2019-09-10T16:30:05.000Z</time></trkpt><trkpt lon="15.5236436" lat="46.4936155"><ele>1157</ele><time>2019-09-10T16:30:06.000Z</time></trkpt><trkpt lon="15.5235925" lat="46.4936205"><ele>1157</ele><time>2019-09-10T16:30:07.000Z</time></trkpt><trkpt lon="15.5234955" lat="46.4936308"><ele>1157</ele><time>2019-09-10T16:30:08.000Z</time></trkpt><trkpt lon="15.5234955" lat="46.4936308"><ele>1157</ele><time>2019-09-10T16:30:09.000Z</time></trkpt><trkpt lon="15.5233971" lat="46.493641"><ele>1158</ele><time>2019-09-10T16:30:10.000Z</time></trkpt><trkpt lon="15.5233971" lat="46.493641"><ele>1158</ele><time>2019-09-10T16:30:11.000Z</time></trkpt><trkpt lon="15.5232998" lat="46.4936496"><ele>1158</ele><time>2019-09-10T16:30:12.000Z</time></trkpt><trkpt lon="15.5232998" lat="46.4936496"><ele>1158</ele><time>2019-09-10T16:30:13.000Z</time></trkpt><trkpt lon="15.5232998" lat="46.4936496"><ele>1158</ele><time>2019-09-10T16:30:14.000Z</time></trkpt><trkpt lon="15.5232003" lat="46.49366"><ele>1159</ele><time>2019-09-10T16:30:15.000Z</time></trkpt><trkpt lon="15.5231006" lat="46.4936707"><ele>1159</ele><time>2019-09-10T16:30:16.000Z</time></trkpt><trkpt lon="15.5230522" lat="46.4936752"><ele>1159</ele><time>2019-09-10T16:30:17.000Z</time></trkpt><trkpt lon="15.5230044" lat="46.4936807"><ele>1159</ele><time>2019-09-10T16:30:18.000Z</time></trkpt><trkpt lon="15.5230044" lat="46.4936807"><ele>1159</ele><time>2019-09-10T16:30:19.000Z</time></trkpt><trkpt lon="15.5229064" lat="46.4936895"><ele>1159</ele><time>2019-09-10T16:30:20.000Z</time></trkpt><trkpt lon="15.5229064" lat="46.4936895"><ele>1159</ele><time>2019-09-10T16:30:21.000Z</time></trkpt><trkpt lon="15.5228078" lat="46.4936975"><ele>1160</ele><time>2019-09-10T16:30:22.000Z</time></trkpt><trkpt lon="15.5228078" lat="46.4936975"><ele>1160</ele><time>2019-09-10T16:30:23.000Z</time></trkpt><trkpt lon="15.5227139" lat="46.4936996"><ele>1160</ele><time>2019-09-10T16:30:24.000Z</time></trkpt><trkpt lon="15.5226633" lat="46.4936987"><ele>1160</ele><time>2019-09-10T16:30:25.000Z</time></trkpt><trkpt lon="15.5226633" lat="46.4936987"><ele>1160</ele><time>2019-09-10T16:30:26.000Z</time></trkpt><trkpt lon="15.5225607" lat="46.4936963"><ele>1161</ele><time>2019-09-10T16:30:27.000Z</time></trkpt><trkpt lon="15.5225109" lat="46.4936924"><ele>1161</ele><time>2019-09-10T16:30:28.000Z</time></trkpt><trkpt lon="15.5225109" lat="46.4936924"><ele>1161</ele><time>2019-09-10T16:30:29.000Z</time></trkpt><trkpt lon="15.5224097" lat="46.4936806"><ele>1162</ele><time>2019-09-10T16:30:30.000Z</time></trkpt><trkpt lon="15.5224097" lat="46.4936806"><ele>1162</ele><time>2019-09-10T16:30:31.000Z</time></trkpt><trkpt lon="15.5224097" lat="46.4936806"><ele>1162</ele><time>2019-09-10T16:30:32.000Z</time></trkpt><trkpt lon="15.5223118" lat="46.4936703"><ele>1162</ele><time>2019-09-10T16:30:33.000Z</time></trkpt><trkpt lon="15.5222127" lat="46.493661"><ele>1162</ele><time>2019-09-10T16:30:34.000Z</time></trkpt><trkpt lon="15.5222127" lat="46.493661"><ele>1162</ele><time>2019-09-10T16:30:35.000Z</time></trkpt><trkpt lon="15.5221188" lat="46.4936477"><ele>1163</ele><time>2019-09-10T16:30:36.000Z</time></trkpt><trkpt lon="15.5221188" lat="46.4936477"><ele>1163</ele><time>2019-09-10T16:30:37.000Z</time></trkpt><trkpt lon="15.522021" lat="46.4936325"><ele>1163</ele><time>2019-09-10T16:30:38.000Z</time></trkpt><trkpt lon="15.522021" lat="46.4936325"><ele>1163</ele><time>2019-09-10T16:30:39.000Z</time></trkpt><trkpt lon="15.5219213" lat="46.4936253"><ele>1163</ele><time>2019-09-10T16:30:40.000Z</time></trkpt><trkpt lon="15.5219213" lat="46.4936253"><ele>1163</ele><time>2019-09-10T16:30:41.000Z</time></trkpt><trkpt lon="15.5218194" lat="46.4936145"><ele>1164</ele><time>2019-09-10T16:30:42.000Z</time></trkpt><trkpt lon="15.5218194" lat="46.4936145"><ele>1164</ele><time>2019-09-10T16:30:43.000Z</time></trkpt><trkpt lon="15.5217231" lat="46.4935978"><ele>1164</ele><time>2019-09-10T16:30:44.000Z</time></trkpt><trkpt lon="15.5217231" lat="46.4935978"><ele>1164</ele><time>2019-09-10T16:30:45.000Z</time></trkpt><trkpt lon="15.5216735" lat="46.493589"><ele>1165</ele><time>2019-09-10T16:30:46.000Z</time></trkpt><trkpt lon="15.521626" lat="46.4935789"><ele>1165</ele><time>2019-09-10T16:30:47.000Z</time></trkpt><trkpt lon="15.5215365" lat="46.4935545"><ele>1165</ele><time>2019-09-10T16:30:48.000Z</time></trkpt><trkpt lon="15.5214907" lat="46.4935414"><ele>1165</ele><time>2019-09-10T16:30:49.000Z</time></trkpt><trkpt lon="15.5214482" lat="46.4935247"><ele>1166</ele><time>2019-09-10T16:30:50.000Z</time></trkpt><trkpt lon="15.5214069" lat="46.493506"><ele>1166</ele><time>2019-09-10T16:30:51.000Z</time></trkpt><trkpt lon="15.5213669" lat="46.4934841"><ele>1166</ele><time>2019-09-10T16:30:52.000Z</time></trkpt><trkpt lon="15.5213669" lat="46.4934841"><ele>1166</ele><time>2019-09-10T16:30:53.000Z</time></trkpt><trkpt lon="15.5212897" lat="46.4934347"><ele>1166</ele><time>2019-09-10T16:30:54.000Z</time></trkpt><trkpt lon="15.5212897" lat="46.4934347"><ele>1166</ele><time>2019-09-10T16:30:55.000Z</time></trkpt><trkpt lon="15.5212126" lat="46.4933899"><ele>1167</ele><time>2019-09-10T16:30:56.000Z</time></trkpt><trkpt lon="15.521173" lat="46.493369"><ele>1167</ele><time>2019-09-10T16:30:57.000Z</time></trkpt><trkpt lon="15.5211334" lat="46.4933494"><ele>1167</ele><time>2019-09-10T16:30:58.000Z</time></trkpt><trkpt lon="15.5211334" lat="46.4933494"><ele>1167</ele><time>2019-09-10T16:30:59.000Z</time></trkpt><trkpt lon="15.52105" lat="46.4933152"><ele>1168</ele><time>2019-09-10T16:31:00.000Z</time></trkpt><trkpt lon="15.5210072" lat="46.4933003"><ele>1168</ele><time>2019-09-10T16:31:01.000Z</time></trkpt><trkpt lon="15.5210072" lat="46.4933003"><ele>1168</ele><time>2019-09-10T16:31:02.000Z</time></trkpt><trkpt lon="15.5209173" lat="46.4932715"><ele>1168</ele><time>2019-09-10T16:31:03.000Z</time></trkpt><trkpt lon="15.5208728" lat="46.4932588"><ele>1168</ele><time>2019-09-10T16:31:04.000Z</time></trkpt><trkpt lon="15.5208269" lat="46.4932483"><ele>1169</ele><time>2019-09-10T16:31:05.000Z</time></trkpt><trkpt lon="15.5208269" lat="46.4932483"><ele>1169</ele><time>2019-09-10T16:31:06.000Z</time></trkpt><trkpt lon="15.5207308" lat="46.4932302"><ele>1169</ele><time>2019-09-10T16:31:07.000Z</time></trkpt><trkpt lon="15.520682" lat="46.493223"><ele>1169</ele><time>2019-09-10T16:31:08.000Z</time></trkpt><trkpt lon="15.520632" lat="46.493219"><ele>1170</ele><time>2019-09-10T16:31:09.000Z</time></trkpt><trkpt lon="15.520632" lat="46.493219"><ele>1170</ele><time>2019-09-10T16:31:10.000Z</time></trkpt><trkpt lon="15.5205317" lat="46.4932229"><ele>1170</ele><time>2019-09-10T16:31:11.000Z</time></trkpt><trkpt lon="15.5205317" lat="46.4932229"><ele>1170</ele><time>2019-09-10T16:31:12.000Z</time></trkpt><trkpt lon="15.520433" lat="46.4932314"><ele>1171</ele><time>2019-09-10T16:31:13.000Z</time></trkpt><trkpt lon="15.520384" lat="46.493237"><ele>1171</ele><time>2019-09-10T16:31:14.000Z</time></trkpt><trkpt lon="15.520384" lat="46.493237"><ele>1171</ele><time>2019-09-10T16:31:15.000Z</time></trkpt><trkpt lon="15.5202922" lat="46.4932523"><ele>1171</ele><time>2019-09-10T16:31:16.000Z</time></trkpt><trkpt lon="15.5202491" lat="46.4932636"><ele>1171</ele><time>2019-09-10T16:31:17.000Z</time></trkpt><trkpt lon="15.5202048" lat="46.4932773"><ele>1172</ele><time>2019-09-10T16:31:18.000Z</time></trkpt><trkpt lon="15.5202048" lat="46.4932773"><ele>1172</ele><time>2019-09-10T16:31:19.000Z</time></trkpt><trkpt lon="15.5201203" lat="46.4933089"><ele>1172</ele><time>2019-09-10T16:31:20.000Z</time></trkpt><trkpt lon="15.5201203" lat="46.4933089"><ele>1172</ele><time>2019-09-10T16:31:21.000Z</time></trkpt><trkpt lon="15.5200428" lat="46.4933433"><ele>1173</ele><time>2019-09-10T16:31:22.000Z</time></trkpt><trkpt lon="15.520004" lat="46.4933612"><ele>1173</ele><time>2019-09-10T16:31:23.000Z</time></trkpt><trkpt lon="15.520004" lat="46.4933612"><ele>1173</ele><time>2019-09-10T16:31:24.000Z</time></trkpt><trkpt lon="15.51993" lat="46.4934025"><ele>1173</ele><time>2019-09-10T16:31:25.000Z</time></trkpt><trkpt lon="15.51993" lat="46.4934025"><ele>1173</ele><time>2019-09-10T16:31:26.000Z</time></trkpt><trkpt lon="15.5198548" lat="46.493443"><ele>1174</ele><time>2019-09-10T16:31:27.000Z</time></trkpt><trkpt lon="15.5198175" lat="46.4934643"><ele>1174</ele><time>2019-09-10T16:31:28.000Z</time></trkpt><trkpt lon="15.5198175" lat="46.4934643"><ele>1174</ele><time>2019-09-10T16:31:29.000Z</time></trkpt><trkpt lon="15.5197425" lat="46.4935049"><ele>1174</ele><time>2019-09-10T16:31:30.000Z</time></trkpt><trkpt lon="15.5197045" lat="46.493525"><ele>1175</ele><time>2019-09-10T16:31:31.000Z</time></trkpt><trkpt lon="15.5196679" lat="46.4935448"><ele>1175</ele><time>2019-09-10T16:31:32.000Z</time></trkpt><trkpt lon="15.5196679" lat="46.4935448"><ele>1175</ele><time>2019-09-10T16:31:33.000Z</time></trkpt><trkpt lon="15.5195936" lat="46.493583"><ele>1175</ele><time>2019-09-10T16:31:34.000Z</time></trkpt><trkpt lon="15.5195936" lat="46.493583"><ele>1175</ele><time>2019-09-10T16:31:35.000Z</time></trkpt><trkpt lon="15.5195203" lat="46.4936249"><ele>1176</ele><time>2019-09-10T16:31:36.000Z</time></trkpt><trkpt lon="15.5195203" lat="46.4936249"><ele>1176</ele><time>2019-09-10T16:31:37.000Z</time></trkpt><trkpt lon="15.519448" lat="46.4936617"><ele>1177</ele><time>2019-09-10T16:31:38.000Z</time></trkpt><trkpt lon="15.519448" lat="46.4936617"><ele>1177</ele><time>2019-09-10T16:31:39.000Z</time></trkpt><trkpt lon="15.5193698" lat="46.4936985"><ele>1177</ele><time>2019-09-10T16:31:40.000Z</time></trkpt><trkpt lon="15.5193304" lat="46.4937173"><ele>1177</ele><time>2019-09-10T16:31:41.000Z</time></trkpt><trkpt lon="15.5193304" lat="46.4937173"><ele>1177</ele><time>2019-09-10T16:31:42.000Z</time></trkpt><trkpt lon="15.519253" lat="46.4937533"><ele>1178</ele><time>2019-09-10T16:31:43.000Z</time></trkpt><trkpt lon="15.519253" lat="46.4937533"><ele>1178</ele><time>2019-09-10T16:31:44.000Z</time></trkpt><trkpt lon="15.5191622" lat="46.4937871"><ele>1178</ele><time>2019-09-10T16:31:45.000Z</time></trkpt><trkpt lon="15.5191622" lat="46.4937871"><ele>1178</ele><time>2019-09-10T16:31:46.000Z</time></trkpt><trkpt lon="15.5190774" lat="46.4938181"><ele>1179</ele><time>2019-09-10T16:31:47.000Z</time></trkpt><trkpt lon="15.5190774" lat="46.4938181"><ele>1179</ele><time>2019-09-10T16:31:48.000Z</time></trkpt><trkpt lon="15.5189909" lat="46.4938518"><ele>1179</ele><time>2019-09-10T16:31:49.000Z</time></trkpt><trkpt lon="15.5189909" lat="46.4938518"><ele>1179</ele><time>2019-09-10T16:31:50.000Z</time></trkpt><trkpt lon="15.5189037" lat="46.493881"><ele>1180</ele><time>2019-09-10T16:31:51.000Z</time></trkpt><trkpt lon="15.5188604" lat="46.4938957"><ele>1180</ele><time>2019-09-10T16:31:52.000Z</time></trkpt><trkpt lon="15.5188604" lat="46.4938957"><ele>1180</ele><time>2019-09-10T16:31:53.000Z</time></trkpt><trkpt lon="15.5187731" lat="46.4939208"><ele>1180</ele><time>2019-09-10T16:31:54.000Z</time></trkpt><trkpt lon="15.5187731" lat="46.4939208"><ele>1180</ele><time>2019-09-10T16:31:55.000Z</time></trkpt><trkpt lon="15.5186841" lat="46.4939455"><ele>1181</ele><time>2019-09-10T16:31:56.000Z</time></trkpt><trkpt lon="15.5186841" lat="46.4939455"><ele>1181</ele><time>2019-09-10T16:31:57.000Z</time></trkpt><trkpt lon="15.5185939" lat="46.4939706"><ele>1181</ele><time>2019-09-10T16:31:58.000Z</time></trkpt><trkpt lon="15.5185939" lat="46.4939706"><ele>1181</ele><time>2019-09-10T16:31:59.000Z</time></trkpt><trkpt lon="15.5185049" lat="46.4939937"><ele>1182</ele><time>2019-09-10T16:32:00.000Z</time></trkpt><trkpt lon="15.5185049" lat="46.4939937"><ele>1182</ele><time>2019-09-10T16:32:01.000Z</time></trkpt><trkpt lon="15.5184143" lat="46.4940124"><ele>1182</ele><time>2019-09-10T16:32:02.000Z</time></trkpt><trkpt lon="15.5183673" lat="46.494022"><ele>1182</ele><time>2019-09-10T16:32:03.000Z</time></trkpt><trkpt lon="15.5183198" lat="46.4940312"><ele>1183</ele><time>2019-09-10T16:32:04.000Z</time></trkpt><trkpt lon="15.5183198" lat="46.4940312"><ele>1183</ele><time>2019-09-10T16:32:05.000Z</time></trkpt><trkpt lon="15.5182252" lat="46.4940467"><ele>1183</ele><time>2019-09-10T16:32:06.000Z</time></trkpt><trkpt lon="15.5182252" lat="46.4940467"><ele>1183</ele><time>2019-09-10T16:32:07.000Z</time></trkpt><trkpt lon="15.5181305" lat="46.4940602"><ele>1184</ele><time>2019-09-10T16:32:08.000Z</time></trkpt><trkpt lon="15.5180847" lat="46.4940676"><ele>1184</ele><time>2019-09-10T16:32:09.000Z</time></trkpt><trkpt lon="15.5180847" lat="46.4940676"><ele>1184</ele><time>2019-09-10T16:32:10.000Z</time></trkpt><trkpt lon="15.517994" lat="46.4940781"><ele>1184</ele><time>2019-09-10T16:32:11.000Z</time></trkpt><trkpt lon="15.517994" lat="46.4940781"><ele>1184</ele><time>2019-09-10T16:32:12.000Z</time></trkpt><trkpt lon="15.517906" lat="46.4940865"><ele>1185</ele><time>2019-09-10T16:32:13.000Z</time></trkpt><trkpt lon="15.5178616" lat="46.4940908"><ele>1185</ele><time>2019-09-10T16:32:14.000Z</time></trkpt><trkpt lon="15.5178616" lat="46.4940908"><ele>1185</ele><time>2019-09-10T16:32:15.000Z</time></trkpt><trkpt lon="15.5177722" lat="46.4941"><ele>1185</ele><time>2019-09-10T16:32:16.000Z</time></trkpt><trkpt lon="15.5177269" lat="46.4941045"><ele>1186</ele><time>2019-09-10T16:32:17.000Z</time></trkpt><trkpt lon="15.5177269" lat="46.4941045"><ele>1186</ele><time>2019-09-10T16:32:18.000Z</time></trkpt><trkpt lon="15.5176394" lat="46.4941126"><ele>1186</ele><time>2019-09-10T16:32:19.000Z</time></trkpt><trkpt lon="15.5176394" lat="46.4941126"><ele>1186</ele><time>2019-09-10T16:32:20.000Z</time></trkpt><trkpt lon="15.5175468" lat="46.4941204"><ele>1187</ele><time>2019-09-10T16:32:21.000Z</time></trkpt><trkpt lon="15.5175016" lat="46.4941241"><ele>1187</ele><time>2019-09-10T16:32:22.000Z</time></trkpt><trkpt lon="15.517459" lat="46.4941285"><ele>1187</ele><time>2019-09-10T16:32:23.000Z</time></trkpt><trkpt lon="15.517459" lat="46.4941285"><ele>1187</ele><time>2019-09-10T16:32:24.000Z</time></trkpt><trkpt lon="15.5173761" lat="46.4941359"><ele>1188</ele><time>2019-09-10T16:32:25.000Z</time></trkpt><trkpt lon="15.5173348" lat="46.4941403"><ele>1188</ele><time>2019-09-10T16:32:26.000Z</time></trkpt><trkpt lon="15.5173348" lat="46.4941403"><ele>1188</ele><time>2019-09-10T16:32:27.000Z</time></trkpt><trkpt lon="15.5172514" lat="46.4941467"><ele>1188</ele><time>2019-09-10T16:32:28.000Z</time></trkpt><trkpt lon="15.5172089" lat="46.4941495"><ele>1189</ele><time>2019-09-10T16:32:29.000Z</time></trkpt><trkpt lon="15.5172089" lat="46.4941495"><ele>1189</ele><time>2019-09-10T16:32:30.000Z</time></trkpt><trkpt lon="15.5171247" lat="46.4941542"><ele>1189</ele><time>2019-09-10T16:32:31.000Z</time></trkpt><trkpt lon="15.5170821" lat="46.4941561"><ele>1189</ele><time>2019-09-10T16:32:32.000Z</time></trkpt><trkpt lon="15.5170384" lat="46.4941605"><ele>1189</ele><time>2019-09-10T16:32:33.000Z</time></trkpt><trkpt lon="15.5169958" lat="46.4941644"><ele>1190</ele><time>2019-09-10T16:32:34.000Z</time></trkpt><trkpt lon="15.5169958" lat="46.4941644"><ele>1190</ele><time>2019-09-10T16:32:35.000Z</time></trkpt><trkpt lon="15.5169116" lat="46.4941725"><ele>1190</ele><time>2019-09-10T16:32:36.000Z</time></trkpt><trkpt lon="15.5168692" lat="46.4941759"><ele>1190</ele><time>2019-09-10T16:32:37.000Z</time></trkpt><trkpt lon="15.5168692" lat="46.4941759"><ele>1190</ele><time>2019-09-10T16:32:38.000Z</time></trkpt><trkpt lon="15.5167848" lat="46.4941839"><ele>1191</ele><time>2019-09-10T16:32:39.000Z</time></trkpt><trkpt lon="15.5167848" lat="46.4941839"><ele>1191</ele><time>2019-09-10T16:32:40.000Z</time></trkpt><trkpt lon="15.5166974" lat="46.494192"><ele>1190</ele><time>2019-09-10T16:32:41.000Z</time></trkpt><trkpt lon="15.5166974" lat="46.494192"><ele>1190</ele><time>2019-09-10T16:32:42.000Z</time></trkpt><trkpt lon="15.516609" lat="46.4941977"><ele>1191</ele><time>2019-09-10T16:32:43.000Z</time></trkpt><trkpt lon="15.516609" lat="46.4941977"><ele>1191</ele><time>2019-09-10T16:32:44.000Z</time></trkpt><trkpt lon="15.5165207" lat="46.4942025"><ele>1191</ele><time>2019-09-10T16:32:45.000Z</time></trkpt><trkpt lon="15.5164777" lat="46.4942045"><ele>1191</ele><time>2019-09-10T16:32:46.000Z</time></trkpt><trkpt lon="15.5164777" lat="46.4942045"><ele>1191</ele><time>2019-09-10T16:32:47.000Z</time></trkpt><trkpt lon="15.5163928" lat="46.4942039"><ele>1192</ele><time>2019-09-10T16:32:48.000Z</time></trkpt><trkpt lon="15.5163501" lat="46.494202"><ele>1192</ele><time>2019-09-10T16:32:49.000Z</time></trkpt><trkpt lon="15.5163501" lat="46.494202"><ele>1192</ele><time>2019-09-10T16:32:50.000Z</time></trkpt><trkpt lon="15.5162664" lat="46.4941961"><ele>1192</ele><time>2019-09-10T16:32:51.000Z</time></trkpt><trkpt lon="15.5162235" lat="46.494191"><ele>1193</ele><time>2019-09-10T16:32:52.000Z</time></trkpt><trkpt lon="15.5162235" lat="46.494191"><ele>1193</ele><time>2019-09-10T16:32:53.000Z</time></trkpt><trkpt lon="15.5161405" lat="46.4941748"><ele>1193</ele><time>2019-09-10T16:32:54.000Z</time></trkpt><trkpt lon="15.5160988" lat="46.4941645"><ele>1193</ele><time>2019-09-10T16:32:55.000Z</time></trkpt><trkpt lon="15.5160575" lat="46.4941557"><ele>1193</ele><time>2019-09-10T16:32:56.000Z</time></trkpt><trkpt lon="15.5160575" lat="46.4941557"><ele>1193</ele><time>2019-09-10T16:32:57.000Z</time></trkpt><trkpt lon="15.5159833" lat="46.4941392"><ele>1193</ele><time>2019-09-10T16:32:58.000Z</time></trkpt><trkpt lon="15.5159833" lat="46.4941392"><ele>1193</ele><time>2019-09-10T16:32:59.000Z</time></trkpt><trkpt lon="15.5159171" lat="46.4941209"><ele>1193</ele><time>2019-09-10T16:33:00.000Z</time></trkpt><trkpt lon="15.5159171" lat="46.4941209"><ele>1193</ele><time>2019-09-10T16:33:01.000Z</time></trkpt><trkpt lon="15.5158567" lat="46.4941031"><ele>1193</ele><time>2019-09-10T16:33:02.000Z</time></trkpt><trkpt lon="15.5158567" lat="46.4941031"><ele>1193</ele><time>2019-09-10T16:33:03.000Z</time></trkpt><trkpt lon="15.5157892" lat="46.4940795"><ele>1194</ele><time>2019-09-10T16:33:04.000Z</time></trkpt><trkpt lon="15.5157892" lat="46.4940795"><ele>1194</ele><time>2019-09-10T16:33:05.000Z</time></trkpt><trkpt lon="15.5157235" lat="46.4940482"><ele>1195</ele><time>2019-09-10T16:33:06.000Z</time></trkpt><trkpt lon="15.5157235" lat="46.4940482"><ele>1195</ele><time>2019-09-10T16:33:07.000Z</time></trkpt><trkpt lon="15.5156515" lat="46.4940074"><ele>1195</ele><time>2019-09-10T16:33:08.000Z</time></trkpt><trkpt lon="15.5156515" lat="46.4940074"><ele>1195</ele><time>2019-09-10T16:33:09.000Z</time></trkpt><trkpt lon="15.5155833" lat="46.4939674"><ele>1196</ele><time>2019-09-10T16:33:10.000Z</time></trkpt><trkpt lon="15.5155833" lat="46.4939674"><ele>1196</ele><time>2019-09-10T16:33:11.000Z</time></trkpt><trkpt lon="15.5155125" lat="46.4939289"><ele>1196</ele><time>2019-09-10T16:33:12.000Z</time></trkpt><trkpt lon="15.5155125" lat="46.4939289"><ele>1196</ele><time>2019-09-10T16:33:13.000Z</time></trkpt><trkpt lon="15.5154399" lat="46.4938934"><ele>1196</ele><time>2019-09-10T16:33:14.000Z</time></trkpt><trkpt lon="15.5154006" lat="46.4938776"><ele>1197</ele><time>2019-09-10T16:33:15.000Z</time></trkpt><trkpt lon="15.5153587" lat="46.4938595"><ele>1197</ele><time>2019-09-10T16:33:16.000Z</time></trkpt><trkpt lon="15.5153587" lat="46.4938595"><ele>1197</ele><time>2019-09-10T16:33:17.000Z</time></trkpt><trkpt lon="15.5152797" lat="46.4938304"><ele>1197</ele><time>2019-09-10T16:33:18.000Z</time></trkpt><trkpt lon="15.5152415" lat="46.4938156"><ele>1198</ele><time>2019-09-10T16:33:19.000Z</time></trkpt><trkpt lon="15.5152415" lat="46.4938156"><ele>1198</ele><time>2019-09-10T16:33:20.000Z</time></trkpt><trkpt lon="15.5151657" lat="46.4937871"><ele>1198</ele><time>2019-09-10T16:33:21.000Z</time></trkpt><trkpt lon="15.5151256" lat="46.4937742"><ele>1198</ele><time>2019-09-10T16:33:22.000Z</time></trkpt><trkpt lon="15.5150837" lat="46.4937614"><ele>1199</ele><time>2019-09-10T16:33:23.000Z</time></trkpt><trkpt lon="15.5150837" lat="46.4937614"><ele>1199</ele><time>2019-09-10T16:33:24.000Z</time></trkpt><trkpt lon="15.5149931" lat="46.4937344"><ele>1199</ele><time>2019-09-10T16:33:25.000Z</time></trkpt><trkpt lon="15.5149931" lat="46.4937344"><ele>1199</ele><time>2019-09-10T16:33:26.000Z</time></trkpt><trkpt lon="15.5149201" lat="46.4937136"><ele>1199</ele><time>2019-09-10T16:33:27.000Z</time></trkpt><trkpt lon="15.5149201" lat="46.4937136"><ele>1199</ele><time>2019-09-10T16:33:28.000Z</time></trkpt><trkpt lon="15.5148371" lat="46.4936932"><ele>1200</ele><time>2019-09-10T16:33:29.000Z</time></trkpt><trkpt lon="15.5147957" lat="46.4936827"><ele>1200</ele><time>2019-09-10T16:33:30.000Z</time></trkpt><trkpt lon="15.5147957" lat="46.4936827"><ele>1200</ele><time>2019-09-10T16:33:31.000Z</time></trkpt><trkpt lon="15.5147124" lat="46.4936663"><ele>1201</ele><time>2019-09-10T16:33:32.000Z</time></trkpt><trkpt lon="15.5147124" lat="46.4936663"><ele>1201</ele><time>2019-09-10T16:33:33.000Z</time></trkpt><trkpt lon="15.5146291" lat="46.4936526"><ele>1201</ele><time>2019-09-10T16:33:34.000Z</time></trkpt><trkpt lon="15.5145877" lat="46.4936481"><ele>1201</ele><time>2019-09-10T16:33:35.000Z</time></trkpt><trkpt lon="15.5145467" lat="46.4936442"><ele>1202</ele><time>2019-09-10T16:33:36.000Z</time></trkpt><trkpt lon="15.5145467" lat="46.4936442"><ele>1202</ele><time>2019-09-10T16:33:37.000Z</time></trkpt><trkpt lon="15.5144649" lat="46.4936404"><ele>1202</ele><time>2019-09-10T16:33:38.000Z</time></trkpt><trkpt lon="15.5144227" lat="46.4936404"><ele>1202</ele><time>2019-09-10T16:33:39.000Z</time></trkpt><trkpt lon="15.5144227" lat="46.4936404"><ele>1202</ele><time>2019-09-10T16:33:40.000Z</time></trkpt><trkpt lon="15.5143385" lat="46.493643"><ele>1203</ele><time>2019-09-10T16:33:41.000Z</time></trkpt><trkpt lon="15.5143385" lat="46.493643"><ele>1203</ele><time>2019-09-10T16:33:42.000Z</time></trkpt><trkpt lon="15.5142517" lat="46.4936482"><ele>1203</ele><time>2019-09-10T16:33:43.000Z</time></trkpt><trkpt lon="15.5142095" lat="46.4936517"><ele>1204</ele><time>2019-09-10T16:33:44.000Z</time></trkpt><trkpt lon="15.5141671" lat="46.4936554"><ele>1204</ele><time>2019-09-10T16:33:45.000Z</time></trkpt><trkpt lon="15.5141671" lat="46.4936554"><ele>1204</ele><time>2019-09-10T16:33:46.000Z</time></trkpt><trkpt lon="15.5140824" lat="46.4936667"><ele>1205</ele><time>2019-09-10T16:33:47.000Z</time></trkpt><trkpt lon="15.5140824" lat="46.4936667"><ele>1205</ele><time>2019-09-10T16:33:48.000Z</time></trkpt><trkpt lon="15.5140032" lat="46.4936867"><ele>1204</ele><time>2019-09-10T16:33:49.000Z</time></trkpt><trkpt lon="15.5139615" lat="46.4936967"><ele>1205</ele><time>2019-09-10T16:33:50.000Z</time></trkpt><trkpt lon="15.5139615" lat="46.4936967"><ele>1205</ele><time>2019-09-10T16:33:51.000Z</time></trkpt><trkpt lon="15.5138788" lat="46.4937153"><ele>1205</ele><time>2019-09-10T16:33:52.000Z</time></trkpt><trkpt lon="15.5138368" lat="46.4937251"><ele>1205</ele><time>2019-09-10T16:33:53.000Z</time></trkpt><trkpt lon="15.5138368" lat="46.4937251"><ele>1205</ele><time>2019-09-10T16:33:54.000Z</time></trkpt><trkpt lon="15.5137558" lat="46.4937457"><ele>1206</ele><time>2019-09-10T16:33:55.000Z</time></trkpt><trkpt lon="15.5137558" lat="46.4937457"><ele>1206</ele><time>2019-09-10T16:33:56.000Z</time></trkpt><trkpt lon="15.5136944" lat="46.4937707"><ele>1206</ele><time>2019-09-10T16:33:57.000Z</time></trkpt><trkpt lon="15.5136944" lat="46.4937707"><ele>1206</ele><time>2019-09-10T16:33:58.000Z</time></trkpt><trkpt lon="15.5136039" lat="46.4938053"><ele>1206</ele><time>2019-09-10T16:33:59.000Z</time></trkpt><trkpt lon="15.5135631" lat="46.493821"><ele>1206</ele><time>2019-09-10T16:34:00.000Z</time></trkpt><trkpt lon="15.5135238" lat="46.4938353"><ele>1207</ele><time>2019-09-10T16:34:01.000Z</time></trkpt><trkpt lon="15.5135238" lat="46.4938353"><ele>1207</ele><time>2019-09-10T16:34:02.000Z</time></trkpt><trkpt lon="15.5134472" lat="46.4938653"><ele>1207</ele><time>2019-09-10T16:34:03.000Z</time></trkpt><trkpt lon="15.5134472" lat="46.4938653"><ele>1207</ele><time>2019-09-10T16:34:04.000Z</time></trkpt><trkpt lon="15.5133711" lat="46.4938922"><ele>1207</ele><time>2019-09-10T16:34:05.000Z</time></trkpt><trkpt lon="15.5133711" lat="46.4938922"><ele>1207</ele><time>2019-09-10T16:34:06.000Z</time></trkpt><trkpt lon="15.5132952" lat="46.4939221"><ele>1208</ele><time>2019-09-10T16:34:07.000Z</time></trkpt><trkpt lon="15.5132553" lat="46.4939363"><ele>1208</ele><time>2019-09-10T16:34:08.000Z</time></trkpt><trkpt lon="15.5132553" lat="46.4939363"><ele>1208</ele><time>2019-09-10T16:34:09.000Z</time></trkpt><trkpt lon="15.513182" lat="46.4939631"><ele>1209</ele><time>2019-09-10T16:34:10.000Z</time></trkpt><trkpt lon="15.513182" lat="46.4939631"><ele>1209</ele><time>2019-09-10T16:34:11.000Z</time></trkpt><trkpt lon="15.5131105" lat="46.4939926"><ele>1209</ele><time>2019-09-10T16:34:12.000Z</time></trkpt><trkpt lon="15.513073" lat="46.4940093"><ele>1209</ele><time>2019-09-10T16:34:13.000Z</time></trkpt><trkpt lon="15.513073" lat="46.4940093"><ele>1209</ele><time>2019-09-10T16:34:14.000Z</time></trkpt><trkpt lon="15.5129974" lat="46.494036"><ele>1210</ele><time>2019-09-10T16:34:15.000Z</time></trkpt><trkpt lon="15.5129586" lat="46.4940525"><ele>1210</ele><time>2019-09-10T16:34:16.000Z</time></trkpt><trkpt lon="15.5129586" lat="46.4940525"><ele>1210</ele><time>2019-09-10T16:34:17.000Z</time></trkpt><trkpt lon="15.5128792" lat="46.4940808"><ele>1211</ele><time>2019-09-10T16:34:18.000Z</time></trkpt><trkpt lon="15.5128792" lat="46.4940808"><ele>1211</ele><time>2019-09-10T16:34:19.000Z</time></trkpt><trkpt lon="15.5128" lat="46.4941108"><ele>1211</ele><time>2019-09-10T16:34:20.000Z</time></trkpt><trkpt lon="15.5128" lat="46.4941108"><ele>1211</ele><time>2019-09-10T16:34:21.000Z</time></trkpt><trkpt lon="15.5127168" lat="46.4941368"><ele>1212</ele><time>2019-09-10T16:34:22.000Z</time></trkpt><trkpt lon="15.5126753" lat="46.4941465"><ele>1213</ele><time>2019-09-10T16:34:23.000Z</time></trkpt><trkpt lon="15.5126295" lat="46.4941559"><ele>1213</ele><time>2019-09-10T16:34:24.000Z</time></trkpt><trkpt lon="15.5125893" lat="46.4941655"><ele>1213</ele><time>2019-09-10T16:34:25.000Z</time></trkpt><trkpt lon="15.51255" lat="46.4941747"><ele>1213</ele><time>2019-09-10T16:34:26.000Z</time></trkpt><trkpt lon="15.51255" lat="46.4941747"><ele>1213</ele><time>2019-09-10T16:34:27.000Z</time></trkpt><trkpt lon="15.5124506" lat="46.4942009"><ele>1213</ele><time>2019-09-10T16:34:28.000Z</time></trkpt><trkpt lon="15.5124052" lat="46.4942133"><ele>1214</ele><time>2019-09-10T16:34:29.000Z</time></trkpt><trkpt lon="15.5124052" lat="46.4942133"><ele>1214</ele><time>2019-09-10T16:34:30.000Z</time></trkpt><trkpt lon="15.5123193" lat="46.4942331"><ele>1214</ele><time>2019-09-10T16:34:31.000Z</time></trkpt><trkpt lon="15.5123193" lat="46.4942331"><ele>1214</ele><time>2019-09-10T16:34:32.000Z</time></trkpt><trkpt lon="15.5122305" lat="46.4942521"><ele>1214</ele><time>2019-09-10T16:34:33.000Z</time></trkpt><trkpt lon="15.5121878" lat="46.494261"><ele>1214</ele><time>2019-09-10T16:34:34.000Z</time></trkpt><trkpt lon="15.5121878" lat="46.494261"><ele>1214</ele><time>2019-09-10T16:34:35.000Z</time></trkpt><trkpt lon="15.5121018" lat="46.4942797"><ele>1215</ele><time>2019-09-10T16:34:36.000Z</time></trkpt><trkpt lon="15.5120581" lat="46.4942877"><ele>1215</ele><time>2019-09-10T16:34:37.000Z</time></trkpt><trkpt lon="15.5120581" lat="46.4942877"><ele>1215</ele><time>2019-09-10T16:34:38.000Z</time></trkpt><trkpt lon="15.5119705" lat="46.4943036"><ele>1215</ele><time>2019-09-10T16:34:39.000Z</time></trkpt><trkpt lon="15.5119252" lat="46.4943119"><ele>1216</ele><time>2019-09-10T16:34:40.000Z</time></trkpt><trkpt lon="15.5119252" lat="46.4943119"><ele>1216</ele><time>2019-09-10T16:34:41.000Z</time></trkpt><trkpt lon="15.5118312" lat="46.4943299"><ele>1216</ele><time>2019-09-10T16:34:42.000Z</time></trkpt><trkpt lon="15.5118312" lat="46.4943299"><ele>1216</ele><time>2019-09-10T16:34:43.000Z</time></trkpt><trkpt lon="15.5117376" lat="46.4943456"><ele>1216</ele><time>2019-09-10T16:34:44.000Z</time></trkpt><trkpt lon="15.5116905" lat="46.4943519"><ele>1216</ele><time>2019-09-10T16:34:45.000Z</time></trkpt><trkpt lon="15.5116905" lat="46.4943519"><ele>1216</ele><time>2019-09-10T16:34:46.000Z</time></trkpt><trkpt lon="15.5115979" lat="46.4943612"><ele>1217</ele><time>2019-09-10T16:34:47.000Z</time></trkpt><trkpt lon="15.51155" lat="46.4943646"><ele>1217</ele><time>2019-09-10T16:34:48.000Z</time></trkpt><trkpt lon="15.5115016" lat="46.4943661"><ele>1217</ele><time>2019-09-10T16:34:49.000Z</time></trkpt><trkpt lon="15.5114515" lat="46.4943656"><ele>1217</ele><time>2019-09-10T16:34:50.000Z</time></trkpt><trkpt lon="15.5114515" lat="46.4943656"><ele>1217</ele><time>2019-09-10T16:34:51.000Z</time></trkpt><trkpt lon="15.511353" lat="46.4943573"><ele>1217</ele><time>2019-09-10T16:34:52.000Z</time></trkpt><trkpt lon="15.511353" lat="46.4943573"><ele>1217</ele><time>2019-09-10T16:34:53.000Z</time></trkpt><trkpt lon="15.5112513" lat="46.4943408"><ele>1218</ele><time>2019-09-10T16:34:54.000Z</time></trkpt><trkpt lon="15.5111993" lat="46.4943295"><ele>1218</ele><time>2019-09-10T16:34:55.000Z</time></trkpt><trkpt lon="15.5111487" lat="46.4943151"><ele>1218</ele><time>2019-09-10T16:34:56.000Z</time></trkpt><trkpt lon="15.511097" lat="46.4942973"><ele>1218</ele><time>2019-09-10T16:34:57.000Z</time></trkpt><trkpt lon="15.511097" lat="46.4942973"><ele>1218</ele><time>2019-09-10T16:34:58.000Z</time></trkpt><trkpt lon="15.5109992" lat="46.4942545"><ele>1218</ele><time>2019-09-10T16:34:59.000Z</time></trkpt><trkpt lon="15.5109992" lat="46.4942545"><ele>1218</ele><time>2019-09-10T16:35:00.000Z</time></trkpt><trkpt lon="15.5108859" lat="46.4941917"><ele>1218</ele><time>2019-09-10T16:35:01.000Z</time></trkpt><trkpt lon="15.5108447" lat="46.4941639"><ele>1218</ele><time>2019-09-10T16:35:02.000Z</time></trkpt><trkpt lon="15.5108447" lat="46.4941639"><ele>1218</ele><time>2019-09-10T16:35:03.000Z</time></trkpt><trkpt lon="15.5107564" lat="46.4941091"><ele>1219</ele><time>2019-09-10T16:35:04.000Z</time></trkpt><trkpt lon="15.5107119" lat="46.4940831"><ele>1219</ele><time>2019-09-10T16:35:05.000Z</time></trkpt><trkpt lon="15.5107119" lat="46.4940831"><ele>1219</ele><time>2019-09-10T16:35:06.000Z</time></trkpt><trkpt lon="15.5106348" lat="46.4940338"><ele>1220</ele><time>2019-09-10T16:35:07.000Z</time></trkpt><trkpt lon="15.510609" lat="46.4940098"><ele>1220</ele><time>2019-09-10T16:35:08.000Z</time></trkpt><trkpt lon="15.510609" lat="46.4940098"><ele>1220</ele><time>2019-09-10T16:35:09.000Z</time></trkpt><trkpt lon="15.5105788" lat="46.4939819"><ele>1219</ele><time>2019-09-10T16:35:10.000Z</time></trkpt><trkpt lon="15.5105788" lat="46.4939819"><ele>1219</ele><time>2019-09-10T16:35:11.000Z</time></trkpt><trkpt lon="15.5105788" lat="46.4939819"><ele>1219</ele><time>2019-09-10T16:35:12.000Z</time></trkpt><trkpt lon="15.5105788" lat="46.4939819"><ele>1219</ele><time>2019-09-10T16:35:13.000Z</time></trkpt><trkpt lon="-999.0" lat="-999.0"><ele>0.0</ele><time>2019-09-10T16:35:14.000Z</time></trkpt><trkpt lon="15.5105472" lat="46.4939631"><ele>1221</ele><time>2019-09-10T16:35:15.000Z</time></trkpt><trkpt lon="15.5105472" lat="46.4939631"><ele>1221</ele><time>2019-09-10T16:35:16.000Z</time></trkpt><trkpt lon="15.5105472" lat="46.4939631"><ele>1221</ele><time>2019-09-10T16:35:17.000Z</time></trkpt><trkpt lon="15.5105472" lat="46.4939631"><ele>1221</ele><time>2019-09-10T16:35:18.000Z</time></trkpt><trkpt lon="-999.0" lat="-999.0"><ele>0.0</ele><time>2019-09-10T16:35:19.000Z</time></trkpt><trkpt lon="-999.0" lat="-999.0"><ele>0.0</ele><time>2019-09-10T16:35:20.000Z</time></trkpt><trkpt lon="-999.0" lat="-999.0"><ele>0.0</ele><time>2019-09-10T16:35:21.000Z</time></trkpt><trkpt lon="-999.0" lat="-999.0"><ele>0.0</ele><time>2019-09-10T16:35:22.000Z</time></trkpt><trkpt lon="-999.0" lat="-999.0"><ele>0.0</ele><time>2019-09-10T16:35:23.000Z</time></trkpt><trkpt lon="-999.0" lat="-999.0"><ele>0.0</ele><time>2019-09-10T16:35:24.000Z</time></trkpt><trkpt lon="15.5105428" lat="46.4939983"><ele>1218</ele><time>2019-09-10T16:35:25.000Z</time></trkpt><trkpt lon="15.5105428" lat="46.4939983"><ele>1218</ele><time>2019-09-10T16:35:26.000Z</time></trkpt><trkpt lon="15.5105428" lat="46.4939983"><ele>1218</ele><time>2019-09-10T16:35:27.000Z</time></trkpt><trkpt lon="15.5105428" lat="46.4939983"><ele>1218</ele><time>2019-09-10T16:35:28.000Z</time></trkpt><trkpt lon="-999.0" lat="-999.0"><ele>0.0</ele><time>2019-09-10T16:35:29.000Z</time></trkpt><trkpt lon="-999.0" lat="-999.0"><ele>0.0</ele><time>2019-09-10T16:35:30.000Z</time></trkpt><trkpt lon="-999.0" lat="-999.0"><ele>0.0</ele><time>2019-09-10T16:35:31.000Z</time></trkpt><trkpt lon="-999.0" lat="-999.0"><ele>0.0</ele><time>2019-09-10T16:35:32.000Z</time></trkpt><trkpt lon="-999.0" lat="-999.0"><ele>0.0</ele><time>2019-09-10T16:35:33.000Z</time></trkpt><trkpt lon="-999.0" lat="-999.0"><ele>0.0</ele><time>2019-09-10T16:35:34.000Z</time></trkpt><trkpt lon="-999.0" lat="-999.0"><ele>0.0</ele><time>2019-09-10T16:35:35.000Z</time></trkpt><trkpt lon="-999.0" lat="-999.0"><ele>0.0</ele><time>2019-09-10T16:35:36.000Z</time></trkpt><trkpt lon="-999.0" lat="-999.0"><ele>0.0</ele><time>2019-09-10T16:35:37.000Z</time></trkpt><trkpt lon="-999.0" lat="-999.0"><ele>0.0</ele><time>2019-09-10T16:35:38.000Z</time></trkpt><trkpt lon="-999.0" lat="-999.0"><ele>0.0</ele><time>2019-09-10T16:35:39.000Z</time></trkpt><trkpt lon="-999.0" lat="-999.0"><ele>0.0</ele><time>2019-09-10T16:35:40.000Z</time></trkpt><trkpt lon="-999.0" lat="-999.0"><ele>0.0</ele><time>2019-09-10T16:35:41.000Z</time></trkpt><trkpt lon="-999.0" lat="-999.0"><ele>0.0</ele><time>2019-09-10T16:35:42.000Z</time></trkpt><trkpt lon="-999.0" lat="-999.0"><ele>0.0</ele><time>2019-09-10T16:35:43.000Z</time></trkpt><trkpt lon="-999.0" lat="-999.0"><ele>0.0</ele><time>2019-09-10T16:35:44.000Z</time></trkpt><trkpt lon="-999.0" lat="-999.0"><ele>0.0</ele><time>2019-09-10T16:35:45.000Z</time></trkpt><trkpt lon="-999.0" lat="-999.0"><ele>0.0</ele><time>2019-09-10T16:35:46.000Z</time></trkpt><trkpt lon="-999.0" lat="-999.0"><ele>0.0</ele><time>2019-09-10T16:35:47.000Z</time></trkpt><trkpt lon="-999.0" lat="-999.0"><ele>0.0</ele><time>2019-09-10T16:35:48.000Z</time></trkpt><trkpt lon="-999.0" lat="-999.0"><ele>0.0</ele><time>2019-09-10T16:35:49.000Z</time></trkpt><trkpt lon="15.5105801" lat="46.4939876"><ele>1217</ele><time>2019-09-10T16:35:50.000Z</time></trkpt><trkpt lon="15.5105801" lat="46.4939876"><ele>1217</ele><time>2019-09-10T16:35:51.000Z</time></trkpt><trkpt lon="15.5105801" lat="46.4939876"><ele>1217</ele><time>2019-09-10T16:35:52.000Z</time></trkpt><trkpt lon="15.5105801" lat="46.4939876"><ele>1217</ele><time>2019-09-10T16:35:53.000Z</time></trkpt><trkpt lon="-999.0" lat="-999.0"><ele>0.0</ele><time>2019-09-10T16:35:54.000Z</time></trkpt><trkpt lon="-999.0" lat="-999.0"><ele>0.0</ele><time>2019-09-10T16:35:55.000Z</time></trkpt><trkpt lon="-999.0" lat="-999.0"><ele>0.0</ele><time>2019-09-10T16:35:56.000Z</time></trkpt><trkpt lon="-999.0" lat="-999.0"><ele>0.0</ele><time>2019-09-10T16:35:57.000Z</time></trkpt><trkpt lon="-999.0" lat="-999.0"><ele>0.0</ele><time>2019-09-10T16:35:58.000Z</time></trkpt><trkpt lon="-999.0" lat="-999.0"><ele>0.0</ele><time>2019-09-10T16:35:59.000Z</time></trkpt><trkpt lon="-999.0" lat="-999.0"><ele>0.0</ele><time>2019-09-10T16:36:00.000Z</time></trkpt><trkpt lon="-999.0" lat="-999.0"><ele>0.0</ele><time>2019-09-10T16:36:01.000Z</time></trkpt><trkpt lon="-999.0" lat="-999.0"><ele>0.0</ele><time>2019-09-10T16:36:02.000Z</time></trkpt><trkpt lon="-999.0" lat="-999.0"><ele>0.0</ele><time>2019-09-10T16:36:03.000Z</time></trkpt><trkpt lon="-999.0" lat="-999.0"><ele>0.0</ele><time>2019-09-10T16:36:04.000Z</time></trkpt><trkpt lon="-999.0" lat="-999.0"><ele>0.0</ele><time>2019-09-10T16:36:05.000Z</time></trkpt><trkpt lon="-999.0" lat="-999.0"><ele>0.0</ele><time>2019-09-10T16:36:06.000Z</time></trkpt><trkpt lon="-999.0" lat="-999.0"><ele>0.0</ele><time>2019-09-10T16:36:07.000Z</time></trkpt><trkpt lon="-999.0" lat="-999.0"><ele>0.0</ele><time>2019-09-10T16:36:08.000Z</time></trkpt><trkpt lon="-999.0" lat="-999.0"><ele>0.0</ele><time>2019-09-10T16:36:09.000Z</time></trkpt><trkpt lon="-999.0" lat="-999.0"><ele>0.0</ele><time>2019-09-10T16:36:10.000Z</time></trkpt><trkpt lon="-999.0" lat="-999.0"><ele>0.0</ele><time>2019-09-10T16:36:11.000Z</time></trkpt><trkpt lon="-999.0" lat="-999.0"><ele>0.0</ele><time>2019-09-10T16:36:12.000Z</time></trkpt><trkpt lon="-999.0" lat="-999.0"><ele>0.0</ele><time>2019-09-10T16:36:13.000Z</time></trkpt><trkpt lon="-999.0" lat="-999.0"><ele>0.0</ele><time>2019-09-10T16:36:14.000Z</time></trkpt><trkpt lon="-999.0" lat="-999.0"><ele>0.0</ele><time>2019-09-10T16:36:15.000Z</time></trkpt><trkpt lon="-999.0" lat="-999.0"><ele>0.0</ele><time>2019-09-10T16:36:16.000Z</time></trkpt><trkpt lon="-999.0" lat="-999.0"><ele>0.0</ele><time>2019-09-10T16:36:17.000Z</time></trkpt><trkpt lon="-999.0" lat="-999.0"><ele>0.0</ele><time>2019-09-10T16:36:18.000Z</time></trkpt><trkpt lon="-999.0" lat="-999.0"><ele>0.0</ele><time>2019-09-10T16:36:19.000Z</time></trkpt><trkpt lon="-999.0" lat="-999.0"><ele>0.0</ele><time>2019-09-10T16:36:20.000Z</time></trkpt><trkpt lon="-999.0" lat="-999.0"><ele>0.0</ele><time>2019-09-10T16:36:21.000Z</time></trkpt><trkpt lon="-999.0" lat="-999.0"><ele>0.0</ele><time>2019-09-10T16:36:22.000Z</time></trkpt><trkpt lon="-999.0" lat="-999.0"><ele>0.0</ele><time>2019-09-10T16:36:23.000Z</time></trkpt><trkpt lon="-999.0" lat="-999.0"><ele>0.0</ele><time>2019-09-10T16:36:24.000Z</time></trkpt><trkpt lon="-999.0" lat="-999.0"><ele>0.0</ele><time>2019-09-10T16:36:25.000Z</time></trkpt><trkpt lon="-999.0" lat="-999.0"><ele>0.0</ele><time>2019-09-10T16:36:26.000Z</time></trkpt><trkpt lon="-999.0" lat="-999.0"><ele>0.0</ele><time>2019-09-10T16:36:27.000Z</time></trkpt><trkpt lon="-999.0" lat="-999.0"><ele>0.0</ele><time>2019-09-10T16:36:28.000Z</time></trkpt><trkpt lon="-999.0" lat="-999.0"><ele>0.0</ele><time>2019-09-10T16:36:29.000Z</time></trkpt><trkpt lon="-999.0" lat="-999.0"><ele>0.0</ele><time>2019-09-10T16:36:30.000Z</time></trkpt><trkpt lon="-999.0" lat="-999.0"><ele>0.0</ele><time>2019-09-10T16:36:31.000Z</time></trkpt><trkpt lon="-999.0" lat="-999.0"><ele>0.0</ele><time>2019-09-10T16:36:32.000Z</time></trkpt><trkpt lon="-999.0" lat="-999.0"><ele>0.0</ele><time>2019-09-10T16:36:33.000Z</time></trkpt><trkpt lon="-999.0" lat="-999.0"><ele>0.0</ele><time>2019-09-10T16:36:34.000Z</time></trkpt><trkpt lon="-999.0" lat="-999.0"><ele>0.0</ele><time>2019-09-10T16:36:35.000Z</time></trkpt><trkpt lon="-999.0" lat="-999.0"><ele>0.0</ele><time>2019-09-10T16:36:36.000Z</time></trkpt><trkpt lon="-999.0" lat="-999.0"><ele>0.0</ele><time>2019-09-10T16:36:37.000Z</time></trkpt><trkpt lon="-999.0" lat="-999.0"><ele>0.0</ele><time>2019-09-10T16:36:38.000Z</time></trkpt><trkpt lon="-999.0" lat="-999.0"><ele>0.0</ele><time>2019-09-10T16:36:39.000Z</time></trkpt><trkpt lon="-999.0" lat="-999.0"><ele>0.0</ele><time>2019-09-10T16:36:40.000Z</time></trkpt><trkpt lon="-999.0" lat="-999.0"><ele>0.0</ele><time>2019-09-10T16:36:41.000Z</time></trkpt><trkpt lon="-999.0" lat="-999.0"><ele>0.0</ele><time>2019-09-10T16:36:42.000Z</time></trkpt><trkpt lon="-999.0" lat="-999.0"><ele>0.0</ele><time>2019-09-10T16:36:43.000Z</time></trkpt><trkpt lon="-999.0" lat="-999.0"><ele>0.0</ele><time>2019-09-10T16:36:44.000Z</time></trkpt><trkpt lon="-999.0" lat="-999.0"><ele>0.0</ele><time>2019-09-10T16:36:45.000Z</time></trkpt><trkpt lon="-999.0" lat="-999.0"><ele>0.0</ele><time>2019-09-10T16:36:46.000Z</time></trkpt><trkpt lon="-999.0" lat="-999.0"><ele>0.0</ele><time>2019-09-10T16:36:47.000Z</time></trkpt><trkpt lon="-999.0" lat="-999.0"><ele>0.0</ele><time>2019-09-10T16:36:48.000Z</time></trkpt><trkpt lon="-999.0" lat="-999.0"><ele>0.0</ele><time>2019-09-10T16:36:49.000Z</time></trkpt><trkpt lon="-999.0" lat="-999.0"><ele>0.0</ele><time>2019-09-10T16:36:50.000Z</time></trkpt><trkpt lon="-999.0" lat="-999.0"><ele>0.0</ele><time>2019-09-10T16:36:51.000Z</time></trkpt><trkpt lon="-999.0" lat="-999.0"><ele>0.0</ele><time>2019-09-10T16:36:52.000Z</time></trkpt><trkpt lon="-999.0" lat="-999.0"><ele>0.0</ele><time>2019-09-10T16:36:53.000Z</time></trkpt><trkpt lon="-999.0" lat="-999.0"><ele>0.0</ele><time>2019-09-10T16:36:54.000Z</time></trkpt><trkpt lon="-999.0" lat="-999.0"><ele>0.0</ele><time>2019-09-10T16:36:55.000Z</time></trkpt><trkpt lon="-999.0" lat="-999.0"><ele>0.0</ele><time>2019-09-10T16:36:56.000Z</time></trkpt><trkpt lon="-999.0" lat="-999.0"><ele>0.0</ele><time>2019-09-10T16:36:57.000Z</time></trkpt><trkpt lon="-999.0" lat="-999.0"><ele>0.0</ele><time>2019-09-10T16:36:58.000Z</time></trkpt><trkpt lon="-999.0" lat="-999.0"><ele>0.0</ele><time>2019-09-10T16:36:59.000Z</time></trkpt><trkpt lon="-999.0" lat="-999.0"><ele>0.0</ele><time>2019-09-10T16:37:00.000Z</time></trkpt><trkpt lon="-999.0" lat="-999.0"><ele>0.0</ele><time>2019-09-10T16:37:01.000Z</time></trkpt><trkpt lon="-999.0" lat="-999.0"><ele>0.0</ele><time>2019-09-10T16:37:02.000Z</time></trkpt><trkpt lon="-999.0" lat="-999.0"><ele>0.0</ele><time>2019-09-10T16:37:03.000Z</time></trkpt><trkpt lon="-999.0" lat="-999.0"><ele>0.0</ele><time>2019-09-10T16:37:04.000Z</time></trkpt><trkpt lon="-999.0" lat="-999.0"><ele>0.0</ele><time>2019-09-10T16:37:05.000Z</time></trkpt><trkpt lon="-999.0" lat="-999.0"><ele>0.0</ele><time>2019-09-10T16:37:06.000Z</time></trkpt><trkpt lon="-999.0" lat="-999.0"><ele>0.0</ele><time>2019-09-10T16:37:07.000Z</time></trkpt><trkpt lon="-999.0" lat="-999.0"><ele>0.0</ele><time>2019-09-10T16:37:08.000Z</time></trkpt><trkpt lon="-999.0" lat="-999.0"><ele>0.0</ele><time>2019-09-10T16:37:09.000Z</time></trkpt><trkpt lon="-999.0" lat="-999.0"><ele>0.0</ele><time>2019-09-10T16:37:10.000Z</time></trkpt><trkpt lon="-999.0" lat="-999.0"><ele>0.0</ele><time>2019-09-10T16:37:11.000Z</time></trkpt><trkpt lon="-999.0" lat="-999.0"><ele>0.0</ele><time>2019-09-10T16:37:12.000Z</time></trkpt><trkpt lon="15.5106284" lat="46.4939877"><ele>1216</ele><time>2019-09-10T16:37:13.000Z</time></trkpt><trkpt lon="15.5106284" lat="46.4939877"><ele>1216</ele><time>2019-09-10T16:37:14.000Z</time></trkpt><trkpt lon="15.5106284" lat="46.4939877"><ele>1216</ele><time>2019-09-10T16:37:15.000Z</time></trkpt><trkpt lon="-999.0" lat="-999.0"><ele>0.0</ele><time>2019-09-10T16:37:16.000Z</time></trkpt><trkpt lon="-999.0" lat="-999.0"><ele>0.0</ele><time>2019-09-10T16:37:17.000Z</time></trkpt><trkpt lon="-999.0" lat="-999.0"><ele>0.0</ele><time>2019-09-10T16:37:18.000Z</time></trkpt><trkpt lon="-999.0" lat="-999.0"><ele>0.0</ele><time>2019-09-10T16:37:19.000Z</time></trkpt><trkpt lon="-999.0" lat="-999.0"><ele>0.0</ele><time>2019-09-10T16:37:20.000Z</time></trkpt><trkpt lon="-999.0" lat="-999.0"><ele>0.0</ele><time>2019-09-10T16:37:21.000Z</time></trkpt><trkpt lon="-999.0" lat="-999.0"><ele>0.0</ele><time>2019-09-10T16:37:22.000Z</time></trkpt><trkpt lon="-999.0" lat="-999.0"><ele>0.0</ele><time>2019-09-10T16:37:23.000Z</time></trkpt><trkpt lon="-999.0" lat="-999.0"><ele>0.0</ele><time>2019-09-10T16:37:24.000Z</time></trkpt><trkpt lon="-999.0" lat="-999.0"><ele>0.0</ele><time>2019-09-10T16:37:25.000Z</time></trkpt><trkpt lon="-999.0" lat="-999.0"><ele>0.0</ele><time>2019-09-10T16:37:26.000Z</time></trkpt><trkpt lon="-999.0" lat="-999.0"><ele>0.0</ele><time>2019-09-10T16:37:27.000Z</time></trkpt><trkpt lon="-999.0" lat="-999.0"><ele>0.0</ele><time>2019-09-10T16:37:28.000Z</time></trkpt><trkpt lon="-999.0" lat="-999.0"><ele>0.0</ele><time>2019-09-10T16:37:29.000Z</time></trkpt><trkpt lon="-999.0" lat="-999.0"><ele>0.0</ele><time>2019-09-10T16:37:30.000Z</time></trkpt><trkpt lon="-999.0" lat="-999.0"><ele>0.0</ele><time>2019-09-10T16:37:31.000Z</time></trkpt><trkpt lon="-999.0" lat="-999.0"><ele>0.0</ele><time>2019-09-10T16:37:32.000Z</time></trkpt><trkpt lon="-999.0" lat="-999.0"><ele>0.0</ele><time>2019-09-10T16:37:33.000Z</time></trkpt><trkpt lon="-999.0" lat="-999.0"><ele>0.0</ele><time>2019-09-10T16:37:34.000Z</time></trkpt><trkpt lon="-999.0" lat="-999.0"><ele>0.0</ele><time>2019-09-10T16:37:35.000Z</time></trkpt><trkpt lon="-999.0" lat="-999.0"><ele>0.0</ele><time>2019-09-10T16:37:36.000Z</time></trkpt><trkpt lon="-999.0" lat="-999.0"><ele>0.0</ele><time>2019-09-10T16:37:37.000Z</time></trkpt><trkpt lon="-999.0" lat="-999.0"><ele>0.0</ele><time>2019-09-10T16:37:38.000Z</time></trkpt><trkpt lon="-999.0" lat="-999.0"><ele>0.0</ele><time>2019-09-10T16:37:39.000Z</time></trkpt><trkpt lon="-999.0" lat="-999.0"><ele>0.0</ele><time>2019-09-10T16:37:40.000Z</time></trkpt><trkpt lon="-999.0" lat="-999.0"><ele>0.0</ele><time>2019-09-10T16:37:41.000Z</time></trkpt><trkpt lon="-999.0" lat="-999.0"><ele>0.0</ele><time>2019-09-10T16:37:42.000Z</time></trkpt><trkpt lon="-999.0" lat="-999.0"><ele>0.0</ele><time>2019-09-10T16:37:43.000Z</time></trkpt><trkpt lon="-999.0" lat="-999.0"><ele>0.0</ele><time>2019-09-10T16:37:44.000Z</time></trkpt><trkpt lon="-999.0" lat="-999.0"><ele>0.0</ele><time>2019-09-10T16:37:45.000Z</time></trkpt><trkpt lon="-999.0" lat="-999.0"><ele>0.0</ele><time>2019-09-10T16:37:46.000Z</time></trkpt><trkpt lon="-999.0" lat="-999.0"><ele>0.0</ele><time>2019-09-10T16:37:47.000Z</time></trkpt><trkpt lon="-999.0" lat="-999.0"><ele>0.0</ele><time>2019-09-10T16:37:48.000Z</time></trkpt><trkpt lon="-999.0" lat="-999.0"><ele>0.0</ele><time>2019-09-10T16:37:49.000Z</time></trkpt><trkpt lon="-999.0" lat="-999.0"><ele>0.0</ele><time>2019-09-10T16:37:50.000Z</time></trkpt><trkpt lon="-999.0" lat="-999.0"><ele>0.0</ele><time>2019-09-10T16:37:51.000Z</time></trkpt><trkpt lon="-999.0" lat="-999.0"><ele>0.0</ele><time>2019-09-10T16:37:52.000Z</time></trkpt><trkpt lon="-999.0" lat="-999.0"><ele>0.0</ele><time>2019-09-10T16:37:53.000Z</time></trkpt><trkpt lon="-999.0" lat="-999.0"><ele>0.0</ele><time>2019-09-10T16:37:54.000Z</time></trkpt><trkpt lon="-999.0" lat="-999.0"><ele>0.0</ele><time>2019-09-10T16:37:55.000Z</time></trkpt><trkpt lon="-999.0" lat="-999.0"><ele>0.0</ele><time>2019-09-10T16:37:56.000Z</time></trkpt><trkpt lon="-999.0" lat="-999.0"><ele>0.0</ele><time>2019-09-10T16:37:57.000Z</time></trkpt><trkpt lon="-999.0" lat="-999.0"><ele>0.0</ele><time>2019-09-10T16:37:58.000Z</time></trkpt><trkpt lon="-999.0" lat="-999.0"><ele>0.0</ele><time>2019-09-10T16:37:59.000Z</time></trkpt><trkpt lon="-999.0" lat="-999.0"><ele>0.0</ele><time>2019-09-10T16:38:00.000Z</time></trkpt><trkpt lon="-999.0" lat="-999.0"><ele>0.0</ele><time>2019-09-10T16:38:01.000Z</time></trkpt><trkpt lon="-999.0" lat="-999.0"><ele>0.0</ele><time>2019-09-10T16:38:02.000Z</time></trkpt><trkpt lon="-999.0" lat="-999.0"><ele>0.0</ele><time>2019-09-10T16:38:03.000Z</time></trkpt><trkpt lon="-999.0" lat="-999.0"><ele>0.0</ele><time>2019-09-10T16:38:04.000Z</time></trkpt><trkpt lon="-999.0" lat="-999.0"><ele>0.0</ele><time>2019-09-10T16:38:05.000Z</time></trkpt><trkpt lon="-999.0" lat="-999.0"><ele>0.0</ele><time>2019-09-10T16:38:06.000Z</time></trkpt><trkpt lon="-999.0" lat="-999.0"><ele>0.0</ele><time>2019-09-10T16:38:07.000Z</time></trkpt><trkpt lon="-999.0" lat="-999.0"><ele>0.0</ele><time>2019-09-10T16:38:08.000Z</time></trkpt><trkpt lon="-999.0" lat="-999.0"><ele>0.0</ele><time>2019-09-10T16:38:09.000Z</time></trkpt><trkpt lon="-999.0" lat="-999.0"><ele>0.0</ele><time>2019-09-10T16:38:10.000Z</time></trkpt><trkpt lon="-999.0" lat="-999.0"><ele>0.0</ele><time>2019-09-10T16:38:11.000Z</time></trkpt><trkpt lon="-999.0" lat="-999.0"><ele>0.0</ele><time>2019-09-10T16:38:12.000Z</time></trkpt><trkpt lon="-999.0" lat="-999.0"><ele>0.0</ele><time>2019-09-10T16:38:13.000Z</time></trkpt><trkpt lon="-999.0" lat="-999.0"><ele>0.0</ele><time>2019-09-10T16:38:14.000Z</time></trkpt><trkpt lon="-999.0" lat="-999.0"><ele>0.0</ele><time>2019-09-10T16:38:15.000Z</time></trkpt><trkpt lon="-999.0" lat="-999.0"><ele>0.0</ele><time>2019-09-10T16:38:16.000Z</time></trkpt><trkpt lon="-999.0" lat="-999.0"><ele>0.0</ele><time>2019-09-10T16:38:17.000Z</time></trkpt><trkpt lon="-999.0" lat="-999.0"><ele>0.0</ele><time>2019-09-10T16:38:18.000Z</time></trkpt><trkpt lon="-999.0" lat="-999.0"><ele>0.0</ele><time>2019-09-10T16:38:19.000Z</time></trkpt><trkpt lon="-999.0" lat="-999.0"><ele>0.0</ele><time>2019-09-10T16:38:20.000Z</time></trkpt><trkpt lon="-999.0" lat="-999.0"><ele>0.0</ele><time>2019-09-10T16:38:21.000Z</time></trkpt><trkpt lon="-999.0" lat="-999.0"><ele>0.0</ele><time>2019-09-10T16:38:22.000Z</time></trkpt><trkpt lon="-999.0" lat="-999.0"><ele>0.0</ele><time>2019-09-10T16:38:23.000Z</time></trkpt><trkpt lon="-999.0" lat="-999.0"><ele>0.0</ele><time>2019-09-10T16:38:24.000Z</time></trkpt><trkpt lon="-999.0" lat="-999.0"><ele>0.0</ele><time>2019-09-10T16:38:25.000Z</time></trkpt><trkpt lon="-999.0" lat="-999.0"><ele>0.0</ele><time>2019-09-10T16:38:26.000Z</time></trkpt><trkpt lon="-999.0" lat="-999.0"><ele>0.0</ele><time>2019-09-10T16:38:27.000Z</time></trkpt><trkpt lon="-999.0" lat="-999.0"><ele>0.0</ele><time>2019-09-10T16:38:28.000Z</time></trkpt><trkpt lon="-999.0" lat="-999.0"><ele>0.0</ele><time>2019-09-10T16:38:29.000Z</time></trkpt><trkpt lon="-999.0" lat="-999.0"><ele>0.0</ele><time>2019-09-10T16:38:30.000Z</time></trkpt><trkpt lon="-999.0" lat="-999.0"><ele>0.0</ele><time>2019-09-10T16:38:31.000Z</time></trkpt><trkpt lon="-999.0" lat="-999.0"><ele>0.0</ele><time>2019-09-10T16:38:32.000Z</time></trkpt><trkpt lon="-999.0" lat="-999.0"><ele>0.0</ele><time>2019-09-10T16:38:33.000Z</time></trkpt><trkpt lon="-999.0" lat="-999.0"><ele>0.0</ele><time>2019-09-10T16:38:34.000Z</time></trkpt><trkpt lon="-999.0" lat="-999.0"><ele>0.0</ele><time>2019-09-10T16:38:35.000Z</time></trkpt><trkpt lon="-999.0" lat="-999.0"><ele>0.0</ele><time>2019-09-10T16:38:36.000Z</time></trkpt><trkpt lon="-999.0" lat="-999.0"><ele>0.0</ele><time>2019-09-10T16:38:37.000Z</time></trkpt><trkpt lon="-999.0" lat="-999.0"><ele>0.0</ele><time>2019-09-10T16:38:38.000Z</time></trkpt><trkpt lon="-999.0" lat="-999.0"><ele>0.0</ele><time>2019-09-10T16:38:39.000Z</time></trkpt><trkpt lon="-999.0" lat="-999.0"><ele>0.0</ele><time>2019-09-10T16:38:40.000Z</time></trkpt><trkpt lon="-999.0" lat="-999.0"><ele>0.0</ele><time>2019-09-10T16:38:41.000Z</time></trkpt><trkpt lon="-999.0" lat="-999.0"><ele>0.0</ele><time>2019-09-10T16:38:42.000Z</time></trkpt><trkpt lon="-999.0" lat="-999.0"><ele>0.0</ele><time>2019-09-10T16:38:43.000Z</time></trkpt><trkpt lon="-999.0" lat="-999.0"><ele>0.0</ele><time>2019-09-10T16:38:44.000Z</time></trkpt><trkpt lon="-999.0" lat="-999.0"><ele>0.0</ele><time>2019-09-10T16:38:45.000Z</time></trkpt><trkpt lon="15.5106598" lat="46.4940041"><ele>1217</ele><time>2019-09-10T16:38:46.000Z</time></trkpt><trkpt lon="15.5106598" lat="46.4940041"><ele>1217</ele><time>2019-09-10T16:38:47.000Z</time></trkpt><trkpt lon="15.5106598" lat="46.4940041"><ele>1217</ele><time>2019-09-10T16:38:48.000Z</time></trkpt><trkpt lon="-999.0" lat="-999.0"><ele>0.0</ele><time>2019-09-10T16:38:49.000Z</time></trkpt><trkpt lon="-999.0" lat="-999.0"><ele>0.0</ele><time>2019-09-10T16:38:50.000Z</time></trkpt><trkpt lon="-999.0" lat="-999.0"><ele>0.0</ele><time>2019-09-10T16:38:51.000Z</time></trkpt><trkpt lon="-999.0" lat="-999.0"><ele>0.0</ele><time>2019-09-10T16:38:52.000Z</time></trkpt><trkpt lon="-999.0" lat="-999.0"><ele>0.0</ele><time>2019-09-10T16:38:53.000Z</time></trkpt><trkpt lon="-999.0" lat="-999.0"><ele>0.0</ele><time>2019-09-10T16:38:54.000Z</time></trkpt><trkpt lon="-999.0" lat="-999.0"><ele>0.0</ele><time>2019-09-10T16:38:55.000Z</time></trkpt><trkpt lon="-999.0" lat="-999.0"><ele>0.0</ele><time>2019-09-10T16:38:56.000Z</time></trkpt><trkpt lon="-999.0" lat="-999.0"><ele>0.0</ele><time>2019-09-10T16:38:57.000Z</time></trkpt><trkpt lon="-999.0" lat="-999.0"><ele>0.0</ele><time>2019-09-10T16:38:58.000Z</time></trkpt><trkpt lon="-999.0" lat="-999.0"><ele>0.0</ele><time>2019-09-10T16:38:59.000Z</time></trkpt><trkpt lon="-999.0" lat="-999.0"><ele>0.0</ele><time>2019-09-10T16:39:00.000Z</time></trkpt><trkpt lon="-999.0" lat="-999.0"><ele>0.0</ele><time>2019-09-10T16:39:01.000Z</time></trkpt><trkpt lon="-999.0" lat="-999.0"><ele>0.0</ele><time>2019-09-10T16:39:02.000Z</time></trkpt><trkpt lon="-999.0" lat="-999.0"><ele>0.0</ele><time>2019-09-10T16:39:03.000Z</time></trkpt><trkpt lon="-999.0" lat="-999.0"><ele>0.0</ele><time>2019-09-10T16:39:04.000Z</time></trkpt><trkpt lon="-999.0" lat="-999.0"><ele>0.0</ele><time>2019-09-10T16:39:05.000Z</time></trkpt><trkpt lon="-999.0" lat="-999.0"><ele>0.0</ele><time>2019-09-10T16:39:06.000Z</time></trkpt><trkpt lon="-999.0" lat="-999.0"><ele>0.0</ele><time>2019-09-10T16:39:07.000Z</time></trkpt><trkpt lon="-999.0" lat="-999.0"><ele>0.0</ele><time>2019-09-10T16:39:08.000Z</time></trkpt><trkpt lon="-999.0" lat="-999.0"><ele>0.0</ele><time>2019-09-10T16:39:09.000Z</time></trkpt><trkpt lon="-999.0" lat="-999.0"><ele>0.0</ele><time>2019-09-10T16:39:10.000Z</time></trkpt><trkpt lon="-999.0" lat="-999.0"><ele>0.0</ele><time>2019-09-10T16:39:11.000Z</time></trkpt><trkpt lon="-999.0" lat="-999.0"><ele>0.0</ele><time>2019-09-10T16:39:12.000Z</time></trkpt><trkpt lon="-999.0" lat="-999.0"><ele>0.0</ele><time>2019-09-10T16:39:13.000Z</time></trkpt><trkpt lon="-999.0" lat="-999.0"><ele>0.0</ele><time>2019-09-10T16:39:14.000Z</time></trkpt><trkpt lon="-999.0" lat="-999.0"><ele>0.0</ele><time>2019-09-10T16:39:15.000Z</time></trkpt><trkpt lon="-999.0" lat="-999.0"><ele>0.0</ele><time>2019-09-10T16:39:16.000Z</time></trkpt><trkpt lon="-999.0" lat="-999.0"><ele>0.0</ele><time>2019-09-10T16:39:17.000Z</time></trkpt><trkpt lon="-999.0" lat="-999.0"><ele>0.0</ele><time>2019-09-10T16:39:18.000Z</time></trkpt><trkpt lon="-999.0" lat="-999.0"><ele>0.0</ele><time>2019-09-10T16:39:19.000Z</time></trkpt><trkpt lon="-999.0" lat="-999.0"><ele>0.0</ele><time>2019-09-10T16:39:20.000Z</time></trkpt><trkpt lon="-999.0" lat="-999.0"><ele>0.0</ele><time>2019-09-10T16:39:21.000Z</time></trkpt><trkpt lon="-999.0" lat="-999.0"><ele>0.0</ele><time>2019-09-10T16:39:22.000Z</time></trkpt><trkpt lon="-999.0" lat="-999.0"><ele>0.0</ele><time>2019-09-10T16:39:23.000Z</time></trkpt><trkpt lon="-999.0" lat="-999.0"><ele>0.0</ele><time>2019-09-10T16:39:24.000Z</time></trkpt><trkpt lon="-999.0" lat="-999.0"><ele>0.0</ele><time>2019-09-10T16:39:25.000Z</time></trkpt><trkpt lon="-999.0" lat="-999.0"><ele>0.0</ele><time>2019-09-10T16:39:26.000Z</time></trkpt><trkpt lon="-999.0" lat="-999.0"><ele>0.0</ele><time>2019-09-10T16:39:27.000Z</time></trkpt><trkpt lon="-999.0" lat="-999.0"><ele>0.0</ele><time>2019-09-10T16:39:28.000Z</time></trkpt><trkpt lon="-999.0" lat="-999.0"><ele>0.0</ele><time>2019-09-10T16:39:29.000Z</time></trkpt><trkpt lon="-999.0" lat="-999.0"><ele>0.0</ele><time>2019-09-10T16:39:30.000Z</time></trkpt><trkpt lon="-999.0" lat="-999.0"><ele>0.0</ele><time>2019-09-10T16:39:31.000Z</time></trkpt><trkpt lon="-999.0" lat="-999.0"><ele>0.0</ele><time>2019-09-10T16:39:32.000Z</time></trkpt><trkpt lon="-999.0" lat="-999.0"><ele>0.0</ele><time>2019-09-10T16:39:33.000Z</time></trkpt><trkpt lon="-999.0" lat="-999.0"><ele>0.0</ele><time>2019-09-10T16:39:34.000Z</time></trkpt><trkpt lon="-999.0" lat="-999.0"><ele>0.0</ele><time>2019-09-10T16:39:35.000Z</time></trkpt><trkpt lon="-999.0" lat="-999.0"><ele>0.0</ele><time>2019-09-10T16:39:36.000Z</time></trkpt><trkpt lon="-999.0" lat="-999.0"><ele>0.0</ele><time>2019-09-10T16:39:37.000Z</time></trkpt><trkpt lon="-999.0" lat="-999.0"><ele>0.0</ele><time>2019-09-10T16:39:38.000Z</time></trkpt><trkpt lon="-999.0" lat="-999.0"><ele>0.0</ele><time>2019-09-10T16:39:39.000Z</time></trkpt><trkpt lon="-999.0" lat="-999.0"><ele>0.0</ele><time>2019-09-10T16:39:40.000Z</time></trkpt><trkpt lon="-999.0" lat="-999.0"><ele>0.0</ele><time>2019-09-10T16:39:41.000Z</time></trkpt><trkpt lon="-999.0" lat="-999.0"><ele>0.0</ele><time>2019-09-10T16:39:42.000Z</time></trkpt><trkpt lon="-999.0" lat="-999.0"><ele>0.0</ele><time>2019-09-10T16:39:43.000Z</time></trkpt><trkpt lon="-999.0" lat="-999.0"><ele>0.0</ele><time>2019-09-10T16:39:44.000Z</time></trkpt><trkpt lon="-999.0" lat="-999.0"><ele>0.0</ele><time>2019-09-10T16:39:45.000Z</time></trkpt><trkpt lon="-999.0" lat="-999.0"><ele>0.0</ele><time>2019-09-10T16:39:46.000Z</time></trkpt><trkpt lon="-999.0" lat="-999.0"><ele>0.0</ele><time>2019-09-10T16:39:47.000Z</time></trkpt><trkpt lon="-999.0" lat="-999.0"><ele>0.0</ele><time>2019-09-10T16:39:48.000Z</time></trkpt><trkpt lon="-999.0" lat="-999.0"><ele>0.0</ele><time>2019-09-10T16:39:49.000Z</time></trkpt><trkpt lon="-999.0" lat="-999.0"><ele>0.0</ele><time>2019-09-10T16:39:50.000Z</time></trkpt><trkpt lon="-999.0" lat="-999.0"><ele>0.0</ele><time>2019-09-10T16:39:51.000Z</time></trkpt><trkpt lon="-999.0" lat="-999.0"><ele>0.0</ele><time>2019-09-10T16:39:52.000Z</time></trkpt><trkpt lon="-999.0" lat="-999.0"><ele>0.0</ele><time>2019-09-10T16:39:53.000Z</time></trkpt><trkpt lon="-999.0" lat="-999.0"><ele>0.0</ele><time>2019-09-10T16:39:54.000Z</time></trkpt><trkpt lon="-999.0" lat="-999.0"><ele>0.0</ele><time>2019-09-10T16:39:55.000Z</time></trkpt><trkpt lon="-999.0" lat="-999.0"><ele>0.0</ele><time>2019-09-10T16:39:56.000Z</time></trkpt><trkpt lon="-999.0" lat="-999.0"><ele>0.0</ele><time>2019-09-10T16:39:57.000Z</time></trkpt><trkpt lon="-999.0" lat="-999.0"><ele>0.0</ele><time>2019-09-10T16:39:58.000Z</time></trkpt><trkpt lon="-999.0" lat="-999.0"><ele>0.0</ele><time>2019-09-10T16:39:59.000Z</time></trkpt><trkpt lon="-999.0" lat="-999.0"><ele>0.0</ele><time>2019-09-10T16:40:00.000Z</time></trkpt><trkpt lon="-999.0" lat="-999.0"><ele>0.0</ele><time>2019-09-10T16:40:01.000Z</time></trkpt><trkpt lon="-999.0" lat="-999.0"><ele>0.0</ele><time>2019-09-10T16:40:02.000Z</time></trkpt><trkpt lon="-999.0" lat="-999.0"><ele>0.0</ele><time>2019-09-10T16:40:03.000Z</time></trkpt><trkpt lon="-999.0" lat="-999.0"><ele>0.0</ele><time>2019-09-10T16:40:04.000Z</time></trkpt><trkpt lon="-999.0" lat="-999.0"><ele>0.0</ele><time>2019-09-10T16:40:05.000Z</time></trkpt><trkpt lon="-999.0" lat="-999.0"><ele>0.0</ele><time>2019-09-10T16:40:06.000Z</time></trkpt><trkpt lon="-999.0" lat="-999.0"><ele>0.0</ele><time>2019-09-10T16:40:07.000Z</time></trkpt><trkpt lon="-999.0" lat="-999.0"><ele>0.0</ele><time>2019-09-10T16:40:08.000Z</time></trkpt><trkpt lon="-999.0" lat="-999.0"><ele>0.0</ele><time>2019-09-10T16:40:09.000Z</time></trkpt><trkpt lon="-999.0" lat="-999.0"><ele>0.0</ele><time>2019-09-10T16:40:10.000Z</time></trkpt><trkpt lon="-999.0" lat="-999.0"><ele>0.0</ele><time>2019-09-10T16:40:11.000Z</time></trkpt><trkpt lon="-999.0" lat="-999.0"><ele>0.0</ele><time>2019-09-10T16:40:12.000Z</time></trkpt><trkpt lon="-999.0" lat="-999.0"><ele>0.0</ele><time>2019-09-10T16:40:13.000Z</time></trkpt><trkpt lon="-999.0" lat="-999.0"><ele>0.0</ele><time>2019-09-10T16:40:14.000Z</time></trkpt><trkpt lon="-999.0" lat="-999.0"><ele>0.0</ele><time>2019-09-10T16:40:15.000Z</time></trkpt><trkpt lon="-999.0" lat="-999.0"><ele>0.0</ele><time>2019-09-10T16:40:16.000Z</time></trkpt><trkpt lon="-999.0" lat="-999.0"><ele>0.0</ele><time>2019-09-10T16:40:17.000Z</time></trkpt><trkpt lon="-999.0" lat="-999.0"><ele>0.0</ele><time>2019-09-10T16:40:18.000Z</time></trkpt><trkpt lon="-999.0" lat="-999.0"><ele>0.0</ele><time>2019-09-10T16:40:19.000Z</time></trkpt><trkpt lon="-999.0" lat="-999.0"><ele>0.0</ele><time>2019-09-10T16:40:20.000Z</time></trkpt><trkpt lon="-999.0" lat="-999.0"><ele>0.0</ele><time>2019-09-10T16:40:21.000Z</time></trkpt><trkpt lon="-999.0" lat="-999.0"><ele>0.0</ele><time>2019-09-10T16:40:22.000Z</time></trkpt><trkpt lon="-999.0" lat="-999.0"><ele>0.0</ele><time>2019-09-10T16:40:23.000Z</time></trkpt><trkpt lon="-999.0" lat="-999.0"><ele>0.0</ele><time>2019-09-10T16:40:24.000Z</time></trkpt><trkpt lon="-999.0" lat="-999.0"><ele>0.0</ele><time>2019-09-10T16:40:25.000Z</time></trkpt><trkpt lon="-999.0" lat="-999.0"><ele>0.0</ele><time>2019-09-10T16:40:26.000Z</time></trkpt><trkpt lon="-999.0" lat="-999.0"><ele>0.0</ele><time>2019-09-10T16:40:27.000Z</time></trkpt><trkpt lon="-999.0" lat="-999.0"><ele>0.0</ele><time>2019-09-10T16:40:28.000Z</time></trkpt><trkpt lon="-999.0" lat="-999.0"><ele>0.0</ele><time>2019-09-10T16:40:29.000Z</time></trkpt><trkpt lon="-999.0" lat="-999.0"><ele>0.0</ele><time>2019-09-10T16:40:30.000Z</time></trkpt><trkpt lon="-999.0" lat="-999.0"><ele>0.0</ele><time>2019-09-10T16:40:31.000Z</time></trkpt><trkpt lon="-999.0" lat="-999.0"><ele>0.0</ele><time>2019-09-10T16:40:32.000Z</time></trkpt><trkpt lon="-999.0" lat="-999.0"><ele>0.0</ele><time>2019-09-10T16:40:33.000Z</time></trkpt><trkpt lon="-999.0" lat="-999.0"><ele>0.0</ele><time>2019-09-10T16:40:34.000Z</time></trkpt><trkpt lon="-999.0" lat="-999.0"><ele>0.0</ele><time>2019-09-10T16:40:35.000Z</time></trkpt><trkpt lon="-999.0" lat="-999.0"><ele>0.0</ele><time>2019-09-10T16:40:36.000Z</time></trkpt><trkpt lon="-999.0" lat="-999.0"><ele>0.0</ele><time>2019-09-10T16:40:37.000Z</time></trkpt><trkpt lon="-999.0" lat="-999.0"><ele>0.0</ele><time>2019-09-10T16:40:38.000Z</time></trkpt><trkpt lon="-999.0" lat="-999.0"><ele>0.0</ele><time>2019-09-10T16:40:39.000Z</time></trkpt><trkpt lon="-999.0" lat="-999.0"><ele>0.0</ele><time>2019-09-10T16:40:40.000Z</time></trkpt><trkpt lon="-999.0" lat="-999.0"><ele>0.0</ele><time>2019-09-10T16:40:41.000Z</time></trkpt><trkpt lon="-999.0" lat="-999.0"><ele>0.0</ele><time>2019-09-10T16:40:42.000Z</time></trkpt><trkpt lon="-999.0" lat="-999.0"><ele>0.0</ele><time>2019-09-10T16:40:43.000Z</time></trkpt><trkpt lon="-999.0" lat="-999.0"><ele>0.0</ele><time>2019-09-10T16:40:44.000Z</time></trkpt><trkpt lon="-999.0" lat="-999.0"><ele>0.0</ele><time>2019-09-10T16:40:45.000Z</time></trkpt><trkpt lon="-999.0" lat="-999.0"><ele>0.0</ele><time>2019-09-10T16:40:46.000Z</time></trkpt><trkpt lon="-999.0" lat="-999.0"><ele>0.0</ele><time>2019-09-10T16:40:47.000Z</time></trkpt><trkpt lon="-999.0" lat="-999.0"><ele>0.0</ele><time>2019-09-10T16:40:48.000Z</time></trkpt><trkpt lon="-999.0" lat="-999.0"><ele>0.0</ele><time>2019-09-10T16:40:49.000Z</time></trkpt><trkpt lon="-999.0" lat="-999.0"><ele>0.0</ele><time>2019-09-10T16:40:50.000Z</time></trkpt><trkpt lon="15.5106358" lat="46.4939806"><ele>1217</ele><time>2019-09-10T16:40:51.000Z</time></trkpt><trkpt lon="15.5106358" lat="46.4939806"><ele>1217</ele><time>2019-09-10T16:40:52.000Z</time></trkpt><trkpt lon="15.5106358" lat="46.4939806"><ele>1217</ele><time>2019-09-10T16:40:53.000Z</time></trkpt><trkpt lon="-999.0" lat="-999.0"><ele>0.0</ele><time>2019-09-10T16:40:54.000Z</time></trkpt><trkpt lon="-999.0" lat="-999.0"><ele>0.0</ele><time>2019-09-10T16:40:55.000Z</time></trkpt><trkpt lon="-999.0" lat="-999.0"><ele>0.0</ele><time>2019-09-10T16:40:56.000Z</time></trkpt><trkpt lon="-999.0" lat="-999.0"><ele>0.0</ele><time>2019-09-10T16:40:57.000Z</time></trkpt><trkpt lon="-999.0" lat="-999.0"><ele>0.0</ele><time>2019-09-10T16:40:58.000Z</time></trkpt><trkpt lon="-999.0" lat="-999.0"><ele>0.0</ele><time>2019-09-10T16:40:59.000Z</time></trkpt><trkpt lon="-999.0" lat="-999.0"><ele>0.0</ele><time>2019-09-10T16:41:00.000Z</time></trkpt><trkpt lon="-999.0" lat="-999.0"><ele>0.0</ele><time>2019-09-10T16:41:01.000Z</time></trkpt><trkpt lon="-999.0" lat="-999.0"><ele>0.0</ele><time>2019-09-10T16:41:02.000Z</time></trkpt><trkpt lon="-999.0" lat="-999.0"><ele>0.0</ele><time>2019-09-10T16:41:03.000Z</time></trkpt><trkpt lon="-999.0" lat="-999.0"><ele>0.0</ele><time>2019-09-10T16:41:04.000Z</time></trkpt><trkpt lon="-999.0" lat="-999.0"><ele>0.0</ele><time>2019-09-10T16:41:05.000Z</time></trkpt><trkpt lon="-999.0" lat="-999.0"><ele>0.0</ele><time>2019-09-10T16:41:06.000Z</time></trkpt><trkpt lon="-999.0" lat="-999.0"><ele>0.0</ele><time>2019-09-10T16:41:07.000Z</time></trkpt><trkpt lon="-999.0" lat="-999.0"><ele>0.0</ele><time>2019-09-10T16:41:08.000Z</time></trkpt><trkpt lon="-999.0" lat="-999.0"><ele>0.0</ele><time>2019-09-10T16:41:09.000Z</time></trkpt><trkpt lon="-999.0" lat="-999.0"><ele>0.0</ele><time>2019-09-10T16:41:10.000Z</time></trkpt><trkpt lon="-999.0" lat="-999.0"><ele>0.0</ele><time>2019-09-10T16:41:11.000Z</time></trkpt><trkpt lon="-999.0" lat="-999.0"><ele>0.0</ele><time>2019-09-10T16:41:12.000Z</time></trkpt><trkpt lon="-999.0" lat="-999.0"><ele>0.0</ele><time>2019-09-10T16:41:13.000Z</time></trkpt><trkpt lon="-999.0" lat="-999.0"><ele>0.0</ele><time>2019-09-10T16:41:14.000Z</time></trkpt><trkpt lon="-999.0" lat="-999.0"><ele>0.0</ele><time>2019-09-10T16:41:15.000Z</time></trkpt><trkpt lon="-999.0" lat="-999.0"><ele>0.0</ele><time>2019-09-10T16:41:16.000Z</time></trkpt><trkpt lon="-999.0" lat="-999.0"><ele>0.0</ele><time>2019-09-10T16:41:17.000Z</time></trkpt><trkpt lon="-999.0" lat="-999.0"><ele>0.0</ele><time>2019-09-10T16:41:18.000Z</time></trkpt><trkpt lon="-999.0" lat="-999.0"><ele>0.0</ele><time>2019-09-10T16:41:19.000Z</time></trkpt><trkpt lon="-999.0" lat="-999.0"><ele>0.0</ele><time>2019-09-10T16:41:20.000Z</time></trkpt><trkpt lon="-999.0" lat="-999.0"><ele>0.0</ele><time>2019-09-10T16:41:21.000Z</time></trkpt><trkpt lon="-999.0" lat="-999.0"><ele>0.0</ele><time>2019-09-10T16:41:22.000Z</time></trkpt><trkpt lon="-999.0" lat="-999.0"><ele>0.0</ele><time>2019-09-10T16:41:23.000Z</time></trkpt><trkpt lon="-999.0" lat="-999.0"><ele>0.0</ele><time>2019-09-10T16:41:24.000Z</time></trkpt><trkpt lon="-999.0" lat="-999.0"><ele>0.0</ele><time>2019-09-10T16:41:25.000Z</time></trkpt><trkpt lon="-999.0" lat="-999.0"><ele>0.0</ele><time>2019-09-10T16:41:26.000Z</time></trkpt><trkpt lon="-999.0" lat="-999.0"><ele>0.0</ele><time>2019-09-10T16:41:27.000Z</time></trkpt><trkpt lon="-999.0" lat="-999.0"><ele>0.0</ele><time>2019-09-10T16:41:28.000Z</time></trkpt><trkpt lon="-999.0" lat="-999.0"><ele>0.0</ele><time>2019-09-10T16:41:29.000Z</time></trkpt><trkpt lon="-999.0" lat="-999.0"><ele>0.0</ele><time>2019-09-10T16:41:30.000Z</time></trkpt><trkpt lon="-999.0" lat="-999.0"><ele>0.0</ele><time>2019-09-10T16:41:31.000Z</time></trkpt><trkpt lon="-999.0" lat="-999.0"><ele>0.0</ele><time>2019-09-10T16:41:32.000Z</time></trkpt><trkpt lon="-999.0" lat="-999.0"><ele>0.0</ele><time>2019-09-10T16:41:33.000Z</time></trkpt><trkpt lon="-999.0" lat="-999.0"><ele>0.0</ele><time>2019-09-10T16:41:34.000Z</time></trkpt><trkpt lon="-999.0" lat="-999.0"><ele>0.0</ele><time>2019-09-10T16:41:35.000Z</time></trkpt><trkpt lon="-999.0" lat="-999.0"><ele>0.0</ele><time>2019-09-10T16:41:36.000Z</time></trkpt><trkpt lon="-999.0" lat="-999.0"><ele>0.0</ele><time>2019-09-10T16:41:37.000Z</time></trkpt><trkpt lon="-999.0" lat="-999.0"><ele>0.0</ele><time>2019-09-10T16:41:38.000Z</time></trkpt><trkpt lon="15.5106028" lat="46.4939655"><ele>1218</ele><time>2019-09-10T16:41:39.000Z</time></trkpt><trkpt lon="15.5106028" lat="46.4939655"><ele>1218</ele><time>2019-09-10T16:41:40.000Z</time></trkpt><trkpt lon="15.5106028" lat="46.4939655"><ele>1218</ele><time>2019-09-10T16:41:41.000Z</time></trkpt><trkpt lon="15.5106028" lat="46.4939655"><ele>1218</ele><time>2019-09-10T16:41:42.000Z</time></trkpt><trkpt lon="-999.0" lat="-999.0"><ele>0.0</ele><time>2019-09-10T16:41:43.000Z</time></trkpt><trkpt lon="-999.0" lat="-999.0"><ele>0.0</ele><time>2019-09-10T16:41:44.000Z</time></trkpt><trkpt lon="-999.0" lat="-999.0"><ele>0.0</ele><time>2019-09-10T16:41:45.000Z</time></trkpt><trkpt lon="-999.0" lat="-999.0"><ele>0.0</ele><time>2019-09-10T16:41:46.000Z</time></trkpt><trkpt lon="-999.0" lat="-999.0"><ele>0.0</ele><time>2019-09-10T16:41:47.000Z</time></trkpt><trkpt lon="-999.0" lat="-999.0"><ele>0.0</ele><time>2019-09-10T16:41:48.000Z</time></trkpt><trkpt lon="-999.0" lat="-999.0"><ele>0.0</ele><time>2019-09-10T16:41:49.000Z</time></trkpt><trkpt lon="-999.0" lat="-999.0"><ele>0.0</ele><time>2019-09-10T16:41:50.000Z</time></trkpt><trkpt lon="-999.0" lat="-999.0"><ele>0.0</ele><time>2019-09-10T16:41:51.000Z</time></trkpt><trkpt lon="-999.0" lat="-999.0"><ele>0.0</ele><time>2019-09-10T16:41:52.000Z</time></trkpt><trkpt lon="-999.0" lat="-999.0"><ele>0.0</ele><time>2019-09-10T16:41:53.000Z</time></trkpt><trkpt lon="-999.0" lat="-999.0"><ele>0.0</ele><time>2019-09-10T16:41:54.000Z</time></trkpt><trkpt lon="-999.0" lat="-999.0"><ele>0.0</ele><time>2019-09-10T16:41:55.000Z</time></trkpt><trkpt lon="-999.0" lat="-999.0"><ele>0.0</ele><time>2019-09-10T16:41:56.000Z</time></trkpt><trkpt lon="-999.0" lat="-999.0"><ele>0.0</ele><time>2019-09-10T16:41:57.000Z</time></trkpt><trkpt lon="-999.0" lat="-999.0"><ele>0.0</ele><time>2019-09-10T16:41:58.000Z</time></trkpt><trkpt lon="-999.0" lat="-999.0"><ele>0.0</ele><time>2019-09-10T16:41:59.000Z</time></trkpt><trkpt lon="-999.0" lat="-999.0"><ele>0.0</ele><time>2019-09-10T16:42:00.000Z</time></trkpt><trkpt lon="-999.0" lat="-999.0"><ele>0.0</ele><time>2019-09-10T16:42:01.000Z</time></trkpt><trkpt lon="-999.0" lat="-999.0"><ele>0.0</ele><time>2019-09-10T16:42:02.000Z</time></trkpt><trkpt lon="-999.0" lat="-999.0"><ele>0.0</ele><time>2019-09-10T16:42:03.000Z</time></trkpt><trkpt lon="-999.0" lat="-999.0"><ele>0.0</ele><time>2019-09-10T16:42:04.000Z</time></trkpt><trkpt lon="-999.0" lat="-999.0"><ele>0.0</ele><time>2019-09-10T16:42:05.000Z</time></trkpt><trkpt lon="-999.0" lat="-999.0"><ele>0.0</ele><time>2019-09-10T16:42:06.000Z</time></trkpt><trkpt lon="-999.0" lat="-999.0"><ele>0.0</ele><time>2019-09-10T16:42:07.000Z</time></trkpt><trkpt lon="-999.0" lat="-999.0"><ele>0.0</ele><time>2019-09-10T16:42:08.000Z</time></trkpt><trkpt lon="-999.0" lat="-999.0"><ele>0.0</ele><time>2019-09-10T16:42:09.000Z</time></trkpt><trkpt lon="-999.0" lat="-999.0"><ele>0.0</ele><time>2019-09-10T16:42:10.000Z</time></trkpt><trkpt lon="-999.0" lat="-999.0"><ele>0.0</ele><time>2019-09-10T16:42:11.000Z</time></trkpt><trkpt lon="-999.0" lat="-999.0"><ele>0.0</ele><time>2019-09-10T16:42:12.000Z</time></trkpt><trkpt lon="-999.0" lat="-999.0"><ele>0.0</ele><time>2019-09-10T16:42:13.000Z</time></trkpt><trkpt lon="-999.0" lat="-999.0"><ele>0.0</ele><time>2019-09-10T16:42:14.000Z</time></trkpt><trkpt lon="-999.0" lat="-999.0"><ele>0.0</ele><time>2019-09-10T16:42:15.000Z</time></trkpt><trkpt lon="-999.0" lat="-999.0"><ele>0.0</ele><time>2019-09-10T16:42:16.000Z</time></trkpt><trkpt lon="-999.0" lat="-999.0"><ele>0.0</ele><time>2019-09-10T16:42:17.000Z</time></trkpt><trkpt lon="-999.0" lat="-999.0"><ele>0.0</ele><time>2019-09-10T16:42:18.000Z</time></trkpt><trkpt lon="-999.0" lat="-999.0"><ele>0.0</ele><time>2019-09-10T16:42:19.000Z</time></trkpt><trkpt lon="-999.0" lat="-999.0"><ele>0.0</ele><time>2019-09-10T16:42:20.000Z</time></trkpt><trkpt lon="-999.0" lat="-999.0"><ele>0.0</ele><time>2019-09-10T16:42:21.000Z</time></trkpt><trkpt lon="-999.0" lat="-999.0"><ele>0.0</ele><time>2019-09-10T16:42:22.000Z</time></trkpt><trkpt lon="-999.0" lat="-999.0"><ele>0.0</ele><time>2019-09-10T16:42:23.000Z</time></trkpt><trkpt lon="-999.0" lat="-999.0"><ele>0.0</ele><time>2019-09-10T16:42:24.000Z</time></trkpt><trkpt lon="-999.0" lat="-999.0"><ele>0.0</ele><time>2019-09-10T16:42:25.000Z</time></trkpt><trkpt lon="-999.0" lat="-999.0"><ele>0.0</ele><time>2019-09-10T16:42:26.000Z</time></trkpt><trkpt lon="-999.0" lat="-999.0"><ele>0.0</ele><time>2019-09-10T16:42:27.000Z</time></trkpt><trkpt lon="-999.0" lat="-999.0"><ele>0.0</ele><time>2019-09-10T16:42:28.000Z</time></trkpt><trkpt lon="-999.0" lat="-999.0"><ele>0.0</ele><time>2019-09-10T16:42:29.000Z</time></trkpt><trkpt lon="-999.0" lat="-999.0"><ele>0.0</ele><time>2019-09-10T16:42:30.000Z</time></trkpt><trkpt lon="-999.0" lat="-999.0"><ele>0.0</ele><time>2019-09-10T16:42:31.000Z</time></trkpt><trkpt lon="-999.0" lat="-999.0"><ele>0.0</ele><time>2019-09-10T16:42:32.000Z</time></trkpt><trkpt lon="-999.0" lat="-999.0"><ele>0.0</ele><time>2019-09-10T16:42:33.000Z</time></trkpt><trkpt lon="-999.0" lat="-999.0"><ele>0.0</ele><time>2019-09-10T16:42:34.000Z</time></trkpt><trkpt lon="-999.0" lat="-999.0"><ele>0.0</ele><time>2019-09-10T16:42:35.000Z</time></trkpt><trkpt lon="-999.0" lat="-999.0"><ele>0.0</ele><time>2019-09-10T16:42:36.000Z</time></trkpt><trkpt lon="-999.0" lat="-999.0"><ele>0.0</ele><time>2019-09-10T16:42:37.000Z</time></trkpt><trkpt lon="-999.0" lat="-999.0"><ele>0.0</ele><time>2019-09-10T16:42:38.000Z</time></trkpt><trkpt lon="-999.0" lat="-999.0"><ele>0.0</ele><time>2019-09-10T16:42:39.000Z</time></trkpt><trkpt lon="-999.0" lat="-999.0"><ele>0.0</ele><time>2019-09-10T16:42:40.000Z</time></trkpt><trkpt lon="-999.0" lat="-999.0"><ele>0.0</ele><time>2019-09-10T16:42:41.000Z</time></trkpt><trkpt lon="-999.0" lat="-999.0"><ele>0.0</ele><time>2019-09-10T16:42:42.000Z</time></trkpt><trkpt lon="-999.0" lat="-999.0"><ele>0.0</ele><time>2019-09-10T16:42:43.000Z</time></trkpt><trkpt lon="-999.0" lat="-999.0"><ele>0.0</ele><time>2019-09-10T16:42:44.000Z</time></trkpt><trkpt lon="-999.0" lat="-999.0"><ele>0.0</ele><time>2019-09-10T16:42:45.000Z</time></trkpt><trkpt lon="-999.0" lat="-999.0"><ele>0.0</ele><time>2019-09-10T16:42:46.000Z</time></trkpt><trkpt lon="-999.0" lat="-999.0"><ele>0.0</ele><time>2019-09-10T16:42:47.000Z</time></trkpt><trkpt lon="-999.0" lat="-999.0"><ele>0.0</ele><time>2019-09-10T16:42:48.000Z</time></trkpt><trkpt lon="-999.0" lat="-999.0"><ele>0.0</ele><time>2019-09-10T16:42:49.000Z</time></trkpt><trkpt lon="-999.0" lat="-999.0"><ele>0.0</ele><time>2019-09-10T16:42:50.000Z</time></trkpt><trkpt lon="-999.0" lat="-999.0"><ele>0.0</ele><time>2019-09-10T16:42:51.000Z</time></trkpt><trkpt lon="-999.0" lat="-999.0"><ele>0.0</ele><time>2019-09-10T16:42:52.000Z</time></trkpt><trkpt lon="-999.0" lat="-999.0"><ele>0.0</ele><time>2019-09-10T16:42:53.000Z</time></trkpt><trkpt lon="-999.0" lat="-999.0"><ele>0.0</ele><time>2019-09-10T16:42:54.000Z</time></trkpt><trkpt lon="-999.0" lat="-999.0"><ele>0.0</ele><time>2019-09-10T16:42:55.000Z</time></trkpt><trkpt lon="-999.0" lat="-999.0"><ele>0.0</ele><time>2019-09-10T16:42:56.000Z</time></trkpt><trkpt lon="-999.0" lat="-999.0"><ele>0.0</ele><time>2019-09-10T16:42:57.000Z</time></trkpt><trkpt lon="-999.0" lat="-999.0"><ele>0.0</ele><time>2019-09-10T16:42:58.000Z</time></trkpt><trkpt lon="-999.0" lat="-999.0"><ele>0.0</ele><time>2019-09-10T16:42:59.000Z</time></trkpt><trkpt lon="-999.0" lat="-999.0"><ele>0.0</ele><time>2019-09-10T16:43:00.000Z</time></trkpt><trkpt lon="-999.0" lat="-999.0"><ele>0.0</ele><time>2019-09-10T16:43:01.000Z</time></trkpt><trkpt lon="-999.0" lat="-999.0"><ele>0.0</ele><time>2019-09-10T16:43:02.000Z</time></trkpt><trkpt lon="-999.0" lat="-999.0"><ele>0.0</ele><time>2019-09-10T16:43:03.000Z</time></trkpt><trkpt lon="-999.0" lat="-999.0"><ele>0.0</ele><time>2019-09-10T16:43:04.000Z</time></trkpt><trkpt lon="-999.0" lat="-999.0"><ele>0.0</ele><time>2019-09-10T16:43:05.000Z</time></trkpt><trkpt lon="-999.0" lat="-999.0"><ele>0.0</ele><time>2019-09-10T16:43:06.000Z</time></trkpt><trkpt lon="-999.0" lat="-999.0"><ele>0.0</ele><time>2019-09-10T16:43:07.000Z</time></trkpt><trkpt lon="-999.0" lat="-999.0"><ele>0.0</ele><time>2019-09-10T16:43:08.000Z</time></trkpt><trkpt lon="-999.0" lat="-999.0"><ele>0.0</ele><time>2019-09-10T16:43:09.000Z</time></trkpt><trkpt lon="-999.0" lat="-999.0"><ele>0.0</ele><time>2019-09-10T16:43:10.000Z</time></trkpt><trkpt lon="-999.0" lat="-999.0"><ele>0.0</ele><time>2019-09-10T16:43:11.000Z</time></trkpt><trkpt lon="-999.0" lat="-999.0"><ele>0.0</ele><time>2019-09-10T16:43:12.000Z</time></trkpt><trkpt lon="-999.0" lat="-999.0"><ele>0.0</ele><time>2019-09-10T16:43:13.000Z</time></trkpt><trkpt lon="-999.0" lat="-999.0"><ele>0.0</ele><time>2019-09-10T16:43:14.000Z</time></trkpt><trkpt lon="-999.0" lat="-999.0"><ele>0.0</ele><time>2019-09-10T16:43:15.000Z</time></trkpt><trkpt lon="-999.0" lat="-999.0"><ele>0.0</ele><time>2019-09-10T16:43:16.000Z</time></trkpt><trkpt lon="-999.0" lat="-999.0"><ele>0.0</ele><time>2019-09-10T16:43:17.000Z</time></trkpt><trkpt lon="-999.0" lat="-999.0"><ele>0.0</ele><time>2019-09-10T16:43:18.000Z</time></trkpt><trkpt lon="-999.0" lat="-999.0"><ele>0.0</ele><time>2019-09-10T16:43:19.000Z</time></trkpt><trkpt lon="-999.0" lat="-999.0"><ele>0.0</ele><time>2019-09-10T16:43:20.000Z</time></trkpt><trkpt lon="-999.0" lat="-999.0"><ele>0.0</ele><time>2019-09-10T16:43:21.000Z</time></trkpt><trkpt lon="-999.0" lat="-999.0"><ele>0.0</ele><time>2019-09-10T16:43:22.000Z</time></trkpt><trkpt lon="-999.0" lat="-999.0"><ele>0.0</ele><time>2019-09-10T16:43:23.000Z</time></trkpt><trkpt lon="15.5105682" lat="46.4939456"><ele>1222</ele><time>2019-09-10T16:43:24.000Z</time></trkpt><trkpt lon="15.5105682" lat="46.4939456"><ele>1222</ele><time>2019-09-10T16:43:25.000Z</time></trkpt><trkpt lon="15.5105682" lat="46.4939456"><ele>1222</ele><time>2019-09-10T16:43:26.000Z</time></trkpt><trkpt lon="15.5105682" lat="46.4939456"><ele>1222</ele><time>2019-09-10T16:43:27.000Z</time></trkpt><trkpt lon="-999.0" lat="-999.0"><ele>0.0</ele><time>2019-09-10T16:43:28.000Z</time></trkpt><trkpt lon="-999.0" lat="-999.0"><ele>0.0</ele><time>2019-09-10T16:43:29.000Z</time></trkpt><trkpt lon="-999.0" lat="-999.0"><ele>0.0</ele><time>2019-09-10T16:43:30.000Z</time></trkpt><trkpt lon="-999.0" lat="-999.0"><ele>0.0</ele><time>2019-09-10T16:43:31.000Z</time></trkpt><trkpt lon="-999.0" lat="-999.0"><ele>0.0</ele><time>2019-09-10T16:43:32.000Z</time></trkpt><trkpt lon="-999.0" lat="-999.0"><ele>0.0</ele><time>2019-09-10T16:43:33.000Z</time></trkpt><trkpt lon="-999.0" lat="-999.0"><ele>0.0</ele><time>2019-09-10T16:43:34.000Z</time></trkpt><trkpt lon="-999.0" lat="-999.0"><ele>0.0</ele><time>2019-09-10T16:43:35.000Z</time></trkpt><trkpt lon="-999.0" lat="-999.0"><ele>0.0</ele><time>2019-09-10T16:43:36.000Z</time></trkpt><trkpt lon="-999.0" lat="-999.0"><ele>0.0</ele><time>2019-09-10T16:43:37.000Z</time></trkpt><trkpt lon="-999.0" lat="-999.0"><ele>0.0</ele><time>2019-09-10T16:43:38.000Z</time></trkpt><trkpt lon="-999.0" lat="-999.0"><ele>0.0</ele><time>2019-09-10T16:43:39.000Z</time></trkpt><trkpt lon="-999.0" lat="-999.0"><ele>0.0</ele><time>2019-09-10T16:43:40.000Z</time></trkpt><trkpt lon="-999.0" lat="-999.0"><ele>0.0</ele><time>2019-09-10T16:43:41.000Z</time></trkpt><trkpt lon="-999.0" lat="-999.0"><ele>0.0</ele><time>2019-09-10T16:43:42.000Z</time></trkpt><trkpt lon="-999.0" lat="-999.0"><ele>0.0</ele><time>2019-09-10T16:43:43.000Z</time></trkpt><trkpt lon="-999.0" lat="-999.0"><ele>0.0</ele><time>2019-09-10T16:43:44.000Z</time></trkpt><trkpt lon="-999.0" lat="-999.0"><ele>0.0</ele><time>2019-09-10T16:43:45.000Z</time></trkpt><trkpt lon="-999.0" lat="-999.0"><ele>0.0</ele><time>2019-09-10T16:43:46.000Z</time></trkpt><trkpt lon="-999.0" lat="-999.0"><ele>0.0</ele><time>2019-09-10T16:43:47.000Z</time></trkpt><trkpt lon="-999.0" lat="-999.0"><ele>0.0</ele><time>2019-09-10T16:43:48.000Z</time></trkpt><trkpt lon="-999.0" lat="-999.0"><ele>0.0</ele><time>2019-09-10T16:43:49.000Z</time></trkpt><trkpt lon="-999.0" lat="-999.0"><ele>0.0</ele><time>2019-09-10T16:43:50.000Z</time></trkpt><trkpt lon="-999.0" lat="-999.0"><ele>0.0</ele><time>2019-09-10T16:43:51.000Z</time></trkpt><trkpt lon="-999.0" lat="-999.0"><ele>0.0</ele><time>2019-09-10T16:43:52.000Z</time></trkpt><trkpt lon="-999.0" lat="-999.0"><ele>0.0</ele><time>2019-09-10T16:43:53.000Z</time></trkpt><trkpt lon="-999.0" lat="-999.0"><ele>0.0</ele><time>2019-09-10T16:43:54.000Z</time></trkpt><trkpt lon="-999.0" lat="-999.0"><ele>0.0</ele><time>2019-09-10T16:43:55.000Z</time></trkpt><trkpt lon="-999.0" lat="-999.0"><ele>0.0</ele><time>2019-09-10T16:43:56.000Z</time></trkpt><trkpt lon="-999.0" lat="-999.0"><ele>0.0</ele><time>2019-09-10T16:43:57.000Z</time></trkpt><trkpt lon="-999.0" lat="-999.0"><ele>0.0</ele><time>2019-09-10T16:43:58.000Z</time></trkpt><trkpt lon="-999.0" lat="-999.0"><ele>0.0</ele><time>2019-09-10T16:43:59.000Z</time></trkpt><trkpt lon="-999.0" lat="-999.0"><ele>0.0</ele><time>2019-09-10T16:44:00.000Z</time></trkpt><trkpt lon="-999.0" lat="-999.0"><ele>0.0</ele><time>2019-09-10T16:44:01.000Z</time></trkpt><trkpt lon="-999.0" lat="-999.0"><ele>0.0</ele><time>2019-09-10T16:44:02.000Z</time></trkpt><trkpt lon="-999.0" lat="-999.0"><ele>0.0</ele><time>2019-09-10T16:44:03.000Z</time></trkpt><trkpt lon="-999.0" lat="-999.0"><ele>0.0</ele><time>2019-09-10T16:44:04.000Z</time></trkpt><trkpt lon="-999.0" lat="-999.0"><ele>0.0</ele><time>2019-09-10T16:44:05.000Z</time></trkpt><trkpt lon="-999.0" lat="-999.0"><ele>0.0</ele><time>2019-09-10T16:44:06.000Z</time></trkpt><trkpt lon="-999.0" lat="-999.0"><ele>0.0</ele><time>2019-09-10T16:44:07.000Z</time></trkpt><trkpt lon="-999.0" lat="-999.0"><ele>0.0</ele><time>2019-09-10T16:44:08.000Z</time></trkpt><trkpt lon="-999.0" lat="-999.0"><ele>0.0</ele><time>2019-09-10T16:44:09.000Z</time></trkpt><trkpt lon="-999.0" lat="-999.0"><ele>0.0</ele><time>2019-09-10T16:44:10.000Z</time></trkpt><trkpt lon="-999.0" lat="-999.0"><ele>0.0</ele><time>2019-09-10T16:44:11.000Z</time></trkpt><trkpt lon="-999.0" lat="-999.0"><ele>0.0</ele><time>2019-09-10T16:44:12.000Z</time></trkpt><trkpt lon="-999.0" lat="-999.0"><ele>0.0</ele><time>2019-09-10T16:44:13.000Z</time></trkpt><trkpt lon="-999.0" lat="-999.0"><ele>0.0</ele><time>2019-09-10T16:44:14.000Z</time></trkpt><trkpt lon="-999.0" lat="-999.0"><ele>0.0</ele><time>2019-09-10T16:44:15.000Z</time></trkpt><trkpt lon="-999.0" lat="-999.0"><ele>0.0</ele><time>2019-09-10T16:44:16.000Z</time></trkpt><trkpt lon="-999.0" lat="-999.0"><ele>0.0</ele><time>2019-09-10T16:44:17.000Z</time></trkpt><trkpt lon="-999.0" lat="-999.0"><ele>0.0</ele><time>2019-09-10T16:44:18.000Z</time></trkpt><trkpt lon="-999.0" lat="-999.0"><ele>0.0</ele><time>2019-09-10T16:44:19.000Z</time></trkpt><trkpt lon="-999.0" lat="-999.0"><ele>0.0</ele><time>2019-09-10T16:44:20.000Z</time></trkpt><trkpt lon="-999.0" lat="-999.0"><ele>0.0</ele><time>2019-09-10T16:44:21.000Z</time></trkpt><trkpt lon="-999.0" lat="-999.0"><ele>0.0</ele><time>2019-09-10T16:44:22.000Z</time></trkpt><trkpt lon="-999.0" lat="-999.0"><ele>0.0</ele><time>2019-09-10T16:44:23.000Z</time></trkpt><trkpt lon="-999.0" lat="-999.0"><ele>0.0</ele><time>2019-09-10T16:44:24.000Z</time></trkpt><trkpt lon="-999.0" lat="-999.0"><ele>0.0</ele><time>2019-09-10T16:44:25.000Z</time></trkpt><trkpt lon="-999.0" lat="-999.0"><ele>0.0</ele><time>2019-09-10T16:44:26.000Z</time></trkpt><trkpt lon="-999.0" lat="-999.0"><ele>0.0</ele><time>2019-09-10T16:44:27.000Z</time></trkpt><trkpt lon="-999.0" lat="-999.0"><ele>0.0</ele><time>2019-09-10T16:44:28.000Z</time></trkpt><trkpt lon="-999.0" lat="-999.0"><ele>0.0</ele><time>2019-09-10T16:44:29.000Z</time></trkpt><trkpt lon="-999.0" lat="-999.0"><ele>0.0</ele><time>2019-09-10T16:44:30.000Z</time></trkpt><trkpt lon="-999.0" lat="-999.0"><ele>0.0</ele><time>2019-09-10T16:44:31.000Z</time></trkpt><trkpt lon="15.5084835" lat="46.4925589"><ele>1195</ele><time>2019-09-10T16:44:32.000Z</time></trkpt><trkpt lon="15.5084835" lat="46.4925589"><ele>1195</ele><time>2019-09-10T16:44:33.000Z</time></trkpt><trkpt lon="15.5082837" lat="46.4923623"><ele>1200</ele><time>2019-09-10T16:44:34.000Z</time></trkpt><trkpt lon="15.5082837" lat="46.4923623"><ele>1200</ele><time>2019-09-10T16:44:35.000Z</time></trkpt><trkpt lon="15.5080643" lat="46.4921212"><ele>1207</ele><time>2019-09-10T16:44:36.000Z</time></trkpt><trkpt lon="15.5079864" lat="46.4919951"><ele>1209</ele><time>2019-09-10T16:44:37.000Z</time></trkpt><trkpt lon="15.5078954" lat="46.4918742"><ele>1207</ele><time>2019-09-10T16:44:38.000Z</time></trkpt><trkpt lon="15.5078954" lat="46.4918742"><ele>1207</ele><time>2019-09-10T16:44:39.000Z</time></trkpt><trkpt lon="15.5077518" lat="46.4916507"><ele>1211</ele><time>2019-09-10T16:44:40.000Z</time></trkpt><trkpt lon="15.5077518" lat="46.4916507"><ele>1211</ele><time>2019-09-10T16:44:41.000Z</time></trkpt><trkpt lon="15.5075826" lat="46.4914418"><ele>1213</ele><time>2019-09-10T16:44:42.000Z</time></trkpt><trkpt lon="15.5075826" lat="46.4914418"><ele>1213</ele><time>2019-09-10T16:44:43.000Z</time></trkpt><trkpt lon="15.5073769" lat="46.4912187"><ele>1213</ele><time>2019-09-10T16:44:44.000Z</time></trkpt><trkpt lon="15.5073769" lat="46.4912187"><ele>1213</ele><time>2019-09-10T16:44:45.000Z</time></trkpt><trkpt lon="15.5071892" lat="46.4909675"><ele>1214</ele><time>2019-09-10T16:44:46.000Z</time></trkpt><trkpt lon="15.5070765" lat="46.4908616"><ele>1213</ele><time>2019-09-10T16:44:47.000Z</time></trkpt><trkpt lon="15.5070765" lat="46.4908616"><ele>1213</ele><time>2019-09-10T16:44:48.000Z</time></trkpt><trkpt lon="15.5069323" lat="46.4906296"><ele>1207</ele><time>2019-09-10T16:44:49.000Z</time></trkpt><trkpt lon="15.5069323" lat="46.4906296"><ele>1207</ele><time>2019-09-10T16:44:50.000Z</time></trkpt><trkpt lon="15.5068186" lat="46.4904436"><ele>1204</ele><time>2019-09-10T16:44:51.000Z</time></trkpt><trkpt lon="15.5067543" lat="46.4903384"><ele>1200</ele><time>2019-09-10T16:44:52.000Z</time></trkpt><trkpt lon="15.5067543" lat="46.4903384"><ele>1200</ele><time>2019-09-10T16:44:53.000Z</time></trkpt><trkpt lon="15.5067419" lat="46.4900657"><ele>1194</ele><time>2019-09-10T16:44:54.000Z</time></trkpt><trkpt lon="15.5067419" lat="46.4900657"><ele>1194</ele><time>2019-09-10T16:44:55.000Z</time></trkpt><trkpt lon="15.5065694" lat="46.4898173"><ele>1195</ele><time>2019-09-10T16:44:56.000Z</time></trkpt><trkpt lon="15.5065694" lat="46.4898173"><ele>1195</ele><time>2019-09-10T16:44:57.000Z</time></trkpt><trkpt lon="15.5066626" lat="46.4894963"><ele>1195</ele><time>2019-09-10T16:44:58.000Z</time></trkpt><trkpt lon="15.5066626" lat="46.4894963"><ele>1195</ele><time>2019-09-10T16:44:59.000Z</time></trkpt><trkpt lon="15.5067461" lat="46.4891845"><ele>1192</ele><time>2019-09-10T16:45:00.000Z</time></trkpt><trkpt lon="15.5067461" lat="46.4891845"><ele>1192</ele><time>2019-09-10T16:45:01.000Z</time></trkpt><trkpt lon="15.5068798" lat="46.4888913"><ele>1186</ele><time>2019-09-10T16:45:02.000Z</time></trkpt><trkpt lon="15.5068798" lat="46.4888913"><ele>1186</ele><time>2019-09-10T16:45:03.000Z</time></trkpt><trkpt lon="15.5069589" lat="46.488618"><ele>1184</ele><time>2019-09-10T16:45:04.000Z</time></trkpt><trkpt lon="15.5069589" lat="46.488618"><ele>1184</ele><time>2019-09-10T16:45:05.000Z</time></trkpt><trkpt lon="15.5069894" lat="46.4883039"><ele>1182</ele><time>2019-09-10T16:45:06.000Z</time></trkpt><trkpt lon="15.5069894" lat="46.4883039"><ele>1182</ele><time>2019-09-10T16:45:07.000Z</time></trkpt><trkpt lon="15.5069873" lat="46.4880098"><ele>1182</ele><time>2019-09-10T16:45:08.000Z</time></trkpt><trkpt lon="15.5069306" lat="46.4878792"><ele>1183</ele><time>2019-09-10T16:45:09.000Z</time></trkpt><trkpt lon="15.5069306" lat="46.4878792"><ele>1183</ele><time>2019-09-10T16:45:10.000Z</time></trkpt><trkpt lon="15.5067731" lat="46.4876332"><ele>1176</ele><time>2019-09-10T16:45:11.000Z</time></trkpt><trkpt lon="15.5067731" lat="46.4876332"><ele>1176</ele><time>2019-09-10T16:45:12.000Z</time></trkpt><trkpt lon="15.5065178" lat="46.4874177"><ele>1173</ele><time>2019-09-10T16:45:13.000Z</time></trkpt><trkpt lon="15.5065178" lat="46.4874177"><ele>1173</ele><time>2019-09-10T16:45:14.000Z</time></trkpt><trkpt lon="15.506248" lat="46.4872235"><ele>1171</ele><time>2019-09-10T16:45:15.000Z</time></trkpt><trkpt lon="15.5061137" lat="46.487123"><ele>1170</ele><time>2019-09-10T16:45:16.000Z</time></trkpt><trkpt lon="15.5061137" lat="46.487123"><ele>1170</ele><time>2019-09-10T16:45:17.000Z</time></trkpt><trkpt lon="15.5058396" lat="46.4869276"><ele>1166</ele><time>2019-09-10T16:45:18.000Z</time></trkpt><trkpt lon="15.5057041" lat="46.4868349"><ele>1164</ele><time>2019-09-10T16:45:19.000Z</time></trkpt><trkpt lon="15.5057041" lat="46.4868349"><ele>1164</ele><time>2019-09-10T16:45:20.000Z</time></trkpt><trkpt lon="15.505421" lat="46.4866604"><ele>1162</ele><time>2019-09-10T16:45:21.000Z</time></trkpt><trkpt lon="15.505421" lat="46.4866604"><ele>1162</ele><time>2019-09-10T16:45:22.000Z</time></trkpt><trkpt lon="15.5051775" lat="46.4865537"><ele>1159</ele><time>2019-09-10T16:45:23.000Z</time></trkpt><trkpt lon="15.5050827" lat="46.4865214"><ele>1158</ele><time>2019-09-10T16:45:24.000Z</time></trkpt><trkpt lon="15.5049931" lat="46.4865133"><ele>1157</ele><time>2019-09-10T16:45:25.000Z</time></trkpt><trkpt lon="15.5049931" lat="46.4865133"><ele>1157</ele><time>2019-09-10T16:45:26.000Z</time></trkpt><trkpt lon="15.5048406" lat="46.4864877"><ele>1157</ele><time>2019-09-10T16:45:27.000Z</time></trkpt><trkpt lon="15.5048406" lat="46.4864877"><ele>1157</ele><time>2019-09-10T16:45:28.000Z</time></trkpt><trkpt lon="15.5047803" lat="46.4864674"><ele>1157</ele><time>2019-09-10T16:45:29.000Z</time></trkpt><trkpt lon="15.5047803" lat="46.4864674"><ele>1157</ele><time>2019-09-10T16:45:30.000Z</time></trkpt><trkpt lon="15.5047689" lat="46.4864194"><ele>1156</ele><time>2019-09-10T16:45:31.000Z</time></trkpt><trkpt lon="15.5047689" lat="46.4864194"><ele>1156</ele><time>2019-09-10T16:45:32.000Z</time></trkpt><trkpt lon="15.5047689" lat="46.4864194"><ele>1156</ele><time>2019-09-10T16:45:33.000Z</time></trkpt><trkpt lon="15.5047834" lat="46.4863911"><ele>1157</ele><time>2019-09-10T16:45:34.000Z</time></trkpt><trkpt lon="15.5047834" lat="46.4863911"><ele>1157</ele><time>2019-09-10T16:45:35.000Z</time></trkpt><trkpt lon="15.5047834" lat="46.4863911"><ele>1157</ele><time>2019-09-10T16:45:36.000Z</time></trkpt><trkpt lon="15.5048213" lat="46.4863731"><ele>1158</ele><time>2019-09-10T16:45:37.000Z</time></trkpt><trkpt lon="15.5048213" lat="46.4863731"><ele>1158</ele><time>2019-09-10T16:45:38.000Z</time></trkpt><trkpt lon="15.5048606" lat="46.4863704"><ele>1157</ele><time>2019-09-10T16:45:39.000Z</time></trkpt><trkpt lon="15.5048606" lat="46.4863704"><ele>1157</ele><time>2019-09-10T16:45:40.000Z</time></trkpt><trkpt lon="15.5049013" lat="46.4863716"><ele>1158</ele><time>2019-09-10T16:45:41.000Z</time></trkpt><trkpt lon="15.5049013" lat="46.4863716"><ele>1158</ele><time>2019-09-10T16:45:42.000Z</time></trkpt><trkpt lon="15.5049013" lat="46.4863716"><ele>1158</ele><time>2019-09-10T16:45:43.000Z</time></trkpt><trkpt lon="15.5049567" lat="46.4863646"><ele>1158</ele><time>2019-09-10T16:45:44.000Z</time></trkpt><trkpt lon="15.5049567" lat="46.4863646"><ele>1158</ele><time>2019-09-10T16:45:45.000Z</time></trkpt><trkpt lon="15.5049951" lat="46.4863545"><ele>1158</ele><time>2019-09-10T16:45:46.000Z</time></trkpt><trkpt lon="15.5049951" lat="46.4863545"><ele>1158</ele><time>2019-09-10T16:45:47.000Z</time></trkpt><trkpt lon="15.5050327" lat="46.4863443"><ele>1158</ele><time>2019-09-10T16:45:48.000Z</time></trkpt><trkpt lon="15.5051414" lat="46.4863241"><ele>1159</ele><time>2019-09-10T16:45:49.000Z</time></trkpt><trkpt lon="15.5051414" lat="46.4863241"><ele>1159</ele><time>2019-09-10T16:45:50.000Z</time></trkpt><trkpt lon="15.5053294" lat="46.4863355"><ele>1159</ele><time>2019-09-10T16:45:51.000Z</time></trkpt><trkpt lon="15.5053294" lat="46.4863355"><ele>1159</ele><time>2019-09-10T16:45:52.000Z</time></trkpt><trkpt lon="15.5055619" lat="46.4863404"><ele>1156</ele><time>2019-09-10T16:45:53.000Z</time></trkpt><trkpt lon="15.5056867" lat="46.4863578"><ele>1157</ele><time>2019-09-10T16:45:54.000Z</time></trkpt><trkpt lon="15.5058168" lat="46.4863853"><ele>1157</ele><time>2019-09-10T16:45:55.000Z</time></trkpt><trkpt lon="15.5058168" lat="46.4863853"><ele>1157</ele><time>2019-09-10T16:45:56.000Z</time></trkpt><trkpt lon="15.5060975" lat="46.4864557"><ele>1152</ele><time>2019-09-10T16:45:57.000Z</time></trkpt><trkpt lon="15.5060975" lat="46.4864557"><ele>1152</ele><time>2019-09-10T16:45:58.000Z</time></trkpt><trkpt lon="15.5063695" lat="46.4864981"><ele>1153</ele><time>2019-09-10T16:45:59.000Z</time></trkpt><trkpt lon="15.5063695" lat="46.4864981"><ele>1153</ele><time>2019-09-10T16:46:00.000Z</time></trkpt><trkpt lon="15.5066708" lat="46.4864915"><ele>1155</ele><time>2019-09-10T16:46:01.000Z</time></trkpt><trkpt lon="15.5066708" lat="46.4864915"><ele>1155</ele><time>2019-09-10T16:46:02.000Z</time></trkpt><trkpt lon="15.5069855" lat="46.4864506"><ele>1154</ele><time>2019-09-10T16:46:03.000Z</time></trkpt><trkpt lon="15.5071724" lat="46.4864151"><ele>1153</ele><time>2019-09-10T16:46:04.000Z</time></trkpt><trkpt lon="15.5071724" lat="46.4864151"><ele>1153</ele><time>2019-09-10T16:46:05.000Z</time></trkpt><trkpt lon="15.5075479" lat="46.4864011"><ele>1143</ele><time>2019-09-10T16:46:06.000Z</time></trkpt><trkpt lon="15.5077524" lat="46.4863951"><ele>1141</ele><time>2019-09-10T16:46:07.000Z</time></trkpt><trkpt lon="15.5079447" lat="46.4863761"><ele>1137</ele><time>2019-09-10T16:46:08.000Z</time></trkpt><trkpt lon="15.5081262" lat="46.4863329"><ele>1134</ele><time>2019-09-10T16:46:09.000Z</time></trkpt><trkpt lon="15.5081262" lat="46.4863329"><ele>1134</ele><time>2019-09-10T16:46:10.000Z</time></trkpt><trkpt lon="15.5084963" lat="46.4862195"><ele>1126</ele><time>2019-09-10T16:46:11.000Z</time></trkpt><trkpt lon="15.5086893" lat="46.4861876"><ele>1124</ele><time>2019-09-10T16:46:12.000Z</time></trkpt><trkpt lon="15.5088495" lat="46.4861549"><ele>1123</ele><time>2019-09-10T16:46:13.000Z</time></trkpt><trkpt lon="15.5088495" lat="46.4861549"><ele>1123</ele><time>2019-09-10T16:46:14.000Z</time></trkpt><trkpt lon="15.5091036" lat="46.4860926"><ele>1119</ele><time>2019-09-10T16:46:15.000Z</time></trkpt><trkpt lon="15.5091822" lat="46.4860622"><ele>1118</ele><time>2019-09-10T16:46:16.000Z</time></trkpt><trkpt lon="15.5092633" lat="46.4860289"><ele>1118</ele><time>2019-09-10T16:46:17.000Z</time></trkpt><trkpt lon="15.5092633" lat="46.4860289"><ele>1118</ele><time>2019-09-10T16:46:18.000Z</time></trkpt><trkpt lon="15.5094198" lat="46.4859352"><ele>1117</ele><time>2019-09-10T16:46:19.000Z</time></trkpt><trkpt lon="15.5094937" lat="46.4858587"><ele>1115</ele><time>2019-09-10T16:46:20.000Z</time></trkpt><trkpt lon="15.5094937" lat="46.4858587"><ele>1115</ele><time>2019-09-10T16:46:21.000Z</time></trkpt><trkpt lon="15.5096533" lat="46.4856815"><ele>1114</ele><time>2019-09-10T16:46:22.000Z</time></trkpt><trkpt lon="15.5096533" lat="46.4856815"><ele>1114</ele><time>2019-09-10T16:46:23.000Z</time></trkpt><trkpt lon="15.5097967" lat="46.485469"><ele>1111</ele><time>2019-09-10T16:46:24.000Z</time></trkpt><trkpt lon="15.5097967" lat="46.485469"><ele>1111</ele><time>2019-09-10T16:46:25.000Z</time></trkpt><trkpt lon="15.5099627" lat="46.4852441"><ele>1108</ele><time>2019-09-10T16:46:26.000Z</time></trkpt><trkpt lon="15.5100435" lat="46.4851121"><ele>1108</ele><time>2019-09-10T16:46:27.000Z</time></trkpt><trkpt lon="15.5100968" lat="46.484968"><ele>1107</ele><time>2019-09-10T16:46:28.000Z</time></trkpt><trkpt lon="15.5100968" lat="46.484968"><ele>1107</ele><time>2019-09-10T16:46:29.000Z</time></trkpt><trkpt lon="15.5101294" lat="46.4846786"><ele>1104</ele><time>2019-09-10T16:46:30.000Z</time></trkpt><trkpt lon="15.5101701" lat="46.4845369"><ele>1101</ele><time>2019-09-10T16:46:31.000Z</time></trkpt><trkpt lon="15.5101701" lat="46.4845369"><ele>1101</ele><time>2019-09-10T16:46:32.000Z</time></trkpt><trkpt lon="15.5102199" lat="46.4842429"><ele>1096</ele><time>2019-09-10T16:46:33.000Z</time></trkpt><trkpt lon="15.5102199" lat="46.4842429"><ele>1096</ele><time>2019-09-10T16:46:34.000Z</time></trkpt><trkpt lon="15.5102251" lat="46.4839376"><ele>1096</ele><time>2019-09-10T16:46:35.000Z</time></trkpt><trkpt lon="15.5101935" lat="46.4837957"><ele>1095</ele><time>2019-09-10T16:46:36.000Z</time></trkpt><trkpt lon="15.5101935" lat="46.4837957"><ele>1095</ele><time>2019-09-10T16:46:37.000Z</time></trkpt><trkpt lon="15.5101322" lat="46.4835135"><ele>1090</ele><time>2019-09-10T16:46:38.000Z</time></trkpt><trkpt lon="15.5101513" lat="46.4833681"><ele>1087</ele><time>2019-09-10T16:46:39.000Z</time></trkpt><trkpt lon="15.5101513" lat="46.4833681"><ele>1087</ele><time>2019-09-10T16:46:40.000Z</time></trkpt><trkpt lon="15.5101819" lat="46.4830833"><ele>1082</ele><time>2019-09-10T16:46:41.000Z</time></trkpt><trkpt lon="15.5101819" lat="46.4830833"><ele>1082</ele><time>2019-09-10T16:46:42.000Z</time></trkpt><trkpt lon="15.5101155" lat="46.4827902"><ele>1080</ele><time>2019-09-10T16:46:43.000Z</time></trkpt><trkpt lon="15.5101155" lat="46.4827902"><ele>1080</ele><time>2019-09-10T16:46:44.000Z</time></trkpt><trkpt lon="15.5100129" lat="46.4824926"><ele>1080</ele><time>2019-09-10T16:46:45.000Z</time></trkpt><trkpt lon="15.5100129" lat="46.4824926"><ele>1080</ele><time>2019-09-10T16:46:46.000Z</time></trkpt><trkpt lon="15.5099924" lat="46.4821965"><ele>1080</ele><time>2019-09-10T16:46:47.000Z</time></trkpt><trkpt lon="15.5099924" lat="46.4821965"><ele>1080</ele><time>2019-09-10T16:46:48.000Z</time></trkpt><trkpt lon="15.5100791" lat="46.4819395"><ele>1078</ele><time>2019-09-10T16:46:49.000Z</time></trkpt><trkpt lon="15.5100791" lat="46.4819395"><ele>1078</ele><time>2019-09-10T16:46:50.000Z</time></trkpt><trkpt lon="15.5102112" lat="46.4817079"><ele>1077</ele><time>2019-09-10T16:46:51.000Z</time></trkpt><trkpt lon="15.5102673" lat="46.4816032"><ele>1076</ele><time>2019-09-10T16:46:52.000Z</time></trkpt><trkpt lon="15.5102673" lat="46.4816032"><ele>1076</ele><time>2019-09-10T16:46:53.000Z</time></trkpt><trkpt lon="15.5103755" lat="46.4814185"><ele>1077</ele><time>2019-09-10T16:46:54.000Z</time></trkpt><trkpt lon="15.5103755" lat="46.4814185"><ele>1077</ele><time>2019-09-10T16:46:55.000Z</time></trkpt><trkpt lon="15.5104676" lat="46.4812542"><ele>1078</ele><time>2019-09-10T16:46:56.000Z</time></trkpt><trkpt lon="15.5104676" lat="46.4812542"><ele>1078</ele><time>2019-09-10T16:46:57.000Z</time></trkpt><trkpt lon="15.5104894" lat="46.4810882"><ele>1078</ele><time>2019-09-10T16:46:58.000Z</time></trkpt><trkpt lon="15.5104894" lat="46.4810882"><ele>1078</ele><time>2019-09-10T16:46:59.000Z</time></trkpt><trkpt lon="15.5104917" lat="46.4809664"><ele>1077</ele><time>2019-09-10T16:47:00.000Z</time></trkpt><trkpt lon="15.5104917" lat="46.4809664"><ele>1077</ele><time>2019-09-10T16:47:01.000Z</time></trkpt><trkpt lon="15.5105173" lat="46.4809009"><ele>1078</ele><time>2019-09-10T16:47:02.000Z</time></trkpt><trkpt lon="15.5105351" lat="46.4808722"><ele>1078</ele><time>2019-09-10T16:47:03.000Z</time></trkpt><trkpt lon="15.5105351" lat="46.4808722"><ele>1078</ele><time>2019-09-10T16:47:04.000Z</time></trkpt><trkpt lon="15.5105616" lat="46.480828"><ele>1077</ele><time>2019-09-10T16:47:05.000Z</time></trkpt><trkpt lon="15.5105616" lat="46.480828"><ele>1077</ele><time>2019-09-10T16:47:06.000Z</time></trkpt><trkpt lon="15.5105836" lat="46.4807846"><ele>1076</ele><time>2019-09-10T16:47:07.000Z</time></trkpt><trkpt lon="15.5105836" lat="46.4807846"><ele>1076</ele><time>2019-09-10T16:47:08.000Z</time></trkpt><trkpt lon="15.5106001" lat="46.4807456"><ele>1076</ele><time>2019-09-10T16:47:09.000Z</time></trkpt><trkpt lon="15.5106001" lat="46.4807456"><ele>1076</ele><time>2019-09-10T16:47:10.000Z</time></trkpt><trkpt lon="15.510623" lat="46.4807006"><ele>1075</ele><time>2019-09-10T16:47:11.000Z</time></trkpt><trkpt lon="15.5106374" lat="46.4806689"><ele>1075</ele><time>2019-09-10T16:47:12.000Z</time></trkpt><trkpt lon="15.5106374" lat="46.4806689"><ele>1075</ele><time>2019-09-10T16:47:13.000Z</time></trkpt><trkpt lon="15.5106768" lat="46.4805816"><ele>1074</ele><time>2019-09-10T16:47:14.000Z</time></trkpt><trkpt lon="15.5106961" lat="46.4805343"><ele>1074</ele><time>2019-09-10T16:47:15.000Z</time></trkpt><trkpt lon="15.5107237" lat="46.4804783"><ele>1074</ele><time>2019-09-10T16:47:16.000Z</time></trkpt><trkpt lon="15.5107237" lat="46.4804783"><ele>1074</ele><time>2019-09-10T16:47:17.000Z</time></trkpt><trkpt lon="15.5107941" lat="46.4803467"><ele>1075</ele><time>2019-09-10T16:47:18.000Z</time></trkpt><trkpt lon="15.5108512" lat="46.4802725"><ele>1074</ele><time>2019-09-10T16:47:19.000Z</time></trkpt><trkpt lon="15.5109129" lat="46.4801939"><ele>1074</ele><time>2019-09-10T16:47:20.000Z</time></trkpt><trkpt lon="15.5109129" lat="46.4801939"><ele>1074</ele><time>2019-09-10T16:47:21.000Z</time></trkpt><trkpt lon="15.5110612" lat="46.4800283"><ele>1071</ele><time>2019-09-10T16:47:22.000Z</time></trkpt><trkpt lon="15.5110612" lat="46.4800283"><ele>1071</ele><time>2019-09-10T16:47:23.000Z</time></trkpt><trkpt lon="15.5112067" lat="46.4798509"><ele>1070</ele><time>2019-09-10T16:47:24.000Z</time></trkpt><trkpt lon="15.5112067" lat="46.4798509"><ele>1070</ele><time>2019-09-10T16:47:25.000Z</time></trkpt><trkpt lon="15.5112884" lat="46.4796524"><ele>1069</ele><time>2019-09-10T16:47:26.000Z</time></trkpt><trkpt lon="15.5112823" lat="46.4795419"><ele>1068</ele><time>2019-09-10T16:47:27.000Z</time></trkpt><trkpt lon="15.5112823" lat="46.4795419"><ele>1068</ele><time>2019-09-10T16:47:28.000Z</time></trkpt><trkpt lon="15.5113063" lat="46.4793097"><ele>1067</ele><time>2019-09-10T16:47:29.000Z</time></trkpt><trkpt lon="15.5113414" lat="46.4791981"><ele>1065</ele><time>2019-09-10T16:47:30.000Z</time></trkpt><trkpt lon="15.5113749" lat="46.4790822"><ele>1065</ele><time>2019-09-10T16:47:31.000Z</time></trkpt><trkpt lon="15.5114119" lat="46.4789596"><ele>1065</ele><time>2019-09-10T16:47:32.000Z</time></trkpt><trkpt lon="15.511432" lat="46.4788347"><ele>1064</ele><time>2019-09-10T16:47:33.000Z</time></trkpt><trkpt lon="15.511432" lat="46.4788347"><ele>1064</ele><time>2019-09-10T16:47:34.000Z</time></trkpt><trkpt lon="15.5114608" lat="46.4785721"><ele>1062</ele><time>2019-09-10T16:47:35.000Z</time></trkpt><trkpt lon="15.5114567" lat="46.4784443"><ele>1061</ele><time>2019-09-10T16:47:36.000Z</time></trkpt><trkpt lon="15.5114567" lat="46.4784443"><ele>1061</ele><time>2019-09-10T16:47:37.000Z</time></trkpt><trkpt lon="15.511465" lat="46.4781809"><ele>1058</ele><time>2019-09-10T16:47:38.000Z</time></trkpt><trkpt lon="15.5114602" lat="46.4780495"><ele>1057</ele><time>2019-09-10T16:47:39.000Z</time></trkpt><trkpt lon="15.5114307" lat="46.4779179"><ele>1056</ele><time>2019-09-10T16:47:40.000Z</time></trkpt><trkpt lon="15.5114307" lat="46.4779179"><ele>1056</ele><time>2019-09-10T16:47:41.000Z</time></trkpt><trkpt lon="15.5113535" lat="46.4776485"><ele>1055</ele><time>2019-09-10T16:47:42.000Z</time></trkpt><trkpt lon="15.511318" lat="46.4775298"><ele>1053</ele><time>2019-09-10T16:47:43.000Z</time></trkpt><trkpt lon="15.511318" lat="46.4775298"><ele>1053</ele><time>2019-09-10T16:47:44.000Z</time></trkpt><trkpt lon="15.5112844" lat="46.4773335"><ele>1049</ele><time>2019-09-10T16:47:45.000Z</time></trkpt><trkpt lon="15.5112766" lat="46.477242"><ele>1048</ele><time>2019-09-10T16:47:46.000Z</time></trkpt><trkpt lon="15.5112834" lat="46.4771519"><ele>1046</ele><time>2019-09-10T16:47:47.000Z</time></trkpt><trkpt lon="15.5112834" lat="46.4771519"><ele>1046</ele><time>2019-09-10T16:47:48.000Z</time></trkpt><trkpt lon="15.5113483" lat="46.4769724"><ele>1045</ele><time>2019-09-10T16:47:49.000Z</time></trkpt><trkpt lon="15.5113483" lat="46.4769724"><ele>1045</ele><time>2019-09-10T16:47:50.000Z</time></trkpt><trkpt lon="15.5115207" lat="46.4768081"><ele>1043</ele><time>2019-09-10T16:47:51.000Z</time></trkpt><trkpt lon="15.5116462" lat="46.4767413"><ele>1041</ele><time>2019-09-10T16:47:52.000Z</time></trkpt><trkpt lon="15.5117693" lat="46.4766693"><ele>1040</ele><time>2019-09-10T16:47:53.000Z</time></trkpt><trkpt lon="15.5117693" lat="46.4766693"><ele>1040</ele><time>2019-09-10T16:47:54.000Z</time></trkpt><trkpt lon="15.5120188" lat="46.4765537"><ele>1038</ele><time>2019-09-10T16:47:55.000Z</time></trkpt><trkpt lon="15.5120188" lat="46.4765537"><ele>1038</ele><time>2019-09-10T16:47:56.000Z</time></trkpt><trkpt lon="15.5122682" lat="46.4765166"><ele>1035</ele><time>2019-09-10T16:47:57.000Z</time></trkpt><trkpt lon="15.5123807" lat="46.4765664"><ele>1034</ele><time>2019-09-10T16:47:58.000Z</time></trkpt><trkpt lon="15.5123807" lat="46.4765664"><ele>1034</ele><time>2019-09-10T16:47:59.000Z</time></trkpt><trkpt lon="15.5125839" lat="46.4766532"><ele>1031</ele><time>2019-09-10T16:48:00.000Z</time></trkpt><trkpt lon="15.5125839" lat="46.4766532"><ele>1031</ele><time>2019-09-10T16:48:01.000Z</time></trkpt><trkpt lon="15.5127621" lat="46.476716"><ele>1029</ele><time>2019-09-10T16:48:02.000Z</time></trkpt><trkpt lon="15.5127621" lat="46.476716"><ele>1029</ele><time>2019-09-10T16:48:03.000Z</time></trkpt><trkpt lon="15.5128876" lat="46.4767523"><ele>1028</ele><time>2019-09-10T16:48:04.000Z</time></trkpt><trkpt lon="15.512949" lat="46.4767751"><ele>1028</ele><time>2019-09-10T16:48:05.000Z</time></trkpt><trkpt lon="15.512949" lat="46.4767751"><ele>1028</ele><time>2019-09-10T16:48:06.000Z</time></trkpt><trkpt lon="15.5131072" lat="46.4768284"><ele>1026</ele><time>2019-09-10T16:48:07.000Z</time></trkpt><trkpt lon="15.5131885" lat="46.4768776"><ele>1027</ele><time>2019-09-10T16:48:08.000Z</time></trkpt><trkpt lon="15.5132899" lat="46.4769189"><ele>1027</ele><time>2019-09-10T16:48:09.000Z</time></trkpt><trkpt lon="15.5133977" lat="46.4769469"><ele>1026</ele><time>2019-09-10T16:48:10.000Z</time></trkpt><trkpt lon="15.5133977" lat="46.4769469"><ele>1026</ele><time>2019-09-10T16:48:11.000Z</time></trkpt><trkpt lon="15.513626" lat="46.4768997"><ele>1025</ele><time>2019-09-10T16:48:12.000Z</time></trkpt><trkpt lon="15.513626" lat="46.4768997"><ele>1025</ele><time>2019-09-10T16:48:13.000Z</time></trkpt><trkpt lon="15.5138589" lat="46.4768389"><ele>1024</ele><time>2019-09-10T16:48:14.000Z</time></trkpt><trkpt lon="15.5138589" lat="46.4768389"><ele>1024</ele><time>2019-09-10T16:48:15.000Z</time></trkpt><trkpt lon="15.5140892" lat="46.4767747"><ele>1023</ele><time>2019-09-10T16:48:16.000Z</time></trkpt><trkpt lon="15.5142091" lat="46.4767413"><ele>1023</ele><time>2019-09-10T16:48:17.000Z</time></trkpt><trkpt lon="15.5142091" lat="46.4767413"><ele>1023</ele><time>2019-09-10T16:48:18.000Z</time></trkpt><trkpt lon="15.514461" lat="46.4766635"><ele>1021</ele><time>2019-09-10T16:48:19.000Z</time></trkpt><trkpt lon="15.514461" lat="46.4766635"><ele>1021</ele><time>2019-09-10T16:48:20.000Z</time></trkpt><trkpt lon="15.5147317" lat="46.4765984"><ele>1019</ele><time>2019-09-10T16:48:21.000Z</time></trkpt><trkpt lon="15.5147317" lat="46.4765984"><ele>1019</ele><time>2019-09-10T16:48:22.000Z</time></trkpt><trkpt lon="15.5150379" lat="46.4765525"><ele>1017</ele><time>2019-09-10T16:48:23.000Z</time></trkpt><trkpt lon="15.5152055" lat="46.4765369"><ele>1016</ele><time>2019-09-10T16:48:24.000Z</time></trkpt><trkpt lon="15.5153763" lat="46.4765199"><ele>1015</ele><time>2019-09-10T16:48:25.000Z</time></trkpt><trkpt lon="15.5153763" lat="46.4765199"><ele>1015</ele><time>2019-09-10T16:48:26.000Z</time></trkpt><trkpt lon="15.515717" lat="46.4764849"><ele>1013</ele><time>2019-09-10T16:48:27.000Z</time></trkpt><trkpt lon="15.5158922" lat="46.4764717"><ele>1012</ele><time>2019-09-10T16:48:28.000Z</time></trkpt><trkpt lon="15.5158922" lat="46.4764717"><ele>1012</ele><time>2019-09-10T16:48:29.000Z</time></trkpt><trkpt lon="15.5162358" lat="46.4764364"><ele>1011</ele><time>2019-09-10T16:48:30.000Z</time></trkpt><trkpt lon="15.5164013" lat="46.4764101"><ele>1010</ele><time>2019-09-10T16:48:31.000Z</time></trkpt><trkpt lon="15.5164013" lat="46.4764101"><ele>1010</ele><time>2019-09-10T16:48:32.000Z</time></trkpt><trkpt lon="15.5167237" lat="46.4763482"><ele>1010</ele><time>2019-09-10T16:48:33.000Z</time></trkpt><trkpt lon="15.5167237" lat="46.4763482"><ele>1010</ele><time>2019-09-10T16:48:34.000Z</time></trkpt><trkpt lon="15.5170231" lat="46.476267"><ele>1009</ele><time>2019-09-10T16:48:35.000Z</time></trkpt><trkpt lon="15.5171677" lat="46.4762279"><ele>1009</ele><time>2019-09-10T16:48:36.000Z</time></trkpt><trkpt lon="15.5171677" lat="46.4762279"><ele>1009</ele><time>2019-09-10T16:48:37.000Z</time></trkpt><trkpt lon="15.5174574" lat="46.4761734"><ele>1008</ele><time>2019-09-10T16:48:38.000Z</time></trkpt><trkpt lon="15.5174574" lat="46.4761734"><ele>1008</ele><time>2019-09-10T16:48:39.000Z</time></trkpt><trkpt lon="15.5177416" lat="46.4762014"><ele>1008</ele><time>2019-09-10T16:48:40.000Z</time></trkpt><trkpt lon="15.5177416" lat="46.4762014"><ele>1008</ele><time>2019-09-10T16:48:41.000Z</time></trkpt><trkpt lon="15.5180071" lat="46.4762659"><ele>1007</ele><time>2019-09-10T16:48:42.000Z</time></trkpt><trkpt lon="15.5180071" lat="46.4762659"><ele>1007</ele><time>2019-09-10T16:48:43.000Z</time></trkpt><trkpt lon="15.5182422" lat="46.4763832"><ele>1006</ele><time>2019-09-10T16:48:44.000Z</time></trkpt><trkpt lon="15.5182422" lat="46.4763832"><ele>1006</ele><time>2019-09-10T16:48:45.000Z</time></trkpt><trkpt lon="15.5184673" lat="46.476487"><ele>1005</ele><time>2019-09-10T16:48:46.000Z</time></trkpt><trkpt lon="15.5185828" lat="46.476551"><ele>1004</ele><time>2019-09-10T16:48:47.000Z</time></trkpt><trkpt lon="15.5185828" lat="46.476551"><ele>1004</ele><time>2019-09-10T16:48:48.000Z</time></trkpt><trkpt lon="15.5188044" lat="46.4767121"><ele>1004</ele><time>2019-09-10T16:48:49.000Z</time></trkpt><trkpt lon="15.5189123" lat="46.4768344"><ele>999</ele><time>2019-09-10T16:48:50.000Z</time></trkpt><trkpt lon="15.5190035" lat="46.4769492"><ele>997</ele><time>2019-09-10T16:48:51.000Z</time></trkpt><trkpt lon="15.5190035" lat="46.4769492"><ele>997</ele><time>2019-09-10T16:48:52.000Z</time></trkpt><trkpt lon="15.5191366" lat="46.4771439"><ele>994</ele><time>2019-09-10T16:48:53.000Z</time></trkpt><trkpt lon="15.5191366" lat="46.4771439"><ele>994</ele><time>2019-09-10T16:48:54.000Z</time></trkpt><trkpt lon="15.5192345" lat="46.4772991"><ele>991</ele><time>2019-09-10T16:48:55.000Z</time></trkpt><trkpt lon="15.5192345" lat="46.4772991"><ele>991</ele><time>2019-09-10T16:48:56.000Z</time></trkpt><trkpt lon="15.5193561" lat="46.4773918"><ele>990</ele><time>2019-09-10T16:48:57.000Z</time></trkpt><trkpt lon="15.5194196" lat="46.4774055"><ele>989</ele><time>2019-09-10T16:48:58.000Z</time></trkpt><trkpt lon="15.5194196" lat="46.4774055"><ele>989</ele><time>2019-09-10T16:48:59.000Z</time></trkpt><trkpt lon="15.5194993" lat="46.4774045"><ele>987</ele><time>2019-09-10T16:49:00.000Z</time></trkpt><trkpt lon="15.5194993" lat="46.4774045"><ele>987</ele><time>2019-09-10T16:49:01.000Z</time></trkpt><trkpt lon="15.5195616" lat="46.4773606"><ele>987</ele><time>2019-09-10T16:49:02.000Z</time></trkpt><trkpt lon="15.5195616" lat="46.4773606"><ele>987</ele><time>2019-09-10T16:49:03.000Z</time></trkpt><trkpt lon="15.519595" lat="46.4772981"><ele>986</ele><time>2019-09-10T16:49:04.000Z</time></trkpt><trkpt lon="15.519595" lat="46.4772981"><ele>986</ele><time>2019-09-10T16:49:05.000Z</time></trkpt><trkpt lon="15.5196015" lat="46.4772369"><ele>986</ele><time>2019-09-10T16:49:06.000Z</time></trkpt><trkpt lon="15.5196005" lat="46.4772055"><ele>986</ele><time>2019-09-10T16:49:07.000Z</time></trkpt><trkpt lon="15.5195967" lat="46.4771773"><ele>986</ele><time>2019-09-10T16:49:08.000Z</time></trkpt><trkpt lon="15.5195967" lat="46.4771773"><ele>986</ele><time>2019-09-10T16:49:09.000Z</time></trkpt><trkpt lon="15.5195919" lat="46.477136"><ele>985</ele><time>2019-09-10T16:49:10.000Z</time></trkpt><trkpt lon="15.5195919" lat="46.477136"><ele>985</ele><time>2019-09-10T16:49:11.000Z</time></trkpt><trkpt lon="15.5195891" lat="46.4770803"><ele>984</ele><time>2019-09-10T16:49:12.000Z</time></trkpt><trkpt lon="15.5195708" lat="46.477007"><ele>984</ele><time>2019-09-10T16:49:13.000Z</time></trkpt><trkpt lon="15.5195545" lat="46.47696"><ele>983</ele><time>2019-09-10T16:49:14.000Z</time></trkpt><trkpt lon="15.5195408" lat="46.476908"><ele>983</ele><time>2019-09-10T16:49:15.000Z</time></trkpt><trkpt lon="15.5195408" lat="46.476908"><ele>983</ele><time>2019-09-10T16:49:16.000Z</time></trkpt><trkpt lon="15.5194846" lat="46.4767944"><ele>982</ele><time>2019-09-10T16:49:17.000Z</time></trkpt><trkpt lon="15.5194846" lat="46.4767944"><ele>982</ele><time>2019-09-10T16:49:18.000Z</time></trkpt><trkpt lon="15.5194049" lat="46.4766668"><ele>980</ele><time>2019-09-10T16:49:19.000Z</time></trkpt><trkpt lon="15.5193447" lat="46.4766023"><ele>980</ele><time>2019-09-10T16:49:20.000Z</time></trkpt><trkpt lon="15.5193447" lat="46.4766023"><ele>980</ele><time>2019-09-10T16:49:21.000Z</time></trkpt><trkpt lon="15.5191643" lat="46.4764992"><ele>978</ele><time>2019-09-10T16:49:22.000Z</time></trkpt><trkpt lon="15.5190622" lat="46.4764506"><ele>978</ele><time>2019-09-10T16:49:23.000Z</time></trkpt><trkpt lon="15.5190622" lat="46.4764506"><ele>978</ele><time>2019-09-10T16:49:24.000Z</time></trkpt><trkpt lon="15.518873" lat="46.4763348"><ele>977</ele><time>2019-09-10T16:49:25.000Z</time></trkpt><trkpt lon="15.5187897" lat="46.47627"><ele>977</ele><time>2019-09-10T16:49:26.000Z</time></trkpt><trkpt lon="15.5187251" lat="46.476198"><ele>978</ele><time>2019-09-10T16:49:27.000Z</time></trkpt><trkpt lon="15.5186675" lat="46.4761146"><ele>977</ele><time>2019-09-10T16:49:28.000Z</time></trkpt><trkpt lon="15.5186675" lat="46.4761146"><ele>977</ele><time>2019-09-10T16:49:29.000Z</time></trkpt><trkpt lon="15.518546" lat="46.4759439"><ele>977</ele><time>2019-09-10T16:49:30.000Z</time></trkpt><trkpt lon="15.5184715" lat="46.4758615"><ele>977</ele><time>2019-09-10T16:49:31.000Z</time></trkpt><trkpt lon="15.5184715" lat="46.4758615"><ele>977</ele><time>2019-09-10T16:49:32.000Z</time></trkpt><trkpt lon="15.5182597" lat="46.4757087"><ele>975</ele><time>2019-09-10T16:49:33.000Z</time></trkpt><trkpt lon="15.5182597" lat="46.4757087"><ele>975</ele><time>2019-09-10T16:49:34.000Z</time></trkpt><trkpt lon="15.5179649" lat="46.4755901"><ele>972</ele><time>2019-09-10T16:49:35.000Z</time></trkpt><trkpt lon="15.5178096" lat="46.4755266"><ele>971</ele><time>2019-09-10T16:49:36.000Z</time></trkpt><trkpt lon="15.5176484" lat="46.4754734"><ele>970</ele><time>2019-09-10T16:49:37.000Z</time></trkpt><trkpt lon="15.5176484" lat="46.4754734"><ele>970</ele><time>2019-09-10T16:49:38.000Z</time></trkpt><trkpt lon="15.5173235" lat="46.4753654"><ele>968</ele><time>2019-09-10T16:49:39.000Z</time></trkpt><trkpt lon="15.5173235" lat="46.4753654"><ele>968</ele><time>2019-09-10T16:49:40.000Z</time></trkpt><trkpt lon="15.5169638" lat="46.4753253"><ele>966</ele><time>2019-09-10T16:49:41.000Z</time></trkpt><trkpt lon="15.5167866" lat="46.4753205"><ele>965</ele><time>2019-09-10T16:49:42.000Z</time></trkpt><trkpt lon="15.5166326" lat="46.4753139"><ele>964</ele><time>2019-09-10T16:49:43.000Z</time></trkpt><trkpt lon="15.5166326" lat="46.4753139"><ele>964</ele><time>2019-09-10T16:49:44.000Z</time></trkpt><trkpt lon="15.5163687" lat="46.475272"><ele>962</ele><time>2019-09-10T16:49:45.000Z</time></trkpt><trkpt lon="15.5163687" lat="46.475272"><ele>962</ele><time>2019-09-10T16:49:46.000Z</time></trkpt><trkpt lon="15.5161668" lat="46.475169"><ele>959</ele><time>2019-09-10T16:49:47.000Z</time></trkpt><trkpt lon="15.5161668" lat="46.475169"><ele>959</ele><time>2019-09-10T16:49:48.000Z</time></trkpt><trkpt lon="15.5160672" lat="46.4749571"><ele>956</ele><time>2019-09-10T16:49:49.000Z</time></trkpt><trkpt lon="15.5159834" lat="46.4748588"><ele>954</ele><time>2019-09-10T16:49:50.000Z</time></trkpt><trkpt lon="15.5159834" lat="46.4748588"><ele>954</ele><time>2019-09-10T16:49:51.000Z</time></trkpt><trkpt lon="15.5157111" lat="46.4747332"><ele>953</ele><time>2019-09-10T16:49:52.000Z</time></trkpt><trkpt lon="15.5155531" lat="46.4746965"><ele>953</ele><time>2019-09-10T16:49:53.000Z</time></trkpt><trkpt lon="15.5155531" lat="46.4746965"><ele>953</ele><time>2019-09-10T16:49:54.000Z</time></trkpt><trkpt lon="15.5151907" lat="46.4746391"><ele>951</ele><time>2019-09-10T16:49:55.000Z</time></trkpt><trkpt lon="15.5151907" lat="46.4746391"><ele>951</ele><time>2019-09-10T16:49:56.000Z</time></trkpt><trkpt lon="15.5148515" lat="46.4746066"><ele>950</ele><time>2019-09-10T16:49:57.000Z</time></trkpt><trkpt lon="15.5146779" lat="46.4746421"><ele>949</ele><time>2019-09-10T16:49:58.000Z</time></trkpt><trkpt lon="15.5145221" lat="46.4746698"><ele>949</ele><time>2019-09-10T16:49:59.000Z</time></trkpt><trkpt lon="15.5145221" lat="46.4746698"><ele>949</ele><time>2019-09-10T16:50:00.000Z</time></trkpt><trkpt lon="15.5142198" lat="46.4746452"><ele>946</ele><time>2019-09-10T16:50:01.000Z</time></trkpt><trkpt lon="15.5142198" lat="46.4746452"><ele>946</ele><time>2019-09-10T16:50:02.000Z</time></trkpt><trkpt lon="15.5140412" lat="46.474484"><ele>944</ele><time>2019-09-10T16:50:03.000Z</time></trkpt><trkpt lon="15.5139759" lat="46.4743881"><ele>944</ele><time>2019-09-10T16:50:04.000Z</time></trkpt><trkpt lon="15.5139759" lat="46.4743881"><ele>944</ele><time>2019-09-10T16:50:05.000Z</time></trkpt><trkpt lon="15.5138035" lat="46.4741967"><ele>941</ele><time>2019-09-10T16:50:06.000Z</time></trkpt><trkpt lon="15.5137669" lat="46.474082"><ele>939</ele><time>2019-09-10T16:50:07.000Z</time></trkpt><trkpt lon="15.513739" lat="46.4739672"><ele>939</ele><time>2019-09-10T16:50:08.000Z</time></trkpt><trkpt lon="15.513739" lat="46.4739672"><ele>939</ele><time>2019-09-10T16:50:09.000Z</time></trkpt><trkpt lon="15.5138425" lat="46.47373"><ele>936</ele><time>2019-09-10T16:50:10.000Z</time></trkpt><trkpt lon="15.5138425" lat="46.47373"><ele>936</ele><time>2019-09-10T16:50:11.000Z</time></trkpt><trkpt lon="15.5139564" lat="46.4734866"><ele>933</ele><time>2019-09-10T16:50:12.000Z</time></trkpt><trkpt lon="15.5139564" lat="46.4734866"><ele>933</ele><time>2019-09-10T16:50:13.000Z</time></trkpt><trkpt lon="15.5141327" lat="46.4732571"><ele>930</ele><time>2019-09-10T16:50:14.000Z</time></trkpt><trkpt lon="15.5141327" lat="46.4732571"><ele>930</ele><time>2019-09-10T16:50:15.000Z</time></trkpt><trkpt lon="15.5143566" lat="46.4730434"><ele>927</ele><time>2019-09-10T16:50:16.000Z</time></trkpt><trkpt lon="15.5143566" lat="46.4730434"><ele>927</ele><time>2019-09-10T16:50:17.000Z</time></trkpt><trkpt lon="15.5146095" lat="46.4728397"><ele>924</ele><time>2019-09-10T16:50:18.000Z</time></trkpt><trkpt lon="15.5146095" lat="46.4728397"><ele>924</ele><time>2019-09-10T16:50:19.000Z</time></trkpt><trkpt lon="15.5149309" lat="46.472674"><ele>921</ele><time>2019-09-10T16:50:20.000Z</time></trkpt><trkpt lon="15.5150992" lat="46.4725982"><ele>920</ele><time>2019-09-10T16:50:21.000Z</time></trkpt><trkpt lon="15.5150992" lat="46.4725982"><ele>920</ele><time>2019-09-10T16:50:22.000Z</time></trkpt><trkpt lon="15.5154304" lat="46.4724516"><ele>919</ele><time>2019-09-10T16:50:23.000Z</time></trkpt><trkpt lon="15.5154304" lat="46.4724516"><ele>919</ele><time>2019-09-10T16:50:24.000Z</time></trkpt><trkpt lon="15.5157652" lat="46.4723302"><ele>918</ele><time>2019-09-10T16:50:25.000Z</time></trkpt><trkpt lon="15.5157652" lat="46.4723302"><ele>918</ele><time>2019-09-10T16:50:26.000Z</time></trkpt><trkpt lon="15.516049" lat="46.4722171"><ele>918</ele><time>2019-09-10T16:50:27.000Z</time></trkpt><trkpt lon="15.5161578" lat="46.4721555"><ele>917</ele><time>2019-09-10T16:50:28.000Z</time></trkpt><trkpt lon="15.5161578" lat="46.4721555"><ele>917</ele><time>2019-09-10T16:50:29.000Z</time></trkpt><trkpt lon="15.5163027" lat="46.4720187"><ele>917</ele><time>2019-09-10T16:50:30.000Z</time></trkpt><trkpt lon="15.5163027" lat="46.4720187"><ele>917</ele><time>2019-09-10T16:50:31.000Z</time></trkpt><trkpt lon="15.5163718" lat="46.471898"><ele>916</ele><time>2019-09-10T16:50:32.000Z</time></trkpt><trkpt lon="15.5163805" lat="46.4718492"><ele>916</ele><time>2019-09-10T16:50:33.000Z</time></trkpt><trkpt lon="15.5163805" lat="46.4718492"><ele>916</ele><time>2019-09-10T16:50:34.000Z</time></trkpt><trkpt lon="15.5163673" lat="46.4717887"><ele>916</ele><time>2019-09-10T16:50:35.000Z</time></trkpt><trkpt lon="15.5163673" lat="46.4717887"><ele>916</ele><time>2019-09-10T16:50:36.000Z</time></trkpt><trkpt lon="15.5163474" lat="46.4717565"><ele>915</ele><time>2019-09-10T16:50:37.000Z</time></trkpt><trkpt lon="15.5163474" lat="46.4717565"><ele>915</ele><time>2019-09-10T16:50:38.000Z</time></trkpt><trkpt lon="15.5163474" lat="46.4717565"><ele>915</ele><time>2019-09-10T16:50:39.000Z</time></trkpt><trkpt lon="-999.0" lat="-999.0"><ele>0.0</ele><time>2019-09-10T16:50:40.000Z</time></trkpt><trkpt lon="-999.0" lat="-999.0"><ele>0.0</ele><time>2019-09-10T16:50:41.000Z</time></trkpt><trkpt lon="-999.0" lat="-999.0"><ele>0.0</ele><time>2019-09-10T16:50:42.000Z</time></trkpt><trkpt lon="-999.0" lat="-999.0"><ele>0.0</ele><time>2019-09-10T16:50:43.000Z</time></trkpt><trkpt lon="-999.0" lat="-999.0"><ele>0.0</ele><time>2019-09-10T16:50:44.000Z</time></trkpt><trkpt lon="-999.0" lat="-999.0"><ele>0.0</ele><time>2019-09-10T16:50:45.000Z</time></trkpt><trkpt lon="-999.0" lat="-999.0"><ele>0.0</ele><time>2019-09-10T16:50:46.000Z</time></trkpt><trkpt lon="-999.0" lat="-999.0"><ele>0.0</ele><time>2019-09-10T16:50:47.000Z</time></trkpt><trkpt lon="-999.0" lat="-999.0"><ele>0.0</ele><time>2019-09-10T16:50:48.000Z</time></trkpt><trkpt lon="-999.0" lat="-999.0"><ele>0.0</ele><time>2019-09-10T16:50:49.000Z</time></trkpt><trkpt lon="-999.0" lat="-999.0"><ele>0.0</ele><time>2019-09-10T16:50:50.000Z</time></trkpt><trkpt lon="-999.0" lat="-999.0"><ele>0.0</ele><time>2019-09-10T16:50:51.000Z</time></trkpt><trkpt lon="-999.0" lat="-999.0"><ele>0.0</ele><time>2019-09-10T16:50:52.000Z</time></trkpt><trkpt lon="-999.0" lat="-999.0"><ele>0.0</ele><time>2019-09-10T16:50:53.000Z</time></trkpt><trkpt lon="-999.0" lat="-999.0"><ele>0.0</ele><time>2019-09-10T16:50:54.000Z</time></trkpt><trkpt lon="-999.0" lat="-999.0"><ele>0.0</ele><time>2019-09-10T16:50:55.000Z</time></trkpt><trkpt lon="15.5163273" lat="46.4717287"><ele>912</ele><time>2019-09-10T16:50:56.000Z</time></trkpt><trkpt lon="15.5163273" lat="46.4717287"><ele>912</ele><time>2019-09-10T16:50:57.000Z</time></trkpt><trkpt lon="15.5163273" lat="46.4717287"><ele>912</ele><time>2019-09-10T16:50:58.000Z</time></trkpt><trkpt lon="-999.0" lat="-999.0"><ele>0.0</ele><time>2019-09-10T16:50:59.000Z</time></trkpt><trkpt lon="-999.0" lat="-999.0"><ele>0.0</ele><time>2019-09-10T16:51:00.000Z</time></trkpt><trkpt lon="-999.0" lat="-999.0"><ele>0.0</ele><time>2019-09-10T16:51:01.000Z</time></trkpt><trkpt lon="-999.0" lat="-999.0"><ele>0.0</ele><time>2019-09-10T16:51:02.000Z</time></trkpt><trkpt lon="-999.0" lat="-999.0"><ele>0.0</ele><time>2019-09-10T16:51:03.000Z</time></trkpt><trkpt lon="-999.0" lat="-999.0"><ele>0.0</ele><time>2019-09-10T16:51:04.000Z</time></trkpt><trkpt lon="-999.0" lat="-999.0"><ele>0.0</ele><time>2019-09-10T16:51:05.000Z</time></trkpt><trkpt lon="-999.0" lat="-999.0"><ele>0.0</ele><time>2019-09-10T16:51:06.000Z</time></trkpt><trkpt lon="-999.0" lat="-999.0"><ele>0.0</ele><time>2019-09-10T16:51:07.000Z</time></trkpt><trkpt lon="-999.0" lat="-999.0"><ele>0.0</ele><time>2019-09-10T16:51:08.000Z</time></trkpt><trkpt lon="-999.0" lat="-999.0"><ele>0.0</ele><time>2019-09-10T16:51:09.000Z</time></trkpt><trkpt lon="-999.0" lat="-999.0"><ele>0.0</ele><time>2019-09-10T16:51:10.000Z</time></trkpt><trkpt lon="-999.0" lat="-999.0"><ele>0.0</ele><time>2019-09-10T16:51:11.000Z</time></trkpt><trkpt lon="-999.0" lat="-999.0"><ele>0.0</ele><time>2019-09-10T16:51:12.000Z</time></trkpt><trkpt lon="15.5162939" lat="46.4717"><ele>911</ele><time>2019-09-10T16:51:13.000Z</time></trkpt><trkpt lon="15.5162939" lat="46.4717"><ele>911</ele><time>2019-09-10T16:51:14.000Z</time></trkpt><trkpt lon="15.51625" lat="46.4716811"><ele>911</ele><time>2019-09-10T16:51:15.000Z</time></trkpt><trkpt lon="15.51625" lat="46.4716811"><ele>911</ele><time>2019-09-10T16:51:16.000Z</time></trkpt><trkpt lon="15.5161816" lat="46.471659"><ele>911</ele><time>2019-09-10T16:51:17.000Z</time></trkpt><trkpt lon="15.5161816" lat="46.471659"><ele>911</ele><time>2019-09-10T16:51:18.000Z</time></trkpt><trkpt lon="15.5160919" lat="46.4716361"><ele>910</ele><time>2019-09-10T16:51:19.000Z</time></trkpt><trkpt lon="15.5160919" lat="46.4716361"><ele>910</ele><time>2019-09-10T16:51:20.000Z</time></trkpt><trkpt lon="15.5159423" lat="46.4716272"><ele>909</ele><time>2019-09-10T16:51:21.000Z</time></trkpt><trkpt lon="15.5159423" lat="46.4716272"><ele>909</ele><time>2019-09-10T16:51:22.000Z</time></trkpt><trkpt lon="15.5157971" lat="46.4716192"><ele>909</ele><time>2019-09-10T16:51:23.000Z</time></trkpt><trkpt lon="15.5157971" lat="46.4716192"><ele>909</ele><time>2019-09-10T16:51:24.000Z</time></trkpt><trkpt lon="15.5156302" lat="46.4716199"><ele>908</ele><time>2019-09-10T16:51:25.000Z</time></trkpt><trkpt lon="15.5155383" lat="46.4716171"><ele>907</ele><time>2019-09-10T16:51:26.000Z</time></trkpt><trkpt lon="15.5155383" lat="46.4716171"><ele>907</ele><time>2019-09-10T16:51:27.000Z</time></trkpt><trkpt lon="15.5153962" lat="46.4715924"><ele>907</ele><time>2019-09-10T16:51:28.000Z</time></trkpt><trkpt lon="15.5153425" lat="46.4715801"><ele>907</ele><time>2019-09-10T16:51:29.000Z</time></trkpt><trkpt lon="15.5153425" lat="46.4715801"><ele>907</ele><time>2019-09-10T16:51:30.000Z</time></trkpt><trkpt lon="15.5152379" lat="46.4715442"><ele>906</ele><time>2019-09-10T16:51:31.000Z</time></trkpt><trkpt lon="15.5151843" lat="46.4715227"><ele>906</ele><time>2019-09-10T16:51:32.000Z</time></trkpt><trkpt lon="15.5151843" lat="46.4715227"><ele>906</ele><time>2019-09-10T16:51:33.000Z</time></trkpt><trkpt lon="15.5150636" lat="46.4714781"><ele>906</ele><time>2019-09-10T16:51:34.000Z</time></trkpt><trkpt lon="15.5149964" lat="46.4714584"><ele>906</ele><time>2019-09-10T16:51:35.000Z</time></trkpt><trkpt lon="15.5149964" lat="46.4714584"><ele>906</ele><time>2019-09-10T16:51:36.000Z</time></trkpt><trkpt lon="15.5148398" lat="46.4714441"><ele>905</ele><time>2019-09-10T16:51:37.000Z</time></trkpt><trkpt lon="15.5148398" lat="46.4714441"><ele>905</ele><time>2019-09-10T16:51:38.000Z</time></trkpt><trkpt lon="15.514665" lat="46.4714724"><ele>904</ele><time>2019-09-10T16:51:39.000Z</time></trkpt><trkpt lon="15.5145691" lat="46.4714934"><ele>904</ele><time>2019-09-10T16:51:40.000Z</time></trkpt><trkpt lon="15.5145691" lat="46.4714934"><ele>904</ele><time>2019-09-10T16:51:41.000Z</time></trkpt><trkpt lon="15.5143562" lat="46.4715287"><ele>903</ele><time>2019-09-10T16:51:42.000Z</time></trkpt><trkpt lon="15.5142409" lat="46.4715442"><ele>902</ele><time>2019-09-10T16:51:43.000Z</time></trkpt><trkpt lon="15.5142409" lat="46.4715442"><ele>902</ele><time>2019-09-10T16:51:44.000Z</time></trkpt><trkpt lon="15.5139954" lat="46.4715714"><ele>901</ele><time>2019-09-10T16:51:45.000Z</time></trkpt><trkpt lon="15.5139954" lat="46.4715714"><ele>901</ele><time>2019-09-10T16:51:46.000Z</time></trkpt><trkpt lon="15.5137354" lat="46.4716016"><ele>900</ele><time>2019-09-10T16:51:47.000Z</time></trkpt><trkpt lon="15.5136026" lat="46.4716268"><ele>899</ele><time>2019-09-10T16:51:48.000Z</time></trkpt><trkpt lon="15.5134703" lat="46.4716604"><ele>899</ele><time>2019-09-10T16:51:49.000Z</time></trkpt><trkpt lon="15.5134703" lat="46.4716604"><ele>899</ele><time>2019-09-10T16:51:50.000Z</time></trkpt><trkpt lon="15.5132073" lat="46.471738"><ele>898</ele><time>2019-09-10T16:51:51.000Z</time></trkpt><trkpt lon="15.5132073" lat="46.471738"><ele>898</ele><time>2019-09-10T16:51:52.000Z</time></trkpt><trkpt lon="15.5129538" lat="46.4718158"><ele>898</ele><time>2019-09-10T16:51:53.000Z</time></trkpt><trkpt lon="15.5129538" lat="46.4718158"><ele>898</ele><time>2019-09-10T16:51:54.000Z</time></trkpt><trkpt lon="15.5126847" lat="46.4718491"><ele>896</ele><time>2019-09-10T16:51:55.000Z</time></trkpt><trkpt lon="15.5126847" lat="46.4718491"><ele>896</ele><time>2019-09-10T16:51:56.000Z</time></trkpt><trkpt lon="15.5123996" lat="46.4718519"><ele>894</ele><time>2019-09-10T16:51:57.000Z</time></trkpt><trkpt lon="15.5123996" lat="46.4718519"><ele>894</ele><time>2019-09-10T16:51:58.000Z</time></trkpt><trkpt lon="15.5121207" lat="46.4718506"><ele>892</ele><time>2019-09-10T16:51:59.000Z</time></trkpt><trkpt lon="15.5121207" lat="46.4718506"><ele>892</ele><time>2019-09-10T16:52:00.000Z</time></trkpt><trkpt lon="15.5118494" lat="46.4718711"><ele>891</ele><time>2019-09-10T16:52:01.000Z</time></trkpt><trkpt lon="15.5117332" lat="46.4719248"><ele>890</ele><time>2019-09-10T16:52:02.000Z</time></trkpt><trkpt lon="15.5117332" lat="46.4719248"><ele>890</ele><time>2019-09-10T16:52:03.000Z</time></trkpt><trkpt lon="15.5114981" lat="46.4720457"><ele>888</ele><time>2019-09-10T16:52:04.000Z</time></trkpt><trkpt lon="15.5114981" lat="46.4720457"><ele>888</ele><time>2019-09-10T16:52:05.000Z</time></trkpt><trkpt lon="15.5112124" lat="46.4721368"><ele>886</ele><time>2019-09-10T16:52:06.000Z</time></trkpt><trkpt lon="15.5110459" lat="46.4721645"><ele>886</ele><time>2019-09-10T16:52:07.000Z</time></trkpt><trkpt lon="15.5110459" lat="46.4721645"><ele>886</ele><time>2019-09-10T16:52:08.000Z</time></trkpt><trkpt lon="15.5107116" lat="46.4722449"><ele>883</ele><time>2019-09-10T16:52:09.000Z</time></trkpt><trkpt lon="15.5105407" lat="46.4722814"><ele>882</ele><time>2019-09-10T16:52:10.000Z</time></trkpt><trkpt lon="15.5105407" lat="46.4722814"><ele>882</ele><time>2019-09-10T16:52:11.000Z</time></trkpt><trkpt lon="15.5102394" lat="46.4724159"><ele>880</ele><time>2019-09-10T16:52:12.000Z</time></trkpt><trkpt lon="15.5100939" lat="46.4724882"><ele>881</ele><time>2019-09-10T16:52:13.000Z</time></trkpt><trkpt lon="15.5100939" lat="46.4724882"><ele>881</ele><time>2019-09-10T16:52:14.000Z</time></trkpt><trkpt lon="15.5098325" lat="46.4726474"><ele>878</ele><time>2019-09-10T16:52:15.000Z</time></trkpt><trkpt lon="15.5098325" lat="46.4726474"><ele>878</ele><time>2019-09-10T16:52:16.000Z</time></trkpt><trkpt lon="15.5096104" lat="46.4727969"><ele>875</ele><time>2019-09-10T16:52:17.000Z</time></trkpt><trkpt lon="15.509512" lat="46.4728455"><ele>874</ele><time>2019-09-10T16:52:18.000Z</time></trkpt><trkpt lon="15.509512" lat="46.4728455"><ele>874</ele><time>2019-09-10T16:52:19.000Z</time></trkpt><trkpt lon="15.5093103" lat="46.4728621"><ele>873</ele><time>2019-09-10T16:52:20.000Z</time></trkpt><trkpt lon="15.5092281" lat="46.472818"><ele>873</ele><time>2019-09-10T16:52:21.000Z</time></trkpt><trkpt lon="15.5092281" lat="46.472818"><ele>873</ele><time>2019-09-10T16:52:22.000Z</time></trkpt><trkpt lon="15.5092325" lat="46.4727403"><ele>870</ele><time>2019-09-10T16:52:23.000Z</time></trkpt><trkpt lon="15.5092325" lat="46.4727403"><ele>870</ele><time>2019-09-10T16:52:24.000Z</time></trkpt><trkpt lon="15.5092609" lat="46.4726933"><ele>869</ele><time>2019-09-10T16:52:25.000Z</time></trkpt><trkpt lon="15.5092609" lat="46.4726933"><ele>869</ele><time>2019-09-10T16:52:26.000Z</time></trkpt><trkpt lon="15.5093352" lat="46.4725525"><ele>870</ele><time>2019-09-10T16:52:27.000Z</time></trkpt><trkpt lon="15.5093352" lat="46.4725525"><ele>870</ele><time>2019-09-10T16:52:28.000Z</time></trkpt><trkpt lon="15.5093898" lat="46.4724279"><ele>870</ele><time>2019-09-10T16:52:29.000Z</time></trkpt><trkpt lon="15.5093898" lat="46.4724279"><ele>870</ele><time>2019-09-10T16:52:30.000Z</time></trkpt><trkpt lon="15.5094296" lat="46.4723533"><ele>869</ele><time>2019-09-10T16:52:31.000Z</time></trkpt><trkpt lon="15.5094555" lat="46.4723043"><ele>869</ele><time>2019-09-10T16:52:32.000Z</time></trkpt><trkpt lon="15.5094555" lat="46.4723043"><ele>869</ele><time>2019-09-10T16:52:33.000Z</time></trkpt><trkpt lon="15.5095577" lat="46.4722259"><ele>869</ele><time>2019-09-10T16:52:34.000Z</time></trkpt><trkpt lon="15.5096222" lat="46.4721911"><ele>869</ele><time>2019-09-10T16:52:35.000Z</time></trkpt><trkpt lon="15.5096222" lat="46.4721911"><ele>869</ele><time>2019-09-10T16:52:36.000Z</time></trkpt><trkpt lon="15.5097424" lat="46.4721476"><ele>868</ele><time>2019-09-10T16:52:37.000Z</time></trkpt><trkpt lon="15.5097944" lat="46.4721252"><ele>868</ele><time>2019-09-10T16:52:38.000Z</time></trkpt><trkpt lon="15.5097944" lat="46.4721252"><ele>868</ele><time>2019-09-10T16:52:39.000Z</time></trkpt><trkpt lon="15.5098652" lat="46.4720887"><ele>867</ele><time>2019-09-10T16:52:40.000Z</time></trkpt><trkpt lon="15.5098939" lat="46.4720693"><ele>866</ele><time>2019-09-10T16:52:41.000Z</time></trkpt><trkpt lon="15.5098939" lat="46.4720693"><ele>866</ele><time>2019-09-10T16:52:42.000Z</time></trkpt><trkpt lon="15.5099648" lat="46.4720258"><ele>866</ele><time>2019-09-10T16:52:43.000Z</time></trkpt><trkpt lon="15.5100034" lat="46.4720062"><ele>867</ele><time>2019-09-10T16:52:44.000Z</time></trkpt><trkpt lon="15.5100034" lat="46.4720062"><ele>867</ele><time>2019-09-10T16:52:45.000Z</time></trkpt><trkpt lon="15.5100673" lat="46.4719731"><ele>868</ele><time>2019-09-10T16:52:46.000Z</time></trkpt><trkpt lon="15.5100673" lat="46.4719731"><ele>868</ele><time>2019-09-10T16:52:47.000Z</time></trkpt><trkpt lon="15.5101758" lat="46.4719079"><ele>869</ele><time>2019-09-10T16:52:48.000Z</time></trkpt><trkpt lon="15.5101758" lat="46.4719079"><ele>869</ele><time>2019-09-10T16:52:49.000Z</time></trkpt><trkpt lon="15.5102493" lat="46.4718591"><ele>869</ele><time>2019-09-10T16:52:50.000Z</time></trkpt><trkpt lon="15.5102858" lat="46.471836"><ele>869</ele><time>2019-09-10T16:52:51.000Z</time></trkpt><trkpt lon="15.5102858" lat="46.471836"><ele>869</ele><time>2019-09-10T16:52:52.000Z</time></trkpt><trkpt lon="15.5103406" lat="46.4718028"><ele>868</ele><time>2019-09-10T16:52:53.000Z</time></trkpt><trkpt lon="15.5104249" lat="46.4717449"><ele>868</ele><time>2019-09-10T16:52:54.000Z</time></trkpt><trkpt lon="15.5104249" lat="46.4717449"><ele>868</ele><time>2019-09-10T16:52:55.000Z</time></trkpt><trkpt lon="15.5104748" lat="46.4716799"><ele>868</ele><time>2019-09-10T16:52:56.000Z</time></trkpt><trkpt lon="15.5105116" lat="46.4716425"><ele>867</ele><time>2019-09-10T16:52:57.000Z</time></trkpt><trkpt lon="15.5105116" lat="46.4716425"><ele>867</ele><time>2019-09-10T16:52:58.000Z</time></trkpt><trkpt lon="15.5105876" lat="46.471543"><ele>866</ele><time>2019-09-10T16:52:59.000Z</time></trkpt><trkpt lon="15.5106719" lat="46.4714539"><ele>865</ele><time>2019-09-10T16:53:00.000Z</time></trkpt><trkpt lon="15.5106719" lat="46.4714539"><ele>865</ele><time>2019-09-10T16:53:01.000Z</time></trkpt><trkpt lon="15.5108643" lat="46.4713049"><ele>864</ele><time>2019-09-10T16:53:02.000Z</time></trkpt><trkpt lon="15.5108643" lat="46.4713049"><ele>864</ele><time>2019-09-10T16:53:03.000Z</time></trkpt><trkpt lon="15.5110786" lat="46.4711962"><ele>863</ele><time>2019-09-10T16:53:04.000Z</time></trkpt><trkpt lon="15.511188" lat="46.4711378"><ele>862</ele><time>2019-09-10T16:53:05.000Z</time></trkpt><trkpt lon="15.5113043" lat="46.4710853"><ele>861</ele><time>2019-09-10T16:53:06.000Z</time></trkpt><trkpt lon="15.5113043" lat="46.4710853"><ele>861</ele><time>2019-09-10T16:53:07.000Z</time></trkpt><trkpt lon="15.5115502" lat="46.4709726"><ele>861</ele><time>2019-09-10T16:53:08.000Z</time></trkpt><trkpt lon="15.5115502" lat="46.4709726"><ele>861</ele><time>2019-09-10T16:53:09.000Z</time></trkpt><trkpt lon="15.5118567" lat="46.4708855"><ele>861</ele><time>2019-09-10T16:53:10.000Z</time></trkpt><trkpt lon="15.5118567" lat="46.4708855"><ele>861</ele><time>2019-09-10T16:53:11.000Z</time></trkpt><trkpt lon="15.512168" lat="46.4708297"><ele>859</ele><time>2019-09-10T16:53:12.000Z</time></trkpt><trkpt lon="15.5123091" lat="46.4708039"><ele>859</ele><time>2019-09-10T16:53:13.000Z</time></trkpt><trkpt lon="15.5124462" lat="46.4707605"><ele>858</ele><time>2019-09-10T16:53:14.000Z</time></trkpt><trkpt lon="15.5124462" lat="46.4707605"><ele>858</ele><time>2019-09-10T16:53:15.000Z</time></trkpt><trkpt lon="15.512702" lat="46.4706535"><ele>858</ele><time>2019-09-10T16:53:16.000Z</time></trkpt><trkpt lon="15.512702" lat="46.4706535"><ele>858</ele><time>2019-09-10T16:53:17.000Z</time></trkpt><trkpt lon="15.512912" lat="46.4705205"><ele>858</ele><time>2019-09-10T16:53:18.000Z</time></trkpt><trkpt lon="15.5130228" lat="46.4704695"><ele>858</ele><time>2019-09-10T16:53:19.000Z</time></trkpt><trkpt lon="15.5131132" lat="46.4703945"><ele>858</ele><time>2019-09-10T16:53:20.000Z</time></trkpt><trkpt lon="15.5131132" lat="46.4703945"><ele>858</ele><time>2019-09-10T16:53:21.000Z</time></trkpt><trkpt lon="15.5133043" lat="46.4702604"><ele>857</ele><time>2019-09-10T16:53:22.000Z</time></trkpt><trkpt lon="15.5133043" lat="46.4702604"><ele>857</ele><time>2019-09-10T16:53:23.000Z</time></trkpt><trkpt lon="15.5134922" lat="46.4701324"><ele>856</ele><time>2019-09-10T16:53:24.000Z</time></trkpt><trkpt lon="15.5135779" lat="46.4700682"><ele>856</ele><time>2019-09-10T16:53:25.000Z</time></trkpt><trkpt lon="15.5136685" lat="46.47001"><ele>856</ele><time>2019-09-10T16:53:26.000Z</time></trkpt><trkpt lon="15.5136685" lat="46.47001"><ele>856</ele><time>2019-09-10T16:53:27.000Z</time></trkpt><trkpt lon="15.5138574" lat="46.4699002"><ele>856</ele><time>2019-09-10T16:53:28.000Z</time></trkpt><trkpt lon="15.5139624" lat="46.4698594"><ele>855</ele><time>2019-09-10T16:53:29.000Z</time></trkpt><trkpt lon="15.5139624" lat="46.4698594"><ele>855</ele><time>2019-09-10T16:53:30.000Z</time></trkpt><trkpt lon="15.5141787" lat="46.4698032"><ele>855</ele><time>2019-09-10T16:53:31.000Z</time></trkpt><trkpt lon="15.5141787" lat="46.4698032"><ele>855</ele><time>2019-09-10T16:53:32.000Z</time></trkpt><trkpt lon="15.5144102" lat="46.4697772"><ele>855</ele><time>2019-09-10T16:53:33.000Z</time></trkpt><trkpt lon="15.5145456" lat="46.4697761"><ele>854</ele><time>2019-09-10T16:53:34.000Z</time></trkpt><trkpt lon="15.5146685" lat="46.4697688"><ele>853</ele><time>2019-09-10T16:53:35.000Z</time></trkpt><trkpt lon="15.5146685" lat="46.4697688"><ele>853</ele><time>2019-09-10T16:53:36.000Z</time></trkpt><trkpt lon="15.5149128" lat="46.4697208"><ele>853</ele><time>2019-09-10T16:53:37.000Z</time></trkpt><trkpt lon="15.5150495" lat="46.4696962"><ele>852</ele><time>2019-09-10T16:53:38.000Z</time></trkpt><trkpt lon="15.5151877" lat="46.4696679"><ele>851</ele><time>2019-09-10T16:53:39.000Z</time></trkpt><trkpt lon="15.5151877" lat="46.4696679"><ele>851</ele><time>2019-09-10T16:53:40.000Z</time></trkpt><trkpt lon="15.5154675" lat="46.4696027"><ele>850</ele><time>2019-09-10T16:53:41.000Z</time></trkpt><trkpt lon="15.5154675" lat="46.4696027"><ele>850</ele><time>2019-09-10T16:53:42.000Z</time></trkpt><trkpt lon="15.5157376" lat="46.4695093"><ele>849</ele><time>2019-09-10T16:53:43.000Z</time></trkpt><trkpt lon="15.5157376" lat="46.4695093"><ele>849</ele><time>2019-09-10T16:53:44.000Z</time></trkpt><trkpt lon="15.5160196" lat="46.4694141"><ele>849</ele><time>2019-09-10T16:53:45.000Z</time></trkpt><trkpt lon="15.5161852" lat="46.4694038"><ele>848</ele><time>2019-09-10T16:53:46.000Z</time></trkpt><trkpt lon="15.5163459" lat="46.4694215"><ele>847</ele><time>2019-09-10T16:53:47.000Z</time></trkpt><trkpt lon="15.5163459" lat="46.4694215"><ele>847</ele><time>2019-09-10T16:53:48.000Z</time></trkpt><trkpt lon="15.5166688" lat="46.4694774"><ele>845</ele><time>2019-09-10T16:53:49.000Z</time></trkpt><trkpt lon="15.5168334" lat="46.4695039"><ele>845</ele><time>2019-09-10T16:53:50.000Z</time></trkpt><trkpt lon="15.5170063" lat="46.469519"><ele>844</ele><time>2019-09-10T16:53:51.000Z</time></trkpt><trkpt lon="15.5170063" lat="46.469519"><ele>844</ele><time>2019-09-10T16:53:52.000Z</time></trkpt><trkpt lon="15.5173545" lat="46.4695572"><ele>843</ele><time>2019-09-10T16:53:53.000Z</time></trkpt><trkpt lon="15.5175206" lat="46.4696044"><ele>842</ele><time>2019-09-10T16:53:54.000Z</time></trkpt><trkpt lon="15.5175206" lat="46.4696044"><ele>842</ele><time>2019-09-10T16:53:55.000Z</time></trkpt><trkpt lon="15.5178829" lat="46.469657"><ele>840</ele><time>2019-09-10T16:53:56.000Z</time></trkpt><trkpt lon="15.5180561" lat="46.4696598"><ele>838</ele><time>2019-09-10T16:53:57.000Z</time></trkpt><trkpt lon="15.5180561" lat="46.4696598"><ele>838</ele><time>2019-09-10T16:53:58.000Z</time></trkpt><trkpt lon="15.5183827" lat="46.4696358"><ele>836</ele><time>2019-09-10T16:53:59.000Z</time></trkpt><trkpt lon="15.5183827" lat="46.4696358"><ele>836</ele><time>2019-09-10T16:54:00.000Z</time></trkpt><trkpt lon="15.5186836" lat="46.4695546"><ele>835</ele><time>2019-09-10T16:54:01.000Z</time></trkpt><trkpt lon="15.5186836" lat="46.4695546"><ele>835</ele><time>2019-09-10T16:54:02.000Z</time></trkpt><trkpt lon="15.5189768" lat="46.4694979"><ele>834</ele><time>2019-09-10T16:54:03.000Z</time></trkpt><trkpt lon="15.5189768" lat="46.4694979"><ele>834</ele><time>2019-09-10T16:54:04.000Z</time></trkpt><trkpt lon="15.519305" lat="46.4696054"><ele>831</ele><time>2019-09-10T16:54:05.000Z</time></trkpt><trkpt lon="15.5194653" lat="46.4696612"><ele>829</ele><time>2019-09-10T16:54:06.000Z</time></trkpt><trkpt lon="15.5194653" lat="46.4696612"><ele>829</ele><time>2019-09-10T16:54:07.000Z</time></trkpt><trkpt lon="15.5197976" lat="46.4697638"><ele>826</ele><time>2019-09-10T16:54:08.000Z</time></trkpt><trkpt lon="15.519957" lat="46.469825"><ele>825</ele><time>2019-09-10T16:54:09.000Z</time></trkpt><trkpt lon="15.519957" lat="46.469825"><ele>825</ele><time>2019-09-10T16:54:10.000Z</time></trkpt><trkpt lon="15.5202951" lat="46.4699373"><ele>822</ele><time>2019-09-10T16:54:11.000Z</time></trkpt><trkpt lon="15.5202951" lat="46.4699373"><ele>822</ele><time>2019-09-10T16:54:12.000Z</time></trkpt><trkpt lon="15.5206691" lat="46.4700099"><ele>819</ele><time>2019-09-10T16:54:13.000Z</time></trkpt><trkpt lon="15.5206691" lat="46.4700099"><ele>819</ele><time>2019-09-10T16:54:14.000Z</time></trkpt><trkpt lon="15.5210594" lat="46.4700566"><ele>817</ele><time>2019-09-10T16:54:15.000Z</time></trkpt><trkpt lon="15.5210594" lat="46.4700566"><ele>817</ele><time>2019-09-10T16:54:16.000Z</time></trkpt><trkpt lon="15.5214556" lat="46.4700912"><ele>814</ele><time>2019-09-10T16:54:17.000Z</time></trkpt><trkpt lon="15.5216567" lat="46.4700917"><ele>813</ele><time>2019-09-10T16:54:18.000Z</time></trkpt><trkpt lon="15.5216567" lat="46.4700917"><ele>813</ele><time>2019-09-10T16:54:19.000Z</time></trkpt><trkpt lon="15.5220578" lat="46.4700602"><ele>810</ele><time>2019-09-10T16:54:20.000Z</time></trkpt><trkpt lon="15.52226" lat="46.4700413"><ele>809</ele><time>2019-09-10T16:54:21.000Z</time></trkpt><trkpt lon="15.5224608" lat="46.4700245"><ele>807</ele><time>2019-09-10T16:54:22.000Z</time></trkpt><trkpt lon="15.5224608" lat="46.4700245"><ele>807</ele><time>2019-09-10T16:54:23.000Z</time></trkpt><trkpt lon="15.5228266" lat="46.4699917"><ele>805</ele><time>2019-09-10T16:54:24.000Z</time></trkpt><trkpt lon="15.5229952" lat="46.4699507"><ele>803</ele><time>2019-09-10T16:54:25.000Z</time></trkpt><trkpt lon="15.5229952" lat="46.4699507"><ele>803</ele><time>2019-09-10T16:54:26.000Z</time></trkpt><trkpt lon="15.5232763" lat="46.4697978"><ele>801</ele><time>2019-09-10T16:54:27.000Z</time></trkpt><trkpt lon="15.5232763" lat="46.4697978"><ele>801</ele><time>2019-09-10T16:54:28.000Z</time></trkpt><trkpt lon="15.5235168" lat="46.4696185"><ele>801</ele><time>2019-09-10T16:54:29.000Z</time></trkpt><trkpt lon="15.5235168" lat="46.4696185"><ele>801</ele><time>2019-09-10T16:54:30.000Z</time></trkpt><trkpt lon="15.5238488" lat="46.4695392"><ele>798</ele><time>2019-09-10T16:54:31.000Z</time></trkpt><trkpt lon="15.5240158" lat="46.4694989"><ele>797</ele><time>2019-09-10T16:54:32.000Z</time></trkpt><trkpt lon="15.5240158" lat="46.4694989"><ele>797</ele><time>2019-09-10T16:54:33.000Z</time></trkpt><trkpt lon="15.5243268" lat="46.4693823"><ele>796</ele><time>2019-09-10T16:54:34.000Z</time></trkpt><trkpt lon="15.5243268" lat="46.4693823"><ele>796</ele><time>2019-09-10T16:54:35.000Z</time></trkpt><trkpt lon="15.5245638" lat="46.4691873"><ele>793</ele><time>2019-09-10T16:54:36.000Z</time></trkpt><trkpt lon="15.5246692" lat="46.4690801"><ele>792</ele><time>2019-09-10T16:54:37.000Z</time></trkpt><trkpt lon="15.5246692" lat="46.4690801"><ele>792</ele><time>2019-09-10T16:54:38.000Z</time></trkpt><trkpt lon="15.5248661" lat="46.468863"><ele>791</ele><time>2019-09-10T16:54:39.000Z</time></trkpt><trkpt lon="15.5248661" lat="46.468863"><ele>791</ele><time>2019-09-10T16:54:40.000Z</time></trkpt><trkpt lon="15.5251012" lat="46.4686584"><ele>789</ele><time>2019-09-10T16:54:41.000Z</time></trkpt><trkpt lon="15.5252392" lat="46.4685635"><ele>787</ele><time>2019-09-10T16:54:42.000Z</time></trkpt><trkpt lon="15.5252392" lat="46.4685635"><ele>787</ele><time>2019-09-10T16:54:43.000Z</time></trkpt><trkpt lon="15.525481" lat="46.4683362"><ele>786</ele><time>2019-09-10T16:54:44.000Z</time></trkpt><trkpt lon="15.525481" lat="46.4683362"><ele>786</ele><time>2019-09-10T16:54:45.000Z</time></trkpt><trkpt lon="15.5257102" lat="46.4681316"><ele>785</ele><time>2019-09-10T16:54:46.000Z</time></trkpt><trkpt lon="15.5258195" lat="46.4680277"><ele>783</ele><time>2019-09-10T16:54:47.000Z</time></trkpt><trkpt lon="15.5258195" lat="46.4680277"><ele>783</ele><time>2019-09-10T16:54:48.000Z</time></trkpt><trkpt lon="15.5260507" lat="46.4678089"><ele>781</ele><time>2019-09-10T16:54:49.000Z</time></trkpt><trkpt lon="15.5260507" lat="46.4678089"><ele>781</ele><time>2019-09-10T16:54:50.000Z</time></trkpt><trkpt lon="15.5263119" lat="46.4675843"><ele>779</ele><time>2019-09-10T16:54:51.000Z</time></trkpt><trkpt lon="15.526435" lat="46.4674816"><ele>778</ele><time>2019-09-10T16:54:52.000Z</time></trkpt><trkpt lon="15.5265478" lat="46.467391"><ele>776</ele><time>2019-09-10T16:54:53.000Z</time></trkpt><trkpt lon="15.5265478" lat="46.467391"><ele>776</ele><time>2019-09-10T16:54:54.000Z</time></trkpt><trkpt lon="15.5266867" lat="46.4671253"><ele>778</ele><time>2019-09-10T16:54:55.000Z</time></trkpt><trkpt lon="15.5266961" lat="46.4669519"><ele>777</ele><time>2019-09-10T16:54:56.000Z</time></trkpt><trkpt lon="15.5266961" lat="46.4669519"><ele>777</ele><time>2019-09-10T16:54:57.000Z</time></trkpt><trkpt lon="15.5266897" lat="46.4666416"><ele>774</ele><time>2019-09-10T16:54:58.000Z</time></trkpt><trkpt lon="15.5266897" lat="46.4666416"><ele>774</ele><time>2019-09-10T16:54:59.000Z</time></trkpt><trkpt lon="15.5267606" lat="46.4663701"><ele>771</ele><time>2019-09-10T16:55:00.000Z</time></trkpt><trkpt lon="15.5268301" lat="46.4662543"><ele>770</ele><time>2019-09-10T16:55:01.000Z</time></trkpt><trkpt lon="15.526983" lat="46.4661572"><ele>769</ele><time>2019-09-10T16:55:02.000Z</time></trkpt><trkpt lon="15.526983" lat="46.4661572"><ele>769</ele><time>2019-09-10T16:55:03.000Z</time></trkpt><trkpt lon="15.5272793" lat="46.4659777"><ele>767</ele><time>2019-09-10T16:55:04.000Z</time></trkpt><trkpt lon="15.5274033" lat="46.4658975"><ele>766</ele><time>2019-09-10T16:55:05.000Z</time></trkpt><trkpt lon="15.5274033" lat="46.4658975"><ele>766</ele><time>2019-09-10T16:55:06.000Z</time></trkpt><trkpt lon="15.5276183" lat="46.4657098"><ele>765</ele><time>2019-09-10T16:55:07.000Z</time></trkpt><trkpt lon="15.527695" lat="46.4656026"><ele>764</ele><time>2019-09-10T16:55:08.000Z</time></trkpt><trkpt lon="15.5277545" lat="46.4654857"><ele>763</ele><time>2019-09-10T16:55:09.000Z</time></trkpt><trkpt lon="15.5277666" lat="46.465368"><ele>763</ele><time>2019-09-10T16:55:10.000Z</time></trkpt><trkpt lon="15.5277669" lat="46.4652606"><ele>763</ele><time>2019-09-10T16:55:11.000Z</time></trkpt><trkpt lon="15.5277669" lat="46.4652606"><ele>763</ele><time>2019-09-10T16:55:12.000Z</time></trkpt><trkpt lon="15.5277707" lat="46.4650661"><ele>762</ele><time>2019-09-10T16:55:13.000Z</time></trkpt><trkpt lon="15.5278054" lat="46.4649802"><ele>761</ele><time>2019-09-10T16:55:14.000Z</time></trkpt><trkpt lon="15.5278054" lat="46.4649802"><ele>761</ele><time>2019-09-10T16:55:15.000Z</time></trkpt><trkpt lon="15.5278828" lat="46.4648404"><ele>761</ele><time>2019-09-10T16:55:16.000Z</time></trkpt><trkpt lon="15.5279223" lat="46.4647754"><ele>761</ele><time>2019-09-10T16:55:17.000Z</time></trkpt><trkpt lon="15.5279706" lat="46.4647103"><ele>760</ele><time>2019-09-10T16:55:18.000Z</time></trkpt><trkpt lon="15.5279706" lat="46.4647103"><ele>760</ele><time>2019-09-10T16:55:19.000Z</time></trkpt><trkpt lon="15.5280446" lat="46.4645706"><ele>760</ele><time>2019-09-10T16:55:20.000Z</time></trkpt><trkpt lon="15.5280847" lat="46.4645034"><ele>760</ele><time>2019-09-10T16:55:21.000Z</time></trkpt><trkpt lon="15.5280847" lat="46.4645034"><ele>760</ele><time>2019-09-10T16:55:22.000Z</time></trkpt><trkpt lon="15.5281567" lat="46.4643837"><ele>761</ele><time>2019-09-10T16:55:23.000Z</time></trkpt><trkpt lon="15.5281567" lat="46.4643837"><ele>761</ele><time>2019-09-10T16:55:24.000Z</time></trkpt><trkpt lon="15.52822" lat="46.4642825"><ele>761</ele><time>2019-09-10T16:55:25.000Z</time></trkpt><trkpt lon="15.52822" lat="46.4642825"><ele>761</ele><time>2019-09-10T16:55:26.000Z</time></trkpt><trkpt lon="15.528273" lat="46.4641771"><ele>758</ele><time>2019-09-10T16:55:27.000Z</time></trkpt><trkpt lon="15.528273" lat="46.4641771"><ele>758</ele><time>2019-09-10T16:55:28.000Z</time></trkpt><trkpt lon="15.5283079" lat="46.4640894"><ele>759</ele><time>2019-09-10T16:55:29.000Z</time></trkpt><trkpt lon="15.5283079" lat="46.4640894"><ele>759</ele><time>2019-09-10T16:55:30.000Z</time></trkpt><trkpt lon="15.5283166" lat="46.4640095"><ele>759</ele><time>2019-09-10T16:55:31.000Z</time></trkpt><trkpt lon="15.5283166" lat="46.4640095"><ele>759</ele><time>2019-09-10T16:55:32.000Z</time></trkpt><trkpt lon="15.5283147" lat="46.463978"><ele>759</ele><time>2019-09-10T16:55:33.000Z</time></trkpt><trkpt lon="15.5283147" lat="46.463978"><ele>759</ele><time>2019-09-10T16:55:34.000Z</time></trkpt><trkpt lon="15.5283053" lat="46.4639427"><ele>759</ele><time>2019-09-10T16:55:35.000Z</time></trkpt><trkpt lon="15.5283053" lat="46.4639427"><ele>759</ele><time>2019-09-10T16:55:36.000Z</time></trkpt><trkpt lon="15.5282865" lat="46.4639069"><ele>759</ele><time>2019-09-10T16:55:37.000Z</time></trkpt><trkpt lon="15.5282865" lat="46.4639069"><ele>759</ele><time>2019-09-10T16:55:38.000Z</time></trkpt><trkpt lon="15.5282675" lat="46.4638585"><ele>759</ele><time>2019-09-10T16:55:39.000Z</time></trkpt><trkpt lon="15.5282675" lat="46.4638585"><ele>759</ele><time>2019-09-10T16:55:40.000Z</time></trkpt><trkpt lon="15.5282572" lat="46.463821"><ele>758</ele><time>2019-09-10T16:55:41.000Z</time></trkpt><trkpt lon="15.5282572" lat="46.463821"><ele>758</ele><time>2019-09-10T16:55:42.000Z</time></trkpt><trkpt lon="15.5282572" lat="46.463821"><ele>758</ele><time>2019-09-10T16:55:43.000Z</time></trkpt><trkpt lon="-999.0" lat="-999.0"><ele>0.0</ele><time>2019-09-10T16:55:44.000Z</time></trkpt><trkpt lon="-999.0" lat="-999.0"><ele>0.0</ele><time>2019-09-10T16:55:45.000Z</time></trkpt><trkpt lon="15.5283026" lat="46.4638315"><ele>759</ele><time>2019-09-10T16:55:46.000Z</time></trkpt><trkpt lon="15.5283026" lat="46.4638315"><ele>759</ele><time>2019-09-10T16:55:47.000Z</time></trkpt><trkpt lon="15.5283259" lat="46.4638877"><ele>759</ele><time>2019-09-10T16:55:48.000Z</time></trkpt><trkpt lon="15.5283329" lat="46.4639157"><ele>759</ele><time>2019-09-10T16:55:49.000Z</time></trkpt><trkpt lon="15.5283329" lat="46.4639157"><ele>759</ele><time>2019-09-10T16:55:50.000Z</time></trkpt><trkpt lon="15.5283391" lat="46.4639646"><ele>759</ele><time>2019-09-10T16:55:51.000Z</time></trkpt><trkpt lon="15.5283391" lat="46.4639646"><ele>759</ele><time>2019-09-10T16:55:52.000Z</time></trkpt><trkpt lon="15.5283413" lat="46.4640034"><ele>759</ele><time>2019-09-10T16:55:53.000Z</time></trkpt><trkpt lon="15.5283413" lat="46.4640034"><ele>759</ele><time>2019-09-10T16:55:54.000Z</time></trkpt><trkpt lon="15.5283447" lat="46.464033"><ele>759</ele><time>2019-09-10T16:55:55.000Z</time></trkpt><trkpt lon="15.5283447" lat="46.464033"><ele>759</ele><time>2019-09-10T16:55:56.000Z</time></trkpt><trkpt lon="15.5283447" lat="46.464033"><ele>759</ele><time>2019-09-10T16:55:57.000Z</time></trkpt><trkpt lon="15.5283447" lat="46.464033"><ele>759</ele><time>2019-09-10T16:55:58.000Z</time></trkpt><trkpt lon="-999.0" lat="-999.0"><ele>0.0</ele><time>2019-09-10T16:55:59.000Z</time></trkpt><trkpt lon="15.5283203" lat="46.4639585"><ele>759</ele><time>2019-09-10T16:56:00.000Z</time></trkpt><trkpt lon="15.5283195" lat="46.4639182"><ele>758</ele><time>2019-09-10T16:56:01.000Z</time></trkpt><trkpt lon="15.5283195" lat="46.4639182"><ele>758</ele><time>2019-09-10T16:56:02.000Z</time></trkpt><trkpt lon="15.5282876" lat="46.4638243"><ele>758</ele><time>2019-09-10T16:56:03.000Z</time></trkpt><trkpt lon="15.5282729" lat="46.463766"><ele>759</ele><time>2019-09-10T16:56:04.000Z</time></trkpt><trkpt lon="15.5282729" lat="46.463766"><ele>759</ele><time>2019-09-10T16:56:05.000Z</time></trkpt><trkpt lon="15.5282438" lat="46.4636333"><ele>758</ele><time>2019-09-10T16:56:06.000Z</time></trkpt><trkpt lon="15.5282158" lat="46.4635604"><ele>759</ele><time>2019-09-10T16:56:07.000Z</time></trkpt><trkpt lon="15.5281968" lat="46.4634867"><ele>758</ele><time>2019-09-10T16:56:08.000Z</time></trkpt><trkpt lon="15.5281506" lat="46.4634174"><ele>759</ele><time>2019-09-10T16:56:09.000Z</time></trkpt><trkpt lon="15.5281506" lat="46.4634174"><ele>759</ele><time>2019-09-10T16:56:10.000Z</time></trkpt><trkpt lon="15.5280592" lat="46.463288"><ele>759</ele><time>2019-09-10T16:56:11.000Z</time></trkpt><trkpt lon="15.528012" lat="46.4632244"><ele>759</ele><time>2019-09-10T16:56:12.000Z</time></trkpt><trkpt lon="15.5279709" lat="46.4631608"><ele>759</ele><time>2019-09-10T16:56:13.000Z</time></trkpt><trkpt lon="15.5279401" lat="46.4630968"><ele>759</ele><time>2019-09-10T16:56:14.000Z</time></trkpt><trkpt lon="15.5279401" lat="46.4630968"><ele>759</ele><time>2019-09-10T16:56:15.000Z</time></trkpt><trkpt lon="15.5279211" lat="46.4629655"><ele>760</ele><time>2019-09-10T16:56:16.000Z</time></trkpt><trkpt lon="15.5279349" lat="46.4628988"><ele>760</ele><time>2019-09-10T16:56:17.000Z</time></trkpt><trkpt lon="15.5279557" lat="46.4628341"><ele>760</ele><time>2019-09-10T16:56:18.000Z</time></trkpt><trkpt lon="15.5279557" lat="46.4628341"><ele>760</ele><time>2019-09-10T16:56:19.000Z</time></trkpt><trkpt lon="15.5280248" lat="46.4627121"><ele>760</ele><time>2019-09-10T16:56:20.000Z</time></trkpt><trkpt lon="15.5280634" lat="46.4626527"><ele>760</ele><time>2019-09-10T16:56:21.000Z</time></trkpt><trkpt lon="15.5280634" lat="46.4626527"><ele>760</ele><time>2019-09-10T16:56:22.000Z</time></trkpt><trkpt lon="15.5281301" lat="46.4625274"><ele>759</ele><time>2019-09-10T16:56:23.000Z</time></trkpt><trkpt lon="15.5281301" lat="46.4625274"><ele>759</ele><time>2019-09-10T16:56:24.000Z</time></trkpt><trkpt lon="15.5281623" lat="46.4623937"><ele>759</ele><time>2019-09-10T16:56:25.000Z</time></trkpt><trkpt lon="15.5281623" lat="46.4623937"><ele>759</ele><time>2019-09-10T16:56:26.000Z</time></trkpt><trkpt lon="15.5281541" lat="46.462267"><ele>758</ele><time>2019-09-10T16:56:27.000Z</time></trkpt><trkpt lon="15.5281362" lat="46.4622089"><ele>758</ele><time>2019-09-10T16:56:28.000Z</time></trkpt><trkpt lon="15.5281362" lat="46.4622089"><ele>758</ele><time>2019-09-10T16:56:29.000Z</time></trkpt><trkpt lon="15.5280911" lat="46.4620938"><ele>758</ele><time>2019-09-10T16:56:30.000Z</time></trkpt><trkpt lon="15.5280645" lat="46.4620327"><ele>757</ele><time>2019-09-10T16:56:31.000Z</time></trkpt><trkpt lon="15.5280645" lat="46.4620327"><ele>757</ele><time>2019-09-10T16:56:32.000Z</time></trkpt><trkpt lon="15.5280063" lat="46.4618993"><ele>756</ele><time>2019-09-10T16:56:33.000Z</time></trkpt><trkpt lon="15.5279808" lat="46.4618279"><ele>756</ele><time>2019-09-10T16:56:34.000Z</time></trkpt><trkpt lon="15.5279808" lat="46.4618279"><ele>756</ele><time>2019-09-10T16:56:35.000Z</time></trkpt><trkpt lon="15.5279493" lat="46.4616744"><ele>755</ele><time>2019-09-10T16:56:36.000Z</time></trkpt><trkpt lon="15.5279395" lat="46.4615965"><ele>755</ele><time>2019-09-10T16:56:37.000Z</time></trkpt><trkpt lon="15.5279313" lat="46.4615161"><ele>755</ele><time>2019-09-10T16:56:38.000Z</time></trkpt><trkpt lon="15.5279313" lat="46.4615161"><ele>755</ele><time>2019-09-10T16:56:39.000Z</time></trkpt><trkpt lon="15.5279301" lat="46.4613547"><ele>755</ele><time>2019-09-10T16:56:40.000Z</time></trkpt><trkpt lon="15.5279301" lat="46.4613547"><ele>755</ele><time>2019-09-10T16:56:41.000Z</time></trkpt><trkpt lon="15.527944" lat="46.461193"><ele>755</ele><time>2019-09-10T16:56:42.000Z</time></trkpt><trkpt lon="15.5279504" lat="46.4611116"><ele>755</ele><time>2019-09-10T16:56:43.000Z</time></trkpt><trkpt lon="15.5279524" lat="46.461031"><ele>755</ele><time>2019-09-10T16:56:44.000Z</time></trkpt><trkpt lon="15.5279524" lat="46.461031"><ele>755</ele><time>2019-09-10T16:56:45.000Z</time></trkpt><trkpt lon="15.5279695" lat="46.4608846"><ele>755</ele><time>2019-09-10T16:56:46.000Z</time></trkpt><trkpt lon="15.5280069" lat="46.4608145"><ele>754</ele><time>2019-09-10T16:56:47.000Z</time></trkpt><trkpt lon="15.528065" lat="46.4607523"><ele>756</ele><time>2019-09-10T16:56:48.000Z</time></trkpt><trkpt lon="15.5281409" lat="46.4607038"><ele>754</ele><time>2019-09-10T16:56:49.000Z</time></trkpt><trkpt lon="15.5282627" lat="46.4606796"><ele>753</ele><time>2019-09-10T16:56:50.000Z</time></trkpt><trkpt lon="15.5283823" lat="46.4606638"><ele>752</ele><time>2019-09-10T16:56:51.000Z</time></trkpt><trkpt lon="15.5283823" lat="46.4606638"><ele>752</ele><time>2019-09-10T16:56:52.000Z</time></trkpt><trkpt lon="15.5285837" lat="46.4606101"><ele>752</ele><time>2019-09-10T16:56:53.000Z</time></trkpt><trkpt lon="15.5286713" lat="46.4605763"><ele>752</ele><time>2019-09-10T16:56:54.000Z</time></trkpt><trkpt lon="15.5286713" lat="46.4605763"><ele>752</ele><time>2019-09-10T16:56:55.000Z</time></trkpt><trkpt lon="15.528819" lat="46.4604981"><ele>752</ele><time>2019-09-10T16:56:56.000Z</time></trkpt><trkpt lon="15.5288875" lat="46.4604586"><ele>752</ele><time>2019-09-10T16:56:57.000Z</time></trkpt><trkpt lon="15.5289537" lat="46.4604212"><ele>752</ele><time>2019-09-10T16:56:58.000Z</time></trkpt><trkpt lon="15.5289537" lat="46.4604212"><ele>752</ele><time>2019-09-10T16:56:59.000Z</time></trkpt><trkpt lon="15.5290705" lat="46.4603418"><ele>752</ele><time>2019-09-10T16:57:00.000Z</time></trkpt><trkpt lon="15.5290705" lat="46.4603418"><ele>752</ele><time>2019-09-10T16:57:01.000Z</time></trkpt><trkpt lon="15.5291066" lat="46.4602366"><ele>752</ele><time>2019-09-10T16:57:02.000Z</time></trkpt><trkpt lon="15.5291066" lat="46.4602366"><ele>752</ele><time>2019-09-10T16:57:03.000Z</time></trkpt><trkpt lon="15.5291098" lat="46.4601381"><ele>753</ele><time>2019-09-10T16:57:04.000Z</time></trkpt><trkpt lon="15.5291098" lat="46.4601381"><ele>753</ele><time>2019-09-10T16:57:05.000Z</time></trkpt><trkpt lon="15.5291313" lat="46.4600243"><ele>753</ele><time>2019-09-10T16:57:06.000Z</time></trkpt><trkpt lon="15.5291313" lat="46.4600243"><ele>753</ele><time>2019-09-10T16:57:07.000Z</time></trkpt><trkpt lon="15.5291815" lat="46.4599041"><ele>751</ele><time>2019-09-10T16:57:08.000Z</time></trkpt><trkpt lon="15.5292062" lat="46.4598491"><ele>752</ele><time>2019-09-10T16:57:09.000Z</time></trkpt><trkpt lon="15.5292437" lat="46.4597961"><ele>753</ele><time>2019-09-10T16:57:10.000Z</time></trkpt><trkpt lon="15.5292437" lat="46.4597961"><ele>753</ele><time>2019-09-10T16:57:11.000Z</time></trkpt><trkpt lon="15.5293799" lat="46.459699"><ele>751</ele><time>2019-09-10T16:57:12.000Z</time></trkpt><trkpt lon="15.5293799" lat="46.459699"><ele>751</ele><time>2019-09-10T16:57:13.000Z</time></trkpt><trkpt lon="15.5295389" lat="46.4596211"><ele>751</ele><time>2019-09-10T16:57:14.000Z</time></trkpt><trkpt lon="15.5295758" lat="46.459606"><ele>751</ele><time>2019-09-10T16:57:15.000Z</time></trkpt><trkpt lon="15.5295758" lat="46.459606"><ele>751</ele><time>2019-09-10T16:57:16.000Z</time></trkpt><trkpt lon="15.5296893" lat="46.4595288"><ele>750</ele><time>2019-09-10T16:57:17.000Z</time></trkpt><trkpt lon="15.5296893" lat="46.4595288"><ele>750</ele><time>2019-09-10T16:57:18.000Z</time></trkpt><trkpt lon="15.5297638" lat="46.4594364"><ele>752</ele><time>2019-09-10T16:57:19.000Z</time></trkpt><trkpt lon="15.529785" lat="46.4593834"><ele>752</ele><time>2019-09-10T16:57:20.000Z</time></trkpt><trkpt lon="15.529785" lat="46.4593834"><ele>752</ele><time>2019-09-10T16:57:21.000Z</time></trkpt><trkpt lon="15.5298201" lat="46.4592761"><ele>752</ele><time>2019-09-10T16:57:22.000Z</time></trkpt><trkpt lon="15.5298201" lat="46.4592761"><ele>752</ele><time>2019-09-10T16:57:23.000Z</time></trkpt><trkpt lon="15.5298317" lat="46.4591775"><ele>751</ele><time>2019-09-10T16:57:24.000Z</time></trkpt><trkpt lon="15.5298474" lat="46.4591307"><ele>751</ele><time>2019-09-10T16:57:25.000Z</time></trkpt><trkpt lon="15.5298474" lat="46.4591307"><ele>751</ele><time>2019-09-10T16:57:26.000Z</time></trkpt><trkpt lon="15.5298823" lat="46.4590235"><ele>750</ele><time>2019-09-10T16:57:27.000Z</time></trkpt><trkpt lon="15.5298977" lat="46.4589722"><ele>749</ele><time>2019-09-10T16:57:28.000Z</time></trkpt><trkpt lon="15.5298977" lat="46.4589722"><ele>749</ele><time>2019-09-10T16:57:29.000Z</time></trkpt><trkpt lon="15.5299219" lat="46.4588606"><ele>750</ele><time>2019-09-10T16:57:30.000Z</time></trkpt><trkpt lon="15.5299319" lat="46.458801"><ele>749</ele><time>2019-09-10T16:57:31.000Z</time></trkpt><trkpt lon="15.5299319" lat="46.458801"><ele>749</ele><time>2019-09-10T16:57:32.000Z</time></trkpt><trkpt lon="15.5299512" lat="46.4586756"><ele>750</ele><time>2019-09-10T16:57:33.000Z</time></trkpt><trkpt lon="15.5299612" lat="46.4586115"><ele>750</ele><time>2019-09-10T16:57:34.000Z</time></trkpt><trkpt lon="15.5299612" lat="46.4585467"><ele>749</ele><time>2019-09-10T16:57:35.000Z</time></trkpt><trkpt lon="15.5299612" lat="46.4585467"><ele>749</ele><time>2019-09-10T16:57:36.000Z</time></trkpt><trkpt lon="15.5299876" lat="46.4584244"><ele>748</ele><time>2019-09-10T16:57:37.000Z</time></trkpt><trkpt lon="15.5300147" lat="46.4583642"><ele>748</ele><time>2019-09-10T16:57:38.000Z</time></trkpt><trkpt lon="15.5300147" lat="46.4583642"><ele>748</ele><time>2019-09-10T16:57:39.000Z</time></trkpt><trkpt lon="15.5300877" lat="46.4582287"><ele>748</ele><time>2019-09-10T16:57:40.000Z</time></trkpt><trkpt lon="15.5300877" lat="46.4582287"><ele>748</ele><time>2019-09-10T16:57:41.000Z</time></trkpt><trkpt lon="15.5301561" lat="46.4580938"><ele>748</ele><time>2019-09-10T16:57:42.000Z</time></trkpt><trkpt lon="15.5301561" lat="46.4580938"><ele>748</ele><time>2019-09-10T16:57:43.000Z</time></trkpt><trkpt lon="15.5302291" lat="46.4579661"><ele>747</ele><time>2019-09-10T16:57:44.000Z</time></trkpt><trkpt lon="15.5302645" lat="46.457902"><ele>747</ele><time>2019-09-10T16:57:45.000Z</time></trkpt><trkpt lon="15.5302645" lat="46.457902"><ele>747</ele><time>2019-09-10T16:57:46.000Z</time></trkpt><trkpt lon="15.5303359" lat="46.4577841"><ele>747</ele><time>2019-09-10T16:57:47.000Z</time></trkpt><trkpt lon="15.5303789" lat="46.4577296"><ele>747</ele><time>2019-09-10T16:57:48.000Z</time></trkpt><trkpt lon="15.5304303" lat="46.4576792"><ele>747</ele><time>2019-09-10T16:57:49.000Z</time></trkpt><trkpt lon="15.5304303" lat="46.4576792"><ele>747</ele><time>2019-09-10T16:57:50.000Z</time></trkpt><trkpt lon="15.5305389" lat="46.457587"><ele>748</ele><time>2019-09-10T16:57:51.000Z</time></trkpt><trkpt lon="15.5305389" lat="46.457587"><ele>748</ele><time>2019-09-10T16:57:52.000Z</time></trkpt><trkpt lon="15.5306689" lat="46.457512"><ele>748</ele><time>2019-09-10T16:57:53.000Z</time></trkpt><trkpt lon="15.5306689" lat="46.457512"><ele>748</ele><time>2019-09-10T16:57:54.000Z</time></trkpt><trkpt lon="15.5308097" lat="46.4574393"><ele>748</ele><time>2019-09-10T16:57:55.000Z</time></trkpt><trkpt lon="15.5308781" lat="46.4574002"><ele>749</ele><time>2019-09-10T16:57:56.000Z</time></trkpt><trkpt lon="15.5308781" lat="46.4574002"><ele>749</ele><time>2019-09-10T16:57:57.000Z</time></trkpt><trkpt lon="15.531013" lat="46.4573181"><ele>748</ele><time>2019-09-10T16:57:58.000Z</time></trkpt><trkpt lon="15.5310738" lat="46.457275"><ele>749</ele><time>2019-09-10T16:57:59.000Z</time></trkpt><trkpt lon="15.5310738" lat="46.457275"><ele>749</ele><time>2019-09-10T16:58:00.000Z</time></trkpt><trkpt lon="15.5311886" lat="46.4571806"><ele>749</ele><time>2019-09-10T16:58:01.000Z</time></trkpt><trkpt lon="15.5312434" lat="46.4571365"><ele>748</ele><time>2019-09-10T16:58:02.000Z</time></trkpt><trkpt lon="15.5312434" lat="46.4571365"><ele>748</ele><time>2019-09-10T16:58:03.000Z</time></trkpt><trkpt lon="15.5313428" lat="46.4570529"><ele>750</ele><time>2019-09-10T16:58:04.000Z</time></trkpt><trkpt lon="15.5313428" lat="46.4570529"><ele>750</ele><time>2019-09-10T16:58:05.000Z</time></trkpt><trkpt lon="15.5314804" lat="46.4569855"><ele>749</ele><time>2019-09-10T16:58:06.000Z</time></trkpt><trkpt lon="15.5315687" lat="46.4569707"><ele>749</ele><time>2019-09-10T16:58:07.000Z</time></trkpt><trkpt lon="15.5315687" lat="46.4569707"><ele>749</ele><time>2019-09-10T16:58:08.000Z</time></trkpt><trkpt lon="15.5317212" lat="46.4569339"><ele>749</ele><time>2019-09-10T16:58:09.000Z</time></trkpt><trkpt lon="15.5317929" lat="46.4568969"><ele>748</ele><time>2019-09-10T16:58:10.000Z</time></trkpt><trkpt lon="15.5317929" lat="46.4568969"><ele>748</ele><time>2019-09-10T16:58:11.000Z</time></trkpt><trkpt lon="15.5319189" lat="46.4568047"><ele>748</ele><time>2019-09-10T16:58:12.000Z</time></trkpt><trkpt lon="15.5319189" lat="46.4568047"><ele>748</ele><time>2019-09-10T16:58:13.000Z</time></trkpt><trkpt lon="15.5320225" lat="46.456705"><ele>748</ele><time>2019-09-10T16:58:14.000Z</time></trkpt><trkpt lon="15.5320577" lat="46.4566527"><ele>748</ele><time>2019-09-10T16:58:15.000Z</time></trkpt><trkpt lon="15.5320577" lat="46.4566527"><ele>748</ele><time>2019-09-10T16:58:16.000Z</time></trkpt><trkpt lon="15.5321298" lat="46.4565452"><ele>748</ele><time>2019-09-10T16:58:17.000Z</time></trkpt><trkpt lon="15.532171" lat="46.456496"><ele>748</ele><time>2019-09-10T16:58:18.000Z</time></trkpt><trkpt lon="15.5322187" lat="46.4564505"><ele>748</ele><time>2019-09-10T16:58:19.000Z</time></trkpt><trkpt lon="15.5322187" lat="46.4564505"><ele>748</ele><time>2019-09-10T16:58:20.000Z</time></trkpt><trkpt lon="15.5323356" lat="46.4563703"><ele>748</ele><time>2019-09-10T16:58:21.000Z</time></trkpt><trkpt lon="15.5323356" lat="46.4563703"><ele>748</ele><time>2019-09-10T16:58:22.000Z</time></trkpt><trkpt lon="15.53246" lat="46.4562977"><ele>748</ele><time>2019-09-10T16:58:23.000Z</time></trkpt><trkpt lon="15.5325171" lat="46.4562581"><ele>748</ele><time>2019-09-10T16:58:24.000Z</time></trkpt><trkpt lon="15.5325171" lat="46.4562581"><ele>748</ele><time>2019-09-10T16:58:25.000Z</time></trkpt><trkpt lon="15.5326318" lat="46.4561832"><ele>748</ele><time>2019-09-10T16:58:26.000Z</time></trkpt><trkpt lon="15.5326318" lat="46.4561832"><ele>748</ele><time>2019-09-10T16:58:27.000Z</time></trkpt><trkpt lon="15.5327314" lat="46.4561072"><ele>748</ele><time>2019-09-10T16:58:28.000Z</time></trkpt><trkpt lon="15.5327314" lat="46.4561072"><ele>748</ele><time>2019-09-10T16:58:29.000Z</time></trkpt><trkpt lon="15.5328069" lat="46.4560375"><ele>748</ele><time>2019-09-10T16:58:30.000Z</time></trkpt><trkpt lon="15.5328069" lat="46.4560375"><ele>748</ele><time>2019-09-10T16:58:31.000Z</time></trkpt><trkpt lon="15.5328691" lat="46.4559683"><ele>749</ele><time>2019-09-10T16:58:32.000Z</time></trkpt><trkpt lon="15.5328691" lat="46.4559683"><ele>749</ele><time>2019-09-10T16:58:33.000Z</time></trkpt><trkpt lon="15.5329007" lat="46.455913"><ele>749</ele><time>2019-09-10T16:58:34.000Z</time></trkpt><trkpt lon="15.5329007" lat="46.455913"><ele>749</ele><time>2019-09-10T16:58:35.000Z</time></trkpt><trkpt lon="15.532959" lat="46.4558344"><ele>748</ele><time>2019-09-10T16:58:36.000Z</time></trkpt><trkpt lon="15.5329881" lat="46.4557973"><ele>748</ele><time>2019-09-10T16:58:37.000Z</time></trkpt><trkpt lon="15.5329881" lat="46.4557973"><ele>748</ele><time>2019-09-10T16:58:38.000Z</time></trkpt><trkpt lon="15.5330397" lat="46.4557201"><ele>749</ele><time>2019-09-10T16:58:39.000Z</time></trkpt><trkpt lon="15.5330583" lat="46.4556745"><ele>749</ele><time>2019-09-10T16:58:40.000Z</time></trkpt><trkpt lon="15.5330583" lat="46.4556745"><ele>749</ele><time>2019-09-10T16:58:41.000Z</time></trkpt><trkpt lon="15.5330957" lat="46.4555763"><ele>751</ele><time>2019-09-10T16:58:42.000Z</time></trkpt><trkpt lon="15.5331173" lat="46.4555277"><ele>750</ele><time>2019-09-10T16:58:43.000Z</time></trkpt><trkpt lon="15.5331662" lat="46.4554865"><ele>749</ele><time>2019-09-10T16:58:44.000Z</time></trkpt><trkpt lon="15.5331662" lat="46.4554865"><ele>749</ele><time>2019-09-10T16:58:45.000Z</time></trkpt><trkpt lon="15.5332763" lat="46.4554282"><ele>748</ele><time>2019-09-10T16:58:46.000Z</time></trkpt><trkpt lon="15.5332763" lat="46.4554282"><ele>748</ele><time>2019-09-10T16:58:47.000Z</time></trkpt><trkpt lon="15.5334292" lat="46.4553968"><ele>747</ele><time>2019-09-10T16:58:48.000Z</time></trkpt><trkpt lon="15.5334292" lat="46.4553968"><ele>747</ele><time>2019-09-10T16:58:49.000Z</time></trkpt><trkpt lon="15.5335599" lat="46.4553687"><ele>746</ele><time>2019-09-10T16:58:50.000Z</time></trkpt><trkpt lon="15.5336237" lat="46.4553555"><ele>746</ele><time>2019-09-10T16:58:51.000Z</time></trkpt><trkpt lon="15.5336237" lat="46.4553555"><ele>746</ele><time>2019-09-10T16:58:52.000Z</time></trkpt><trkpt lon="15.5337613" lat="46.4553342"><ele>746</ele><time>2019-09-10T16:58:53.000Z</time></trkpt><trkpt lon="15.5337613" lat="46.4553342"><ele>746</ele><time>2019-09-10T16:58:54.000Z</time></trkpt><trkpt lon="15.5338853" lat="46.4552892"><ele>747</ele><time>2019-09-10T16:58:55.000Z</time></trkpt><trkpt lon="15.5338853" lat="46.4552892"><ele>747</ele><time>2019-09-10T16:58:56.000Z</time></trkpt><trkpt lon="15.5339791" lat="46.4552226"><ele>749</ele><time>2019-09-10T16:58:57.000Z</time></trkpt><trkpt lon="15.5340159" lat="46.4551874"><ele>749</ele><time>2019-09-10T16:58:58.000Z</time></trkpt><trkpt lon="15.5340159" lat="46.4551874"><ele>749</ele><time>2019-09-10T16:58:59.000Z</time></trkpt><trkpt lon="15.5341261" lat="46.4551264"><ele>750</ele><time>2019-09-10T16:59:00.000Z</time></trkpt><trkpt lon="15.5341776" lat="46.4550949"><ele>750</ele><time>2019-09-10T16:59:01.000Z</time></trkpt><trkpt lon="15.5341776" lat="46.4550949"><ele>750</ele><time>2019-09-10T16:59:02.000Z</time></trkpt><trkpt lon="15.5343024" lat="46.455025"><ele>751</ele><time>2019-09-10T16:59:03.000Z</time></trkpt><trkpt lon="15.534363" lat="46.4549915"><ele>751</ele><time>2019-09-10T16:59:04.000Z</time></trkpt><trkpt lon="15.534363" lat="46.4549915"><ele>751</ele><time>2019-09-10T16:59:05.000Z</time></trkpt><trkpt lon="15.5344525" lat="46.4549183"><ele>752</ele><time>2019-09-10T16:59:06.000Z</time></trkpt><trkpt lon="15.534482" lat="46.4548799"><ele>753</ele><time>2019-09-10T16:59:07.000Z</time></trkpt><trkpt lon="15.5345161" lat="46.4548411"><ele>752</ele><time>2019-09-10T16:59:08.000Z</time></trkpt><trkpt lon="15.5345161" lat="46.4548411"><ele>752</ele><time>2019-09-10T16:59:09.000Z</time></trkpt><trkpt lon="15.5345968" lat="46.4547699"><ele>753</ele><time>2019-09-10T16:59:10.000Z</time></trkpt><trkpt lon="15.5346219" lat="46.4547246"><ele>754</ele><time>2019-09-10T16:59:11.000Z</time></trkpt><trkpt lon="15.5346219" lat="46.4547246"><ele>754</ele><time>2019-09-10T16:59:12.000Z</time></trkpt><trkpt lon="15.534655" lat="46.4546627"><ele>755</ele><time>2019-09-10T16:59:13.000Z</time></trkpt><trkpt lon="15.534655" lat="46.4546627"><ele>755</ele><time>2019-09-10T16:59:14.000Z</time></trkpt><trkpt lon="15.5347319" lat="46.4545765"><ele>755</ele><time>2019-09-10T16:59:15.000Z</time></trkpt><trkpt lon="15.5347319" lat="46.4545765"><ele>755</ele><time>2019-09-10T16:59:16.000Z</time></trkpt><trkpt lon="15.5347937" lat="46.4544934"><ele>755</ele><time>2019-09-10T16:59:17.000Z</time></trkpt><trkpt lon="15.5348334" lat="46.4544536"><ele>755</ele><time>2019-09-10T16:59:18.000Z</time></trkpt><trkpt lon="15.5348334" lat="46.4544536"><ele>755</ele><time>2019-09-10T16:59:19.000Z</time></trkpt><trkpt lon="15.5349144" lat="46.4543705"><ele>754</ele><time>2019-09-10T16:59:20.000Z</time></trkpt><trkpt lon="15.5349144" lat="46.4543705"><ele>754</ele><time>2019-09-10T16:59:21.000Z</time></trkpt><trkpt lon="15.5350153" lat="46.4543014"><ele>753</ele><time>2019-09-10T16:59:22.000Z</time></trkpt><trkpt lon="15.5350515" lat="46.4542613"><ele>755</ele><time>2019-09-10T16:59:23.000Z</time></trkpt><trkpt lon="15.5350515" lat="46.4542613"><ele>755</ele><time>2019-09-10T16:59:24.000Z</time></trkpt><trkpt lon="15.5351389" lat="46.4541946"><ele>754</ele><time>2019-09-10T16:59:25.000Z</time></trkpt><trkpt lon="15.5351389" lat="46.4541946"><ele>754</ele><time>2019-09-10T16:59:26.000Z</time></trkpt><trkpt lon="15.5352418" lat="46.4541357"><ele>753</ele><time>2019-09-10T16:59:27.000Z</time></trkpt><trkpt lon="15.5352418" lat="46.4541357"><ele>753</ele><time>2019-09-10T16:59:28.000Z</time></trkpt><trkpt lon="15.5353329" lat="46.4540715"><ele>751</ele><time>2019-09-10T16:59:29.000Z</time></trkpt><trkpt lon="15.5353329" lat="46.4540715"><ele>751</ele><time>2019-09-10T16:59:30.000Z</time></trkpt><trkpt lon="15.5354091" lat="46.4540016"><ele>750</ele><time>2019-09-10T16:59:31.000Z</time></trkpt><trkpt lon="15.5354475" lat="46.4539671"><ele>750</ele><time>2019-09-10T16:59:32.000Z</time></trkpt><trkpt lon="15.5354475" lat="46.4539671"><ele>750</ele><time>2019-09-10T16:59:33.000Z</time></trkpt><trkpt lon="15.5354836" lat="46.4539347"><ele>751</ele><time>2019-09-10T16:59:34.000Z</time></trkpt><trkpt lon="15.5354836" lat="46.4539347"><ele>751</ele><time>2019-09-10T16:59:35.000Z</time></trkpt><trkpt lon="15.5355717" lat="46.4538551"><ele>751</ele><time>2019-09-10T16:59:36.000Z</time></trkpt><trkpt lon="15.5355717" lat="46.4538551"><ele>751</ele><time>2019-09-10T16:59:37.000Z</time></trkpt><trkpt lon="15.5356112" lat="46.4538185"><ele>752</ele><time>2019-09-10T16:59:38.000Z</time></trkpt><trkpt lon="15.5356112" lat="46.4538185"><ele>752</ele><time>2019-09-10T16:59:39.000Z</time></trkpt><trkpt lon="15.5356718" lat="46.4537842"><ele>751</ele><time>2019-09-10T16:59:40.000Z</time></trkpt><trkpt lon="15.5356718" lat="46.4537842"><ele>751</ele><time>2019-09-10T16:59:41.000Z</time></trkpt><trkpt lon="15.5357518" lat="46.4537649"><ele>749</ele><time>2019-09-10T16:59:42.000Z</time></trkpt><trkpt lon="15.5357518" lat="46.4537649"><ele>749</ele><time>2019-09-10T16:59:43.000Z</time></trkpt><trkpt lon="15.5358842" lat="46.4537473"><ele>748</ele><time>2019-09-10T16:59:44.000Z</time></trkpt><trkpt lon="15.5359507" lat="46.453743"><ele>747</ele><time>2019-09-10T16:59:45.000Z</time></trkpt><trkpt lon="15.5359507" lat="46.453743"><ele>747</ele><time>2019-09-10T16:59:46.000Z</time></trkpt><trkpt lon="15.5361543" lat="46.45376"><ele>746</ele><time>2019-09-10T16:59:47.000Z</time></trkpt><trkpt lon="15.5361543" lat="46.45376"><ele>746</ele><time>2019-09-10T16:59:48.000Z</time></trkpt><trkpt lon="15.5362257" lat="46.4537718"><ele>746</ele><time>2019-09-10T16:59:49.000Z</time></trkpt><trkpt lon="15.5362257" lat="46.4537718"><ele>746</ele><time>2019-09-10T16:59:50.000Z</time></trkpt><trkpt lon="15.5363385" lat="46.4538235"><ele>742</ele><time>2019-09-10T16:59:51.000Z</time></trkpt><trkpt lon="15.5363385" lat="46.4538235"><ele>742</ele><time>2019-09-10T16:59:52.000Z</time></trkpt><trkpt lon="15.5364288" lat="46.4538687"><ele>744</ele><time>2019-09-10T16:59:53.000Z</time></trkpt><trkpt lon="15.5364288" lat="46.4538687"><ele>744</ele><time>2019-09-10T16:59:54.000Z</time></trkpt><trkpt lon="15.5365382" lat="46.4538954"><ele>743</ele><time>2019-09-10T16:59:55.000Z</time></trkpt><trkpt lon="15.5365382" lat="46.4538954"><ele>743</ele><time>2019-09-10T16:59:56.000Z</time></trkpt><trkpt lon="15.5366418" lat="46.4538972"><ele>744</ele><time>2019-09-10T16:59:57.000Z</time></trkpt><trkpt lon="15.5366762" lat="46.4538836"><ele>745</ele><time>2019-09-10T16:59:58.000Z</time></trkpt><trkpt lon="15.5366762" lat="46.4538836"><ele>745</ele><time>2019-09-10T16:59:59.000Z</time></trkpt><trkpt lon="15.5367851" lat="46.4537906"><ele>745</ele><time>2019-09-10T17:00:00.000Z</time></trkpt><trkpt lon="15.5368212" lat="46.4537501"><ele>746</ele><time>2019-09-10T17:00:01.000Z</time></trkpt><trkpt lon="15.5368376" lat="46.4537047"><ele>746</ele><time>2019-09-10T17:00:02.000Z</time></trkpt><trkpt lon="15.5368376" lat="46.4537047"><ele>746</ele><time>2019-09-10T17:00:03.000Z</time></trkpt><trkpt lon="15.5368441" lat="46.453614"><ele>747</ele><time>2019-09-10T17:00:04.000Z</time></trkpt><trkpt lon="15.5368441" lat="46.453614"><ele>747</ele><time>2019-09-10T17:00:05.000Z</time></trkpt><trkpt lon="15.5368403" lat="46.4535347"><ele>748</ele><time>2019-09-10T17:00:06.000Z</time></trkpt><trkpt lon="15.5368339" lat="46.4534955"><ele>749</ele><time>2019-09-10T17:00:07.000Z</time></trkpt><trkpt lon="15.5368339" lat="46.4534955"><ele>749</ele><time>2019-09-10T17:00:08.000Z</time></trkpt><trkpt lon="15.5368319" lat="46.4534375"><ele>748</ele><time>2019-09-10T17:00:09.000Z</time></trkpt><trkpt lon="15.5368319" lat="46.4534375"><ele>748</ele><time>2019-09-10T17:00:10.000Z</time></trkpt><trkpt lon="15.5368372" lat="46.4533919"><ele>747</ele><time>2019-09-10T17:00:11.000Z</time></trkpt><trkpt lon="15.5368581" lat="46.4533284"><ele>747</ele><time>2019-09-10T17:00:12.000Z</time></trkpt><trkpt lon="15.5368581" lat="46.4533284"><ele>747</ele><time>2019-09-10T17:00:13.000Z</time></trkpt><trkpt lon="15.5369083" lat="46.45325"><ele>747</ele><time>2019-09-10T17:00:14.000Z</time></trkpt><trkpt lon="15.5369083" lat="46.45325"><ele>747</ele><time>2019-09-10T17:00:15.000Z</time></trkpt><trkpt lon="15.5369998" lat="46.4531775"><ele>748</ele><time>2019-09-10T17:00:16.000Z</time></trkpt><trkpt lon="15.5370418" lat="46.4531428"><ele>748</ele><time>2019-09-10T17:00:17.000Z</time></trkpt><trkpt lon="15.5370418" lat="46.4531428"><ele>748</ele><time>2019-09-10T17:00:18.000Z</time></trkpt><trkpt lon="15.5371118" lat="46.4530757"><ele>748</ele><time>2019-09-10T17:00:19.000Z</time></trkpt><trkpt lon="15.5371118" lat="46.4530757"><ele>748</ele><time>2019-09-10T17:00:20.000Z</time></trkpt><trkpt lon="15.5371799" lat="46.4530061"><ele>750</ele><time>2019-09-10T17:00:21.000Z</time></trkpt><trkpt lon="15.5372121" lat="46.452967"><ele>750</ele><time>2019-09-10T17:00:22.000Z</time></trkpt><trkpt lon="15.5372121" lat="46.452967"><ele>750</ele><time>2019-09-10T17:00:23.000Z</time></trkpt><trkpt lon="15.5372663" lat="46.4528967"><ele>751</ele><time>2019-09-10T17:00:24.000Z</time></trkpt><trkpt lon="15.5372977" lat="46.4528598"><ele>751</ele><time>2019-09-10T17:00:25.000Z</time></trkpt><trkpt lon="15.5372977" lat="46.4528598"><ele>751</ele><time>2019-09-10T17:00:26.000Z</time></trkpt><trkpt lon="15.5373838" lat="46.4527959"><ele>752</ele><time>2019-09-10T17:00:27.000Z</time></trkpt><trkpt lon="15.5373838" lat="46.4527959"><ele>752</ele><time>2019-09-10T17:00:28.000Z</time></trkpt><trkpt lon="15.5374292" lat="46.4527634"><ele>751</ele><time>2019-09-10T17:00:29.000Z</time></trkpt><trkpt lon="15.5374897" lat="46.452717"><ele>752</ele><time>2019-09-10T17:00:30.000Z</time></trkpt><trkpt lon="15.5375345" lat="46.4526826"><ele>752</ele><time>2019-09-10T17:00:31.000Z</time></trkpt><trkpt lon="15.5375345" lat="46.4526826"><ele>752</ele><time>2019-09-10T17:00:32.000Z</time></trkpt><trkpt lon="15.5376125" lat="46.4526228"><ele>752</ele><time>2019-09-10T17:00:33.000Z</time></trkpt><trkpt lon="15.5376593" lat="46.4525881"><ele>752</ele><time>2019-09-10T17:00:34.000Z</time></trkpt><trkpt lon="15.5376593" lat="46.4525881"><ele>752</ele><time>2019-09-10T17:00:35.000Z</time></trkpt><trkpt lon="15.5376911" lat="46.4525407"><ele>752</ele><time>2019-09-10T17:00:36.000Z</time></trkpt><trkpt lon="15.5376911" lat="46.4525407"><ele>752</ele><time>2019-09-10T17:00:37.000Z</time></trkpt><trkpt lon="15.5377284" lat="46.4524878"><ele>751</ele><time>2019-09-10T17:00:38.000Z</time></trkpt><trkpt lon="15.5377284" lat="46.4524878"><ele>751</ele><time>2019-09-10T17:00:39.000Z</time></trkpt><trkpt lon="15.5377732" lat="46.4524269"><ele>750</ele><time>2019-09-10T17:00:40.000Z</time></trkpt><trkpt lon="15.5377946" lat="46.4523918"><ele>751</ele><time>2019-09-10T17:00:41.000Z</time></trkpt><trkpt lon="15.5377946" lat="46.4523918"><ele>751</ele><time>2019-09-10T17:00:42.000Z</time></trkpt><trkpt lon="15.5378184" lat="46.4523243"><ele>752</ele><time>2019-09-10T17:00:43.000Z</time></trkpt><trkpt lon="15.5378184" lat="46.4523243"><ele>752</ele><time>2019-09-10T17:00:44.000Z</time></trkpt><trkpt lon="15.5378714" lat="46.4521928"><ele>752</ele><time>2019-09-10T17:00:45.000Z</time></trkpt><trkpt lon="15.5378714" lat="46.4521928"><ele>752</ele><time>2019-09-10T17:00:46.000Z</time></trkpt><trkpt lon="15.5379139" lat="46.4520983"><ele>753</ele><time>2019-09-10T17:00:47.000Z</time></trkpt><trkpt lon="15.5379139" lat="46.4520983"><ele>753</ele><time>2019-09-10T17:00:48.000Z</time></trkpt><trkpt lon="15.5379608" lat="46.4520153"><ele>752</ele><time>2019-09-10T17:00:49.000Z</time></trkpt><trkpt lon="15.5379608" lat="46.4520153"><ele>752</ele><time>2019-09-10T17:00:50.000Z</time></trkpt><trkpt lon="15.53797" lat="46.4519657"><ele>751</ele><time>2019-09-10T17:00:51.000Z</time></trkpt><trkpt lon="15.53797" lat="46.4519657"><ele>751</ele><time>2019-09-10T17:00:52.000Z</time></trkpt><trkpt lon="15.5379855" lat="46.4518501"><ele>750</ele><time>2019-09-10T17:00:53.000Z</time></trkpt><trkpt lon="15.5379886" lat="46.4518045"><ele>750</ele><time>2019-09-10T17:00:54.000Z</time></trkpt><trkpt lon="15.5379886" lat="46.4518045"><ele>750</ele><time>2019-09-10T17:00:55.000Z</time></trkpt><trkpt lon="15.5380083" lat="46.4517182"><ele>749</ele><time>2019-09-10T17:00:56.000Z</time></trkpt><trkpt lon="15.5380083" lat="46.4517182"><ele>749</ele><time>2019-09-10T17:00:57.000Z</time></trkpt><trkpt lon="15.5380425" lat="46.4516318"><ele>749</ele><time>2019-09-10T17:00:58.000Z</time></trkpt><trkpt lon="15.5380425" lat="46.4516318"><ele>749</ele><time>2019-09-10T17:00:59.000Z</time></trkpt><trkpt lon="15.5380782" lat="46.451551"><ele>749</ele><time>2019-09-10T17:01:00.000Z</time></trkpt><trkpt lon="15.5380901" lat="46.4514986"><ele>750</ele><time>2019-09-10T17:01:01.000Z</time></trkpt><trkpt lon="15.5380901" lat="46.4514986"><ele>750</ele><time>2019-09-10T17:01:02.000Z</time></trkpt><trkpt lon="15.5381039" lat="46.451385"><ele>750</ele><time>2019-09-10T17:01:03.000Z</time></trkpt><trkpt lon="15.5381039" lat="46.451385"><ele>750</ele><time>2019-09-10T17:01:04.000Z</time></trkpt><trkpt lon="15.5380737" lat="46.4512675"><ele>750</ele><time>2019-09-10T17:01:05.000Z</time></trkpt><trkpt lon="15.5380542" lat="46.4512158"><ele>750</ele><time>2019-09-10T17:01:06.000Z</time></trkpt><trkpt lon="15.5380542" lat="46.4512158"><ele>750</ele><time>2019-09-10T17:01:07.000Z</time></trkpt><trkpt lon="15.538046" lat="46.451099"><ele>749</ele><time>2019-09-10T17:01:08.000Z</time></trkpt><trkpt lon="15.5381209" lat="46.4510294"><ele>749</ele><time>2019-09-10T17:01:09.000Z</time></trkpt><trkpt lon="15.5381209" lat="46.4510294"><ele>749</ele><time>2019-09-10T17:01:10.000Z</time></trkpt><trkpt lon="15.538309" lat="46.4509143"><ele>747</ele><time>2019-09-10T17:01:11.000Z</time></trkpt><trkpt lon="15.5384184" lat="46.4508706"><ele>746</ele><time>2019-09-10T17:01:12.000Z</time></trkpt><trkpt lon="15.538553" lat="46.4508543"><ele>746</ele><time>2019-09-10T17:01:13.000Z</time></trkpt><trkpt lon="15.538553" lat="46.4508543"><ele>746</ele><time>2019-09-10T17:01:14.000Z</time></trkpt><trkpt lon="15.5388317" lat="46.4508351"><ele>744</ele><time>2019-09-10T17:01:15.000Z</time></trkpt><trkpt lon="15.538969" lat="46.4508301"><ele>743</ele><time>2019-09-10T17:01:16.000Z</time></trkpt><trkpt lon="15.5391067" lat="46.4508267"><ele>742</ele><time>2019-09-10T17:01:17.000Z</time></trkpt><trkpt lon="15.5391067" lat="46.4508267"><ele>742</ele><time>2019-09-10T17:01:18.000Z</time></trkpt><trkpt lon="15.5393819" lat="46.4508094"><ele>741</ele><time>2019-09-10T17:01:19.000Z</time></trkpt><trkpt lon="15.5393819" lat="46.4508094"><ele>741</ele><time>2019-09-10T17:01:20.000Z</time></trkpt><trkpt lon="15.5396696" lat="46.4507887"><ele>741</ele><time>2019-09-10T17:01:21.000Z</time></trkpt><trkpt lon="15.5398154" lat="46.4507965"><ele>740</ele><time>2019-09-10T17:01:22.000Z</time></trkpt><trkpt lon="15.5399608" lat="46.450802"><ele>738</ele><time>2019-09-10T17:01:23.000Z</time></trkpt><trkpt lon="15.5401026" lat="46.4508036"><ele>738</ele><time>2019-09-10T17:01:24.000Z</time></trkpt><trkpt lon="15.5401026" lat="46.4508036"><ele>738</ele><time>2019-09-10T17:01:25.000Z</time></trkpt><trkpt lon="15.5403879" lat="46.4507694"><ele>735</ele><time>2019-09-10T17:01:26.000Z</time></trkpt><trkpt lon="15.5405309" lat="46.4507353"><ele>735</ele><time>2019-09-10T17:01:27.000Z</time></trkpt><trkpt lon="15.5405309" lat="46.4507353"><ele>735</ele><time>2019-09-10T17:01:28.000Z</time></trkpt><trkpt lon="15.540806" lat="46.4506429"><ele>734</ele><time>2019-09-10T17:01:29.000Z</time></trkpt><trkpt lon="15.540806" lat="46.4506429"><ele>734</ele><time>2019-09-10T17:01:30.000Z</time></trkpt><trkpt lon="15.5410886" lat="46.4505428"><ele>734</ele><time>2019-09-10T17:01:31.000Z</time></trkpt><trkpt lon="15.5410886" lat="46.4505428"><ele>734</ele><time>2019-09-10T17:01:32.000Z</time></trkpt><trkpt lon="15.5413979" lat="46.450485"><ele>732</ele><time>2019-09-10T17:01:33.000Z</time></trkpt><trkpt lon="15.5413979" lat="46.450485"><ele>732</ele><time>2019-09-10T17:01:34.000Z</time></trkpt><trkpt lon="15.5417163" lat="46.4504728"><ele>731</ele><time>2019-09-10T17:01:35.000Z</time></trkpt><trkpt lon="15.5417163" lat="46.4504728"><ele>731</ele><time>2019-09-10T17:01:36.000Z</time></trkpt><trkpt lon="15.5420234" lat="46.4504933"><ele>730</ele><time>2019-09-10T17:01:37.000Z</time></trkpt><trkpt lon="15.5420234" lat="46.4504933"><ele>730</ele><time>2019-09-10T17:01:38.000Z</time></trkpt><trkpt lon="15.5422577" lat="46.4505225"><ele>729</ele><time>2019-09-10T17:01:39.000Z</time></trkpt><trkpt lon="15.5422577" lat="46.4505225"><ele>729</ele><time>2019-09-10T17:01:40.000Z</time></trkpt><trkpt lon="15.5424122" lat="46.4506139"><ele>728</ele><time>2019-09-10T17:01:41.000Z</time></trkpt><trkpt lon="15.5424758" lat="46.4506652"><ele>728</ele><time>2019-09-10T17:01:42.000Z</time></trkpt><trkpt lon="15.5425148" lat="46.4507279"><ele>727</ele><time>2019-09-10T17:01:43.000Z</time></trkpt><trkpt lon="15.5425544" lat="46.4507911"><ele>727</ele><time>2019-09-10T17:01:44.000Z</time></trkpt><trkpt lon="15.5426108" lat="46.45085"><ele>726</ele><time>2019-09-10T17:01:45.000Z</time></trkpt><trkpt lon="15.5426108" lat="46.45085"><ele>726</ele><time>2019-09-10T17:01:46.000Z</time></trkpt><trkpt lon="15.5427544" lat="46.4509513"><ele>726</ele><time>2019-09-10T17:01:47.000Z</time></trkpt><trkpt lon="15.5428355" lat="46.4510012"><ele>726</ele><time>2019-09-10T17:01:48.000Z</time></trkpt><trkpt lon="15.5428355" lat="46.4510012"><ele>726</ele><time>2019-09-10T17:01:49.000Z</time></trkpt><trkpt lon="15.5429622" lat="46.4510928"><ele>725</ele><time>2019-09-10T17:01:50.000Z</time></trkpt><trkpt lon="15.5430119" lat="46.4511314"><ele>725</ele><time>2019-09-10T17:01:51.000Z</time></trkpt><trkpt lon="15.5430119" lat="46.4511314"><ele>725</ele><time>2019-09-10T17:01:52.000Z</time></trkpt><trkpt lon="15.5430944" lat="46.4511956"><ele>724</ele><time>2019-09-10T17:01:53.000Z</time></trkpt><trkpt lon="15.5430944" lat="46.4511956"><ele>724</ele><time>2019-09-10T17:01:54.000Z</time></trkpt><trkpt lon="15.5431312" lat="46.451229"><ele>723</ele><time>2019-09-10T17:01:55.000Z</time></trkpt><trkpt lon="15.5431312" lat="46.451229"><ele>723</ele><time>2019-09-10T17:01:56.000Z</time></trkpt><trkpt lon="15.5431698" lat="46.4512584"><ele>723</ele><time>2019-09-10T17:01:57.000Z</time></trkpt><trkpt lon="15.5431698" lat="46.4512584"><ele>723</ele><time>2019-09-10T17:01:58.000Z</time></trkpt><trkpt lon="15.5431698" lat="46.4512584"><ele>723</ele><time>2019-09-10T17:01:59.000Z</time></trkpt><trkpt lon="15.5432016" lat="46.4512745"><ele>722</ele><time>2019-09-10T17:02:00.000Z</time></trkpt><trkpt lon="15.5432016" lat="46.4512745"><ele>722</ele><time>2019-09-10T17:02:01.000Z</time></trkpt><trkpt lon="15.5432016" lat="46.4512745"><ele>722</ele><time>2019-09-10T17:02:02.000Z</time></trkpt><trkpt lon="-999.0" lat="-999.0"><ele>0.0</ele><time>2019-09-10T17:02:03.000Z</time></trkpt><trkpt lon="-999.0" lat="-999.0"><ele>0.0</ele><time>2019-09-10T17:02:04.000Z</time></trkpt><trkpt lon="-999.0" lat="-999.0"><ele>0.0</ele><time>2019-09-10T17:02:05.000Z</time></trkpt><trkpt lon="-999.0" lat="-999.0"><ele>0.0</ele><time>2019-09-10T17:02:06.000Z</time></trkpt><trkpt lon="-999.0" lat="-999.0"><ele>0.0</ele><time>2019-09-10T17:02:07.000Z</time></trkpt><trkpt lon="-999.0" lat="-999.0"><ele>0.0</ele><time>2019-09-10T17:02:08.000Z</time></trkpt><trkpt lon="-999.0" lat="-999.0"><ele>0.0</ele><time>2019-09-10T17:02:09.000Z</time></trkpt><trkpt lon="-999.0" lat="-999.0"><ele>0.0</ele><time>2019-09-10T17:02:10.000Z</time></trkpt><trkpt lon="-999.0" lat="-999.0"><ele>0.0</ele><time>2019-09-10T17:02:11.000Z</time></trkpt><trkpt lon="15.543229" lat="46.4512996"><ele>724</ele><time>2019-09-10T17:02:12.000Z</time></trkpt><trkpt lon="15.543229" lat="46.4512996"><ele>724</ele><time>2019-09-10T17:02:13.000Z</time></trkpt><trkpt lon="15.5432727" lat="46.4513212"><ele>724</ele><time>2019-09-10T17:02:14.000Z</time></trkpt><trkpt lon="15.5432727" lat="46.4513212"><ele>724</ele><time>2019-09-10T17:02:15.000Z</time></trkpt><trkpt lon="15.5433303" lat="46.4513542"><ele>724</ele><time>2019-09-10T17:02:16.000Z</time></trkpt><trkpt lon="15.5433303" lat="46.4513542"><ele>724</ele><time>2019-09-10T17:02:17.000Z</time></trkpt><trkpt lon="15.5434467" lat="46.4514468"><ele>723</ele><time>2019-09-10T17:02:18.000Z</time></trkpt><trkpt lon="15.5434735" lat="46.451484"><ele>723</ele><time>2019-09-10T17:02:19.000Z</time></trkpt><trkpt lon="15.5435095" lat="46.4515294"><ele>725</ele><time>2019-09-10T17:02:20.000Z</time></trkpt><trkpt lon="15.5435095" lat="46.4515294"><ele>725</ele><time>2019-09-10T17:02:21.000Z</time></trkpt><trkpt lon="15.5435581" lat="46.4516316"><ele>724</ele><time>2019-09-10T17:02:22.000Z</time></trkpt><trkpt lon="15.5435788" lat="46.4516966"><ele>722</ele><time>2019-09-10T17:02:23.000Z</time></trkpt><trkpt lon="15.5436071" lat="46.4517623"><ele>722</ele><time>2019-09-10T17:02:24.000Z</time></trkpt><trkpt lon="15.5436071" lat="46.4517623"><ele>722</ele><time>2019-09-10T17:02:25.000Z</time></trkpt><trkpt lon="15.5436815" lat="46.4519015"><ele>720</ele><time>2019-09-10T17:02:26.000Z</time></trkpt><trkpt lon="15.5436815" lat="46.4519015"><ele>720</ele><time>2019-09-10T17:02:27.000Z</time></trkpt><trkpt lon="15.5437667" lat="46.4520468"><ele>718</ele><time>2019-09-10T17:02:28.000Z</time></trkpt><trkpt lon="15.5438047" lat="46.4521256"><ele>717</ele><time>2019-09-10T17:02:29.000Z</time></trkpt><trkpt lon="15.5438047" lat="46.4521256"><ele>717</ele><time>2019-09-10T17:02:30.000Z</time></trkpt><trkpt lon="15.5438921" lat="46.4522825"><ele>716</ele><time>2019-09-10T17:02:31.000Z</time></trkpt><trkpt lon="15.5439444" lat="46.4523611"><ele>716</ele><time>2019-09-10T17:02:32.000Z</time></trkpt><trkpt lon="15.5439444" lat="46.4523611"><ele>716</ele><time>2019-09-10T17:02:33.000Z</time></trkpt><trkpt lon="15.5440471" lat="46.4525248"><ele>715</ele><time>2019-09-10T17:02:34.000Z</time></trkpt><trkpt lon="15.5440471" lat="46.4525248"><ele>715</ele><time>2019-09-10T17:02:35.000Z</time></trkpt><trkpt lon="15.5441484" lat="46.4526869"><ele>714</ele><time>2019-09-10T17:02:36.000Z</time></trkpt><trkpt lon="15.5442164" lat="46.4527545"><ele>713</ele><time>2019-09-10T17:02:37.000Z</time></trkpt><trkpt lon="15.5442164" lat="46.4527545"><ele>713</ele><time>2019-09-10T17:02:38.000Z</time></trkpt><trkpt lon="15.5444097" lat="46.4528517"><ele>712</ele><time>2019-09-10T17:02:39.000Z</time></trkpt><trkpt lon="15.5444097" lat="46.4528517"><ele>712</ele><time>2019-09-10T17:02:40.000Z</time></trkpt><trkpt lon="15.5446395" lat="46.4529187"><ele>711</ele><time>2019-09-10T17:02:41.000Z</time></trkpt><trkpt lon="15.54476" lat="46.4529508"><ele>711</ele><time>2019-09-10T17:02:42.000Z</time></trkpt><trkpt lon="15.54476" lat="46.4529508"><ele>711</ele><time>2019-09-10T17:02:43.000Z</time></trkpt><trkpt lon="15.5450035" lat="46.4530234"><ele>710</ele><time>2019-09-10T17:02:44.000Z</time></trkpt><trkpt lon="15.5451111" lat="46.4530788"><ele>710</ele><time>2019-09-10T17:02:45.000Z</time></trkpt><trkpt lon="15.5452094" lat="46.4531414"><ele>709</ele><time>2019-09-10T17:02:46.000Z</time></trkpt><trkpt lon="15.5452094" lat="46.4531414"><ele>709</ele><time>2019-09-10T17:02:47.000Z</time></trkpt><trkpt lon="15.5453845" lat="46.4532638"><ele>707</ele><time>2019-09-10T17:02:48.000Z</time></trkpt><trkpt lon="15.5453845" lat="46.4532638"><ele>707</ele><time>2019-09-10T17:02:49.000Z</time></trkpt><trkpt lon="15.5455789" lat="46.4533466"><ele>705</ele><time>2019-09-10T17:02:50.000Z</time></trkpt><trkpt lon="15.5455789" lat="46.4533466"><ele>705</ele><time>2019-09-10T17:02:51.000Z</time></trkpt><trkpt lon="15.5457649" lat="46.453398"><ele>704</ele><time>2019-09-10T17:02:52.000Z</time></trkpt><trkpt lon="15.5458431" lat="46.453413"><ele>704</ele><time>2019-09-10T17:02:53.000Z</time></trkpt><trkpt lon="15.5459123" lat="46.4534227"><ele>703</ele><time>2019-09-10T17:02:54.000Z</time></trkpt><trkpt lon="15.5459123" lat="46.4534227"><ele>703</ele><time>2019-09-10T17:02:55.000Z</time></trkpt><trkpt lon="15.5460336" lat="46.4534391"><ele>703</ele><time>2019-09-10T17:02:56.000Z</time></trkpt><trkpt lon="15.5460336" lat="46.4534391"><ele>703</ele><time>2019-09-10T17:02:57.000Z</time></trkpt><trkpt lon="15.5461244" lat="46.4534596"><ele>701</ele><time>2019-09-10T17:02:58.000Z</time></trkpt><trkpt lon="15.5461244" lat="46.4534596"><ele>701</ele><time>2019-09-10T17:02:59.000Z</time></trkpt><trkpt lon="15.5461996" lat="46.4534763"><ele>702</ele><time>2019-09-10T17:03:00.000Z</time></trkpt><trkpt lon="15.5462392" lat="46.4534842"><ele>701</ele><time>2019-09-10T17:03:01.000Z</time></trkpt><trkpt lon="15.5462392" lat="46.4534842"><ele>701</ele><time>2019-09-10T17:03:02.000Z</time></trkpt><trkpt lon="15.546388" lat="46.4535087"><ele>700</ele><time>2019-09-10T17:03:03.000Z</time></trkpt><trkpt lon="15.546388" lat="46.4535087"><ele>700</ele><time>2019-09-10T17:03:04.000Z</time></trkpt><trkpt lon="15.5464728" lat="46.4535245"><ele>700</ele><time>2019-09-10T17:03:05.000Z</time></trkpt><trkpt lon="15.5464728" lat="46.4535245"><ele>700</ele><time>2019-09-10T17:03:06.000Z</time></trkpt><trkpt lon="15.5465914" lat="46.453525"><ele>701</ele><time>2019-09-10T17:03:07.000Z</time></trkpt><trkpt lon="15.5466526" lat="46.4535293"><ele>701</ele><time>2019-09-10T17:03:08.000Z</time></trkpt><trkpt lon="15.5466526" lat="46.4535293"><ele>701</ele><time>2019-09-10T17:03:09.000Z</time></trkpt><trkpt lon="15.546791" lat="46.4535409"><ele>701</ele><time>2019-09-10T17:03:10.000Z</time></trkpt><trkpt lon="15.546791" lat="46.4535409"><ele>701</ele><time>2019-09-10T17:03:11.000Z</time></trkpt><trkpt lon="15.5469322" lat="46.4535794"><ele>700</ele><time>2019-09-10T17:03:12.000Z</time></trkpt><trkpt lon="15.5469975" lat="46.4536191"><ele>700</ele><time>2019-09-10T17:03:13.000Z</time></trkpt><trkpt lon="15.5470377" lat="46.4536841"><ele>698</ele><time>2019-09-10T17:03:14.000Z</time></trkpt><trkpt lon="15.5470377" lat="46.4536841"><ele>698</ele><time>2019-09-10T17:03:15.000Z</time></trkpt><trkpt lon="15.5471063" lat="46.4537939"><ele>698</ele><time>2019-09-10T17:03:16.000Z</time></trkpt><trkpt lon="15.5471063" lat="46.4537939"><ele>698</ele><time>2019-09-10T17:03:17.000Z</time></trkpt><trkpt lon="15.5471718" lat="46.4538903"><ele>698</ele><time>2019-09-10T17:03:18.000Z</time></trkpt><trkpt lon="15.5471718" lat="46.4538903"><ele>698</ele><time>2019-09-10T17:03:19.000Z</time></trkpt><trkpt lon="15.547276" lat="46.4539586"><ele>698</ele><time>2019-09-10T17:03:20.000Z</time></trkpt><trkpt lon="15.547276" lat="46.4539586"><ele>698</ele><time>2019-09-10T17:03:21.000Z</time></trkpt><trkpt lon="15.5473815" lat="46.453999"><ele>697</ele><time>2019-09-10T17:03:22.000Z</time></trkpt><trkpt lon="15.5474385" lat="46.454007"><ele>697</ele><time>2019-09-10T17:03:23.000Z</time></trkpt><trkpt lon="15.5474998" lat="46.4540122"><ele>697</ele><time>2019-09-10T17:03:24.000Z</time></trkpt><trkpt lon="15.5474998" lat="46.4540122"><ele>697</ele><time>2019-09-10T17:03:25.000Z</time></trkpt><trkpt lon="15.5476219" lat="46.4540092"><ele>698</ele><time>2019-09-10T17:03:26.000Z</time></trkpt><trkpt lon="15.5476846" lat="46.4540057"><ele>698</ele><time>2019-09-10T17:03:27.000Z</time></trkpt><trkpt lon="15.5477447" lat="46.4540047"><ele>698</ele><time>2019-09-10T17:03:28.000Z</time></trkpt><trkpt lon="15.5478098" lat="46.4540119"><ele>699</ele><time>2019-09-10T17:03:29.000Z</time></trkpt><trkpt lon="15.5478746" lat="46.4540118"><ele>698</ele><time>2019-09-10T17:03:30.000Z</time></trkpt><trkpt lon="15.5478746" lat="46.4540118"><ele>698</ele><time>2019-09-10T17:03:31.000Z</time></trkpt><trkpt lon="15.5480046" lat="46.4540558"><ele>698</ele><time>2019-09-10T17:03:32.000Z</time></trkpt><trkpt lon="15.5480662" lat="46.4540858"><ele>698</ele><time>2019-09-10T17:03:33.000Z</time></trkpt><trkpt lon="15.5480662" lat="46.4540858"><ele>698</ele><time>2019-09-10T17:03:34.000Z</time></trkpt><trkpt lon="15.5481665" lat="46.4541612"><ele>698</ele><time>2019-09-10T17:03:35.000Z</time></trkpt><trkpt lon="15.5481665" lat="46.4541612"><ele>698</ele><time>2019-09-10T17:03:36.000Z</time></trkpt><trkpt lon="15.5482426" lat="46.4542539"><ele>698</ele><time>2019-09-10T17:03:37.000Z</time></trkpt><trkpt lon="15.5482426" lat="46.4542539"><ele>698</ele><time>2019-09-10T17:03:38.000Z</time></trkpt><trkpt lon="15.5482957" lat="46.4543581"><ele>696</ele><time>2019-09-10T17:03:39.000Z</time></trkpt><trkpt lon="15.5482957" lat="46.4543581"><ele>696</ele><time>2019-09-10T17:03:40.000Z</time></trkpt><trkpt lon="15.5483393" lat="46.4544617"><ele>695</ele><time>2019-09-10T17:03:41.000Z</time></trkpt><trkpt lon="15.5483393" lat="46.4544617"><ele>695</ele><time>2019-09-10T17:03:42.000Z</time></trkpt><trkpt lon="15.5483715" lat="46.4545535"><ele>695</ele><time>2019-09-10T17:03:43.000Z</time></trkpt><trkpt lon="15.5483842" lat="46.4545995"><ele>695</ele><time>2019-09-10T17:03:44.000Z</time></trkpt><trkpt lon="15.5483881" lat="46.4546507"><ele>695</ele><time>2019-09-10T17:03:45.000Z</time></trkpt><trkpt lon="15.5483986" lat="46.4547062"><ele>695</ele><time>2019-09-10T17:03:46.000Z</time></trkpt><trkpt lon="15.5483986" lat="46.4547062"><ele>695</ele><time>2019-09-10T17:03:47.000Z</time></trkpt><trkpt lon="15.5484078" lat="46.4548293"><ele>694</ele><time>2019-09-10T17:03:48.000Z</time></trkpt><trkpt lon="15.5484078" lat="46.4548293"><ele>694</ele><time>2019-09-10T17:03:49.000Z</time></trkpt><trkpt lon="15.548461" lat="46.4549378"><ele>695</ele><time>2019-09-10T17:03:50.000Z</time></trkpt><trkpt lon="15.5484984" lat="46.4549978"><ele>694</ele><time>2019-09-10T17:03:51.000Z</time></trkpt><trkpt lon="15.5484984" lat="46.4549978"><ele>694</ele><time>2019-09-10T17:03:52.000Z</time></trkpt><trkpt lon="15.5485688" lat="46.4551042"><ele>694</ele><time>2019-09-10T17:03:53.000Z</time></trkpt><trkpt lon="15.5485688" lat="46.4551042"><ele>694</ele><time>2019-09-10T17:03:54.000Z</time></trkpt><trkpt lon="15.5486369" lat="46.4552206"><ele>693</ele><time>2019-09-10T17:03:55.000Z</time></trkpt><trkpt lon="15.548682" lat="46.4552804"><ele>694</ele><time>2019-09-10T17:03:56.000Z</time></trkpt><trkpt lon="15.548682" lat="46.4552804"><ele>694</ele><time>2019-09-10T17:03:57.000Z</time></trkpt><trkpt lon="15.5487981" lat="46.455408"><ele>693</ele><time>2019-09-10T17:03:58.000Z</time></trkpt><trkpt lon="15.5488538" lat="46.4554763"><ele>693</ele><time>2019-09-10T17:03:59.000Z</time></trkpt><trkpt lon="15.5488538" lat="46.4554763"><ele>693</ele><time>2019-09-10T17:04:00.000Z</time></trkpt><trkpt lon="15.548965" lat="46.4556173"><ele>693</ele><time>2019-09-10T17:04:01.000Z</time></trkpt><trkpt lon="15.5490232" lat="46.455688"><ele>692</ele><time>2019-09-10T17:04:02.000Z</time></trkpt><trkpt lon="15.5490232" lat="46.455688"><ele>692</ele><time>2019-09-10T17:04:03.000Z</time></trkpt><trkpt lon="15.5491258" lat="46.4558352"><ele>692</ele><time>2019-09-10T17:04:04.000Z</time></trkpt><trkpt lon="15.5491805" lat="46.4559001"><ele>692</ele><time>2019-09-10T17:04:05.000Z</time></trkpt><trkpt lon="15.5491805" lat="46.4559001"><ele>692</ele><time>2019-09-10T17:04:06.000Z</time></trkpt><trkpt lon="15.5492659" lat="46.4560216"><ele>692</ele><time>2019-09-10T17:04:07.000Z</time></trkpt><trkpt lon="15.5492996" lat="46.4560881"><ele>691</ele><time>2019-09-10T17:04:08.000Z</time></trkpt><trkpt lon="15.5492996" lat="46.4560881"><ele>691</ele><time>2019-09-10T17:04:09.000Z</time></trkpt><trkpt lon="15.5493274" lat="46.4562307"><ele>690</ele><time>2019-09-10T17:04:10.000Z</time></trkpt><trkpt lon="15.5493121" lat="46.4563004"><ele>693</ele><time>2019-09-10T17:04:11.000Z</time></trkpt><trkpt lon="15.549286" lat="46.4563743"><ele>693</ele><time>2019-09-10T17:04:12.000Z</time></trkpt><trkpt lon="15.549286" lat="46.4563743"><ele>693</ele><time>2019-09-10T17:04:13.000Z</time></trkpt><trkpt lon="15.5492464" lat="46.4565024"><ele>692</ele><time>2019-09-10T17:04:14.000Z</time></trkpt><trkpt lon="15.5492181" lat="46.4565709"><ele>692</ele><time>2019-09-10T17:04:15.000Z</time></trkpt><trkpt lon="15.5492181" lat="46.4565709"><ele>692</ele><time>2019-09-10T17:04:16.000Z</time></trkpt><trkpt lon="15.5491789" lat="46.4566906"><ele>692</ele><time>2019-09-10T17:04:17.000Z</time></trkpt><trkpt lon="15.5491794" lat="46.4567471"><ele>692</ele><time>2019-09-10T17:04:18.000Z</time></trkpt><trkpt lon="15.5491794" lat="46.4567471"><ele>692</ele><time>2019-09-10T17:04:19.000Z</time></trkpt><trkpt lon="15.5492102" lat="46.456823"><ele>691</ele><time>2019-09-10T17:04:20.000Z</time></trkpt><trkpt lon="15.5492102" lat="46.456823"><ele>691</ele><time>2019-09-10T17:04:21.000Z</time></trkpt><trkpt lon="15.5492102" lat="46.456823"><ele>691</ele><time>2019-09-10T17:04:22.000Z</time></trkpt><trkpt lon="15.5492218" lat="46.456856"><ele>692</ele><time>2019-09-10T17:04:23.000Z</time></trkpt><trkpt lon="15.5492218" lat="46.456856"><ele>692</ele><time>2019-09-10T17:04:24.000Z</time></trkpt><trkpt lon="15.5492218" lat="46.456856"><ele>692</ele><time>2019-09-10T17:04:25.000Z</time></trkpt><trkpt lon="-999.0" lat="-999.0"><ele>0.0</ele><time>2019-09-10T17:04:26.000Z</time></trkpt><trkpt lon="15.5492609" lat="46.4568299"><ele>690</ele><time>2019-09-10T17:04:27.000Z</time></trkpt><trkpt lon="15.5492609" lat="46.4568299"><ele>690</ele><time>2019-09-10T17:04:28.000Z</time></trkpt><trkpt lon="15.5492609" lat="46.4568299"><ele>690</ele><time>2019-09-10T17:04:29.000Z</time></trkpt><trkpt lon="15.5492826" lat="46.4567927"><ele>689</ele><time>2019-09-10T17:04:30.000Z</time></trkpt><trkpt lon="15.5492826" lat="46.4567927"><ele>689</ele><time>2019-09-10T17:04:31.000Z</time></trkpt><trkpt lon="15.5493306" lat="46.4567582"><ele>687</ele><time>2019-09-10T17:04:32.000Z</time></trkpt><trkpt lon="15.5493306" lat="46.4567582"><ele>687</ele><time>2019-09-10T17:04:33.000Z</time></trkpt><trkpt lon="15.5493799" lat="46.4567335"><ele>685</ele><time>2019-09-10T17:04:34.000Z</time></trkpt><trkpt lon="15.5493799" lat="46.4567335"><ele>685</ele><time>2019-09-10T17:04:35.000Z</time></trkpt><trkpt lon="15.5494236" lat="46.456699"><ele>685</ele><time>2019-09-10T17:04:36.000Z</time></trkpt><trkpt lon="15.5494236" lat="46.456699"><ele>685</ele><time>2019-09-10T17:04:37.000Z</time></trkpt><trkpt lon="15.5494689" lat="46.4566551"><ele>685</ele><time>2019-09-10T17:04:38.000Z</time></trkpt><trkpt lon="15.5494952" lat="46.4566257"><ele>685</ele><time>2019-09-10T17:04:39.000Z</time></trkpt><trkpt lon="15.5494952" lat="46.4566257"><ele>685</ele><time>2019-09-10T17:04:40.000Z</time></trkpt><trkpt lon="15.5495388" lat="46.4565643"><ele>685</ele><time>2019-09-10T17:04:41.000Z</time></trkpt><trkpt lon="15.5495388" lat="46.4565643"><ele>685</ele><time>2019-09-10T17:04:42.000Z</time></trkpt><trkpt lon="15.549577" lat="46.4565102"><ele>685</ele><time>2019-09-10T17:04:43.000Z</time></trkpt><trkpt lon="15.549577" lat="46.4565102"><ele>685</ele><time>2019-09-10T17:04:44.000Z</time></trkpt><trkpt lon="15.5496236" lat="46.4563966"><ele>687</ele><time>2019-09-10T17:04:45.000Z</time></trkpt><trkpt lon="15.5496491" lat="46.4563492"><ele>686</ele><time>2019-09-10T17:04:46.000Z</time></trkpt><trkpt lon="15.5496745" lat="46.4562962"><ele>687</ele><time>2019-09-10T17:04:47.000Z</time></trkpt><trkpt lon="15.5496992" lat="46.4562415"><ele>686</ele><time>2019-09-10T17:04:48.000Z</time></trkpt><trkpt lon="15.5496992" lat="46.4562415"><ele>686</ele><time>2019-09-10T17:04:49.000Z</time></trkpt><trkpt lon="15.5497237" lat="46.4561332"><ele>685</ele><time>2019-09-10T17:04:51.000Z</time></trkpt><trkpt lon="15.5497373" lat="46.4560779"><ele>685</ele><time>2019-09-10T17:04:51.000Z</time></trkpt><trkpt lon="15.5497373" lat="46.4560779"><ele>685</ele><time>2019-09-10T17:04:53.000Z</time></trkpt><trkpt lon="15.5497701" lat="46.4559523"><ele>684</ele><time>2019-09-10T17:04:54.000Z</time></trkpt><trkpt lon="15.5497701" lat="46.4559523"><ele>684</ele><time>2019-09-10T17:04:55.000Z</time></trkpt><trkpt lon="15.5498187" lat="46.4558306"><ele>682</ele><time>2019-09-10T17:04:56.000Z</time></trkpt><trkpt lon="15.549817" lat="46.4557675"><ele>681</ele><time>2019-09-10T17:04:57.000Z</time></trkpt><trkpt lon="15.549817" lat="46.4557675"><ele>681</ele><time>2019-09-10T17:04:58.000Z</time></trkpt><trkpt lon="15.5498189" lat="46.4556433"><ele>680</ele><time>2019-09-10T17:04:59.000Z</time></trkpt><trkpt lon="15.549819" lat="46.4555831"><ele>679</ele><time>2019-09-10T17:05:00.000Z</time></trkpt><trkpt lon="15.549819" lat="46.4555831"><ele>679</ele><time>2019-09-10T17:05:01.000Z</time></trkpt><trkpt lon="15.549822" lat="46.4554603"><ele>678</ele><time>2019-09-10T17:05:02.000Z</time></trkpt><trkpt lon="15.5498185" lat="46.4553955"><ele>678</ele><time>2019-09-10T17:05:03.000Z</time></trkpt><trkpt lon="15.5498185" lat="46.4553955"><ele>678</ele><time>2019-09-10T17:05:04.000Z</time></trkpt><trkpt lon="15.5498341" lat="46.4552612"><ele>676</ele><time>2019-09-10T17:05:05.000Z</time></trkpt><trkpt lon="15.549859" lat="46.4551936"><ele>676</ele><time>2019-09-10T17:05:06.000Z</time></trkpt><trkpt lon="15.549859" lat="46.4551936"><ele>676</ele><time>2019-09-10T17:05:07.000Z</time></trkpt><trkpt lon="15.5499418" lat="46.4550543"><ele>674</ele><time>2019-09-10T17:05:08.000Z</time></trkpt><trkpt lon="15.5499418" lat="46.4550543"><ele>674</ele><time>2019-09-10T17:05:09.000Z</time></trkpt><trkpt lon="15.5500557" lat="46.4549156"><ele>673</ele><time>2019-09-10T17:05:10.000Z</time></trkpt><trkpt lon="15.5500557" lat="46.4549156"><ele>673</ele><time>2019-09-10T17:05:11.000Z</time></trkpt><trkpt lon="15.5501535" lat="46.4547744"><ele>672</ele><time>2019-09-10T17:05:12.000Z</time></trkpt><trkpt lon="15.5501895" lat="46.4546968"><ele>672</ele><time>2019-09-10T17:05:13.000Z</time></trkpt><trkpt lon="15.5501895" lat="46.4546968"><ele>672</ele><time>2019-09-10T17:05:14.000Z</time></trkpt><trkpt lon="15.5502251" lat="46.4545273"><ele>671</ele><time>2019-09-10T17:05:15.000Z</time></trkpt><trkpt lon="15.5502252" lat="46.4544399"><ele>671</ele><time>2019-09-10T17:05:16.000Z</time></trkpt><trkpt lon="15.5502252" lat="46.4544399"><ele>671</ele><time>2019-09-10T17:05:17.000Z</time></trkpt><trkpt lon="15.5502418" lat="46.454245"><ele>669</ele><time>2019-09-10T17:05:18.000Z</time></trkpt><trkpt lon="15.5502418" lat="46.454245"><ele>669</ele><time>2019-09-10T17:05:19.000Z</time></trkpt><trkpt lon="15.5502041" lat="46.454074"><ele>667</ele><time>2019-09-10T17:05:20.000Z</time></trkpt><trkpt lon="15.5502041" lat="46.454074"><ele>667</ele><time>2019-09-10T17:05:21.000Z</time></trkpt><trkpt lon="15.5501186" lat="46.4539405"><ele>666</ele><time>2019-09-10T17:05:22.000Z</time></trkpt><trkpt lon="15.5500915" lat="46.453889"><ele>665</ele><time>2019-09-10T17:05:23.000Z</time></trkpt><trkpt lon="15.5500537" lat="46.4538374"><ele>665</ele><time>2019-09-10T17:05:24.000Z</time></trkpt><trkpt lon="15.5500537" lat="46.4538374"><ele>665</ele><time>2019-09-10T17:05:25.000Z</time></trkpt><trkpt lon="15.5500055" lat="46.4537387"><ele>664</ele><time>2019-09-10T17:05:26.000Z</time></trkpt><trkpt lon="15.5499972" lat="46.4536924"><ele>663</ele><time>2019-09-10T17:05:27.000Z</time></trkpt><trkpt lon="15.5499948" lat="46.4536368"><ele>663</ele><time>2019-09-10T17:05:28.000Z</time></trkpt><trkpt lon="15.5499992" lat="46.4536098"><ele>661</ele><time>2019-09-10T17:05:29.000Z</time></trkpt><trkpt lon="15.5499992" lat="46.4536098"><ele>661</ele><time>2019-09-10T17:05:30.000Z</time></trkpt><trkpt lon="15.5501293" lat="46.453548"><ele>660</ele><time>2019-09-10T17:05:31.000Z</time></trkpt><trkpt lon="15.5501293" lat="46.453548"><ele>660</ele><time>2019-09-10T17:05:32.000Z</time></trkpt><trkpt lon="15.5501293" lat="46.453548"><ele>660</ele><time>2019-09-10T17:05:33.000Z</time></trkpt><trkpt lon="15.5502112" lat="46.4535249"><ele>657</ele><time>2019-09-10T17:05:34.000Z</time></trkpt><trkpt lon="15.5502112" lat="46.4535249"><ele>657</ele><time>2019-09-10T17:05:35.000Z</time></trkpt><trkpt lon="15.5502807" lat="46.453507"><ele>657</ele><time>2019-09-10T17:05:36.000Z</time></trkpt><trkpt lon="15.5502807" lat="46.453507"><ele>657</ele><time>2019-09-10T17:05:37.000Z</time></trkpt><trkpt lon="15.5503467" lat="46.4534875"><ele>655</ele><time>2019-09-10T17:05:38.000Z</time></trkpt><trkpt lon="15.5503952" lat="46.4534748"><ele>654</ele><time>2019-09-10T17:05:39.000Z</time></trkpt><trkpt lon="15.5503952" lat="46.4534748"><ele>654</ele><time>2019-09-10T17:05:40.000Z</time></trkpt><trkpt lon="15.5506346" lat="46.4534362"><ele>654</ele><time>2019-09-10T17:05:41.000Z</time></trkpt><trkpt lon="15.5507186" lat="46.4534384"><ele>654</ele><time>2019-09-10T17:05:42.000Z</time></trkpt><trkpt lon="15.5507186" lat="46.4534384"><ele>654</ele><time>2019-09-10T17:05:43.000Z</time></trkpt><trkpt lon="15.5509006" lat="46.4534506"><ele>654</ele><time>2019-09-10T17:05:44.000Z</time></trkpt><trkpt lon="15.5509006" lat="46.4534506"><ele>654</ele><time>2019-09-10T17:05:45.000Z</time></trkpt><trkpt lon="15.5510784" lat="46.4534579"><ele>653</ele><time>2019-09-10T17:05:46.000Z</time></trkpt><trkpt lon="15.5510784" lat="46.4534579"><ele>653</ele><time>2019-09-10T17:05:47.000Z</time></trkpt><trkpt lon="15.5511541" lat="46.4534517"><ele>651</ele><time>2019-09-10T17:05:48.000Z</time></trkpt><trkpt lon="15.5511541" lat="46.4534517"><ele>651</ele><time>2019-09-10T17:05:49.000Z</time></trkpt><trkpt lon="15.5513227" lat="46.4534283"><ele>649</ele><time>2019-09-10T17:05:50.000Z</time></trkpt><trkpt lon="15.5513844" lat="46.4533733"><ele>650</ele><time>2019-09-10T17:05:51.000Z</time></trkpt><trkpt lon="15.5513844" lat="46.4533733"><ele>650</ele><time>2019-09-10T17:05:52.000Z</time></trkpt><trkpt lon="15.5515364" lat="46.4532683"><ele>649</ele><time>2019-09-10T17:05:53.000Z</time></trkpt><trkpt lon="15.5515364" lat="46.4532683"><ele>649</ele><time>2019-09-10T17:05:54.000Z</time></trkpt><trkpt lon="15.5515483" lat="46.4531189"><ele>650</ele><time>2019-09-10T17:05:55.000Z</time></trkpt><trkpt lon="15.5515483" lat="46.4531189"><ele>650</ele><time>2019-09-10T17:05:56.000Z</time></trkpt><trkpt lon="15.5515613" lat="46.4529856"><ele>651</ele><time>2019-09-10T17:05:57.000Z</time></trkpt><trkpt lon="15.5515613" lat="46.4529856"><ele>651</ele><time>2019-09-10T17:05:58.000Z</time></trkpt><trkpt lon="15.5515973" lat="46.4528748"><ele>649</ele><time>2019-09-10T17:05:59.000Z</time></trkpt><trkpt lon="15.5516426" lat="46.4528213"><ele>648</ele><time>2019-09-10T17:06:00.000Z</time></trkpt><trkpt lon="15.5516426" lat="46.4528213"><ele>648</ele><time>2019-09-10T17:06:01.000Z</time></trkpt><trkpt lon="15.5518155" lat="46.4527641"><ele>646</ele><time>2019-09-10T17:06:02.000Z</time></trkpt><trkpt lon="15.5518155" lat="46.4527641"><ele>646</ele><time>2019-09-10T17:06:03.000Z</time></trkpt><trkpt lon="15.5520356" lat="46.4527791"><ele>643</ele><time>2019-09-10T17:06:04.000Z</time></trkpt><trkpt lon="15.5520356" lat="46.4527791"><ele>643</ele><time>2019-09-10T17:06:05.000Z</time></trkpt><trkpt lon="15.552193" lat="46.4528268"><ele>642</ele><time>2019-09-10T17:06:06.000Z</time></trkpt><trkpt lon="15.552193" lat="46.4528268"><ele>642</ele><time>2019-09-10T17:06:07.000Z</time></trkpt><trkpt lon="15.5522809" lat="46.4528571"><ele>641</ele><time>2019-09-10T17:06:08.000Z</time></trkpt><trkpt lon="15.5523402" lat="46.4528722"><ele>641</ele><time>2019-09-10T17:06:09.000Z</time></trkpt><trkpt lon="15.5523402" lat="46.4528722"><ele>641</ele><time>2019-09-10T17:06:10.000Z</time></trkpt><trkpt lon="15.5524204" lat="46.4528778"><ele>640</ele><time>2019-09-10T17:06:11.000Z</time></trkpt><trkpt lon="15.5524597" lat="46.4528775"><ele>640</ele><time>2019-09-10T17:06:12.000Z</time></trkpt><trkpt lon="15.5524597" lat="46.4528775"><ele>640</ele><time>2019-09-10T17:06:13.000Z</time></trkpt><trkpt lon="15.5525386" lat="46.4528822"><ele>637</ele><time>2019-09-10T17:06:14.000Z</time></trkpt><trkpt lon="15.5525908" lat="46.4528771"><ele>637</ele><time>2019-09-10T17:06:15.000Z</time></trkpt><trkpt lon="15.5525908" lat="46.4528771"><ele>637</ele><time>2019-09-10T17:06:16.000Z</time></trkpt><trkpt lon="15.552726" lat="46.4528542"><ele>637</ele><time>2019-09-10T17:06:17.000Z</time></trkpt><trkpt lon="15.552726" lat="46.4528542"><ele>637</ele><time>2019-09-10T17:06:18.000Z</time></trkpt><trkpt lon="15.5528694" lat="46.4528347"><ele>637</ele><time>2019-09-10T17:06:19.000Z</time></trkpt><trkpt lon="15.5529531" lat="46.4528406"><ele>636</ele><time>2019-09-10T17:06:20.000Z</time></trkpt><trkpt lon="15.5529531" lat="46.4528406"><ele>636</ele><time>2019-09-10T17:06:21.000Z</time></trkpt><trkpt lon="15.5531644" lat="46.4528722"><ele>634</ele><time>2019-09-10T17:06:22.000Z</time></trkpt><trkpt lon="15.5531644" lat="46.4528722"><ele>634</ele><time>2019-09-10T17:06:23.000Z</time></trkpt><trkpt lon="15.5534008" lat="46.4529175"><ele>631</ele><time>2019-09-10T17:06:24.000Z</time></trkpt><trkpt lon="15.5534008" lat="46.4529175"><ele>631</ele><time>2019-09-10T17:06:25.000Z</time></trkpt><trkpt lon="15.5536461" lat="46.4529647"><ele>631</ele><time>2019-09-10T17:06:26.000Z</time></trkpt><trkpt lon="15.5536461" lat="46.4529647"><ele>631</ele><time>2019-09-10T17:06:27.000Z</time></trkpt><trkpt lon="15.5538881" lat="46.452976"><ele>630</ele><time>2019-09-10T17:06:28.000Z</time></trkpt><trkpt lon="15.5538881" lat="46.452976"><ele>630</ele><time>2019-09-10T17:06:29.000Z</time></trkpt><trkpt lon="15.5540902" lat="46.4529198"><ele>630</ele><time>2019-09-10T17:06:30.000Z</time></trkpt><trkpt lon="15.5541643" lat="46.4528637"><ele>629</ele><time>2019-09-10T17:06:31.000Z</time></trkpt><trkpt lon="15.5542366" lat="46.4528036"><ele>629</ele><time>2019-09-10T17:06:32.000Z</time></trkpt><trkpt lon="15.5542366" lat="46.4528036"><ele>629</ele><time>2019-09-10T17:06:33.000Z</time></trkpt><trkpt lon="15.5543037" lat="46.4526525"><ele>627</ele><time>2019-09-10T17:06:34.000Z</time></trkpt><trkpt lon="15.5543037" lat="46.4526525"><ele>627</ele><time>2019-09-10T17:06:35.000Z</time></trkpt><trkpt lon="15.5543804" lat="46.4525101"><ele>626</ele><time>2019-09-10T17:06:36.000Z</time></trkpt><trkpt lon="15.5543804" lat="46.4525101"><ele>626</ele><time>2019-09-10T17:06:37.000Z</time></trkpt><trkpt lon="15.5545246" lat="46.4524041"><ele>625</ele><time>2019-09-10T17:06:38.000Z</time></trkpt><trkpt lon="15.5546081" lat="46.4523534"><ele>624</ele><time>2019-09-10T17:06:39.000Z</time></trkpt><trkpt lon="15.5546081" lat="46.4523534"><ele>624</ele><time>2019-09-10T17:06:40.000Z</time></trkpt><trkpt lon="15.5548256" lat="46.4522733"><ele>622</ele><time>2019-09-10T17:06:41.000Z</time></trkpt><trkpt lon="15.5548256" lat="46.4522733"><ele>622</ele><time>2019-09-10T17:06:42.000Z</time></trkpt><trkpt lon="15.5550096" lat="46.4521916"><ele>622</ele><time>2019-09-10T17:06:43.000Z</time></trkpt><trkpt lon="15.5550096" lat="46.4521916"><ele>622</ele><time>2019-09-10T17:06:44.000Z</time></trkpt><trkpt lon="15.5551488" lat="46.4520794"><ele>620</ele><time>2019-09-10T17:06:45.000Z</time></trkpt><trkpt lon="15.5551488" lat="46.4520794"><ele>620</ele><time>2019-09-10T17:06:46.000Z</time></trkpt><trkpt lon="15.555127" lat="46.4519242"><ele>618</ele><time>2019-09-10T17:06:47.000Z</time></trkpt><trkpt lon="15.5550895" lat="46.4518544"><ele>618</ele><time>2019-09-10T17:06:48.000Z</time></trkpt><trkpt lon="15.5550734" lat="46.4517869"><ele>617</ele><time>2019-09-10T17:06:49.000Z</time></trkpt><trkpt lon="15.5550734" lat="46.4517869"><ele>617</ele><time>2019-09-10T17:06:50.000Z</time></trkpt><trkpt lon="15.5550858" lat="46.4516529"><ele>616</ele><time>2019-09-10T17:06:51.000Z</time></trkpt><trkpt lon="15.5551234" lat="46.4515937"><ele>615</ele><time>2019-09-10T17:06:52.000Z</time></trkpt><trkpt lon="15.5551749" lat="46.4515449"><ele>615</ele><time>2019-09-10T17:06:53.000Z</time></trkpt><trkpt lon="15.5551749" lat="46.4515449"><ele>615</ele><time>2019-09-10T17:06:54.000Z</time></trkpt><trkpt lon="15.5552847" lat="46.4514676"><ele>613</ele><time>2019-09-10T17:06:55.000Z</time></trkpt><trkpt lon="15.5553389" lat="46.4514351"><ele>613</ele><time>2019-09-10T17:06:56.000Z</time></trkpt><trkpt lon="15.5553925" lat="46.4514052"><ele>612</ele><time>2019-09-10T17:06:57.000Z</time></trkpt><trkpt lon="15.5553925" lat="46.4514052"><ele>612</ele><time>2019-09-10T17:06:58.000Z</time></trkpt><trkpt lon="15.555486" lat="46.4513571"><ele>612</ele><time>2019-09-10T17:06:59.000Z</time></trkpt><trkpt lon="15.555486" lat="46.4513571"><ele>612</ele><time>2019-09-10T17:07:00.000Z</time></trkpt><trkpt lon="15.5555248" lat="46.4513245"><ele>612</ele><time>2019-09-10T17:07:01.000Z</time></trkpt><trkpt lon="15.5555248" lat="46.4513245"><ele>612</ele><time>2019-09-10T17:07:02.000Z</time></trkpt><trkpt lon="15.555564" lat="46.4512894"><ele>611</ele><time>2019-09-10T17:07:03.000Z</time></trkpt><trkpt lon="15.555564" lat="46.4512894"><ele>611</ele><time>2019-09-10T17:07:04.000Z</time></trkpt><trkpt lon="15.5556039" lat="46.4512532"><ele>611</ele><time>2019-09-10T17:07:05.000Z</time></trkpt><trkpt lon="15.5556039" lat="46.4512532"><ele>611</ele><time>2019-09-10T17:07:06.000Z</time></trkpt><trkpt lon="15.5556266" lat="46.4512263"><ele>610</ele><time>2019-09-10T17:07:07.000Z</time></trkpt><trkpt lon="15.5556266" lat="46.4512263"><ele>610</ele><time>2019-09-10T17:07:08.000Z</time></trkpt><trkpt lon="15.5556266" lat="46.4512263"><ele>610</ele><time>2019-09-10T17:07:09.000Z</time></trkpt><trkpt lon="15.5556462" lat="46.4511994"><ele>610</ele><time>2019-09-10T17:07:10.000Z</time></trkpt><trkpt lon="15.5556462" lat="46.4511994"><ele>610</ele><time>2019-09-10T17:07:11.000Z</time></trkpt><trkpt lon="15.5556624" lat="46.4511725"><ele>611</ele><time>2019-09-10T17:07:12.000Z</time></trkpt><trkpt lon="15.5556624" lat="46.4511725"><ele>611</ele><time>2019-09-10T17:07:13.000Z</time></trkpt><trkpt lon="15.5556746" lat="46.4511327"><ele>610</ele><time>2019-09-10T17:07:14.000Z</time></trkpt><trkpt lon="15.5556746" lat="46.4511327"><ele>610</ele><time>2019-09-10T17:07:15.000Z</time></trkpt><trkpt lon="15.5556798" lat="46.4511016"><ele>611</ele><time>2019-09-10T17:07:16.000Z</time></trkpt><trkpt lon="15.5556798" lat="46.4511016"><ele>611</ele><time>2019-09-10T17:07:17.000Z</time></trkpt><trkpt lon="15.5556937" lat="46.4510603"><ele>610</ele><time>2019-09-10T17:07:18.000Z</time></trkpt><trkpt lon="15.5556937" lat="46.4510603"><ele>610</ele><time>2019-09-10T17:07:19.000Z</time></trkpt><trkpt lon="15.5557106" lat="46.4510133"><ele>611</ele><time>2019-09-10T17:07:20.000Z</time></trkpt><trkpt lon="15.5557183" lat="46.4509853"><ele>612</ele><time>2019-09-10T17:07:21.000Z</time></trkpt><trkpt lon="15.5557183" lat="46.4509853"><ele>612</ele><time>2019-09-10T17:07:22.000Z</time></trkpt><trkpt lon="15.5557372" lat="46.4509166"><ele>612</ele><time>2019-09-10T17:07:23.000Z</time></trkpt><trkpt lon="15.5557372" lat="46.4509166"><ele>612</ele><time>2019-09-10T17:07:24.000Z</time></trkpt><trkpt lon="15.5557597" lat="46.4508701"><ele>611</ele><time>2019-09-10T17:07:25.000Z</time></trkpt><trkpt lon="15.5557597" lat="46.4508701"><ele>611</ele><time>2019-09-10T17:07:26.000Z</time></trkpt><trkpt lon="15.55577" lat="46.4508357"><ele>610</ele><time>2019-09-10T17:07:27.000Z</time></trkpt><trkpt lon="15.55577" lat="46.4508357"><ele>610</ele><time>2019-09-10T17:07:28.000Z</time></trkpt><trkpt lon="15.5557776" lat="46.4507924"><ele>609</ele><time>2019-09-10T17:07:29.000Z</time></trkpt><trkpt lon="15.5557776" lat="46.4507924"><ele>609</ele><time>2019-09-10T17:07:30.000Z</time></trkpt><trkpt lon="15.5557761" lat="46.4507404"><ele>608</ele><time>2019-09-10T17:07:31.000Z</time></trkpt><trkpt lon="15.5557774" lat="46.4507128"><ele>607</ele><time>2019-09-10T17:07:32.000Z</time></trkpt><trkpt lon="15.5557823" lat="46.4506845"><ele>607</ele><time>2019-09-10T17:07:33.000Z</time></trkpt><trkpt lon="15.5557823" lat="46.4506845"><ele>607</ele><time>2019-09-10T17:07:34.000Z</time></trkpt><trkpt lon="15.5557968" lat="46.4506325"><ele>606</ele><time>2019-09-10T17:07:35.000Z</time></trkpt><trkpt lon="15.5558107" lat="46.4506066"><ele>606</ele><time>2019-09-10T17:07:36.000Z</time></trkpt><trkpt lon="15.5558107" lat="46.4506066"><ele>606</ele><time>2019-09-10T17:07:37.000Z</time></trkpt><trkpt lon="15.5558418" lat="46.4505503"><ele>605</ele><time>2019-09-10T17:07:38.000Z</time></trkpt><trkpt lon="15.5558418" lat="46.4505503"><ele>605</ele><time>2019-09-10T17:07:39.000Z</time></trkpt><trkpt lon="15.5558856" lat="46.4504696"><ele>604</ele><time>2019-09-10T17:07:40.000Z</time></trkpt><trkpt lon="15.5559024" lat="46.4504386"><ele>603</ele><time>2019-09-10T17:07:41.000Z</time></trkpt><trkpt lon="15.5559024" lat="46.4504386"><ele>603</ele><time>2019-09-10T17:07:42.000Z</time></trkpt><trkpt lon="15.5559714" lat="46.45033"><ele>602</ele><time>2019-09-10T17:07:43.000Z</time></trkpt><trkpt lon="15.5559714" lat="46.45033"><ele>602</ele><time>2019-09-10T17:07:44.000Z</time></trkpt><trkpt lon="15.5560157" lat="46.4502525"><ele>601</ele><time>2019-09-10T17:07:45.000Z</time></trkpt><trkpt lon="15.5560378" lat="46.450213"><ele>601</ele><time>2019-09-10T17:07:46.000Z</time></trkpt><trkpt lon="15.5560378" lat="46.450213"><ele>601</ele><time>2019-09-10T17:07:47.000Z</time></trkpt><trkpt lon="15.5561115" lat="46.4501286"><ele>600</ele><time>2019-09-10T17:07:48.000Z</time></trkpt><trkpt lon="15.5561642" lat="46.4500838"><ele>599</ele><time>2019-09-10T17:07:49.000Z</time></trkpt><trkpt lon="15.5561642" lat="46.4500838"><ele>599</ele><time>2019-09-10T17:07:50.000Z</time></trkpt><trkpt lon="15.5562745" lat="46.4499995"><ele>596</ele><time>2019-09-10T17:07:51.000Z</time></trkpt><trkpt lon="15.5563125" lat="46.4499554"><ele>596</ele><time>2019-09-10T17:07:52.000Z</time></trkpt><trkpt lon="15.5563125" lat="46.4499554"><ele>596</ele><time>2019-09-10T17:07:53.000Z</time></trkpt><trkpt lon="15.5564224" lat="46.4498719"><ele>593</ele><time>2019-09-10T17:07:54.000Z</time></trkpt><trkpt lon="15.5564806" lat="46.4498324"><ele>593</ele><time>2019-09-10T17:07:55.000Z</time></trkpt><trkpt lon="15.5565347" lat="46.4497953"><ele>592</ele><time>2019-09-10T17:07:56.000Z</time></trkpt><trkpt lon="15.5565947" lat="46.449757"><ele>589</ele><time>2019-09-10T17:07:57.000Z</time></trkpt><trkpt lon="15.5565947" lat="46.449757"><ele>589</ele><time>2019-09-10T17:07:58.000Z</time></trkpt><trkpt lon="15.5566738" lat="46.4496741"><ele>587</ele><time>2019-09-10T17:07:59.000Z</time></trkpt><trkpt lon="15.5566738" lat="46.4496741"><ele>587</ele><time>2019-09-10T17:08:00.000Z</time></trkpt><trkpt lon="15.5567406" lat="46.4495963"><ele>587</ele><time>2019-09-10T17:08:01.000Z</time></trkpt><trkpt lon="15.5567406" lat="46.4495963"><ele>587</ele><time>2019-09-10T17:08:02.000Z</time></trkpt><trkpt lon="15.5567728" lat="46.4495362"><ele>587</ele><time>2019-09-10T17:08:03.000Z</time></trkpt><trkpt lon="15.5567895" lat="46.4494865"><ele>587</ele><time>2019-09-10T17:08:04.000Z</time></trkpt><trkpt lon="15.5568168" lat="46.4494478"><ele>585</ele><time>2019-09-10T17:08:05.000Z</time></trkpt><trkpt lon="15.5568168" lat="46.4494478"><ele>585</ele><time>2019-09-10T17:08:06.000Z</time></trkpt><trkpt lon="15.5568393" lat="46.449346"><ele>586</ele><time>2019-09-10T17:08:07.000Z</time></trkpt><trkpt lon="15.5568552" lat="46.4492949"><ele>586</ele><time>2019-09-10T17:08:08.000Z</time></trkpt><trkpt lon="15.5568552" lat="46.4492949"><ele>586</ele><time>2019-09-10T17:08:09.000Z</time></trkpt><trkpt lon="15.5568691" lat="46.4491895"><ele>585</ele><time>2019-09-10T17:08:10.000Z</time></trkpt><trkpt lon="15.5568691" lat="46.4491895"><ele>585</ele><time>2019-09-10T17:08:11.000Z</time></trkpt><trkpt lon="15.5568826" lat="46.4490861"><ele>584</ele><time>2019-09-10T17:08:12.000Z</time></trkpt><trkpt lon="15.5568826" lat="46.4490861"><ele>584</ele><time>2019-09-10T17:08:13.000Z</time></trkpt><trkpt lon="15.5569262" lat="46.4489893"><ele>582</ele><time>2019-09-10T17:08:14.000Z</time></trkpt><trkpt lon="15.5569262" lat="46.4489893"><ele>582</ele><time>2019-09-10T17:08:15.000Z</time></trkpt><trkpt lon="15.5570156" lat="46.4488939"><ele>582</ele><time>2019-09-10T17:08:16.000Z</time></trkpt><trkpt lon="15.5570156" lat="46.4488939"><ele>582</ele><time>2019-09-10T17:08:17.000Z</time></trkpt><trkpt lon="15.5571429" lat="46.4488095"><ele>581</ele><time>2019-09-10T17:08:18.000Z</time></trkpt><trkpt lon="15.557216" lat="46.4487676"><ele>582</ele><time>2019-09-10T17:08:19.000Z</time></trkpt><trkpt lon="15.557216" lat="46.4487676"><ele>582</ele><time>2019-09-10T17:08:20.000Z</time></trkpt><trkpt lon="15.5573634" lat="46.448687"><ele>580</ele><time>2019-09-10T17:08:21.000Z</time></trkpt><trkpt lon="15.5573634" lat="46.448687"><ele>580</ele><time>2019-09-10T17:08:22.000Z</time></trkpt><trkpt lon="15.5574928" lat="46.4486033"><ele>580</ele><time>2019-09-10T17:08:23.000Z</time></trkpt><trkpt lon="15.5574928" lat="46.4486033"><ele>580</ele><time>2019-09-10T17:08:24.000Z</time></trkpt><trkpt lon="15.5576255" lat="46.4485198"><ele>578</ele><time>2019-09-10T17:08:25.000Z</time></trkpt><trkpt lon="15.557704" lat="46.4484828"><ele>578</ele><time>2019-09-10T17:08:26.000Z</time></trkpt><trkpt lon="15.557704" lat="46.4484828"><ele>578</ele><time>2019-09-10T17:08:27.000Z</time></trkpt><trkpt lon="15.5579536" lat="46.448496"><ele>575</ele><time>2019-09-10T17:08:28.000Z</time></trkpt><trkpt lon="15.5579536" lat="46.448496"><ele>575</ele><time>2019-09-10T17:08:29.000Z</time></trkpt><trkpt lon="15.5581621" lat="46.4485422"><ele>573</ele><time>2019-09-10T17:08:30.000Z</time></trkpt><trkpt lon="15.5581621" lat="46.4485422"><ele>573</ele><time>2019-09-10T17:08:31.000Z</time></trkpt><trkpt lon="15.5583186" lat="46.4486426"><ele>571</ele><time>2019-09-10T17:08:32.000Z</time></trkpt><trkpt lon="15.5583828" lat="46.4486789"><ele>569</ele><time>2019-09-10T17:08:33.000Z</time></trkpt><trkpt lon="15.5584568" lat="46.4487028"><ele>569</ele><time>2019-09-10T17:08:34.000Z</time></trkpt><trkpt lon="15.5584568" lat="46.4487028"><ele>569</ele><time>2019-09-10T17:08:35.000Z</time></trkpt><trkpt lon="15.5585406" lat="46.4487361"><ele>568</ele><time>2019-09-10T17:08:36.000Z</time></trkpt><trkpt lon="15.5585406" lat="46.4487361"><ele>568</ele><time>2019-09-10T17:08:37.000Z</time></trkpt><trkpt lon="15.5586491" lat="46.4487672"><ele>567</ele><time>2019-09-10T17:08:38.000Z</time></trkpt><trkpt lon="15.5586491" lat="46.4487672"><ele>567</ele><time>2019-09-10T17:08:39.000Z</time></trkpt><trkpt lon="15.5587825" lat="46.4487858"><ele>566</ele><time>2019-09-10T17:08:40.000Z</time></trkpt><trkpt lon="15.5587825" lat="46.4487858"><ele>566</ele><time>2019-09-10T17:08:41.000Z</time></trkpt><trkpt lon="15.5589392" lat="46.4487951"><ele>567</ele><time>2019-09-10T17:08:42.000Z</time></trkpt><trkpt lon="15.5589392" lat="46.4487951"><ele>567</ele><time>2019-09-10T17:08:43.000Z</time></trkpt><trkpt lon="15.5591088" lat="46.4488601"><ele>565</ele><time>2019-09-10T17:08:44.000Z</time></trkpt><trkpt lon="15.5591088" lat="46.4488601"><ele>565</ele><time>2019-09-10T17:08:45.000Z</time></trkpt><trkpt lon="15.5592667" lat="46.4489193"><ele>564</ele><time>2019-09-10T17:08:46.000Z</time></trkpt><trkpt lon="15.5593432" lat="46.4489488"><ele>564</ele><time>2019-09-10T17:08:47.000Z</time></trkpt><trkpt lon="15.5594242" lat="46.4489725"><ele>563</ele><time>2019-09-10T17:08:48.000Z</time></trkpt><trkpt lon="15.5595074" lat="46.4489918"><ele>563</ele><time>2019-09-10T17:08:49.000Z</time></trkpt><trkpt lon="15.5595962" lat="46.4490073"><ele>563</ele><time>2019-09-10T17:08:50.000Z</time></trkpt><trkpt lon="15.5595962" lat="46.4490073"><ele>563</ele><time>2019-09-10T17:08:51.000Z</time></trkpt><trkpt lon="15.5597711" lat="46.4490284"><ele>563</ele><time>2019-09-10T17:08:52.000Z</time></trkpt><trkpt lon="15.5597711" lat="46.4490284"><ele>563</ele><time>2019-09-10T17:08:53.000Z</time></trkpt><trkpt lon="15.559937" lat="46.4490234"><ele>563</ele><time>2019-09-10T17:08:54.000Z</time></trkpt><trkpt lon="15.5600124" lat="46.4490241"><ele>563</ele><time>2019-09-10T17:08:55.000Z</time></trkpt><trkpt lon="15.5600124" lat="46.4490241"><ele>563</ele><time>2019-09-10T17:08:56.000Z</time></trkpt><trkpt lon="15.5601562" lat="46.4490731"><ele>564</ele><time>2019-09-10T17:08:57.000Z</time></trkpt><trkpt lon="15.5602211" lat="46.4490987"><ele>564</ele><time>2019-09-10T17:08:58.000Z</time></trkpt><trkpt lon="15.5602211" lat="46.4490987"><ele>564</ele><time>2019-09-10T17:08:59.000Z</time></trkpt><trkpt lon="15.5603478" lat="46.4491525"><ele>564</ele><time>2019-09-10T17:09:00.000Z</time></trkpt><trkpt lon="15.5604115" lat="46.4491822"><ele>564</ele><time>2019-09-10T17:09:01.000Z</time></trkpt><trkpt lon="15.5604115" lat="46.4491822"><ele>564</ele><time>2019-09-10T17:09:02.000Z</time></trkpt><trkpt lon="15.5605489" lat="46.4492543"><ele>564</ele><time>2019-09-10T17:09:03.000Z</time></trkpt><trkpt lon="15.5606159" lat="46.4492887"><ele>565</ele><time>2019-09-10T17:09:04.000Z</time></trkpt><trkpt lon="15.5606774" lat="46.4493229"><ele>564</ele><time>2019-09-10T17:09:05.000Z</time></trkpt><trkpt lon="15.5607424" lat="46.4493534"><ele>564</ele><time>2019-09-10T17:09:06.000Z</time></trkpt><trkpt lon="15.5607424" lat="46.4493534"><ele>564</ele><time>2019-09-10T17:09:07.000Z</time></trkpt><trkpt lon="15.5608713" lat="46.4494096"><ele>563</ele><time>2019-09-10T17:09:08.000Z</time></trkpt><trkpt lon="15.5608713" lat="46.4494096"><ele>563</ele><time>2019-09-10T17:09:09.000Z</time></trkpt><trkpt lon="15.5610171" lat="46.4494607"><ele>561</ele><time>2019-09-10T17:09:10.000Z</time></trkpt><trkpt lon="15.5611021" lat="46.4494966"><ele>560</ele><time>2019-09-10T17:09:11.000Z</time></trkpt><trkpt lon="15.5611826" lat="46.4495291"><ele>560</ele><time>2019-09-10T17:09:12.000Z</time></trkpt><trkpt lon="15.5611826" lat="46.4495291"><ele>560</ele><time>2019-09-10T17:09:13.000Z</time></trkpt><trkpt lon="15.5613453" lat="46.4495917"><ele>559</ele><time>2019-09-10T17:09:14.000Z</time></trkpt><trkpt lon="15.5614187" lat="46.4496183"><ele>559</ele><time>2019-09-10T17:09:15.000Z</time></trkpt><trkpt lon="15.5614981" lat="46.4496436"><ele>559</ele><time>2019-09-10T17:09:16.000Z</time></trkpt><trkpt lon="15.5615701" lat="46.4496671"><ele>559</ele><time>2019-09-10T17:09:17.000Z</time></trkpt><trkpt lon="15.5615701" lat="46.4496671"><ele>559</ele><time>2019-09-10T17:09:18.000Z</time></trkpt><trkpt lon="15.5617077" lat="46.4496955"><ele>558</ele><time>2019-09-10T17:09:19.000Z</time></trkpt><trkpt lon="15.5617077" lat="46.4496955"><ele>558</ele><time>2019-09-10T17:09:20.000Z</time></trkpt><trkpt lon="15.5618871" lat="46.449676"><ele>559</ele><time>2019-09-10T17:09:21.000Z</time></trkpt><trkpt lon="15.5618871" lat="46.449676"><ele>559</ele><time>2019-09-10T17:09:22.000Z</time></trkpt><trkpt lon="15.5620896" lat="46.4496711"><ele>559</ele><time>2019-09-10T17:09:23.000Z</time></trkpt><trkpt lon="15.5621796" lat="46.4496881"><ele>558</ele><time>2019-09-10T17:09:24.000Z</time></trkpt><trkpt lon="15.5621796" lat="46.4496881"><ele>558</ele><time>2019-09-10T17:09:25.000Z</time></trkpt><trkpt lon="15.5623207" lat="46.4498323"><ele>557</ele><time>2019-09-10T17:09:26.000Z</time></trkpt><trkpt lon="15.5624231" lat="46.449885"><ele>556</ele><time>2019-09-10T17:09:27.000Z</time></trkpt><trkpt lon="15.5625546" lat="46.4499273"><ele>555</ele><time>2019-09-10T17:09:28.000Z</time></trkpt><trkpt lon="15.5625546" lat="46.4499273"><ele>555</ele><time>2019-09-10T17:09:29.000Z</time></trkpt><trkpt lon="15.5628128" lat="46.4500273"><ele>554</ele><time>2019-09-10T17:09:30.000Z</time></trkpt><trkpt lon="15.5628128" lat="46.4500273"><ele>554</ele><time>2019-09-10T17:09:31.000Z</time></trkpt><trkpt lon="15.5630212" lat="46.4501367"><ele>552</ele><time>2019-09-10T17:09:32.000Z</time></trkpt><trkpt lon="15.5630212" lat="46.4501367"><ele>552</ele><time>2019-09-10T17:09:33.000Z</time></trkpt><trkpt lon="15.5632629" lat="46.4502109"><ele>551</ele><time>2019-09-10T17:09:34.000Z</time></trkpt><trkpt lon="15.5633813" lat="46.4502296"><ele>551</ele><time>2019-09-10T17:09:35.000Z</time></trkpt><trkpt lon="15.5633813" lat="46.4502296"><ele>551</ele><time>2019-09-10T17:09:36.000Z</time></trkpt><trkpt lon="15.5635965" lat="46.4502019"><ele>551</ele><time>2019-09-10T17:09:37.000Z</time></trkpt><trkpt lon="15.5637152" lat="46.4501966"><ele>550</ele><time>2019-09-10T17:09:38.000Z</time></trkpt><trkpt lon="15.5638461" lat="46.4502176"><ele>549</ele><time>2019-09-10T17:09:39.000Z</time></trkpt><trkpt lon="15.5638461" lat="46.4502176"><ele>549</ele><time>2019-09-10T17:09:40.000Z</time></trkpt><trkpt lon="15.5641051" lat="46.4502698"><ele>548</ele><time>2019-09-10T17:09:41.000Z</time></trkpt><trkpt lon="15.5641051" lat="46.4502698"><ele>548</ele><time>2019-09-10T17:09:42.000Z</time></trkpt><trkpt lon="15.5643021" lat="46.4503462"><ele>546</ele><time>2019-09-10T17:09:43.000Z</time></trkpt><trkpt lon="15.5643814" lat="46.4504167"><ele>548</ele><time>2019-09-10T17:09:44.000Z</time></trkpt><trkpt lon="15.5643814" lat="46.4504167"><ele>548</ele><time>2019-09-10T17:09:45.000Z</time></trkpt><trkpt lon="15.5645256" lat="46.4505403"><ele>547</ele><time>2019-09-10T17:09:46.000Z</time></trkpt><trkpt lon="15.5646076" lat="46.450601"><ele>547</ele><time>2019-09-10T17:09:47.000Z</time></trkpt><trkpt lon="15.5646076" lat="46.450601"><ele>547</ele><time>2019-09-10T17:09:48.000Z</time></trkpt><trkpt lon="15.5647728" lat="46.450731"><ele>545</ele><time>2019-09-10T17:09:49.000Z</time></trkpt><trkpt lon="15.5647728" lat="46.450731"><ele>545</ele><time>2019-09-10T17:09:50.000Z</time></trkpt><trkpt lon="15.5649489" lat="46.4508413"><ele>546</ele><time>2019-09-10T17:09:51.000Z</time></trkpt><trkpt lon="15.5651033" lat="46.4508901"><ele>545</ele><time>2019-09-10T17:09:52.000Z</time></trkpt><trkpt lon="15.5651033" lat="46.4508901"><ele>545</ele><time>2019-09-10T17:09:53.000Z</time></trkpt><trkpt lon="15.5653327" lat="46.4510095"><ele>544</ele><time>2019-09-10T17:09:54.000Z</time></trkpt><trkpt lon="15.5654534" lat="46.4510746"><ele>542</ele><time>2019-09-10T17:09:55.000Z</time></trkpt><trkpt lon="15.5654534" lat="46.4510746"><ele>542</ele><time>2019-09-10T17:09:56.000Z</time></trkpt><trkpt lon="15.5656985" lat="46.4512781"><ele>540</ele><time>2019-09-10T17:09:57.000Z</time></trkpt><trkpt lon="15.5657917" lat="46.4513537"><ele>539</ele><time>2019-09-10T17:09:58.000Z</time></trkpt><trkpt lon="15.5657917" lat="46.4513537"><ele>539</ele><time>2019-09-10T17:09:59.000Z</time></trkpt><trkpt lon="15.5659186" lat="46.4515375"><ele>538</ele><time>2019-09-10T17:10:00.000Z</time></trkpt><trkpt lon="15.5659186" lat="46.4515375"><ele>538</ele><time>2019-09-10T17:10:01.000Z</time></trkpt><trkpt lon="15.5659864" lat="46.4517546"><ele>536</ele><time>2019-09-10T17:10:02.000Z</time></trkpt><trkpt lon="15.5659864" lat="46.4517546"><ele>536</ele><time>2019-09-10T17:10:03.000Z</time></trkpt><trkpt lon="15.5659818" lat="46.4519138"><ele>537</ele><time>2019-09-10T17:10:04.000Z</time></trkpt><trkpt lon="15.5660119" lat="46.4519779"><ele>535</ele><time>2019-09-10T17:10:05.000Z</time></trkpt><trkpt lon="15.5660119" lat="46.4519779"><ele>535</ele><time>2019-09-10T17:10:06.000Z</time></trkpt><trkpt lon="15.5661792" lat="46.4520997"><ele>533</ele><time>2019-09-10T17:10:07.000Z</time></trkpt><trkpt lon="15.5661792" lat="46.4520997"><ele>533</ele><time>2019-09-10T17:10:08.000Z</time></trkpt><trkpt lon="15.5663151" lat="46.4521551"><ele>532</ele><time>2019-09-10T17:10:09.000Z</time></trkpt><trkpt lon="15.5663151" lat="46.4521551"><ele>532</ele><time>2019-09-10T17:10:10.000Z</time></trkpt><trkpt lon="15.5664081" lat="46.4521588"><ele>531</ele><time>2019-09-10T17:10:11.000Z</time></trkpt><trkpt lon="15.5664702" lat="46.4521619"><ele>532</ele><time>2019-09-10T17:10:12.000Z</time></trkpt><trkpt lon="15.5664702" lat="46.4521619"><ele>532</ele><time>2019-09-10T17:10:13.000Z</time></trkpt><trkpt lon="15.5665481" lat="46.4521729"><ele>532</ele><time>2019-09-10T17:10:14.000Z</time></trkpt><trkpt lon="15.5665481" lat="46.4521729"><ele>532</ele><time>2019-09-10T17:10:15.000Z</time></trkpt><trkpt lon="15.5666326" lat="46.4521812"><ele>533</ele><time>2019-09-10T17:10:16.000Z</time></trkpt><trkpt lon="15.5666326" lat="46.4521812"><ele>533</ele><time>2019-09-10T17:10:17.000Z</time></trkpt><trkpt lon="15.5666842" lat="46.4521861"><ele>533</ele><time>2019-09-10T17:10:18.000Z</time></trkpt><trkpt lon="15.5666842" lat="46.4521861"><ele>533</ele><time>2019-09-10T17:10:19.000Z</time></trkpt><trkpt lon="15.5667517" lat="46.4522062"><ele>533</ele><time>2019-09-10T17:10:20.000Z</time></trkpt><trkpt lon="15.5667517" lat="46.4522062"><ele>533</ele><time>2019-09-10T17:10:21.000Z</time></trkpt><trkpt lon="15.5668205" lat="46.4522298"><ele>534</ele><time>2019-09-10T17:10:22.000Z</time></trkpt><trkpt lon="15.5668205" lat="46.4522298"><ele>534</ele><time>2019-09-10T17:10:23.000Z</time></trkpt><trkpt lon="15.5668961" lat="46.4522636"><ele>534</ele><time>2019-09-10T17:10:24.000Z</time></trkpt><trkpt lon="15.5668961" lat="46.4522636"><ele>534</ele><time>2019-09-10T17:10:25.000Z</time></trkpt><trkpt lon="15.5669328" lat="46.4522807"><ele>533</ele><time>2019-09-10T17:10:26.000Z</time></trkpt><trkpt lon="15.5669702" lat="46.4522942"><ele>533</ele><time>2019-09-10T17:10:27.000Z</time></trkpt><trkpt lon="15.5670484" lat="46.4523214"><ele>533</ele><time>2019-09-10T17:10:28.000Z</time></trkpt><trkpt lon="15.5670484" lat="46.4523214"><ele>533</ele><time>2019-09-10T17:10:29.000Z</time></trkpt><trkpt lon="15.5670986" lat="46.4523417"><ele>533</ele><time>2019-09-10T17:10:30.000Z</time></trkpt><trkpt lon="15.5671702" lat="46.452381"><ele>533</ele><time>2019-09-10T17:10:31.000Z</time></trkpt><trkpt lon="15.5671702" lat="46.452381"><ele>533</ele><time>2019-09-10T17:10:32.000Z</time></trkpt><trkpt lon="15.5672006" lat="46.4523993"><ele>532</ele><time>2019-09-10T17:10:33.000Z</time></trkpt><trkpt lon="15.5672663" lat="46.4524364"><ele>532</ele><time>2019-09-10T17:10:34.000Z</time></trkpt><trkpt lon="15.5672663" lat="46.4524364"><ele>532</ele><time>2019-09-10T17:10:35.000Z</time></trkpt><trkpt lon="15.5673262" lat="46.4524775"><ele>531</ele><time>2019-09-10T17:10:36.000Z</time></trkpt><trkpt lon="15.5673262" lat="46.4524775"><ele>531</ele><time>2019-09-10T17:10:37.000Z</time></trkpt><trkpt lon="15.5673756" lat="46.4525145"><ele>531</ele><time>2019-09-10T17:10:38.000Z</time></trkpt><trkpt lon="15.5673756" lat="46.4525145"><ele>531</ele><time>2019-09-10T17:10:39.000Z</time></trkpt><trkpt lon="15.5674277" lat="46.4525572"><ele>530</ele><time>2019-09-10T17:10:40.000Z</time></trkpt><trkpt lon="15.5674277" lat="46.4525572"><ele>530</ele><time>2019-09-10T17:10:41.000Z</time></trkpt><trkpt lon="15.5674679" lat="46.4525965"><ele>530</ele><time>2019-09-10T17:10:42.000Z</time></trkpt><trkpt lon="15.5674679" lat="46.4525965"><ele>530</ele><time>2019-09-10T17:10:43.000Z</time></trkpt><trkpt lon="15.5675056" lat="46.4526287"><ele>529</ele><time>2019-09-10T17:10:44.000Z</time></trkpt><trkpt lon="15.5675056" lat="46.4526287"><ele>529</ele><time>2019-09-10T17:10:45.000Z</time></trkpt><trkpt lon="15.5675655" lat="46.4526732"><ele>528</ele><time>2019-09-10T17:10:46.000Z</time></trkpt><trkpt lon="15.5675655" lat="46.4526732"><ele>528</ele><time>2019-09-10T17:10:47.000Z</time></trkpt><trkpt lon="15.5676454" lat="46.4527284"><ele>527</ele><time>2019-09-10T17:10:48.000Z</time></trkpt><trkpt lon="15.5677523" lat="46.4528024"><ele>527</ele><time>2019-09-10T17:10:49.000Z</time></trkpt><trkpt lon="15.567801" lat="46.4528326"><ele>526</ele><time>2019-09-10T17:10:50.000Z</time></trkpt><trkpt lon="15.567801" lat="46.4528326"><ele>526</ele><time>2019-09-10T17:10:51.000Z</time></trkpt><trkpt lon="15.567801" lat="46.4528326"><ele>526</ele><time>2019-09-10T17:10:52.000Z</time></trkpt><trkpt lon="15.5679067" lat="46.4528776"><ele>527</ele><time>2019-09-10T17:10:53.000Z</time></trkpt><trkpt lon="15.5679677" lat="46.4528923"><ele>526</ele><time>2019-09-10T17:10:54.000Z</time></trkpt><trkpt lon="15.5680984" lat="46.4529272"><ele>526</ele><time>2019-09-10T17:10:55.000Z</time></trkpt><trkpt lon="15.5681639" lat="46.4529466"><ele>527</ele><time>2019-09-10T17:10:56.000Z</time></trkpt><trkpt lon="15.5681639" lat="46.4529466"><ele>527</ele><time>2019-09-10T17:10:57.000Z</time></trkpt><trkpt lon="15.5682974" lat="46.4529793"><ele>528</ele><time>2019-09-10T17:10:58.000Z</time></trkpt><trkpt lon="15.5683595" lat="46.4529845"><ele>528</ele><time>2019-09-10T17:10:59.000Z</time></trkpt><trkpt lon="15.5683595" lat="46.4529845"><ele>528</ele><time>2019-09-10T17:11:00.000Z</time></trkpt><trkpt lon="15.5685062" lat="46.4529847"><ele>527</ele><time>2019-09-10T17:11:01.000Z</time></trkpt><trkpt lon="15.5685792" lat="46.4529942"><ele>527</ele><time>2019-09-10T17:11:02.000Z</time></trkpt><trkpt lon="15.5685792" lat="46.4529942"><ele>527</ele><time>2019-09-10T17:11:03.000Z</time></trkpt><trkpt lon="15.56865" lat="46.452998"><ele>527</ele><time>2019-09-10T17:11:04.000Z</time></trkpt><trkpt lon="15.5687963" lat="46.4530043"><ele>526</ele><time>2019-09-10T17:11:05.000Z</time></trkpt><trkpt lon="15.5687963" lat="46.4530043"><ele>526</ele><time>2019-09-10T17:11:06.000Z</time></trkpt><trkpt lon="15.5689281" lat="46.4530245"><ele>527</ele><time>2019-09-10T17:11:07.000Z</time></trkpt><trkpt lon="15.5689281" lat="46.4530245"><ele>527</ele><time>2019-09-10T17:11:08.000Z</time></trkpt><trkpt lon="15.569037" lat="46.4530397"><ele>527</ele><time>2019-09-10T17:11:09.000Z</time></trkpt><trkpt lon="15.569037" lat="46.4530397"><ele>527</ele><time>2019-09-10T17:11:10.000Z</time></trkpt><trkpt lon="15.5691044" lat="46.4530481"><ele>528</ele><time>2019-09-10T17:11:11.000Z</time></trkpt><trkpt lon="15.5691044" lat="46.4530481"><ele>528</ele><time>2019-09-10T17:11:12.000Z</time></trkpt><trkpt lon="15.5691669" lat="46.453057"><ele>529</ele><time>2019-09-10T17:11:13.000Z</time></trkpt><trkpt lon="15.5691669" lat="46.453057"><ele>529</ele><time>2019-09-10T17:11:14.000Z</time></trkpt><trkpt lon="15.5693477" lat="46.4531201"><ele>530</ele><time>2019-09-10T17:11:15.000Z</time></trkpt><trkpt lon="15.5694133" lat="46.4531454"><ele>530</ele><time>2019-09-10T17:11:16.000Z</time></trkpt><trkpt lon="15.5694133" lat="46.4531454"><ele>530</ele><time>2019-09-10T17:11:17.000Z</time></trkpt><trkpt lon="15.5695414" lat="46.4531828"><ele>530</ele><time>2019-09-10T17:11:18.000Z</time></trkpt><trkpt lon="15.5696107" lat="46.4532052"><ele>530</ele><time>2019-09-10T17:11:19.000Z</time></trkpt><trkpt lon="15.5696107" lat="46.4532052"><ele>530</ele><time>2019-09-10T17:11:20.000Z</time></trkpt><trkpt lon="15.5697422" lat="46.4532589"><ele>530</ele><time>2019-09-10T17:11:21.000Z</time></trkpt><trkpt lon="15.5697422" lat="46.4532589"><ele>530</ele><time>2019-09-10T17:11:22.000Z</time></trkpt><trkpt lon="15.5699093" lat="46.4533092"><ele>529</ele><time>2019-09-10T17:11:23.000Z</time></trkpt><trkpt lon="15.5699827" lat="46.4533473"><ele>530</ele><time>2019-09-10T17:11:24.000Z</time></trkpt><trkpt lon="15.5700481" lat="46.4533772"><ele>529</ele><time>2019-09-10T17:11:25.000Z</time></trkpt><trkpt lon="15.5700481" lat="46.4533772"><ele>529</ele><time>2019-09-10T17:11:26.000Z</time></trkpt><trkpt lon="15.5701908" lat="46.4534419"><ele>527</ele><time>2019-09-10T17:11:27.000Z</time></trkpt><trkpt lon="15.5702502" lat="46.4534835"><ele>526</ele><time>2019-09-10T17:11:28.000Z</time></trkpt><trkpt lon="15.5702502" lat="46.4534835"><ele>526</ele><time>2019-09-10T17:11:29.000Z</time></trkpt><trkpt lon="15.5703675" lat="46.4535787"><ele>525</ele><time>2019-09-10T17:11:30.000Z</time></trkpt><trkpt lon="15.5703675" lat="46.4535787"><ele>525</ele><time>2019-09-10T17:11:31.000Z</time></trkpt><trkpt lon="15.5705309" lat="46.4536702"><ele>523</ele><time>2019-09-10T17:11:32.000Z</time></trkpt><trkpt lon="15.5706221" lat="46.4537044"><ele>523</ele><time>2019-09-10T17:11:33.000Z</time></trkpt><trkpt lon="15.5706221" lat="46.4537044"><ele>523</ele><time>2019-09-10T17:11:34.000Z</time></trkpt><trkpt lon="15.5708488" lat="46.4537449"><ele>520</ele><time>2019-09-10T17:11:35.000Z</time></trkpt><trkpt lon="15.5708488" lat="46.4537449"><ele>520</ele><time>2019-09-10T17:11:36.000Z</time></trkpt><trkpt lon="15.5711098" lat="46.4537936"><ele>518</ele><time>2019-09-10T17:11:37.000Z</time></trkpt><trkpt lon="15.5712362" lat="46.4538243"><ele>518</ele><time>2019-09-10T17:11:38.000Z</time></trkpt><trkpt lon="15.5712362" lat="46.4538243"><ele>518</ele><time>2019-09-10T17:11:39.000Z</time></trkpt><trkpt lon="15.5714782" lat="46.4538757"><ele>517</ele><time>2019-09-10T17:11:40.000Z</time></trkpt><trkpt lon="15.5716047" lat="46.4538807"><ele>515</ele><time>2019-09-10T17:11:41.000Z</time></trkpt><trkpt lon="15.5716047" lat="46.4538807"><ele>515</ele><time>2019-09-10T17:11:42.000Z</time></trkpt><trkpt lon="15.5718589" lat="46.4539173"><ele>514</ele><time>2019-09-10T17:11:43.000Z</time></trkpt><trkpt lon="15.5719592" lat="46.4539624"><ele>512</ele><time>2019-09-10T17:11:44.000Z</time></trkpt><trkpt lon="15.5719592" lat="46.4539624"><ele>512</ele><time>2019-09-10T17:11:45.000Z</time></trkpt><trkpt lon="15.5721246" lat="46.4539671"><ele>511</ele><time>2019-09-10T17:11:46.000Z</time></trkpt><trkpt lon="15.572226" lat="46.4539768"><ele>508</ele><time>2019-09-10T17:11:47.000Z</time></trkpt><trkpt lon="15.572226" lat="46.4539768"><ele>508</ele><time>2019-09-10T17:11:48.000Z</time></trkpt><trkpt lon="15.572226" lat="46.4539768"><ele>508</ele><time>2019-09-10T17:11:49.000Z</time></trkpt><trkpt lon="15.572545" lat="46.4539626"><ele>508</ele><time>2019-09-10T17:11:50.000Z</time></trkpt><trkpt lon="15.5726364" lat="46.4539471"><ele>507</ele><time>2019-09-10T17:11:51.000Z</time></trkpt><trkpt lon="15.5727403" lat="46.4539299"><ele>507</ele><time>2019-09-10T17:11:52.000Z</time></trkpt><trkpt lon="15.5727403" lat="46.4539299"><ele>507</ele><time>2019-09-10T17:11:53.000Z</time></trkpt><trkpt lon="15.5729568" lat="46.4539413"><ele>506</ele><time>2019-09-10T17:11:54.000Z</time></trkpt><trkpt lon="15.5730628" lat="46.4539384"><ele>506</ele><time>2019-09-10T17:11:55.000Z</time></trkpt><trkpt lon="15.5730628" lat="46.4539384"><ele>506</ele><time>2019-09-10T17:11:56.000Z</time></trkpt><trkpt lon="15.5732096" lat="46.4539888"><ele>506</ele><time>2019-09-10T17:11:57.000Z</time></trkpt><trkpt lon="15.5733074" lat="46.4540207"><ele>506</ele><time>2019-09-10T17:11:58.000Z</time></trkpt><trkpt lon="15.5733074" lat="46.4540207"><ele>506</ele><time>2019-09-10T17:11:59.000Z</time></trkpt><trkpt lon="15.5734866" lat="46.4541437"><ele>503</ele><time>2019-09-10T17:12:00.000Z</time></trkpt><trkpt lon="15.5735379" lat="46.4542164"><ele>503</ele><time>2019-09-10T17:12:01.000Z</time></trkpt><trkpt lon="15.5735379" lat="46.4542164"><ele>503</ele><time>2019-09-10T17:12:02.000Z</time></trkpt><trkpt lon="15.5737273" lat="46.4543405"><ele>502</ele><time>2019-09-10T17:12:03.000Z</time></trkpt><trkpt lon="15.5738168" lat="46.4543747"><ele>501</ele><time>2019-09-10T17:12:04.000Z</time></trkpt><trkpt lon="15.57391" lat="46.454428"><ele>501</ele><time>2019-09-10T17:12:05.000Z</time></trkpt><trkpt lon="15.57391" lat="46.454428"><ele>501</ele><time>2019-09-10T17:12:06.000Z</time></trkpt><trkpt lon="15.5742867" lat="46.4546371"><ele>500</ele><time>2019-09-10T17:12:07.000Z</time></trkpt><trkpt lon="15.5744487" lat="46.4547244"><ele>499</ele><time>2019-09-10T17:12:08.000Z</time></trkpt><trkpt lon="15.5744487" lat="46.4547244"><ele>499</ele><time>2019-09-10T17:12:09.000Z</time></trkpt><trkpt lon="15.5747264" lat="46.4548584"><ele>498</ele><time>2019-09-10T17:12:10.000Z</time></trkpt><trkpt lon="15.5748543" lat="46.4549033"><ele>497</ele><time>2019-09-10T17:12:11.000Z</time></trkpt><trkpt lon="15.5749708" lat="46.4549915"><ele>497</ele><time>2019-09-10T17:12:12.000Z</time></trkpt><trkpt lon="15.5749708" lat="46.4549915"><ele>497</ele><time>2019-09-10T17:12:13.000Z</time></trkpt><trkpt lon="15.5751189" lat="46.455027"><ele>496</ele><time>2019-09-10T17:12:14.000Z</time></trkpt><trkpt lon="15.5752028" lat="46.4550503"><ele>495</ele><time>2019-09-10T17:12:15.000Z</time></trkpt><trkpt lon="15.5752028" lat="46.4550503"><ele>495</ele><time>2019-09-10T17:12:16.000Z</time></trkpt><trkpt lon="15.5753163" lat="46.4550864"><ele>493</ele><time>2019-09-10T17:12:17.000Z</time></trkpt><trkpt lon="15.5753163" lat="46.4550864"><ele>493</ele><time>2019-09-10T17:12:18.000Z</time></trkpt><trkpt lon="15.5754684" lat="46.455103"><ele>491</ele><time>2019-09-10T17:12:19.000Z</time></trkpt><trkpt lon="15.5754684" lat="46.455103"><ele>491</ele><time>2019-09-10T17:12:20.000Z</time></trkpt><trkpt lon="15.575645" lat="46.4550972"><ele>490</ele><time>2019-09-10T17:12:21.000Z</time></trkpt><trkpt lon="15.575645" lat="46.4550972"><ele>490</ele><time>2019-09-10T17:12:22.000Z</time></trkpt><trkpt lon="15.5758382" lat="46.4550887"><ele>488</ele><time>2019-09-10T17:12:23.000Z</time></trkpt><trkpt lon="15.5758382" lat="46.4550887"><ele>488</ele><time>2019-09-10T17:12:24.000Z</time></trkpt><trkpt lon="15.5759551" lat="46.4550279"><ele>488</ele><time>2019-09-10T17:12:25.000Z</time></trkpt><trkpt lon="15.5759956" lat="46.4549913"><ele>488</ele><time>2019-09-10T17:12:26.000Z</time></trkpt><trkpt lon="15.5759956" lat="46.4549913"><ele>488</ele><time>2019-09-10T17:12:27.000Z</time></trkpt><trkpt lon="15.5760911" lat="46.4548837"><ele>486</ele><time>2019-09-10T17:12:28.000Z</time></trkpt><trkpt lon="15.5760911" lat="46.4548837"><ele>486</ele><time>2019-09-10T17:12:29.000Z</time></trkpt><trkpt lon="15.5762499" lat="46.4547981"><ele>486</ele><time>2019-09-10T17:12:30.000Z</time></trkpt><trkpt lon="15.5763574" lat="46.4547513"><ele>485</ele><time>2019-09-10T17:12:31.000Z</time></trkpt><trkpt lon="15.5763574" lat="46.4547513"><ele>485</ele><time>2019-09-10T17:12:32.000Z</time></trkpt><trkpt lon="15.576526" lat="46.4547039"><ele>485</ele><time>2019-09-10T17:12:33.000Z</time></trkpt><trkpt lon="15.576526" lat="46.4547039"><ele>485</ele><time>2019-09-10T17:12:34.000Z</time></trkpt><trkpt lon="15.5766242" lat="46.4546862"><ele>485</ele><time>2019-09-10T17:12:35.000Z</time></trkpt><trkpt lon="15.5766242" lat="46.4546862"><ele>485</ele><time>2019-09-10T17:12:36.000Z</time></trkpt><trkpt lon="15.5766664" lat="46.4546881"><ele>484</ele><time>2019-09-10T17:12:37.000Z</time></trkpt><trkpt lon="15.5766664" lat="46.4546881"><ele>484</ele><time>2019-09-10T17:12:38.000Z</time></trkpt><trkpt lon="15.576769" lat="46.4547015"><ele>485</ele><time>2019-09-10T17:12:39.000Z</time></trkpt><trkpt lon="15.576769" lat="46.4547015"><ele>485</ele><time>2019-09-10T17:12:40.000Z</time></trkpt><trkpt lon="15.5768685" lat="46.454723"><ele>484</ele><time>2019-09-10T17:12:41.000Z</time></trkpt><trkpt lon="15.5768685" lat="46.454723"><ele>484</ele><time>2019-09-10T17:12:42.000Z</time></trkpt><trkpt lon="15.5769821" lat="46.4546971"><ele>484</ele><time>2019-09-10T17:12:43.000Z</time></trkpt><trkpt lon="15.5770604" lat="46.4546691"><ele>482</ele><time>2019-09-10T17:12:44.000Z</time></trkpt><trkpt lon="15.5770604" lat="46.4546691"><ele>482</ele><time>2019-09-10T17:12:45.000Z</time></trkpt><trkpt lon="15.577176" lat="46.4546188"><ele>482</ele><time>2019-09-10T17:12:46.000Z</time></trkpt><trkpt lon="15.577176" lat="46.4546188"><ele>482</ele><time>2019-09-10T17:12:47.000Z</time></trkpt><trkpt lon="15.5772205" lat="46.454595"><ele>481</ele><time>2019-09-10T17:12:48.000Z</time></trkpt><trkpt lon="15.5772205" lat="46.454595"><ele>481</ele><time>2019-09-10T17:12:49.000Z</time></trkpt><trkpt lon="15.5772602" lat="46.4545753"><ele>481</ele><time>2019-09-10T17:12:50.000Z</time></trkpt><trkpt lon="15.5772602" lat="46.4545753"><ele>481</ele><time>2019-09-10T17:12:51.000Z</time></trkpt><trkpt lon="15.5772602" lat="46.4545753"><ele>481</ele><time>2019-09-10T17:12:52.000Z</time></trkpt><trkpt lon="15.5773067" lat="46.4545589"><ele>481</ele><time>2019-09-10T17:12:53.000Z</time></trkpt><trkpt lon="15.5773067" lat="46.4545589"><ele>481</ele><time>2019-09-10T17:12:54.000Z</time></trkpt><trkpt lon="15.5773067" lat="46.4545589"><ele>481</ele><time>2019-09-10T17:12:55.000Z</time></trkpt><trkpt lon="15.577369" lat="46.4545433"><ele>479</ele><time>2019-09-10T17:12:56.000Z</time></trkpt><trkpt lon="15.577369" lat="46.4545433"><ele>479</ele><time>2019-09-10T17:12:57.000Z</time></trkpt><trkpt lon="15.5774276" lat="46.4545307"><ele>478</ele><time>2019-09-10T17:12:58.000Z</time></trkpt><trkpt lon="15.5774276" lat="46.4545307"><ele>478</ele><time>2019-09-10T17:12:59.000Z</time></trkpt><trkpt lon="15.5774276" lat="46.4545307"><ele>478</ele><time>2019-09-10T17:13:00.000Z</time></trkpt><trkpt lon="15.577478" lat="46.4545198"><ele>479</ele><time>2019-09-10T17:13:01.000Z</time></trkpt><trkpt lon="15.577478" lat="46.4545198"><ele>479</ele><time>2019-09-10T17:13:02.000Z</time></trkpt><trkpt lon="15.577592" lat="46.4544786"><ele>479</ele><time>2019-09-10T17:13:03.000Z</time></trkpt><trkpt lon="15.577641" lat="46.4544573"><ele>479</ele><time>2019-09-10T17:13:04.000Z</time></trkpt><trkpt lon="15.577641" lat="46.4544573"><ele>479</ele><time>2019-09-10T17:13:05.000Z</time></trkpt><trkpt lon="15.5777738" lat="46.4544074"><ele>480</ele><time>2019-09-10T17:13:06.000Z</time></trkpt><trkpt lon="15.5777738" lat="46.4544074"><ele>480</ele><time>2019-09-10T17:13:07.000Z</time></trkpt><trkpt lon="15.5779253" lat="46.454343"><ele>480</ele><time>2019-09-10T17:13:08.000Z</time></trkpt><trkpt lon="15.5779253" lat="46.454343"><ele>480</ele><time>2019-09-10T17:13:09.000Z</time></trkpt><trkpt lon="15.5780653" lat="46.4542428"><ele>478</ele><time>2019-09-10T17:13:10.000Z</time></trkpt><trkpt lon="15.5780653" lat="46.4542428"><ele>478</ele><time>2019-09-10T17:13:11.000Z</time></trkpt><trkpt lon="15.578163" lat="46.4541068"><ele>477</ele><time>2019-09-10T17:13:12.000Z</time></trkpt><trkpt lon="15.5782308" lat="46.4540391"><ele>476</ele><time>2019-09-10T17:13:13.000Z</time></trkpt><trkpt lon="15.5782308" lat="46.4540391"><ele>476</ele><time>2019-09-10T17:13:14.000Z</time></trkpt><trkpt lon="15.5783863" lat="46.4539249"><ele>475</ele><time>2019-09-10T17:13:15.000Z</time></trkpt><trkpt lon="15.5783863" lat="46.4539249"><ele>475</ele><time>2019-09-10T17:13:16.000Z</time></trkpt><trkpt lon="15.5785244" lat="46.4538098"><ele>474</ele><time>2019-09-10T17:13:17.000Z</time></trkpt><trkpt lon="15.5786077" lat="46.4537543"><ele>473</ele><time>2019-09-10T17:13:18.000Z</time></trkpt><trkpt lon="15.5786077" lat="46.4537543"><ele>473</ele><time>2019-09-10T17:13:19.000Z</time></trkpt><trkpt lon="15.5787687" lat="46.4536455"><ele>472</ele><time>2019-09-10T17:13:20.000Z</time></trkpt><trkpt lon="15.5788538" lat="46.4535964"><ele>471</ele><time>2019-09-10T17:13:21.000Z</time></trkpt><trkpt lon="15.5788538" lat="46.4535964"><ele>471</ele><time>2019-09-10T17:13:22.000Z</time></trkpt><trkpt lon="15.5790293" lat="46.453541"><ele>472</ele><time>2019-09-10T17:13:23.000Z</time></trkpt><trkpt lon="15.5790293" lat="46.453541"><ele>472</ele><time>2019-09-10T17:13:24.000Z</time></trkpt><trkpt lon="15.5792115" lat="46.4534712"><ele>471</ele><time>2019-09-10T17:13:25.000Z</time></trkpt><trkpt lon="15.579315" lat="46.4534412"><ele>471</ele><time>2019-09-10T17:13:26.000Z</time></trkpt><trkpt lon="15.579315" lat="46.4534412"><ele>471</ele><time>2019-09-10T17:13:27.000Z</time></trkpt><trkpt lon="15.579579" lat="46.4534212"><ele>466</ele><time>2019-09-10T17:13:28.000Z</time></trkpt><trkpt lon="15.579579" lat="46.4534212"><ele>466</ele><time>2019-09-10T17:13:29.000Z</time></trkpt><trkpt lon="15.5798056" lat="46.4533959"><ele>466</ele><time>2019-09-10T17:13:30.000Z</time></trkpt><trkpt lon="15.5798056" lat="46.4533959"><ele>466</ele><time>2019-09-10T17:13:31.000Z</time></trkpt><trkpt lon="15.5800295" lat="46.4533492"><ele>466</ele><time>2019-09-10T17:13:32.000Z</time></trkpt><trkpt lon="15.5801395" lat="46.4533231"><ele>466</ele><time>2019-09-10T17:13:33.000Z</time></trkpt><trkpt lon="15.5801395" lat="46.4533231"><ele>466</ele><time>2019-09-10T17:13:34.000Z</time></trkpt><trkpt lon="15.5803439" lat="46.4532709"><ele>465</ele><time>2019-09-10T17:13:35.000Z</time></trkpt><trkpt lon="15.5803439" lat="46.4532709"><ele>465</ele><time>2019-09-10T17:13:36.000Z</time></trkpt><trkpt lon="15.5805567" lat="46.4532122"><ele>465</ele><time>2019-09-10T17:13:37.000Z</time></trkpt><trkpt lon="15.5806475" lat="46.4531673"><ele>465</ele><time>2019-09-10T17:13:38.000Z</time></trkpt><trkpt lon="15.5806475" lat="46.4531673"><ele>465</ele><time>2019-09-10T17:13:39.000Z</time></trkpt><trkpt lon="15.5808145" lat="46.4530819"><ele>464</ele><time>2019-09-10T17:13:40.000Z</time></trkpt><trkpt lon="15.5808837" lat="46.4530281"><ele>463</ele><time>2019-09-10T17:13:41.000Z</time></trkpt><trkpt lon="15.5809505" lat="46.4529745"><ele>463</ele><time>2019-09-10T17:13:42.000Z</time></trkpt><trkpt lon="15.5809505" lat="46.4529745"><ele>463</ele><time>2019-09-10T17:13:43.000Z</time></trkpt><trkpt lon="15.581079" lat="46.452857"><ele>463</ele><time>2019-09-10T17:13:44.000Z</time></trkpt><trkpt lon="15.5811579" lat="46.4528001"><ele>461</ele><time>2019-09-10T17:13:45.000Z</time></trkpt><trkpt lon="15.5812267" lat="46.4527419"><ele>461</ele><time>2019-09-10T17:13:46.000Z</time></trkpt><trkpt lon="15.5812267" lat="46.4527419"><ele>461</ele><time>2019-09-10T17:13:47.000Z</time></trkpt><trkpt lon="15.5813373" lat="46.4526177"><ele>461</ele><time>2019-09-10T17:13:48.000Z</time></trkpt><trkpt lon="15.5813373" lat="46.4526177"><ele>461</ele><time>2019-09-10T17:13:49.000Z</time></trkpt><trkpt lon="15.581429" lat="46.4524757"><ele>460</ele><time>2019-09-10T17:13:50.000Z</time></trkpt><trkpt lon="15.581429" lat="46.4524757"><ele>460</ele><time>2019-09-10T17:13:51.000Z</time></trkpt><trkpt lon="15.5815205" lat="46.4523392"><ele>459</ele><time>2019-09-10T17:13:52.000Z</time></trkpt><trkpt lon="15.5815205" lat="46.4523392"><ele>459</ele><time>2019-09-10T17:13:53.000Z</time></trkpt><trkpt lon="15.5816347" lat="46.4522237"><ele>458</ele><time>2019-09-10T17:13:54.000Z</time></trkpt><trkpt lon="15.5817191" lat="46.4521797"><ele>458</ele><time>2019-09-10T17:13:55.000Z</time></trkpt><trkpt lon="15.5817191" lat="46.4521797"><ele>458</ele><time>2019-09-10T17:13:56.000Z</time></trkpt><trkpt lon="15.58192" lat="46.452128"><ele>457</ele><time>2019-09-10T17:13:57.000Z</time></trkpt><trkpt lon="15.58192" lat="46.452128"><ele>457</ele><time>2019-09-10T17:13:58.000Z</time></trkpt><trkpt lon="15.5821511" lat="46.4521159"><ele>455</ele><time>2019-09-10T17:13:59.000Z</time></trkpt><trkpt lon="15.5821511" lat="46.4521159"><ele>455</ele><time>2019-09-10T17:14:00.000Z</time></trkpt><trkpt lon="15.5823438" lat="46.4521168"><ele>454</ele><time>2019-09-10T17:14:01.000Z</time></trkpt><trkpt lon="15.5824465" lat="46.452125"><ele>454</ele><time>2019-09-10T17:14:02.000Z</time></trkpt><trkpt lon="15.5824465" lat="46.452125"><ele>454</ele><time>2019-09-10T17:14:03.000Z</time></trkpt><trkpt lon="15.5826141" lat="46.4521178"><ele>452</ele><time>2019-09-10T17:14:04.000Z</time></trkpt><trkpt lon="15.582681" lat="46.4520824"><ele>452</ele><time>2019-09-10T17:14:05.000Z</time></trkpt><trkpt lon="15.582681" lat="46.4520824"><ele>452</ele><time>2019-09-10T17:14:06.000Z</time></trkpt><trkpt lon="15.5827518" lat="46.4519703"><ele>452</ele><time>2019-09-10T17:14:07.000Z</time></trkpt><trkpt lon="15.5827485" lat="46.4519089"><ele>452</ele><time>2019-09-10T17:14:08.000Z</time></trkpt><trkpt lon="15.5827485" lat="46.4519089"><ele>452</ele><time>2019-09-10T17:14:09.000Z</time></trkpt><trkpt lon="15.5826814" lat="46.451794"><ele>451</ele><time>2019-09-10T17:14:10.000Z</time></trkpt><trkpt lon="15.5826814" lat="46.451794"><ele>451</ele><time>2019-09-10T17:14:11.000Z</time></trkpt><trkpt lon="15.5825404" lat="46.4516885"><ele>449</ele><time>2019-09-10T17:14:12.000Z</time></trkpt><trkpt lon="15.5825404" lat="46.4516885"><ele>449</ele><time>2019-09-10T17:14:13.000Z</time></trkpt><trkpt lon="15.5824849" lat="46.451536"><ele>448</ele><time>2019-09-10T17:14:14.000Z</time></trkpt><trkpt lon="15.5825142" lat="46.4514511"><ele>447</ele><time>2019-09-10T17:14:15.000Z</time></trkpt><trkpt lon="15.5825142" lat="46.4514511"><ele>447</ele><time>2019-09-10T17:14:16.000Z</time></trkpt><trkpt lon="15.5826826" lat="46.4513235"><ele>446</ele><time>2019-09-10T17:14:17.000Z</time></trkpt><trkpt lon="15.5826826" lat="46.4513235"><ele>446</ele><time>2019-09-10T17:14:18.000Z</time></trkpt><trkpt lon="15.5829159" lat="46.4512483"><ele>445</ele><time>2019-09-10T17:14:19.000Z</time></trkpt><trkpt lon="15.5829159" lat="46.4512483"><ele>445</ele><time>2019-09-10T17:14:20.000Z</time></trkpt><trkpt lon="15.583154" lat="46.4511748"><ele>445</ele><time>2019-09-10T17:14:21.000Z</time></trkpt><trkpt lon="15.583154" lat="46.4511748"><ele>445</ele><time>2019-09-10T17:14:22.000Z</time></trkpt><trkpt lon="15.5833992" lat="46.4510839"><ele>444</ele><time>2019-09-10T17:14:23.000Z</time></trkpt><trkpt lon="15.5833992" lat="46.4510839"><ele>444</ele><time>2019-09-10T17:14:24.000Z</time></trkpt><trkpt lon="15.5836763" lat="46.4510224"><ele>444</ele><time>2019-09-10T17:14:25.000Z</time></trkpt><trkpt lon="15.583832" lat="46.451031"><ele>442</ele><time>2019-09-10T17:14:26.000Z</time></trkpt><trkpt lon="15.583832" lat="46.451031"><ele>442</ele><time>2019-09-10T17:14:27.000Z</time></trkpt><trkpt lon="15.5841222" lat="46.4510612"><ele>440</ele><time>2019-09-10T17:14:28.000Z</time></trkpt><trkpt lon="15.5842621" lat="46.4510542"><ele>439</ele><time>2019-09-10T17:14:29.000Z</time></trkpt><trkpt lon="15.5843898" lat="46.4510285"><ele>439</ele><time>2019-09-10T17:14:30.000Z</time></trkpt><trkpt lon="15.5843898" lat="46.4510285"><ele>439</ele><time>2019-09-10T17:14:31.000Z</time></trkpt><trkpt lon="15.5845157" lat="46.4508948"><ele>441</ele><time>2019-09-10T17:14:32.000Z</time></trkpt><trkpt lon="15.5845157" lat="46.4508948"><ele>441</ele><time>2019-09-10T17:14:33.000Z</time></trkpt><trkpt lon="15.5845268" lat="46.450746"><ele>441</ele><time>2019-09-10T17:14:34.000Z</time></trkpt><trkpt lon="15.5845256" lat="46.4506821"><ele>441</ele><time>2019-09-10T17:14:35.000Z</time></trkpt><trkpt lon="15.5845256" lat="46.4506821"><ele>441</ele><time>2019-09-10T17:14:36.000Z</time></trkpt><trkpt lon="15.584634" lat="46.4505654"><ele>443</ele><time>2019-09-10T17:14:37.000Z</time></trkpt><trkpt lon="15.584634" lat="46.4505654"><ele>443</ele><time>2019-09-10T17:14:38.000Z</time></trkpt><trkpt lon="15.5847673" lat="46.4504825"><ele>443</ele><time>2019-09-10T17:14:39.000Z</time></trkpt><trkpt lon="15.5848442" lat="46.4504543"><ele>443</ele><time>2019-09-10T17:14:40.000Z</time></trkpt><trkpt lon="15.5849068" lat="46.4504135"><ele>442</ele><time>2019-09-10T17:14:41.000Z</time></trkpt><trkpt lon="15.5849068" lat="46.4504135"><ele>442</ele><time>2019-09-10T17:14:42.000Z</time></trkpt><trkpt lon="15.5849881" lat="46.4503127"><ele>440</ele><time>2019-09-10T17:14:43.000Z</time></trkpt><trkpt lon="15.5850274" lat="46.4502619"><ele>442</ele><time>2019-09-10T17:14:44.000Z</time></trkpt><trkpt lon="15.5850854" lat="46.4502183"><ele>441</ele><time>2019-09-10T17:14:45.000Z</time></trkpt><trkpt lon="15.5851436" lat="46.4501761"><ele>442</ele><time>2019-09-10T17:14:46.000Z</time></trkpt><trkpt lon="15.5851436" lat="46.4501761"><ele>442</ele><time>2019-09-10T17:14:47.000Z</time></trkpt><trkpt lon="15.5852706" lat="46.4500933"><ele>441</ele><time>2019-09-10T17:14:48.000Z</time></trkpt><trkpt lon="15.585331" lat="46.4500526"><ele>441</ele><time>2019-09-10T17:14:49.000Z</time></trkpt><trkpt lon="15.585331" lat="46.4500526"><ele>441</ele><time>2019-09-10T17:14:50.000Z</time></trkpt><trkpt lon="15.5854458" lat="46.4499627"><ele>440</ele><time>2019-09-10T17:14:51.000Z</time></trkpt><trkpt lon="15.5855039" lat="46.4499184"><ele>440</ele><time>2019-09-10T17:14:52.000Z</time></trkpt><trkpt lon="15.5855039" lat="46.4499184"><ele>440</ele><time>2019-09-10T17:14:53.000Z</time></trkpt><trkpt lon="15.5856278" lat="46.4498308"><ele>440</ele><time>2019-09-10T17:14:54.000Z</time></trkpt><trkpt lon="15.5856961" lat="46.4497891"><ele>440</ele><time>2019-09-10T17:14:55.000Z</time></trkpt><trkpt lon="15.5857711" lat="46.4497528"><ele>440</ele><time>2019-09-10T17:14:56.000Z</time></trkpt><trkpt lon="15.5857711" lat="46.4497528"><ele>440</ele><time>2019-09-10T17:14:57.000Z</time></trkpt><trkpt lon="15.5859506" lat="46.4497083"><ele>439</ele><time>2019-09-10T17:14:58.000Z</time></trkpt><trkpt lon="15.5859506" lat="46.4497083"><ele>439</ele><time>2019-09-10T17:14:59.000Z</time></trkpt><trkpt lon="15.5861364" lat="46.4496892"><ele>438</ele><time>2019-09-10T17:15:00.000Z</time></trkpt><trkpt lon="15.5862305" lat="46.4496845"><ele>438</ele><time>2019-09-10T17:15:01.000Z</time></trkpt><trkpt lon="15.5863228" lat="46.4496785"><ele>437</ele><time>2019-09-10T17:15:02.000Z</time></trkpt><trkpt lon="15.5863228" lat="46.4496785"><ele>437</ele><time>2019-09-10T17:15:03.000Z</time></trkpt><trkpt lon="15.5865041" lat="46.4496616"><ele>437</ele><time>2019-09-10T17:15:04.000Z</time></trkpt><trkpt lon="15.5865041" lat="46.4496616"><ele>437</ele><time>2019-09-10T17:15:05.000Z</time></trkpt><trkpt lon="15.5866805" lat="46.4496403"><ele>436</ele><time>2019-09-10T17:15:06.000Z</time></trkpt><trkpt lon="15.5866805" lat="46.4496403"><ele>436</ele><time>2019-09-10T17:15:07.000Z</time></trkpt><trkpt lon="15.5868527" lat="46.4496132"><ele>436</ele><time>2019-09-10T17:15:08.000Z</time></trkpt><trkpt lon="15.5869345" lat="46.4495936"><ele>436</ele><time>2019-09-10T17:15:09.000Z</time></trkpt><trkpt lon="15.5869345" lat="46.4495936"><ele>436</ele><time>2019-09-10T17:15:10.000Z</time></trkpt><trkpt lon="15.5870872" lat="46.4495581"><ele>437</ele><time>2019-09-10T17:15:11.000Z</time></trkpt><trkpt lon="15.5870872" lat="46.4495581"><ele>437</ele><time>2019-09-10T17:15:12.000Z</time></trkpt><trkpt lon="15.5872257" lat="46.4495196"><ele>437</ele><time>2019-09-10T17:15:13.000Z</time></trkpt><trkpt lon="15.5872257" lat="46.4495196"><ele>437</ele><time>2019-09-10T17:15:14.000Z</time></trkpt><trkpt lon="15.5873818" lat="46.4494996"><ele>436</ele><time>2019-09-10T17:15:15.000Z</time></trkpt><trkpt lon="15.5873818" lat="46.4494996"><ele>436</ele><time>2019-09-10T17:15:16.000Z</time></trkpt><trkpt lon="15.5875144" lat="46.4494766"><ele>436</ele><time>2019-09-10T17:15:17.000Z</time></trkpt><trkpt lon="15.5875144" lat="46.4494766"><ele>436</ele><time>2019-09-10T17:15:18.000Z</time></trkpt><trkpt lon="15.5876473" lat="46.4494566"><ele>436</ele><time>2019-09-10T17:15:19.000Z</time></trkpt><trkpt lon="15.5876473" lat="46.4494566"><ele>436</ele><time>2019-09-10T17:15:20.000Z</time></trkpt><trkpt lon="15.5877721" lat="46.4494242"><ele>436</ele><time>2019-09-10T17:15:21.000Z</time></trkpt><trkpt lon="15.5877721" lat="46.4494242"><ele>436</ele><time>2019-09-10T17:15:22.000Z</time></trkpt><trkpt lon="15.5878801" lat="46.4493841"><ele>436</ele><time>2019-09-10T17:15:23.000Z</time></trkpt><trkpt lon="15.5879304" lat="46.4493638"><ele>436</ele><time>2019-09-10T17:15:24.000Z</time></trkpt><trkpt lon="15.5879304" lat="46.4493638"><ele>436</ele><time>2019-09-10T17:15:25.000Z</time></trkpt><trkpt lon="15.5879749" lat="46.44934"><ele>436</ele><time>2019-09-10T17:15:26.000Z</time></trkpt><trkpt lon="15.5879749" lat="46.44934"><ele>436</ele><time>2019-09-10T17:15:27.000Z</time></trkpt><trkpt lon="15.588077" lat="46.4492871"><ele>437</ele><time>2019-09-10T17:15:28.000Z</time></trkpt><trkpt lon="15.588077" lat="46.4492871"><ele>437</ele><time>2019-09-10T17:15:29.000Z</time></trkpt><trkpt lon="15.588151" lat="46.449241"><ele>437</ele><time>2019-09-10T17:15:30.000Z</time></trkpt><trkpt lon="15.588151" lat="46.449241"><ele>437</ele><time>2019-09-10T17:15:31.000Z</time></trkpt><trkpt lon="15.5882198" lat="46.4491996"><ele>437</ele><time>2019-09-10T17:15:32.000Z</time></trkpt><trkpt lon="15.5882534" lat="46.4491818"><ele>437</ele><time>2019-09-10T17:15:33.000Z</time></trkpt><trkpt lon="15.5882534" lat="46.4491818"><ele>437</ele><time>2019-09-10T17:15:34.000Z</time></trkpt><trkpt lon="15.5883101" lat="46.4491435"><ele>438</ele><time>2019-09-10T17:15:35.000Z</time></trkpt><trkpt lon="15.5883389" lat="46.4491236"><ele>438</ele><time>2019-09-10T17:15:36.000Z</time></trkpt><trkpt lon="15.5883389" lat="46.4491236"><ele>438</ele><time>2019-09-10T17:15:37.000Z</time></trkpt><trkpt lon="15.5884138" lat="46.4490886"><ele>438</ele><time>2019-09-10T17:15:38.000Z</time></trkpt><trkpt lon="15.588452" lat="46.4490731"><ele>438</ele><time>2019-09-10T17:15:39.000Z</time></trkpt><trkpt lon="15.588452" lat="46.4490731"><ele>438</ele><time>2019-09-10T17:15:40.000Z</time></trkpt><trkpt lon="15.588543" lat="46.4490458"><ele>438</ele><time>2019-09-10T17:15:41.000Z</time></trkpt><trkpt lon="15.588543" lat="46.4490458"><ele>438</ele><time>2019-09-10T17:15:42.000Z</time></trkpt><trkpt lon="15.5886342" lat="46.4490193"><ele>438</ele><time>2019-09-10T17:15:43.000Z</time></trkpt><trkpt lon="15.5886342" lat="46.4490193"><ele>438</ele><time>2019-09-10T17:15:44.000Z</time></trkpt><trkpt lon="15.5887638" lat="46.4489779"><ele>437</ele><time>2019-09-10T17:15:45.000Z</time></trkpt><trkpt lon="15.5887638" lat="46.4489779"><ele>437</ele><time>2019-09-10T17:15:46.000Z</time></trkpt><trkpt lon="15.5888866" lat="46.4489278"><ele>437</ele><time>2019-09-10T17:15:47.000Z</time></trkpt><trkpt lon="15.5888866" lat="46.4489278"><ele>437</ele><time>2019-09-10T17:15:48.000Z</time></trkpt><trkpt lon="15.5890241" lat="46.4488614"><ele>437</ele><time>2019-09-10T17:15:49.000Z</time></trkpt><trkpt lon="15.5890241" lat="46.4488614"><ele>437</ele><time>2019-09-10T17:15:50.000Z</time></trkpt><trkpt lon="15.5891648" lat="46.4487855"><ele>436</ele><time>2019-09-10T17:15:51.000Z</time></trkpt><trkpt lon="15.5891648" lat="46.4487855"><ele>436</ele><time>2019-09-10T17:15:52.000Z</time></trkpt><trkpt lon="15.5893206" lat="46.4487074"><ele>436</ele><time>2019-09-10T17:15:53.000Z</time></trkpt><trkpt lon="15.5893206" lat="46.4487074"><ele>436</ele><time>2019-09-10T17:15:54.000Z</time></trkpt><trkpt lon="15.5894903" lat="46.4486228"><ele>435</ele><time>2019-09-10T17:15:55.000Z</time></trkpt><trkpt lon="15.5894903" lat="46.4486228"><ele>435</ele><time>2019-09-10T17:15:56.000Z</time></trkpt><trkpt lon="15.5896703" lat="46.4485383"><ele>434</ele><time>2019-09-10T17:15:57.000Z</time></trkpt><trkpt lon="15.5897623" lat="46.4484916"><ele>434</ele><time>2019-09-10T17:15:58.000Z</time></trkpt><trkpt lon="15.5897623" lat="46.4484916"><ele>434</ele><time>2019-09-10T17:15:59.000Z</time></trkpt><trkpt lon="15.5899375" lat="46.4483731"><ele>432</ele><time>2019-09-10T17:16:00.000Z</time></trkpt><trkpt lon="15.5899375" lat="46.4483731"><ele>432</ele><time>2019-09-10T17:16:01.000Z</time></trkpt><trkpt lon="15.5900575" lat="46.4482121"><ele>431</ele><time>2019-09-10T17:16:02.000Z</time></trkpt><trkpt lon="15.5900575" lat="46.4482121"><ele>431</ele><time>2019-09-10T17:16:03.000Z</time></trkpt><trkpt lon="15.5902379" lat="46.4480665"><ele>430</ele><time>2019-09-10T17:16:04.000Z</time></trkpt><trkpt lon="15.5902379" lat="46.4480665"><ele>430</ele><time>2019-09-10T17:16:05.000Z</time></trkpt><trkpt lon="15.5904728" lat="46.4479469"><ele>428</ele><time>2019-09-10T17:16:06.000Z</time></trkpt><trkpt lon="15.5906086" lat="46.4479007"><ele>427</ele><time>2019-09-10T17:16:07.000Z</time></trkpt><trkpt lon="15.5906086" lat="46.4479007"><ele>427</ele><time>2019-09-10T17:16:08.000Z</time></trkpt><trkpt lon="15.5908938" lat="46.447818"><ele>426</ele><time>2019-09-10T17:16:09.000Z</time></trkpt><trkpt lon="15.5908938" lat="46.447818"><ele>426</ele><time>2019-09-10T17:16:10.000Z</time></trkpt><trkpt lon="15.591169" lat="46.4477115"><ele>425</ele><time>2019-09-10T17:16:11.000Z</time></trkpt><trkpt lon="15.591169" lat="46.4477115"><ele>425</ele><time>2019-09-10T17:16:12.000Z</time></trkpt><trkpt lon="15.5914048" lat="46.4475516"><ele>424</ele><time>2019-09-10T17:16:13.000Z</time></trkpt><trkpt lon="15.5914048" lat="46.4475516"><ele>424</ele><time>2019-09-10T17:16:14.000Z</time></trkpt><trkpt lon="15.5916954" lat="46.4474361"><ele>422</ele><time>2019-09-10T17:16:15.000Z</time></trkpt><trkpt lon="15.5916954" lat="46.4474361"><ele>422</ele><time>2019-09-10T17:16:16.000Z</time></trkpt><trkpt lon="15.5920229" lat="46.4473615"><ele>420</ele><time>2019-09-10T17:16:17.000Z</time></trkpt><trkpt lon="15.5920229" lat="46.4473615"><ele>420</ele><time>2019-09-10T17:16:18.000Z</time></trkpt><trkpt lon="15.5923583" lat="46.4472945"><ele>418</ele><time>2019-09-10T17:16:19.000Z</time></trkpt><trkpt lon="15.5923583" lat="46.4472945"><ele>418</ele><time>2019-09-10T17:16:20.000Z</time></trkpt><trkpt lon="15.5926689" lat="46.4472039"><ele>417</ele><time>2019-09-10T17:16:21.000Z</time></trkpt><trkpt lon="15.5928109" lat="46.4471508"><ele>416</ele><time>2019-09-10T17:16:22.000Z</time></trkpt><trkpt lon="15.5929455" lat="46.4470925"><ele>416</ele><time>2019-09-10T17:16:23.000Z</time></trkpt><trkpt lon="15.5930723" lat="46.4470303"><ele>416</ele><time>2019-09-10T17:16:24.000Z</time></trkpt><trkpt lon="15.5930723" lat="46.4470303"><ele>416</ele><time>2019-09-10T17:16:25.000Z</time></trkpt><trkpt lon="15.5933099" lat="46.4468999"><ele>415</ele><time>2019-09-10T17:16:26.000Z</time></trkpt><trkpt lon="15.5934227" lat="46.4468341"><ele>415</ele><time>2019-09-10T17:16:27.000Z</time></trkpt><trkpt lon="15.5934227" lat="46.4468341"><ele>415</ele><time>2019-09-10T17:16:28.000Z</time></trkpt><trkpt lon="15.5936387" lat="46.4467016"><ele>414</ele><time>2019-09-10T17:16:29.000Z</time></trkpt><trkpt lon="15.5937409" lat="46.4466348"><ele>414</ele><time>2019-09-10T17:16:30.000Z</time></trkpt><trkpt lon="15.5938367" lat="46.4465658"><ele>414</ele><time>2019-09-10T17:16:31.000Z</time></trkpt><trkpt lon="15.5938367" lat="46.4465658"><ele>414</ele><time>2019-09-10T17:16:32.000Z</time></trkpt><trkpt lon="15.5940024" lat="46.4464167"><ele>413</ele><time>2019-09-10T17:16:33.000Z</time></trkpt><trkpt lon="15.5940674" lat="46.4463349"><ele>413</ele><time>2019-09-10T17:16:34.000Z</time></trkpt><trkpt lon="15.5941251" lat="46.4462505"><ele>413</ele><time>2019-09-10T17:16:35.000Z</time></trkpt><trkpt lon="15.5941251" lat="46.4462505"><ele>413</ele><time>2019-09-10T17:16:36.000Z</time></trkpt><trkpt lon="15.5942392" lat="46.4460839"><ele>412</ele><time>2019-09-10T17:16:37.000Z</time></trkpt><trkpt lon="15.5942392" lat="46.4460839"><ele>412</ele><time>2019-09-10T17:16:38.000Z</time></trkpt><trkpt lon="15.5943899" lat="46.4459331"><ele>412</ele><time>2019-09-10T17:16:39.000Z</time></trkpt><trkpt lon="15.5944682" lat="46.4458663"><ele>411</ele><time>2019-09-10T17:16:40.000Z</time></trkpt><trkpt lon="15.5944682" lat="46.4458663"><ele>411</ele><time>2019-09-10T17:16:41.000Z</time></trkpt><trkpt lon="15.5946428" lat="46.4457477"><ele>411</ele><time>2019-09-10T17:16:42.000Z</time></trkpt><trkpt lon="15.5947339" lat="46.4456895"><ele>411</ele><time>2019-09-10T17:16:43.000Z</time></trkpt><trkpt lon="15.5947339" lat="46.4456895"><ele>411</ele><time>2019-09-10T17:16:44.000Z</time></trkpt><trkpt lon="15.5949004" lat="46.4455746"><ele>412</ele><time>2019-09-10T17:16:45.000Z</time></trkpt><trkpt lon="15.5949812" lat="46.4455136"><ele>412</ele><time>2019-09-10T17:16:46.000Z</time></trkpt><trkpt lon="15.5949812" lat="46.4455136"><ele>412</ele><time>2019-09-10T17:16:47.000Z</time></trkpt><trkpt lon="15.5951198" lat="46.4453739"><ele>412</ele><time>2019-09-10T17:16:48.000Z</time></trkpt><trkpt lon="15.5951198" lat="46.4453739"><ele>412</ele><time>2019-09-10T17:16:49.000Z</time></trkpt><trkpt lon="15.5952687" lat="46.4452426"><ele>411</ele><time>2019-09-10T17:16:50.000Z</time></trkpt><trkpt lon="15.5953372" lat="46.4451761"><ele>413</ele><time>2019-09-10T17:16:51.000Z</time></trkpt><trkpt lon="15.5954194" lat="46.4451147"><ele>413</ele><time>2019-09-10T17:16:52.000Z</time></trkpt><trkpt lon="15.5954194" lat="46.4451147"><ele>413</ele><time>2019-09-10T17:16:53.000Z</time></trkpt><trkpt lon="15.5955647" lat="46.4449819"><ele>412</ele><time>2019-09-10T17:16:54.000Z</time></trkpt><trkpt lon="15.5955647" lat="46.4449819"><ele>412</ele><time>2019-09-10T17:16:55.000Z</time></trkpt><trkpt lon="15.5957264" lat="46.4448515"><ele>410</ele><time>2019-09-10T17:16:56.000Z</time></trkpt><trkpt lon="15.595806" lat="46.4447819"><ele>409</ele><time>2019-09-10T17:16:57.000Z</time></trkpt><trkpt lon="15.595806" lat="46.4447819"><ele>409</ele><time>2019-09-10T17:16:58.000Z</time></trkpt><trkpt lon="15.5959472" lat="46.4446369"><ele>408</ele><time>2019-09-10T17:16:59.000Z</time></trkpt><trkpt lon="15.5960159" lat="46.4445625"><ele>408</ele><time>2019-09-10T17:17:00.000Z</time></trkpt><trkpt lon="15.5960159" lat="46.4445625"><ele>408</ele><time>2019-09-10T17:17:01.000Z</time></trkpt><trkpt lon="15.5961531" lat="46.4444103"><ele>407</ele><time>2019-09-10T17:17:02.000Z</time></trkpt><trkpt lon="15.5962187" lat="46.4443326"><ele>406</ele><time>2019-09-10T17:17:03.000Z</time></trkpt><trkpt lon="15.5962835" lat="46.4442541"><ele>405</ele><time>2019-09-10T17:17:04.000Z</time></trkpt><trkpt lon="15.5963489" lat="46.4441767"><ele>405</ele><time>2019-09-10T17:17:05.000Z</time></trkpt><trkpt lon="15.5963489" lat="46.4441767"><ele>405</ele><time>2019-09-10T17:17:06.000Z</time></trkpt><trkpt lon="15.5964794" lat="46.4440261"><ele>404</ele><time>2019-09-10T17:17:07.000Z</time></trkpt><trkpt lon="15.596536" lat="46.4439489"><ele>404</ele><time>2019-09-10T17:17:08.000Z</time></trkpt><trkpt lon="15.596536" lat="46.4439489"><ele>404</ele><time>2019-09-10T17:17:09.000Z</time></trkpt><trkpt lon="15.5966248" lat="46.4437933"><ele>404</ele><time>2019-09-10T17:17:10.000Z</time></trkpt><trkpt lon="15.5966248" lat="46.4437933"><ele>404</ele><time>2019-09-10T17:17:11.000Z</time></trkpt><trkpt lon="15.5966933" lat="46.4436441"><ele>404</ele><time>2019-09-10T17:17:12.000Z</time></trkpt><trkpt lon="15.596713" lat="46.4435672"><ele>404</ele><time>2019-09-10T17:17:13.000Z</time></trkpt><trkpt lon="15.596713" lat="46.4435672"><ele>404</ele><time>2019-09-10T17:17:14.000Z</time></trkpt><trkpt lon="15.5967816" lat="46.443412"><ele>404</ele><time>2019-09-10T17:17:15.000Z</time></trkpt><trkpt lon="15.5968487" lat="46.4433451"><ele>403</ele><time>2019-09-10T17:17:16.000Z</time></trkpt><trkpt lon="15.5968487" lat="46.4433451"><ele>403</ele><time>2019-09-10T17:17:17.000Z</time></trkpt><trkpt lon="15.5970277" lat="46.443234"><ele>402</ele><time>2019-09-10T17:17:18.000Z</time></trkpt><trkpt lon="15.5970277" lat="46.443234"><ele>402</ele><time>2019-09-10T17:17:19.000Z</time></trkpt><trkpt lon="15.5972363" lat="46.4431587"><ele>401</ele><time>2019-09-10T17:17:20.000Z</time></trkpt><trkpt lon="15.5972363" lat="46.4431587"><ele>401</ele><time>2019-09-10T17:17:21.000Z</time></trkpt><trkpt lon="15.5974441" lat="46.4430925"><ele>400</ele><time>2019-09-10T17:17:22.000Z</time></trkpt><trkpt lon="15.5975478" lat="46.4430602"><ele>399</ele><time>2019-09-10T17:17:23.000Z</time></trkpt><trkpt lon="15.5976509" lat="46.4430261"><ele>399</ele><time>2019-09-10T17:17:24.000Z</time></trkpt><trkpt lon="15.5976509" lat="46.4430261"><ele>399</ele><time>2019-09-10T17:17:25.000Z</time></trkpt><trkpt lon="15.5978296" lat="46.4429397"><ele>399</ele><time>2019-09-10T17:17:26.000Z</time></trkpt><trkpt lon="15.5978296" lat="46.4429397"><ele>399</ele><time>2019-09-10T17:17:27.000Z</time></trkpt><trkpt lon="15.5979632" lat="46.4428191"><ele>398</ele><time>2019-09-10T17:17:28.000Z</time></trkpt><trkpt lon="15.5980084" lat="46.4427487"><ele>398</ele><time>2019-09-10T17:17:29.000Z</time></trkpt><trkpt lon="15.5980084" lat="46.4427487"><ele>398</ele><time>2019-09-10T17:17:30.000Z</time></trkpt><trkpt lon="15.5980913" lat="46.4426044"><ele>397</ele><time>2019-09-10T17:17:31.000Z</time></trkpt><trkpt lon="15.5981313" lat="46.4425311"><ele>397</ele><time>2019-09-10T17:17:32.000Z</time></trkpt><trkpt lon="15.5981707" lat="46.4424573"><ele>397</ele><time>2019-09-10T17:17:33.000Z</time></trkpt><trkpt lon="15.5981707" lat="46.4424573"><ele>397</ele><time>2019-09-10T17:17:34.000Z</time></trkpt><trkpt lon="15.5982488" lat="46.4423073"><ele>396</ele><time>2019-09-10T17:17:35.000Z</time></trkpt><trkpt lon="15.5982866" lat="46.4422316"><ele>396</ele><time>2019-09-10T17:17:36.000Z</time></trkpt><trkpt lon="15.5982866" lat="46.4422316"><ele>396</ele><time>2019-09-10T17:17:37.000Z</time></trkpt><trkpt lon="15.5983627" lat="46.4420797"><ele>395</ele><time>2019-09-10T17:17:38.000Z</time></trkpt><trkpt lon="15.5983627" lat="46.4420797"><ele>395</ele><time>2019-09-10T17:17:39.000Z</time></trkpt><trkpt lon="15.5984215" lat="46.4419232"><ele>395</ele><time>2019-09-10T17:17:40.000Z</time></trkpt><trkpt lon="15.5984485" lat="46.4418437"><ele>395</ele><time>2019-09-10T17:17:41.000Z</time></trkpt><trkpt lon="15.5984485" lat="46.4418437"><ele>395</ele><time>2019-09-10T17:17:42.000Z</time></trkpt><trkpt lon="15.5985061" lat="46.4416873"><ele>395</ele><time>2019-09-10T17:17:43.000Z</time></trkpt><trkpt lon="15.5985061" lat="46.4416873"><ele>395</ele><time>2019-09-10T17:17:44.000Z</time></trkpt><trkpt lon="15.5985568" lat="46.4415369"><ele>395</ele><time>2019-09-10T17:17:45.000Z</time></trkpt><trkpt lon="15.5985954" lat="46.4414611"><ele>394</ele><time>2019-09-10T17:17:46.000Z</time></trkpt><trkpt lon="15.5985954" lat="46.4414611"><ele>394</ele><time>2019-09-10T17:17:47.000Z</time></trkpt><trkpt lon="15.598689" lat="46.4413221"><ele>395</ele><time>2019-09-10T17:17:48.000Z</time></trkpt><trkpt lon="15.598689" lat="46.4413221"><ele>395</ele><time>2019-09-10T17:17:49.000Z</time></trkpt><trkpt lon="15.5987853" lat="46.4411883"><ele>395</ele><time>2019-09-10T17:17:50.000Z</time></trkpt><trkpt lon="15.5988395" lat="46.4411224"><ele>395</ele><time>2019-09-10T17:17:51.000Z</time></trkpt><trkpt lon="15.5988395" lat="46.4411224"><ele>395</ele><time>2019-09-10T17:17:52.000Z</time></trkpt><trkpt lon="15.5989776" lat="46.4410197"><ele>395</ele><time>2019-09-10T17:17:53.000Z</time></trkpt><trkpt lon="15.5990432" lat="46.4409701"><ele>395</ele><time>2019-09-10T17:17:54.000Z</time></trkpt><trkpt lon="15.5991108" lat="46.4409219"><ele>395</ele><time>2019-09-10T17:17:55.000Z</time></trkpt><trkpt lon="15.5991108" lat="46.4409219"><ele>395</ele><time>2019-09-10T17:17:56.000Z</time></trkpt><trkpt lon="15.5992363" lat="46.4408217"><ele>394</ele><time>2019-09-10T17:17:57.000Z</time></trkpt><trkpt lon="15.5992363" lat="46.4408217"><ele>394</ele><time>2019-09-10T17:17:58.000Z</time></trkpt><trkpt lon="15.5993745" lat="46.4407277"><ele>394</ele><time>2019-09-10T17:17:59.000Z</time></trkpt><trkpt lon="15.5993745" lat="46.4407277"><ele>394</ele><time>2019-09-10T17:18:00.000Z</time></trkpt><trkpt lon="15.5995048" lat="46.4406298"><ele>394</ele><time>2019-09-10T17:18:01.000Z</time></trkpt><trkpt lon="15.5995655" lat="46.4405771"><ele>394</ele><time>2019-09-10T17:18:02.000Z</time></trkpt><trkpt lon="15.5995655" lat="46.4405771"><ele>394</ele><time>2019-09-10T17:18:03.000Z</time></trkpt><trkpt lon="15.5996842" lat="46.4404622"><ele>393</ele><time>2019-09-10T17:18:04.000Z</time></trkpt><trkpt lon="15.5997447" lat="46.4404027"><ele>393</ele><time>2019-09-10T17:18:05.000Z</time></trkpt><trkpt lon="15.5998033" lat="46.440341"><ele>393</ele><time>2019-09-10T17:18:06.000Z</time></trkpt><trkpt lon="15.5998033" lat="46.440341"><ele>393</ele><time>2019-09-10T17:18:07.000Z</time></trkpt><trkpt lon="15.5999183" lat="46.4402137"><ele>392</ele><time>2019-09-10T17:18:08.000Z</time></trkpt><trkpt lon="15.5999738" lat="46.4401479"><ele>392</ele><time>2019-09-10T17:18:09.000Z</time></trkpt><trkpt lon="15.5999738" lat="46.4401479"><ele>392</ele><time>2019-09-10T17:18:10.000Z</time></trkpt><trkpt lon="15.6000908" lat="46.4400177"><ele>392</ele><time>2019-09-10T17:18:11.000Z</time></trkpt><trkpt lon="15.6001501" lat="46.4399532"><ele>392</ele><time>2019-09-10T17:18:12.000Z</time></trkpt><trkpt lon="15.6002066" lat="46.4398884"><ele>391</ele><time>2019-09-10T17:18:13.000Z</time></trkpt><trkpt lon="15.6002635" lat="46.4398248"><ele>391</ele><time>2019-09-10T17:18:14.000Z</time></trkpt><trkpt lon="15.6002635" lat="46.4398248"><ele>391</ele><time>2019-09-10T17:18:15.000Z</time></trkpt><trkpt lon="15.6003806" lat="46.4397009"><ele>391</ele><time>2019-09-10T17:18:16.000Z</time></trkpt><trkpt lon="15.6003806" lat="46.4397009"><ele>391</ele><time>2019-09-10T17:18:17.000Z</time></trkpt><trkpt lon="15.6004918" lat="46.4395776"><ele>391</ele><time>2019-09-10T17:18:18.000Z</time></trkpt><trkpt lon="15.6004918" lat="46.4395776"><ele>391</ele><time>2019-09-10T17:18:19.000Z</time></trkpt><trkpt lon="15.6005947" lat="46.439455"><ele>391</ele><time>2019-09-10T17:18:20.000Z</time></trkpt><trkpt lon="15.6006563" lat="46.4393961"><ele>391</ele><time>2019-09-10T17:18:21.000Z</time></trkpt><trkpt lon="15.6006563" lat="46.4393961"><ele>391</ele><time>2019-09-10T17:18:22.000Z</time></trkpt><trkpt lon="15.600746" lat="46.4392669"><ele>391</ele><time>2019-09-10T17:18:23.000Z</time></trkpt><trkpt lon="15.600746" lat="46.4392669"><ele>391</ele><time>2019-09-10T17:18:24.000Z</time></trkpt><trkpt lon="15.600798" lat="46.4391302"><ele>390</ele><time>2019-09-10T17:18:25.000Z</time></trkpt><trkpt lon="15.6008212" lat="46.4390619"><ele>390</ele><time>2019-09-10T17:18:26.000Z</time></trkpt><trkpt lon="15.6008212" lat="46.4390619"><ele>390</ele><time>2019-09-10T17:18:27.000Z</time></trkpt><trkpt lon="15.6008544" lat="46.438926"><ele>389</ele><time>2019-09-10T17:18:28.000Z</time></trkpt><trkpt lon="15.6008544" lat="46.438926"><ele>389</ele><time>2019-09-10T17:18:29.000Z</time></trkpt><trkpt lon="15.6008907" lat="46.4387855"><ele>389</ele><time>2019-09-10T17:18:30.000Z</time></trkpt><trkpt lon="15.6009079" lat="46.4387114"><ele>388</ele><time>2019-09-10T17:18:31.000Z</time></trkpt><trkpt lon="15.6009079" lat="46.4387114"><ele>388</ele><time>2019-09-10T17:18:32.000Z</time></trkpt><trkpt lon="15.6009519" lat="46.4385574"><ele>388</ele><time>2019-09-10T17:18:33.000Z</time></trkpt><trkpt lon="15.6009735" lat="46.4384778"><ele>387</ele><time>2019-09-10T17:18:34.000Z</time></trkpt><trkpt lon="15.6009735" lat="46.4384778"><ele>387</ele><time>2019-09-10T17:18:35.000Z</time></trkpt><trkpt lon="15.6010229" lat="46.4383167"><ele>387</ele><time>2019-09-10T17:18:36.000Z</time></trkpt><trkpt lon="15.6010488" lat="46.4382351"><ele>386</ele><time>2019-09-10T17:18:37.000Z</time></trkpt><trkpt lon="15.6010488" lat="46.4382351"><ele>386</ele><time>2019-09-10T17:18:38.000Z</time></trkpt><trkpt lon="15.6011105" lat="46.4380732"><ele>385</ele><time>2019-09-10T17:18:39.000Z</time></trkpt><trkpt lon="15.6011105" lat="46.4380732"><ele>385</ele><time>2019-09-10T17:18:40.000Z</time></trkpt><trkpt lon="15.6011733" lat="46.4379147"><ele>385</ele><time>2019-09-10T17:18:41.000Z</time></trkpt><trkpt lon="15.6012026" lat="46.4378376"><ele>385</ele><time>2019-09-10T17:18:42.000Z</time></trkpt><trkpt lon="15.6012341" lat="46.4377624"><ele>385</ele><time>2019-09-10T17:18:43.000Z</time></trkpt><trkpt lon="15.6012341" lat="46.4377624"><ele>385</ele><time>2019-09-10T17:18:44.000Z</time></trkpt><trkpt lon="15.6012948" lat="46.4376186"><ele>385</ele><time>2019-09-10T17:18:45.000Z</time></trkpt><trkpt lon="15.6013223" lat="46.4375489"><ele>385</ele><time>2019-09-10T17:18:46.000Z</time></trkpt><trkpt lon="15.6013458" lat="46.4374808"><ele>385</ele><time>2019-09-10T17:18:47.000Z</time></trkpt><trkpt lon="15.6013458" lat="46.4374808"><ele>385</ele><time>2019-09-10T17:18:48.000Z</time></trkpt><trkpt lon="15.601399" lat="46.4373522"><ele>385</ele><time>2019-09-10T17:18:49.000Z</time></trkpt><trkpt lon="15.6014263" lat="46.4372911"><ele>385</ele><time>2019-09-10T17:18:50.000Z</time></trkpt><trkpt lon="15.6014544" lat="46.4372304"><ele>385</ele><time>2019-09-10T17:18:51.000Z</time></trkpt><trkpt lon="15.6014544" lat="46.4372304"><ele>385</ele><time>2019-09-10T17:18:52.000Z</time></trkpt><trkpt lon="15.6015192" lat="46.4371128"><ele>385</ele><time>2019-09-10T17:18:53.000Z</time></trkpt><trkpt lon="15.6015192" lat="46.4371128"><ele>385</ele><time>2019-09-10T17:18:54.000Z</time></trkpt><trkpt lon="15.6015854" lat="46.4369962"><ele>385</ele><time>2019-09-10T17:18:55.000Z</time></trkpt><trkpt lon="15.6016188" lat="46.436937"><ele>385</ele><time>2019-09-10T17:18:56.000Z</time></trkpt><trkpt lon="15.6016188" lat="46.436937"><ele>385</ele><time>2019-09-10T17:18:57.000Z</time></trkpt><trkpt lon="15.6016899" lat="46.436821"><ele>385</ele><time>2019-09-10T17:18:58.000Z</time></trkpt><trkpt lon="15.6017272" lat="46.4367635"><ele>384</ele><time>2019-09-10T17:18:59.000Z</time></trkpt><trkpt lon="15.6017272" lat="46.4367635"><ele>384</ele><time>2019-09-10T17:19:00.000Z</time></trkpt><trkpt lon="15.6018101" lat="46.4366522"><ele>384</ele><time>2019-09-10T17:19:01.000Z</time></trkpt><trkpt lon="15.6018556" lat="46.4365991"><ele>384</ele><time>2019-09-10T17:19:02.000Z</time></trkpt><trkpt lon="15.6018556" lat="46.4365991"><ele>384</ele><time>2019-09-10T17:19:03.000Z</time></trkpt><trkpt lon="15.6019536" lat="46.4364985"><ele>384</ele><time>2019-09-10T17:19:04.000Z</time></trkpt><trkpt lon="15.6020034" lat="46.4364501"><ele>384</ele><time>2019-09-10T17:19:05.000Z</time></trkpt><trkpt lon="15.6020034" lat="46.4364501"><ele>384</ele><time>2019-09-10T17:19:06.000Z</time></trkpt><trkpt lon="15.602105" lat="46.4363542"><ele>383</ele><time>2019-09-10T17:19:07.000Z</time></trkpt><trkpt lon="15.6021543" lat="46.4363067"><ele>383</ele><time>2019-09-10T17:19:08.000Z</time></trkpt><trkpt lon="15.6022065" lat="46.4362616"><ele>383</ele><time>2019-09-10T17:19:09.000Z</time></trkpt><trkpt lon="15.6022065" lat="46.4362616"><ele>383</ele><time>2019-09-10T17:19:10.000Z</time></trkpt><trkpt lon="15.6023101" lat="46.4361671"><ele>383</ele><time>2019-09-10T17:19:11.000Z</time></trkpt><trkpt lon="15.6023101" lat="46.4361671"><ele>383</ele><time>2019-09-10T17:19:12.000Z</time></trkpt><trkpt lon="15.6024102" lat="46.4360717"><ele>383</ele><time>2019-09-10T17:19:13.000Z</time></trkpt><trkpt lon="15.6024102" lat="46.4360717"><ele>383</ele><time>2019-09-10T17:19:14.000Z</time></trkpt><trkpt lon="15.6025052" lat="46.4359748"><ele>382</ele><time>2019-09-10T17:19:15.000Z</time></trkpt><trkpt lon="15.6025452" lat="46.4359257"><ele>382</ele><time>2019-09-10T17:19:16.000Z</time></trkpt><trkpt lon="15.6025452" lat="46.4359257"><ele>382</ele><time>2019-09-10T17:19:17.000Z</time></trkpt><trkpt lon="15.6026156" lat="46.4358287"><ele>382</ele><time>2019-09-10T17:19:18.000Z</time></trkpt><trkpt lon="15.6026156" lat="46.4358287"><ele>382</ele><time>2019-09-10T17:19:19.000Z</time></trkpt><trkpt lon="15.6026726" lat="46.4357289"><ele>382</ele><time>2019-09-10T17:19:20.000Z</time></trkpt><trkpt lon="15.6026726" lat="46.4357289"><ele>382</ele><time>2019-09-10T17:19:21.000Z</time></trkpt><trkpt lon="15.6027484" lat="46.4356176"><ele>382</ele><time>2019-09-10T17:19:22.000Z</time></trkpt><trkpt lon="15.6027884" lat="46.4355615"><ele>382</ele><time>2019-09-10T17:19:23.000Z</time></trkpt><trkpt lon="15.6028326" lat="46.4355068"><ele>382</ele><time>2019-09-10T17:19:24.000Z</time></trkpt><trkpt lon="15.6028771" lat="46.4354512"><ele>382</ele><time>2019-09-10T17:19:25.000Z</time></trkpt><trkpt lon="15.6029201" lat="46.4353947"><ele>381</ele><time>2019-09-10T17:19:26.000Z</time></trkpt><trkpt lon="15.6029201" lat="46.4353947"><ele>381</ele><time>2019-09-10T17:19:27.000Z</time></trkpt><trkpt lon="15.6029503" lat="46.4352666"><ele>381</ele><time>2019-09-10T17:19:28.000Z</time></trkpt><trkpt lon="15.6029441" lat="46.435199"><ele>381</ele><time>2019-09-10T17:19:29.000Z</time></trkpt><trkpt lon="15.60293" lat="46.4351285"><ele>380</ele><time>2019-09-10T17:19:30.000Z</time></trkpt><trkpt lon="15.6029208" lat="46.4350565"><ele>380</ele><time>2019-09-10T17:19:31.000Z</time></trkpt><trkpt lon="15.6029208" lat="46.4350565"><ele>380</ele><time>2019-09-10T17:19:32.000Z</time></trkpt><trkpt lon="15.6029102" lat="46.4349051"><ele>379</ele><time>2019-09-10T17:19:33.000Z</time></trkpt><trkpt lon="15.6029127" lat="46.4348244"><ele>379</ele><time>2019-09-10T17:19:34.000Z</time></trkpt><trkpt lon="15.602926" lat="46.4347419"><ele>378</ele><time>2019-09-10T17:19:35.000Z</time></trkpt><trkpt lon="15.602926" lat="46.4347419"><ele>378</ele><time>2019-09-10T17:19:36.000Z</time></trkpt><trkpt lon="15.6029614" lat="46.4345781"><ele>378</ele><time>2019-09-10T17:19:37.000Z</time></trkpt><trkpt lon="15.6029762" lat="46.4344954"><ele>378</ele><time>2019-09-10T17:19:38.000Z</time></trkpt><trkpt lon="15.6029762" lat="46.4344954"><ele>378</ele><time>2019-09-10T17:19:39.000Z</time></trkpt><trkpt lon="15.6029667" lat="46.4343415"><ele>378</ele><time>2019-09-10T17:19:40.000Z</time></trkpt><trkpt lon="15.6029465" lat="46.4342763"><ele>378</ele><time>2019-09-10T17:19:41.000Z</time></trkpt><trkpt lon="15.6029465" lat="46.4342763"><ele>378</ele><time>2019-09-10T17:19:42.000Z</time></trkpt><trkpt lon="15.6029011" lat="46.4341399"><ele>379</ele><time>2019-09-10T17:19:43.000Z</time></trkpt><trkpt lon="15.6029011" lat="46.4341399"><ele>379</ele><time>2019-09-10T17:19:44.000Z</time></trkpt><trkpt lon="15.6029175" lat="46.433986"><ele>378</ele><time>2019-09-10T17:19:45.000Z</time></trkpt><trkpt lon="15.6029352" lat="46.4339096"><ele>377</ele><time>2019-09-10T17:19:46.000Z</time></trkpt><trkpt lon="15.6029352" lat="46.4339096"><ele>377</ele><time>2019-09-10T17:19:47.000Z</time></trkpt><trkpt lon="15.6029601" lat="46.4337568"><ele>377</ele><time>2019-09-10T17:19:48.000Z</time></trkpt><trkpt lon="15.6029601" lat="46.4337568"><ele>377</ele><time>2019-09-10T17:19:49.000Z</time></trkpt><trkpt lon="15.6030031" lat="46.4336056"><ele>376</ele><time>2019-09-10T17:19:50.000Z</time></trkpt><trkpt lon="15.6030204" lat="46.4335284"><ele>375</ele><time>2019-09-10T17:19:51.000Z</time></trkpt><trkpt lon="15.6030204" lat="46.4335284"><ele>375</ele><time>2019-09-10T17:19:52.000Z</time></trkpt><trkpt lon="15.6030378" lat="46.4333734"><ele>375</ele><time>2019-09-10T17:19:53.000Z</time></trkpt><trkpt lon="15.6030469" lat="46.4332957"><ele>374</ele><time>2019-09-10T17:19:54.000Z</time></trkpt><trkpt lon="15.6030577" lat="46.4332193"><ele>374</ele><time>2019-09-10T17:19:55.000Z</time></trkpt><trkpt lon="15.6030758" lat="46.4331439"><ele>374</ele><time>2019-09-10T17:19:56.000Z</time></trkpt><trkpt lon="15.6030758" lat="46.4331439"><ele>374</ele><time>2019-09-10T17:19:57.000Z</time></trkpt><trkpt lon="15.6031092" lat="46.4330142"><ele>374</ele><time>2019-09-10T17:19:58.000Z</time></trkpt><trkpt lon="15.6031092" lat="46.4330142"><ele>374</ele><time>2019-09-10T17:19:59.000Z</time></trkpt><trkpt lon="15.6032093" lat="46.4329239"><ele>374</ele><time>2019-09-10T17:20:00.000Z</time></trkpt><trkpt lon="15.6032093" lat="46.4329239"><ele>374</ele><time>2019-09-10T17:20:01.000Z</time></trkpt><trkpt lon="15.6033618" lat="46.432852"><ele>373</ele><time>2019-09-10T17:20:02.000Z</time></trkpt><trkpt lon="15.6033618" lat="46.432852"><ele>373</ele><time>2019-09-10T17:20:03.000Z</time></trkpt><trkpt lon="15.6035133" lat="46.4327898"><ele>372</ele><time>2019-09-10T17:20:04.000Z</time></trkpt><trkpt lon="15.6035133" lat="46.4327898"><ele>372</ele><time>2019-09-10T17:20:05.000Z</time></trkpt><trkpt lon="15.6036596" lat="46.4327357"><ele>372</ele><time>2019-09-10T17:20:06.000Z</time></trkpt><trkpt lon="15.6036596" lat="46.4327357"><ele>372</ele><time>2019-09-10T17:20:07.000Z</time></trkpt><trkpt lon="15.6038152" lat="46.432687"><ele>371</ele><time>2019-09-10T17:20:08.000Z</time></trkpt><trkpt lon="15.6038152" lat="46.432687"><ele>371</ele><time>2019-09-10T17:20:09.000Z</time></trkpt><trkpt lon="15.6039601" lat="46.4326328"><ele>371</ele><time>2019-09-10T17:20:10.000Z</time></trkpt><trkpt lon="15.6040275" lat="46.4326001"><ele>371</ele><time>2019-09-10T17:20:11.000Z</time></trkpt><trkpt lon="15.6040275" lat="46.4326001"><ele>371</ele><time>2019-09-10T17:20:12.000Z</time></trkpt><trkpt lon="15.6041515" lat="46.4325201"><ele>371</ele><time>2019-09-10T17:20:13.000Z</time></trkpt><trkpt lon="15.6041985" lat="46.4324667"><ele>371</ele><time>2019-09-10T17:20:14.000Z</time></trkpt><trkpt lon="15.6041985" lat="46.4324667"><ele>371</ele><time>2019-09-10T17:20:15.000Z</time></trkpt><trkpt lon="15.6042835" lat="46.4323532"><ele>370</ele><time>2019-09-10T17:20:16.000Z</time></trkpt><trkpt lon="15.6042835" lat="46.4323532"><ele>370</ele><time>2019-09-10T17:20:17.000Z</time></trkpt><trkpt lon="15.6043614" lat="46.4322357"><ele>370</ele><time>2019-09-10T17:20:18.000Z</time></trkpt><trkpt lon="15.6043614" lat="46.4322357"><ele>370</ele><time>2019-09-10T17:20:19.000Z</time></trkpt><trkpt lon="15.6044044" lat="46.4321099"><ele>369</ele><time>2019-09-10T17:20:20.000Z</time></trkpt><trkpt lon="15.604408" lat="46.4320448"><ele>369</ele><time>2019-09-10T17:20:21.000Z</time></trkpt><trkpt lon="15.6044048" lat="46.4319796"><ele>369</ele><time>2019-09-10T17:20:22.000Z</time></trkpt><trkpt lon="15.6044015" lat="46.4319157"><ele>369</ele><time>2019-09-10T17:20:23.000Z</time></trkpt><trkpt lon="15.6044015" lat="46.4319157"><ele>369</ele><time>2019-09-10T17:20:24.000Z</time></trkpt><trkpt lon="15.6043851" lat="46.4317897"><ele>369</ele><time>2019-09-10T17:20:25.000Z</time></trkpt><trkpt lon="15.604377" lat="46.4317278"><ele>369</ele><time>2019-09-10T17:20:26.000Z</time></trkpt><trkpt lon="15.604377" lat="46.4317278"><ele>369</ele><time>2019-09-10T17:20:27.000Z</time></trkpt><trkpt lon="15.6043659" lat="46.4316067"><ele>369</ele><time>2019-09-10T17:20:28.000Z</time></trkpt><trkpt lon="15.6043601" lat="46.4315466"><ele>369</ele><time>2019-09-10T17:20:29.000Z</time></trkpt><trkpt lon="15.6043576" lat="46.4314868"><ele>369</ele><time>2019-09-10T17:20:30.000Z</time></trkpt><trkpt lon="15.6043576" lat="46.4314868"><ele>369</ele><time>2019-09-10T17:20:31.000Z</time></trkpt><trkpt lon="15.604351" lat="46.4313696"><ele>369</ele><time>2019-09-10T17:20:32.000Z</time></trkpt><trkpt lon="15.6043517" lat="46.43131"><ele>369</ele><time>2019-09-10T17:20:33.000Z</time></trkpt><trkpt lon="15.6043563" lat="46.4312502"><ele>369</ele><time>2019-09-10T17:20:34.000Z</time></trkpt><trkpt lon="15.6043563" lat="46.4312502"><ele>369</ele><time>2019-09-10T17:20:35.000Z</time></trkpt><trkpt lon="15.6043934" lat="46.4311376"><ele>369</ele><time>2019-09-10T17:20:36.000Z</time></trkpt><trkpt lon="15.6043934" lat="46.4311376"><ele>369</ele><time>2019-09-10T17:20:37.000Z</time></trkpt><trkpt lon="15.6044466" lat="46.4310287"><ele>368</ele><time>2019-09-10T17:20:38.000Z</time></trkpt><trkpt lon="15.6044771" lat="46.4309755"><ele>368</ele><time>2019-09-10T17:20:39.000Z</time></trkpt><trkpt lon="15.6045095" lat="46.4309217"><ele>368</ele><time>2019-09-10T17:20:40.000Z</time></trkpt><trkpt lon="15.604536" lat="46.4308648"><ele>368</ele><time>2019-09-10T17:20:41.000Z</time></trkpt><trkpt lon="15.604536" lat="46.4308648"><ele>368</ele><time>2019-09-10T17:20:42.000Z</time></trkpt><trkpt lon="15.6045646" lat="46.4307455"><ele>368</ele><time>2019-09-10T17:20:43.000Z</time></trkpt><trkpt lon="15.6045646" lat="46.4307455"><ele>368</ele><time>2019-09-10T17:20:44.000Z</time></trkpt><trkpt lon="15.6045489" lat="46.4306229"><ele>368</ele><time>2019-09-10T17:20:45.000Z</time></trkpt><trkpt lon="15.6045489" lat="46.4306229"><ele>368</ele><time>2019-09-10T17:20:46.000Z</time></trkpt><trkpt lon="15.6045172" lat="46.4305028"><ele>367</ele><time>2019-09-10T17:20:47.000Z</time></trkpt><trkpt lon="15.6045172" lat="46.4305028"><ele>367</ele><time>2019-09-10T17:20:48.000Z</time></trkpt><trkpt lon="15.6044803" lat="46.4303873"><ele>367</ele><time>2019-09-10T17:20:49.000Z</time></trkpt><trkpt lon="15.6044803" lat="46.4303873"><ele>367</ele><time>2019-09-10T17:20:50.000Z</time></trkpt><trkpt lon="15.6044626" lat="46.4302718"><ele>367</ele><time>2019-09-10T17:20:51.000Z</time></trkpt><trkpt lon="15.6044764" lat="46.430215"><ele>368</ele><time>2019-09-10T17:20:52.000Z</time></trkpt><trkpt lon="15.6044764" lat="46.430215"><ele>368</ele><time>2019-09-10T17:20:53.000Z</time></trkpt><trkpt lon="15.604532" lat="46.4301082"><ele>367</ele><time>2019-09-10T17:20:54.000Z</time></trkpt><trkpt lon="15.604532" lat="46.4301082"><ele>367</ele><time>2019-09-10T17:20:55.000Z</time></trkpt><trkpt lon="15.6046167" lat="46.4300125"><ele>367</ele><time>2019-09-10T17:20:56.000Z</time></trkpt><trkpt lon="15.6046609" lat="46.4299673"><ele>367</ele><time>2019-09-10T17:20:57.000Z</time></trkpt><trkpt lon="15.6047095" lat="46.4299238"><ele>367</ele><time>2019-09-10T17:20:58.000Z</time></trkpt><trkpt lon="15.6047095" lat="46.4299238"><ele>367</ele><time>2019-09-10T17:20:59.000Z</time></trkpt><trkpt lon="15.6048051" lat="46.4298325"><ele>367</ele><time>2019-09-10T17:21:00.000Z</time></trkpt><trkpt lon="15.6048522" lat="46.4297847"><ele>366</ele><time>2019-09-10T17:21:01.000Z</time></trkpt><trkpt lon="15.6048951" lat="46.4297346"><ele>366</ele><time>2019-09-10T17:21:02.000Z</time></trkpt><trkpt lon="15.6048951" lat="46.4297346"><ele>366</ele><time>2019-09-10T17:21:03.000Z</time></trkpt><trkpt lon="15.604967" lat="46.4296286"><ele>366</ele><time>2019-09-10T17:21:04.000Z</time></trkpt><trkpt lon="15.6050007" lat="46.4295738"><ele>366</ele><time>2019-09-10T17:21:05.000Z</time></trkpt><trkpt lon="15.6050335" lat="46.4295179"><ele>366</ele><time>2019-09-10T17:21:06.000Z</time></trkpt><trkpt lon="15.6050335" lat="46.4295179"><ele>366</ele><time>2019-09-10T17:21:07.000Z</time></trkpt><trkpt lon="15.6051075" lat="46.4294046"><ele>365</ele><time>2019-09-10T17:21:08.000Z</time></trkpt><trkpt lon="15.6051075" lat="46.4294046"><ele>365</ele><time>2019-09-10T17:21:09.000Z</time></trkpt><trkpt lon="15.6051944" lat="46.4292936"><ele>365</ele><time>2019-09-10T17:21:10.000Z</time></trkpt><trkpt lon="15.6052445" lat="46.4292399"><ele>365</ele><time>2019-09-10T17:21:11.000Z</time></trkpt><trkpt lon="15.6053006" lat="46.429189"><ele>365</ele><time>2019-09-10T17:21:12.000Z</time></trkpt><trkpt lon="15.6053006" lat="46.429189"><ele>365</ele><time>2019-09-10T17:21:13.000Z</time></trkpt><trkpt lon="15.6054248" lat="46.4290926"><ele>365</ele><time>2019-09-10T17:21:14.000Z</time></trkpt><trkpt lon="15.6054919" lat="46.4290464"><ele>365</ele><time>2019-09-10T17:21:15.000Z</time></trkpt><trkpt lon="15.6054919" lat="46.4290464"><ele>365</ele><time>2019-09-10T17:21:16.000Z</time></trkpt><trkpt lon="15.6056348" lat="46.4289627"><ele>364</ele><time>2019-09-10T17:21:17.000Z</time></trkpt><trkpt lon="15.6057076" lat="46.4289232"><ele>364</ele><time>2019-09-10T17:21:18.000Z</time></trkpt><trkpt lon="15.6057836" lat="46.4288861"><ele>364</ele><time>2019-09-10T17:21:19.000Z</time></trkpt><trkpt lon="15.6057836" lat="46.4288861"><ele>364</ele><time>2019-09-10T17:21:20.000Z</time></trkpt><trkpt lon="15.605946" lat="46.4288203"><ele>364</ele><time>2019-09-10T17:21:21.000Z</time></trkpt><trkpt lon="15.6060312" lat="46.4287923"><ele>364</ele><time>2019-09-10T17:21:22.000Z</time></trkpt><trkpt lon="15.6061195" lat="46.4287696"><ele>364</ele><time>2019-09-10T17:21:23.000Z</time></trkpt><trkpt lon="15.6061195" lat="46.4287696"><ele>364</ele><time>2019-09-10T17:21:24.000Z</time></trkpt><trkpt lon="15.6063012" lat="46.4287331"><ele>364</ele><time>2019-09-10T17:21:25.000Z</time></trkpt><trkpt lon="15.6063923" lat="46.4287166"><ele>364</ele><time>2019-09-10T17:21:26.000Z</time></trkpt><trkpt lon="15.6063923" lat="46.4287166"><ele>364</ele><time>2019-09-10T17:21:27.000Z</time></trkpt><trkpt lon="15.6065752" lat="46.4286863"><ele>364</ele><time>2019-09-10T17:21:28.000Z</time></trkpt><trkpt lon="15.6065752" lat="46.4286863"><ele>364</ele><time>2019-09-10T17:21:29.000Z</time></trkpt><trkpt lon="15.6067546" lat="46.4286513"><ele>364</ele><time>2019-09-10T17:21:30.000Z</time></trkpt><trkpt lon="15.6068426" lat="46.4286314"><ele>364</ele><time>2019-09-10T17:21:31.000Z</time></trkpt><trkpt lon="15.6068426" lat="46.4286314"><ele>364</ele><time>2019-09-10T17:21:32.000Z</time></trkpt><trkpt lon="15.6070179" lat="46.4285918"><ele>364</ele><time>2019-09-10T17:21:33.000Z</time></trkpt><trkpt lon="15.6070179" lat="46.4285918"><ele>364</ele><time>2019-09-10T17:21:34.000Z</time></trkpt><trkpt lon="15.6071914" lat="46.4285503"><ele>363</ele><time>2019-09-10T17:21:35.000Z</time></trkpt><trkpt lon="15.6071914" lat="46.4285503"><ele>363</ele><time>2019-09-10T17:21:36.000Z</time></trkpt><trkpt lon="15.6073689" lat="46.4285075"><ele>363</ele><time>2019-09-10T17:21:37.000Z</time></trkpt><trkpt lon="15.607457" lat="46.4284829"><ele>363</ele><time>2019-09-10T17:21:38.000Z</time></trkpt><trkpt lon="15.6075427" lat="46.4284538"><ele>363</ele><time>2019-09-10T17:21:39.000Z</time></trkpt><trkpt lon="15.6075427" lat="46.4284538"><ele>363</ele><time>2019-09-10T17:21:40.000Z</time></trkpt><trkpt lon="15.6077092" lat="46.4283855"><ele>362</ele><time>2019-09-10T17:21:41.000Z</time></trkpt><trkpt lon="15.6077092" lat="46.4283855"><ele>362</ele><time>2019-09-10T17:21:42.000Z</time></trkpt><trkpt lon="15.6078721" lat="46.4283077"><ele>362</ele><time>2019-09-10T17:21:43.000Z</time></trkpt><trkpt lon="15.6079534" lat="46.428267"><ele>362</ele><time>2019-09-10T17:21:44.000Z</time></trkpt><trkpt lon="15.6079534" lat="46.428267"><ele>362</ele><time>2019-09-10T17:21:45.000Z</time></trkpt><trkpt lon="15.6081058" lat="46.428176"><ele>361</ele><time>2019-09-10T17:21:46.000Z</time></trkpt><trkpt lon="15.6081695" lat="46.4281219"><ele>361</ele><time>2019-09-10T17:21:47.000Z</time></trkpt><trkpt lon="15.6081695" lat="46.4281219"><ele>361</ele><time>2019-09-10T17:21:48.000Z</time></trkpt><trkpt lon="15.6082893" lat="46.4280027"><ele>360</ele><time>2019-09-10T17:21:49.000Z</time></trkpt><trkpt lon="15.6083431" lat="46.4279372"><ele>360</ele><time>2019-09-10T17:21:50.000Z</time></trkpt><trkpt lon="15.6083431" lat="46.4279372"><ele>360</ele><time>2019-09-10T17:21:51.000Z</time></trkpt><trkpt lon="15.6084362" lat="46.4277958"><ele>360</ele><time>2019-09-10T17:21:52.000Z</time></trkpt><trkpt lon="15.6084815" lat="46.4277197"><ele>360</ele><time>2019-09-10T17:21:53.000Z</time></trkpt><trkpt lon="15.6084815" lat="46.4277197"><ele>360</ele><time>2019-09-10T17:21:54.000Z</time></trkpt><trkpt lon="15.6085583" lat="46.4275669"><ele>360</ele><time>2019-09-10T17:21:55.000Z</time></trkpt><trkpt lon="15.6086073" lat="46.427496"><ele>360</ele><time>2019-09-10T17:21:56.000Z</time></trkpt><trkpt lon="15.6086073" lat="46.427496"><ele>360</ele><time>2019-09-10T17:21:57.000Z</time></trkpt><trkpt lon="15.6087423" lat="46.4273827"><ele>360</ele><time>2019-09-10T17:21:58.000Z</time></trkpt><trkpt lon="15.6088373" lat="46.4273391"><ele>360</ele><time>2019-09-10T17:21:59.000Z</time></trkpt><trkpt lon="15.608934" lat="46.4273023"><ele>360</ele><time>2019-09-10T17:22:00.000Z</time></trkpt><trkpt lon="15.608934" lat="46.4273023"><ele>360</ele><time>2019-09-10T17:22:01.000Z</time></trkpt><trkpt lon="15.609109" lat="46.4272285"><ele>360</ele><time>2019-09-10T17:22:02.000Z</time></trkpt><trkpt lon="15.6091869" lat="46.4271867"><ele>360</ele><time>2019-09-10T17:22:03.000Z</time></trkpt><trkpt lon="15.6091869" lat="46.4271867"><ele>360</ele><time>2019-09-10T17:22:04.000Z</time></trkpt><trkpt lon="15.6093354" lat="46.4271042"><ele>360</ele><time>2019-09-10T17:22:05.000Z</time></trkpt><trkpt lon="15.6093354" lat="46.4271042"><ele>360</ele><time>2019-09-10T17:22:06.000Z</time></trkpt><trkpt lon="15.6094705" lat="46.4270149"><ele>360</ele><time>2019-09-10T17:22:07.000Z</time></trkpt><trkpt lon="15.6094705" lat="46.4270149"><ele>360</ele><time>2019-09-10T17:22:08.000Z</time></trkpt><trkpt lon="15.6096086" lat="46.4269277"><ele>360</ele><time>2019-09-10T17:22:09.000Z</time></trkpt><trkpt lon="15.6096849" lat="46.4268913"><ele>360</ele><time>2019-09-10T17:22:10.000Z</time></trkpt><trkpt lon="15.6096849" lat="46.4268913"><ele>360</ele><time>2019-09-10T17:22:11.000Z</time></trkpt><trkpt lon="15.6098297" lat="46.4268173"><ele>360</ele><time>2019-09-10T17:22:12.000Z</time></trkpt><trkpt lon="15.6098919" lat="46.426776"><ele>360</ele><time>2019-09-10T17:22:13.000Z</time></trkpt><trkpt lon="15.6099449" lat="46.4267295"><ele>360</ele><time>2019-09-10T17:22:14.000Z</time></trkpt><trkpt lon="15.6099449" lat="46.4267295"><ele>360</ele><time>2019-09-10T17:22:15.000Z</time></trkpt><trkpt lon="15.6100364" lat="46.4266301"><ele>360</ele><time>2019-09-10T17:22:16.000Z</time></trkpt><trkpt lon="15.6100789" lat="46.42658"><ele>360</ele><time>2019-09-10T17:22:17.000Z</time></trkpt><trkpt lon="15.6100789" lat="46.42658"><ele>360</ele><time>2019-09-10T17:22:18.000Z</time></trkpt><trkpt lon="15.6101559" lat="46.42648"><ele>360</ele><time>2019-09-10T17:22:19.000Z</time></trkpt><trkpt lon="15.6101559" lat="46.42648"><ele>360</ele><time>2019-09-10T17:22:20.000Z</time></trkpt><trkpt lon="15.6102269" lat="46.426384"><ele>360</ele><time>2019-09-10T17:22:21.000Z</time></trkpt><trkpt lon="15.6102269" lat="46.426384"><ele>360</ele><time>2019-09-10T17:22:22.000Z</time></trkpt><trkpt lon="15.6102991" lat="46.4263012"><ele>360</ele><time>2019-09-10T17:22:23.000Z</time></trkpt><trkpt lon="15.6102991" lat="46.4263012"><ele>360</ele><time>2019-09-10T17:22:24.000Z</time></trkpt><trkpt lon="15.6103454" lat="46.426272"><ele>360</ele><time>2019-09-10T17:22:25.000Z</time></trkpt><trkpt lon="15.6103454" lat="46.426272"><ele>360</ele><time>2019-09-10T17:22:26.000Z</time></trkpt><trkpt lon="15.6103984" lat="46.4262508"><ele>360</ele><time>2019-09-10T17:22:27.000Z</time></trkpt><trkpt lon="15.6104384" lat="46.4262498"><ele>360</ele><time>2019-09-10T17:22:28.000Z</time></trkpt><trkpt lon="15.6104384" lat="46.4262498"><ele>360</ele><time>2019-09-10T17:22:29.000Z</time></trkpt><trkpt lon="15.6105671" lat="46.4262858"><ele>360</ele><time>2019-09-10T17:22:30.000Z</time></trkpt><trkpt lon="15.6106155" lat="46.42631"><ele>360</ele><time>2019-09-10T17:22:31.000Z</time></trkpt><trkpt lon="15.6106155" lat="46.42631"><ele>360</ele><time>2019-09-10T17:22:32.000Z</time></trkpt><trkpt lon="15.6107168" lat="46.4263552"><ele>360</ele><time>2019-09-10T17:22:33.000Z</time></trkpt><trkpt lon="15.6107682" lat="46.4263771"><ele>360</ele><time>2019-09-10T17:22:34.000Z</time></trkpt><trkpt lon="15.6107682" lat="46.4263771"><ele>360</ele><time>2019-09-10T17:22:35.000Z</time></trkpt><trkpt lon="15.6108789" lat="46.4264247"><ele>360</ele><time>2019-09-10T17:22:36.000Z</time></trkpt><trkpt lon="15.6109305" lat="46.4264455"><ele>360</ele><time>2019-09-10T17:22:37.000Z</time></trkpt><trkpt lon="15.6109305" lat="46.4264455"><ele>360</ele><time>2019-09-10T17:22:38.000Z</time></trkpt><trkpt lon="15.6109981" lat="46.4264676"><ele>360</ele><time>2019-09-10T17:22:39.000Z</time></trkpt><trkpt lon="15.6109981" lat="46.4264676"><ele>360</ele><time>2019-09-10T17:22:40.000Z</time></trkpt><trkpt lon="15.6110683" lat="46.426479"><ele>361</ele><time>2019-09-10T17:22:41.000Z</time></trkpt><trkpt lon="15.6111043" lat="46.4264898"><ele>361</ele><time>2019-09-10T17:22:42.000Z</time></trkpt><trkpt lon="15.6111853" lat="46.4265213"><ele>360</ele><time>2019-09-10T17:22:43.000Z</time></trkpt><trkpt lon="15.6111853" lat="46.4265213"><ele>360</ele><time>2019-09-10T17:22:44.000Z</time></trkpt><trkpt lon="15.6112895" lat="46.4265707"><ele>360</ele><time>2019-09-10T17:22:45.000Z</time></trkpt><trkpt lon="15.6112895" lat="46.4265707"><ele>360</ele><time>2019-09-10T17:22:46.000Z</time></trkpt><trkpt lon="15.6114298" lat="46.4266201"><ele>360</ele><time>2019-09-10T17:22:47.000Z</time></trkpt><trkpt lon="15.6115049" lat="46.4266447"><ele>360</ele><time>2019-09-10T17:22:48.000Z</time></trkpt><trkpt lon="15.6115049" lat="46.4266447"><ele>360</ele><time>2019-09-10T17:22:49.000Z</time></trkpt><trkpt lon="15.6116667" lat="46.426698"><ele>359</ele><time>2019-09-10T17:22:50.000Z</time></trkpt><trkpt lon="15.6117523" lat="46.426725"><ele>359</ele><time>2019-09-10T17:22:51.000Z</time></trkpt><trkpt lon="15.6117523" lat="46.426725"><ele>359</ele><time>2019-09-10T17:22:52.000Z</time></trkpt><trkpt lon="15.611924" lat="46.4267778"><ele>359</ele><time>2019-09-10T17:22:53.000Z</time></trkpt><trkpt lon="15.6120078" lat="46.4268078"><ele>359</ele><time>2019-09-10T17:22:54.000Z</time></trkpt><trkpt lon="15.6120911" lat="46.4268378"><ele>359</ele><time>2019-09-10T17:22:55.000Z</time></trkpt><trkpt lon="15.6120911" lat="46.4268378"><ele>359</ele><time>2019-09-10T17:22:56.000Z</time></trkpt><trkpt lon="15.612254" lat="46.4269028"><ele>359</ele><time>2019-09-10T17:22:57.000Z</time></trkpt><trkpt lon="15.612335" lat="46.4269361"><ele>359</ele><time>2019-09-10T17:22:58.000Z</time></trkpt><trkpt lon="15.612335" lat="46.4269361"><ele>359</ele><time>2019-09-10T17:22:59.000Z</time></trkpt><trkpt lon="15.612494" lat="46.4270056"><ele>358</ele><time>2019-09-10T17:23:00.000Z</time></trkpt><trkpt lon="15.6125692" lat="46.4270436"><ele>358</ele><time>2019-09-10T17:23:01.000Z</time></trkpt><trkpt lon="15.6126436" lat="46.4270826"><ele>358</ele><time>2019-09-10T17:23:02.000Z</time></trkpt><trkpt lon="15.6127175" lat="46.4271199"><ele>358</ele><time>2019-09-10T17:23:03.000Z</time></trkpt><trkpt lon="15.6127175" lat="46.4271199"><ele>358</ele><time>2019-09-10T17:23:04.000Z</time></trkpt><trkpt lon="15.6128592" lat="46.4271958"><ele>358</ele><time>2019-09-10T17:23:05.000Z</time></trkpt><trkpt lon="15.6128592" lat="46.4271958"><ele>358</ele><time>2019-09-10T17:23:06.000Z</time></trkpt><trkpt lon="15.6130016" lat="46.4272699"><ele>358</ele><time>2019-09-10T17:23:07.000Z</time></trkpt><trkpt lon="15.6130716" lat="46.4273082"><ele>357</ele><time>2019-09-10T17:23:08.000Z</time></trkpt><trkpt lon="15.6130716" lat="46.4273082"><ele>357</ele><time>2019-09-10T17:23:09.000Z</time></trkpt><trkpt lon="15.6132157" lat="46.4273873"><ele>357</ele><time>2019-09-10T17:23:10.000Z</time></trkpt><trkpt lon="15.6132157" lat="46.4273873"><ele>357</ele><time>2019-09-10T17:23:11.000Z</time></trkpt><trkpt lon="15.6133652" lat="46.4274648"><ele>357</ele><time>2019-09-10T17:23:12.000Z</time></trkpt><trkpt lon="15.6133652" lat="46.4274648"><ele>357</ele><time>2019-09-10T17:23:13.000Z</time></trkpt><trkpt lon="15.6135137" lat="46.4275446"><ele>357</ele><time>2019-09-10T17:23:14.000Z</time></trkpt><trkpt lon="15.6135137" lat="46.4275446"><ele>357</ele><time>2019-09-10T17:23:15.000Z</time></trkpt><trkpt lon="15.6136611" lat="46.4276265"><ele>357</ele><time>2019-09-10T17:23:16.000Z</time></trkpt><trkpt lon="15.6136611" lat="46.4276265"><ele>357</ele><time>2019-09-10T17:23:17.000Z</time></trkpt><trkpt lon="15.6138094" lat="46.4277075"><ele>357</ele><time>2019-09-10T17:23:18.000Z</time></trkpt><trkpt lon="15.6138094" lat="46.4277075"><ele>357</ele><time>2019-09-10T17:23:19.000Z</time></trkpt><trkpt lon="15.6139588" lat="46.4277879"><ele>357</ele><time>2019-09-10T17:23:20.000Z</time></trkpt><trkpt lon="15.6139588" lat="46.4277879"><ele>357</ele><time>2019-09-10T17:23:21.000Z</time></trkpt><trkpt lon="15.6141103" lat="46.4278672"><ele>357</ele><time>2019-09-10T17:23:22.000Z</time></trkpt><trkpt lon="15.6141103" lat="46.4278672"><ele>357</ele><time>2019-09-10T17:23:23.000Z</time></trkpt><trkpt lon="15.6142605" lat="46.4279472"><ele>357</ele><time>2019-09-10T17:23:24.000Z</time></trkpt><trkpt lon="15.614336" lat="46.4279868"><ele>357</ele><time>2019-09-10T17:23:25.000Z</time></trkpt><trkpt lon="15.614336" lat="46.4279868"><ele>357</ele><time>2019-09-10T17:23:26.000Z</time></trkpt><trkpt lon="15.614487" lat="46.4280631"><ele>357</ele><time>2019-09-10T17:23:27.000Z</time></trkpt><trkpt lon="15.6145628" lat="46.4281008"><ele>357</ele><time>2019-09-10T17:23:28.000Z</time></trkpt><trkpt lon="15.6145628" lat="46.4281008"><ele>357</ele><time>2019-09-10T17:23:29.000Z</time></trkpt><trkpt lon="15.6147168" lat="46.4281724"><ele>358</ele><time>2019-09-10T17:23:30.000Z</time></trkpt><trkpt lon="15.6147939" lat="46.4282074"><ele>358</ele><time>2019-09-10T17:23:31.000Z</time></trkpt><trkpt lon="15.6148716" lat="46.4282406"><ele>358</ele><time>2019-09-10T17:23:32.000Z</time></trkpt><trkpt lon="15.6148716" lat="46.4282406"><ele>358</ele><time>2019-09-10T17:23:33.000Z</time></trkpt><trkpt lon="15.6150289" lat="46.4283014"><ele>358</ele><time>2019-09-10T17:23:34.000Z</time></trkpt><trkpt lon="15.6150289" lat="46.4283014"><ele>358</ele><time>2019-09-10T17:23:35.000Z</time></trkpt><trkpt lon="15.6151872" lat="46.4283577"><ele>358</ele><time>2019-09-10T17:23:36.000Z</time></trkpt><trkpt lon="15.6151872" lat="46.4283577"><ele>358</ele><time>2019-09-10T17:23:37.000Z</time></trkpt><trkpt lon="15.6153509" lat="46.4284072"><ele>358</ele><time>2019-09-10T17:23:38.000Z</time></trkpt><trkpt lon="15.6153509" lat="46.4284072"><ele>358</ele><time>2019-09-10T17:23:39.000Z</time></trkpt><trkpt lon="15.6155148" lat="46.4284523"><ele>358</ele><time>2019-09-10T17:23:40.000Z</time></trkpt><trkpt lon="15.6155963" lat="46.428472"><ele>358</ele><time>2019-09-10T17:23:41.000Z</time></trkpt><trkpt lon="15.6155963" lat="46.428472"><ele>358</ele><time>2019-09-10T17:23:42.000Z</time></trkpt><trkpt lon="15.6157628" lat="46.4285058"><ele>359</ele><time>2019-09-10T17:23:43.000Z</time></trkpt><trkpt lon="15.6158457" lat="46.4285222"><ele>359</ele><time>2019-09-10T17:23:44.000Z</time></trkpt><trkpt lon="15.6158457" lat="46.4285222"><ele>359</ele><time>2019-09-10T17:23:45.000Z</time></trkpt><trkpt lon="15.6160089" lat="46.4285511"><ele>359</ele><time>2019-09-10T17:23:46.000Z</time></trkpt><trkpt lon="15.6160089" lat="46.4285511"><ele>359</ele><time>2019-09-10T17:23:47.000Z</time></trkpt><trkpt lon="15.6161666" lat="46.4285771"><ele>359</ele><time>2019-09-10T17:23:48.000Z</time></trkpt><trkpt lon="15.6161666" lat="46.4285771"><ele>359</ele><time>2019-09-10T17:23:49.000Z</time></trkpt><trkpt lon="15.6163145" lat="46.4285972"><ele>360</ele><time>2019-09-10T17:23:50.000Z</time></trkpt><trkpt lon="15.6163898" lat="46.4286064"><ele>360</ele><time>2019-09-10T17:23:51.000Z</time></trkpt><trkpt lon="15.6164646" lat="46.4286152"><ele>360</ele><time>2019-09-10T17:23:52.000Z</time></trkpt><trkpt lon="15.6164646" lat="46.4286152"><ele>360</ele><time>2019-09-10T17:23:53.000Z</time></trkpt><trkpt lon="15.6166106" lat="46.4286303"><ele>360</ele><time>2019-09-10T17:23:54.000Z</time></trkpt><trkpt lon="15.6166824" lat="46.4286368"><ele>361</ele><time>2019-09-10T17:23:55.000Z</time></trkpt><trkpt lon="15.6167539" lat="46.4286419"><ele>361</ele><time>2019-09-10T17:23:56.000Z</time></trkpt><trkpt lon="15.6167539" lat="46.4286419"><ele>361</ele><time>2019-09-10T17:23:57.000Z</time></trkpt><trkpt lon="15.6168985" lat="46.4286483"><ele>361</ele><time>2019-09-10T17:23:58.000Z</time></trkpt><trkpt lon="15.6168985" lat="46.4286483"><ele>361</ele><time>2019-09-10T17:23:59.000Z</time></trkpt><trkpt lon="15.6170497" lat="46.4286511"><ele>361</ele><time>2019-09-10T17:24:00.000Z</time></trkpt><trkpt lon="15.6170497" lat="46.4286511"><ele>361</ele><time>2019-09-10T17:24:01.000Z</time></trkpt><trkpt lon="15.6172015" lat="46.4286531"><ele>361</ele><time>2019-09-10T17:24:02.000Z</time></trkpt><trkpt lon="15.6172015" lat="46.4286531"><ele>361</ele><time>2019-09-10T17:24:03.000Z</time></trkpt><trkpt lon="15.6173519" lat="46.428652"><ele>361</ele><time>2019-09-10T17:24:04.000Z</time></trkpt><trkpt lon="15.6174275" lat="46.4286513"><ele>361</ele><time>2019-09-10T17:24:05.000Z</time></trkpt><trkpt lon="15.6174275" lat="46.4286513"><ele>361</ele><time>2019-09-10T17:24:06.000Z</time></trkpt><trkpt lon="15.6175792" lat="46.428649"><ele>361</ele><time>2019-09-10T17:24:07.000Z</time></trkpt><trkpt lon="15.6176569" lat="46.4286479"><ele>361</ele><time>2019-09-10T17:24:08.000Z</time></trkpt><trkpt lon="15.6176569" lat="46.4286479"><ele>361</ele><time>2019-09-10T17:24:09.000Z</time></trkpt><trkpt lon="15.617816" lat="46.4286455"><ele>361</ele><time>2019-09-10T17:24:10.000Z</time></trkpt><trkpt lon="15.617816" lat="46.4286455"><ele>361</ele><time>2019-09-10T17:24:11.000Z</time></trkpt><trkpt lon="15.6179766" lat="46.4286441"><ele>361</ele><time>2019-09-10T17:24:12.000Z</time></trkpt><trkpt lon="15.6180579" lat="46.4286448"><ele>361</ele><time>2019-09-10T17:24:13.000Z</time></trkpt><trkpt lon="15.6180579" lat="46.4286448"><ele>361</ele><time>2019-09-10T17:24:14.000Z</time></trkpt><trkpt lon="15.6182261" lat="46.4286449"><ele>361</ele><time>2019-09-10T17:24:15.000Z</time></trkpt><trkpt lon="15.6182261" lat="46.4286449"><ele>361</ele><time>2019-09-10T17:24:16.000Z</time></trkpt><trkpt lon="15.6183997" lat="46.4286443"><ele>361</ele><time>2019-09-10T17:24:17.000Z</time></trkpt><trkpt lon="15.6183997" lat="46.4286443"><ele>361</ele><time>2019-09-10T17:24:18.000Z</time></trkpt><trkpt lon="15.6185783" lat="46.4286448"><ele>361</ele><time>2019-09-10T17:24:19.000Z</time></trkpt><trkpt lon="15.6186685" lat="46.4286453"><ele>361</ele><time>2019-09-10T17:24:20.000Z</time></trkpt><trkpt lon="15.6186685" lat="46.4286453"><ele>361</ele><time>2019-09-10T17:24:21.000Z</time></trkpt><trkpt lon="15.6188488" lat="46.4286437"><ele>361</ele><time>2019-09-10T17:24:22.000Z</time></trkpt><trkpt lon="15.6188488" lat="46.4286437"><ele>361</ele><time>2019-09-10T17:24:23.000Z</time></trkpt><trkpt lon="15.6190315" lat="46.4286425"><ele>360</ele><time>2019-09-10T17:24:24.000Z</time></trkpt><trkpt lon="15.619124" lat="46.428642"><ele>360</ele><time>2019-09-10T17:24:25.000Z</time></trkpt><trkpt lon="15.619124" lat="46.428642"><ele>360</ele><time>2019-09-10T17:24:26.000Z</time></trkpt><trkpt lon="15.6193088" lat="46.4286389"><ele>360</ele><time>2019-09-10T17:24:27.000Z</time></trkpt><trkpt lon="15.6194011" lat="46.4286349"><ele>360</ele><time>2019-09-10T17:24:28.000Z</time></trkpt><trkpt lon="15.6194927" lat="46.4286286"><ele>360</ele><time>2019-09-10T17:24:29.000Z</time></trkpt><trkpt lon="15.6194927" lat="46.4286286"><ele>360</ele><time>2019-09-10T17:24:30.000Z</time></trkpt><trkpt lon="15.6196729" lat="46.4286073"><ele>360</ele><time>2019-09-10T17:24:31.000Z</time></trkpt><trkpt lon="15.6196729" lat="46.4286073"><ele>360</ele><time>2019-09-10T17:24:32.000Z</time></trkpt><trkpt lon="15.61985" lat="46.4285752"><ele>359</ele><time>2019-09-10T17:24:33.000Z</time></trkpt><trkpt lon="15.61985" lat="46.4285752"><ele>359</ele><time>2019-09-10T17:24:34.000Z</time></trkpt><trkpt lon="15.6200299" lat="46.4285328"><ele>359</ele><time>2019-09-10T17:24:35.000Z</time></trkpt><trkpt lon="15.6200299" lat="46.4285328"><ele>359</ele><time>2019-09-10T17:24:36.000Z</time></trkpt><trkpt lon="15.6202143" lat="46.4284905"><ele>359</ele><time>2019-09-10T17:24:37.000Z</time></trkpt><trkpt lon="15.6202143" lat="46.4284905"><ele>359</ele><time>2019-09-10T17:24:38.000Z</time></trkpt><trkpt lon="15.6204025" lat="46.4284441"><ele>358</ele><time>2019-09-10T17:24:39.000Z</time></trkpt><trkpt lon="15.6204987" lat="46.4284201"><ele>358</ele><time>2019-09-10T17:24:40.000Z</time></trkpt><trkpt lon="15.6204987" lat="46.4284201"><ele>358</ele><time>2019-09-10T17:24:41.000Z</time></trkpt><trkpt lon="15.6206974" lat="46.4283738"><ele>357</ele><time>2019-09-10T17:24:42.000Z</time></trkpt><trkpt lon="15.6206974" lat="46.4283738"><ele>357</ele><time>2019-09-10T17:24:43.000Z</time></trkpt><trkpt lon="15.6208952" lat="46.4283247"><ele>357</ele><time>2019-09-10T17:24:44.000Z</time></trkpt><trkpt lon="15.6208952" lat="46.4283247"><ele>357</ele><time>2019-09-10T17:24:45.000Z</time></trkpt><trkpt lon="15.6210943" lat="46.4282776"><ele>356</ele><time>2019-09-10T17:24:46.000Z</time></trkpt><trkpt lon="15.6211961" lat="46.4282536"><ele>356</ele><time>2019-09-10T17:24:47.000Z</time></trkpt><trkpt lon="15.6212989" lat="46.4282292"><ele>356</ele><time>2019-09-10T17:24:48.000Z</time></trkpt><trkpt lon="15.6212989" lat="46.4282292"><ele>356</ele><time>2019-09-10T17:24:49.000Z</time></trkpt><trkpt lon="15.6215095" lat="46.428184"><ele>356</ele><time>2019-09-10T17:24:50.000Z</time></trkpt><trkpt lon="15.6216174" lat="46.4281618"><ele>355</ele><time>2019-09-10T17:24:51.000Z</time></trkpt><trkpt lon="15.6216174" lat="46.4281618"><ele>355</ele><time>2019-09-10T17:24:52.000Z</time></trkpt><trkpt lon="15.6218408" lat="46.4281172"><ele>355</ele><time>2019-09-10T17:24:53.000Z</time></trkpt><trkpt lon="15.6218408" lat="46.4281172"><ele>355</ele><time>2019-09-10T17:24:54.000Z</time></trkpt><trkpt lon="15.6220702" lat="46.4280757"><ele>354</ele><time>2019-09-10T17:24:55.000Z</time></trkpt><trkpt lon="15.6221861" lat="46.4280559"><ele>354</ele><time>2019-09-10T17:24:56.000Z</time></trkpt><trkpt lon="15.6221861" lat="46.4280559"><ele>354</ele><time>2019-09-10T17:24:57.000Z</time></trkpt><trkpt lon="15.6224189" lat="46.42802"><ele>354</ele><time>2019-09-10T17:24:58.000Z</time></trkpt><trkpt lon="15.6224189" lat="46.42802"><ele>354</ele><time>2019-09-10T17:24:59.000Z</time></trkpt><trkpt lon="15.6226531" lat="46.4279919"><ele>353</ele><time>2019-09-10T17:25:00.000Z</time></trkpt><trkpt lon="15.6226531" lat="46.4279919"><ele>353</ele><time>2019-09-10T17:25:01.000Z</time></trkpt><trkpt lon="15.6228883" lat="46.4279729"><ele>353</ele><time>2019-09-10T17:25:02.000Z</time></trkpt><trkpt lon="15.6230064" lat="46.4279676"><ele>353</ele><time>2019-09-10T17:25:03.000Z</time></trkpt><trkpt lon="15.6230064" lat="46.4279676"><ele>353</ele><time>2019-09-10T17:25:04.000Z</time></trkpt><trkpt lon="15.6232404" lat="46.4279659"><ele>353</ele><time>2019-09-10T17:25:05.000Z</time></trkpt><trkpt lon="15.6233561" lat="46.4279682"><ele>353</ele><time>2019-09-10T17:25:06.000Z</time></trkpt><trkpt lon="15.6233561" lat="46.4279682"><ele>353</ele><time>2019-09-10T17:25:07.000Z</time></trkpt><trkpt lon="15.6235858" lat="46.4279816"><ele>352</ele><time>2019-09-10T17:25:08.000Z</time></trkpt><trkpt lon="15.6235858" lat="46.4279816"><ele>352</ele><time>2019-09-10T17:25:09.000Z</time></trkpt><trkpt lon="15.6238107" lat="46.4280158"><ele>352</ele><time>2019-09-10T17:25:10.000Z</time></trkpt><trkpt lon="15.6238107" lat="46.4280158"><ele>352</ele><time>2019-09-10T17:25:11.000Z</time></trkpt><trkpt lon="15.624018" lat="46.4280741"><ele>352</ele><time>2019-09-10T17:25:12.000Z</time></trkpt><trkpt lon="15.6241168" lat="46.4281061"><ele>352</ele><time>2019-09-10T17:25:13.000Z</time></trkpt><trkpt lon="15.6241168" lat="46.4281061"><ele>352</ele><time>2019-09-10T17:25:14.000Z</time></trkpt><trkpt lon="15.6242961" lat="46.4281919"><ele>352</ele><time>2019-09-10T17:25:15.000Z</time></trkpt><trkpt lon="15.6242961" lat="46.4281919"><ele>352</ele><time>2019-09-10T17:25:16.000Z</time></trkpt><trkpt lon="15.6244531" lat="46.4282936"><ele>352</ele><time>2019-09-10T17:25:17.000Z</time></trkpt><trkpt lon="15.6245244" lat="46.4283477"><ele>352</ele><time>2019-09-10T17:25:18.000Z</time></trkpt><trkpt lon="15.6245244" lat="46.4283477"><ele>352</ele><time>2019-09-10T17:25:19.000Z</time></trkpt><trkpt lon="15.6246604" lat="46.4284558"><ele>352</ele><time>2019-09-10T17:25:20.000Z</time></trkpt><trkpt lon="15.6246604" lat="46.4284558"><ele>352</ele><time>2019-09-10T17:25:21.000Z</time></trkpt><trkpt lon="15.624793" lat="46.4285638"><ele>352</ele><time>2019-09-10T17:25:22.000Z</time></trkpt><trkpt lon="15.624793" lat="46.4285638"><ele>352</ele><time>2019-09-10T17:25:23.000Z</time></trkpt><trkpt lon="15.6249206" lat="46.4286661"><ele>352</ele><time>2019-09-10T17:25:24.000Z</time></trkpt><trkpt lon="15.624983" lat="46.428716"><ele>352</ele><time>2019-09-10T17:25:25.000Z</time></trkpt><trkpt lon="15.625044" lat="46.428766"><ele>352</ele><time>2019-09-10T17:25:26.000Z</time></trkpt><trkpt lon="15.6251039" lat="46.4288166"><ele>352</ele><time>2019-09-10T17:25:27.000Z</time></trkpt><trkpt lon="15.6251039" lat="46.4288166"><ele>352</ele><time>2019-09-10T17:25:28.000Z</time></trkpt><trkpt lon="15.6252257" lat="46.4289134"><ele>352</ele><time>2019-09-10T17:25:29.000Z</time></trkpt><trkpt lon="15.6252873" lat="46.4289601"><ele>352</ele><time>2019-09-10T17:25:30.000Z</time></trkpt><trkpt lon="15.6252873" lat="46.4289601"><ele>352</ele><time>2019-09-10T17:25:31.000Z</time></trkpt><trkpt lon="15.6254054" lat="46.4290567"><ele>352</ele><time>2019-09-10T17:25:32.000Z</time></trkpt><trkpt lon="15.6254643" lat="46.4291047"><ele>352</ele><time>2019-09-10T17:25:33.000Z</time></trkpt><trkpt lon="15.6255215" lat="46.429153"><ele>351</ele><time>2019-09-10T17:25:34.000Z</time></trkpt><trkpt lon="15.6255215" lat="46.429153"><ele>351</ele><time>2019-09-10T17:25:35.000Z</time></trkpt><trkpt lon="15.6256392" lat="46.4292495"><ele>351</ele><time>2019-09-10T17:25:36.000Z</time></trkpt><trkpt lon="15.6256392" lat="46.4292495"><ele>351</ele><time>2019-09-10T17:25:37.000Z</time></trkpt><trkpt lon="15.6257598" lat="46.4293472"><ele>351</ele><time>2019-09-10T17:25:38.000Z</time></trkpt><trkpt lon="15.6257598" lat="46.4293472"><ele>351</ele><time>2019-09-10T17:25:39.000Z</time></trkpt><trkpt lon="15.6258813" lat="46.4294434"><ele>351</ele><time>2019-09-10T17:25:40.000Z</time></trkpt><trkpt lon="15.6258813" lat="46.4294434"><ele>351</ele><time>2019-09-10T17:25:41.000Z</time></trkpt><trkpt lon="15.6259979" lat="46.4295373"><ele>351</ele><time>2019-09-10T17:25:42.000Z</time></trkpt><trkpt lon="15.6259979" lat="46.4295373"><ele>351</ele><time>2019-09-10T17:25:43.000Z</time></trkpt><trkpt lon="15.6261155" lat="46.4296318"><ele>351</ele><time>2019-09-10T17:25:44.000Z</time></trkpt><trkpt lon="15.6261748" lat="46.4296801"><ele>351</ele><time>2019-09-10T17:25:45.000Z</time></trkpt><trkpt lon="15.6261748" lat="46.4296801"><ele>351</ele><time>2019-09-10T17:25:46.000Z</time></trkpt><trkpt lon="15.6262936" lat="46.4297772"><ele>351</ele><time>2019-09-10T17:25:47.000Z</time></trkpt><trkpt lon="15.6263543" lat="46.4298241"><ele>351</ele><time>2019-09-10T17:25:48.000Z</time></trkpt><trkpt lon="15.6263543" lat="46.4298241"><ele>351</ele><time>2019-09-10T17:25:49.000Z</time></trkpt><trkpt lon="15.6264728" lat="46.4299177"><ele>351</ele><time>2019-09-10T17:25:50.000Z</time></trkpt><trkpt lon="15.6264728" lat="46.4299177"><ele>351</ele><time>2019-09-10T17:25:51.000Z</time></trkpt><trkpt lon="15.6265897" lat="46.430012"><ele>351</ele><time>2019-09-10T17:25:52.000Z</time></trkpt><trkpt lon="15.6266483" lat="46.430059"><ele>351</ele><time>2019-09-10T17:25:53.000Z</time></trkpt><trkpt lon="15.6266483" lat="46.430059"><ele>351</ele><time>2019-09-10T17:25:54.000Z</time></trkpt><trkpt lon="15.6267657" lat="46.4301523"><ele>351</ele><time>2019-09-10T17:25:55.000Z</time></trkpt><trkpt lon="15.6267657" lat="46.4301523"><ele>351</ele><time>2019-09-10T17:25:56.000Z</time></trkpt><trkpt lon="15.6268822" lat="46.4302465"><ele>351</ele><time>2019-09-10T17:25:57.000Z</time></trkpt><trkpt lon="15.62694" lat="46.430293"><ele>351</ele><time>2019-09-10T17:25:58.000Z</time></trkpt><trkpt lon="15.62694" lat="46.430293"><ele>351</ele><time>2019-09-10T17:25:59.000Z</time></trkpt><trkpt lon="15.6270565" lat="46.4303862"><ele>350</ele><time>2019-09-10T17:26:00.000Z</time></trkpt><trkpt lon="15.6270565" lat="46.4303862"><ele>350</ele><time>2019-09-10T17:26:01.000Z</time></trkpt><trkpt lon="15.6271714" lat="46.4304819"><ele>350</ele><time>2019-09-10T17:26:02.000Z</time></trkpt><trkpt lon="15.6272296" lat="46.4305293"><ele>350</ele><time>2019-09-10T17:26:03.000Z</time></trkpt><trkpt lon="15.6272883" lat="46.4305762"><ele>350</ele><time>2019-09-10T17:26:04.000Z</time></trkpt><trkpt lon="15.6272883" lat="46.4305762"><ele>350</ele><time>2019-09-10T17:26:05.000Z</time></trkpt><trkpt lon="15.6274025" lat="46.4306681"><ele>350</ele><time>2019-09-10T17:26:06.000Z</time></trkpt><trkpt lon="15.6274592" lat="46.4307127"><ele>350</ele><time>2019-09-10T17:26:07.000Z</time></trkpt><trkpt lon="15.6274592" lat="46.4307127"><ele>350</ele><time>2019-09-10T17:26:08.000Z</time></trkpt><trkpt lon="15.6275711" lat="46.4308024"><ele>350</ele><time>2019-09-10T17:26:09.000Z</time></trkpt><trkpt lon="15.6275711" lat="46.4308024"><ele>350</ele><time>2019-09-10T17:26:10.000Z</time></trkpt><trkpt lon="15.6276837" lat="46.4308924"><ele>350</ele><time>2019-09-10T17:26:11.000Z</time></trkpt><trkpt lon="15.6276837" lat="46.4308924"><ele>350</ele><time>2019-09-10T17:26:12.000Z</time></trkpt><trkpt lon="15.6277976" lat="46.4309836"><ele>350</ele><time>2019-09-10T17:26:13.000Z</time></trkpt><trkpt lon="15.6278564" lat="46.4310289"><ele>350</ele><time>2019-09-10T17:26:14.000Z</time></trkpt><trkpt lon="15.6279145" lat="46.4310744"><ele>350</ele><time>2019-09-10T17:26:15.000Z</time></trkpt><trkpt lon="15.6279715" lat="46.4311198"><ele>350</ele><time>2019-09-10T17:26:16.000Z</time></trkpt><trkpt lon="15.6279715" lat="46.4311198"><ele>350</ele><time>2019-09-10T17:26:17.000Z</time></trkpt><trkpt lon="15.6280846" lat="46.4312115"><ele>350</ele><time>2019-09-10T17:26:18.000Z</time></trkpt><trkpt lon="15.6281416" lat="46.4312566"><ele>350</ele><time>2019-09-10T17:26:19.000Z</time></trkpt><trkpt lon="15.6281989" lat="46.4313013"><ele>350</ele><time>2019-09-10T17:26:20.000Z</time></trkpt><trkpt lon="15.6281989" lat="46.4313013"><ele>350</ele><time>2019-09-10T17:26:21.000Z</time></trkpt><trkpt lon="15.6283136" lat="46.431391"><ele>350</ele><time>2019-09-10T17:26:22.000Z</time></trkpt><trkpt lon="15.6283136" lat="46.431391"><ele>350</ele><time>2019-09-10T17:26:23.000Z</time></trkpt><trkpt lon="15.6284268" lat="46.4314831"><ele>350</ele><time>2019-09-10T17:26:24.000Z</time></trkpt><trkpt lon="15.6284268" lat="46.4314831"><ele>350</ele><time>2019-09-10T17:26:25.000Z</time></trkpt><trkpt lon="15.6285415" lat="46.4315758"><ele>350</ele><time>2019-09-10T17:26:26.000Z</time></trkpt><trkpt lon="15.6286016" lat="46.4316219"><ele>350</ele><time>2019-09-10T17:26:27.000Z</time></trkpt><trkpt lon="15.6286016" lat="46.4316219"><ele>350</ele><time>2019-09-10T17:26:28.000Z</time></trkpt><trkpt lon="15.6287223" lat="46.4317168"><ele>350</ele><time>2019-09-10T17:26:29.000Z</time></trkpt><trkpt lon="15.6287223" lat="46.4317168"><ele>350</ele><time>2019-09-10T17:26:30.000Z</time></trkpt><trkpt lon="15.6288421" lat="46.431812"><ele>350</ele><time>2019-09-10T17:26:31.000Z</time></trkpt><trkpt lon="15.6288421" lat="46.431812"><ele>350</ele><time>2019-09-10T17:26:32.000Z</time></trkpt><trkpt lon="15.6289594" lat="46.4319059"><ele>350</ele><time>2019-09-10T17:26:33.000Z</time></trkpt><trkpt lon="15.6290172" lat="46.431952"><ele>350</ele><time>2019-09-10T17:26:34.000Z</time></trkpt><trkpt lon="15.6290172" lat="46.431952"><ele>350</ele><time>2019-09-10T17:26:35.000Z</time></trkpt><trkpt lon="15.6291321" lat="46.4320448"><ele>350</ele><time>2019-09-10T17:26:36.000Z</time></trkpt><trkpt lon="15.6291321" lat="46.4320448"><ele>350</ele><time>2019-09-10T17:26:37.000Z</time></trkpt><trkpt lon="15.6292469" lat="46.4321382"><ele>350</ele><time>2019-09-10T17:26:38.000Z</time></trkpt><trkpt lon="15.6293049" lat="46.432184"><ele>350</ele><time>2019-09-10T17:26:39.000Z</time></trkpt><trkpt lon="15.6293622" lat="46.4322302"><ele>350</ele><time>2019-09-10T17:26:40.000Z</time></trkpt><trkpt lon="15.6294195" lat="46.4322766"><ele>350</ele><time>2019-09-10T17:26:41.000Z</time></trkpt><trkpt lon="15.6294195" lat="46.4322766"><ele>350</ele><time>2019-09-10T17:26:42.000Z</time></trkpt><trkpt lon="15.629534" lat="46.4323703"><ele>350</ele><time>2019-09-10T17:26:43.000Z</time></trkpt><trkpt lon="15.629534" lat="46.4323703"><ele>350</ele><time>2019-09-10T17:26:44.000Z</time></trkpt><trkpt lon="15.6296492" lat="46.4324635"><ele>350</ele><time>2019-09-10T17:26:45.000Z</time></trkpt><trkpt lon="15.6297068" lat="46.43251"><ele>350</ele><time>2019-09-10T17:26:46.000Z</time></trkpt><trkpt lon="15.6297646" lat="46.4325564"><ele>350</ele><time>2019-09-10T17:26:47.000Z</time></trkpt><trkpt lon="15.6298229" lat="46.4326029"><ele>350</ele><time>2019-09-10T17:26:48.000Z</time></trkpt><trkpt lon="15.6298229" lat="46.4326029"><ele>350</ele><time>2019-09-10T17:26:49.000Z</time></trkpt><trkpt lon="15.6299398" lat="46.4326972"><ele>350</ele><time>2019-09-10T17:26:50.000Z</time></trkpt><trkpt lon="15.6299398" lat="46.4326972"><ele>350</ele><time>2019-09-10T17:26:51.000Z</time></trkpt><trkpt lon="15.6300562" lat="46.4327919"><ele>350</ele><time>2019-09-10T17:26:52.000Z</time></trkpt><trkpt lon="15.630115" lat="46.4328392"><ele>350</ele><time>2019-09-10T17:26:53.000Z</time></trkpt><trkpt lon="15.630115" lat="46.4328392"><ele>350</ele><time>2019-09-10T17:26:54.000Z</time></trkpt><trkpt lon="15.6302344" lat="46.4329333"><ele>350</ele><time>2019-09-10T17:26:55.000Z</time></trkpt><trkpt lon="15.6302344" lat="46.4329333"><ele>350</ele><time>2019-09-10T17:26:56.000Z</time></trkpt><trkpt lon="15.6303544" lat="46.4330297"><ele>349</ele><time>2019-09-10T17:26:57.000Z</time></trkpt><trkpt lon="15.6303544" lat="46.4330297"><ele>349</ele><time>2019-09-10T17:26:58.000Z</time></trkpt><trkpt lon="15.6304772" lat="46.4331271"><ele>349</ele><time>2019-09-10T17:26:59.000Z</time></trkpt><trkpt lon="15.6304772" lat="46.4331271"><ele>349</ele><time>2019-09-10T17:27:00.000Z</time></trkpt><trkpt lon="15.6305996" lat="46.4332221"><ele>349</ele><time>2019-09-10T17:27:01.000Z</time></trkpt><trkpt lon="15.6305996" lat="46.4332221"><ele>349</ele><time>2019-09-10T17:27:02.000Z</time></trkpt><trkpt lon="15.6307155" lat="46.4333156"><ele>349</ele><time>2019-09-10T17:27:03.000Z</time></trkpt><trkpt lon="15.6307155" lat="46.4333156"><ele>349</ele><time>2019-09-10T17:27:04.000Z</time></trkpt><trkpt lon="15.630831" lat="46.4334066"><ele>349</ele><time>2019-09-10T17:27:05.000Z</time></trkpt><trkpt lon="15.630831" lat="46.4334066"><ele>349</ele><time>2019-09-10T17:27:06.000Z</time></trkpt><trkpt lon="15.6309476" lat="46.4334975"><ele>349</ele><time>2019-09-10T17:27:07.000Z</time></trkpt><trkpt lon="15.6310068" lat="46.4335437"><ele>349</ele><time>2019-09-10T17:27:08.000Z</time></trkpt><trkpt lon="15.6310068" lat="46.4335437"><ele>349</ele><time>2019-09-10T17:27:09.000Z</time></trkpt><trkpt lon="15.6311248" lat="46.4336368"><ele>349</ele><time>2019-09-10T17:27:10.000Z</time></trkpt><trkpt lon="15.6311248" lat="46.4336368"><ele>349</ele><time>2019-09-10T17:27:11.000Z</time></trkpt><trkpt lon="15.6312436" lat="46.4337293"><ele>349</ele><time>2019-09-10T17:27:12.000Z</time></trkpt><trkpt lon="15.6313024" lat="46.4337755"><ele>349</ele><time>2019-09-10T17:27:13.000Z</time></trkpt><trkpt lon="15.6313024" lat="46.4337755"><ele>349</ele><time>2019-09-10T17:27:14.000Z</time></trkpt><trkpt lon="15.6314194" lat="46.4338661"><ele>349</ele><time>2019-09-10T17:27:15.000Z</time></trkpt><trkpt lon="15.6314787" lat="46.4339108"><ele>349</ele><time>2019-09-10T17:27:16.000Z</time></trkpt><trkpt lon="15.6315385" lat="46.4339551"><ele>349</ele><time>2019-09-10T17:27:17.000Z</time></trkpt><trkpt lon="15.6315385" lat="46.4339551"><ele>349</ele><time>2019-09-10T17:27:18.000Z</time></trkpt><trkpt lon="15.6316591" lat="46.434044"><ele>348</ele><time>2019-09-10T17:27:19.000Z</time></trkpt><trkpt lon="15.6317202" lat="46.4340882"><ele>348</ele><time>2019-09-10T17:27:20.000Z</time></trkpt><trkpt lon="15.6317202" lat="46.4340882"><ele>348</ele><time>2019-09-10T17:27:21.000Z</time></trkpt><trkpt lon="15.6318456" lat="46.4341746"><ele>348</ele><time>2019-09-10T17:27:22.000Z</time></trkpt><trkpt lon="15.6319093" lat="46.4342173"><ele>348</ele><time>2019-09-10T17:27:23.000Z</time></trkpt><trkpt lon="15.6319741" lat="46.4342601"><ele>348</ele><time>2019-09-10T17:27:24.000Z</time></trkpt><trkpt lon="15.6319741" lat="46.4342601"><ele>348</ele><time>2019-09-10T17:27:25.000Z</time></trkpt><trkpt lon="15.632108" lat="46.4343463"><ele>348</ele><time>2019-09-10T17:27:26.000Z</time></trkpt><trkpt lon="15.6321778" lat="46.4343891"><ele>348</ele><time>2019-09-10T17:27:27.000Z</time></trkpt><trkpt lon="15.6322485" lat="46.4344323"><ele>348</ele><time>2019-09-10T17:27:28.000Z</time></trkpt><trkpt lon="15.6322485" lat="46.4344323"><ele>348</ele><time>2019-09-10T17:27:29.000Z</time></trkpt><trkpt lon="15.6323896" lat="46.4345187"><ele>347</ele><time>2019-09-10T17:27:30.000Z</time></trkpt><trkpt lon="15.6324599" lat="46.4345611"><ele>347</ele><time>2019-09-10T17:27:31.000Z</time></trkpt><trkpt lon="15.6325306" lat="46.4346027"><ele>347</ele><time>2019-09-10T17:27:32.000Z</time></trkpt><trkpt lon="15.6325306" lat="46.4346027"><ele>347</ele><time>2019-09-10T17:27:33.000Z</time></trkpt><trkpt lon="15.6326721" lat="46.4346822"><ele>347</ele><time>2019-09-10T17:27:34.000Z</time></trkpt><trkpt lon="15.632742" lat="46.4347207"><ele>347</ele><time>2019-09-10T17:27:35.000Z</time></trkpt><trkpt lon="15.6328111" lat="46.4347588"><ele>347</ele><time>2019-09-10T17:27:36.000Z</time></trkpt><trkpt lon="15.6328111" lat="46.4347588"><ele>347</ele><time>2019-09-10T17:27:37.000Z</time></trkpt><trkpt lon="15.6329495" lat="46.434835"><ele>347</ele><time>2019-09-10T17:27:38.000Z</time></trkpt><trkpt lon="15.6330179" lat="46.4348722"><ele>347</ele><time>2019-09-10T17:27:39.000Z</time></trkpt><trkpt lon="15.6330179" lat="46.4348722"><ele>347</ele><time>2019-09-10T17:27:40.000Z</time></trkpt><trkpt lon="15.633153" lat="46.4349454"><ele>347</ele><time>2019-09-10T17:27:41.000Z</time></trkpt><trkpt lon="15.63322" lat="46.4349823"><ele>347</ele><time>2019-09-10T17:27:42.000Z</time></trkpt><trkpt lon="15.63322" lat="46.4349823"><ele>347</ele><time>2019-09-10T17:27:43.000Z</time></trkpt><trkpt lon="15.6333556" lat="46.4350552"><ele>347</ele><time>2019-09-10T17:27:44.000Z</time></trkpt><trkpt lon="15.6333556" lat="46.4350552"><ele>347</ele><time>2019-09-10T17:27:45.000Z</time></trkpt><trkpt lon="15.6334892" lat="46.4351299"><ele>347</ele><time>2019-09-10T17:27:46.000Z</time></trkpt><trkpt lon="15.6335563" lat="46.4351677"><ele>347</ele><time>2019-09-10T17:27:47.000Z</time></trkpt><trkpt lon="15.6336238" lat="46.4352063"><ele>347</ele><time>2019-09-10T17:27:48.000Z</time></trkpt><trkpt lon="15.6336238" lat="46.4352063"><ele>347</ele><time>2019-09-10T17:27:49.000Z</time></trkpt><trkpt lon="15.6337578" lat="46.4352834"><ele>347</ele><time>2019-09-10T17:27:50.000Z</time></trkpt><trkpt lon="15.6338201" lat="46.4353241"><ele>347</ele><time>2019-09-10T17:27:51.000Z</time></trkpt><trkpt lon="15.6338201" lat="46.4353241"><ele>347</ele><time>2019-09-10T17:27:52.000Z</time></trkpt><trkpt lon="15.6339408" lat="46.4354078"><ele>347</ele><time>2019-09-10T17:27:53.000Z</time></trkpt><trkpt lon="15.6339408" lat="46.4354078"><ele>347</ele><time>2019-09-10T17:27:54.000Z</time></trkpt><trkpt lon="15.6340607" lat="46.4354943"><ele>347</ele><time>2019-09-10T17:27:55.000Z</time></trkpt><trkpt lon="15.6340607" lat="46.4354943"><ele>347</ele><time>2019-09-10T17:27:56.000Z</time></trkpt><trkpt lon="15.6341708" lat="46.4355885"><ele>347</ele><time>2019-09-10T17:27:57.000Z</time></trkpt><trkpt lon="15.6341708" lat="46.4355885"><ele>347</ele><time>2019-09-10T17:27:58.000Z</time></trkpt><trkpt lon="15.6342706" lat="46.4356915"><ele>346</ele><time>2019-09-10T17:27:59.000Z</time></trkpt><trkpt lon="15.6343174" lat="46.4357455"><ele>346</ele><time>2019-09-10T17:28:00.000Z</time></trkpt><trkpt lon="15.6343174" lat="46.4357455"><ele>346</ele><time>2019-09-10T17:28:01.000Z</time></trkpt><trkpt lon="15.6344061" lat="46.4358577"><ele>346</ele><time>2019-09-10T17:28:02.000Z</time></trkpt><trkpt lon="15.6344061" lat="46.4358577"><ele>346</ele><time>2019-09-10T17:28:03.000Z</time></trkpt><trkpt lon="15.6344834" lat="46.4359785"><ele>345</ele><time>2019-09-10T17:28:04.000Z</time></trkpt><trkpt lon="15.6344834" lat="46.4359785"><ele>345</ele><time>2019-09-10T17:28:05.000Z</time></trkpt><trkpt lon="15.6345428" lat="46.4361085"><ele>345</ele><time>2019-09-10T17:28:06.000Z</time></trkpt><trkpt lon="15.6345679" lat="46.4361737"><ele>345</ele><time>2019-09-10T17:28:07.000Z</time></trkpt><trkpt lon="15.6345902" lat="46.4362373"><ele>344</ele><time>2019-09-10T17:28:08.000Z</time></trkpt><trkpt lon="15.6345902" lat="46.4362373"><ele>344</ele><time>2019-09-10T17:28:09.000Z</time></trkpt><trkpt lon="15.6346266" lat="46.4363716"><ele>344</ele><time>2019-09-10T17:28:10.000Z</time></trkpt><trkpt lon="15.6346266" lat="46.4363716"><ele>344</ele><time>2019-09-10T17:28:11.000Z</time></trkpt><trkpt lon="15.634646" lat="46.4365168"><ele>343</ele><time>2019-09-10T17:28:12.000Z</time></trkpt><trkpt lon="15.634646" lat="46.4365168"><ele>343</ele><time>2019-09-10T17:28:13.000Z</time></trkpt><trkpt lon="15.6346508" lat="46.4366668"><ele>343</ele><time>2019-09-10T17:28:14.000Z</time></trkpt><trkpt lon="15.634649" lat="46.436739"><ele>342</ele><time>2019-09-10T17:28:15.000Z</time></trkpt><trkpt lon="15.634645" lat="46.43681"><ele>342</ele><time>2019-09-10T17:28:16.000Z</time></trkpt><trkpt lon="15.634645" lat="46.43681"><ele>342</ele><time>2019-09-10T17:28:17.000Z</time></trkpt><trkpt lon="15.6346342" lat="46.4369503"><ele>342</ele><time>2019-09-10T17:28:18.000Z</time></trkpt><trkpt lon="15.6346342" lat="46.4369503"><ele>342</ele><time>2019-09-10T17:28:19.000Z</time></trkpt><trkpt lon="15.6346191" lat="46.4370806"><ele>342</ele><time>2019-09-10T17:28:20.000Z</time></trkpt><trkpt lon="15.6346191" lat="46.4370806"><ele>342</ele><time>2019-09-10T17:28:21.000Z</time></trkpt><trkpt lon="15.6346049" lat="46.4372098"><ele>342</ele><time>2019-09-10T17:28:22.000Z</time></trkpt><trkpt lon="15.6345963" lat="46.437274"><ele>342</ele><time>2019-09-10T17:28:23.000Z</time></trkpt><trkpt lon="15.6345963" lat="46.437274"><ele>342</ele><time>2019-09-10T17:28:24.000Z</time></trkpt><trkpt lon="15.6345778" lat="46.4373992"><ele>342</ele><time>2019-09-10T17:28:25.000Z</time></trkpt><trkpt lon="15.6345778" lat="46.4373992"><ele>342</ele><time>2019-09-10T17:28:26.000Z</time></trkpt><trkpt lon="15.6345607" lat="46.4375212"><ele>342</ele><time>2019-09-10T17:28:27.000Z</time></trkpt><trkpt lon="15.634553" lat="46.4375826"><ele>342</ele><time>2019-09-10T17:28:28.000Z</time></trkpt><trkpt lon="15.6345452" lat="46.4376438"><ele>342</ele><time>2019-09-10T17:28:29.000Z</time></trkpt><trkpt lon="15.6345452" lat="46.4376438"><ele>342</ele><time>2019-09-10T17:28:30.000Z</time></trkpt><trkpt lon="15.6345289" lat="46.4377644"><ele>342</ele><time>2019-09-10T17:28:31.000Z</time></trkpt><trkpt lon="15.63452" lat="46.4378226"><ele>342</ele><time>2019-09-10T17:28:32.000Z</time></trkpt><trkpt lon="15.63452" lat="46.4378226"><ele>342</ele><time>2019-09-10T17:28:33.000Z</time></trkpt><trkpt lon="15.6345045" lat="46.4379368"><ele>342</ele><time>2019-09-10T17:28:34.000Z</time></trkpt><trkpt lon="15.6344968" lat="46.4379933"><ele>343</ele><time>2019-09-10T17:28:35.000Z</time></trkpt><trkpt lon="15.6344968" lat="46.4379933"><ele>343</ele><time>2019-09-10T17:28:36.000Z</time></trkpt><trkpt lon="15.6344839" lat="46.4381047"><ele>343</ele><time>2019-09-10T17:28:37.000Z</time></trkpt><trkpt lon="15.6344839" lat="46.4381047"><ele>343</ele><time>2019-09-10T17:28:38.000Z</time></trkpt><trkpt lon="15.6344675" lat="46.4382284"><ele>343</ele><time>2019-09-10T17:28:39.000Z</time></trkpt><trkpt lon="15.6344675" lat="46.4382284"><ele>343</ele><time>2019-09-10T17:28:40.000Z</time></trkpt><trkpt lon="15.634449" lat="46.4383506"><ele>343</ele><time>2019-09-10T17:28:41.000Z</time></trkpt><trkpt lon="15.63444" lat="46.438413"><ele>343</ele><time>2019-09-10T17:28:42.000Z</time></trkpt><trkpt lon="15.6344309" lat="46.4384764"><ele>343</ele><time>2019-09-10T17:28:43.000Z</time></trkpt><trkpt lon="15.6344309" lat="46.4384764"><ele>343</ele><time>2019-09-10T17:28:44.000Z</time></trkpt><trkpt lon="15.6344148" lat="46.4386062"><ele>343</ele><time>2019-09-10T17:28:45.000Z</time></trkpt><trkpt lon="15.6344148" lat="46.4386062"><ele>343</ele><time>2019-09-10T17:28:46.000Z</time></trkpt><trkpt lon="15.6343978" lat="46.4387367"><ele>343</ele><time>2019-09-10T17:28:47.000Z</time></trkpt><trkpt lon="15.6343978" lat="46.4387367"><ele>343</ele><time>2019-09-10T17:28:48.000Z</time></trkpt><trkpt lon="15.634381" lat="46.4388648"><ele>343</ele><time>2019-09-10T17:28:49.000Z</time></trkpt><trkpt lon="15.634381" lat="46.4388648"><ele>343</ele><time>2019-09-10T17:28:50.000Z</time></trkpt><trkpt lon="15.634363" lat="46.4389916"><ele>344</ele><time>2019-09-10T17:28:51.000Z</time></trkpt><trkpt lon="15.634363" lat="46.4389916"><ele>344</ele><time>2019-09-10T17:28:52.000Z</time></trkpt><trkpt lon="15.6343457" lat="46.4391189"><ele>344</ele><time>2019-09-10T17:28:53.000Z</time></trkpt><trkpt lon="15.6343457" lat="46.4391189"><ele>344</ele><time>2019-09-10T17:28:54.000Z</time></trkpt><trkpt lon="15.6343273" lat="46.4392452"><ele>344</ele><time>2019-09-10T17:28:55.000Z</time></trkpt><trkpt lon="15.6343273" lat="46.4392452"><ele>344</ele><time>2019-09-10T17:28:56.000Z</time></trkpt><trkpt lon="15.6343112" lat="46.4393749"><ele>344</ele><time>2019-09-10T17:28:57.000Z</time></trkpt><trkpt lon="15.6343036" lat="46.4394399"><ele>344</ele><time>2019-09-10T17:28:58.000Z</time></trkpt><trkpt lon="15.6343036" lat="46.4394399"><ele>344</ele><time>2019-09-10T17:28:59.000Z</time></trkpt><trkpt lon="15.6342897" lat="46.4395693"><ele>345</ele><time>2019-09-10T17:29:00.000Z</time></trkpt><trkpt lon="15.6342853" lat="46.4396335"><ele>345</ele><time>2019-09-10T17:29:01.000Z</time></trkpt><trkpt lon="15.6342803" lat="46.4396977"><ele>345</ele><time>2019-09-10T17:29:02.000Z</time></trkpt><trkpt lon="15.6342803" lat="46.4396977"><ele>345</ele><time>2019-09-10T17:29:03.000Z</time></trkpt><trkpt lon="15.63427" lat="46.4398253"><ele>345</ele><time>2019-09-10T17:29:04.000Z</time></trkpt><trkpt lon="15.6342687" lat="46.4398887"><ele>345</ele><time>2019-09-10T17:29:05.000Z</time></trkpt><trkpt lon="15.6342691" lat="46.4399528"><ele>345</ele><time>2019-09-10T17:29:06.000Z</time></trkpt><trkpt lon="15.6342726" lat="46.4400166"><ele>345</ele><time>2019-09-10T17:29:07.000Z</time></trkpt><trkpt lon="15.6342726" lat="46.4400166"><ele>345</ele><time>2019-09-10T17:29:08.000Z</time></trkpt><trkpt lon="15.6342837" lat="46.440143"><ele>345</ele><time>2019-09-10T17:29:09.000Z</time></trkpt><trkpt lon="15.6342837" lat="46.440143"><ele>345</ele><time>2019-09-10T17:29:10.000Z</time></trkpt><trkpt lon="15.6342987" lat="46.4402688"><ele>345</ele><time>2019-09-10T17:29:11.000Z</time></trkpt><trkpt lon="15.6343097" lat="46.4403313"><ele>345</ele><time>2019-09-10T17:29:12.000Z</time></trkpt><trkpt lon="15.6343216" lat="46.4403934"><ele>345</ele><time>2019-09-10T17:29:13.000Z</time></trkpt><trkpt lon="15.6343216" lat="46.4403934"><ele>345</ele><time>2019-09-10T17:29:14.000Z</time></trkpt><trkpt lon="15.6343483" lat="46.4405175"><ele>345</ele><time>2019-09-10T17:29:15.000Z</time></trkpt><trkpt lon="15.6343634" lat="46.4405801"><ele>345</ele><time>2019-09-10T17:29:16.000Z</time></trkpt><trkpt lon="15.6343634" lat="46.4405801"><ele>345</ele><time>2019-09-10T17:29:17.000Z</time></trkpt><trkpt lon="15.6343971" lat="46.4407083"><ele>345</ele><time>2019-09-10T17:29:18.000Z</time></trkpt><trkpt lon="15.6343971" lat="46.4407083"><ele>345</ele><time>2019-09-10T17:29:19.000Z</time></trkpt><trkpt lon="15.6344371" lat="46.4408372"><ele>345</ele><time>2019-09-10T17:29:20.000Z</time></trkpt><trkpt lon="15.6344371" lat="46.4408372"><ele>345</ele><time>2019-09-10T17:29:21.000Z</time></trkpt><trkpt lon="15.634489" lat="46.4409644"><ele>345</ele><time>2019-09-10T17:29:22.000Z</time></trkpt><trkpt lon="15.6345201" lat="46.4410275"><ele>345</ele><time>2019-09-10T17:29:23.000Z</time></trkpt><trkpt lon="15.6345201" lat="46.4410275"><ele>345</ele><time>2019-09-10T17:29:24.000Z</time></trkpt><trkpt lon="15.6345887" lat="46.4411544"><ele>344</ele><time>2019-09-10T17:29:25.000Z</time></trkpt><trkpt lon="15.6346274" lat="46.4412174"><ele>344</ele><time>2019-09-10T17:29:26.000Z</time></trkpt><trkpt lon="15.6346274" lat="46.4412174"><ele>344</ele><time>2019-09-10T17:29:27.000Z</time></trkpt><trkpt lon="15.634708" lat="46.4413432"><ele>344</ele><time>2019-09-10T17:29:28.000Z</time></trkpt><trkpt lon="15.634708" lat="46.4413432"><ele>344</ele><time>2019-09-10T17:29:29.000Z</time></trkpt><trkpt lon="15.6347976" lat="46.4414654"><ele>344</ele><time>2019-09-10T17:29:30.000Z</time></trkpt><trkpt lon="15.6348462" lat="46.4415248"><ele>344</ele><time>2019-09-10T17:29:31.000Z</time></trkpt><trkpt lon="15.6348462" lat="46.4415248"><ele>344</ele><time>2019-09-10T17:29:32.000Z</time></trkpt><trkpt lon="15.634945" lat="46.4416394"><ele>344</ele><time>2019-09-10T17:29:33.000Z</time></trkpt><trkpt lon="15.634945" lat="46.4416394"><ele>344</ele><time>2019-09-10T17:29:34.000Z</time></trkpt><trkpt lon="15.6350493" lat="46.4417476"><ele>343</ele><time>2019-09-10T17:29:35.000Z</time></trkpt><trkpt lon="15.6350493" lat="46.4417476"><ele>343</ele><time>2019-09-10T17:29:36.000Z</time></trkpt><trkpt lon="15.6351578" lat="46.4418551"><ele>343</ele><time>2019-09-10T17:29:37.000Z</time></trkpt><trkpt lon="15.6351578" lat="46.4418551"><ele>343</ele><time>2019-09-10T17:29:38.000Z</time></trkpt><trkpt lon="15.6352607" lat="46.4419647"><ele>343</ele><time>2019-09-10T17:29:39.000Z</time></trkpt><trkpt lon="15.6353122" lat="46.4420186"><ele>343</ele><time>2019-09-10T17:29:40.000Z</time></trkpt><trkpt lon="15.6353122" lat="46.4420186"><ele>343</ele><time>2019-09-10T17:29:41.000Z</time></trkpt><trkpt lon="15.6354158" lat="46.4421273"><ele>343</ele><time>2019-09-10T17:29:42.000Z</time></trkpt><trkpt lon="15.6354158" lat="46.4421273"><ele>343</ele><time>2019-09-10T17:29:43.000Z</time></trkpt><trkpt lon="15.6355218" lat="46.4422379"><ele>343</ele><time>2019-09-10T17:29:44.000Z</time></trkpt><trkpt lon="15.6355218" lat="46.4422379"><ele>343</ele><time>2019-09-10T17:29:45.000Z</time></trkpt><trkpt lon="15.6356276" lat="46.4423463"><ele>343</ele><time>2019-09-10T17:29:46.000Z</time></trkpt><trkpt lon="15.6356276" lat="46.4423463"><ele>343</ele><time>2019-09-10T17:29:47.000Z</time></trkpt><trkpt lon="15.6357304" lat="46.4424517"><ele>344</ele><time>2019-09-10T17:29:48.000Z</time></trkpt><trkpt lon="15.6357802" lat="46.4425035"><ele>344</ele><time>2019-09-10T17:29:49.000Z</time></trkpt><trkpt lon="15.6358313" lat="46.4425553"><ele>344</ele><time>2019-09-10T17:29:50.000Z</time></trkpt><trkpt lon="15.6358313" lat="46.4425553"><ele>344</ele><time>2019-09-10T17:29:51.000Z</time></trkpt><trkpt lon="15.6359338" lat="46.4426595"><ele>345</ele><time>2019-09-10T17:29:52.000Z</time></trkpt><trkpt lon="15.6359338" lat="46.4426595"><ele>345</ele><time>2019-09-10T17:29:53.000Z</time></trkpt><trkpt lon="15.6360356" lat="46.4427647"><ele>345</ele><time>2019-09-10T17:29:54.000Z</time></trkpt><trkpt lon="15.6360856" lat="46.4428179"><ele>345</ele><time>2019-09-10T17:29:55.000Z</time></trkpt><trkpt lon="15.6361355" lat="46.4428705"><ele>345</ele><time>2019-09-10T17:29:56.000Z</time></trkpt><trkpt lon="15.6361844" lat="46.4429228"><ele>346</ele><time>2019-09-10T17:29:57.000Z</time></trkpt><trkpt lon="15.6362306" lat="46.4429754"><ele>346</ele><time>2019-09-10T17:29:58.000Z</time></trkpt><trkpt lon="15.6362306" lat="46.4429754"><ele>346</ele><time>2019-09-10T17:29:59.000Z</time></trkpt><trkpt lon="15.6363213" lat="46.4430794"><ele>347</ele><time>2019-09-10T17:30:00.000Z</time></trkpt><trkpt lon="15.6363634" lat="46.443131"><ele>347</ele><time>2019-09-10T17:30:01.000Z</time></trkpt><trkpt lon="15.6363634" lat="46.443131"><ele>347</ele><time>2019-09-10T17:30:02.000Z</time></trkpt><trkpt lon="15.6364405" lat="46.4432334"><ele>348</ele><time>2019-09-10T17:30:03.000Z</time></trkpt><trkpt lon="15.6364761" lat="46.443285"><ele>348</ele><time>2019-09-10T17:30:04.000Z</time></trkpt><trkpt lon="15.6364761" lat="46.443285"><ele>348</ele><time>2019-09-10T17:30:05.000Z</time></trkpt><trkpt lon="15.6365438" lat="46.4433862"><ele>349</ele><time>2019-09-10T17:30:06.000Z</time></trkpt><trkpt lon="15.6365762" lat="46.4434368"><ele>349</ele><time>2019-09-10T17:30:07.000Z</time></trkpt><trkpt lon="15.6365762" lat="46.4434368"><ele>349</ele><time>2019-09-10T17:30:08.000Z</time></trkpt><trkpt lon="15.6366325" lat="46.443538"><ele>350</ele><time>2019-09-10T17:30:09.000Z</time></trkpt><trkpt lon="15.6366325" lat="46.443538"><ele>350</ele><time>2019-09-10T17:30:10.000Z</time></trkpt><trkpt lon="15.6366814" lat="46.4436399"><ele>350</ele><time>2019-09-10T17:30:11.000Z</time></trkpt><trkpt lon="15.6366814" lat="46.4436399"><ele>350</ele><time>2019-09-10T17:30:12.000Z</time></trkpt><trkpt lon="15.6367214" lat="46.4437454"><ele>351</ele><time>2019-09-10T17:30:13.000Z</time></trkpt><trkpt lon="15.6367214" lat="46.4437454"><ele>351</ele><time>2019-09-10T17:30:14.000Z</time></trkpt><trkpt lon="15.6367671" lat="46.4438465"><ele>352</ele><time>2019-09-10T17:30:15.000Z</time></trkpt><trkpt lon="15.6367671" lat="46.4438465"><ele>352</ele><time>2019-09-10T17:30:16.000Z</time></trkpt><trkpt lon="15.6368004" lat="46.4439513"><ele>352</ele><time>2019-09-10T17:30:17.000Z</time></trkpt><trkpt lon="15.6368004" lat="46.4439513"><ele>352</ele><time>2019-09-10T17:30:18.000Z</time></trkpt><trkpt lon="15.6368242" lat="46.4440586"><ele>352</ele><time>2019-09-10T17:30:19.000Z</time></trkpt><trkpt lon="15.6368242" lat="46.4440586"><ele>352</ele><time>2019-09-10T17:30:20.000Z</time></trkpt><trkpt lon="15.6368456" lat="46.4441654"><ele>353</ele><time>2019-09-10T17:30:21.000Z</time></trkpt><trkpt lon="15.6368456" lat="46.4441654"><ele>353</ele><time>2019-09-10T17:30:22.000Z</time></trkpt><trkpt lon="15.6368638" lat="46.4442751"><ele>353</ele><time>2019-09-10T17:30:23.000Z</time></trkpt><trkpt lon="15.6368711" lat="46.4443299"><ele>353</ele><time>2019-09-10T17:30:24.000Z</time></trkpt><trkpt lon="15.6368711" lat="46.4443299"><ele>353</ele><time>2019-09-10T17:30:25.000Z</time></trkpt><trkpt lon="15.63688" lat="46.4444368"><ele>354</ele><time>2019-09-10T17:30:26.000Z</time></trkpt><trkpt lon="15.63688" lat="46.4444368"><ele>354</ele><time>2019-09-10T17:30:27.000Z</time></trkpt><trkpt lon="15.6368848" lat="46.4445454"><ele>354</ele><time>2019-09-10T17:30:28.000Z</time></trkpt><trkpt lon="15.6368848" lat="46.4445454"><ele>354</ele><time>2019-09-10T17:30:29.000Z</time></trkpt><trkpt lon="15.6368898" lat="46.4446552"><ele>354</ele><time>2019-09-10T17:30:30.000Z</time></trkpt><trkpt lon="15.6368898" lat="46.4446552"><ele>354</ele><time>2019-09-10T17:30:31.000Z</time></trkpt><trkpt lon="15.6368948" lat="46.4447626"><ele>354</ele><time>2019-09-10T17:30:32.000Z</time></trkpt><trkpt lon="15.6368968" lat="46.4448158"><ele>354</ele><time>2019-09-10T17:30:33.000Z</time></trkpt><trkpt lon="15.6368968" lat="46.4448158"><ele>354</ele><time>2019-09-10T17:30:34.000Z</time></trkpt><trkpt lon="15.6368974" lat="46.4449224"><ele>355</ele><time>2019-09-10T17:30:35.000Z</time></trkpt><trkpt lon="15.6368974" lat="46.4449224"><ele>355</ele><time>2019-09-10T17:30:36.000Z</time></trkpt><trkpt lon="15.636902" lat="46.4450282"><ele>355</ele><time>2019-09-10T17:30:37.000Z</time></trkpt><trkpt lon="15.636902" lat="46.4450282"><ele>355</ele><time>2019-09-10T17:30:38.000Z</time></trkpt><trkpt lon="15.6369065" lat="46.4451338"><ele>355</ele><time>2019-09-10T17:30:39.000Z</time></trkpt><trkpt lon="15.6369078" lat="46.4451874"><ele>355</ele><time>2019-09-10T17:30:40.000Z</time></trkpt><trkpt lon="15.6369085" lat="46.4452405"><ele>355</ele><time>2019-09-10T17:30:41.000Z</time></trkpt><trkpt lon="15.6369085" lat="46.4452405"><ele>355</ele><time>2019-09-10T17:30:42.000Z</time></trkpt><trkpt lon="15.6369104" lat="46.4453461"><ele>356</ele><time>2019-09-10T17:30:43.000Z</time></trkpt><trkpt lon="15.636912" lat="46.4453988"><ele>356</ele><time>2019-09-10T17:30:44.000Z</time></trkpt><trkpt lon="15.636912" lat="46.4453988"><ele>356</ele><time>2019-09-10T17:30:45.000Z</time></trkpt><trkpt lon="15.6369153" lat="46.4455032"><ele>356</ele><time>2019-09-10T17:30:46.000Z</time></trkpt><trkpt lon="15.6369196" lat="46.445556"><ele>356</ele><time>2019-09-10T17:30:47.000Z</time></trkpt><trkpt lon="15.6369196" lat="46.445556"><ele>356</ele><time>2019-09-10T17:30:48.000Z</time></trkpt><trkpt lon="15.6369292" lat="46.445664"><ele>356</ele><time>2019-09-10T17:30:49.000Z</time></trkpt><trkpt lon="15.6369292" lat="46.445664"><ele>356</ele><time>2019-09-10T17:30:50.000Z</time></trkpt><trkpt lon="15.6369426" lat="46.4457728"><ele>356</ele><time>2019-09-10T17:30:51.000Z</time></trkpt><trkpt lon="15.6369508" lat="46.445828"><ele>356</ele><time>2019-09-10T17:30:52.000Z</time></trkpt><trkpt lon="15.6369603" lat="46.4458831"><ele>356</ele><time>2019-09-10T17:30:53.000Z</time></trkpt><trkpt lon="15.6369603" lat="46.4458831"><ele>356</ele><time>2019-09-10T17:30:54.000Z</time></trkpt><trkpt lon="15.6369848" lat="46.445992"><ele>356</ele><time>2019-09-10T17:30:55.000Z</time></trkpt><trkpt lon="15.6369848" lat="46.445992"><ele>356</ele><time>2019-09-10T17:30:56.000Z</time></trkpt><trkpt lon="15.6370146" lat="46.4461003"><ele>357</ele><time>2019-09-10T17:30:57.000Z</time></trkpt><trkpt lon="15.6370306" lat="46.4461539"><ele>357</ele><time>2019-09-10T17:30:58.000Z</time></trkpt><trkpt lon="15.6370306" lat="46.4461539"><ele>357</ele><time>2019-09-10T17:30:59.000Z</time></trkpt><trkpt lon="15.6370664" lat="46.4462591"><ele>357</ele><time>2019-09-10T17:31:00.000Z</time></trkpt><trkpt lon="15.6370868" lat="46.4463126"><ele>357</ele><time>2019-09-10T17:31:01.000Z</time></trkpt><trkpt lon="15.6371094" lat="46.4463675"><ele>357</ele><time>2019-09-10T17:31:02.000Z</time></trkpt><trkpt lon="15.6371094" lat="46.4463675"><ele>357</ele><time>2019-09-10T17:31:03.000Z</time></trkpt><trkpt lon="15.6371573" lat="46.4464789"><ele>357</ele><time>2019-09-10T17:31:04.000Z</time></trkpt><trkpt lon="15.6371829" lat="46.446534"><ele>357</ele><time>2019-09-10T17:31:05.000Z</time></trkpt><trkpt lon="15.6371829" lat="46.446534"><ele>357</ele><time>2019-09-10T17:31:06.000Z</time></trkpt><trkpt lon="15.6372365" lat="46.4466428"><ele>357</ele><time>2019-09-10T17:31:07.000Z</time></trkpt><trkpt lon="15.6372365" lat="46.4466428"><ele>357</ele><time>2019-09-10T17:31:08.000Z</time></trkpt><trkpt lon="15.6372899" lat="46.4467507"><ele>357</ele><time>2019-09-10T17:31:09.000Z</time></trkpt><trkpt lon="15.6373158" lat="46.4468043"><ele>357</ele><time>2019-09-10T17:31:10.000Z</time></trkpt><trkpt lon="15.6373158" lat="46.4468043"><ele>357</ele><time>2019-09-10T17:31:11.000Z</time></trkpt><trkpt lon="15.6373698" lat="46.4469113"><ele>358</ele><time>2019-09-10T17:31:12.000Z</time></trkpt><trkpt lon="15.6373698" lat="46.4469113"><ele>358</ele><time>2019-09-10T17:31:13.000Z</time></trkpt><trkpt lon="15.6374225" lat="46.4470188"><ele>358</ele><time>2019-09-10T17:31:14.000Z</time></trkpt><trkpt lon="15.6374225" lat="46.4470188"><ele>358</ele><time>2019-09-10T17:31:15.000Z</time></trkpt><trkpt lon="15.637476" lat="46.4471253"><ele>358</ele><time>2019-09-10T17:31:16.000Z</time></trkpt><trkpt lon="15.6375023" lat="46.4471783"><ele>358</ele><time>2019-09-10T17:31:17.000Z</time></trkpt><trkpt lon="15.6375023" lat="46.4471783"><ele>358</ele><time>2019-09-10T17:31:18.000Z</time></trkpt><trkpt lon="15.6375547" lat="46.4472826"><ele>358</ele><time>2019-09-10T17:31:19.000Z</time></trkpt><trkpt lon="15.6375792" lat="46.4473356"><ele>358</ele><time>2019-09-10T17:31:20.000Z</time></trkpt><trkpt lon="15.6375792" lat="46.4473356"><ele>358</ele><time>2019-09-10T17:31:21.000Z</time></trkpt><trkpt lon="15.6376313" lat="46.4474411"><ele>359</ele><time>2019-09-10T17:31:22.000Z</time></trkpt><trkpt lon="15.6376313" lat="46.4474411"><ele>359</ele><time>2019-09-10T17:31:23.000Z</time></trkpt><trkpt lon="15.6376829" lat="46.4475441"><ele>359</ele><time>2019-09-10T17:31:24.000Z</time></trkpt><trkpt lon="15.6376829" lat="46.4475441"><ele>359</ele><time>2019-09-10T17:31:25.000Z</time></trkpt><trkpt lon="15.6377323" lat="46.4476495"><ele>359</ele><time>2019-09-10T17:31:26.000Z</time></trkpt><trkpt lon="15.6377323" lat="46.4476495"><ele>359</ele><time>2019-09-10T17:31:27.000Z</time></trkpt><trkpt lon="15.6377877" lat="46.4477581"><ele>359</ele><time>2019-09-10T17:31:28.000Z</time></trkpt><trkpt lon="15.6377877" lat="46.4477581"><ele>359</ele><time>2019-09-10T17:31:29.000Z</time></trkpt><trkpt lon="15.6378431" lat="46.4478658"><ele>359</ele><time>2019-09-10T17:31:30.000Z</time></trkpt><trkpt lon="15.6378707" lat="46.4479205"><ele>359</ele><time>2019-09-10T17:31:31.000Z</time></trkpt><trkpt lon="15.6378707" lat="46.4479205"><ele>359</ele><time>2019-09-10T17:31:32.000Z</time></trkpt><trkpt lon="15.6379224" lat="46.44803"><ele>359</ele><time>2019-09-10T17:31:33.000Z</time></trkpt><trkpt lon="15.6379224" lat="46.44803"><ele>359</ele><time>2019-09-10T17:31:34.000Z</time></trkpt><trkpt lon="15.6379739" lat="46.4481385"><ele>359</ele><time>2019-09-10T17:31:35.000Z</time></trkpt><trkpt lon="15.6379739" lat="46.4481385"><ele>359</ele><time>2019-09-10T17:31:36.000Z</time></trkpt><trkpt lon="15.638025" lat="46.4482469"><ele>360</ele><time>2019-09-10T17:31:37.000Z</time></trkpt><trkpt lon="15.638025" lat="46.4482469"><ele>360</ele><time>2019-09-10T17:31:38.000Z</time></trkpt><trkpt lon="15.6380764" lat="46.4483539"><ele>360</ele><time>2019-09-10T17:31:39.000Z</time></trkpt><trkpt lon="15.6381014" lat="46.4484077"><ele>360</ele><time>2019-09-10T17:31:40.000Z</time></trkpt><trkpt lon="15.6381014" lat="46.4484077"><ele>360</ele><time>2019-09-10T17:31:41.000Z</time></trkpt><trkpt lon="15.6381525" lat="46.4485174"><ele>360</ele><time>2019-09-10T17:31:42.000Z</time></trkpt><trkpt lon="15.6381787" lat="46.4485731"><ele>360</ele><time>2019-09-10T17:31:43.000Z</time></trkpt><trkpt lon="15.6381787" lat="46.4485731"><ele>360</ele><time>2019-09-10T17:31:44.000Z</time></trkpt><trkpt lon="15.6382294" lat="46.4486871"><ele>360</ele><time>2019-09-10T17:31:45.000Z</time></trkpt><trkpt lon="15.6382294" lat="46.4486871"><ele>360</ele><time>2019-09-10T17:31:46.000Z</time></trkpt><trkpt lon="15.6382795" lat="46.4488025"><ele>360</ele><time>2019-09-10T17:31:47.000Z</time></trkpt><trkpt lon="15.6383038" lat="46.4488601"><ele>360</ele><time>2019-09-10T17:31:48.000Z</time></trkpt><trkpt lon="15.6383038" lat="46.4488601"><ele>360</ele><time>2019-09-10T17:31:49.000Z</time></trkpt><trkpt lon="15.6383533" lat="46.4489729"><ele>360</ele><time>2019-09-10T17:31:50.000Z</time></trkpt><trkpt lon="15.6383785" lat="46.4490292"><ele>360</ele><time>2019-09-10T17:31:51.000Z</time></trkpt><trkpt lon="15.6384059" lat="46.4490858"><ele>361</ele><time>2019-09-10T17:31:52.000Z</time></trkpt><trkpt lon="15.6384059" lat="46.4490858"><ele>361</ele><time>2019-09-10T17:31:53.000Z</time></trkpt><trkpt lon="15.6384694" lat="46.4491963"><ele>361</ele><time>2019-09-10T17:31:54.000Z</time></trkpt><trkpt lon="15.6384694" lat="46.4491963"><ele>361</ele><time>2019-09-10T17:31:55.000Z</time></trkpt><trkpt lon="15.6385384" lat="46.4493033"><ele>361</ele><time>2019-09-10T17:31:56.000Z</time></trkpt><trkpt lon="15.6385384" lat="46.4493033"><ele>361</ele><time>2019-09-10T17:31:57.000Z</time></trkpt><trkpt lon="15.6386095" lat="46.4494068"><ele>361</ele><time>2019-09-10T17:31:58.000Z</time></trkpt><trkpt lon="15.6386095" lat="46.4494068"><ele>361</ele><time>2019-09-10T17:31:59.000Z</time></trkpt><trkpt lon="15.6387049" lat="46.4495015"><ele>361</ele><time>2019-09-10T17:32:00.000Z</time></trkpt><trkpt lon="15.6387049" lat="46.4495015"><ele>361</ele><time>2019-09-10T17:32:01.000Z</time></trkpt><trkpt lon="15.6388111" lat="46.4495898"><ele>361</ele><time>2019-09-10T17:32:02.000Z</time></trkpt><trkpt lon="15.6388111" lat="46.4495898"><ele>361</ele><time>2019-09-10T17:32:03.000Z</time></trkpt><trkpt lon="15.638917" lat="46.4496753"><ele>361</ele><time>2019-09-10T17:32:04.000Z</time></trkpt><trkpt lon="15.6389689" lat="46.4497191"><ele>361</ele><time>2019-09-10T17:32:05.000Z</time></trkpt><trkpt lon="15.6390213" lat="46.4497624"><ele>361</ele><time>2019-09-10T17:32:06.000Z</time></trkpt><trkpt lon="15.6390213" lat="46.4497624"><ele>361</ele><time>2019-09-10T17:32:07.000Z</time></trkpt><trkpt lon="15.6391255" lat="46.4498472"><ele>361</ele><time>2019-09-10T17:32:08.000Z</time></trkpt><trkpt lon="15.6391255" lat="46.4498472"><ele>361</ele><time>2019-09-10T17:32:09.000Z</time></trkpt><trkpt lon="15.6392306" lat="46.4499333"><ele>361</ele><time>2019-09-10T17:32:10.000Z</time></trkpt><trkpt lon="15.6392306" lat="46.4499333"><ele>361</ele><time>2019-09-10T17:32:11.000Z</time></trkpt><trkpt lon="15.6393358" lat="46.4500217"><ele>361</ele><time>2019-09-10T17:32:12.000Z</time></trkpt><trkpt lon="15.6393877" lat="46.4500683"><ele>361</ele><time>2019-09-10T17:32:13.000Z</time></trkpt><trkpt lon="15.6393877" lat="46.4500683"><ele>361</ele><time>2019-09-10T17:32:14.000Z</time></trkpt><trkpt lon="15.6394945" lat="46.450164"><ele>361</ele><time>2019-09-10T17:32:15.000Z</time></trkpt><trkpt lon="15.6395485" lat="46.4502121"><ele>361</ele><time>2019-09-10T17:32:16.000Z</time></trkpt><trkpt lon="15.6395485" lat="46.4502121"><ele>361</ele><time>2019-09-10T17:32:17.000Z</time></trkpt><trkpt lon="15.6396523" lat="46.4503079"><ele>362</ele><time>2019-09-10T17:32:18.000Z</time></trkpt><trkpt lon="15.6396523" lat="46.4503079"><ele>362</ele><time>2019-09-10T17:32:19.000Z</time></trkpt><trkpt lon="15.6397511" lat="46.4504006"><ele>362</ele><time>2019-09-10T17:32:20.000Z</time></trkpt><trkpt lon="15.6397984" lat="46.4504465"><ele>362</ele><time>2019-09-10T17:32:21.000Z</time></trkpt><trkpt lon="15.6398472" lat="46.4504913"><ele>362</ele><time>2019-09-10T17:32:22.000Z</time></trkpt><trkpt lon="15.6398964" lat="46.450535"><ele>362</ele><time>2019-09-10T17:32:23.000Z</time></trkpt><trkpt lon="15.6399445" lat="46.4505792"><ele>362</ele><time>2019-09-10T17:32:24.000Z</time></trkpt><trkpt lon="15.6399445" lat="46.4505792"><ele>362</ele><time>2019-09-10T17:32:25.000Z</time></trkpt><trkpt lon="15.6400364" lat="46.4506678"><ele>362</ele><time>2019-09-10T17:32:26.000Z</time></trkpt><trkpt lon="15.640081" lat="46.4507123"><ele>362</ele><time>2019-09-10T17:32:27.000Z</time></trkpt><trkpt lon="15.640081" lat="46.4507123"><ele>362</ele><time>2019-09-10T17:32:28.000Z</time></trkpt><trkpt lon="15.6401664" lat="46.4508063"><ele>362</ele><time>2019-09-10T17:32:29.000Z</time></trkpt><trkpt lon="15.6401664" lat="46.4508063"><ele>362</ele><time>2019-09-10T17:32:30.000Z</time></trkpt><trkpt lon="15.6402603" lat="46.4509034"><ele>362</ele><time>2019-09-10T17:32:31.000Z</time></trkpt><trkpt lon="15.6402603" lat="46.4509034"><ele>362</ele><time>2019-09-10T17:32:32.000Z</time></trkpt><trkpt lon="15.6403526" lat="46.4510064"><ele>362</ele><time>2019-09-10T17:32:33.000Z</time></trkpt><trkpt lon="15.6403526" lat="46.4510064"><ele>362</ele><time>2019-09-10T17:32:34.000Z</time></trkpt><trkpt lon="15.6404502" lat="46.4511169"><ele>362</ele><time>2019-09-10T17:32:35.000Z</time></trkpt><trkpt lon="15.6404502" lat="46.4511169"><ele>362</ele><time>2019-09-10T17:32:36.000Z</time></trkpt><trkpt lon="15.6405506" lat="46.4512322"><ele>362</ele><time>2019-09-10T17:32:37.000Z</time></trkpt><trkpt lon="15.6406005" lat="46.4512894"><ele>362</ele><time>2019-09-10T17:32:38.000Z</time></trkpt><trkpt lon="15.6406005" lat="46.4512894"><ele>362</ele><time>2019-09-10T17:32:39.000Z</time></trkpt><trkpt lon="15.6406921" lat="46.4514028"><ele>362</ele><time>2019-09-10T17:32:40.000Z</time></trkpt><trkpt lon="15.6406921" lat="46.4514028"><ele>362</ele><time>2019-09-10T17:32:41.000Z</time></trkpt><trkpt lon="15.6407805" lat="46.4515096"><ele>362</ele><time>2019-09-10T17:32:42.000Z</time></trkpt><trkpt lon="15.6408241" lat="46.4515613"><ele>362</ele><time>2019-09-10T17:32:43.000Z</time></trkpt><trkpt lon="15.6408694" lat="46.4516129"><ele>362</ele><time>2019-09-10T17:32:44.000Z</time></trkpt><trkpt lon="15.6408694" lat="46.4516129"><ele>362</ele><time>2019-09-10T17:32:45.000Z</time></trkpt><trkpt lon="15.640962" lat="46.4517171"><ele>362</ele><time>2019-09-10T17:32:46.000Z</time></trkpt><trkpt lon="15.6410054" lat="46.4517706"><ele>362</ele><time>2019-09-10T17:32:47.000Z</time></trkpt><trkpt lon="15.6410054" lat="46.4517706"><ele>362</ele><time>2019-09-10T17:32:48.000Z</time></trkpt><trkpt lon="15.6410981" lat="46.4518745"><ele>361</ele><time>2019-09-10T17:32:49.000Z</time></trkpt><trkpt lon="15.6410981" lat="46.4518745"><ele>361</ele><time>2019-09-10T17:32:50.000Z</time></trkpt><trkpt lon="15.6411882" lat="46.4519795"><ele>361</ele><time>2019-09-10T17:32:51.000Z</time></trkpt><trkpt lon="15.6412344" lat="46.4520314"><ele>361</ele><time>2019-09-10T17:32:52.000Z</time></trkpt><trkpt lon="15.6412344" lat="46.4520314"><ele>361</ele><time>2019-09-10T17:32:53.000Z</time></trkpt><trkpt lon="15.6413245" lat="46.4521351"><ele>361</ele><time>2019-09-10T17:32:54.000Z</time></trkpt><trkpt lon="15.6413682" lat="46.4521871"><ele>361</ele><time>2019-09-10T17:32:55.000Z</time></trkpt><trkpt lon="15.6413682" lat="46.4521871"><ele>361</ele><time>2019-09-10T17:32:56.000Z</time></trkpt><trkpt lon="15.6414522" lat="46.4522832"><ele>361</ele><time>2019-09-10T17:32:57.000Z</time></trkpt><trkpt lon="15.6414914" lat="46.4523257"><ele>361</ele><time>2019-09-10T17:32:58.000Z</time></trkpt><trkpt lon="15.6414914" lat="46.4523257"><ele>361</ele><time>2019-09-10T17:32:59.000Z</time></trkpt><trkpt lon="15.6415632" lat="46.4524043"><ele>361</ele><time>2019-09-10T17:33:00.000Z</time></trkpt><trkpt lon="15.6415632" lat="46.4524043"><ele>361</ele><time>2019-09-10T17:33:01.000Z</time></trkpt><trkpt lon="15.6416133" lat="46.4524599"><ele>361</ele><time>2019-09-10T17:33:02.000Z</time></trkpt><trkpt lon="15.6416133" lat="46.4524599"><ele>361</ele><time>2019-09-10T17:33:03.000Z</time></trkpt><trkpt lon="15.6416489" lat="46.4525025"><ele>361</ele><time>2019-09-10T17:33:04.000Z</time></trkpt><trkpt lon="15.6416489" lat="46.4525025"><ele>361</ele><time>2019-09-10T17:33:05.000Z</time></trkpt><trkpt lon="15.641674" lat="46.4525355"><ele>360</ele><time>2019-09-10T17:33:06.000Z</time></trkpt><trkpt lon="15.6416948" lat="46.4525604"><ele>360</ele><time>2019-09-10T17:33:07.000Z</time></trkpt><trkpt lon="15.6416948" lat="46.4525604"><ele>360</ele><time>2019-09-10T17:33:08.000Z</time></trkpt><trkpt lon="15.64173" lat="46.4526031"><ele>360</ele><time>2019-09-10T17:33:09.000Z</time></trkpt><trkpt lon="15.6417478" lat="46.4526277"><ele>360</ele><time>2019-09-10T17:33:10.000Z</time></trkpt><trkpt lon="15.6417478" lat="46.4526277"><ele>360</ele><time>2019-09-10T17:33:11.000Z</time></trkpt><trkpt lon="15.6417922" lat="46.4526771"><ele>360</ele><time>2019-09-10T17:33:12.000Z</time></trkpt><trkpt lon="15.6417922" lat="46.4526771"><ele>360</ele><time>2019-09-10T17:33:13.000Z</time></trkpt><trkpt lon="15.6418657" lat="46.4527507"><ele>360</ele><time>2019-09-10T17:33:14.000Z</time></trkpt><trkpt lon="15.6418875" lat="46.4527859"><ele>360</ele><time>2019-09-10T17:33:15.000Z</time></trkpt><trkpt lon="15.6419077" lat="46.4528234"><ele>360</ele><time>2019-09-10T17:33:16.000Z</time></trkpt><trkpt lon="15.641932" lat="46.452862"><ele>360</ele><time>2019-09-10T17:33:17.000Z</time></trkpt><trkpt lon="15.641932" lat="46.452862"><ele>360</ele><time>2019-09-10T17:33:18.000Z</time></trkpt><trkpt lon="15.6419891" lat="46.4529391"><ele>360</ele><time>2019-09-10T17:33:19.000Z</time></trkpt><trkpt lon="15.6419891" lat="46.4529391"><ele>360</ele><time>2019-09-10T17:33:20.000Z</time></trkpt><trkpt lon="15.6420544" lat="46.4530073"><ele>360</ele><time>2019-09-10T17:33:21.000Z</time></trkpt><trkpt lon="15.642083" lat="46.4530414"><ele>360</ele><time>2019-09-10T17:33:22.000Z</time></trkpt><trkpt lon="15.6421104" lat="46.4530751"><ele>360</ele><time>2019-09-10T17:33:23.000Z</time></trkpt><trkpt lon="15.6421104" lat="46.4530751"><ele>360</ele><time>2019-09-10T17:33:24.000Z</time></trkpt><trkpt lon="15.6421722" lat="46.4531501"><ele>360</ele><time>2019-09-10T17:33:25.000Z</time></trkpt><trkpt lon="15.6421722" lat="46.4531501"><ele>360</ele><time>2019-09-10T17:33:26.000Z</time></trkpt><trkpt lon="15.6422447" lat="46.4532318"><ele>360</ele><time>2019-09-10T17:33:27.000Z</time></trkpt><trkpt lon="15.6422755" lat="46.4532709"><ele>360</ele><time>2019-09-10T17:33:28.000Z</time></trkpt><trkpt lon="15.6422755" lat="46.4532709"><ele>360</ele><time>2019-09-10T17:33:29.000Z</time></trkpt><trkpt lon="15.6423381" lat="46.4533419"><ele>360</ele><time>2019-09-10T17:33:30.000Z</time></trkpt><trkpt lon="15.6423381" lat="46.4533419"><ele>360</ele><time>2019-09-10T17:33:31.000Z</time></trkpt><trkpt lon="15.6424019" lat="46.453407"><ele>359</ele><time>2019-09-10T17:33:32.000Z</time></trkpt><trkpt lon="15.6424019" lat="46.453407"><ele>359</ele><time>2019-09-10T17:33:33.000Z</time></trkpt><trkpt lon="15.6424954" lat="46.4534872"><ele>359</ele><time>2019-09-10T17:33:34.000Z</time></trkpt><trkpt lon="15.6425458" lat="46.4535382"><ele>359</ele><time>2019-09-10T17:33:35.000Z</time></trkpt><trkpt lon="15.6425996" lat="46.453592"><ele>359</ele><time>2019-09-10T17:33:36.000Z</time></trkpt><trkpt lon="15.6425996" lat="46.453592"><ele>359</ele><time>2019-09-10T17:33:37.000Z</time></trkpt><trkpt lon="15.6427128" lat="46.4537022"><ele>359</ele><time>2019-09-10T17:33:38.000Z</time></trkpt><trkpt lon="15.6427702" lat="46.4537585"><ele>359</ele><time>2019-09-10T17:33:39.000Z</time></trkpt><trkpt lon="15.6427702" lat="46.4537585"><ele>359</ele><time>2019-09-10T17:33:40.000Z</time></trkpt><trkpt lon="15.6428885" lat="46.4538722"><ele>359</ele><time>2019-09-10T17:33:41.000Z</time></trkpt><trkpt lon="15.6428885" lat="46.4538722"><ele>359</ele><time>2019-09-10T17:33:42.000Z</time></trkpt><trkpt lon="15.6430069" lat="46.4539847"><ele>359</ele><time>2019-09-10T17:33:43.000Z</time></trkpt><trkpt lon="15.6430661" lat="46.4540398"><ele>358</ele><time>2019-09-10T17:33:44.000Z</time></trkpt><trkpt lon="15.6431265" lat="46.4540936"><ele>358</ele><time>2019-09-10T17:33:45.000Z</time></trkpt><trkpt lon="15.6431265" lat="46.4540936"><ele>358</ele><time>2019-09-10T17:33:46.000Z</time></trkpt><trkpt lon="15.6432432" lat="46.4542009"><ele>358</ele><time>2019-09-10T17:33:47.000Z</time></trkpt><trkpt lon="15.6432999" lat="46.4542539"><ele>358</ele><time>2019-09-10T17:33:48.000Z</time></trkpt><trkpt lon="15.6432999" lat="46.4542539"><ele>358</ele><time>2019-09-10T17:33:49.000Z</time></trkpt><trkpt lon="15.6434113" lat="46.4543577"><ele>358</ele><time>2019-09-10T17:33:50.000Z</time></trkpt><trkpt lon="15.6434655" lat="46.4544092"><ele>358</ele><time>2019-09-10T17:33:51.000Z</time></trkpt><trkpt lon="15.6435198" lat="46.4544612"><ele>358</ele><time>2019-09-10T17:33:52.000Z</time></trkpt><trkpt lon="15.6435198" lat="46.4544612"><ele>358</ele><time>2019-09-10T17:33:53.000Z</time></trkpt><trkpt lon="15.6436307" lat="46.4545657"><ele>358</ele><time>2019-09-10T17:33:54.000Z</time></trkpt><trkpt lon="15.6436836" lat="46.4546178"><ele>358</ele><time>2019-09-10T17:33:55.000Z</time></trkpt><trkpt lon="15.6437406" lat="46.4546671"><ele>358</ele><time>2019-09-10T17:33:56.000Z</time></trkpt><trkpt lon="15.6437406" lat="46.4546671"><ele>358</ele><time>2019-09-10T17:33:57.000Z</time></trkpt><trkpt lon="15.6438552" lat="46.4547703"><ele>358</ele><time>2019-09-10T17:33:58.000Z</time></trkpt><trkpt lon="15.6438552" lat="46.4547703"><ele>358</ele><time>2019-09-10T17:33:59.000Z</time></trkpt><trkpt lon="15.643969" lat="46.4548776"><ele>357</ele><time>2019-09-10T17:34:00.000Z</time></trkpt><trkpt lon="15.644026" lat="46.4549317"><ele>357</ele><time>2019-09-10T17:34:01.000Z</time></trkpt><trkpt lon="15.644026" lat="46.4549317"><ele>357</ele><time>2019-09-10T17:34:02.000Z</time></trkpt><trkpt lon="15.64414" lat="46.4550387"><ele>357</ele><time>2019-09-10T17:34:03.000Z</time></trkpt><trkpt lon="15.64414" lat="46.4550387"><ele>357</ele><time>2019-09-10T17:34:04.000Z</time></trkpt><trkpt lon="15.6442533" lat="46.4551442"><ele>357</ele><time>2019-09-10T17:34:05.000Z</time></trkpt><trkpt lon="15.6442533" lat="46.4551442"><ele>357</ele><time>2019-09-10T17:34:06.000Z</time></trkpt><trkpt lon="15.6443687" lat="46.4552497"><ele>357</ele><time>2019-09-10T17:34:07.000Z</time></trkpt><trkpt lon="15.6444273" lat="46.4553027"><ele>357</ele><time>2019-09-10T17:34:08.000Z</time></trkpt><trkpt lon="15.6444834" lat="46.4553568"><ele>357</ele><time>2019-09-10T17:34:09.000Z</time></trkpt><trkpt lon="15.6444834" lat="46.4553568"><ele>357</ele><time>2019-09-10T17:34:10.000Z</time></trkpt><trkpt lon="15.644596" lat="46.4554644"><ele>357</ele><time>2019-09-10T17:34:11.000Z</time></trkpt><trkpt lon="15.644596" lat="46.4554644"><ele>357</ele><time>2019-09-10T17:34:12.000Z</time></trkpt><trkpt lon="15.6447081" lat="46.4555713"><ele>357</ele><time>2019-09-10T17:34:13.000Z</time></trkpt><trkpt lon="15.6447081" lat="46.4555713"><ele>357</ele><time>2019-09-10T17:34:14.000Z</time></trkpt><trkpt lon="15.6448214" lat="46.4556769"><ele>357</ele><time>2019-09-10T17:34:15.000Z</time></trkpt><trkpt lon="15.6448214" lat="46.4556769"><ele>357</ele><time>2019-09-10T17:34:16.000Z</time></trkpt><trkpt lon="15.6449358" lat="46.455782"><ele>357</ele><time>2019-09-10T17:34:17.000Z</time></trkpt><trkpt lon="15.6449934" lat="46.4558346"><ele>357</ele><time>2019-09-10T17:34:18.000Z</time></trkpt><trkpt lon="15.6450502" lat="46.4558876"><ele>357</ele><time>2019-09-10T17:34:19.000Z</time></trkpt><trkpt lon="15.6450502" lat="46.4558876"><ele>357</ele><time>2019-09-10T17:34:20.000Z</time></trkpt><trkpt lon="15.6451633" lat="46.455994"><ele>356</ele><time>2019-09-10T17:34:21.000Z</time></trkpt><trkpt lon="15.6452202" lat="46.4560476"><ele>356</ele><time>2019-09-10T17:34:22.000Z</time></trkpt><trkpt lon="15.6452202" lat="46.4560476"><ele>356</ele><time>2019-09-10T17:34:23.000Z</time></trkpt><trkpt lon="15.6453349" lat="46.4561549"><ele>356</ele><time>2019-09-10T17:34:24.000Z</time></trkpt><trkpt lon="15.645392" lat="46.4562084"><ele>356</ele><time>2019-09-10T17:34:25.000Z</time></trkpt><trkpt lon="15.6454485" lat="46.4562615"><ele>356</ele><time>2019-09-10T17:34:26.000Z</time></trkpt><trkpt lon="15.6454485" lat="46.4562615"><ele>356</ele><time>2019-09-10T17:34:27.000Z</time></trkpt><trkpt lon="15.6455588" lat="46.4563674"><ele>356</ele><time>2019-09-10T17:34:28.000Z</time></trkpt><trkpt lon="15.6455588" lat="46.4563674"><ele>356</ele><time>2019-09-10T17:34:29.000Z</time></trkpt><trkpt lon="15.6456713" lat="46.456472"><ele>356</ele><time>2019-09-10T17:34:30.000Z</time></trkpt><trkpt lon="15.6457285" lat="46.4565239"><ele>356</ele><time>2019-09-10T17:34:31.000Z</time></trkpt><trkpt lon="15.6457285" lat="46.4565239"><ele>356</ele><time>2019-09-10T17:34:32.000Z</time></trkpt><trkpt lon="15.6458424" lat="46.4566289"><ele>356</ele><time>2019-09-10T17:34:33.000Z</time></trkpt><trkpt lon="15.6458424" lat="46.4566289"><ele>356</ele><time>2019-09-10T17:34:34.000Z</time></trkpt><trkpt lon="15.6459585" lat="46.4567325"><ele>356</ele><time>2019-09-10T17:34:35.000Z</time></trkpt><trkpt lon="15.6459585" lat="46.4567325"><ele>356</ele><time>2019-09-10T17:34:36.000Z</time></trkpt><trkpt lon="15.6460712" lat="46.4568388"><ele>356</ele><time>2019-09-10T17:34:37.000Z</time></trkpt><trkpt lon="15.6460712" lat="46.4568388"><ele>356</ele><time>2019-09-10T17:34:38.000Z</time></trkpt><trkpt lon="15.6461825" lat="46.4569461"><ele>355</ele><time>2019-09-10T17:34:39.000Z</time></trkpt><trkpt lon="15.6462421" lat="46.4569977"><ele>355</ele><time>2019-09-10T17:34:40.000Z</time></trkpt><trkpt lon="15.6463017" lat="46.4570491"><ele>355</ele><time>2019-09-10T17:34:41.000Z</time></trkpt><trkpt lon="15.6463017" lat="46.4570491"><ele>355</ele><time>2019-09-10T17:34:42.000Z</time></trkpt><trkpt lon="15.6464139" lat="46.4571554"><ele>355</ele><time>2019-09-10T17:34:43.000Z</time></trkpt><trkpt lon="15.6464697" lat="46.4572088"><ele>355</ele><time>2019-09-10T17:34:44.000Z</time></trkpt><trkpt lon="15.6465257" lat="46.457263"><ele>355</ele><time>2019-09-10T17:34:45.000Z</time></trkpt><trkpt lon="15.6465257" lat="46.457263"><ele>355</ele><time>2019-09-10T17:34:46.000Z</time></trkpt><trkpt lon="15.6466395" lat="46.4573723"><ele>355</ele><time>2019-09-10T17:34:47.000Z</time></trkpt><trkpt lon="15.6466395" lat="46.4573723"><ele>355</ele><time>2019-09-10T17:34:48.000Z</time></trkpt><trkpt lon="15.6467553" lat="46.4574811"><ele>354</ele><time>2019-09-10T17:34:49.000Z</time></trkpt><trkpt lon="15.6468098" lat="46.4575373"><ele>354</ele><time>2019-09-10T17:34:50.000Z</time></trkpt><trkpt lon="15.6468098" lat="46.4575373"><ele>354</ele><time>2019-09-10T17:34:51.000Z</time></trkpt><trkpt lon="15.6469264" lat="46.4576435"><ele>354</ele><time>2019-09-10T17:34:52.000Z</time></trkpt><trkpt lon="15.6469853" lat="46.4576953"><ele>354</ele><time>2019-09-10T17:34:53.000Z</time></trkpt><trkpt lon="15.6469853" lat="46.4576953"><ele>354</ele><time>2019-09-10T17:34:54.000Z</time></trkpt><trkpt lon="15.6471005" lat="46.4578002"><ele>354</ele><time>2019-09-10T17:34:55.000Z</time></trkpt><trkpt lon="15.6471005" lat="46.4578002"><ele>354</ele><time>2019-09-10T17:34:56.000Z</time></trkpt><trkpt lon="15.6472165" lat="46.4579051"><ele>354</ele><time>2019-09-10T17:34:57.000Z</time></trkpt><trkpt lon="15.6472165" lat="46.4579051"><ele>354</ele><time>2019-09-10T17:34:58.000Z</time></trkpt><trkpt lon="15.6473344" lat="46.4580115"><ele>354</ele><time>2019-09-10T17:34:59.000Z</time></trkpt><trkpt lon="15.6473344" lat="46.4580115"><ele>354</ele><time>2019-09-10T17:35:00.000Z</time></trkpt><trkpt lon="15.6474508" lat="46.4581197"><ele>354</ele><time>2019-09-10T17:35:01.000Z</time></trkpt><trkpt lon="15.6474508" lat="46.4581197"><ele>354</ele><time>2019-09-10T17:35:02.000Z</time></trkpt><trkpt lon="15.6475659" lat="46.4582281"><ele>353</ele><time>2019-09-10T17:35:03.000Z</time></trkpt><trkpt lon="15.6475659" lat="46.4582281"><ele>353</ele><time>2019-09-10T17:35:04.000Z</time></trkpt><trkpt lon="15.647681" lat="46.4583351"><ele>353</ele><time>2019-09-10T17:35:05.000Z</time></trkpt><trkpt lon="15.6477403" lat="46.4583884"><ele>353</ele><time>2019-09-10T17:35:06.000Z</time></trkpt><trkpt lon="15.6477979" lat="46.4584424"><ele>353</ele><time>2019-09-10T17:35:07.000Z</time></trkpt><trkpt lon="15.6477979" lat="46.4584424"><ele>353</ele><time>2019-09-10T17:35:08.000Z</time></trkpt><trkpt lon="15.6479146" lat="46.4585497"><ele>353</ele><time>2019-09-10T17:35:09.000Z</time></trkpt><trkpt lon="15.6479736" lat="46.4586025"><ele>353</ele><time>2019-09-10T17:35:10.000Z</time></trkpt><trkpt lon="15.6480314" lat="46.4586558"><ele>353</ele><time>2019-09-10T17:35:11.000Z</time></trkpt><trkpt lon="15.6480314" lat="46.4586558"><ele>353</ele><time>2019-09-10T17:35:12.000Z</time></trkpt><trkpt lon="15.6481438" lat="46.4587633"><ele>353</ele><time>2019-09-10T17:35:13.000Z</time></trkpt><trkpt lon="15.6482006" lat="46.4588157"><ele>353</ele><time>2019-09-10T17:35:14.000Z</time></trkpt><trkpt lon="15.6482577" lat="46.4588677"><ele>353</ele><time>2019-09-10T17:35:15.000Z</time></trkpt><trkpt lon="15.6482577" lat="46.4588677"><ele>353</ele><time>2019-09-10T17:35:16.000Z</time></trkpt><trkpt lon="15.648373" lat="46.4589715"><ele>352</ele><time>2019-09-10T17:35:17.000Z</time></trkpt><trkpt lon="15.648373" lat="46.4589715"><ele>352</ele><time>2019-09-10T17:35:18.000Z</time></trkpt><trkpt lon="15.6484918" lat="46.4590759"><ele>352</ele><time>2019-09-10T17:35:19.000Z</time></trkpt><trkpt lon="15.6484918" lat="46.4590759"><ele>352</ele><time>2019-09-10T17:35:20.000Z</time></trkpt><trkpt lon="15.6486109" lat="46.4591817"><ele>352</ele><time>2019-09-10T17:35:21.000Z</time></trkpt><trkpt lon="15.6486109" lat="46.4591817"><ele>352</ele><time>2019-09-10T17:35:22.000Z</time></trkpt><trkpt lon="15.6487312" lat="46.4592857"><ele>352</ele><time>2019-09-10T17:35:23.000Z</time></trkpt><trkpt lon="15.6487312" lat="46.4592857"><ele>352</ele><time>2019-09-10T17:35:24.000Z</time></trkpt><trkpt lon="15.6488559" lat="46.4593876"><ele>352</ele><time>2019-09-10T17:35:25.000Z</time></trkpt><trkpt lon="15.6488559" lat="46.4593876"><ele>352</ele><time>2019-09-10T17:35:26.000Z</time></trkpt><trkpt lon="15.6489853" lat="46.4594873"><ele>352</ele><time>2019-09-10T17:35:27.000Z</time></trkpt><trkpt lon="15.6490517" lat="46.4595365"><ele>352</ele><time>2019-09-10T17:35:28.000Z</time></trkpt><trkpt lon="15.6490517" lat="46.4595365"><ele>352</ele><time>2019-09-10T17:35:29.000Z</time></trkpt><trkpt lon="15.6491833" lat="46.4596358"><ele>352</ele><time>2019-09-10T17:35:30.000Z</time></trkpt><trkpt lon="15.6491833" lat="46.4596358"><ele>352</ele><time>2019-09-10T17:35:31.000Z</time></trkpt><trkpt lon="15.6493155" lat="46.4597338"><ele>352</ele><time>2019-09-10T17:35:32.000Z</time></trkpt><trkpt lon="15.6493823" lat="46.4597826"><ele>351</ele><time>2019-09-10T17:35:33.000Z</time></trkpt><trkpt lon="15.6494524" lat="46.4598295"><ele>351</ele><time>2019-09-10T17:35:34.000Z</time></trkpt><trkpt lon="15.6495213" lat="46.459877"><ele>351</ele><time>2019-09-10T17:35:35.000Z</time></trkpt><trkpt lon="15.6495213" lat="46.459877"><ele>351</ele><time>2019-09-10T17:35:36.000Z</time></trkpt><trkpt lon="15.6496601" lat="46.459971"><ele>351</ele><time>2019-09-10T17:35:37.000Z</time></trkpt><trkpt lon="15.6497288" lat="46.4600179"><ele>351</ele><time>2019-09-10T17:35:38.000Z</time></trkpt><trkpt lon="15.6497985" lat="46.4600643"><ele>351</ele><time>2019-09-10T17:35:39.000Z</time></trkpt><trkpt lon="15.6497985" lat="46.4600643"><ele>351</ele><time>2019-09-10T17:35:40.000Z</time></trkpt><trkpt lon="15.6499401" lat="46.4601545"><ele>351</ele><time>2019-09-10T17:35:41.000Z</time></trkpt><trkpt lon="15.6499401" lat="46.4601545"><ele>351</ele><time>2019-09-10T17:35:42.000Z</time></trkpt><trkpt lon="15.6500818" lat="46.4602448"><ele>351</ele><time>2019-09-10T17:35:43.000Z</time></trkpt><trkpt lon="15.6500818" lat="46.4602448"><ele>351</ele><time>2019-09-10T17:35:44.000Z</time></trkpt><trkpt lon="15.6502253" lat="46.4603341"><ele>351</ele><time>2019-09-10T17:35:45.000Z</time></trkpt><trkpt lon="15.6502253" lat="46.4603341"><ele>351</ele><time>2019-09-10T17:35:46.000Z</time></trkpt><trkpt lon="15.6503688" lat="46.4604235"><ele>351</ele><time>2019-09-10T17:35:47.000Z</time></trkpt><trkpt lon="15.6504407" lat="46.4604679"><ele>350</ele><time>2019-09-10T17:35:48.000Z</time></trkpt><trkpt lon="15.6504407" lat="46.4604679"><ele>350</ele><time>2019-09-10T17:35:49.000Z</time></trkpt><trkpt lon="15.650586" lat="46.4605569"><ele>350</ele><time>2019-09-10T17:35:50.000Z</time></trkpt><trkpt lon="15.6506597" lat="46.4606008"><ele>350</ele><time>2019-09-10T17:35:51.000Z</time></trkpt><trkpt lon="15.6506597" lat="46.4606008"><ele>350</ele><time>2019-09-10T17:35:52.000Z</time></trkpt><trkpt lon="15.650805" lat="46.46069"><ele>350</ele><time>2019-09-10T17:35:53.000Z</time></trkpt><trkpt lon="15.650805" lat="46.46069"><ele>350</ele><time>2019-09-10T17:35:54.000Z</time></trkpt><trkpt lon="15.6509498" lat="46.4607788"><ele>350</ele><time>2019-09-10T17:35:55.000Z</time></trkpt><trkpt lon="15.6510219" lat="46.4608233"><ele>350</ele><time>2019-09-10T17:35:56.000Z</time></trkpt><trkpt lon="15.6510219" lat="46.4608233"><ele>350</ele><time>2019-09-10T17:35:57.000Z</time></trkpt><trkpt lon="15.6511669" lat="46.4609114"><ele>350</ele><time>2019-09-10T17:35:58.000Z</time></trkpt><trkpt lon="15.6511669" lat="46.4609114"><ele>350</ele><time>2019-09-10T17:35:59.000Z</time></trkpt><trkpt lon="15.6513122" lat="46.4609983"><ele>350</ele><time>2019-09-10T17:36:00.000Z</time></trkpt><trkpt lon="15.6513122" lat="46.4609983"><ele>350</ele><time>2019-09-10T17:36:01.000Z</time></trkpt><trkpt lon="15.6514566" lat="46.4610856"><ele>349</ele><time>2019-09-10T17:36:02.000Z</time></trkpt><trkpt lon="15.6514566" lat="46.4610856"><ele>349</ele><time>2019-09-10T17:36:03.000Z</time></trkpt><trkpt lon="15.6516009" lat="46.4611718"><ele>349</ele><time>2019-09-10T17:36:04.000Z</time></trkpt><trkpt lon="15.6516009" lat="46.4611718"><ele>349</ele><time>2019-09-10T17:36:05.000Z</time></trkpt><trkpt lon="15.6517427" lat="46.4612591"><ele>349</ele><time>2019-09-10T17:36:06.000Z</time></trkpt><trkpt lon="15.6517427" lat="46.4612591"><ele>349</ele><time>2019-09-10T17:36:07.000Z</time></trkpt><trkpt lon="15.6518864" lat="46.461346"><ele>349</ele><time>2019-09-10T17:36:08.000Z</time></trkpt><trkpt lon="15.6518864" lat="46.461346"><ele>349</ele><time>2019-09-10T17:36:09.000Z</time></trkpt><trkpt lon="15.6520299" lat="46.4614343"><ele>349</ele><time>2019-09-10T17:36:10.000Z</time></trkpt><trkpt lon="15.6521014" lat="46.4614794"><ele>349</ele><time>2019-09-10T17:36:11.000Z</time></trkpt><trkpt lon="15.6521014" lat="46.4614794"><ele>349</ele><time>2019-09-10T17:36:12.000Z</time></trkpt><trkpt lon="15.6522419" lat="46.4615692"><ele>349</ele><time>2019-09-10T17:36:13.000Z</time></trkpt><trkpt lon="15.6522419" lat="46.4615692"><ele>349</ele><time>2019-09-10T17:36:14.000Z</time></trkpt><trkpt lon="15.652381" lat="46.4616597"><ele>349</ele><time>2019-09-10T17:36:15.000Z</time></trkpt><trkpt lon="15.652381" lat="46.4616597"><ele>349</ele><time>2019-09-10T17:36:16.000Z</time></trkpt><trkpt lon="15.6525176" lat="46.4617531"><ele>348</ele><time>2019-09-10T17:36:17.000Z</time></trkpt><trkpt lon="15.6525871" lat="46.4618001"><ele>348</ele><time>2019-09-10T17:36:18.000Z</time></trkpt><trkpt lon="15.6525871" lat="46.4618001"><ele>348</ele><time>2019-09-10T17:36:19.000Z</time></trkpt><trkpt lon="15.652723" lat="46.4618953"><ele>348</ele><time>2019-09-10T17:36:20.000Z</time></trkpt><trkpt lon="15.652723" lat="46.4618953"><ele>348</ele><time>2019-09-10T17:36:21.000Z</time></trkpt><trkpt lon="15.6528557" lat="46.4619914"><ele>348</ele><time>2019-09-10T17:36:22.000Z</time></trkpt><trkpt lon="15.6528557" lat="46.4619914"><ele>348</ele><time>2019-09-10T17:36:23.000Z</time></trkpt><trkpt lon="15.6529852" lat="46.462088"><ele>348</ele><time>2019-09-10T17:36:24.000Z</time></trkpt><trkpt lon="15.6530499" lat="46.4621368"><ele>348</ele><time>2019-09-10T17:36:25.000Z</time></trkpt><trkpt lon="15.6530499" lat="46.4621368"><ele>348</ele><time>2019-09-10T17:36:26.000Z</time></trkpt><trkpt lon="15.6531756" lat="46.4622343"><ele>348</ele><time>2019-09-10T17:36:27.000Z</time></trkpt><trkpt lon="15.6532375" lat="46.4622823"><ele>348</ele><time>2019-09-10T17:36:28.000Z</time></trkpt><trkpt lon="15.6532375" lat="46.4622823"><ele>348</ele><time>2019-09-10T17:36:29.000Z</time></trkpt><trkpt lon="15.6533591" lat="46.462379"><ele>348</ele><time>2019-09-10T17:36:30.000Z</time></trkpt><trkpt lon="15.6533591" lat="46.462379"><ele>348</ele><time>2019-09-10T17:36:31.000Z</time></trkpt><trkpt lon="15.6534765" lat="46.4624793"><ele>348</ele><time>2019-09-10T17:36:32.000Z</time></trkpt><trkpt lon="15.6535298" lat="46.4625319"><ele>348</ele><time>2019-09-10T17:36:33.000Z</time></trkpt><trkpt lon="15.6535298" lat="46.4625319"><ele>348</ele><time>2019-09-10T17:36:34.000Z</time></trkpt><trkpt lon="15.6536414" lat="46.4626332"><ele>348</ele><time>2019-09-10T17:36:35.000Z</time></trkpt><trkpt lon="15.6536414" lat="46.4626332"><ele>348</ele><time>2019-09-10T17:36:36.000Z</time></trkpt><trkpt lon="15.6537533" lat="46.4627359"><ele>348</ele><time>2019-09-10T17:36:37.000Z</time></trkpt><trkpt lon="15.6538069" lat="46.4627882"><ele>348</ele><time>2019-09-10T17:36:38.000Z</time></trkpt><trkpt lon="15.6538069" lat="46.4627882"><ele>348</ele><time>2019-09-10T17:36:39.000Z</time></trkpt><trkpt lon="15.6539142" lat="46.4628942"><ele>348</ele><time>2019-09-10T17:36:40.000Z</time></trkpt><trkpt lon="15.6539673" lat="46.4629486"><ele>348</ele><time>2019-09-10T17:36:41.000Z</time></trkpt><trkpt lon="15.6540201" lat="46.4630032"><ele>348</ele><time>2019-09-10T17:36:42.000Z</time></trkpt><trkpt lon="15.6540201" lat="46.4630032"><ele>348</ele><time>2019-09-10T17:36:43.000Z</time></trkpt><trkpt lon="15.6541235" lat="46.4631111"><ele>348</ele><time>2019-09-10T17:36:44.000Z</time></trkpt><trkpt lon="15.6541235" lat="46.4631111"><ele>348</ele><time>2019-09-10T17:36:45.000Z</time></trkpt><trkpt lon="15.6542216" lat="46.4632196"><ele>348</ele><time>2019-09-10T17:36:46.000Z</time></trkpt><trkpt lon="15.6542216" lat="46.4632196"><ele>348</ele><time>2019-09-10T17:36:47.000Z</time></trkpt><trkpt lon="15.6543189" lat="46.4633283"><ele>348</ele><time>2019-09-10T17:36:48.000Z</time></trkpt><trkpt lon="15.6543189" lat="46.4633283"><ele>348</ele><time>2019-09-10T17:36:49.000Z</time></trkpt><trkpt lon="15.6544146" lat="46.4634391"><ele>348</ele><time>2019-09-10T17:36:50.000Z</time></trkpt><trkpt lon="15.654462" lat="46.4634941"><ele>348</ele><time>2019-09-10T17:36:51.000Z</time></trkpt><trkpt lon="15.6545098" lat="46.4635481"><ele>348</ele><time>2019-09-10T17:36:52.000Z</time></trkpt><trkpt lon="15.6545098" lat="46.4635481"><ele>348</ele><time>2019-09-10T17:36:53.000Z</time></trkpt><trkpt lon="15.6546043" lat="46.4636556"><ele>348</ele><time>2019-09-10T17:36:54.000Z</time></trkpt><trkpt lon="15.6546503" lat="46.4637087"><ele>349</ele><time>2019-09-10T17:36:55.000Z</time></trkpt><trkpt lon="15.6546503" lat="46.4637087"><ele>349</ele><time>2019-09-10T17:36:56.000Z</time></trkpt><trkpt lon="15.6547425" lat="46.4638165"><ele>349</ele><time>2019-09-10T17:36:57.000Z</time></trkpt><trkpt lon="15.6547888" lat="46.4638706"><ele>349</ele><time>2019-09-10T17:36:58.000Z</time></trkpt><trkpt lon="15.6547888" lat="46.4638706"><ele>349</ele><time>2019-09-10T17:36:59.000Z</time></trkpt><trkpt lon="15.6548814" lat="46.4639778"><ele>349</ele><time>2019-09-10T17:37:00.000Z</time></trkpt><trkpt lon="15.6549267" lat="46.4640303"><ele>349</ele><time>2019-09-10T17:37:01.000Z</time></trkpt><trkpt lon="15.6549726" lat="46.464082"><ele>349</ele><time>2019-09-10T17:37:02.000Z</time></trkpt><trkpt lon="15.6549726" lat="46.464082"><ele>349</ele><time>2019-09-10T17:37:03.000Z</time></trkpt><trkpt lon="15.6550652" lat="46.4641878"><ele>350</ele><time>2019-09-10T17:37:04.000Z</time></trkpt><trkpt lon="15.6550652" lat="46.4641878"><ele>350</ele><time>2019-09-10T17:37:05.000Z</time></trkpt><trkpt lon="15.6551622" lat="46.4642944"><ele>350</ele><time>2019-09-10T17:37:06.000Z</time></trkpt><trkpt lon="15.6552093" lat="46.4643483"><ele>350</ele><time>2019-09-10T17:37:07.000Z</time></trkpt><trkpt lon="15.6552093" lat="46.4643483"><ele>350</ele><time>2019-09-10T17:37:08.000Z</time></trkpt><trkpt lon="15.6553049" lat="46.4644553"><ele>350</ele><time>2019-09-10T17:37:09.000Z</time></trkpt><trkpt lon="15.6553538" lat="46.4645079"><ele>350</ele><time>2019-09-10T17:37:10.000Z</time></trkpt><trkpt lon="15.6553538" lat="46.4645079"><ele>350</ele><time>2019-09-10T17:37:11.000Z</time></trkpt><trkpt lon="15.6554496" lat="46.4646129"><ele>350</ele><time>2019-09-10T17:37:12.000Z</time></trkpt><trkpt lon="15.6554998" lat="46.4646659"><ele>350</ele><time>2019-09-10T17:37:13.000Z</time></trkpt><trkpt lon="15.6554998" lat="46.4646659"><ele>350</ele><time>2019-09-10T17:37:14.000Z</time></trkpt><trkpt lon="15.6556" lat="46.4647737"><ele>350</ele><time>2019-09-10T17:37:15.000Z</time></trkpt><trkpt lon="15.6556509" lat="46.4648268"><ele>350</ele><time>2019-09-10T17:37:16.000Z</time></trkpt><trkpt lon="15.6557001" lat="46.4648807"><ele>350</ele><time>2019-09-10T17:37:17.000Z</time></trkpt><trkpt lon="15.6557001" lat="46.4648807"><ele>350</ele><time>2019-09-10T17:37:18.000Z</time></trkpt><trkpt lon="15.6558001" lat="46.4649899"><ele>350</ele><time>2019-09-10T17:37:19.000Z</time></trkpt><trkpt lon="15.6558001" lat="46.4649899"><ele>350</ele><time>2019-09-10T17:37:20.000Z</time></trkpt><trkpt lon="15.6559024" lat="46.4651002"><ele>350</ele><time>2019-09-10T17:37:21.000Z</time></trkpt><trkpt lon="15.6559024" lat="46.4651002"><ele>350</ele><time>2019-09-10T17:37:22.000Z</time></trkpt><trkpt lon="15.656001" lat="46.4652116"><ele>350</ele><time>2019-09-10T17:37:23.000Z</time></trkpt><trkpt lon="15.6560489" lat="46.4652667"><ele>350</ele><time>2019-09-10T17:37:24.000Z</time></trkpt><trkpt lon="15.6560958" lat="46.4653223"><ele>350</ele><time>2019-09-10T17:37:25.000Z</time></trkpt><trkpt lon="15.6560958" lat="46.4653223"><ele>350</ele><time>2019-09-10T17:37:26.000Z</time></trkpt><trkpt lon="15.6561902" lat="46.4654349"><ele>350</ele><time>2019-09-10T17:37:27.000Z</time></trkpt><trkpt lon="15.6562349" lat="46.4654922"><ele>349</ele><time>2019-09-10T17:37:28.000Z</time></trkpt><trkpt lon="15.6562771" lat="46.4655504"><ele>349</ele><time>2019-09-10T17:37:29.000Z</time></trkpt><trkpt lon="15.6562771" lat="46.4655504"><ele>349</ele><time>2019-09-10T17:37:30.000Z</time></trkpt><trkpt lon="15.6563608" lat="46.4656657"><ele>349</ele><time>2019-09-10T17:37:31.000Z</time></trkpt><trkpt lon="15.6563608" lat="46.4656657"><ele>349</ele><time>2019-09-10T17:37:32.000Z</time></trkpt><trkpt lon="15.6564406" lat="46.4657808"><ele>349</ele><time>2019-09-10T17:37:33.000Z</time></trkpt><trkpt lon="15.6564406" lat="46.4657808"><ele>349</ele><time>2019-09-10T17:37:34.000Z</time></trkpt><trkpt lon="15.6565165" lat="46.465897"><ele>349</ele><time>2019-09-10T17:37:35.000Z</time></trkpt><trkpt lon="15.6565165" lat="46.465897"><ele>349</ele><time>2019-09-10T17:37:36.000Z</time></trkpt><trkpt lon="15.6565921" lat="46.4660139"><ele>349</ele><time>2019-09-10T17:37:37.000Z</time></trkpt><trkpt lon="15.6565921" lat="46.4660139"><ele>349</ele><time>2019-09-10T17:37:38.000Z</time></trkpt><trkpt lon="15.6566668" lat="46.4661316"><ele>349</ele><time>2019-09-10T17:37:39.000Z</time></trkpt><trkpt lon="15.6566668" lat="46.4661316"><ele>349</ele><time>2019-09-10T17:37:40.000Z</time></trkpt><trkpt lon="15.6567438" lat="46.4662524"><ele>349</ele><time>2019-09-10T17:37:41.000Z</time></trkpt><trkpt lon="15.6567806" lat="46.4663123"><ele>349</ele><time>2019-09-10T17:37:42.000Z</time></trkpt><trkpt lon="15.6568172" lat="46.4663725"><ele>349</ele><time>2019-09-10T17:37:43.000Z</time></trkpt><trkpt lon="15.6568172" lat="46.4663725"><ele>349</ele><time>2019-09-10T17:37:44.000Z</time></trkpt><trkpt lon="15.6568923" lat="46.4664935"><ele>349</ele><time>2019-09-10T17:37:45.000Z</time></trkpt><trkpt lon="15.6568923" lat="46.4664935"><ele>349</ele><time>2019-09-10T17:37:46.000Z</time></trkpt><trkpt lon="15.6569735" lat="46.4666136"><ele>349</ele><time>2019-09-10T17:37:47.000Z</time></trkpt><trkpt lon="15.6569735" lat="46.4666136"><ele>349</ele><time>2019-09-10T17:37:48.000Z</time></trkpt><trkpt lon="15.6570491" lat="46.4667346"><ele>349</ele><time>2019-09-10T17:37:49.000Z</time></trkpt><trkpt lon="15.6570491" lat="46.4667346"><ele>349</ele><time>2019-09-10T17:37:50.000Z</time></trkpt><trkpt lon="15.6571201" lat="46.4668542"><ele>349</ele><time>2019-09-10T17:37:51.000Z</time></trkpt><trkpt lon="15.6571553" lat="46.4669135"><ele>349</ele><time>2019-09-10T17:37:52.000Z</time></trkpt><trkpt lon="15.6571929" lat="46.4669735"><ele>349</ele><time>2019-09-10T17:37:53.000Z</time></trkpt><trkpt lon="15.6571929" lat="46.4669735"><ele>349</ele><time>2019-09-10T17:37:54.000Z</time></trkpt><trkpt lon="15.6572673" lat="46.4670943"><ele>349</ele><time>2019-09-10T17:37:55.000Z</time></trkpt><trkpt lon="15.6573029" lat="46.4671549"><ele>349</ele><time>2019-09-10T17:37:56.000Z</time></trkpt><trkpt lon="15.6573029" lat="46.4671549"><ele>349</ele><time>2019-09-10T17:37:57.000Z</time></trkpt><trkpt lon="15.6573713" lat="46.4672754"><ele>349</ele><time>2019-09-10T17:37:58.000Z</time></trkpt><trkpt lon="15.6573713" lat="46.4672754"><ele>349</ele><time>2019-09-10T17:37:59.000Z</time></trkpt><trkpt lon="15.6574336" lat="46.4673947"><ele>349</ele><time>2019-09-10T17:38:00.000Z</time></trkpt><trkpt lon="15.6574593" lat="46.4674554"><ele>349</ele><time>2019-09-10T17:38:01.000Z</time></trkpt><trkpt lon="15.6574593" lat="46.4674554"><ele>349</ele><time>2019-09-10T17:38:02.000Z</time></trkpt><trkpt lon="15.6575004" lat="46.4675783"><ele>349</ele><time>2019-09-10T17:38:03.000Z</time></trkpt><trkpt lon="15.6575004" lat="46.4675783"><ele>349</ele><time>2019-09-10T17:38:04.000Z</time></trkpt><trkpt lon="15.6575291" lat="46.4677051"><ele>349</ele><time>2019-09-10T17:38:05.000Z</time></trkpt><trkpt lon="15.6575291" lat="46.4677051"><ele>349</ele><time>2019-09-10T17:38:06.000Z</time></trkpt><trkpt lon="15.6575417" lat="46.4678354"><ele>349</ele><time>2019-09-10T17:38:07.000Z</time></trkpt><trkpt lon="15.6575431" lat="46.4679008"><ele>349</ele><time>2019-09-10T17:38:08.000Z</time></trkpt><trkpt lon="15.6575431" lat="46.4679008"><ele>349</ele><time>2019-09-10T17:38:09.000Z</time></trkpt><trkpt lon="15.6575444" lat="46.4680338"><ele>349</ele><time>2019-09-10T17:38:10.000Z</time></trkpt><trkpt lon="15.6575444" lat="46.4680338"><ele>349</ele><time>2019-09-10T17:38:11.000Z</time></trkpt><trkpt lon="15.6575404" lat="46.4681693"><ele>349</ele><time>2019-09-10T17:38:12.000Z</time></trkpt><trkpt lon="15.6575383" lat="46.4682364"><ele>349</ele><time>2019-09-10T17:38:13.000Z</time></trkpt><trkpt lon="15.6575383" lat="46.4682364"><ele>349</ele><time>2019-09-10T17:38:14.000Z</time></trkpt><trkpt lon="15.6575322" lat="46.4683699"><ele>349</ele><time>2019-09-10T17:38:15.000Z</time></trkpt><trkpt lon="15.6575283" lat="46.4684371"><ele>349</ele><time>2019-09-10T17:38:16.000Z</time></trkpt><trkpt lon="15.6575283" lat="46.4684371"><ele>349</ele><time>2019-09-10T17:38:17.000Z</time></trkpt><trkpt lon="15.6575184" lat="46.4685721"><ele>349</ele><time>2019-09-10T17:38:18.000Z</time></trkpt><trkpt lon="15.657511" lat="46.4686393"><ele>349</ele><time>2019-09-10T17:38:19.000Z</time></trkpt><trkpt lon="15.657511" lat="46.4686393"><ele>349</ele><time>2019-09-10T17:38:20.000Z</time></trkpt><trkpt lon="15.6574936" lat="46.4687722"><ele>348</ele><time>2019-09-10T17:38:21.000Z</time></trkpt><trkpt lon="15.6574936" lat="46.4687722"><ele>348</ele><time>2019-09-10T17:38:22.000Z</time></trkpt><trkpt lon="15.6574712" lat="46.4689055"><ele>348</ele><time>2019-09-10T17:38:23.000Z</time></trkpt><trkpt lon="15.6574712" lat="46.4689055"><ele>348</ele><time>2019-09-10T17:38:24.000Z</time></trkpt><trkpt lon="15.657432" lat="46.4690342"><ele>347</ele><time>2019-09-10T17:38:25.000Z</time></trkpt><trkpt lon="15.6574069" lat="46.4690978"><ele>347</ele><time>2019-09-10T17:38:26.000Z</time></trkpt><trkpt lon="15.6574069" lat="46.4690978"><ele>347</ele><time>2019-09-10T17:38:27.000Z</time></trkpt><trkpt lon="15.6573634" lat="46.4692238"><ele>347</ele><time>2019-09-10T17:38:28.000Z</time></trkpt><trkpt lon="15.6573337" lat="46.469285"><ele>347</ele><time>2019-09-10T17:38:29.000Z</time></trkpt><trkpt lon="15.657302" lat="46.469346"><ele>347</ele><time>2019-09-10T17:38:30.000Z</time></trkpt><trkpt lon="15.6572694" lat="46.4694069"><ele>347</ele><time>2019-09-10T17:38:31.000Z</time></trkpt><trkpt lon="15.6572694" lat="46.4694069"><ele>347</ele><time>2019-09-10T17:38:32.000Z</time></trkpt><trkpt lon="15.6571937" lat="46.4695268"><ele>346</ele><time>2019-09-10T17:38:33.000Z</time></trkpt><trkpt lon="15.6571937" lat="46.4695268"><ele>346</ele><time>2019-09-10T17:38:34.000Z</time></trkpt><trkpt lon="15.6571273" lat="46.4696468"><ele>346</ele><time>2019-09-10T17:38:35.000Z</time></trkpt><trkpt lon="15.6570931" lat="46.4697077"><ele>346</ele><time>2019-09-10T17:38:36.000Z</time></trkpt><trkpt lon="15.6570931" lat="46.4697077"><ele>346</ele><time>2019-09-10T17:38:37.000Z</time></trkpt><trkpt lon="15.6570229" lat="46.4698293"><ele>345</ele><time>2019-09-10T17:38:38.000Z</time></trkpt><trkpt lon="15.6569871" lat="46.46989"><ele>345</ele><time>2019-09-10T17:38:39.000Z</time></trkpt><trkpt lon="15.6569871" lat="46.46989"><ele>345</ele><time>2019-09-10T17:38:40.000Z</time></trkpt><trkpt lon="15.6569142" lat="46.4700116"><ele>345</ele><time>2019-09-10T17:38:41.000Z</time></trkpt><trkpt lon="15.656877" lat="46.4700717"><ele>345</ele><time>2019-09-10T17:38:42.000Z</time></trkpt><trkpt lon="15.6568401" lat="46.470131"><ele>345</ele><time>2019-09-10T17:38:43.000Z</time></trkpt><trkpt lon="15.6568401" lat="46.470131"><ele>345</ele><time>2019-09-10T17:38:44.000Z</time></trkpt><trkpt lon="15.6567682" lat="46.4702492"><ele>346</ele><time>2019-09-10T17:38:45.000Z</time></trkpt><trkpt lon="15.6567339" lat="46.4703093"><ele>346</ele><time>2019-09-10T17:38:46.000Z</time></trkpt><trkpt lon="15.6566995" lat="46.4703701"><ele>346</ele><time>2019-09-10T17:38:47.000Z</time></trkpt><trkpt lon="15.6566656" lat="46.4704314"><ele>346</ele><time>2019-09-10T17:38:48.000Z</time></trkpt><trkpt lon="15.6566656" lat="46.4704314"><ele>346</ele><time>2019-09-10T17:38:49.000Z</time></trkpt><trkpt lon="15.6565958" lat="46.4705529"><ele>346</ele><time>2019-09-10T17:38:50.000Z</time></trkpt><trkpt lon="15.6565958" lat="46.4705529"><ele>346</ele><time>2019-09-10T17:38:51.000Z</time></trkpt><trkpt lon="15.656525" lat="46.4706721"><ele>346</ele><time>2019-09-10T17:38:52.000Z</time></trkpt><trkpt lon="15.656525" lat="46.4706721"><ele>346</ele><time>2019-09-10T17:38:53.000Z</time></trkpt><trkpt lon="15.6564562" lat="46.4707893"><ele>346</ele><time>2019-09-10T17:38:54.000Z</time></trkpt><trkpt lon="15.6564229" lat="46.4708489"><ele>346</ele><time>2019-09-10T17:38:55.000Z</time></trkpt><trkpt lon="15.6564229" lat="46.4708489"><ele>346</ele><time>2019-09-10T17:38:56.000Z</time></trkpt><trkpt lon="15.6563498" lat="46.4709684"><ele>346</ele><time>2019-09-10T17:38:57.000Z</time></trkpt><trkpt lon="15.6563175" lat="46.4710292"><ele>346</ele><time>2019-09-10T17:38:58.000Z</time></trkpt><trkpt lon="15.6563175" lat="46.4710292"><ele>346</ele><time>2019-09-10T17:38:59.000Z</time></trkpt><trkpt lon="15.6562602" lat="46.4711529"><ele>346</ele><time>2019-09-10T17:39:00.000Z</time></trkpt><trkpt lon="15.6562602" lat="46.4711529"><ele>346</ele><time>2019-09-10T17:39:01.000Z</time></trkpt><trkpt lon="15.6562014" lat="46.4712751"><ele>347</ele><time>2019-09-10T17:39:02.000Z</time></trkpt><trkpt lon="15.6562014" lat="46.4712751"><ele>347</ele><time>2019-09-10T17:39:03.000Z</time></trkpt><trkpt lon="15.6561466" lat="46.471399"><ele>347</ele><time>2019-09-10T17:39:04.000Z</time></trkpt><trkpt lon="15.6561466" lat="46.471399"><ele>347</ele><time>2019-09-10T17:39:05.000Z</time></trkpt><trkpt lon="15.6560957" lat="46.4715228"><ele>347</ele><time>2019-09-10T17:39:06.000Z</time></trkpt><trkpt lon="15.6560729" lat="46.4715856"><ele>347</ele><time>2019-09-10T17:39:07.000Z</time></trkpt><trkpt lon="15.65605" lat="46.4716489"><ele>347</ele><time>2019-09-10T17:39:08.000Z</time></trkpt><trkpt lon="15.65605" lat="46.4716489"><ele>347</ele><time>2019-09-10T17:39:09.000Z</time></trkpt><trkpt lon="15.6560026" lat="46.4717738"><ele>347</ele><time>2019-09-10T17:39:10.000Z</time></trkpt><trkpt lon="15.6560026" lat="46.4717738"><ele>347</ele><time>2019-09-10T17:39:11.000Z</time></trkpt><trkpt lon="15.655959" lat="46.4718993"><ele>348</ele><time>2019-09-10T17:39:12.000Z</time></trkpt><trkpt lon="15.655959" lat="46.4718993"><ele>348</ele><time>2019-09-10T17:39:13.000Z</time></trkpt><trkpt lon="15.6559191" lat="46.4720262"><ele>348</ele><time>2019-09-10T17:39:14.000Z</time></trkpt><trkpt lon="15.6558967" lat="46.4720897"><ele>348</ele><time>2019-09-10T17:39:15.000Z</time></trkpt><trkpt lon="15.6558967" lat="46.4720897"><ele>348</ele><time>2019-09-10T17:39:16.000Z</time></trkpt><trkpt lon="15.6558628" lat="46.4722188"><ele>348</ele><time>2019-09-10T17:39:17.000Z</time></trkpt><trkpt lon="15.6558628" lat="46.4722188"><ele>348</ele><time>2019-09-10T17:39:18.000Z</time></trkpt><trkpt lon="15.6558346" lat="46.4723485"><ele>348</ele><time>2019-09-10T17:39:19.000Z</time></trkpt><trkpt lon="15.6558194" lat="46.4724125"><ele>348</ele><time>2019-09-10T17:39:20.000Z</time></trkpt><trkpt lon="15.655806" lat="46.4724765"><ele>348</ele><time>2019-09-10T17:39:21.000Z</time></trkpt><trkpt lon="15.655806" lat="46.4724765"><ele>348</ele><time>2019-09-10T17:39:22.000Z</time></trkpt><trkpt lon="15.6557825" lat="46.4726048"><ele>348</ele><time>2019-09-10T17:39:23.000Z</time></trkpt><trkpt lon="15.6557825" lat="46.4726048"><ele>348</ele><time>2019-09-10T17:39:24.000Z</time></trkpt><trkpt lon="15.6557634" lat="46.4727337"><ele>348</ele><time>2019-09-10T17:39:25.000Z</time></trkpt><trkpt lon="15.655754" lat="46.4727977"><ele>348</ele><time>2019-09-10T17:39:26.000Z</time></trkpt><trkpt lon="15.655754" lat="46.4727977"><ele>348</ele><time>2019-09-10T17:39:27.000Z</time></trkpt><trkpt lon="15.6557395" lat="46.4729251"><ele>348</ele><time>2019-09-10T17:39:28.000Z</time></trkpt><trkpt lon="15.6557293" lat="46.4729884"><ele>348</ele><time>2019-09-10T17:39:29.000Z</time></trkpt><trkpt lon="15.6557293" lat="46.4729884"><ele>348</ele><time>2019-09-10T17:39:30.000Z</time></trkpt><trkpt lon="15.6557133" lat="46.4731162"><ele>348</ele><time>2019-09-10T17:39:31.000Z</time></trkpt><trkpt lon="15.6557048" lat="46.4731798"><ele>348</ele><time>2019-09-10T17:39:32.000Z</time></trkpt><trkpt lon="15.6556984" lat="46.4732431"><ele>348</ele><time>2019-09-10T17:39:33.000Z</time></trkpt><trkpt lon="15.6556906" lat="46.4733066"><ele>348</ele><time>2019-09-10T17:39:34.000Z</time></trkpt><trkpt lon="15.6556825" lat="46.4733708"><ele>348</ele><time>2019-09-10T17:39:35.000Z</time></trkpt><trkpt lon="15.6556825" lat="46.4733708"><ele>348</ele><time>2019-09-10T17:39:36.000Z</time></trkpt><trkpt lon="15.6556638" lat="46.4734997"><ele>348</ele><time>2019-09-10T17:39:37.000Z</time></trkpt><trkpt lon="15.6556638" lat="46.4734997"><ele>348</ele><time>2019-09-10T17:39:38.000Z</time></trkpt><trkpt lon="15.6556446" lat="46.4736265"><ele>348</ele><time>2019-09-10T17:39:39.000Z</time></trkpt><trkpt lon="15.6556359" lat="46.4736896"><ele>348</ele><time>2019-09-10T17:39:40.000Z</time></trkpt><trkpt lon="15.6556359" lat="46.4736896"><ele>348</ele><time>2019-09-10T17:39:41.000Z</time></trkpt><trkpt lon="15.6556166" lat="46.4738144"><ele>348</ele><time>2019-09-10T17:39:42.000Z</time></trkpt><trkpt lon="15.6556074" lat="46.4738764"><ele>348</ele><time>2019-09-10T17:39:43.000Z</time></trkpt><trkpt lon="15.6556074" lat="46.4738764"><ele>348</ele><time>2019-09-10T17:39:44.000Z</time></trkpt><trkpt lon="15.6555885" lat="46.4740008"><ele>348</ele><time>2019-09-10T17:39:45.000Z</time></trkpt><trkpt lon="15.6555768" lat="46.4740626"><ele>348</ele><time>2019-09-10T17:39:46.000Z</time></trkpt><trkpt lon="15.6555658" lat="46.4741236"><ele>348</ele><time>2019-09-10T17:39:47.000Z</time></trkpt><trkpt lon="15.6555658" lat="46.4741236"><ele>348</ele><time>2019-09-10T17:39:48.000Z</time></trkpt><trkpt lon="15.655541" lat="46.4742461"><ele>348</ele><time>2019-09-10T17:39:49.000Z</time></trkpt><trkpt lon="15.6555287" lat="46.4743081"><ele>348</ele><time>2019-09-10T17:39:50.000Z</time></trkpt><trkpt lon="15.6555287" lat="46.4743081"><ele>348</ele><time>2019-09-10T17:39:51.000Z</time></trkpt><trkpt lon="15.6555029" lat="46.474433"><ele>348</ele><time>2019-09-10T17:39:52.000Z</time></trkpt><trkpt lon="15.655489" lat="46.4744958"><ele>348</ele><time>2019-09-10T17:39:53.000Z</time></trkpt><trkpt lon="15.655489" lat="46.4744958"><ele>348</ele><time>2019-09-10T17:39:54.000Z</time></trkpt><trkpt lon="15.655458" lat="46.4746213"><ele>348</ele><time>2019-09-10T17:39:55.000Z</time></trkpt><trkpt lon="15.6554439" lat="46.4746846"><ele>348</ele><time>2019-09-10T17:39:56.000Z</time></trkpt><trkpt lon="15.6554439" lat="46.4746846"><ele>348</ele><time>2019-09-10T17:39:57.000Z</time></trkpt><trkpt lon="15.6554123" lat="46.4748132"><ele>349</ele><time>2019-09-10T17:39:58.000Z</time></trkpt><trkpt lon="15.6554123" lat="46.4748132"><ele>349</ele><time>2019-09-10T17:39:59.000Z</time></trkpt><trkpt lon="15.6553801" lat="46.47494"><ele>349</ele><time>2019-09-10T17:40:00.000Z</time></trkpt><trkpt lon="15.655366" lat="46.4750033"><ele>349</ele><time>2019-09-10T17:40:01.000Z</time></trkpt><trkpt lon="15.655366" lat="46.4750033"><ele>349</ele><time>2019-09-10T17:40:02.000Z</time></trkpt><trkpt lon="15.655335" lat="46.4751305"><ele>349</ele><time>2019-09-10T17:40:03.000Z</time></trkpt><trkpt lon="15.655335" lat="46.4751305"><ele>349</ele><time>2019-09-10T17:40:04.000Z</time></trkpt><trkpt lon="15.6553047" lat="46.4752571"><ele>349</ele><time>2019-09-10T17:40:05.000Z</time></trkpt><trkpt lon="15.6553047" lat="46.4752571"><ele>349</ele><time>2019-09-10T17:40:06.000Z</time></trkpt><trkpt lon="15.6552802" lat="46.4753851"><ele>349</ele><time>2019-09-10T17:40:07.000Z</time></trkpt><trkpt lon="15.6552802" lat="46.4753851"><ele>349</ele><time>2019-09-10T17:40:08.000Z</time></trkpt><trkpt lon="15.6552585" lat="46.4755139"><ele>349</ele><time>2019-09-10T17:40:09.000Z</time></trkpt><trkpt lon="15.6552585" lat="46.4755139"><ele>349</ele><time>2019-09-10T17:40:10.000Z</time></trkpt><trkpt lon="15.655232" lat="46.475642"><ele>349</ele><time>2019-09-10T17:40:11.000Z</time></trkpt><trkpt lon="15.655232" lat="46.475642"><ele>349</ele><time>2019-09-10T17:40:12.000Z</time></trkpt><trkpt lon="15.6551989" lat="46.4757691"><ele>349</ele><time>2019-09-10T17:40:13.000Z</time></trkpt><trkpt lon="15.6551989" lat="46.4757691"><ele>349</ele><time>2019-09-10T17:40:14.000Z</time></trkpt><trkpt lon="15.6551569" lat="46.4758943"><ele>349</ele><time>2019-09-10T17:40:15.000Z</time></trkpt><trkpt lon="15.6551305" lat="46.4759557"><ele>349</ele><time>2019-09-10T17:40:16.000Z</time></trkpt><trkpt lon="15.6551041" lat="46.4760168"><ele>349</ele><time>2019-09-10T17:40:17.000Z</time></trkpt><trkpt lon="15.6551041" lat="46.4760168"><ele>349</ele><time>2019-09-10T17:40:18.000Z</time></trkpt><trkpt lon="15.6550478" lat="46.4761401"><ele>349</ele><time>2019-09-10T17:40:19.000Z</time></trkpt><trkpt lon="15.6550478" lat="46.4761401"><ele>349</ele><time>2019-09-10T17:40:20.000Z</time></trkpt><trkpt lon="15.6549818" lat="46.4762597"><ele>349</ele><time>2019-09-10T17:40:21.000Z</time></trkpt><trkpt lon="15.654947" lat="46.4763183"><ele>349</ele><time>2019-09-10T17:40:22.000Z</time></trkpt><trkpt lon="15.654947" lat="46.4763183"><ele>349</ele><time>2019-09-10T17:40:23.000Z</time></trkpt><trkpt lon="15.654872" lat="46.4764324"><ele>349</ele><time>2019-09-10T17:40:24.000Z</time></trkpt><trkpt lon="15.6548312" lat="46.4764883"><ele>349</ele><time>2019-09-10T17:40:25.000Z</time></trkpt><trkpt lon="15.6548312" lat="46.4764883"><ele>349</ele><time>2019-09-10T17:40:26.000Z</time></trkpt><trkpt lon="15.6547468" lat="46.4766018"><ele>349</ele><time>2019-09-10T17:40:27.000Z</time></trkpt><trkpt lon="15.6547007" lat="46.4766569"><ele>349</ele><time>2019-09-10T17:40:28.000Z</time></trkpt><trkpt lon="15.6547007" lat="46.4766569"><ele>349</ele><time>2019-09-10T17:40:29.000Z</time></trkpt><trkpt lon="15.6546063" lat="46.4767687"><ele>349</ele><time>2019-09-10T17:40:30.000Z</time></trkpt><trkpt lon="15.6546063" lat="46.4767687"><ele>349</ele><time>2019-09-10T17:40:31.000Z</time></trkpt><trkpt lon="15.6545106" lat="46.4768794"><ele>349</ele><time>2019-09-10T17:40:32.000Z</time></trkpt><trkpt lon="15.6545106" lat="46.4768794"><ele>349</ele><time>2019-09-10T17:40:33.000Z</time></trkpt><trkpt lon="15.6544134" lat="46.4769892"><ele>349</ele><time>2019-09-10T17:40:34.000Z</time></trkpt><trkpt lon="15.6544134" lat="46.4769892"><ele>349</ele><time>2019-09-10T17:40:35.000Z</time></trkpt><trkpt lon="15.6543135" lat="46.4770971"><ele>349</ele><time>2019-09-10T17:40:36.000Z</time></trkpt><trkpt lon="15.6543135" lat="46.4770971"><ele>349</ele><time>2019-09-10T17:40:37.000Z</time></trkpt><trkpt lon="15.6542123" lat="46.4772039"><ele>349</ele><time>2019-09-10T17:40:38.000Z</time></trkpt><trkpt lon="15.6541655" lat="46.4772596"><ele>349</ele><time>2019-09-10T17:40:39.000Z</time></trkpt><trkpt lon="15.6541195" lat="46.4773149"><ele>349</ele><time>2019-09-10T17:40:40.000Z</time></trkpt><trkpt lon="15.6540751" lat="46.4773703"><ele>349</ele><time>2019-09-10T17:40:41.000Z</time></trkpt><trkpt lon="15.6540751" lat="46.4773703"><ele>349</ele><time>2019-09-10T17:40:42.000Z</time></trkpt><trkpt lon="15.6539917" lat="46.4774824"><ele>350</ele><time>2019-09-10T17:40:43.000Z</time></trkpt><trkpt lon="15.6539917" lat="46.4774824"><ele>350</ele><time>2019-09-10T17:40:44.000Z</time></trkpt><trkpt lon="15.6539151" lat="46.4775991"><ele>349</ele><time>2019-09-10T17:40:45.000Z</time></trkpt><trkpt lon="15.6538769" lat="46.4776581"><ele>349</ele><time>2019-09-10T17:40:46.000Z</time></trkpt><trkpt lon="15.6538769" lat="46.4776581"><ele>349</ele><time>2019-09-10T17:40:47.000Z</time></trkpt><trkpt lon="15.6538023" lat="46.4777762"><ele>349</ele><time>2019-09-10T17:40:48.000Z</time></trkpt><trkpt lon="15.6538023" lat="46.4777762"><ele>349</ele><time>2019-09-10T17:40:49.000Z</time></trkpt><trkpt lon="15.6537325" lat="46.4778969"><ele>349</ele><time>2019-09-10T17:40:50.000Z</time></trkpt><trkpt lon="15.6536996" lat="46.4779578"><ele>349</ele><time>2019-09-10T17:40:51.000Z</time></trkpt><trkpt lon="15.6536996" lat="46.4779578"><ele>349</ele><time>2019-09-10T17:40:52.000Z</time></trkpt><trkpt lon="15.6536403" lat="46.4780802"><ele>349</ele><time>2019-09-10T17:40:53.000Z</time></trkpt><trkpt lon="15.6536164" lat="46.4781417"><ele>349</ele><time>2019-09-10T17:40:54.000Z</time></trkpt><trkpt lon="15.6536164" lat="46.4781417"><ele>349</ele><time>2019-09-10T17:40:55.000Z</time></trkpt><trkpt lon="15.6535688" lat="46.4782635"><ele>349</ele><time>2019-09-10T17:40:56.000Z</time></trkpt><trkpt lon="15.653546" lat="46.4783242"><ele>349</ele><time>2019-09-10T17:40:57.000Z</time></trkpt><trkpt lon="15.653546" lat="46.4783242"><ele>349</ele><time>2019-09-10T17:40:58.000Z</time></trkpt><trkpt lon="15.6535099" lat="46.4784469"><ele>348</ele><time>2019-09-10T17:40:59.000Z</time></trkpt><trkpt lon="15.6534882" lat="46.4785089"><ele>348</ele><time>2019-09-10T17:41:00.000Z</time></trkpt><trkpt lon="15.6534882" lat="46.4785089"><ele>348</ele><time>2019-09-10T17:41:01.000Z</time></trkpt><trkpt lon="15.6534295" lat="46.4786345"><ele>348</ele><time>2019-09-10T17:41:02.000Z</time></trkpt><trkpt lon="15.653402" lat="46.4786965"><ele>348</ele><time>2019-09-10T17:41:03.000Z</time></trkpt><trkpt lon="15.6533665" lat="46.478756"><ele>347</ele><time>2019-09-10T17:41:04.000Z</time></trkpt><trkpt lon="15.6533665" lat="46.478756"><ele>347</ele><time>2019-09-10T17:41:05.000Z</time></trkpt><trkpt lon="15.6533182" lat="46.4788767"><ele>347</ele><time>2019-09-10T17:41:06.000Z</time></trkpt><trkpt lon="15.6532881" lat="46.4789334"><ele>347</ele><time>2019-09-10T17:41:07.000Z</time></trkpt><trkpt lon="15.653262" lat="46.47898"><ele>347</ele><time>2019-09-10T17:41:08.000Z</time></trkpt><trkpt lon="15.653262" lat="46.47898"><ele>347</ele><time>2019-09-10T17:41:09.000Z</time></trkpt><trkpt lon="15.6532024" lat="46.4790512"><ele>348</ele><time>2019-09-10T17:41:10.000Z</time></trkpt><trkpt lon="15.6532024" lat="46.4790512"><ele>348</ele><time>2019-09-10T17:41:11.000Z</time></trkpt><trkpt lon="15.6531131" lat="46.4791071"><ele>347</ele><time>2019-09-10T17:41:12.000Z</time></trkpt><trkpt lon="15.6531014" lat="46.4791538"><ele>347</ele><time>2019-09-10T17:41:13.000Z</time></trkpt><trkpt lon="15.6531014" lat="46.4791538"><ele>347</ele><time>2019-09-10T17:41:14.000Z</time></trkpt><trkpt lon="15.6530947" lat="46.4792629"><ele>347</ele><time>2019-09-10T17:41:15.000Z</time></trkpt><trkpt lon="15.6530833" lat="46.4793214"><ele>346</ele><time>2019-09-10T17:41:16.000Z</time></trkpt><trkpt lon="15.6530664" lat="46.4793819"><ele>346</ele><time>2019-09-10T17:41:17.000Z</time></trkpt><trkpt lon="15.6530664" lat="46.4793819"><ele>346</ele><time>2019-09-10T17:41:18.000Z</time></trkpt><trkpt lon="15.6530216" lat="46.4795053"><ele>346</ele><time>2019-09-10T17:41:19.000Z</time></trkpt><trkpt lon="15.6530216" lat="46.4795053"><ele>346</ele><time>2019-09-10T17:41:20.000Z</time></trkpt><trkpt lon="15.652982" lat="46.4796341"><ele>346</ele><time>2019-09-10T17:41:21.000Z</time></trkpt><trkpt lon="15.652982" lat="46.4796341"><ele>346</ele><time>2019-09-10T17:41:22.000Z</time></trkpt><trkpt lon="15.6529402" lat="46.4797654"><ele>346</ele><time>2019-09-10T17:41:23.000Z</time></trkpt><trkpt lon="15.6529402" lat="46.4797654"><ele>346</ele><time>2019-09-10T17:41:24.000Z</time></trkpt><trkpt lon="15.6528948" lat="46.4799005"><ele>347</ele><time>2019-09-10T17:41:25.000Z</time></trkpt><trkpt lon="15.6528948" lat="46.4799005"><ele>347</ele><time>2019-09-10T17:41:26.000Z</time></trkpt><trkpt lon="15.6528497" lat="46.4800383"><ele>347</ele><time>2019-09-10T17:41:27.000Z</time></trkpt><trkpt lon="15.652827" lat="46.4801085"><ele>347</ele><time>2019-09-10T17:41:28.000Z</time></trkpt><trkpt lon="15.6528039" lat="46.4801787"><ele>347</ele><time>2019-09-10T17:41:29.000Z</time></trkpt><trkpt lon="15.6528039" lat="46.4801787"><ele>347</ele><time>2019-09-10T17:41:30.000Z</time></trkpt><trkpt lon="15.6527593" lat="46.4803209"><ele>347</ele><time>2019-09-10T17:41:31.000Z</time></trkpt><trkpt lon="15.6527362" lat="46.4803924"><ele>347</ele><time>2019-09-10T17:41:32.000Z</time></trkpt><trkpt lon="15.6527362" lat="46.4803924"><ele>347</ele><time>2019-09-10T17:41:33.000Z</time></trkpt><trkpt lon="15.6526949" lat="46.4805338"><ele>347</ele><time>2019-09-10T17:41:34.000Z</time></trkpt><trkpt lon="15.6526739" lat="46.480604"><ele>347</ele><time>2019-09-10T17:41:35.000Z</time></trkpt><trkpt lon="15.6526739" lat="46.480604"><ele>347</ele><time>2019-09-10T17:41:36.000Z</time></trkpt><trkpt lon="15.6526305" lat="46.4807413"><ele>347</ele><time>2019-09-10T17:41:37.000Z</time></trkpt><trkpt lon="15.6526123" lat="46.4808085"><ele>347</ele><time>2019-09-10T17:41:38.000Z</time></trkpt><trkpt lon="15.6526123" lat="46.4808085"><ele>347</ele><time>2019-09-10T17:41:39.000Z</time></trkpt><trkpt lon="15.6525766" lat="46.4809394"><ele>347</ele><time>2019-09-10T17:41:40.000Z</time></trkpt><trkpt lon="15.6525766" lat="46.4809394"><ele>347</ele><time>2019-09-10T17:41:41.000Z</time></trkpt><trkpt lon="15.6525456" lat="46.4810661"><ele>347</ele><time>2019-09-10T17:41:42.000Z</time></trkpt><trkpt lon="15.6525456" lat="46.4810661"><ele>347</ele><time>2019-09-10T17:41:43.000Z</time></trkpt><trkpt lon="15.6525144" lat="46.4811917"><ele>347</ele><time>2019-09-10T17:41:44.000Z</time></trkpt><trkpt lon="15.6525144" lat="46.4811917"><ele>347</ele><time>2019-09-10T17:41:45.000Z</time></trkpt><trkpt lon="15.6524846" lat="46.4813174"><ele>347</ele><time>2019-09-10T17:41:46.000Z</time></trkpt><trkpt lon="15.6524691" lat="46.4813807"><ele>347</ele><time>2019-09-10T17:41:47.000Z</time></trkpt><trkpt lon="15.6524691" lat="46.4813807"><ele>347</ele><time>2019-09-10T17:41:48.000Z</time></trkpt><trkpt lon="15.6524438" lat="46.4815071"><ele>347</ele><time>2019-09-10T17:41:49.000Z</time></trkpt><trkpt lon="15.6524438" lat="46.4815071"><ele>347</ele><time>2019-09-10T17:41:50.000Z</time></trkpt><trkpt lon="15.6524168" lat="46.4816356"><ele>346</ele><time>2019-09-10T17:41:51.000Z</time></trkpt><trkpt lon="15.6524168" lat="46.4816356"><ele>346</ele><time>2019-09-10T17:41:52.000Z</time></trkpt><trkpt lon="15.6523884" lat="46.4817639"><ele>346</ele><time>2019-09-10T17:41:53.000Z</time></trkpt><trkpt lon="15.6523884" lat="46.4817639"><ele>346</ele><time>2019-09-10T17:41:54.000Z</time></trkpt><trkpt lon="15.6523573" lat="46.4818925"><ele>346</ele><time>2019-09-10T17:41:55.000Z</time></trkpt><trkpt lon="15.6523573" lat="46.4818925"><ele>346</ele><time>2019-09-10T17:41:56.000Z</time></trkpt><trkpt lon="15.6523235" lat="46.4820212"><ele>346</ele><time>2019-09-10T17:41:57.000Z</time></trkpt><trkpt lon="15.6523068" lat="46.4820859"><ele>346</ele><time>2019-09-10T17:41:58.000Z</time></trkpt><trkpt lon="15.6522907" lat="46.4821506"><ele>346</ele><time>2019-09-10T17:41:59.000Z</time></trkpt><trkpt lon="15.6522907" lat="46.4821506"><ele>346</ele><time>2019-09-10T17:42:00.000Z</time></trkpt><trkpt lon="15.6522645" lat="46.4822809"><ele>346</ele><time>2019-09-10T17:42:01.000Z</time></trkpt><trkpt lon="15.6522645" lat="46.4822809"><ele>346</ele><time>2019-09-10T17:42:02.000Z</time></trkpt><trkpt lon="15.6522447" lat="46.4824102"><ele>346</ele><time>2019-09-10T17:42:03.000Z</time></trkpt><trkpt lon="15.6522447" lat="46.4824102"><ele>346</ele><time>2019-09-10T17:42:04.000Z</time></trkpt><trkpt lon="15.6522281" lat="46.4825389"><ele>346</ele><time>2019-09-10T17:42:05.000Z</time></trkpt><trkpt lon="15.6522281" lat="46.4825389"><ele>346</ele><time>2019-09-10T17:42:06.000Z</time></trkpt><trkpt lon="15.6522151" lat="46.4826686"><ele>345</ele><time>2019-09-10T17:42:07.000Z</time></trkpt><trkpt lon="15.6522151" lat="46.4826686"><ele>345</ele><time>2019-09-10T17:42:08.000Z</time></trkpt><trkpt lon="15.6522027" lat="46.4827996"><ele>345</ele><time>2019-09-10T17:42:09.000Z</time></trkpt><trkpt lon="15.6521979" lat="46.4828645"><ele>345</ele><time>2019-09-10T17:42:10.000Z</time></trkpt><trkpt lon="15.6521979" lat="46.4828645"><ele>345</ele><time>2019-09-10T17:42:11.000Z</time></trkpt><trkpt lon="15.6521917" lat="46.4829932"><ele>345</ele><time>2019-09-10T17:42:12.000Z</time></trkpt><trkpt lon="15.6521889" lat="46.4830577"><ele>345</ele><time>2019-09-10T17:42:13.000Z</time></trkpt><trkpt lon="15.6521889" lat="46.4830577"><ele>345</ele><time>2019-09-10T17:42:14.000Z</time></trkpt><trkpt lon="15.6521897" lat="46.4831874"><ele>345</ele><time>2019-09-10T17:42:15.000Z</time></trkpt><trkpt lon="15.6521892" lat="46.4832528"><ele>345</ele><time>2019-09-10T17:42:16.000Z</time></trkpt><trkpt lon="15.6521892" lat="46.4832528"><ele>345</ele><time>2019-09-10T17:42:17.000Z</time></trkpt><trkpt lon="15.6521842" lat="46.4833833"><ele>345</ele><time>2019-09-10T17:42:18.000Z</time></trkpt><trkpt lon="15.6521842" lat="46.4833833"><ele>345</ele><time>2019-09-10T17:42:19.000Z</time></trkpt><trkpt lon="15.6521616" lat="46.4835127"><ele>344</ele><time>2019-09-10T17:42:20.000Z</time></trkpt><trkpt lon="15.6521616" lat="46.4835127"><ele>344</ele><time>2019-09-10T17:42:21.000Z</time></trkpt><trkpt lon="15.6521599" lat="46.48364"><ele>344</ele><time>2019-09-10T17:42:22.000Z</time></trkpt><trkpt lon="15.6521693" lat="46.4837024"><ele>344</ele><time>2019-09-10T17:42:23.000Z</time></trkpt><trkpt lon="15.6521693" lat="46.4837024"><ele>344</ele><time>2019-09-10T17:42:24.000Z</time></trkpt><trkpt lon="15.6521722" lat="46.4838239"><ele>344</ele><time>2019-09-10T17:42:25.000Z</time></trkpt><trkpt lon="15.6521739" lat="46.4838845"><ele>344</ele><time>2019-09-10T17:42:26.000Z</time></trkpt><trkpt lon="15.6521739" lat="46.4838845"><ele>344</ele><time>2019-09-10T17:42:27.000Z</time></trkpt><trkpt lon="15.6521689" lat="46.4840112"><ele>344</ele><time>2019-09-10T17:42:28.000Z</time></trkpt><trkpt lon="15.6521689" lat="46.4840112"><ele>344</ele><time>2019-09-10T17:42:29.000Z</time></trkpt><trkpt lon="15.6521657" lat="46.4841403"><ele>344</ele><time>2019-09-10T17:42:30.000Z</time></trkpt><trkpt lon="15.6521644" lat="46.4842051"><ele>344</ele><time>2019-09-10T17:42:31.000Z</time></trkpt><trkpt lon="15.6521625" lat="46.4842694"><ele>344</ele><time>2019-09-10T17:42:32.000Z</time></trkpt><trkpt lon="15.6521625" lat="46.4842694"><ele>344</ele><time>2019-09-10T17:42:33.000Z</time></trkpt><trkpt lon="15.6521566" lat="46.4843972"><ele>343</ele><time>2019-09-10T17:42:34.000Z</time></trkpt><trkpt lon="15.6521555" lat="46.4844614"><ele>343</ele><time>2019-09-10T17:42:35.000Z</time></trkpt><trkpt lon="15.6521555" lat="46.4844614"><ele>343</ele><time>2019-09-10T17:42:36.000Z</time></trkpt><trkpt lon="15.6521529" lat="46.4845918"><ele>344</ele><time>2019-09-10T17:42:37.000Z</time></trkpt><trkpt lon="15.6521529" lat="46.4845918"><ele>344</ele><time>2019-09-10T17:42:38.000Z</time></trkpt><trkpt lon="15.6521472" lat="46.4847217"><ele>344</ele><time>2019-09-10T17:42:39.000Z</time></trkpt><trkpt lon="15.6521472" lat="46.4847217"><ele>344</ele><time>2019-09-10T17:42:40.000Z</time></trkpt><trkpt lon="15.6521326" lat="46.4848518"><ele>343</ele><time>2019-09-10T17:42:41.000Z</time></trkpt><trkpt lon="15.6521265" lat="46.4849168"><ele>343</ele><time>2019-09-10T17:42:42.000Z</time></trkpt><trkpt lon="15.6521176" lat="46.4849818"><ele>343</ele><time>2019-09-10T17:42:43.000Z</time></trkpt><trkpt lon="15.6521176" lat="46.4849818"><ele>343</ele><time>2019-09-10T17:42:44.000Z</time></trkpt><trkpt lon="15.652104" lat="46.4851111"><ele>343</ele><time>2019-09-10T17:42:45.000Z</time></trkpt><trkpt lon="15.652104" lat="46.4851111"><ele>343</ele><time>2019-09-10T17:42:47.000Z</time></trkpt><trkpt lon="15.6520903" lat="46.48524"><ele>342</ele><time>2019-09-10T17:42:47.000Z</time></trkpt><trkpt lon="15.6520837" lat="46.4853031"><ele>342</ele><time>2019-09-10T17:42:49.000Z</time></trkpt><trkpt lon="15.6520837" lat="46.4853031"><ele>342</ele><time>2019-09-10T17:42:50.000Z</time></trkpt><trkpt lon="15.6520665" lat="46.4854295"><ele>342</ele><time>2019-09-10T17:42:51.000Z</time></trkpt><trkpt lon="15.6520665" lat="46.4854295"><ele>342</ele><time>2019-09-10T17:42:52.000Z</time></trkpt><trkpt lon="15.6520525" lat="46.4855566"><ele>341</ele><time>2019-09-10T17:42:53.000Z</time></trkpt><trkpt lon="15.6520525" lat="46.4855566"><ele>341</ele><time>2019-09-10T17:42:54.000Z</time></trkpt><trkpt lon="15.6520415" lat="46.485684"><ele>341</ele><time>2019-09-10T17:42:55.000Z</time></trkpt><trkpt lon="15.6520341" lat="46.4857476"><ele>341</ele><time>2019-09-10T17:42:56.000Z</time></trkpt><trkpt lon="15.6520341" lat="46.4857476"><ele>341</ele><time>2019-09-10T17:42:57.000Z</time></trkpt><trkpt lon="15.6520254" lat="46.4858759"><ele>340</ele><time>2019-09-10T17:42:58.000Z</time></trkpt><trkpt lon="15.6520254" lat="46.4858759"><ele>340</ele><time>2019-09-10T17:42:59.000Z</time></trkpt><trkpt lon="15.6520157" lat="46.4860054"><ele>340</ele><time>2019-09-10T17:43:00.000Z</time></trkpt><trkpt lon="15.6520157" lat="46.4860054"><ele>340</ele><time>2019-09-10T17:43:01.000Z</time></trkpt><trkpt lon="15.6520065" lat="46.4861358"><ele>340</ele><time>2019-09-10T17:43:02.000Z</time></trkpt><trkpt lon="15.652002" lat="46.4862004"><ele>339</ele><time>2019-09-10T17:43:03.000Z</time></trkpt><trkpt lon="15.652002" lat="46.4862004"><ele>339</ele><time>2019-09-10T17:43:04.000Z</time></trkpt><trkpt lon="15.6519887" lat="46.4863288"><ele>339</ele><time>2019-09-10T17:43:05.000Z</time></trkpt><trkpt lon="15.6519849" lat="46.4863927"><ele>340</ele><time>2019-09-10T17:43:06.000Z</time></trkpt><trkpt lon="15.6519849" lat="46.4863927"><ele>340</ele><time>2019-09-10T17:43:07.000Z</time></trkpt><trkpt lon="15.6519813" lat="46.4865212"><ele>339</ele><time>2019-09-10T17:43:08.000Z</time></trkpt><trkpt lon="15.6519792" lat="46.4865852"><ele>339</ele><time>2019-09-10T17:43:09.000Z</time></trkpt><trkpt lon="15.6519735" lat="46.4866492"><ele>339</ele><time>2019-09-10T17:43:10.000Z</time></trkpt><trkpt lon="15.6519735" lat="46.4866492"><ele>339</ele><time>2019-09-10T17:43:11.000Z</time></trkpt><trkpt lon="15.6519694" lat="46.4867778"><ele>339</ele><time>2019-09-10T17:43:12.000Z</time></trkpt><trkpt lon="15.6519694" lat="46.4867778"><ele>339</ele><time>2019-09-10T17:43:13.000Z</time></trkpt><trkpt lon="15.6519684" lat="46.486908"><ele>339</ele><time>2019-09-10T17:43:14.000Z</time></trkpt><trkpt lon="15.6519694" lat="46.4869738"><ele>338</ele><time>2019-09-10T17:43:15.000Z</time></trkpt><trkpt lon="15.6519685" lat="46.4870396"><ele>338</ele><time>2019-09-10T17:43:16.000Z</time></trkpt><trkpt lon="15.6519685" lat="46.4870396"><ele>338</ele><time>2019-09-10T17:43:17.000Z</time></trkpt><trkpt lon="15.651972" lat="46.4871685"><ele>338</ele><time>2019-09-10T17:43:18.000Z</time></trkpt><trkpt lon="15.6519763" lat="46.4872289"><ele>338</ele><time>2019-09-10T17:43:19.000Z</time></trkpt><trkpt lon="15.6519763" lat="46.4872289"><ele>338</ele><time>2019-09-10T17:43:20.000Z</time></trkpt><trkpt lon="15.6519899" lat="46.4873448"><ele>338</ele><time>2019-09-10T17:43:21.000Z</time></trkpt><trkpt lon="15.6519899" lat="46.4873448"><ele>338</ele><time>2019-09-10T17:43:22.000Z</time></trkpt><trkpt lon="15.6520007" lat="46.4874715"><ele>338</ele><time>2019-09-10T17:43:23.000Z</time></trkpt><trkpt lon="15.6520007" lat="46.4874715"><ele>338</ele><time>2019-09-10T17:43:24.000Z</time></trkpt><trkpt lon="15.6519927" lat="46.4876067"><ele>338</ele><time>2019-09-10T17:43:25.000Z</time></trkpt><trkpt lon="15.6519927" lat="46.4876067"><ele>338</ele><time>2019-09-10T17:43:26.000Z</time></trkpt><trkpt lon="15.6519924" lat="46.4877435"><ele>338</ele><time>2019-09-10T17:43:27.000Z</time></trkpt><trkpt lon="15.6519911" lat="46.4878115"><ele>338</ele><time>2019-09-10T17:43:28.000Z</time></trkpt><trkpt lon="15.6519925" lat="46.4878777"><ele>338</ele><time>2019-09-10T17:43:29.000Z</time></trkpt><trkpt lon="15.6519925" lat="46.4878777"><ele>338</ele><time>2019-09-10T17:43:30.000Z</time></trkpt><trkpt lon="15.6520005" lat="46.4880106"><ele>338</ele><time>2019-09-10T17:43:31.000Z</time></trkpt><trkpt lon="15.6520005" lat="46.4880106"><ele>338</ele><time>2019-09-10T17:43:32.000Z</time></trkpt><trkpt lon="15.6520067" lat="46.4881421"><ele>338</ele><time>2019-09-10T17:43:33.000Z</time></trkpt><trkpt lon="15.6520067" lat="46.4881421"><ele>338</ele><time>2019-09-10T17:43:34.000Z</time></trkpt><trkpt lon="15.6520151" lat="46.4882715"><ele>338</ele><time>2019-09-10T17:43:35.000Z</time></trkpt><trkpt lon="15.6520151" lat="46.4882715"><ele>338</ele><time>2019-09-10T17:43:36.000Z</time></trkpt><trkpt lon="15.6520237" lat="46.488398"><ele>338</ele><time>2019-09-10T17:43:37.000Z</time></trkpt><trkpt lon="15.6520237" lat="46.488398"><ele>338</ele><time>2019-09-10T17:43:38.000Z</time></trkpt><trkpt lon="15.6520311" lat="46.488525"><ele>338</ele><time>2019-09-10T17:43:39.000Z</time></trkpt><trkpt lon="15.6520338" lat="46.4885887"><ele>338</ele><time>2019-09-10T17:43:40.000Z</time></trkpt><trkpt lon="15.6520338" lat="46.4885887"><ele>338</ele><time>2019-09-10T17:43:41.000Z</time></trkpt><trkpt lon="15.6520385" lat="46.4887171"><ele>338</ele><time>2019-09-10T17:43:42.000Z</time></trkpt><trkpt lon="15.6520395" lat="46.4887811"><ele>338</ele><time>2019-09-10T17:43:43.000Z</time></trkpt><trkpt lon="15.6520395" lat="46.4887811"><ele>338</ele><time>2019-09-10T17:43:44.000Z</time></trkpt><trkpt lon="15.6520398" lat="46.488911"><ele>338</ele><time>2019-09-10T17:43:45.000Z</time></trkpt><trkpt lon="15.6520398" lat="46.488911"><ele>338</ele><time>2019-09-10T17:43:46.000Z</time></trkpt><trkpt lon="15.6520332" lat="46.4890412"><ele>338</ele><time>2019-09-10T17:43:47.000Z</time></trkpt><trkpt lon="15.6520332" lat="46.4890412"><ele>338</ele><time>2019-09-10T17:43:48.000Z</time></trkpt><trkpt lon="15.6520168" lat="46.4891686"><ele>338</ele><time>2019-09-10T17:43:49.000Z</time></trkpt><trkpt lon="15.6520168" lat="46.4891686"><ele>338</ele><time>2019-09-10T17:43:50.000Z</time></trkpt><trkpt lon="15.6519835" lat="46.4892936"><ele>338</ele><time>2019-09-10T17:43:51.000Z</time></trkpt><trkpt lon="15.6519835" lat="46.4892936"><ele>338</ele><time>2019-09-10T17:43:52.000Z</time></trkpt><trkpt lon="15.6519356" lat="46.4894156"><ele>338</ele><time>2019-09-10T17:43:53.000Z</time></trkpt><trkpt lon="15.6519356" lat="46.4894156"><ele>338</ele><time>2019-09-10T17:43:54.000Z</time></trkpt><trkpt lon="15.6518749" lat="46.4895345"><ele>338</ele><time>2019-09-10T17:43:55.000Z</time></trkpt><trkpt lon="15.6518349" lat="46.4895921"><ele>338</ele><time>2019-09-10T17:43:56.000Z</time></trkpt><trkpt lon="15.6517886" lat="46.4896477"><ele>338</ele><time>2019-09-10T17:43:57.000Z</time></trkpt><trkpt lon="15.6517886" lat="46.4896477"><ele>338</ele><time>2019-09-10T17:43:58.000Z</time></trkpt><trkpt lon="15.6516908" lat="46.4897554"><ele>338</ele><time>2019-09-10T17:43:59.000Z</time></trkpt><trkpt lon="15.6516908" lat="46.4897554"><ele>338</ele><time>2019-09-10T17:44:00.000Z</time></trkpt><trkpt lon="15.6515958" lat="46.4898672"><ele>338</ele><time>2019-09-10T17:44:01.000Z</time></trkpt><trkpt lon="15.6515958" lat="46.4898672"><ele>338</ele><time>2019-09-10T17:44:02.000Z</time></trkpt><trkpt lon="15.6515044" lat="46.4899815"><ele>338</ele><time>2019-09-10T17:44:03.000Z</time></trkpt><trkpt lon="15.6515044" lat="46.4899815"><ele>338</ele><time>2019-09-10T17:44:04.000Z</time></trkpt><trkpt lon="15.6514077" lat="46.4900885"><ele>338</ele><time>2019-09-10T17:44:05.000Z</time></trkpt><trkpt lon="15.6514077" lat="46.4900885"><ele>338</ele><time>2019-09-10T17:44:06.000Z</time></trkpt><trkpt lon="15.6513023" lat="46.4901854"><ele>338</ele><time>2019-09-10T17:44:07.000Z</time></trkpt><trkpt lon="15.6513023" lat="46.4901854"><ele>338</ele><time>2019-09-10T17:44:08.000Z</time></trkpt><trkpt lon="15.6511959" lat="46.490278"><ele>337</ele><time>2019-09-10T17:44:09.000Z</time></trkpt><trkpt lon="15.6511441" lat="46.4903267"><ele>337</ele><time>2019-09-10T17:44:10.000Z</time></trkpt><trkpt lon="15.6511441" lat="46.4903267"><ele>337</ele><time>2019-09-10T17:44:11.000Z</time></trkpt><trkpt lon="15.6510311" lat="46.4904185"><ele>337</ele><time>2019-09-10T17:44:12.000Z</time></trkpt><trkpt lon="15.6509745" lat="46.4904625"><ele>337</ele><time>2019-09-10T17:44:13.000Z</time></trkpt><trkpt lon="15.6509328" lat="46.4905119"><ele>337</ele><time>2019-09-10T17:44:14.000Z</time></trkpt><trkpt lon="15.6509328" lat="46.4905119"><ele>337</ele><time>2019-09-10T17:44:15.000Z</time></trkpt><trkpt lon="15.6509102" lat="46.4906275"><ele>337</ele><time>2019-09-10T17:44:16.000Z</time></trkpt><trkpt lon="15.6509102" lat="46.4906275"><ele>337</ele><time>2019-09-10T17:44:17.000Z</time></trkpt><trkpt lon="15.6508198" lat="46.4907384"><ele>337</ele><time>2019-09-10T17:44:18.000Z</time></trkpt><trkpt lon="15.6508198" lat="46.4907384"><ele>337</ele><time>2019-09-10T17:44:19.000Z</time></trkpt><trkpt lon="15.6506892" lat="46.4908485"><ele>338</ele><time>2019-09-10T17:44:20.000Z</time></trkpt><trkpt lon="15.6506892" lat="46.4908485"><ele>338</ele><time>2019-09-10T17:44:21.000Z</time></trkpt><trkpt lon="15.6505751" lat="46.4909724"><ele>338</ele><time>2019-09-10T17:44:22.000Z</time></trkpt><trkpt lon="15.6505751" lat="46.4909724"><ele>338</ele><time>2019-09-10T17:44:23.000Z</time></trkpt><trkpt lon="15.6504884" lat="46.4910969"><ele>338</ele><time>2019-09-10T17:44:24.000Z</time></trkpt><trkpt lon="15.6504884" lat="46.4910969"><ele>338</ele><time>2019-09-10T17:44:25.000Z</time></trkpt><trkpt lon="15.6504165" lat="46.4912191"><ele>338</ele><time>2019-09-10T17:44:26.000Z</time></trkpt><trkpt lon="15.6504165" lat="46.4912191"><ele>338</ele><time>2019-09-10T17:44:27.000Z</time></trkpt><trkpt lon="15.6503519" lat="46.4913389"><ele>338</ele><time>2019-09-10T17:44:28.000Z</time></trkpt><trkpt lon="15.6503519" lat="46.4913389"><ele>338</ele><time>2019-09-10T17:44:29.000Z</time></trkpt><trkpt lon="15.6502813" lat="46.4914558"><ele>338</ele><time>2019-09-10T17:44:30.000Z</time></trkpt><trkpt lon="15.6502813" lat="46.4914558"><ele>338</ele><time>2019-09-10T17:44:31.000Z</time></trkpt><trkpt lon="15.6502075" lat="46.4915733"><ele>338</ele><time>2019-09-10T17:44:32.000Z</time></trkpt><trkpt lon="15.6501731" lat="46.4916331"><ele>338</ele><time>2019-09-10T17:44:33.000Z</time></trkpt><trkpt lon="15.650139" lat="46.4916921"><ele>338</ele><time>2019-09-10T17:44:34.000Z</time></trkpt><trkpt lon="15.650139" lat="46.4916921"><ele>338</ele><time>2019-09-10T17:44:35.000Z</time></trkpt><trkpt lon="15.6500681" lat="46.4918089"><ele>338</ele><time>2019-09-10T17:44:36.000Z</time></trkpt><trkpt lon="15.6500324" lat="46.4918667"><ele>338</ele><time>2019-09-10T17:44:37.000Z</time></trkpt><trkpt lon="15.6499973" lat="46.4919245"><ele>338</ele><time>2019-09-10T17:44:38.000Z</time></trkpt><trkpt lon="15.6499973" lat="46.4919245"><ele>338</ele><time>2019-09-10T17:44:39.000Z</time></trkpt><trkpt lon="15.649927" lat="46.4920402"><ele>339</ele><time>2019-09-10T17:44:40.000Z</time></trkpt><trkpt lon="15.649893" lat="46.4920975"><ele>339</ele><time>2019-09-10T17:44:41.000Z</time></trkpt><trkpt lon="15.649893" lat="46.4920975"><ele>339</ele><time>2019-09-10T17:44:42.000Z</time></trkpt><trkpt lon="15.6498238" lat="46.4922127"><ele>338</ele><time>2019-09-10T17:44:43.000Z</time></trkpt><trkpt lon="15.6497896" lat="46.4922711"><ele>338</ele><time>2019-09-10T17:44:44.000Z</time></trkpt><trkpt lon="15.6497896" lat="46.4922711"><ele>338</ele><time>2019-09-10T17:44:45.000Z</time></trkpt><trkpt lon="15.6497219" lat="46.4923873"><ele>339</ele><time>2019-09-10T17:44:46.000Z</time></trkpt><trkpt lon="15.6497219" lat="46.4923873"><ele>339</ele><time>2019-09-10T17:44:47.000Z</time></trkpt><trkpt lon="15.6496555" lat="46.4925031"><ele>339</ele><time>2019-09-10T17:44:48.000Z</time></trkpt><trkpt lon="15.6496555" lat="46.4925031"><ele>339</ele><time>2019-09-10T17:44:49.000Z</time></trkpt><trkpt lon="15.6495868" lat="46.4926184"><ele>339</ele><time>2019-09-10T17:44:50.000Z</time></trkpt><trkpt lon="15.6495546" lat="46.4926769"><ele>339</ele><time>2019-09-10T17:44:51.000Z</time></trkpt><trkpt lon="15.6495546" lat="46.4926769"><ele>339</ele><time>2019-09-10T17:44:52.000Z</time></trkpt><trkpt lon="15.6494933" lat="46.4927952"><ele>339</ele><time>2019-09-10T17:44:53.000Z</time></trkpt><trkpt lon="15.6494933" lat="46.4927952"><ele>339</ele><time>2019-09-10T17:44:54.000Z</time></trkpt><trkpt lon="15.6494446" lat="46.4929167"><ele>339</ele><time>2019-09-10T17:44:55.000Z</time></trkpt><trkpt lon="15.6494253" lat="46.4929778"><ele>339</ele><time>2019-09-10T17:44:56.000Z</time></trkpt><trkpt lon="15.6494253" lat="46.4929778"><ele>339</ele><time>2019-09-10T17:44:57.000Z</time></trkpt><trkpt lon="15.6493952" lat="46.493101"><ele>339</ele><time>2019-09-10T17:44:58.000Z</time></trkpt><trkpt lon="15.6493827" lat="46.493164"><ele>339</ele><time>2019-09-10T17:44:59.000Z</time></trkpt><trkpt lon="15.6493827" lat="46.493164"><ele>339</ele><time>2019-09-10T17:45:00.000Z</time></trkpt><trkpt lon="15.6493607" lat="46.4932888"><ele>339</ele><time>2019-09-10T17:45:01.000Z</time></trkpt><trkpt lon="15.6493607" lat="46.4932888"><ele>339</ele><time>2019-09-10T17:45:02.000Z</time></trkpt><trkpt lon="15.6493447" lat="46.4934151"><ele>339</ele><time>2019-09-10T17:45:03.000Z</time></trkpt><trkpt lon="15.6493369" lat="46.493478"><ele>339</ele><time>2019-09-10T17:45:04.000Z</time></trkpt><trkpt lon="15.6493369" lat="46.493478"><ele>339</ele><time>2019-09-10T17:45:05.000Z</time></trkpt><trkpt lon="15.6493202" lat="46.4936029"><ele>339</ele><time>2019-09-10T17:45:06.000Z</time></trkpt><trkpt lon="15.6493099" lat="46.4936652"><ele>339</ele><time>2019-09-10T17:45:07.000Z</time></trkpt><trkpt lon="15.6493099" lat="46.4936652"><ele>339</ele><time>2019-09-10T17:45:08.000Z</time></trkpt><trkpt lon="15.6492853" lat="46.4937889"><ele>339</ele><time>2019-09-10T17:45:09.000Z</time></trkpt><trkpt lon="15.6492692" lat="46.4938501"><ele>339</ele><time>2019-09-10T17:45:10.000Z</time></trkpt><trkpt lon="15.6492513" lat="46.4939112"><ele>339</ele><time>2019-09-10T17:45:11.000Z</time></trkpt><trkpt lon="15.6492513" lat="46.4939112"><ele>339</ele><time>2019-09-10T17:45:12.000Z</time></trkpt><trkpt lon="15.6492068" lat="46.4940342"><ele>340</ele><time>2019-09-10T17:45:13.000Z</time></trkpt><trkpt lon="15.6491813" lat="46.4940959"><ele>340</ele><time>2019-09-10T17:45:14.000Z</time></trkpt><trkpt lon="15.6491813" lat="46.4940959"><ele>340</ele><time>2019-09-10T17:45:15.000Z</time></trkpt><trkpt lon="15.6491281" lat="46.494217"><ele>340</ele><time>2019-09-10T17:45:16.000Z</time></trkpt><trkpt lon="15.6491013" lat="46.4942768"><ele>340</ele><time>2019-09-10T17:45:17.000Z</time></trkpt><trkpt lon="15.6491013" lat="46.4942768"><ele>340</ele><time>2019-09-10T17:45:18.000Z</time></trkpt><trkpt lon="15.6490485" lat="46.4943968"><ele>340</ele><time>2019-09-10T17:45:19.000Z</time></trkpt><trkpt lon="15.6490222" lat="46.4944569"><ele>340</ele><time>2019-09-10T17:45:20.000Z</time></trkpt><trkpt lon="15.6490222" lat="46.4944569"><ele>340</ele><time>2019-09-10T17:45:21.000Z</time></trkpt><trkpt lon="15.648968" lat="46.4945775"><ele>340</ele><time>2019-09-10T17:45:22.000Z</time></trkpt><trkpt lon="15.648968" lat="46.4945775"><ele>340</ele><time>2019-09-10T17:45:23.000Z</time></trkpt><trkpt lon="15.6489139" lat="46.4947004"><ele>340</ele><time>2019-09-10T17:45:24.000Z</time></trkpt><trkpt lon="15.6489139" lat="46.4947004"><ele>340</ele><time>2019-09-10T17:45:25.000Z</time></trkpt><trkpt lon="15.6488541" lat="46.4948198"><ele>340</ele><time>2019-09-10T17:45:26.000Z</time></trkpt><trkpt lon="15.6488208" lat="46.4948785"><ele>340</ele><time>2019-09-10T17:45:27.000Z</time></trkpt><trkpt lon="15.6488208" lat="46.4948785"><ele>340</ele><time>2019-09-10T17:45:28.000Z</time></trkpt><trkpt lon="15.6487455" lat="46.4949927"><ele>340</ele><time>2019-09-10T17:45:29.000Z</time></trkpt><trkpt lon="15.6487026" lat="46.4950466"><ele>340</ele><time>2019-09-10T17:45:30.000Z</time></trkpt><trkpt lon="15.6487026" lat="46.4950466"><ele>340</ele><time>2019-09-10T17:45:31.000Z</time></trkpt><trkpt lon="15.648604" lat="46.4951496"><ele>340</ele><time>2019-09-10T17:45:32.000Z</time></trkpt><trkpt lon="15.648604" lat="46.4951496"><ele>340</ele><time>2019-09-10T17:45:33.000Z</time></trkpt><trkpt lon="15.6484996" lat="46.495249"><ele>340</ele><time>2019-09-10T17:45:34.000Z</time></trkpt><trkpt lon="15.6484446" lat="46.4952971"><ele>340</ele><time>2019-09-10T17:45:35.000Z</time></trkpt><trkpt lon="15.6484446" lat="46.4952971"><ele>340</ele><time>2019-09-10T17:45:36.000Z</time></trkpt><trkpt lon="15.6483333" lat="46.4953917"><ele>340</ele><time>2019-09-10T17:45:37.000Z</time></trkpt><trkpt lon="15.6482784" lat="46.4954391"><ele>340</ele><time>2019-09-10T17:45:38.000Z</time></trkpt><trkpt lon="15.6482784" lat="46.4954391"><ele>340</ele><time>2019-09-10T17:45:39.000Z</time></trkpt><trkpt lon="15.6481698" lat="46.4955336"><ele>340</ele><time>2019-09-10T17:45:40.000Z</time></trkpt><trkpt lon="15.6481698" lat="46.4955336"><ele>340</ele><time>2019-09-10T17:45:41.000Z</time></trkpt><trkpt lon="15.6480619" lat="46.4956289"><ele>341</ele><time>2019-09-10T17:45:42.000Z</time></trkpt><trkpt lon="15.6480619" lat="46.4956289"><ele>341</ele><time>2019-09-10T17:45:43.000Z</time></trkpt><trkpt lon="15.6479582" lat="46.495726"><ele>341</ele><time>2019-09-10T17:45:44.000Z</time></trkpt><trkpt lon="15.6479582" lat="46.495726"><ele>341</ele><time>2019-09-10T17:45:45.000Z</time></trkpt><trkpt lon="15.647859" lat="46.4958247"><ele>341</ele><time>2019-09-10T17:45:46.000Z</time></trkpt><trkpt lon="15.6478131" lat="46.4958744"><ele>341</ele><time>2019-09-10T17:45:47.000Z</time></trkpt><trkpt lon="15.6478131" lat="46.4958744"><ele>341</ele><time>2019-09-10T17:45:48.000Z</time></trkpt><trkpt lon="15.6477231" lat="46.4959747"><ele>341</ele><time>2019-09-10T17:45:49.000Z</time></trkpt><trkpt lon="15.6476801" lat="46.4960251"><ele>341</ele><time>2019-09-10T17:45:50.000Z</time></trkpt><trkpt lon="15.6476377" lat="46.496076"><ele>341</ele><time>2019-09-10T17:45:51.000Z</time></trkpt><trkpt lon="15.6475948" lat="46.4961283"><ele>341</ele><time>2019-09-10T17:45:52.000Z</time></trkpt><trkpt lon="15.6475948" lat="46.4961283"><ele>341</ele><time>2019-09-10T17:45:53.000Z</time></trkpt><trkpt lon="15.6475082" lat="46.4962324"><ele>341</ele><time>2019-09-10T17:45:54.000Z</time></trkpt><trkpt lon="15.6475082" lat="46.4962324"><ele>341</ele><time>2019-09-10T17:45:55.000Z</time></trkpt><trkpt lon="15.6474296" lat="46.4963405"><ele>341</ele><time>2019-09-10T17:45:56.000Z</time></trkpt><trkpt lon="15.6473908" lat="46.4963957"><ele>341</ele><time>2019-09-10T17:45:57.000Z</time></trkpt><trkpt lon="15.6473908" lat="46.4963957"><ele>341</ele><time>2019-09-10T17:45:58.000Z</time></trkpt><trkpt lon="15.6473198" lat="46.4965061"><ele>341</ele><time>2019-09-10T17:45:59.000Z</time></trkpt><trkpt lon="15.6472833" lat="46.4965596"><ele>341</ele><time>2019-09-10T17:46:00.000Z</time></trkpt><trkpt lon="15.6472833" lat="46.4965596"><ele>341</ele><time>2019-09-10T17:46:01.000Z</time></trkpt><trkpt lon="15.6472297" lat="46.4966709"><ele>341</ele><time>2019-09-10T17:46:02.000Z</time></trkpt><trkpt lon="15.6472007" lat="46.4967258"><ele>341</ele><time>2019-09-10T17:46:03.000Z</time></trkpt><trkpt lon="15.6472007" lat="46.4967258"><ele>341</ele><time>2019-09-10T17:46:04.000Z</time></trkpt><trkpt lon="15.6471455" lat="46.4968349"><ele>341</ele><time>2019-09-10T17:46:05.000Z</time></trkpt><trkpt lon="15.6471455" lat="46.4968349"><ele>341</ele><time>2019-09-10T17:46:06.000Z</time></trkpt><trkpt lon="15.6470887" lat="46.4969432"><ele>341</ele><time>2019-09-10T17:46:07.000Z</time></trkpt><trkpt lon="15.6470583" lat="46.4969969"><ele>341</ele><time>2019-09-10T17:46:08.000Z</time></trkpt><trkpt lon="15.6470583" lat="46.4969969"><ele>341</ele><time>2019-09-10T17:46:09.000Z</time></trkpt><trkpt lon="15.6470013" lat="46.4971053"><ele>340</ele><time>2019-09-10T17:46:10.000Z</time></trkpt><trkpt lon="15.6469727" lat="46.4971596"><ele>339</ele><time>2019-09-10T17:46:11.000Z</time></trkpt><trkpt lon="15.6469727" lat="46.4971596"><ele>339</ele><time>2019-09-10T17:46:12.000Z</time></trkpt><trkpt lon="15.6469193" lat="46.497269"><ele>339</ele><time>2019-09-10T17:46:13.000Z</time></trkpt><trkpt lon="15.6468904" lat="46.497323"><ele>339</ele><time>2019-09-10T17:46:14.000Z</time></trkpt><trkpt lon="15.6468904" lat="46.497323"><ele>339</ele><time>2019-09-10T17:46:15.000Z</time></trkpt><trkpt lon="15.6468304" lat="46.4974311"><ele>339</ele><time>2019-09-10T17:46:16.000Z</time></trkpt><trkpt lon="15.6467996" lat="46.4974841"><ele>339</ele><time>2019-09-10T17:46:17.000Z</time></trkpt><trkpt lon="15.6467715" lat="46.4975376"><ele>339</ele><time>2019-09-10T17:46:18.000Z</time></trkpt><trkpt lon="15.6467715" lat="46.4975376"><ele>339</ele><time>2019-09-10T17:46:19.000Z</time></trkpt><trkpt lon="15.6467158" lat="46.4976423"><ele>339</ele><time>2019-09-10T17:46:20.000Z</time></trkpt><trkpt lon="15.6467158" lat="46.4976423"><ele>339</ele><time>2019-09-10T17:46:21.000Z</time></trkpt><trkpt lon="15.646657" lat="46.4977356"><ele>339</ele><time>2019-09-10T17:46:22.000Z</time></trkpt><trkpt lon="15.646657" lat="46.4977356"><ele>339</ele><time>2019-09-10T17:46:23.000Z</time></trkpt><trkpt lon="15.646591" lat="46.4978202"><ele>339</ele><time>2019-09-10T17:46:24.000Z</time></trkpt><trkpt lon="15.6465559" lat="46.4978646"><ele>339</ele><time>2019-09-10T17:46:25.000Z</time></trkpt><trkpt lon="15.6465559" lat="46.4978646"><ele>339</ele><time>2019-09-10T17:46:26.000Z</time></trkpt><trkpt lon="15.6464794" lat="46.4979538"><ele>340</ele><time>2019-09-10T17:46:27.000Z</time></trkpt><trkpt lon="15.6464393" lat="46.4979995"><ele>340</ele><time>2019-09-10T17:46:28.000Z</time></trkpt><trkpt lon="15.6464072" lat="46.4980477"><ele>340</ele><time>2019-09-10T17:46:29.000Z</time></trkpt><trkpt lon="15.6463679" lat="46.4980949"><ele>339</ele><time>2019-09-10T17:46:30.000Z</time></trkpt><trkpt lon="15.6463327" lat="46.4981429"><ele>339</ele><time>2019-09-10T17:46:31.000Z</time></trkpt><trkpt lon="15.6462904" lat="46.4981871"><ele>340</ele><time>2019-09-10T17:46:32.000Z</time></trkpt><trkpt lon="15.6462471" lat="46.4982301"><ele>340</ele><time>2019-09-10T17:46:33.000Z</time></trkpt><trkpt lon="15.6462471" lat="46.4982301"><ele>340</ele><time>2019-09-10T17:46:34.000Z</time></trkpt><trkpt lon="15.6461644" lat="46.4983279"><ele>340</ele><time>2019-09-10T17:46:35.000Z</time></trkpt><trkpt lon="15.6461249" lat="46.498381"><ele>340</ele><time>2019-09-10T17:46:36.000Z</time></trkpt><trkpt lon="15.6460851" lat="46.4984346"><ele>340</ele><time>2019-09-10T17:46:37.000Z</time></trkpt><trkpt lon="15.6460851" lat="46.4984346"><ele>340</ele><time>2019-09-10T17:46:38.000Z</time></trkpt><trkpt lon="15.6460109" lat="46.4985418"><ele>340</ele><time>2019-09-10T17:46:39.000Z</time></trkpt><trkpt lon="15.6459699" lat="46.498591"><ele>340</ele><time>2019-09-10T17:46:40.000Z</time></trkpt><trkpt lon="15.6459699" lat="46.498591"><ele>340</ele><time>2019-09-10T17:46:41.000Z</time></trkpt><trkpt lon="15.6459024" lat="46.4986679"><ele>341</ele><time>2019-09-10T17:46:42.000Z</time></trkpt><trkpt lon="15.6459024" lat="46.4986679"><ele>341</ele><time>2019-09-10T17:46:43.000Z</time></trkpt><trkpt lon="15.6459024" lat="46.4986679"><ele>341</ele><time>2019-09-10T17:46:44.000Z</time></trkpt><trkpt lon="15.6458765" lat="46.498709"><ele>340</ele><time>2019-09-10T17:46:45.000Z</time></trkpt><trkpt lon="15.6458765" lat="46.498709"><ele>340</ele><time>2019-09-10T17:46:46.000Z</time></trkpt><trkpt lon="15.645855" lat="46.4987512"><ele>340</ele><time>2019-09-10T17:46:47.000Z</time></trkpt><trkpt lon="15.645855" lat="46.4987512"><ele>340</ele><time>2019-09-10T17:46:48.000Z</time></trkpt><trkpt lon="15.6458461" lat="46.4987855"><ele>341</ele><time>2019-09-10T17:46:49.000Z</time></trkpt><trkpt lon="15.6458297" lat="46.4988124"><ele>341</ele><time>2019-09-10T17:46:50.000Z</time></trkpt><trkpt lon="15.6458297" lat="46.4988124"><ele>341</ele><time>2019-09-10T17:46:51.000Z</time></trkpt><trkpt lon="15.6457678" lat="46.4988553"><ele>341</ele><time>2019-09-10T17:46:52.000Z</time></trkpt><trkpt lon="15.6457319" lat="46.4988749"><ele>341</ele><time>2019-09-10T17:46:53.000Z</time></trkpt><trkpt lon="15.6456942" lat="46.4988976"><ele>341</ele><time>2019-09-10T17:46:54.000Z</time></trkpt><trkpt lon="15.6456942" lat="46.4988976"><ele>341</ele><time>2019-09-10T17:46:55.000Z</time></trkpt><trkpt lon="15.6456329" lat="46.4989493"><ele>341</ele><time>2019-09-10T17:46:56.000Z</time></trkpt><trkpt lon="15.6456038" lat="46.498986"><ele>341</ele><time>2019-09-10T17:46:57.000Z</time></trkpt><trkpt lon="15.6456038" lat="46.498986"><ele>341</ele><time>2019-09-10T17:46:58.000Z</time></trkpt><trkpt lon="15.6455721" lat="46.4990318"><ele>340</ele><time>2019-09-10T17:46:59.000Z</time></trkpt><trkpt lon="15.6455587" lat="46.4990648"><ele>341</ele><time>2019-09-10T17:47:00.000Z</time></trkpt><trkpt lon="15.6455587" lat="46.4990648"><ele>341</ele><time>2019-09-10T17:47:01.000Z</time></trkpt><trkpt lon="15.6455656" lat="46.4990965"><ele>341</ele><time>2019-09-10T17:47:02.000Z</time></trkpt><trkpt lon="15.6455656" lat="46.4990965"><ele>341</ele><time>2019-09-10T17:47:03.000Z</time></trkpt><trkpt lon="15.6455931" lat="46.4991187"><ele>341</ele><time>2019-09-10T17:47:04.000Z</time></trkpt><trkpt lon="15.6455931" lat="46.4991187"><ele>341</ele><time>2019-09-10T17:47:05.000Z</time></trkpt><trkpt lon="15.6456245" lat="46.4991353"><ele>341</ele><time>2019-09-10T17:47:06.000Z</time></trkpt><trkpt lon="15.6456245" lat="46.4991353"><ele>341</ele><time>2019-09-10T17:47:07.000Z</time></trkpt><trkpt lon="15.6456621" lat="46.4991517"><ele>341</ele><time>2019-09-10T17:47:08.000Z</time></trkpt><trkpt lon="15.6456621" lat="46.4991517"><ele>341</ele><time>2019-09-10T17:47:09.000Z</time></trkpt><trkpt lon="15.6457077" lat="46.4991622"><ele>341</ele><time>2019-09-10T17:47:10.000Z</time></trkpt><trkpt lon="15.6457077" lat="46.4991622"><ele>341</ele><time>2019-09-10T17:47:11.000Z</time></trkpt><trkpt lon="15.6457614" lat="46.4991734"><ele>341</ele><time>2019-09-10T17:47:12.000Z</time></trkpt><trkpt lon="15.6457614" lat="46.4991734"><ele>341</ele><time>2019-09-10T17:47:13.000Z</time></trkpt><trkpt lon="15.6458215" lat="46.499188"><ele>341</ele><time>2019-09-10T17:47:14.000Z</time></trkpt><trkpt lon="15.6458722" lat="46.4992"><ele>341</ele><time>2019-09-10T17:47:15.000Z</time></trkpt><trkpt lon="15.6458722" lat="46.4992"><ele>341</ele><time>2019-09-10T17:47:16.000Z</time></trkpt><trkpt lon="15.645939" lat="46.4991993"><ele>342</ele><time>2019-09-10T17:47:17.000Z</time></trkpt><trkpt lon="15.645939" lat="46.4991993"><ele>342</ele><time>2019-09-10T17:47:18.000Z</time></trkpt><trkpt lon="15.6459774" lat="46.4992047"><ele>341</ele><time>2019-09-10T17:47:19.000Z</time></trkpt><trkpt lon="15.6459774" lat="46.4992047"><ele>341</ele><time>2019-09-10T17:47:20.000Z</time></trkpt><trkpt lon="15.6459613" lat="46.4992341"><ele>341</ele><time>2019-09-10T17:47:21.000Z</time></trkpt><trkpt lon="15.6459613" lat="46.4992341"><ele>341</ele><time>2019-09-10T17:47:22.000Z</time></trkpt><trkpt lon="15.6458843" lat="46.4992209"><ele>341</ele><time>2019-09-10T17:47:23.000Z</time></trkpt><trkpt lon="15.6458843" lat="46.4992209"><ele>341</ele><time>2019-09-10T17:47:24.000Z</time></trkpt><trkpt lon="15.6458322" lat="46.4992019"><ele>341</ele><time>2019-09-10T17:47:25.000Z</time></trkpt><trkpt lon="15.6458322" lat="46.4992019"><ele>341</ele><time>2019-09-10T17:47:26.000Z</time></trkpt><trkpt lon="15.6457784" lat="46.4991778"><ele>340</ele><time>2019-09-10T17:47:27.000Z</time></trkpt><trkpt lon="15.6457784" lat="46.4991778"><ele>340</ele><time>2019-09-10T17:47:28.000Z</time></trkpt><trkpt lon="15.6457111" lat="46.4991493"><ele>340</ele><time>2019-09-10T17:47:29.000Z</time></trkpt><trkpt lon="15.6457111" lat="46.4991493"><ele>340</ele><time>2019-09-10T17:47:30.000Z</time></trkpt><trkpt lon="15.6456507" lat="46.4991161"><ele>341</ele><time>2019-09-10T17:47:31.000Z</time></trkpt><trkpt lon="15.6456233" lat="46.4990933"><ele>341</ele><time>2019-09-10T17:47:32.000Z</time></trkpt><trkpt lon="15.6456233" lat="46.4990933"><ele>341</ele><time>2019-09-10T17:47:33.000Z</time></trkpt><trkpt lon="15.6455734" lat="46.4990428"><ele>341</ele><time>2019-09-10T17:47:34.000Z</time></trkpt><trkpt lon="15.6455734" lat="46.4990428"><ele>341</ele><time>2019-09-10T17:47:35.000Z</time></trkpt><trkpt lon="15.6455546" lat="46.4990056"><ele>341</ele><time>2019-09-10T17:47:36.000Z</time></trkpt><trkpt lon="15.6455546" lat="46.4990056"><ele>341</ele><time>2019-09-10T17:47:37.000Z</time></trkpt><trkpt lon="15.6455546" lat="46.4990056"><ele>341</ele><time>2019-09-10T17:47:38.000Z</time></trkpt><trkpt lon="15.6455546" lat="46.4990056"><ele>341</ele><time>2019-09-10T17:47:39.000Z</time></trkpt><trkpt lon="-999.0" lat="-999.0"><ele>0.0</ele><time>2019-09-10T17:47:40.000Z</time></trkpt><trkpt lon="-999.0" lat="-999.0"><ele>0.0</ele><time>2019-09-10T17:47:41.000Z</time></trkpt><trkpt lon="-999.0" lat="-999.0"><ele>0.0</ele><time>2019-09-10T17:47:42.000Z</time></trkpt><trkpt lon="-999.0" lat="-999.0"><ele>0.0</ele><time>2019-09-10T17:47:43.000Z</time></trkpt><trkpt lon="-999.0" lat="-999.0"><ele>0.0</ele><time>2019-09-10T17:47:44.000Z</time></trkpt><trkpt lon="-999.0" lat="-999.0"><ele>0.0</ele><time>2019-09-10T17:47:45.000Z</time></trkpt><trkpt lon="-999.0" lat="-999.0"><ele>0.0</ele><time>2019-09-10T17:47:46.000Z</time></trkpt><trkpt lon="-999.0" lat="-999.0"><ele>0.0</ele><time>2019-09-10T17:47:47.000Z</time></trkpt><trkpt lon="-999.0" lat="-999.0"><ele>0.0</ele><time>2019-09-10T17:47:48.000Z</time></trkpt><trkpt lon="-999.0" lat="-999.0"><ele>0.0</ele><time>2019-09-10T17:47:49.000Z</time></trkpt><trkpt lon="-999.0" lat="-999.0"><ele>0.0</ele><time>2019-09-10T17:47:50.000Z</time></trkpt><trkpt lon="-999.0" lat="-999.0"><ele>0.0</ele><time>2019-09-10T17:47:51.000Z</time></trkpt><trkpt lon="-999.0" lat="-999.0"><ele>0.0</ele><time>2019-09-10T17:47:52.000Z</time></trkpt><trkpt lon="-999.0" lat="-999.0"><ele>0.0</ele><time>2019-09-10T17:47:53.000Z</time></trkpt><trkpt lon="15.6455818" lat="46.4989731"><ele>342</ele><time>2019-09-10T17:47:54.000Z</time></trkpt><trkpt lon="15.6455818" lat="46.4989731"><ele>342</ele><time>2019-09-10T17:47:55.000Z</time></trkpt><trkpt lon="15.6456207" lat="46.4989633"><ele>342</ele><time>2019-09-10T17:47:56.000Z</time></trkpt><trkpt lon="15.6456207" lat="46.4989633"><ele>342</ele><time>2019-09-10T17:47:57.000Z</time></trkpt><trkpt lon="15.6456207" lat="46.4989633"><ele>342</ele><time>2019-09-10T17:47:58.000Z</time></trkpt><trkpt lon="15.6456207" lat="46.4989633"><ele>342</ele><time>2019-09-10T17:47:59.000Z</time></trkpt><trkpt lon="-999.0" lat="-999.0"><ele>0.0</ele><time>2019-09-10T17:48:00.000Z</time></trkpt><trkpt lon="-999.0" lat="-999.0"><ele>0.0</ele><time>2019-09-10T17:48:01.000Z</time></trkpt><trkpt lon="-999.0" lat="-999.0"><ele>0.0</ele><time>2019-09-10T17:48:02.000Z</time></trkpt><trkpt lon="-999.0" lat="-999.0"><ele>0.0</ele><time>2019-09-10T17:48:03.000Z</time></trkpt><trkpt lon="-999.0" lat="-999.0"><ele>0.0</ele><time>2019-09-10T17:48:04.000Z</time></trkpt><trkpt lon="-999.0" lat="-999.0"><ele>0.0</ele><time>2019-09-10T17:48:05.000Z</time></trkpt><trkpt lon="-999.0" lat="-999.0"><ele>0.0</ele><time>2019-09-10T17:48:06.000Z</time></trkpt><trkpt lon="-999.0" lat="-999.0"><ele>0.0</ele><time>2019-09-10T17:48:07.000Z</time></trkpt><trkpt lon="-999.0" lat="-999.0"><ele>0.0</ele><time>2019-09-10T17:48:08.000Z</time></trkpt><trkpt lon="-999.0" lat="-999.0"><ele>0.0</ele><time>2019-09-10T17:48:09.000Z</time></trkpt><trkpt lon="-999.0" lat="-999.0"><ele>0.0</ele><time>2019-09-10T17:48:10.000Z</time></trkpt><trkpt lon="-999.0" lat="-999.0"><ele>0.0</ele><time>2019-09-10T17:48:11.000Z</time></trkpt><trkpt lon="-999.0" lat="-999.0"><ele>0.0</ele><time>2019-09-10T17:48:12.000Z</time></trkpt><trkpt lon="-999.0" lat="-999.0"><ele>0.0</ele><time>2019-09-10T17:48:13.000Z</time></trkpt><trkpt lon="-999.0" lat="-999.0"><ele>0.0</ele><time>2019-09-10T17:48:14.000Z</time></trkpt><trkpt lon="-999.0" lat="-999.0"><ele>0.0</ele><time>2019-09-10T17:48:15.000Z</time></trkpt><trkpt lon="-999.0" lat="-999.0"><ele>0.0</ele><time>2019-09-10T17:48:16.000Z</time></trkpt><trkpt lon="-999.0" lat="-999.0"><ele>0.0</ele><time>2019-09-10T17:48:17.000Z</time></trkpt><trkpt lon="-999.0" lat="-999.0"><ele>0.0</ele><time>2019-09-10T17:48:18.000Z</time></trkpt><trkpt lon="-999.0" lat="-999.0"><ele>0.0</ele><time>2019-09-10T17:48:19.000Z</time></trkpt><trkpt lon="-999.0" lat="-999.0"><ele>0.0</ele><time>2019-09-10T17:48:20.000Z</time></trkpt><trkpt lon="-999.0" lat="-999.0"><ele>0.0</ele><time>2019-09-10T17:48:21.000Z</time></trkpt><trkpt lon="-999.0" lat="-999.0"><ele>0.0</ele><time>2019-09-10T17:48:22.000Z</time></trkpt><trkpt lon="-999.0" lat="-999.0"><ele>0.0</ele><time>2019-09-10T17:48:23.000Z</time></trkpt><trkpt lon="-999.0" lat="-999.0"><ele>0.0</ele><time>2019-09-10T17:48:24.000Z</time></trkpt><trkpt lon="-999.0" lat="-999.0"><ele>0.0</ele><time>2019-09-10T17:48:25.000Z</time></trkpt><trkpt lon="-999.0" lat="-999.0"><ele>0.0</ele><time>2019-09-10T17:48:26.000Z</time></trkpt><trkpt lon="-999.0" lat="-999.0"><ele>0.0</ele><time>2019-09-10T17:48:27.000Z</time></trkpt><trkpt lon="-999.0" lat="-999.0"><ele>0.0</ele><time>2019-09-10T17:48:28.000Z</time></trkpt><trkpt lon="-999.0" lat="-999.0"><ele>0.0</ele><time>2019-09-10T17:48:29.000Z</time></trkpt><trkpt lon="-999.0" lat="-999.0"><ele>0.0</ele><time>2019-09-10T17:48:30.000Z</time></trkpt><trkpt lon="-999.0" lat="-999.0"><ele>0.0</ele><time>2019-09-10T17:48:31.000Z</time></trkpt><trkpt lon="-999.0" lat="-999.0"><ele>0.0</ele><time>2019-09-10T17:48:32.000Z</time></trkpt><trkpt lon="-999.0" lat="-999.0"><ele>0.0</ele><time>2019-09-10T17:48:33.000Z</time></trkpt><trkpt lon="-999.0" lat="-999.0"><ele>0.0</ele><time>2019-09-10T17:48:34.000Z</time></trkpt><trkpt lon="-999.0" lat="-999.0"><ele>0.0</ele><time>2019-09-10T17:48:35.000Z</time></trkpt><trkpt lon="-999.0" lat="-999.0"><ele>0.0</ele><time>2019-09-10T17:48:36.000Z</time></trkpt><trkpt lon="-999.0" lat="-999.0"><ele>0.0</ele><time>2019-09-10T17:48:37.000Z</time></trkpt><trkpt lon="-999.0" lat="-999.0"><ele>0.0</ele><time>2019-09-10T17:48:38.000Z</time></trkpt><trkpt lon="-999.0" lat="-999.0"><ele>0.0</ele><time>2019-09-10T17:48:39.000Z</time></trkpt><trkpt lon="-999.0" lat="-999.0"><ele>0.0</ele><time>2019-09-10T17:48:40.000Z</time></trkpt><trkpt lon="-999.0" lat="-999.0"><ele>0.0</ele><time>2019-09-10T17:48:41.000Z</time></trkpt><trkpt lon="-999.0" lat="-999.0"><ele>0.0</ele><time>2019-09-10T17:48:42.000Z</time></trkpt><trkpt lon="-999.0" lat="-999.0"><ele>0.0</ele><time>2019-09-10T17:48:43.000Z</time></trkpt><trkpt lon="-999.0" lat="-999.0"><ele>0.0</ele><time>2019-09-10T17:48:44.000Z</time></trkpt><trkpt lon="-999.0" lat="-999.0"><ele>0.0</ele><time>2019-09-10T17:48:45.000Z</time></trkpt><trkpt lon="15.6456426" lat="46.4989886"><ele>344</ele><time>2019-09-10T17:48:46.000Z</time></trkpt><trkpt lon="15.6456426" lat="46.4989886"><ele>344</ele><time>2019-09-10T17:48:47.000Z</time></trkpt><trkpt lon="15.6456426" lat="46.4989886"><ele>344</ele><time>2019-09-10T17:48:48.000Z</time></trkpt><trkpt lon="15.6456426" lat="46.4989886"><ele>344</ele><time>2019-09-10T17:48:49.000Z</time></trkpt><trkpt lon="-999.0" lat="-999.0"><ele>0.0</ele><time>2019-09-10T17:48:50.000Z</time></trkpt><trkpt lon="-999.0" lat="-999.0"><ele>0.0</ele><time>2019-09-10T17:48:51.000Z</time></trkpt><trkpt lon="-999.0" lat="-999.0"><ele>0.0</ele><time>2019-09-10T17:48:52.000Z</time></trkpt><trkpt lon="-999.0" lat="-999.0"><ele>0.0</ele><time>2019-09-10T17:48:53.000Z</time></trkpt><trkpt lon="-999.0" lat="-999.0"><ele>0.0</ele><time>2019-09-10T17:48:54.000Z</time></trkpt><trkpt lon="-999.0" lat="-999.0"><ele>0.0</ele><time>2019-09-10T17:48:55.000Z</time></trkpt><trkpt lon="-999.0" lat="-999.0"><ele>0.0</ele><time>2019-09-10T17:48:56.000Z</time></trkpt><trkpt lon="-999.0" lat="-999.0"><ele>0.0</ele><time>2019-09-10T17:48:57.000Z</time></trkpt><trkpt lon="-999.0" lat="-999.0"><ele>0.0</ele><time>2019-09-10T17:48:58.000Z</time></trkpt><trkpt lon="-999.0" lat="-999.0"><ele>0.0</ele><time>2019-09-10T17:48:59.000Z</time></trkpt><trkpt lon="-999.0" lat="-999.0"><ele>0.0</ele><time>2019-09-10T17:49:00.000Z</time></trkpt><trkpt lon="-999.0" lat="-999.0"><ele>0.0</ele><time>2019-09-10T17:49:01.000Z</time></trkpt><trkpt lon="-999.0" lat="-999.0"><ele>0.0</ele><time>2019-09-10T17:49:02.000Z</time></trkpt><trkpt lon="-999.0" lat="-999.0"><ele>0.0</ele><time>2019-09-10T17:49:03.000Z</time></trkpt><trkpt lon="15.6456317" lat="46.4989626"><ele>345</ele><time>2019-09-10T17:49:04.000Z</time></trkpt><trkpt lon="15.6456317" lat="46.4989626"><ele>345</ele><time>2019-09-10T17:49:05.000Z</time></trkpt><trkpt lon="15.6456317" lat="46.4989626"><ele>345</ele><time>2019-09-10T17:49:06.000Z</time></trkpt><trkpt lon="-999.0" lat="-999.0"><ele>0.0</ele><time>2019-09-10T17:49:07.000Z</time></trkpt><trkpt lon="-999.0" lat="-999.0"><ele>0.0</ele><time>2019-09-10T17:49:08.000Z</time></trkpt><trkpt lon="-999.0" lat="-999.0"><ele>0.0</ele><time>2019-09-10T17:49:09.000Z</time></trkpt><trkpt lon="-999.0" lat="-999.0"><ele>0.0</ele><time>2019-09-10T17:49:10.000Z</time></trkpt><trkpt lon="-999.0" lat="-999.0"><ele>0.0</ele><time>2019-09-10T17:49:11.000Z</time></trkpt><trkpt lon="-999.0" lat="-999.0"><ele>0.0</ele><time>2019-09-10T17:49:12.000Z</time></trkpt><trkpt lon="-999.0" lat="-999.0"><ele>0.0</ele><time>2019-09-10T17:49:13.000Z</time></trkpt><trkpt lon="-999.0" lat="-999.0"><ele>0.0</ele><time>2019-09-10T17:49:14.000Z</time></trkpt><trkpt lon="-999.0" lat="-999.0"><ele>0.0</ele><time>2019-09-10T17:49:15.000Z</time></trkpt><trkpt lon="-999.0" lat="-999.0"><ele>0.0</ele><time>2019-09-10T17:49:16.000Z</time></trkpt><trkpt lon="-999.0" lat="-999.0"><ele>0.0</ele><time>2019-09-10T17:49:17.000Z</time></trkpt><trkpt lon="-999.0" lat="-999.0"><ele>0.0</ele><time>2019-09-10T17:49:18.000Z</time></trkpt><trkpt lon="-999.0" lat="-999.0"><ele>0.0</ele><time>2019-09-10T17:49:19.000Z</time></trkpt><trkpt lon="-999.0" lat="-999.0"><ele>0.0</ele><time>2019-09-10T17:49:20.000Z</time></trkpt><trkpt lon="-999.0" lat="-999.0"><ele>0.0</ele><time>2019-09-10T17:49:21.000Z</time></trkpt><trkpt lon="-999.0" lat="-999.0"><ele>0.0</ele><time>2019-09-10T17:49:22.000Z</time></trkpt><trkpt lon="-999.0" lat="-999.0"><ele>0.0</ele><time>2019-09-10T17:49:23.000Z</time></trkpt><trkpt lon="-999.0" lat="-999.0"><ele>0.0</ele><time>2019-09-10T17:49:24.000Z</time></trkpt><trkpt lon="-999.0" lat="-999.0"><ele>0.0</ele><time>2019-09-10T17:49:25.000Z</time></trkpt><trkpt lon="-999.0" lat="-999.0"><ele>0.0</ele><time>2019-09-10T17:49:26.000Z</time></trkpt><trkpt lon="-999.0" lat="-999.0"><ele>0.0</ele><time>2019-09-10T17:49:27.000Z</time></trkpt><trkpt lon="-999.0" lat="-999.0"><ele>0.0</ele><time>2019-09-10T17:49:28.000Z</time></trkpt><trkpt lon="-999.0" lat="-999.0"><ele>0.0</ele><time>2019-09-10T17:49:29.000Z</time></trkpt><trkpt lon="-999.0" lat="-999.0"><ele>0.0</ele><time>2019-09-10T17:49:30.000Z</time></trkpt><trkpt lon="-999.0" lat="-999.0"><ele>0.0</ele><time>2019-09-10T17:49:31.000Z</time></trkpt><trkpt lon="-999.0" lat="-999.0"><ele>0.0</ele><time>2019-09-10T17:49:32.000Z</time></trkpt><trkpt lon="-999.0" lat="-999.0"><ele>0.0</ele><time>2019-09-10T17:49:33.000Z</time></trkpt><trkpt lon="-999.0" lat="-999.0"><ele>0.0</ele><time>2019-09-10T17:49:34.000Z</time></trkpt><trkpt lon="-999.0" lat="-999.0"><ele>0.0</ele><time>2019-09-10T17:49:35.000Z</time></trkpt><trkpt lon="-999.0" lat="-999.0"><ele>0.0</ele><time>2019-09-10T17:49:36.000Z</time></trkpt><trkpt lon="-999.0" lat="-999.0"><ele>0.0</ele><time>2019-09-10T17:49:37.000Z</time></trkpt><trkpt lon="-999.0" lat="-999.0"><ele>0.0</ele><time>2019-09-10T17:49:38.000Z</time></trkpt><trkpt lon="-999.0" lat="-999.0"><ele>0.0</ele><time>2019-09-10T17:49:39.000Z</time></trkpt><trkpt lon="-999.0" lat="-999.0"><ele>0.0</ele><time>2019-09-10T17:49:40.000Z</time></trkpt><trkpt lon="-999.0" lat="-999.0"><ele>0.0</ele><time>2019-09-10T17:49:41.000Z</time></trkpt><trkpt lon="-999.0" lat="-999.0"><ele>0.0</ele><time>2019-09-10T17:49:42.000Z</time></trkpt><trkpt lon="-999.0" lat="-999.0"><ele>0.0</ele><time>2019-09-10T17:49:43.000Z</time></trkpt><trkpt lon="-999.0" lat="-999.0"><ele>0.0</ele><time>2019-09-10T17:49:44.000Z</time></trkpt><trkpt lon="-999.0" lat="-999.0"><ele>0.0</ele><time>2019-09-10T17:49:45.000Z</time></trkpt><trkpt lon="-999.0" lat="-999.0"><ele>0.0</ele><time>2019-09-10T17:49:46.000Z</time></trkpt><trkpt lon="-999.0" lat="-999.0"><ele>0.0</ele><time>2019-09-10T17:49:47.000Z</time></trkpt><trkpt lon="-999.0" lat="-999.0"><ele>0.0</ele><time>2019-09-10T17:49:48.000Z</time></trkpt><trkpt lon="-999.0" lat="-999.0"><ele>0.0</ele><time>2019-09-10T17:49:49.000Z</time></trkpt><trkpt lon="-999.0" lat="-999.0"><ele>0.0</ele><time>2019-09-10T17:49:50.000Z</time></trkpt><trkpt lon="-999.0" lat="-999.0"><ele>0.0</ele><time>2019-09-10T17:49:51.000Z</time></trkpt><trkpt lon="-999.0" lat="-999.0"><ele>0.0</ele><time>2019-09-10T17:49:52.000Z</time></trkpt><trkpt lon="-999.0" lat="-999.0"><ele>0.0</ele><time>2019-09-10T17:49:53.000Z</time></trkpt><trkpt lon="-999.0" lat="-999.0"><ele>0.0</ele><time>2019-09-10T17:49:54.000Z</time></trkpt><trkpt lon="-999.0" lat="-999.0"><ele>0.0</ele><time>2019-09-10T17:49:55.000Z</time></trkpt><trkpt lon="-999.0" lat="-999.0"><ele>0.0</ele><time>2019-09-10T17:49:56.000Z</time></trkpt><trkpt lon="-999.0" lat="-999.0"><ele>0.0</ele><time>2019-09-10T17:49:57.000Z</time></trkpt><trkpt lon="-999.0" lat="-999.0"><ele>0.0</ele><time>2019-09-10T17:49:58.000Z</time></trkpt><trkpt lon="-999.0" lat="-999.0"><ele>0.0</ele><time>2019-09-10T17:49:59.000Z</time></trkpt><trkpt lon="-999.0" lat="-999.0"><ele>0.0</ele><time>2019-09-10T17:50:00.000Z</time></trkpt><trkpt lon="-999.0" lat="-999.0"><ele>0.0</ele><time>2019-09-10T17:50:01.000Z</time></trkpt><trkpt lon="-999.0" lat="-999.0"><ele>0.0</ele><time>2019-09-10T17:50:02.000Z</time></trkpt><trkpt lon="-999.0" lat="-999.0"><ele>0.0</ele><time>2019-09-10T17:50:03.000Z</time></trkpt><trkpt lon="-999.0" lat="-999.0"><ele>0.0</ele><time>2019-09-10T17:50:04.000Z</time></trkpt><trkpt lon="-999.0" lat="-999.0"><ele>0.0</ele><time>2019-09-10T17:50:05.000Z</time></trkpt><trkpt lon="-999.0" lat="-999.0"><ele>0.0</ele><time>2019-09-10T17:50:06.000Z</time></trkpt><trkpt lon="-999.0" lat="-999.0"><ele>0.0</ele><time>2019-09-10T17:50:07.000Z</time></trkpt><trkpt lon="-999.0" lat="-999.0"><ele>0.0</ele><time>2019-09-10T17:50:08.000Z</time></trkpt><trkpt lon="-999.0" lat="-999.0"><ele>0.0</ele><time>2019-09-10T17:50:09.000Z</time></trkpt><trkpt lon="-999.0" lat="-999.0"><ele>0.0</ele><time>2019-09-10T17:50:10.000Z</time></trkpt><trkpt lon="-999.0" lat="-999.0"><ele>0.0</ele><time>2019-09-10T17:50:11.000Z</time></trkpt><trkpt lon="-999.0" lat="-999.0"><ele>0.0</ele><time>2019-09-10T17:50:12.000Z</time></trkpt><trkpt lon="-999.0" lat="-999.0"><ele>0.0</ele><time>2019-09-10T17:50:13.000Z</time></trkpt><trkpt lon="-999.0" lat="-999.0"><ele>0.0</ele><time>2019-09-10T17:50:14.000Z</time></trkpt><trkpt lon="-999.0" lat="-999.0"><ele>0.0</ele><time>2019-09-10T17:50:15.000Z</time></trkpt><trkpt lon="-999.0" lat="-999.0"><ele>0.0</ele><time>2019-09-10T17:50:16.000Z</time></trkpt><trkpt lon="-999.0" lat="-999.0"><ele>0.0</ele><time>2019-09-10T17:50:17.000Z</time></trkpt><trkpt lon="-999.0" lat="-999.0"><ele>0.0</ele><time>2019-09-10T17:50:18.000Z</time></trkpt><trkpt lon="-999.0" lat="-999.0"><ele>0.0</ele><time>2019-09-10T17:50:19.000Z</time></trkpt><trkpt lon="-999.0" lat="-999.0"><ele>0.0</ele><time>2019-09-10T17:50:20.000Z</time></trkpt><trkpt lon="-999.0" lat="-999.0"><ele>0.0</ele><time>2019-09-10T17:50:21.000Z</time></trkpt><trkpt lon="-999.0" lat="-999.0"><ele>0.0</ele><time>2019-09-10T17:50:22.000Z</time></trkpt><trkpt lon="-999.0" lat="-999.0"><ele>0.0</ele><time>2019-09-10T17:50:23.000Z</time></trkpt><trkpt lon="-999.0" lat="-999.0"><ele>0.0</ele><time>2019-09-10T17:50:24.000Z</time></trkpt><trkpt lon="-999.0" lat="-999.0"><ele>0.0</ele><time>2019-09-10T17:50:25.000Z</time></trkpt><trkpt lon="-999.0" lat="-999.0"><ele>0.0</ele><time>2019-09-10T17:50:26.000Z</time></trkpt><trkpt lon="-999.0" lat="-999.0"><ele>0.0</ele><time>2019-09-10T17:50:27.000Z</time></trkpt><trkpt lon="-999.0" lat="-999.0"><ele>0.0</ele><time>2019-09-10T17:50:28.000Z</time></trkpt><trkpt lon="-999.0" lat="-999.0"><ele>0.0</ele><time>2019-09-10T17:50:29.000Z</time></trkpt><trkpt lon="-999.0" lat="-999.0"><ele>0.0</ele><time>2019-09-10T17:50:30.000Z</time></trkpt><trkpt lon="-999.0" lat="-999.0"><ele>0.0</ele><time>2019-09-10T17:50:31.000Z</time></trkpt><trkpt lon="-999.0" lat="-999.0"><ele>0.0</ele><time>2019-09-10T17:50:32.000Z</time></trkpt><trkpt lon="-999.0" lat="-999.0"><ele>0.0</ele><time>2019-09-10T17:50:33.000Z</time></trkpt><trkpt lon="-999.0" lat="-999.0"><ele>0.0</ele><time>2019-09-10T17:50:34.000Z</time></trkpt><trkpt lon="-999.0" lat="-999.0"><ele>0.0</ele><time>2019-09-10T17:50:35.000Z</time></trkpt><trkpt lon="-999.0" lat="-999.0"><ele>0.0</ele><time>2019-09-10T17:50:36.000Z</time></trkpt><trkpt lon="-999.0" lat="-999.0"><ele>0.0</ele><time>2019-09-10T17:50:37.000Z</time></trkpt><trkpt lon="-999.0" lat="-999.0"><ele>0.0</ele><time>2019-09-10T17:50:38.000Z</time></trkpt><trkpt lon="-999.0" lat="-999.0"><ele>0.0</ele><time>2019-09-10T17:50:39.000Z</time></trkpt><trkpt lon="-999.0" lat="-999.0"><ele>0.0</ele><time>2019-09-10T17:50:40.000Z</time></trkpt><trkpt lon="-999.0" lat="-999.0"><ele>0.0</ele><time>2019-09-10T17:50:41.000Z</time></trkpt><trkpt lon="-999.0" lat="-999.0"><ele>0.0</ele><time>2019-09-10T17:50:42.000Z</time></trkpt><trkpt lon="-999.0" lat="-999.0"><ele>0.0</ele><time>2019-09-10T17:50:43.000Z</time></trkpt><trkpt lon="-999.0" lat="-999.0"><ele>0.0</ele><time>2019-09-10T17:50:44.000Z</time></trkpt><trkpt lon="-999.0" lat="-999.0"><ele>0.0</ele><time>2019-09-10T17:50:45.000Z</time></trkpt><trkpt lon="-999.0" lat="-999.0"><ele>0.0</ele><time>2019-09-10T17:50:46.000Z</time></trkpt><trkpt lon="-999.0" lat="-999.0"><ele>0.0</ele><time>2019-09-10T17:50:47.000Z</time></trkpt><trkpt lon="-999.0" lat="-999.0"><ele>0.0</ele><time>2019-09-10T17:50:48.000Z</time></trkpt><trkpt lon="-999.0" lat="-999.0"><ele>0.0</ele><time>2019-09-10T17:50:49.000Z</time></trkpt><trkpt lon="-999.0" lat="-999.0"><ele>0.0</ele><time>2019-09-10T17:50:50.000Z</time></trkpt><trkpt lon="-999.0" lat="-999.0"><ele>0.0</ele><time>2019-09-10T17:50:51.000Z</time></trkpt><trkpt lon="-999.0" lat="-999.0"><ele>0.0</ele><time>2019-09-10T17:50:52.000Z</time></trkpt><trkpt lon="-999.0" lat="-999.0"><ele>0.0</ele><time>2019-09-10T17:50:53.000Z</time></trkpt><trkpt lon="-999.0" lat="-999.0"><ele>0.0</ele><time>2019-09-10T17:50:54.000Z</time></trkpt><trkpt lon="-999.0" lat="-999.0"><ele>0.0</ele><time>2019-09-10T17:50:55.000Z</time></trkpt><trkpt lon="-999.0" lat="-999.0"><ele>0.0</ele><time>2019-09-10T17:50:56.000Z</time></trkpt><trkpt lon="-999.0" lat="-999.0"><ele>0.0</ele><time>2019-09-10T17:50:57.000Z</time></trkpt><trkpt lon="-999.0" lat="-999.0"><ele>0.0</ele><time>2019-09-10T17:50:58.000Z</time></trkpt><trkpt lon="-999.0" lat="-999.0"><ele>0.0</ele><time>2019-09-10T17:50:59.000Z</time></trkpt><trkpt lon="-999.0" lat="-999.0"><ele>0.0</ele><time>2019-09-10T17:51:00.000Z</time></trkpt><trkpt lon="-999.0" lat="-999.0"><ele>0.0</ele><time>2019-09-10T17:51:01.000Z</time></trkpt><trkpt lon="-999.0" lat="-999.0"><ele>0.0</ele><time>2019-09-10T17:51:02.000Z</time></trkpt><trkpt lon="-999.0" lat="-999.0"><ele>0.0</ele><time>2019-09-10T17:51:03.000Z</time></trkpt><trkpt lon="-999.0" lat="-999.0"><ele>0.0</ele><time>2019-09-10T17:51:04.000Z</time></trkpt><trkpt lon="-999.0" lat="-999.0"><ele>0.0</ele><time>2019-09-10T17:51:05.000Z</time></trkpt><trkpt lon="-999.0" lat="-999.0"><ele>0.0</ele><time>2019-09-10T17:51:06.000Z</time></trkpt><trkpt lon="-999.0" lat="-999.0"><ele>0.0</ele><time>2019-09-10T17:51:07.000Z</time></trkpt><trkpt lon="-999.0" lat="-999.0"><ele>0.0</ele><time>2019-09-10T17:51:08.000Z</time></trkpt><trkpt lon="-999.0" lat="-999.0"><ele>0.0</ele><time>2019-09-10T17:51:09.000Z</time></trkpt><trkpt lon="-999.0" lat="-999.0"><ele>0.0</ele><time>2019-09-10T17:51:10.000Z</time></trkpt><trkpt lon="-999.0" lat="-999.0"><ele>0.0</ele><time>2019-09-10T17:51:11.000Z</time></trkpt><trkpt lon="-999.0" lat="-999.0"><ele>0.0</ele><time>2019-09-10T17:51:12.000Z</time></trkpt><trkpt lon="-999.0" lat="-999.0"><ele>0.0</ele><time>2019-09-10T17:51:13.000Z</time></trkpt><trkpt lon="-999.0" lat="-999.0"><ele>0.0</ele><time>2019-09-10T17:51:14.000Z</time></trkpt><trkpt lon="-999.0" lat="-999.0"><ele>0.0</ele><time>2019-09-10T17:51:15.000Z</time></trkpt><trkpt lon="-999.0" lat="-999.0"><ele>0.0</ele><time>2019-09-10T17:51:16.000Z</time></trkpt><trkpt lon="-999.0" lat="-999.0"><ele>0.0</ele><time>2019-09-10T17:51:17.000Z</time></trkpt><trkpt lon="-999.0" lat="-999.0"><ele>0.0</ele><time>2019-09-10T17:51:18.000Z</time></trkpt><trkpt lon="-999.0" lat="-999.0"><ele>0.0</ele><time>2019-09-10T17:51:19.000Z</time></trkpt><trkpt lon="-999.0" lat="-999.0"><ele>0.0</ele><time>2019-09-10T17:51:20.000Z</time></trkpt><trkpt lon="-999.0" lat="-999.0"><ele>0.0</ele><time>2019-09-10T17:51:21.000Z</time></trkpt><trkpt lon="-999.0" lat="-999.0"><ele>0.0</ele><time>2019-09-10T17:51:22.000Z</time></trkpt><trkpt lon="-999.0" lat="-999.0"><ele>0.0</ele><time>2019-09-10T17:51:23.000Z</time></trkpt><trkpt lon="-999.0" lat="-999.0"><ele>0.0</ele><time>2019-09-10T17:51:24.000Z</time></trkpt><trkpt lon="-999.0" lat="-999.0"><ele>0.0</ele><time>2019-09-10T17:51:25.000Z</time></trkpt><trkpt lon="-999.0" lat="-999.0"><ele>0.0</ele><time>2019-09-10T17:51:26.000Z</time></trkpt><trkpt lon="-999.0" lat="-999.0"><ele>0.0</ele><time>2019-09-10T17:51:27.000Z</time></trkpt><trkpt lon="-999.0" lat="-999.0"><ele>0.0</ele><time>2019-09-10T17:51:28.000Z</time></trkpt><trkpt lon="-999.0" lat="-999.0"><ele>0.0</ele><time>2019-09-10T17:51:29.000Z</time></trkpt><trkpt lon="-999.0" lat="-999.0"><ele>0.0</ele><time>2019-09-10T17:51:30.000Z</time></trkpt><trkpt lon="-999.0" lat="-999.0"><ele>0.0</ele><time>2019-09-10T17:51:31.000Z</time></trkpt><trkpt lon="-999.0" lat="-999.0"><ele>0.0</ele><time>2019-09-10T17:51:32.000Z</time></trkpt><trkpt lon="-999.0" lat="-999.0"><ele>0.0</ele><time>2019-09-10T17:51:33.000Z</time></trkpt><trkpt lon="-999.0" lat="-999.0"><ele>0.0</ele><time>2019-09-10T17:51:34.000Z</time></trkpt><trkpt lon="-999.0" lat="-999.0"><ele>0.0</ele><time>2019-09-10T17:51:35.000Z</time></trkpt><trkpt lon="-999.0" lat="-999.0"><ele>0.0</ele><time>2019-09-10T17:51:36.000Z</time></trkpt><trkpt lon="-999.0" lat="-999.0"><ele>0.0</ele><time>2019-09-10T17:51:37.000Z</time></trkpt><trkpt lon="-999.0" lat="-999.0"><ele>0.0</ele><time>2019-09-10T17:51:38.000Z</time></trkpt><trkpt lon="-999.0" lat="-999.0"><ele>0.0</ele><time>2019-09-10T17:51:39.000Z</time></trkpt><trkpt lon="-999.0" lat="-999.0"><ele>0.0</ele><time>2019-09-10T17:51:40.000Z</time></trkpt><trkpt lon="-999.0" lat="-999.0"><ele>0.0</ele><time>2019-09-10T17:51:41.000Z</time></trkpt><trkpt lon="15.645605" lat="46.4989328"><ele>344</ele><time>2019-09-10T17:51:42.000Z</time></trkpt><trkpt lon="15.645605" lat="46.4989328"><ele>344</ele><time>2019-09-10T17:51:43.000Z</time></trkpt><trkpt lon="15.645605" lat="46.4989328"><ele>344</ele><time>2019-09-10T17:51:44.000Z</time></trkpt><trkpt lon="-999.0" lat="-999.0"><ele>0.0</ele><time>2019-09-10T17:51:45.000Z</time></trkpt><trkpt lon="-999.0" lat="-999.0"><ele>0.0</ele><time>2019-09-10T17:51:46.000Z</time></trkpt><trkpt lon="-999.0" lat="-999.0"><ele>0.0</ele><time>2019-09-10T17:51:47.000Z</time></trkpt><trkpt lon="-999.0" lat="-999.0"><ele>0.0</ele><time>2019-09-10T17:51:48.000Z</time></trkpt><trkpt lon="15.6455718" lat="46.4988923"><ele>345</ele><time>2019-09-10T17:51:49.000Z</time></trkpt><trkpt lon="15.6455718" lat="46.4988923"><ele>345</ele><time>2019-09-10T17:51:50.000Z</time></trkpt><trkpt lon="15.6455718" lat="46.4988923"><ele>345</ele><time>2019-09-10T17:51:51.000Z</time></trkpt><trkpt lon="-999.0" lat="-999.0"><ele>0.0</ele><time>2019-09-10T17:51:52.000Z</time></trkpt><trkpt lon="-999.0" lat="-999.0"><ele>0.0</ele><time>2019-09-10T17:51:53.000Z</time></trkpt><trkpt lon="-999.0" lat="-999.0"><ele>0.0</ele><time>2019-09-10T17:51:54.000Z</time></trkpt><trkpt lon="-999.0" lat="-999.0"><ele>0.0</ele><time>2019-09-10T17:51:55.000Z</time></trkpt><trkpt lon="-999.0" lat="-999.0"><ele>0.0</ele><time>2019-09-10T17:51:56.000Z</time></trkpt><trkpt lon="-999.0" lat="-999.0"><ele>0.0</ele><time>2019-09-10T17:51:57.000Z</time></trkpt><trkpt lon="-999.0" lat="-999.0"><ele>0.0</ele><time>2019-09-10T17:51:58.000Z</time></trkpt><trkpt lon="15.6455328" lat="46.4988837"><ele>345</ele><time>2019-09-10T17:51:59.000Z</time></trkpt><trkpt lon="15.6455328" lat="46.4988837"><ele>345</ele><time>2019-09-10T17:52:00.000Z</time></trkpt><trkpt lon="15.6455328" lat="46.4988837"><ele>345</ele><time>2019-09-10T17:52:01.000Z</time></trkpt><trkpt lon="-999.0" lat="-999.0"><ele>0.0</ele><time>2019-09-10T17:52:02.000Z</time></trkpt><trkpt lon="-999.0" lat="-999.0"><ele>0.0</ele><time>2019-09-10T17:52:03.000Z</time></trkpt><trkpt lon="-999.0" lat="-999.0"><ele>0.0</ele><time>2019-09-10T17:52:04.000Z</time></trkpt><trkpt lon="-999.0" lat="-999.0"><ele>0.0</ele><time>2019-09-10T17:52:05.000Z</time></trkpt><trkpt lon="-999.0" lat="-999.0"><ele>0.0</ele><time>2019-09-10T17:52:06.000Z</time></trkpt><trkpt lon="-999.0" lat="-999.0"><ele>0.0</ele><time>2019-09-10T17:52:07.000Z</time></trkpt><trkpt lon="-999.0" lat="-999.0"><ele>0.0</ele><time>2019-09-10T17:52:08.000Z</time></trkpt><trkpt lon="-999.0" lat="-999.0"><ele>0.0</ele><time>2019-09-10T17:52:09.000Z</time></trkpt><trkpt lon="-999.0" lat="-999.0"><ele>0.0</ele><time>2019-09-10T17:52:10.000Z</time></trkpt><trkpt lon="-999.0" lat="-999.0"><ele>0.0</ele><time>2019-09-10T17:52:11.000Z</time></trkpt><trkpt lon="-999.0" lat="-999.0"><ele>0.0</ele><time>2019-09-10T17:52:12.000Z</time></trkpt><trkpt lon="-999.0" lat="-999.0"><ele>0.0</ele><time>2019-09-10T17:52:13.000Z</time></trkpt><trkpt lon="-999.0" lat="-999.0"><ele>0.0</ele><time>2019-09-10T17:52:14.000Z</time></trkpt><trkpt lon="-999.0" lat="-999.0"><ele>0.0</ele><time>2019-09-10T17:52:15.000Z</time></trkpt><trkpt lon="-999.0" lat="-999.0"><ele>0.0</ele><time>2019-09-10T17:52:16.000Z</time></trkpt><trkpt lon="-999.0" lat="-999.0"><ele>0.0</ele><time>2019-09-10T17:52:17.000Z</time></trkpt><trkpt lon="-999.0" lat="-999.0"><ele>0.0</ele><time>2019-09-10T17:52:18.000Z</time></trkpt><trkpt lon="-999.0" lat="-999.0"><ele>0.0</ele><time>2019-09-10T17:52:19.000Z</time></trkpt><trkpt lon="-999.0" lat="-999.0"><ele>0.0</ele><time>2019-09-10T17:52:20.000Z</time></trkpt><trkpt lon="-999.0" lat="-999.0"><ele>0.0</ele><time>2019-09-10T17:52:21.000Z</time></trkpt><trkpt lon="-999.0" lat="-999.0"><ele>0.0</ele><time>2019-09-10T17:52:22.000Z</time></trkpt><trkpt lon="-999.0" lat="-999.0"><ele>0.0</ele><time>2019-09-10T17:52:23.000Z</time></trkpt><trkpt lon="-999.0" lat="-999.0"><ele>0.0</ele><time>2019-09-10T17:52:24.000Z</time></trkpt><trkpt lon="-999.0" lat="-999.0"><ele>0.0</ele><time>2019-09-10T17:52:25.000Z</time></trkpt><trkpt lon="-999.0" lat="-999.0"><ele>0.0</ele><time>2019-09-10T17:52:26.000Z</time></trkpt><trkpt lon="-999.0" lat="-999.0"><ele>0.0</ele><time>2019-09-10T17:52:27.000Z</time></trkpt><trkpt lon="-999.0" lat="-999.0"><ele>0.0</ele><time>2019-09-10T17:52:28.000Z</time></trkpt><trkpt lon="-999.0" lat="-999.0"><ele>0.0</ele><time>2019-09-10T17:52:29.000Z</time></trkpt><trkpt lon="-999.0" lat="-999.0"><ele>0.0</ele><time>2019-09-10T17:52:30.000Z</time></trkpt><trkpt lon="-999.0" lat="-999.0"><ele>0.0</ele><time>2019-09-10T17:52:31.000Z</time></trkpt><trkpt lon="-999.0" lat="-999.0"><ele>0.0</ele><time>2019-09-10T17:52:32.000Z</time></trkpt><trkpt lon="-999.0" lat="-999.0"><ele>0.0</ele><time>2019-09-10T17:52:33.000Z</time></trkpt><trkpt lon="-999.0" lat="-999.0"><ele>0.0</ele><time>2019-09-10T17:52:34.000Z</time></trkpt><trkpt lon="-999.0" lat="-999.0"><ele>0.0</ele><time>2019-09-10T17:52:35.000Z</time></trkpt><trkpt lon="-999.0" lat="-999.0"><ele>0.0</ele><time>2019-09-10T17:52:36.000Z</time></trkpt><trkpt lon="-999.0" lat="-999.0"><ele>0.0</ele><time>2019-09-10T17:52:37.000Z</time></trkpt><trkpt lon="-999.0" lat="-999.0"><ele>0.0</ele><time>2019-09-10T17:52:38.000Z</time></trkpt><trkpt lon="-999.0" lat="-999.0"><ele>0.0</ele><time>2019-09-10T17:52:39.000Z</time></trkpt><trkpt lon="-999.0" lat="-999.0"><ele>0.0</ele><time>2019-09-10T17:52:40.000Z</time></trkpt><trkpt lon="-999.0" lat="-999.0"><ele>0.0</ele><time>2019-09-10T17:52:41.000Z</time></trkpt><trkpt lon="-999.0" lat="-999.0"><ele>0.0</ele><time>2019-09-10T17:52:42.000Z</time></trkpt><trkpt lon="-999.0" lat="-999.0"><ele>0.0</ele><time>2019-09-10T17:52:43.000Z</time></trkpt><trkpt lon="-999.0" lat="-999.0"><ele>0.0</ele><time>2019-09-10T17:52:44.000Z</time></trkpt><trkpt lon="-999.0" lat="-999.0"><ele>0.0</ele><time>2019-09-10T17:52:45.000Z</time></trkpt><trkpt lon="-999.0" lat="-999.0"><ele>0.0</ele><time>2019-09-10T17:52:46.000Z</time></trkpt><trkpt lon="15.6455725" lat="46.4988795"><ele>344</ele><time>2019-09-10T17:52:47.000Z</time></trkpt><trkpt lon="15.6455725" lat="46.4988795"><ele>344</ele><time>2019-09-10T17:52:48.000Z</time></trkpt><trkpt lon="15.6455725" lat="46.4988795"><ele>344</ele><time>2019-09-10T17:52:49.000Z</time></trkpt><trkpt lon="-999.0" lat="-999.0"><ele>0.0</ele><time>2019-09-10T17:52:50.000Z</time></trkpt><trkpt lon="-999.0" lat="-999.0"><ele>0.0</ele><time>2019-09-10T17:52:51.000Z</time></trkpt><trkpt lon="-999.0" lat="-999.0"><ele>0.0</ele><time>2019-09-10T17:52:52.000Z</time></trkpt><trkpt lon="-999.0" lat="-999.0"><ele>0.0</ele><time>2019-09-10T17:52:53.000Z</time></trkpt><trkpt lon="-999.0" lat="-999.0"><ele>0.0</ele><time>2019-09-10T17:52:54.000Z</time></trkpt><trkpt lon="-999.0" lat="-999.0"><ele>0.0</ele><time>2019-09-10T17:52:55.000Z</time></trkpt><trkpt lon="-999.0" lat="-999.0"><ele>0.0</ele><time>2019-09-10T17:52:56.000Z</time></trkpt><trkpt lon="-999.0" lat="-999.0"><ele>0.0</ele><time>2019-09-10T17:52:57.000Z</time></trkpt><trkpt lon="-999.0" lat="-999.0"><ele>0.0</ele><time>2019-09-10T17:52:58.000Z</time></trkpt><trkpt lon="-999.0" lat="-999.0"><ele>0.0</ele><time>2019-09-10T17:52:59.000Z</time></trkpt><trkpt lon="-999.0" lat="-999.0"><ele>0.0</ele><time>2019-09-10T17:53:00.000Z</time></trkpt><trkpt lon="-999.0" lat="-999.0"><ele>0.0</ele><time>2019-09-10T17:53:01.000Z</time></trkpt><trkpt lon="-999.0" lat="-999.0"><ele>0.0</ele><time>2019-09-10T17:53:02.000Z</time></trkpt><trkpt lon="-999.0" lat="-999.0"><ele>0.0</ele><time>2019-09-10T17:53:03.000Z</time></trkpt><trkpt lon="-999.0" lat="-999.0"><ele>0.0</ele><time>2019-09-10T17:53:04.000Z</time></trkpt><trkpt lon="-999.0" lat="-999.0"><ele>0.0</ele><time>2019-09-10T17:53:05.000Z</time></trkpt><trkpt lon="-999.0" lat="-999.0"><ele>0.0</ele><time>2019-09-10T17:53:06.000Z</time></trkpt><trkpt lon="-999.0" lat="-999.0"><ele>0.0</ele><time>2019-09-10T17:53:07.000Z</time></trkpt><trkpt lon="-999.0" lat="-999.0"><ele>0.0</ele><time>2019-09-10T17:53:08.000Z</time></trkpt><trkpt lon="-999.0" lat="-999.0"><ele>0.0</ele><time>2019-09-10T17:53:09.000Z</time></trkpt><trkpt lon="-999.0" lat="-999.0"><ele>0.0</ele><time>2019-09-10T17:53:10.000Z</time></trkpt><trkpt lon="-999.0" lat="-999.0"><ele>0.0</ele><time>2019-09-10T17:53:11.000Z</time></trkpt><trkpt lon="-999.0" lat="-999.0"><ele>0.0</ele><time>2019-09-10T17:53:12.000Z</time></trkpt><trkpt lon="-999.0" lat="-999.0"><ele>0.0</ele><time>2019-09-10T17:53:13.000Z</time></trkpt><trkpt lon="-999.0" lat="-999.0"><ele>0.0</ele><time>2019-09-10T17:53:14.000Z</time></trkpt><trkpt lon="-999.0" lat="-999.0"><ele>0.0</ele><time>2019-09-10T17:53:15.000Z</time></trkpt><trkpt lon="-999.0" lat="-999.0"><ele>0.0</ele><time>2019-09-10T17:53:16.000Z</time></trkpt><trkpt lon="-999.0" lat="-999.0"><ele>0.0</ele><time>2019-09-10T17:53:17.000Z</time></trkpt><trkpt lon="-999.0" lat="-999.0"><ele>0.0</ele><time>2019-09-10T17:53:18.000Z</time></trkpt><trkpt lon="-999.0" lat="-999.0"><ele>0.0</ele><time>2019-09-10T17:53:19.000Z</time></trkpt><trkpt lon="15.6456133" lat="46.4988878"><ele>344</ele><time>2019-09-10T17:53:20.000Z</time></trkpt><trkpt lon="15.6456133" lat="46.4988878"><ele>344</ele><time>2019-09-10T17:53:21.000Z</time></trkpt><trkpt lon="15.6456133" lat="46.4988878"><ele>344</ele><time>2019-09-10T17:53:22.000Z</time></trkpt><trkpt lon="15.6456133" lat="46.4988878"><ele>344</ele><time>2019-09-10T17:53:23.000Z</time></trkpt><trkpt lon="-999.0" lat="-999.0"><ele>0.0</ele><time>2019-09-10T17:53:24.000Z</time></trkpt><trkpt lon="-999.0" lat="-999.0"><ele>0.0</ele><time>2019-09-10T17:53:25.000Z</time></trkpt><trkpt lon="-999.0" lat="-999.0"><ele>0.0</ele><time>2019-09-10T17:53:26.000Z</time></trkpt><trkpt lon="-999.0" lat="-999.0"><ele>0.0</ele><time>2019-09-10T17:53:27.000Z</time></trkpt><trkpt lon="-999.0" lat="-999.0"><ele>0.0</ele><time>2019-09-10T17:53:28.000Z</time></trkpt><trkpt lon="-999.0" lat="-999.0"><ele>0.0</ele><time>2019-09-10T17:53:29.000Z</time></trkpt><trkpt lon="-999.0" lat="-999.0"><ele>0.0</ele><time>2019-09-10T17:53:30.000Z</time></trkpt><trkpt lon="-999.0" lat="-999.0"><ele>0.0</ele><time>2019-09-10T17:53:31.000Z</time></trkpt><trkpt lon="-999.0" lat="-999.0"><ele>0.0</ele><time>2019-09-10T17:53:32.000Z</time></trkpt><trkpt lon="-999.0" lat="-999.0"><ele>0.0</ele><time>2019-09-10T17:53:33.000Z</time></trkpt><trkpt lon="-999.0" lat="-999.0"><ele>0.0</ele><time>2019-09-10T17:53:34.000Z</time></trkpt><trkpt lon="-999.0" lat="-999.0"><ele>0.0</ele><time>2019-09-10T17:53:35.000Z</time></trkpt><trkpt lon="-999.0" lat="-999.0"><ele>0.0</ele><time>2019-09-10T17:53:36.000Z</time></trkpt><trkpt lon="-999.0" lat="-999.0"><ele>0.0</ele><time>2019-09-10T17:53:37.000Z</time></trkpt><trkpt lon="-999.0" lat="-999.0"><ele>0.0</ele><time>2019-09-10T17:53:38.000Z</time></trkpt><trkpt lon="-999.0" lat="-999.0"><ele>0.0</ele><time>2019-09-10T17:53:39.000Z</time></trkpt><trkpt lon="-999.0" lat="-999.0"><ele>0.0</ele><time>2019-09-10T17:53:40.000Z</time></trkpt><trkpt lon="-999.0" lat="-999.0"><ele>0.0</ele><time>2019-09-10T17:53:41.000Z</time></trkpt><trkpt lon="-999.0" lat="-999.0"><ele>0.0</ele><time>2019-09-10T17:53:42.000Z</time></trkpt><trkpt lon="-999.0" lat="-999.0"><ele>0.0</ele><time>2019-09-10T17:53:43.000Z</time></trkpt><trkpt lon="-999.0" lat="-999.0"><ele>0.0</ele><time>2019-09-10T17:53:44.000Z</time></trkpt><trkpt lon="-999.0" lat="-999.0"><ele>0.0</ele><time>2019-09-10T17:53:45.000Z</time></trkpt><trkpt lon="-999.0" lat="-999.0"><ele>0.0</ele><time>2019-09-10T17:53:46.000Z</time></trkpt><trkpt lon="-999.0" lat="-999.0"><ele>0.0</ele><time>2019-09-10T17:53:47.000Z</time></trkpt><trkpt lon="-999.0" lat="-999.0"><ele>0.0</ele><time>2019-09-10T17:53:48.000Z</time></trkpt><trkpt lon="-999.0" lat="-999.0"><ele>0.0</ele><time>2019-09-10T17:53:49.000Z</time></trkpt><trkpt lon="-999.0" lat="-999.0"><ele>0.0</ele><time>2019-09-10T17:53:50.000Z</time></trkpt><trkpt lon="-999.0" lat="-999.0"><ele>0.0</ele><time>2019-09-10T17:53:51.000Z</time></trkpt><trkpt lon="-999.0" lat="-999.0"><ele>0.0</ele><time>2019-09-10T17:53:52.000Z</time></trkpt><trkpt lon="-999.0" lat="-999.0"><ele>0.0</ele><time>2019-09-10T17:53:53.000Z</time></trkpt><trkpt lon="-999.0" lat="-999.0"><ele>0.0</ele><time>2019-09-10T17:53:54.000Z</time></trkpt><trkpt lon="-999.0" lat="-999.0"><ele>0.0</ele><time>2019-09-10T17:53:55.000Z</time></trkpt><trkpt lon="-999.0" lat="-999.0"><ele>0.0</ele><time>2019-09-10T17:53:56.000Z</time></trkpt><trkpt lon="-999.0" lat="-999.0"><ele>0.0</ele><time>2019-09-10T17:53:57.000Z</time></trkpt><trkpt lon="-999.0" lat="-999.0"><ele>0.0</ele><time>2019-09-10T17:53:58.000Z</time></trkpt><trkpt lon="-999.0" lat="-999.0"><ele>0.0</ele><time>2019-09-10T17:53:59.000Z</time></trkpt><trkpt lon="-999.0" lat="-999.0"><ele>0.0</ele><time>2019-09-10T17:54:00.000Z</time></trkpt><trkpt lon="-999.0" lat="-999.0"><ele>0.0</ele><time>2019-09-10T17:54:01.000Z</time></trkpt><trkpt lon="-999.0" lat="-999.0"><ele>0.0</ele><time>2019-09-10T17:54:02.000Z</time></trkpt><trkpt lon="-999.0" lat="-999.0"><ele>0.0</ele><time>2019-09-10T17:54:03.000Z</time></trkpt><trkpt lon="-999.0" lat="-999.0"><ele>0.0</ele><time>2019-09-10T17:54:04.000Z</time></trkpt><trkpt lon="-999.0" lat="-999.0"><ele>0.0</ele><time>2019-09-10T17:54:05.000Z</time></trkpt><trkpt lon="-999.0" lat="-999.0"><ele>0.0</ele><time>2019-09-10T17:54:06.000Z</time></trkpt><trkpt lon="-999.0" lat="-999.0"><ele>0.0</ele><time>2019-09-10T17:54:07.000Z</time></trkpt><trkpt lon="-999.0" lat="-999.0"><ele>0.0</ele><time>2019-09-10T17:54:08.000Z</time></trkpt><trkpt lon="-999.0" lat="-999.0"><ele>0.0</ele><time>2019-09-10T17:54:09.000Z</time></trkpt><trkpt lon="-999.0" lat="-999.0"><ele>0.0</ele><time>2019-09-10T17:54:10.000Z</time></trkpt><trkpt lon="-999.0" lat="-999.0"><ele>0.0</ele><time>2019-09-10T17:54:11.000Z</time></trkpt><trkpt lon="-999.0" lat="-999.0"><ele>0.0</ele><time>2019-09-10T17:54:12.000Z</time></trkpt><trkpt lon="-999.0" lat="-999.0"><ele>0.0</ele><time>2019-09-10T17:54:13.000Z</time></trkpt><trkpt lon="-999.0" lat="-999.0"><ele>0.0</ele><time>2019-09-10T17:54:14.000Z</time></trkpt><trkpt lon="-999.0" lat="-999.0"><ele>0.0</ele><time>2019-09-10T17:54:15.000Z</time></trkpt><trkpt lon="-999.0" lat="-999.0"><ele>0.0</ele><time>2019-09-10T17:54:16.000Z</time></trkpt><trkpt lon="-999.0" lat="-999.0"><ele>0.0</ele><time>2019-09-10T17:54:17.000Z</time></trkpt><trkpt lon="-999.0" lat="-999.0"><ele>0.0</ele><time>2019-09-10T17:54:18.000Z</time></trkpt><trkpt lon="-999.0" lat="-999.0"><ele>0.0</ele><time>2019-09-10T17:54:19.000Z</time></trkpt><trkpt lon="-999.0" lat="-999.0"><ele>0.0</ele><time>2019-09-10T17:54:20.000Z</time></trkpt><trkpt lon="-999.0" lat="-999.0"><ele>0.0</ele><time>2019-09-10T17:54:21.000Z</time></trkpt><trkpt lon="-999.0" lat="-999.0"><ele>0.0</ele><time>2019-09-10T17:54:22.000Z</time></trkpt><trkpt lon="-999.0" lat="-999.0"><ele>0.0</ele><time>2019-09-10T17:54:23.000Z</time></trkpt><trkpt lon="-999.0" lat="-999.0"><ele>0.0</ele><time>2019-09-10T17:54:24.000Z</time></trkpt><trkpt lon="-999.0" lat="-999.0"><ele>0.0</ele><time>2019-09-10T17:54:25.000Z</time></trkpt><trkpt lon="-999.0" lat="-999.0"><ele>0.0</ele><time>2019-09-10T17:54:26.000Z</time></trkpt><trkpt lon="-999.0" lat="-999.0"><ele>0.0</ele><time>2019-09-10T17:54:27.000Z</time></trkpt><trkpt lon="-999.0" lat="-999.0"><ele>0.0</ele><time>2019-09-10T17:54:28.000Z</time></trkpt><trkpt lon="-999.0" lat="-999.0"><ele>0.0</ele><time>2019-09-10T17:54:29.000Z</time></trkpt><trkpt lon="-999.0" lat="-999.0"><ele>0.0</ele><time>2019-09-10T17:54:30.000Z</time></trkpt><trkpt lon="-999.0" lat="-999.0"><ele>0.0</ele><time>2019-09-10T17:54:31.000Z</time></trkpt><trkpt lon="-999.0" lat="-999.0"><ele>0.0</ele><time>2019-09-10T17:54:32.000Z</time></trkpt><trkpt lon="-999.0" lat="-999.0"><ele>0.0</ele><time>2019-09-10T17:54:33.000Z</time></trkpt><trkpt lon="-999.0" lat="-999.0"><ele>0.0</ele><time>2019-09-10T17:54:34.000Z</time></trkpt><trkpt lon="-999.0" lat="-999.0"><ele>0.0</ele><time>2019-09-10T17:54:35.000Z</time></trkpt><trkpt lon="-999.0" lat="-999.0"><ele>0.0</ele><time>2019-09-10T17:54:36.000Z</time></trkpt><trkpt lon="-999.0" lat="-999.0"><ele>0.0</ele><time>2019-09-10T17:54:37.000Z</time></trkpt><trkpt lon="-999.0" lat="-999.0"><ele>0.0</ele><time>2019-09-10T17:54:38.000Z</time></trkpt><trkpt lon="-999.0" lat="-999.0"><ele>0.0</ele><time>2019-09-10T17:54:39.000Z</time></trkpt><trkpt lon="-999.0" lat="-999.0"><ele>0.0</ele><time>2019-09-10T17:54:40.000Z</time></trkpt><trkpt lon="-999.0" lat="-999.0"><ele>0.0</ele><time>2019-09-10T17:54:41.000Z</time></trkpt><trkpt lon="-999.0" lat="-999.0"><ele>0.0</ele><time>2019-09-10T17:54:42.000Z</time></trkpt><trkpt lon="-999.0" lat="-999.0"><ele>0.0</ele><time>2019-09-10T17:54:43.000Z</time></trkpt><trkpt lon="-999.0" lat="-999.0"><ele>0.0</ele><time>2019-09-10T17:54:44.000Z</time></trkpt><trkpt lon="-999.0" lat="-999.0"><ele>0.0</ele><time>2019-09-10T17:54:45.000Z</time></trkpt><trkpt lon="-999.0" lat="-999.0"><ele>0.0</ele><time>2019-09-10T17:54:46.000Z</time></trkpt><trkpt lon="-999.0" lat="-999.0"><ele>0.0</ele><time>2019-09-10T17:54:47.000Z</time></trkpt><trkpt lon="-999.0" lat="-999.0"><ele>0.0</ele><time>2019-09-10T17:54:48.000Z</time></trkpt><trkpt lon="-999.0" lat="-999.0"><ele>0.0</ele><time>2019-09-10T17:54:49.000Z</time></trkpt><trkpt lon="-999.0" lat="-999.0"><ele>0.0</ele><time>2019-09-10T17:54:50.000Z</time></trkpt><trkpt lon="-999.0" lat="-999.0"><ele>0.0</ele><time>2019-09-10T17:54:51.000Z</time></trkpt><trkpt lon="-999.0" lat="-999.0"><ele>0.0</ele><time>2019-09-10T17:54:52.000Z</time></trkpt><trkpt lon="-999.0" lat="-999.0"><ele>0.0</ele><time>2019-09-10T17:54:53.000Z</time></trkpt><trkpt lon="-999.0" lat="-999.0"><ele>0.0</ele><time>2019-09-10T17:54:54.000Z</time></trkpt><trkpt lon="-999.0" lat="-999.0"><ele>0.0</ele><time>2019-09-10T17:54:55.000Z</time></trkpt><trkpt lon="-999.0" lat="-999.0"><ele>0.0</ele><time>2019-09-10T17:54:56.000Z</time></trkpt><trkpt lon="-999.0" lat="-999.0"><ele>0.0</ele><time>2019-09-10T17:54:57.000Z</time></trkpt><trkpt lon="-999.0" lat="-999.0"><ele>0.0</ele><time>2019-09-10T17:54:58.000Z</time></trkpt><trkpt lon="-999.0" lat="-999.0"><ele>0.0</ele><time>2019-09-10T17:54:59.000Z</time></trkpt><trkpt lon="-999.0" lat="-999.0"><ele>0.0</ele><time>2019-09-10T17:55:00.000Z</time></trkpt><trkpt lon="-999.0" lat="-999.0"><ele>0.0</ele><time>2019-09-10T17:55:01.000Z</time></trkpt><trkpt lon="-999.0" lat="-999.0"><ele>0.0</ele><time>2019-09-10T17:55:02.000Z</time></trkpt><trkpt lon="-999.0" lat="-999.0"><ele>0.0</ele><time>2019-09-10T17:55:03.000Z</time></trkpt><trkpt lon="-999.0" lat="-999.0"><ele>0.0</ele><time>2019-09-10T17:55:04.000Z</time></trkpt><trkpt lon="-999.0" lat="-999.0"><ele>0.0</ele><time>2019-09-10T17:55:05.000Z</time></trkpt><trkpt lon="-999.0" lat="-999.0"><ele>0.0</ele><time>2019-09-10T17:55:06.000Z</time></trkpt><trkpt lon="-999.0" lat="-999.0"><ele>0.0</ele><time>2019-09-10T17:55:07.000Z</time></trkpt><trkpt lon="-999.0" lat="-999.0"><ele>0.0</ele><time>2019-09-10T17:55:08.000Z</time></trkpt><trkpt lon="-999.0" lat="-999.0"><ele>0.0</ele><time>2019-09-10T17:55:09.000Z</time></trkpt><trkpt lon="-999.0" lat="-999.0"><ele>0.0</ele><time>2019-09-10T17:55:10.000Z</time></trkpt><trkpt lon="-999.0" lat="-999.0"><ele>0.0</ele><time>2019-09-10T17:55:11.000Z</time></trkpt><trkpt lon="-999.0" lat="-999.0"><ele>0.0</ele><time>2019-09-10T17:55:12.000Z</time></trkpt><trkpt lon="-999.0" lat="-999.0"><ele>0.0</ele><time>2019-09-10T17:55:13.000Z</time></trkpt><trkpt lon="-999.0" lat="-999.0"><ele>0.0</ele><time>2019-09-10T17:55:14.000Z</time></trkpt><trkpt lon="-999.0" lat="-999.0"><ele>0.0</ele><time>2019-09-10T17:55:15.000Z</time></trkpt><trkpt lon="-999.0" lat="-999.0"><ele>0.0</ele><time>2019-09-10T17:55:16.000Z</time></trkpt><trkpt lon="-999.0" lat="-999.0"><ele>0.0</ele><time>2019-09-10T17:55:17.000Z</time></trkpt><trkpt lon="-999.0" lat="-999.0"><ele>0.0</ele><time>2019-09-10T17:55:18.000Z</time></trkpt><trkpt lon="-999.0" lat="-999.0"><ele>0.0</ele><time>2019-09-10T17:55:19.000Z</time></trkpt><trkpt lon="-999.0" lat="-999.0"><ele>0.0</ele><time>2019-09-10T17:55:20.000Z</time></trkpt><trkpt lon="-999.0" lat="-999.0"><ele>0.0</ele><time>2019-09-10T17:55:21.000Z</time></trkpt><trkpt lon="-999.0" lat="-999.0"><ele>0.0</ele><time>2019-09-10T17:55:22.000Z</time></trkpt><trkpt lon="-999.0" lat="-999.0"><ele>0.0</ele><time>2019-09-10T17:55:23.000Z</time></trkpt><trkpt lon="-999.0" lat="-999.0"><ele>0.0</ele><time>2019-09-10T17:55:24.000Z</time></trkpt><trkpt lon="-999.0" lat="-999.0"><ele>0.0</ele><time>2019-09-10T17:55:25.000Z</time></trkpt><trkpt lon="-999.0" lat="-999.0"><ele>0.0</ele><time>2019-09-10T17:55:26.000Z</time></trkpt><trkpt lon="-999.0" lat="-999.0"><ele>0.0</ele><time>2019-09-10T17:55:27.000Z</time></trkpt><trkpt lon="-999.0" lat="-999.0"><ele>0.0</ele><time>2019-09-10T17:55:28.000Z</time></trkpt><trkpt lon="-999.0" lat="-999.0"><ele>0.0</ele><time>2019-09-10T17:55:29.000Z</time></trkpt><trkpt lon="-999.0" lat="-999.0"><ele>0.0</ele><time>2019-09-10T17:55:30.000Z</time></trkpt><trkpt lon="-999.0" lat="-999.0"><ele>0.0</ele><time>2019-09-10T17:55:31.000Z</time></trkpt><trkpt lon="-999.0" lat="-999.0"><ele>0.0</ele><time>2019-09-10T17:55:32.000Z</time></trkpt><trkpt lon="-999.0" lat="-999.0"><ele>0.0</ele><time>2019-09-10T17:55:33.000Z</time></trkpt><trkpt lon="-999.0" lat="-999.0"><ele>0.0</ele><time>2019-09-10T17:55:34.000Z</time></trkpt><trkpt lon="-999.0" lat="-999.0"><ele>0.0</ele><time>2019-09-10T17:55:35.000Z</time></trkpt><trkpt lon="-999.0" lat="-999.0"><ele>0.0</ele><time>2019-09-10T17:55:36.000Z</time></trkpt><trkpt lon="-999.0" lat="-999.0"><ele>0.0</ele><time>2019-09-10T17:55:37.000Z</time></trkpt><trkpt lon="-999.0" lat="-999.0"><ele>0.0</ele><time>2019-09-10T17:55:38.000Z</time></trkpt><trkpt lon="-999.0" lat="-999.0"><ele>0.0</ele><time>2019-09-10T17:55:39.000Z</time></trkpt><trkpt lon="-999.0" lat="-999.0"><ele>0.0</ele><time>2019-09-10T17:55:40.000Z</time></trkpt><trkpt lon="-999.0" lat="-999.0"><ele>0.0</ele><time>2019-09-10T17:55:41.000Z</time></trkpt><trkpt lon="-999.0" lat="-999.0"><ele>0.0</ele><time>2019-09-10T17:55:42.000Z</time></trkpt><trkpt lon="-999.0" lat="-999.0"><ele>0.0</ele><time>2019-09-10T17:55:43.000Z</time></trkpt><trkpt lon="-999.0" lat="-999.0"><ele>0.0</ele><time>2019-09-10T17:55:44.000Z</time></trkpt><trkpt lon="-999.0" lat="-999.0"><ele>0.0</ele><time>2019-09-10T17:55:45.000Z</time></trkpt><trkpt lon="-999.0" lat="-999.0"><ele>0.0</ele><time>2019-09-10T17:55:46.000Z</time></trkpt><trkpt lon="-999.0" lat="-999.0"><ele>0.0</ele><time>2019-09-10T17:55:47.000Z</time></trkpt><trkpt lon="-999.0" lat="-999.0"><ele>0.0</ele><time>2019-09-10T17:55:48.000Z</time></trkpt><trkpt lon="-999.0" lat="-999.0"><ele>0.0</ele><time>2019-09-10T17:55:49.000Z</time></trkpt><trkpt lon="-999.0" lat="-999.0"><ele>0.0</ele><time>2019-09-10T17:55:50.000Z</time></trkpt><trkpt lon="-999.0" lat="-999.0"><ele>0.0</ele><time>2019-09-10T17:55:51.000Z</time></trkpt><trkpt lon="-999.0" lat="-999.0"><ele>0.0</ele><time>2019-09-10T17:55:52.000Z</time></trkpt><trkpt lon="-999.0" lat="-999.0"><ele>0.0</ele><time>2019-09-10T17:55:53.000Z</time></trkpt><trkpt lon="-999.0" lat="-999.0"><ele>0.0</ele><time>2019-09-10T17:55:54.000Z</time></trkpt><trkpt lon="-999.0" lat="-999.0"><ele>0.0</ele><time>2019-09-10T17:55:55.000Z</time></trkpt><trkpt lon="-999.0" lat="-999.0"><ele>0.0</ele><time>2019-09-10T17:55:56.000Z</time></trkpt><trkpt lon="-999.0" lat="-999.0"><ele>0.0</ele><time>2019-09-10T17:55:57.000Z</time></trkpt><trkpt lon="-999.0" lat="-999.0"><ele>0.0</ele><time>2019-09-10T17:55:58.000Z</time></trkpt><trkpt lon="-999.0" lat="-999.0"><ele>0.0</ele><time>2019-09-10T17:55:59.000Z</time></trkpt><trkpt lon="-999.0" lat="-999.0"><ele>0.0</ele><time>2019-09-10T17:56:00.000Z</time></trkpt><trkpt lon="-999.0" lat="-999.0"><ele>0.0</ele><time>2019-09-10T17:56:01.000Z</time></trkpt><trkpt lon="-999.0" lat="-999.0"><ele>0.0</ele><time>2019-09-10T17:56:02.000Z</time></trkpt><trkpt lon="-999.0" lat="-999.0"><ele>0.0</ele><time>2019-09-10T17:56:03.000Z</time></trkpt><trkpt lon="-999.0" lat="-999.0"><ele>0.0</ele><time>2019-09-10T17:56:04.000Z</time></trkpt><trkpt lon="-999.0" lat="-999.0"><ele>0.0</ele><time>2019-09-10T17:56:05.000Z</time></trkpt><trkpt lon="-999.0" lat="-999.0"><ele>0.0</ele><time>2019-09-10T17:56:06.000Z</time></trkpt><trkpt lon="-999.0" lat="-999.0"><ele>0.0</ele><time>2019-09-10T17:56:07.000Z</time></trkpt><trkpt lon="-999.0" lat="-999.0"><ele>0.0</ele><time>2019-09-10T17:56:08.000Z</time></trkpt><trkpt lon="-999.0" lat="-999.0"><ele>0.0</ele><time>2019-09-10T17:56:09.000Z</time></trkpt><trkpt lon="-999.0" lat="-999.0"><ele>0.0</ele><time>2019-09-10T17:56:10.000Z</time></trkpt><trkpt lon="-999.0" lat="-999.0"><ele>0.0</ele><time>2019-09-10T17:56:11.000Z</time></trkpt><trkpt lon="-999.0" lat="-999.0"><ele>0.0</ele><time>2019-09-10T17:56:12.000Z</time></trkpt><trkpt lon="-999.0" lat="-999.0"><ele>0.0</ele><time>2019-09-10T17:56:13.000Z</time></trkpt><trkpt lon="-999.0" lat="-999.0"><ele>0.0</ele><time>2019-09-10T17:56:14.000Z</time></trkpt><trkpt lon="-999.0" lat="-999.0"><ele>0.0</ele><time>2019-09-10T17:56:15.000Z</time></trkpt><trkpt lon="-999.0" lat="-999.0"><ele>0.0</ele><time>2019-09-10T17:56:16.000Z</time></trkpt><trkpt lon="-999.0" lat="-999.0"><ele>0.0</ele><time>2019-09-10T17:56:17.000Z</time></trkpt><trkpt lon="-999.0" lat="-999.0"><ele>0.0</ele><time>2019-09-10T17:56:18.000Z</time></trkpt><trkpt lon="-999.0" lat="-999.0"><ele>0.0</ele><time>2019-09-10T17:56:19.000Z</time></trkpt><trkpt lon="-999.0" lat="-999.0"><ele>0.0</ele><time>2019-09-10T17:56:20.000Z</time></trkpt><trkpt lon="-999.0" lat="-999.0"><ele>0.0</ele><time>2019-09-10T17:56:21.000Z</time></trkpt><trkpt lon="-999.0" lat="-999.0"><ele>0.0</ele><time>2019-09-10T17:56:22.000Z</time></trkpt><trkpt lon="-999.0" lat="-999.0"><ele>0.0</ele><time>2019-09-10T17:56:23.000Z</time></trkpt><trkpt lon="-999.0" lat="-999.0"><ele>0.0</ele><time>2019-09-10T17:56:24.000Z</time></trkpt><trkpt lon="-999.0" lat="-999.0"><ele>0.0</ele><time>2019-09-10T17:56:25.000Z</time></trkpt><trkpt lon="-999.0" lat="-999.0"><ele>0.0</ele><time>2019-09-10T17:56:26.000Z</time></trkpt><trkpt lon="-999.0" lat="-999.0"><ele>0.0</ele><time>2019-09-10T17:56:27.000Z</time></trkpt><trkpt lon="-999.0" lat="-999.0"><ele>0.0</ele><time>2019-09-10T17:56:28.000Z</time></trkpt><trkpt lon="-999.0" lat="-999.0"><ele>0.0</ele><time>2019-09-10T17:56:29.000Z</time></trkpt><trkpt lon="-999.0" lat="-999.0"><ele>0.0</ele><time>2019-09-10T17:56:30.000Z</time></trkpt><trkpt lon="-999.0" lat="-999.0"><ele>0.0</ele><time>2019-09-10T17:56:31.000Z</time></trkpt><trkpt lon="-999.0" lat="-999.0"><ele>0.0</ele><time>2019-09-10T17:56:32.000Z</time></trkpt><trkpt lon="-999.0" lat="-999.0"><ele>0.0</ele><time>2019-09-10T17:56:33.000Z</time></trkpt><trkpt lon="-999.0" lat="-999.0"><ele>0.0</ele><time>2019-09-10T17:56:34.000Z</time></trkpt><trkpt lon="-999.0" lat="-999.0"><ele>0.0</ele><time>2019-09-10T17:56:35.000Z</time></trkpt><trkpt lon="-999.0" lat="-999.0"><ele>0.0</ele><time>2019-09-10T17:56:36.000Z</time></trkpt><trkpt lon="-999.0" lat="-999.0"><ele>0.0</ele><time>2019-09-10T17:56:37.000Z</time></trkpt><trkpt lon="-999.0" lat="-999.0"><ele>0.0</ele><time>2019-09-10T17:56:38.000Z</time></trkpt><trkpt lon="-999.0" lat="-999.0"><ele>0.0</ele><time>2019-09-10T17:56:39.000Z</time></trkpt><trkpt lon="-999.0" lat="-999.0"><ele>0.0</ele><time>2019-09-10T17:56:40.000Z</time></trkpt><trkpt lon="-999.0" lat="-999.0"><ele>0.0</ele><time>2019-09-10T17:56:41.000Z</time></trkpt><trkpt lon="-999.0" lat="-999.0"><ele>0.0</ele><time>2019-09-10T17:56:42.000Z</time></trkpt><trkpt lon="-999.0" lat="-999.0"><ele>0.0</ele><time>2019-09-10T17:56:43.000Z</time></trkpt><trkpt lon="-999.0" lat="-999.0"><ele>0.0</ele><time>2019-09-10T17:56:44.000Z</time></trkpt><trkpt lon="-999.0" lat="-999.0"><ele>0.0</ele><time>2019-09-10T17:56:45.000Z</time></trkpt><trkpt lon="-999.0" lat="-999.0"><ele>0.0</ele><time>2019-09-10T17:56:46.000Z</time></trkpt><trkpt lon="-999.0" lat="-999.0"><ele>0.0</ele><time>2019-09-10T17:56:47.000Z</time></trkpt><trkpt lon="-999.0" lat="-999.0"><ele>0.0</ele><time>2019-09-10T17:56:48.000Z</time></trkpt><trkpt lon="-999.0" lat="-999.0"><ele>0.0</ele><time>2019-09-10T17:56:49.000Z</time></trkpt><trkpt lon="-999.0" lat="-999.0"><ele>0.0</ele><time>2019-09-10T17:56:50.000Z</time></trkpt><trkpt lon="-999.0" lat="-999.0"><ele>0.0</ele><time>2019-09-10T17:56:51.000Z</time></trkpt><trkpt lon="-999.0" lat="-999.0"><ele>0.0</ele><time>2019-09-10T17:56:52.000Z</time></trkpt><trkpt lon="-999.0" lat="-999.0"><ele>0.0</ele><time>2019-09-10T17:56:53.000Z</time></trkpt><trkpt lon="-999.0" lat="-999.0"><ele>0.0</ele><time>2019-09-10T17:56:54.000Z</time></trkpt><trkpt lon="-999.0" lat="-999.0"><ele>0.0</ele><time>2019-09-10T17:56:55.000Z</time></trkpt><trkpt lon="-999.0" lat="-999.0"><ele>0.0</ele><time>2019-09-10T17:56:56.000Z</time></trkpt><trkpt lon="-999.0" lat="-999.0"><ele>0.0</ele><time>2019-09-10T17:56:57.000Z</time></trkpt><trkpt lon="-999.0" lat="-999.0"><ele>0.0</ele><time>2019-09-10T17:56:58.000Z</time></trkpt><trkpt lon="-999.0" lat="-999.0"><ele>0.0</ele><time>2019-09-10T17:56:59.000Z</time></trkpt><trkpt lon="-999.0" lat="-999.0"><ele>0.0</ele><time>2019-09-10T17:57:00.000Z</time></trkpt><trkpt lon="-999.0" lat="-999.0"><ele>0.0</ele><time>2019-09-10T17:57:01.000Z</time></trkpt><trkpt lon="-999.0" lat="-999.0"><ele>0.0</ele><time>2019-09-10T17:57:02.000Z</time></trkpt><trkpt lon="-999.0" lat="-999.0"><ele>0.0</ele><time>2019-09-10T17:57:03.000Z</time></trkpt><trkpt lon="-999.0" lat="-999.0"><ele>0.0</ele><time>2019-09-10T17:57:04.000Z</time></trkpt><trkpt lon="-999.0" lat="-999.0"><ele>0.0</ele><time>2019-09-10T17:57:05.000Z</time></trkpt><trkpt lon="-999.0" lat="-999.0"><ele>0.0</ele><time>2019-09-10T17:57:06.000Z</time></trkpt><trkpt lon="-999.0" lat="-999.0"><ele>0.0</ele><time>2019-09-10T17:57:07.000Z</time></trkpt><trkpt lon="-999.0" lat="-999.0"><ele>0.0</ele><time>2019-09-10T17:57:08.000Z</time></trkpt><trkpt lon="-999.0" lat="-999.0"><ele>0.0</ele><time>2019-09-10T17:57:09.000Z</time></trkpt><trkpt lon="-999.0" lat="-999.0"><ele>0.0</ele><time>2019-09-10T17:57:10.000Z</time></trkpt><trkpt lon="-999.0" lat="-999.0"><ele>0.0</ele><time>2019-09-10T17:57:11.000Z</time></trkpt><trkpt lon="-999.0" lat="-999.0"><ele>0.0</ele><time>2019-09-10T17:57:12.000Z</time></trkpt><trkpt lon="-999.0" lat="-999.0"><ele>0.0</ele><time>2019-09-10T17:57:13.000Z</time></trkpt><trkpt lon="-999.0" lat="-999.0"><ele>0.0</ele><time>2019-09-10T17:57:14.000Z</time></trkpt><trkpt lon="-999.0" lat="-999.0"><ele>0.0</ele><time>2019-09-10T17:57:15.000Z</time></trkpt><trkpt lon="-999.0" lat="-999.0"><ele>0.0</ele><time>2019-09-10T17:57:16.000Z</time></trkpt><trkpt lon="-999.0" lat="-999.0"><ele>0.0</ele><time>2019-09-10T17:57:17.000Z</time></trkpt><trkpt lon="-999.0" lat="-999.0"><ele>0.0</ele><time>2019-09-10T17:57:18.000Z</time></trkpt><trkpt lon="-999.0" lat="-999.0"><ele>0.0</ele><time>2019-09-10T17:57:19.000Z</time></trkpt><trkpt lon="-999.0" lat="-999.0"><ele>0.0</ele><time>2019-09-10T17:57:20.000Z</time></trkpt><trkpt lon="-999.0" lat="-999.0"><ele>0.0</ele><time>2019-09-10T17:57:21.000Z</time></trkpt><trkpt lon="-999.0" lat="-999.0"><ele>0.0</ele><time>2019-09-10T17:57:22.000Z</time></trkpt><trkpt lon="-999.0" lat="-999.0"><ele>0.0</ele><time>2019-09-10T17:57:23.000Z</time></trkpt><trkpt lon="-999.0" lat="-999.0"><ele>0.0</ele><time>2019-09-10T17:57:24.000Z</time></trkpt><trkpt lon="-999.0" lat="-999.0"><ele>0.0</ele><time>2019-09-10T17:57:25.000Z</time></trkpt><trkpt lon="-999.0" lat="-999.0"><ele>0.0</ele><time>2019-09-10T17:57:26.000Z</time></trkpt><trkpt lon="-999.0" lat="-999.0"><ele>0.0</ele><time>2019-09-10T17:57:27.000Z</time></trkpt><trkpt lon="-999.0" lat="-999.0"><ele>0.0</ele><time>2019-09-10T17:57:28.000Z</time></trkpt><trkpt lon="-999.0" lat="-999.0"><ele>0.0</ele><time>2019-09-10T17:57:29.000Z</time></trkpt><trkpt lon="-999.0" lat="-999.0"><ele>0.0</ele><time>2019-09-10T17:57:30.000Z</time></trkpt><trkpt lon="-999.0" lat="-999.0"><ele>0.0</ele><time>2019-09-10T17:57:31.000Z</time></trkpt><trkpt lon="-999.0" lat="-999.0"><ele>0.0</ele><time>2019-09-10T17:57:32.000Z</time></trkpt><trkpt lon="-999.0" lat="-999.0"><ele>0.0</ele><time>2019-09-10T17:57:33.000Z</time></trkpt><trkpt lon="-999.0" lat="-999.0"><ele>0.0</ele><time>2019-09-10T17:57:34.000Z</time></trkpt><trkpt lon="-999.0" lat="-999.0"><ele>0.0</ele><time>2019-09-10T17:57:35.000Z</time></trkpt><trkpt lon="-999.0" lat="-999.0"><ele>0.0</ele><time>2019-09-10T17:57:36.000Z</time></trkpt><trkpt lon="-999.0" lat="-999.0"><ele>0.0</ele><time>2019-09-10T17:57:37.000Z</time></trkpt><trkpt lon="-999.0" lat="-999.0"><ele>0.0</ele><time>2019-09-10T17:57:38.000Z</time></trkpt><trkpt lon="-999.0" lat="-999.0"><ele>0.0</ele><time>2019-09-10T17:57:39.000Z</time></trkpt><trkpt lon="-999.0" lat="-999.0"><ele>0.0</ele><time>2019-09-10T17:57:40.000Z</time></trkpt><trkpt lon="-999.0" lat="-999.0"><ele>0.0</ele><time>2019-09-10T17:57:41.000Z</time></trkpt><trkpt lon="-999.0" lat="-999.0"><ele>0.0</ele><time>2019-09-10T17:57:42.000Z</time></trkpt><trkpt lon="-999.0" lat="-999.0"><ele>0.0</ele><time>2019-09-10T17:57:43.000Z</time></trkpt><trkpt lon="-999.0" lat="-999.0"><ele>0.0</ele><time>2019-09-10T17:57:44.000Z</time></trkpt><trkpt lon="-999.0" lat="-999.0"><ele>0.0</ele><time>2019-09-10T17:57:45.000Z</time></trkpt><trkpt lon="-999.0" lat="-999.0"><ele>0.0</ele><time>2019-09-10T17:57:46.000Z</time></trkpt><trkpt lon="-999.0" lat="-999.0"><ele>0.0</ele><time>2019-09-10T17:57:47.000Z</time></trkpt><trkpt lon="-999.0" lat="-999.0"><ele>0.0</ele><time>2019-09-10T17:57:48.000Z</time></trkpt><trkpt lon="-999.0" lat="-999.0"><ele>0.0</ele><time>2019-09-10T17:57:49.000Z</time></trkpt><trkpt lon="-999.0" lat="-999.0"><ele>0.0</ele><time>2019-09-10T17:57:50.000Z</time></trkpt><trkpt lon="-999.0" lat="-999.0"><ele>0.0</ele><time>2019-09-10T17:57:51.000Z</time></trkpt><trkpt lon="-999.0" lat="-999.0"><ele>0.0</ele><time>2019-09-10T17:57:52.000Z</time></trkpt><trkpt lon="-999.0" lat="-999.0"><ele>0.0</ele><time>2019-09-10T17:57:53.000Z</time></trkpt><trkpt lon="-999.0" lat="-999.0"><ele>0.0</ele><time>2019-09-10T17:57:54.000Z</time></trkpt><trkpt lon="-999.0" lat="-999.0"><ele>0.0</ele><time>2019-09-10T17:57:55.000Z</time></trkpt><trkpt lon="-999.0" lat="-999.0"><ele>0.0</ele><time>2019-09-10T17:57:56.000Z</time></trkpt><trkpt lon="-999.0" lat="-999.0"><ele>0.0</ele><time>2019-09-10T17:57:57.000Z</time></trkpt><trkpt lon="-999.0" lat="-999.0"><ele>0.0</ele><time>2019-09-10T17:57:58.000Z</time></trkpt><trkpt lon="-999.0" lat="-999.0"><ele>0.0</ele><time>2019-09-10T17:57:59.000Z</time></trkpt><trkpt lon="-999.0" lat="-999.0"><ele>0.0</ele><time>2019-09-10T17:58:00.000Z</time></trkpt><trkpt lon="-999.0" lat="-999.0"><ele>0.0</ele><time>2019-09-10T17:58:01.000Z</time></trkpt><trkpt lon="-999.0" lat="-999.0"><ele>0.0</ele><time>2019-09-10T17:58:02.000Z</time></trkpt><trkpt lon="-999.0" lat="-999.0"><ele>0.0</ele><time>2019-09-10T17:58:03.000Z</time></trkpt><trkpt lon="-999.0" lat="-999.0"><ele>0.0</ele><time>2019-09-10T17:58:04.000Z</time></trkpt><trkpt lon="-999.0" lat="-999.0"><ele>0.0</ele><time>2019-09-10T17:58:05.000Z</time></trkpt><trkpt lon="-999.0" lat="-999.0"><ele>0.0</ele><time>2019-09-10T17:58:06.000Z</time></trkpt><trkpt lon="-999.0" lat="-999.0"><ele>0.0</ele><time>2019-09-10T17:58:07.000Z</time></trkpt><trkpt lon="-999.0" lat="-999.0"><ele>0.0</ele><time>2019-09-10T17:58:08.000Z</time></trkpt><trkpt lon="-999.0" lat="-999.0"><ele>0.0</ele><time>2019-09-10T17:58:09.000Z</time></trkpt><trkpt lon="-999.0" lat="-999.0"><ele>0.0</ele><time>2019-09-10T17:58:10.000Z</time></trkpt><trkpt lon="-999.0" lat="-999.0"><ele>0.0</ele><time>2019-09-10T17:58:11.000Z</time></trkpt><trkpt lon="-999.0" lat="-999.0"><ele>0.0</ele><time>2019-09-10T17:58:12.000Z</time></trkpt><trkpt lon="-999.0" lat="-999.0"><ele>0.0</ele><time>2019-09-10T17:58:13.000Z</time></trkpt><trkpt lon="-999.0" lat="-999.0"><ele>0.0</ele><time>2019-09-10T17:58:14.000Z</time></trkpt><trkpt lon="-999.0" lat="-999.0"><ele>0.0</ele><time>2019-09-10T17:58:15.000Z</time></trkpt><trkpt lon="-999.0" lat="-999.0"><ele>0.0</ele><time>2019-09-10T17:58:16.000Z</time></trkpt><trkpt lon="-999.0" lat="-999.0"><ele>0.0</ele><time>2019-09-10T17:58:17.000Z</time></trkpt><trkpt lon="-999.0" lat="-999.0"><ele>0.0</ele><time>2019-09-10T17:58:18.000Z</time></trkpt><trkpt lon="-999.0" lat="-999.0"><ele>0.0</ele><time>2019-09-10T17:58:19.000Z</time></trkpt><trkpt lon="-999.0" lat="-999.0"><ele>0.0</ele><time>2019-09-10T17:58:20.000Z</time></trkpt><trkpt lon="-999.0" lat="-999.0"><ele>0.0</ele><time>2019-09-10T17:58:21.000Z</time></trkpt><trkpt lon="-999.0" lat="-999.0"><ele>0.0</ele><time>2019-09-10T17:58:22.000Z</time></trkpt><trkpt lon="-999.0" lat="-999.0"><ele>0.0</ele><time>2019-09-10T17:58:23.000Z</time></trkpt><trkpt lon="-999.0" lat="-999.0"><ele>0.0</ele><time>2019-09-10T17:58:24.000Z</time></trkpt><trkpt lon="-999.0" lat="-999.0"><ele>0.0</ele><time>2019-09-10T17:58:25.000Z</time></trkpt><trkpt lon="-999.0" lat="-999.0"><ele>0.0</ele><time>2019-09-10T17:58:26.000Z</time></trkpt><trkpt lon="-999.0" lat="-999.0"><ele>0.0</ele><time>2019-09-10T17:58:27.000Z</time></trkpt><trkpt lon="-999.0" lat="-999.0"><ele>0.0</ele><time>2019-09-10T17:58:28.000Z</time></trkpt><trkpt lon="-999.0" lat="-999.0"><ele>0.0</ele><time>2019-09-10T17:58:29.000Z</time></trkpt><trkpt lon="-999.0" lat="-999.0"><ele>0.0</ele><time>2019-09-10T17:58:30.000Z</time></trkpt><trkpt lon="-999.0" lat="-999.0"><ele>0.0</ele><time>2019-09-10T17:58:31.000Z</time></trkpt><trkpt lon="-999.0" lat="-999.0"><ele>0.0</ele><time>2019-09-10T17:58:32.000Z</time></trkpt><trkpt lon="-999.0" lat="-999.0"><ele>0.0</ele><time>2019-09-10T17:58:33.000Z</time></trkpt><trkpt lon="-999.0" lat="-999.0"><ele>0.0</ele><time>2019-09-10T17:58:34.000Z</time></trkpt><trkpt lon="-999.0" lat="-999.0"><ele>0.0</ele><time>2019-09-10T17:58:35.000Z</time></trkpt><trkpt lon="-999.0" lat="-999.0"><ele>0.0</ele><time>2019-09-10T17:58:36.000Z</time></trkpt><trkpt lon="-999.0" lat="-999.0"><ele>0.0</ele><time>2019-09-10T17:58:37.000Z</time></trkpt><trkpt lon="-999.0" lat="-999.0"><ele>0.0</ele><time>2019-09-10T17:58:38.000Z</time></trkpt><trkpt lon="-999.0" lat="-999.0"><ele>0.0</ele><time>2019-09-10T17:58:39.000Z</time></trkpt><trkpt lon="-999.0" lat="-999.0"><ele>0.0</ele><time>2019-09-10T17:58:40.000Z</time></trkpt><trkpt lon="-999.0" lat="-999.0"><ele>0.0</ele><time>2019-09-10T17:58:41.000Z</time></trkpt><trkpt lon="-999.0" lat="-999.0"><ele>0.0</ele><time>2019-09-10T17:58:42.000Z</time></trkpt><trkpt lon="-999.0" lat="-999.0"><ele>0.0</ele><time>2019-09-10T17:58:43.000Z</time></trkpt><trkpt lon="-999.0" lat="-999.0"><ele>0.0</ele><time>2019-09-10T17:58:44.000Z</time></trkpt><trkpt lon="-999.0" lat="-999.0"><ele>0.0</ele><time>2019-09-10T17:58:45.000Z</time></trkpt><trkpt lon="-999.0" lat="-999.0"><ele>0.0</ele><time>2019-09-10T17:58:46.000Z</time></trkpt><trkpt lon="-999.0" lat="-999.0"><ele>0.0</ele><time>2019-09-10T17:58:47.000Z</time></trkpt><trkpt lon="-999.0" lat="-999.0"><ele>0.0</ele><time>2019-09-10T17:58:48.000Z</time></trkpt><trkpt lon="-999.0" lat="-999.0"><ele>0.0</ele><time>2019-09-10T17:58:49.000Z</time></trkpt><trkpt lon="-999.0" lat="-999.0"><ele>0.0</ele><time>2019-09-10T17:58:50.000Z</time></trkpt><trkpt lon="-999.0" lat="-999.0"><ele>0.0</ele><time>2019-09-10T17:58:51.000Z</time></trkpt><trkpt lon="-999.0" lat="-999.0"><ele>0.0</ele><time>2019-09-10T17:58:52.000Z</time></trkpt><trkpt lon="-999.0" lat="-999.0"><ele>0.0</ele><time>2019-09-10T17:58:53.000Z</time></trkpt><trkpt lon="-999.0" lat="-999.0"><ele>0.0</ele><time>2019-09-10T17:58:54.000Z</time></trkpt><trkpt lon="-999.0" lat="-999.0"><ele>0.0</ele><time>2019-09-10T17:58:55.000Z</time></trkpt><trkpt lon="-999.0" lat="-999.0"><ele>0.0</ele><time>2019-09-10T17:58:56.000Z</time></trkpt><trkpt lon="-999.0" lat="-999.0"><ele>0.0</ele><time>2019-09-10T17:58:57.000Z</time></trkpt><trkpt lon="-999.0" lat="-999.0"><ele>0.0</ele><time>2019-09-10T17:58:58.000Z</time></trkpt><trkpt lon="-999.0" lat="-999.0"><ele>0.0</ele><time>2019-09-10T17:58:59.000Z</time></trkpt><trkpt lon="-999.0" lat="-999.0"><ele>0.0</ele><time>2019-09-10T17:59:00.000Z</time></trkpt><trkpt lon="-999.0" lat="-999.0"><ele>0.0</ele><time>2019-09-10T17:59:01.000Z</time></trkpt><trkpt lon="-999.0" lat="-999.0"><ele>0.0</ele><time>2019-09-10T17:59:02.000Z</time></trkpt><trkpt lon="-999.0" lat="-999.0"><ele>0.0</ele><time>2019-09-10T17:59:03.000Z</time></trkpt><trkpt lon="-999.0" lat="-999.0"><ele>0.0</ele><time>2019-09-10T17:59:04.000Z</time></trkpt><trkpt lon="-999.0" lat="-999.0"><ele>0.0</ele><time>2019-09-10T17:59:05.000Z</time></trkpt><trkpt lon="-999.0" lat="-999.0"><ele>0.0</ele><time>2019-09-10T17:59:06.000Z</time></trkpt><trkpt lon="-999.0" lat="-999.0"><ele>0.0</ele><time>2019-09-10T17:59:07.000Z</time></trkpt><trkpt lon="-999.0" lat="-999.0"><ele>0.0</ele><time>2019-09-10T17:59:08.000Z</time></trkpt><trkpt lon="-999.0" lat="-999.0"><ele>0.0</ele><time>2019-09-10T17:59:09.000Z</time></trkpt><trkpt lon="-999.0" lat="-999.0"><ele>0.0</ele><time>2019-09-10T17:59:10.000Z</time></trkpt><trkpt lon="-999.0" lat="-999.0"><ele>0.0</ele><time>2019-09-10T17:59:11.000Z</time></trkpt><trkpt lon="-999.0" lat="-999.0"><ele>0.0</ele><time>2019-09-10T17:59:12.000Z</time></trkpt><trkpt lon="-999.0" lat="-999.0"><ele>0.0</ele><time>2019-09-10T17:59:13.000Z</time></trkpt><trkpt lon="-999.0" lat="-999.0"><ele>0.0</ele><time>2019-09-10T17:59:14.000Z</time></trkpt><trkpt lon="-999.0" lat="-999.0"><ele>0.0</ele><time>2019-09-10T17:59:15.000Z</time></trkpt><trkpt lon="-999.0" lat="-999.0"><ele>0.0</ele><time>2019-09-10T17:59:16.000Z</time></trkpt><trkpt lon="-999.0" lat="-999.0"><ele>0.0</ele><time>2019-09-10T17:59:17.000Z</time></trkpt><trkpt lon="-999.0" lat="-999.0"><ele>0.0</ele><time>2019-09-10T17:59:18.000Z</time></trkpt><trkpt lon="-999.0" lat="-999.0"><ele>0.0</ele><time>2019-09-10T17:59:19.000Z</time></trkpt><trkpt lon="-999.0" lat="-999.0"><ele>0.0</ele><time>2019-09-10T17:59:20.000Z</time></trkpt><trkpt lon="-999.0" lat="-999.0"><ele>0.0</ele><time>2019-09-10T17:59:21.000Z</time></trkpt><trkpt lon="-999.0" lat="-999.0"><ele>0.0</ele><time>2019-09-10T17:59:22.000Z</time></trkpt><trkpt lon="-999.0" lat="-999.0"><ele>0.0</ele><time>2019-09-10T17:59:23.000Z</time></trkpt><trkpt lon="-999.0" lat="-999.0"><ele>0.0</ele><time>2019-09-10T17:59:24.000Z</time></trkpt><trkpt lon="-999.0" lat="-999.0"><ele>0.0</ele><time>2019-09-10T17:59:25.000Z</time></trkpt><trkpt lon="-999.0" lat="-999.0"><ele>0.0</ele><time>2019-09-10T17:59:26.000Z</time></trkpt><trkpt lon="-999.0" lat="-999.0"><ele>0.0</ele><time>2019-09-10T17:59:27.000Z</time></trkpt><trkpt lon="-999.0" lat="-999.0"><ele>0.0</ele><time>2019-09-10T17:59:28.000Z</time></trkpt><trkpt lon="-999.0" lat="-999.0"><ele>0.0</ele><time>2019-09-10T17:59:29.000Z</time></trkpt><trkpt lon="-999.0" lat="-999.0"><ele>0.0</ele><time>2019-09-10T17:59:30.000Z</time></trkpt><trkpt lon="-999.0" lat="-999.0"><ele>0.0</ele><time>2019-09-10T17:59:31.000Z</time></trkpt><trkpt lon="-999.0" lat="-999.0"><ele>0.0</ele><time>2019-09-10T17:59:32.000Z</time></trkpt><trkpt lon="-999.0" lat="-999.0"><ele>0.0</ele><time>2019-09-10T17:59:33.000Z</time></trkpt><trkpt lon="-999.0" lat="-999.0"><ele>0.0</ele><time>2019-09-10T17:59:34.000Z</time></trkpt><trkpt lon="-999.0" lat="-999.0"><ele>0.0</ele><time>2019-09-10T17:59:35.000Z</time></trkpt><trkpt lon="-999.0" lat="-999.0"><ele>0.0</ele><time>2019-09-10T17:59:36.000Z</time></trkpt><trkpt lon="-999.0" lat="-999.0"><ele>0.0</ele><time>2019-09-10T17:59:37.000Z</time></trkpt><trkpt lon="-999.0" lat="-999.0"><ele>0.0</ele><time>2019-09-10T17:59:38.000Z</time></trkpt><trkpt lon="-999.0" lat="-999.0"><ele>0.0</ele><time>2019-09-10T17:59:39.000Z</time></trkpt><trkpt lon="-999.0" lat="-999.0"><ele>0.0</ele><time>2019-09-10T17:59:40.000Z</time></trkpt><trkpt lon="-999.0" lat="-999.0"><ele>0.0</ele><time>2019-09-10T17:59:41.000Z</time></trkpt><trkpt lon="-999.0" lat="-999.0"><ele>0.0</ele><time>2019-09-10T17:59:42.000Z</time></trkpt><trkpt lon="-999.0" lat="-999.0"><ele>0.0</ele><time>2019-09-10T17:59:43.000Z</time></trkpt><trkpt lon="-999.0" lat="-999.0"><ele>0.0</ele><time>2019-09-10T17:59:44.000Z</time></trkpt><trkpt lon="-999.0" lat="-999.0"><ele>0.0</ele><time>2019-09-10T17:59:45.000Z</time></trkpt><trkpt lon="-999.0" lat="-999.0"><ele>0.0</ele><time>2019-09-10T17:59:46.000Z</time></trkpt><trkpt lon="-999.0" lat="-999.0"><ele>0.0</ele><time>2019-09-10T17:59:47.000Z</time></trkpt><trkpt lon="-999.0" lat="-999.0"><ele>0.0</ele><time>2019-09-10T17:59:48.000Z</time></trkpt><trkpt lon="-999.0" lat="-999.0"><ele>0.0</ele><time>2019-09-10T17:59:49.000Z</time></trkpt><trkpt lon="-999.0" lat="-999.0"><ele>0.0</ele><time>2019-09-10T17:59:50.000Z</time></trkpt><trkpt lon="-999.0" lat="-999.0"><ele>0.0</ele><time>2019-09-10T17:59:51.000Z</time></trkpt><trkpt lon="-999.0" lat="-999.0"><ele>0.0</ele><time>2019-09-10T17:59:52.000Z</time></trkpt><trkpt lon="-999.0" lat="-999.0"><ele>0.0</ele><time>2019-09-10T17:59:53.000Z</time></trkpt><trkpt lon="-999.0" lat="-999.0"><ele>0.0</ele><time>2019-09-10T17:59:54.000Z</time></trkpt><trkpt lon="-999.0" lat="-999.0"><ele>0.0</ele><time>2019-09-10T17:59:55.000Z</time></trkpt><trkpt lon="-999.0" lat="-999.0"><ele>0.0</ele><time>2019-09-10T17:59:56.000Z</time></trkpt><trkpt lon="-999.0" lat="-999.0"><ele>0.0</ele><time>2019-09-10T17:59:57.000Z</time></trkpt><trkpt lon="-999.0" lat="-999.0"><ele>0.0</ele><time>2019-09-10T17:59:58.000Z</time></trkpt><trkpt lon="-999.0" lat="-999.0"><ele>0.0</ele><time>2019-09-10T17:59:59.000Z</time></trkpt><trkpt lon="-999.0" lat="-999.0"><ele>0.0</ele><time>2019-09-10T18:00:00.000Z</time></trkpt><trkpt lon="-999.0" lat="-999.0"><ele>0.0</ele><time>2019-09-10T18:00:01.000Z</time></trkpt><trkpt lon="-999.0" lat="-999.0"><ele>0.0</ele><time>2019-09-10T18:00:02.000Z</time></trkpt><trkpt lon="-999.0" lat="-999.0"><ele>0.0</ele><time>2019-09-10T18:00:03.000Z</time></trkpt><trkpt lon="-999.0" lat="-999.0"><ele>0.0</ele><time>2019-09-10T18:00:04.000Z</time></trkpt><trkpt lon="-999.0" lat="-999.0"><ele>0.0</ele><time>2019-09-10T18:00:05.000Z</time></trkpt><trkpt lon="-999.0" lat="-999.0"><ele>0.0</ele><time>2019-09-10T18:00:06.000Z</time></trkpt><trkpt lon="-999.0" lat="-999.0"><ele>0.0</ele><time>2019-09-10T18:00:07.000Z</time></trkpt><trkpt lon="-999.0" lat="-999.0"><ele>0.0</ele><time>2019-09-10T18:00:08.000Z</time></trkpt><trkpt lon="-999.0" lat="-999.0"><ele>0.0</ele><time>2019-09-10T18:00:09.000Z</time></trkpt><trkpt lon="-999.0" lat="-999.0"><ele>0.0</ele><time>2019-09-10T18:00:10.000Z</time></trkpt><trkpt lon="-999.0" lat="-999.0"><ele>0.0</ele><time>2019-09-10T18:00:11.000Z</time></trkpt><trkpt lon="-999.0" lat="-999.0"><ele>0.0</ele><time>2019-09-10T18:00:12.000Z</time></trkpt><trkpt lon="-999.0" lat="-999.0"><ele>0.0</ele><time>2019-09-10T18:00:13.000Z</time></trkpt><trkpt lon="-999.0" lat="-999.0"><ele>0.0</ele><time>2019-09-10T18:00:14.000Z</time></trkpt><trkpt lon="-999.0" lat="-999.0"><ele>0.0</ele><time>2019-09-10T18:00:15.000Z</time></trkpt><trkpt lon="-999.0" lat="-999.0"><ele>0.0</ele><time>2019-09-10T18:00:16.000Z</time></trkpt><trkpt lon="-999.0" lat="-999.0"><ele>0.0</ele><time>2019-09-10T18:00:17.000Z</time></trkpt><trkpt lon="-999.0" lat="-999.0"><ele>0.0</ele><time>2019-09-10T18:00:18.000Z</time></trkpt><trkpt lon="-999.0" lat="-999.0"><ele>0.0</ele><time>2019-09-10T18:00:19.000Z</time></trkpt><trkpt lon="-999.0" lat="-999.0"><ele>0.0</ele><time>2019-09-10T18:00:20.000Z</time></trkpt><trkpt lon="-999.0" lat="-999.0"><ele>0.0</ele><time>2019-09-10T18:00:21.000Z</time></trkpt><trkpt lon="-999.0" lat="-999.0"><ele>0.0</ele><time>2019-09-10T18:00:22.000Z</time></trkpt><trkpt lon="-999.0" lat="-999.0"><ele>0.0</ele><time>2019-09-10T18:00:23.000Z</time></trkpt><trkpt lon="-999.0" lat="-999.0"><ele>0.0</ele><time>2019-09-10T18:00:24.000Z</time></trkpt><trkpt lon="-999.0" lat="-999.0"><ele>0.0</ele><time>2019-09-10T18:00:25.000Z</time></trkpt><trkpt lon="-999.0" lat="-999.0"><ele>0.0</ele><time>2019-09-10T18:00:26.000Z</time></trkpt><trkpt lon="-999.0" lat="-999.0"><ele>0.0</ele><time>2019-09-10T18:00:27.000Z</time></trkpt><trkpt lon="-999.0" lat="-999.0"><ele>0.0</ele><time>2019-09-10T18:00:28.000Z</time></trkpt><trkpt lon="-999.0" lat="-999.0"><ele>0.0</ele><time>2019-09-10T18:00:29.000Z</time></trkpt><trkpt lon="-999.0" lat="-999.0"><ele>0.0</ele><time>2019-09-10T18:00:30.000Z</time></trkpt><trkpt lon="-999.0" lat="-999.0"><ele>0.0</ele><time>2019-09-10T18:00:31.000Z</time></trkpt><trkpt lon="-999.0" lat="-999.0"><ele>0.0</ele><time>2019-09-10T18:00:32.000Z</time></trkpt><trkpt lon="-999.0" lat="-999.0"><ele>0.0</ele><time>2019-09-10T18:00:33.000Z</time></trkpt><trkpt lon="-999.0" lat="-999.0"><ele>0.0</ele><time>2019-09-10T18:00:34.000Z</time></trkpt><trkpt lon="-999.0" lat="-999.0"><ele>0.0</ele><time>2019-09-10T18:00:35.000Z</time></trkpt><trkpt lon="-999.0" lat="-999.0"><ele>0.0</ele><time>2019-09-10T18:00:36.000Z</time></trkpt><trkpt lon="-999.0" lat="-999.0"><ele>0.0</ele><time>2019-09-10T18:00:37.000Z</time></trkpt><trkpt lon="-999.0" lat="-999.0"><ele>0.0</ele><time>2019-09-10T18:00:38.000Z</time></trkpt><trkpt lon="-999.0" lat="-999.0"><ele>0.0</ele><time>2019-09-10T18:00:39.000Z</time></trkpt><trkpt lon="-999.0" lat="-999.0"><ele>0.0</ele><time>2019-09-10T18:00:40.000Z</time></trkpt><trkpt lon="-999.0" lat="-999.0"><ele>0.0</ele><time>2019-09-10T18:00:41.000Z</time></trkpt><trkpt lon="-999.0" lat="-999.0"><ele>0.0</ele><time>2019-09-10T18:00:42.000Z</time></trkpt><trkpt lon="-999.0" lat="-999.0"><ele>0.0</ele><time>2019-09-10T18:00:43.000Z</time></trkpt><trkpt lon="-999.0" lat="-999.0"><ele>0.0</ele><time>2019-09-10T18:00:44.000Z</time></trkpt><trkpt lon="-999.0" lat="-999.0"><ele>0.0</ele><time>2019-09-10T18:00:45.000Z</time></trkpt><trkpt lon="-999.0" lat="-999.0"><ele>0.0</ele><time>2019-09-10T18:00:46.000Z</time></trkpt><trkpt lon="-999.0" lat="-999.0"><ele>0.0</ele><time>2019-09-10T18:00:47.000Z</time></trkpt><trkpt lon="-999.0" lat="-999.0"><ele>0.0</ele><time>2019-09-10T18:00:48.000Z</time></trkpt><trkpt lon="-999.0" lat="-999.0"><ele>0.0</ele><time>2019-09-10T18:00:49.000Z</time></trkpt><trkpt lon="-999.0" lat="-999.0"><ele>0.0</ele><time>2019-09-10T18:00:50.000Z</time></trkpt><trkpt lon="-999.0" lat="-999.0"><ele>0.0</ele><time>2019-09-10T18:00:51.000Z</time></trkpt><trkpt lon="-999.0" lat="-999.0"><ele>0.0</ele><time>2019-09-10T18:00:52.000Z</time></trkpt><trkpt lon="-999.0" lat="-999.0"><ele>0.0</ele><time>2019-09-10T18:00:53.000Z</time></trkpt><trkpt lon="-999.0" lat="-999.0"><ele>0.0</ele><time>2019-09-10T18:00:54.000Z</time></trkpt><trkpt lon="-999.0" lat="-999.0"><ele>0.0</ele><time>2019-09-10T18:00:55.000Z</time></trkpt><trkpt lon="-999.0" lat="-999.0"><ele>0.0</ele><time>2019-09-10T18:00:56.000Z</time></trkpt><trkpt lon="-999.0" lat="-999.0"><ele>0.0</ele><time>2019-09-10T18:00:57.000Z</time></trkpt><trkpt lon="-999.0" lat="-999.0"><ele>0.0</ele><time>2019-09-10T18:00:58.000Z</time></trkpt><trkpt lon="-999.0" lat="-999.0"><ele>0.0</ele><time>2019-09-10T18:00:59.000Z</time></trkpt><trkpt lon="-999.0" lat="-999.0"><ele>0.0</ele><time>2019-09-10T18:01:00.000Z</time></trkpt><trkpt lon="-999.0" lat="-999.0"><ele>0.0</ele><time>2019-09-10T18:01:01.000Z</time></trkpt><trkpt lon="-999.0" lat="-999.0"><ele>0.0</ele><time>2019-09-10T18:01:02.000Z</time></trkpt><trkpt lon="-999.0" lat="-999.0"><ele>0.0</ele><time>2019-09-10T18:01:03.000Z</time></trkpt><trkpt lon="-999.0" lat="-999.0"><ele>0.0</ele><time>2019-09-10T18:01:04.000Z</time></trkpt><trkpt lon="-999.0" lat="-999.0"><ele>0.0</ele><time>2019-09-10T18:01:05.000Z</time></trkpt><trkpt lon="-999.0" lat="-999.0"><ele>0.0</ele><time>2019-09-10T18:01:06.000Z</time></trkpt><trkpt lon="-999.0" lat="-999.0"><ele>0.0</ele><time>2019-09-10T18:01:07.000Z</time></trkpt><trkpt lon="-999.0" lat="-999.0"><ele>0.0</ele><time>2019-09-10T18:01:08.000Z</time></trkpt><trkpt lon="-999.0" lat="-999.0"><ele>0.0</ele><time>2019-09-10T18:01:09.000Z</time></trkpt><trkpt lon="-999.0" lat="-999.0"><ele>0.0</ele><time>2019-09-10T18:01:10.000Z</time></trkpt><trkpt lon="-999.0" lat="-999.0"><ele>0.0</ele><time>2019-09-10T18:01:11.000Z</time></trkpt><trkpt lon="-999.0" lat="-999.0"><ele>0.0</ele><time>2019-09-10T18:01:12.000Z</time></trkpt><trkpt lon="-999.0" lat="-999.0"><ele>0.0</ele><time>2019-09-10T18:01:13.000Z</time></trkpt><trkpt lon="-999.0" lat="-999.0"><ele>0.0</ele><time>2019-09-10T18:01:14.000Z</time></trkpt><trkpt lon="-999.0" lat="-999.0"><ele>0.0</ele><time>2019-09-10T18:01:15.000Z</time></trkpt><trkpt lon="-999.0" lat="-999.0"><ele>0.0</ele><time>2019-09-10T18:01:16.000Z</time></trkpt><trkpt lon="-999.0" lat="-999.0"><ele>0.0</ele><time>2019-09-10T18:01:17.000Z</time></trkpt><trkpt lon="-999.0" lat="-999.0"><ele>0.0</ele><time>2019-09-10T18:01:18.000Z</time></trkpt><trkpt lon="-999.0" lat="-999.0"><ele>0.0</ele><time>2019-09-10T18:01:19.000Z</time></trkpt><trkpt lon="-999.0" lat="-999.0"><ele>0.0</ele><time>2019-09-10T18:01:20.000Z</time></trkpt><trkpt lon="-999.0" lat="-999.0"><ele>0.0</ele><time>2019-09-10T18:01:21.000Z</time></trkpt><trkpt lon="-999.0" lat="-999.0"><ele>0.0</ele><time>2019-09-10T18:01:22.000Z</time></trkpt><trkpt lon="-999.0" lat="-999.0"><ele>0.0</ele><time>2019-09-10T18:01:23.000Z</time></trkpt><trkpt lon="-999.0" lat="-999.0"><ele>0.0</ele><time>2019-09-10T18:01:24.000Z</time></trkpt><trkpt lon="-999.0" lat="-999.0"><ele>0.0</ele><time>2019-09-10T18:01:25.000Z</time></trkpt><trkpt lon="-999.0" lat="-999.0"><ele>0.0</ele><time>2019-09-10T18:01:26.000Z</time></trkpt><trkpt lon="-999.0" lat="-999.0"><ele>0.0</ele><time>2019-09-10T18:01:27.000Z</time></trkpt><trkpt lon="-999.0" lat="-999.0"><ele>0.0</ele><time>2019-09-10T18:01:28.000Z</time></trkpt><trkpt lon="-999.0" lat="-999.0"><ele>0.0</ele><time>2019-09-10T18:01:29.000Z</time></trkpt><trkpt lon="-999.0" lat="-999.0"><ele>0.0</ele><time>2019-09-10T18:01:30.000Z</time></trkpt><trkpt lon="-999.0" lat="-999.0"><ele>0.0</ele><time>2019-09-10T18:01:31.000Z</time></trkpt><trkpt lon="-999.0" lat="-999.0"><ele>0.0</ele><time>2019-09-10T18:01:32.000Z</time></trkpt><trkpt lon="-999.0" lat="-999.0"><ele>0.0</ele><time>2019-09-10T18:01:33.000Z</time></trkpt><trkpt lon="-999.0" lat="-999.0"><ele>0.0</ele><time>2019-09-10T18:01:34.000Z</time></trkpt><trkpt lon="-999.0" lat="-999.0"><ele>0.0</ele><time>2019-09-10T18:01:35.000Z</time></trkpt><trkpt lon="-999.0" lat="-999.0"><ele>0.0</ele><time>2019-09-10T18:01:36.000Z</time></trkpt><trkpt lon="-999.0" lat="-999.0"><ele>0.0</ele><time>2019-09-10T18:01:37.000Z</time></trkpt><trkpt lon="-999.0" lat="-999.0"><ele>0.0</ele><time>2019-09-10T18:01:38.000Z</time></trkpt><trkpt lon="-999.0" lat="-999.0"><ele>0.0</ele><time>2019-09-10T18:01:39.000Z</time></trkpt><trkpt lon="-999.0" lat="-999.0"><ele>0.0</ele><time>2019-09-10T18:01:40.000Z</time></trkpt><trkpt lon="-999.0" lat="-999.0"><ele>0.0</ele><time>2019-09-10T18:01:41.000Z</time></trkpt><trkpt lon="-999.0" lat="-999.0"><ele>0.0</ele><time>2019-09-10T18:01:42.000Z</time></trkpt><trkpt lon="-999.0" lat="-999.0"><ele>0.0</ele><time>2019-09-10T18:01:43.000Z</time></trkpt><trkpt lon="-999.0" lat="-999.0"><ele>0.0</ele><time>2019-09-10T18:01:44.000Z</time></trkpt><trkpt lon="-999.0" lat="-999.0"><ele>0.0</ele><time>2019-09-10T18:01:45.000Z</time></trkpt><trkpt lon="-999.0" lat="-999.0"><ele>0.0</ele><time>2019-09-10T18:01:46.000Z</time></trkpt><trkpt lon="-999.0" lat="-999.0"><ele>0.0</ele><time>2019-09-10T18:01:47.000Z</time></trkpt><trkpt lon="-999.0" lat="-999.0"><ele>0.0</ele><time>2019-09-10T18:01:48.000Z</time></trkpt><trkpt lon="-999.0" lat="-999.0"><ele>0.0</ele><time>2019-09-10T18:01:49.000Z</time></trkpt><trkpt lon="-999.0" lat="-999.0"><ele>0.0</ele><time>2019-09-10T18:01:50.000Z</time></trkpt><trkpt lon="-999.0" lat="-999.0"><ele>0.0</ele><time>2019-09-10T18:01:51.000Z</time></trkpt><trkpt lon="-999.0" lat="-999.0"><ele>0.0</ele><time>2019-09-10T18:01:52.000Z</time></trkpt><trkpt lon="-999.0" lat="-999.0"><ele>0.0</ele><time>2019-09-10T18:01:53.000Z</time></trkpt><trkpt lon="-999.0" lat="-999.0"><ele>0.0</ele><time>2019-09-10T18:01:54.000Z</time></trkpt><trkpt lon="-999.0" lat="-999.0"><ele>0.0</ele><time>2019-09-10T18:01:55.000Z</time></trkpt><trkpt lon="-999.0" lat="-999.0"><ele>0.0</ele><time>2019-09-10T18:01:56.000Z</time></trkpt><trkpt lon="-999.0" lat="-999.0"><ele>0.0</ele><time>2019-09-10T18:01:57.000Z</time></trkpt><trkpt lon="-999.0" lat="-999.0"><ele>0.0</ele><time>2019-09-10T18:01:58.000Z</time></trkpt><trkpt lon="-999.0" lat="-999.0"><ele>0.0</ele><time>2019-09-10T18:01:59.000Z</time></trkpt><trkpt lon="-999.0" lat="-999.0"><ele>0.0</ele><time>2019-09-10T18:02:00.000Z</time></trkpt><trkpt lon="-999.0" lat="-999.0"><ele>0.0</ele><time>2019-09-10T18:02:01.000Z</time></trkpt><trkpt lon="-999.0" lat="-999.0"><ele>0.0</ele><time>2019-09-10T18:02:02.000Z</time></trkpt><trkpt lon="-999.0" lat="-999.0"><ele>0.0</ele><time>2019-09-10T18:02:03.000Z</time></trkpt><trkpt lon="-999.0" lat="-999.0"><ele>0.0</ele><time>2019-09-10T18:02:04.000Z</time></trkpt><trkpt lon="-999.0" lat="-999.0"><ele>0.0</ele><time>2019-09-10T18:02:05.000Z</time></trkpt><trkpt lon="-999.0" lat="-999.0"><ele>0.0</ele><time>2019-09-10T18:02:06.000Z</time></trkpt><trkpt lon="-999.0" lat="-999.0"><ele>0.0</ele><time>2019-09-10T18:02:07.000Z</time></trkpt><trkpt lon="-999.0" lat="-999.0"><ele>0.0</ele><time>2019-09-10T18:02:08.000Z</time></trkpt><trkpt lon="-999.0" lat="-999.0"><ele>0.0</ele><time>2019-09-10T18:02:09.000Z</time></trkpt><trkpt lon="-999.0" lat="-999.0"><ele>0.0</ele><time>2019-09-10T18:02:10.000Z</time></trkpt><trkpt lon="-999.0" lat="-999.0"><ele>0.0</ele><time>2019-09-10T18:02:11.000Z</time></trkpt><trkpt lon="-999.0" lat="-999.0"><ele>0.0</ele><time>2019-09-10T18:02:12.000Z</time></trkpt><trkpt lon="-999.0" lat="-999.0"><ele>0.0</ele><time>2019-09-10T18:02:13.000Z</time></trkpt><trkpt lon="-999.0" lat="-999.0"><ele>0.0</ele><time>2019-09-10T18:02:14.000Z</time></trkpt><trkpt lon="-999.0" lat="-999.0"><ele>0.0</ele><time>2019-09-10T18:02:15.000Z</time></trkpt><trkpt lon="-999.0" lat="-999.0"><ele>0.0</ele><time>2019-09-10T18:02:16.000Z</time></trkpt><trkpt lon="-999.0" lat="-999.0"><ele>0.0</ele><time>2019-09-10T18:02:17.000Z</time></trkpt><trkpt lon="-999.0" lat="-999.0"><ele>0.0</ele><time>2019-09-10T18:02:18.000Z</time></trkpt><trkpt lon="-999.0" lat="-999.0"><ele>0.0</ele><time>2019-09-10T18:02:19.000Z</time></trkpt><trkpt lon="-999.0" lat="-999.0"><ele>0.0</ele><time>2019-09-10T18:02:20.000Z</time></trkpt><trkpt lon="-999.0" lat="-999.0"><ele>0.0</ele><time>2019-09-10T18:02:21.000Z</time></trkpt><trkpt lon="-999.0" lat="-999.0"><ele>0.0</ele><time>2019-09-10T18:02:22.000Z</time></trkpt><trkpt lon="-999.0" lat="-999.0"><ele>0.0</ele><time>2019-09-10T18:02:23.000Z</time></trkpt><trkpt lon="-999.0" lat="-999.0"><ele>0.0</ele><time>2019-09-10T18:02:24.000Z</time></trkpt><trkpt lon="-999.0" lat="-999.0"><ele>0.0</ele><time>2019-09-10T18:02:25.000Z</time></trkpt><trkpt lon="-999.0" lat="-999.0"><ele>0.0</ele><time>2019-09-10T18:02:26.000Z</time></trkpt><trkpt lon="-999.0" lat="-999.0"><ele>0.0</ele><time>2019-09-10T18:02:27.000Z</time></trkpt><trkpt lon="-999.0" lat="-999.0"><ele>0.0</ele><time>2019-09-10T18:02:28.000Z</time></trkpt><trkpt lon="-999.0" lat="-999.0"><ele>0.0</ele><time>2019-09-10T18:02:29.000Z</time></trkpt><trkpt lon="-999.0" lat="-999.0"><ele>0.0</ele><time>2019-09-10T18:02:30.000Z</time></trkpt><trkpt lon="-999.0" lat="-999.0"><ele>0.0</ele><time>2019-09-10T18:02:31.000Z</time></trkpt><trkpt lon="-999.0" lat="-999.0"><ele>0.0</ele><time>2019-09-10T18:02:32.000Z</time></trkpt><trkpt lon="-999.0" lat="-999.0"><ele>0.0</ele><time>2019-09-10T18:02:33.000Z</time></trkpt><trkpt lon="-999.0" lat="-999.0"><ele>0.0</ele><time>2019-09-10T18:02:34.000Z</time></trkpt><trkpt lon="-999.0" lat="-999.0"><ele>0.0</ele><time>2019-09-10T18:02:35.000Z</time></trkpt><trkpt lon="-999.0" lat="-999.0"><ele>0.0</ele><time>2019-09-10T18:02:36.000Z</time></trkpt><trkpt lon="-999.0" lat="-999.0"><ele>0.0</ele><time>2019-09-10T18:02:37.000Z</time></trkpt><trkpt lon="-999.0" lat="-999.0"><ele>0.0</ele><time>2019-09-10T18:02:38.000Z</time></trkpt><trkpt lon="-999.0" lat="-999.0"><ele>0.0</ele><time>2019-09-10T18:02:39.000Z</time></trkpt><trkpt lon="-999.0" lat="-999.0"><ele>0.0</ele><time>2019-09-10T18:02:40.000Z</time></trkpt><trkpt lon="-999.0" lat="-999.0"><ele>0.0</ele><time>2019-09-10T18:02:41.000Z</time></trkpt><trkpt lon="-999.0" lat="-999.0"><ele>0.0</ele><time>2019-09-10T18:02:42.000Z</time></trkpt><trkpt lon="-999.0" lat="-999.0"><ele>0.0</ele><time>2019-09-10T18:02:43.000Z</time></trkpt><trkpt lon="-999.0" lat="-999.0"><ele>0.0</ele><time>2019-09-10T18:02:44.000Z</time></trkpt><trkpt lon="-999.0" lat="-999.0"><ele>0.0</ele><time>2019-09-10T18:02:45.000Z</time></trkpt><trkpt lon="-999.0" lat="-999.0"><ele>0.0</ele><time>2019-09-10T18:02:46.000Z</time></trkpt><trkpt lon="-999.0" lat="-999.0"><ele>0.0</ele><time>2019-09-10T18:02:47.000Z</time></trkpt><trkpt lon="-999.0" lat="-999.0"><ele>0.0</ele><time>2019-09-10T18:02:48.000Z</time></trkpt><trkpt lon="-999.0" lat="-999.0"><ele>0.0</ele><time>2019-09-10T18:02:49.000Z</time></trkpt><trkpt lon="-999.0" lat="-999.0"><ele>0.0</ele><time>2019-09-10T18:02:50.000Z</time></trkpt><trkpt lon="-999.0" lat="-999.0"><ele>0.0</ele><time>2019-09-10T18:02:51.000Z</time></trkpt><trkpt lon="-999.0" lat="-999.0"><ele>0.0</ele><time>2019-09-10T18:02:52.000Z</time></trkpt><trkpt lon="-999.0" lat="-999.0"><ele>0.0</ele><time>2019-09-10T18:02:53.000Z</time></trkpt><trkpt lon="-999.0" lat="-999.0"><ele>0.0</ele><time>2019-09-10T18:02:54.000Z</time></trkpt><trkpt lon="-999.0" lat="-999.0"><ele>0.0</ele><time>2019-09-10T18:02:55.000Z</time></trkpt><trkpt lon="-999.0" lat="-999.0"><ele>0.0</ele><time>2019-09-10T18:02:56.000Z</time></trkpt><trkpt lon="-999.0" lat="-999.0"><ele>0.0</ele><time>2019-09-10T18:02:57.000Z</time></trkpt><trkpt lon="-999.0" lat="-999.0"><ele>0.0</ele><time>2019-09-10T18:02:58.000Z</time></trkpt><trkpt lon="-999.0" lat="-999.0"><ele>0.0</ele><time>2019-09-10T18:02:59.000Z</time></trkpt><trkpt lon="-999.0" lat="-999.0"><ele>0.0</ele><time>2019-09-10T18:03:00.000Z</time></trkpt><trkpt lon="-999.0" lat="-999.0"><ele>0.0</ele><time>2019-09-10T18:03:01.000Z</time></trkpt><trkpt lon="-999.0" lat="-999.0"><ele>0.0</ele><time>2019-09-10T18:03:02.000Z</time></trkpt><trkpt lon="-999.0" lat="-999.0"><ele>0.0</ele><time>2019-09-10T18:03:03.000Z</time></trkpt><trkpt lon="-999.0" lat="-999.0"><ele>0.0</ele><time>2019-09-10T18:03:04.000Z</time></trkpt><trkpt lon="-999.0" lat="-999.0"><ele>0.0</ele><time>2019-09-10T18:03:05.000Z</time></trkpt><trkpt lon="-999.0" lat="-999.0"><ele>0.0</ele><time>2019-09-10T18:03:06.000Z</time></trkpt><trkpt lon="-999.0" lat="-999.0"><ele>0.0</ele><time>2019-09-10T18:03:07.000Z</time></trkpt><trkpt lon="-999.0" lat="-999.0"><ele>0.0</ele><time>2019-09-10T18:03:08.000Z</time></trkpt><trkpt lon="-999.0" lat="-999.0"><ele>0.0</ele><time>2019-09-10T18:03:09.000Z</time></trkpt><trkpt lon="-999.0" lat="-999.0"><ele>0.0</ele><time>2019-09-10T18:03:10.000Z</time></trkpt><trkpt lon="-999.0" lat="-999.0"><ele>0.0</ele><time>2019-09-10T18:03:11.000Z</time></trkpt><trkpt lon="-999.0" lat="-999.0"><ele>0.0</ele><time>2019-09-10T18:03:12.000Z</time></trkpt><trkpt lon="-999.0" lat="-999.0"><ele>0.0</ele><time>2019-09-10T18:03:13.000Z</time></trkpt><trkpt lon="-999.0" lat="-999.0"><ele>0.0</ele><time>2019-09-10T18:03:14.000Z</time></trkpt><trkpt lon="-999.0" lat="-999.0"><ele>0.0</ele><time>2019-09-10T18:03:15.000Z</time></trkpt><trkpt lon="-999.0" lat="-999.0"><ele>0.0</ele><time>2019-09-10T18:03:16.000Z</time></trkpt><trkpt lon="-999.0" lat="-999.0"><ele>0.0</ele><time>2019-09-10T18:03:17.000Z</time></trkpt><trkpt lon="-999.0" lat="-999.0"><ele>0.0</ele><time>2019-09-10T18:03:18.000Z</time></trkpt><trkpt lon="-999.0" lat="-999.0"><ele>0.0</ele><time>2019-09-10T18:03:19.000Z</time></trkpt><trkpt lon="-999.0" lat="-999.0"><ele>0.0</ele><time>2019-09-10T18:03:20.000Z</time></trkpt><trkpt lon="-999.0" lat="-999.0"><ele>0.0</ele><time>2019-09-10T18:03:21.000Z</time></trkpt><trkpt lon="-999.0" lat="-999.0"><ele>0.0</ele><time>2019-09-10T18:03:22.000Z</time></trkpt><trkpt lon="-999.0" lat="-999.0"><ele>0.0</ele><time>2019-09-10T18:03:23.000Z</time></trkpt><trkpt lon="-999.0" lat="-999.0"><ele>0.0</ele><time>2019-09-10T18:03:24.000Z</time></trkpt><trkpt lon="-999.0" lat="-999.0"><ele>0.0</ele><time>2019-09-10T18:03:25.000Z</time></trkpt><trkpt lon="-999.0" lat="-999.0"><ele>0.0</ele><time>2019-09-10T18:03:26.000Z</time></trkpt><trkpt lon="-999.0" lat="-999.0"><ele>0.0</ele><time>2019-09-10T18:03:27.000Z</time></trkpt><trkpt lon="-999.0" lat="-999.0"><ele>0.0</ele><time>2019-09-10T18:03:28.000Z</time></trkpt><trkpt lon="-999.0" lat="-999.0"><ele>0.0</ele><time>2019-09-10T18:03:29.000Z</time></trkpt><trkpt lon="-999.0" lat="-999.0"><ele>0.0</ele><time>2019-09-10T18:03:30.000Z</time></trkpt><trkpt lon="-999.0" lat="-999.0"><ele>0.0</ele><time>2019-09-10T18:03:31.000Z</time></trkpt><trkpt lon="-999.0" lat="-999.0"><ele>0.0</ele><time>2019-09-10T18:03:32.000Z</time></trkpt><trkpt lon="-999.0" lat="-999.0"><ele>0.0</ele><time>2019-09-10T18:03:33.000Z</time></trkpt><trkpt lon="-999.0" lat="-999.0"><ele>0.0</ele><time>2019-09-10T18:03:34.000Z</time></trkpt><trkpt lon="-999.0" lat="-999.0"><ele>0.0</ele><time>2019-09-10T18:03:35.000Z</time></trkpt><trkpt lon="-999.0" lat="-999.0"><ele>0.0</ele><time>2019-09-10T18:03:36.000Z</time></trkpt><trkpt lon="-999.0" lat="-999.0"><ele>0.0</ele><time>2019-09-10T18:03:37.000Z</time></trkpt><trkpt lon="-999.0" lat="-999.0"><ele>0.0</ele><time>2019-09-10T18:03:38.000Z</time></trkpt><trkpt lon="-999.0" lat="-999.0"><ele>0.0</ele><time>2019-09-10T18:03:39.000Z</time></trkpt><trkpt lon="-999.0" lat="-999.0"><ele>0.0</ele><time>2019-09-10T18:03:40.000Z</time></trkpt><trkpt lon="-999.0" lat="-999.0"><ele>0.0</ele><time>2019-09-10T18:03:41.000Z</time></trkpt><trkpt lon="-999.0" lat="-999.0"><ele>0.0</ele><time>2019-09-10T18:03:42.000Z</time></trkpt><trkpt lon="-999.0" lat="-999.0"><ele>0.0</ele><time>2019-09-10T18:03:43.000Z</time></trkpt><trkpt lon="-999.0" lat="-999.0"><ele>0.0</ele><time>2019-09-10T18:03:44.000Z</time></trkpt><trkpt lon="-999.0" lat="-999.0"><ele>0.0</ele><time>2019-09-10T18:03:45.000Z</time></trkpt><trkpt lon="-999.0" lat="-999.0"><ele>0.0</ele><time>2019-09-10T18:03:46.000Z</time></trkpt><trkpt lon="-999.0" lat="-999.0"><ele>0.0</ele><time>2019-09-10T18:03:47.000Z</time></trkpt><trkpt lon="-999.0" lat="-999.0"><ele>0.0</ele><time>2019-09-10T18:03:48.000Z</time></trkpt><trkpt lon="-999.0" lat="-999.0"><ele>0.0</ele><time>2019-09-10T18:03:49.000Z</time></trkpt><trkpt lon="-999.0" lat="-999.0"><ele>0.0</ele><time>2019-09-10T18:03:50.000Z</time></trkpt><trkpt lon="-999.0" lat="-999.0"><ele>0.0</ele><time>2019-09-10T18:03:51.000Z</time></trkpt><trkpt lon="-999.0" lat="-999.0"><ele>0.0</ele><time>2019-09-10T18:03:52.000Z</time></trkpt><trkpt lon="-999.0" lat="-999.0"><ele>0.0</ele><time>2019-09-10T18:03:53.000Z</time></trkpt><trkpt lon="-999.0" lat="-999.0"><ele>0.0</ele><time>2019-09-10T18:03:54.000Z</time></trkpt><trkpt lon="-999.0" lat="-999.0"><ele>0.0</ele><time>2019-09-10T18:03:55.000Z</time></trkpt><trkpt lon="-999.0" lat="-999.0"><ele>0.0</ele><time>2019-09-10T18:03:56.000Z</time></trkpt><trkpt lon="-999.0" lat="-999.0"><ele>0.0</ele><time>2019-09-10T18:03:57.000Z</time></trkpt><trkpt lon="-999.0" lat="-999.0"><ele>0.0</ele><time>2019-09-10T18:03:58.000Z</time></trkpt><trkpt lon="-999.0" lat="-999.0"><ele>0.0</ele><time>2019-09-10T18:03:59.000Z</time></trkpt><trkpt lon="-999.0" lat="-999.0"><ele>0.0</ele><time>2019-09-10T18:04:00.000Z</time></trkpt><trkpt lon="-999.0" lat="-999.0"><ele>0.0</ele><time>2019-09-10T18:04:01.000Z</time></trkpt><trkpt lon="-999.0" lat="-999.0"><ele>0.0</ele><time>2019-09-10T18:04:02.000Z</time></trkpt><trkpt lon="-999.0" lat="-999.0"><ele>0.0</ele><time>2019-09-10T18:04:03.000Z</time></trkpt><trkpt lon="-999.0" lat="-999.0"><ele>0.0</ele><time>2019-09-10T18:04:04.000Z</time></trkpt><trkpt lon="-999.0" lat="-999.0"><ele>0.0</ele><time>2019-09-10T18:04:05.000Z</time></trkpt><trkpt lon="-999.0" lat="-999.0"><ele>0.0</ele><time>2019-09-10T18:04:06.000Z</time></trkpt><trkpt lon="-999.0" lat="-999.0"><ele>0.0</ele><time>2019-09-10T18:04:07.000Z</time></trkpt><trkpt lon="-999.0" lat="-999.0"><ele>0.0</ele><time>2019-09-10T18:04:08.000Z</time></trkpt><trkpt lon="-999.0" lat="-999.0"><ele>0.0</ele><time>2019-09-10T18:04:09.000Z</time></trkpt><trkpt lon="-999.0" lat="-999.0"><ele>0.0</ele><time>2019-09-10T18:04:10.000Z</time></trkpt><trkpt lon="-999.0" lat="-999.0"><ele>0.0</ele><time>2019-09-10T18:04:11.000Z</time></trkpt><trkpt lon="-999.0" lat="-999.0"><ele>0.0</ele><time>2019-09-10T18:04:12.000Z</time></trkpt><trkpt lon="-999.0" lat="-999.0"><ele>0.0</ele><time>2019-09-10T18:04:13.000Z</time></trkpt><trkpt lon="-999.0" lat="-999.0"><ele>0.0</ele><time>2019-09-10T18:04:14.000Z</time></trkpt><trkpt lon="-999.0" lat="-999.0"><ele>0.0</ele><time>2019-09-10T18:04:15.000Z</time></trkpt><trkpt lon="-999.0" lat="-999.0"><ele>0.0</ele><time>2019-09-10T18:04:16.000Z</time></trkpt><trkpt lon="-999.0" lat="-999.0"><ele>0.0</ele><time>2019-09-10T18:04:17.000Z</time></trkpt><trkpt lon="-999.0" lat="-999.0"><ele>0.0</ele><time>2019-09-10T18:04:18.000Z</time></trkpt><trkpt lon="-999.0" lat="-999.0"><ele>0.0</ele><time>2019-09-10T18:04:19.000Z</time></trkpt><trkpt lon="-999.0" lat="-999.0"><ele>0.0</ele><time>2019-09-10T18:04:20.000Z</time></trkpt><trkpt lon="-999.0" lat="-999.0"><ele>0.0</ele><time>2019-09-10T18:04:21.000Z</time></trkpt><trkpt lon="-999.0" lat="-999.0"><ele>0.0</ele><time>2019-09-10T18:04:22.000Z</time></trkpt><trkpt lon="-999.0" lat="-999.0"><ele>0.0</ele><time>2019-09-10T18:04:23.000Z</time></trkpt><trkpt lon="-999.0" lat="-999.0"><ele>0.0</ele><time>2019-09-10T18:04:24.000Z</time></trkpt><trkpt lon="-999.0" lat="-999.0"><ele>0.0</ele><time>2019-09-10T18:04:25.000Z</time></trkpt><trkpt lon="-999.0" lat="-999.0"><ele>0.0</ele><time>2019-09-10T18:04:26.000Z</time></trkpt><trkpt lon="-999.0" lat="-999.0"><ele>0.0</ele><time>2019-09-10T18:04:27.000Z</time></trkpt><trkpt lon="-999.0" lat="-999.0"><ele>0.0</ele><time>2019-09-10T18:04:28.000Z</time></trkpt><trkpt lon="-999.0" lat="-999.0"><ele>0.0</ele><time>2019-09-10T18:04:29.000Z</time></trkpt><trkpt lon="-999.0" lat="-999.0"><ele>0.0</ele><time>2019-09-10T18:04:30.000Z</time></trkpt><trkpt lon="-999.0" lat="-999.0"><ele>0.0</ele><time>2019-09-10T18:04:31.000Z</time></trkpt><trkpt lon="-999.0" lat="-999.0"><ele>0.0</ele><time>2019-09-10T18:04:32.000Z</time></trkpt><trkpt lon="-999.0" lat="-999.0"><ele>0.0</ele><time>2019-09-10T18:04:33.000Z</time></trkpt><trkpt lon="-999.0" lat="-999.0"><ele>0.0</ele><time>2019-09-10T18:04:34.000Z</time></trkpt><trkpt lon="-999.0" lat="-999.0"><ele>0.0</ele><time>2019-09-10T18:04:35.000Z</time></trkpt><trkpt lon="-999.0" lat="-999.0"><ele>0.0</ele><time>2019-09-10T18:04:36.000Z</time></trkpt><trkpt lon="-999.0" lat="-999.0"><ele>0.0</ele><time>2019-09-10T18:04:37.000Z</time></trkpt><trkpt lon="-999.0" lat="-999.0"><ele>0.0</ele><time>2019-09-10T18:04:38.000Z</time></trkpt><trkpt lon="-999.0" lat="-999.0"><ele>0.0</ele><time>2019-09-10T18:04:39.000Z</time></trkpt><trkpt lon="-999.0" lat="-999.0"><ele>0.0</ele><time>2019-09-10T18:04:40.000Z</time></trkpt><trkpt lon="-999.0" lat="-999.0"><ele>0.0</ele><time>2019-09-10T18:04:41.000Z</time></trkpt><trkpt lon="-999.0" lat="-999.0"><ele>0.0</ele><time>2019-09-10T18:04:42.000Z</time></trkpt><trkpt lon="-999.0" lat="-999.0"><ele>0.0</ele><time>2019-09-10T18:04:43.000Z</time></trkpt><trkpt lon="-999.0" lat="-999.0"><ele>0.0</ele><time>2019-09-10T18:04:44.000Z</time></trkpt><trkpt lon="-999.0" lat="-999.0"><ele>0.0</ele><time>2019-09-10T18:04:45.000Z</time></trkpt><trkpt lon="-999.0" lat="-999.0"><ele>0.0</ele><time>2019-09-10T18:04:46.000Z</time></trkpt><trkpt lon="-999.0" lat="-999.0"><ele>0.0</ele><time>2019-09-10T18:04:47.000Z</time></trkpt><trkpt lon="-999.0" lat="-999.0"><ele>0.0</ele><time>2019-09-10T18:04:48.000Z</time></trkpt><trkpt lon="-999.0" lat="-999.0"><ele>0.0</ele><time>2019-09-10T18:04:49.000Z</time></trkpt><trkpt lon="-999.0" lat="-999.0"><ele>0.0</ele><time>2019-09-10T18:04:50.000Z</time></trkpt><trkpt lon="-999.0" lat="-999.0"><ele>0.0</ele><time>2019-09-10T18:04:51.000Z</time></trkpt><trkpt lon="-999.0" lat="-999.0"><ele>0.0</ele><time>2019-09-10T18:04:52.000Z</time></trkpt><trkpt lon="-999.0" lat="-999.0"><ele>0.0</ele><time>2019-09-10T18:04:53.000Z</time></trkpt><trkpt lon="-999.0" lat="-999.0"><ele>0.0</ele><time>2019-09-10T18:04:54.000Z</time></trkpt><trkpt lon="-999.0" lat="-999.0"><ele>0.0</ele><time>2019-09-10T18:04:55.000Z</time></trkpt><trkpt lon="-999.0" lat="-999.0"><ele>0.0</ele><time>2019-09-10T18:04:56.000Z</time></trkpt><trkpt lon="-999.0" lat="-999.0"><ele>0.0</ele><time>2019-09-10T18:04:57.000Z</time></trkpt><trkpt lon="-999.0" lat="-999.0"><ele>0.0</ele><time>2019-09-10T18:04:58.000Z</time></trkpt><trkpt lon="-999.0" lat="-999.0"><ele>0.0</ele><time>2019-09-10T18:04:59.000Z</time></trkpt><trkpt lon="-999.0" lat="-999.0"><ele>0.0</ele><time>2019-09-10T18:05:00.000Z</time></trkpt><trkpt lon="-999.0" lat="-999.0"><ele>0.0</ele><time>2019-09-10T18:05:01.000Z</time></trkpt><trkpt lon="-999.0" lat="-999.0"><ele>0.0</ele><time>2019-09-10T18:05:02.000Z</time></trkpt><trkpt lon="-999.0" lat="-999.0"><ele>0.0</ele><time>2019-09-10T18:05:03.000Z</time></trkpt><trkpt lon="-999.0" lat="-999.0"><ele>0.0</ele><time>2019-09-10T18:05:04.000Z</time></trkpt><trkpt lon="-999.0" lat="-999.0"><ele>0.0</ele><time>2019-09-10T18:05:05.000Z</time></trkpt><trkpt lon="-999.0" lat="-999.0"><ele>0.0</ele><time>2019-09-10T18:05:06.000Z</time></trkpt><trkpt lon="-999.0" lat="-999.0"><ele>0.0</ele><time>2019-09-10T18:05:07.000Z</time></trkpt><trkpt lon="-999.0" lat="-999.0"><ele>0.0</ele><time>2019-09-10T18:05:08.000Z</time></trkpt><trkpt lon="-999.0" lat="-999.0"><ele>0.0</ele><time>2019-09-10T18:05:09.000Z</time></trkpt><trkpt lon="-999.0" lat="-999.0"><ele>0.0</ele><time>2019-09-10T18:05:10.000Z</time></trkpt><trkpt lon="-999.0" lat="-999.0"><ele>0.0</ele><time>2019-09-10T18:05:11.000Z</time></trkpt><trkpt lon="-999.0" lat="-999.0"><ele>0.0</ele><time>2019-09-10T18:05:12.000Z</time></trkpt><trkpt lon="-999.0" lat="-999.0"><ele>0.0</ele><time>2019-09-10T18:05:13.000Z</time></trkpt><trkpt lon="-999.0" lat="-999.0"><ele>0.0</ele><time>2019-09-10T18:05:14.000Z</time></trkpt><trkpt lon="-999.0" lat="-999.0"><ele>0.0</ele><time>2019-09-10T18:05:15.000Z</time></trkpt><trkpt lon="-999.0" lat="-999.0"><ele>0.0</ele><time>2019-09-10T18:05:16.000Z</time></trkpt><trkpt lon="-999.0" lat="-999.0"><ele>0.0</ele><time>2019-09-10T18:05:17.000Z</time></trkpt><trkpt lon="-999.0" lat="-999.0"><ele>0.0</ele><time>2019-09-10T18:05:18.000Z</time></trkpt><trkpt lon="-999.0" lat="-999.0"><ele>0.0</ele><time>2019-09-10T18:05:19.000Z</time></trkpt><trkpt lon="-999.0" lat="-999.0"><ele>0.0</ele><time>2019-09-10T18:05:20.000Z</time></trkpt><trkpt lon="-999.0" lat="-999.0"><ele>0.0</ele><time>2019-09-10T18:05:21.000Z</time></trkpt><trkpt lon="-999.0" lat="-999.0"><ele>0.0</ele><time>2019-09-10T18:05:22.000Z</time></trkpt><trkpt lon="-999.0" lat="-999.0"><ele>0.0</ele><time>2019-09-10T18:05:23.000Z</time></trkpt><trkpt lon="-999.0" lat="-999.0"><ele>0.0</ele><time>2019-09-10T18:05:24.000Z</time></trkpt><trkpt lon="-999.0" lat="-999.0"><ele>0.0</ele><time>2019-09-10T18:05:25.000Z</time></trkpt><trkpt lon="-999.0" lat="-999.0"><ele>0.0</ele><time>2019-09-10T18:05:26.000Z</time></trkpt><trkpt lon="-999.0" lat="-999.0"><ele>0.0</ele><time>2019-09-10T18:05:27.000Z</time></trkpt><trkpt lon="-999.0" lat="-999.0"><ele>0.0</ele><time>2019-09-10T18:05:28.000Z</time></trkpt><trkpt lon="-999.0" lat="-999.0"><ele>0.0</ele><time>2019-09-10T18:05:29.000Z</time></trkpt><trkpt lon="-999.0" lat="-999.0"><ele>0.0</ele><time>2019-09-10T18:05:30.000Z</time></trkpt><trkpt lon="-999.0" lat="-999.0"><ele>0.0</ele><time>2019-09-10T18:05:31.000Z</time></trkpt><trkpt lon="-999.0" lat="-999.0"><ele>0.0</ele><time>2019-09-10T18:05:32.000Z</time></trkpt><trkpt lon="-999.0" lat="-999.0"><ele>0.0</ele><time>2019-09-10T18:05:33.000Z</time></trkpt><trkpt lon="15.6454357" lat="46.4987525"><ele>291</ele><time>2019-09-10T18:05:34.000Z</time></trkpt><trkpt lon="15.6454357" lat="46.4987525"><ele>291</ele><time>2019-09-10T18:05:35.000Z</time></trkpt><trkpt lon="15.6456011" lat="46.4989081"><ele>308</ele><time>2019-09-10T18:05:36.000Z</time></trkpt><trkpt lon="15.6456011" lat="46.4989081"><ele>308</ele><time>2019-09-10T18:05:37.000Z</time></trkpt><trkpt lon="15.6456011" lat="46.4989081"><ele>308</ele><time>2019-09-10T18:05:38.000Z</time></trkpt><trkpt lon="15.6456011" lat="46.4989081"><ele>308</ele><time>2019-09-10T18:05:39.000Z</time></trkpt><trkpt lon="-999.0" lat="-999.0"><ele>0.0</ele><time>2019-09-10T18:05:40.000Z</time></trkpt><trkpt lon="-999.0" lat="-999.0"><ele>0.0</ele><time>2019-09-10T18:05:41.000Z</time></trkpt><trkpt lon="15.6456532" lat="46.4989124"><ele>337</ele><time>2019-09-10T18:05:42.000Z</time></trkpt><trkpt lon="15.6456532" lat="46.4989124"><ele>337</ele><time>2019-09-10T18:05:43.000Z</time></trkpt><trkpt lon="15.6456532" lat="46.4989124"><ele>337</ele><time>2019-09-10T18:05:44.000Z</time></trkpt><trkpt lon="15.6456532" lat="46.4989124"><ele>337</ele><time>2019-09-10T18:05:45.000Z</time></trkpt><trkpt lon="-999.0" lat="-999.0"><ele>0.0</ele><time>2019-09-10T18:05:46.000Z</time></trkpt><trkpt lon="-999.0" lat="-999.0"><ele>0.0</ele><time>2019-09-10T18:05:47.000Z</time></trkpt><trkpt lon="-999.0" lat="-999.0"><ele>0.0</ele><time>2019-09-10T18:05:48.000Z</time></trkpt><trkpt lon="-999.0" lat="-999.0"><ele>0.0</ele><time>2019-09-10T18:05:49.000Z</time></trkpt><trkpt lon="15.6456167" lat="46.4989236"><ele>332</ele><time>2019-09-10T18:05:50.000Z</time></trkpt><trkpt lon="15.6456167" lat="46.4989236"><ele>332</ele><time>2019-09-10T18:05:51.000Z</time></trkpt><trkpt lon="15.6456167" lat="46.4989236"><ele>332</ele><time>2019-09-10T18:05:52.000Z</time></trkpt><trkpt lon="15.6456167" lat="46.4989236"><ele>332</ele><time>2019-09-10T18:05:53.000Z</time></trkpt><trkpt lon="-999.0" lat="-999.0"><ele>0.0</ele><time>2019-09-10T18:05:54.000Z</time></trkpt><trkpt lon="15.645616" lat="46.4989618"><ele>332</ele><time>2019-09-10T18:05:55.000Z</time></trkpt><trkpt lon="15.645616" lat="46.4989618"><ele>332</ele><time>2019-09-10T18:05:56.000Z</time></trkpt><trkpt lon="15.6456256" lat="46.498989"><ele>331</ele><time>2019-09-10T18:05:57.000Z</time></trkpt><trkpt lon="15.6456256" lat="46.498989"><ele>331</ele><time>2019-09-10T18:05:58.000Z</time></trkpt><trkpt lon="15.6456474" lat="46.4990255"><ele>330</ele><time>2019-09-10T18:05:59.000Z</time></trkpt><trkpt lon="15.6456474" lat="46.4990255"><ele>330</ele><time>2019-09-10T18:06:00.000Z</time></trkpt><trkpt lon="15.6456854" lat="46.4990578"><ele>330</ele><time>2019-09-10T18:06:01.000Z</time></trkpt><trkpt lon="15.6456854" lat="46.4990578"><ele>330</ele><time>2019-09-10T18:06:02.000Z</time></trkpt><trkpt lon="15.6457949" lat="46.4991101"><ele>329</ele><time>2019-09-10T18:06:03.000Z</time></trkpt><trkpt lon="15.6458452" lat="46.4991279"><ele>329</ele><time>2019-09-10T18:06:04.000Z</time></trkpt><trkpt lon="15.6459009" lat="46.4991454"><ele>329</ele><time>2019-09-10T18:06:05.000Z</time></trkpt><trkpt lon="15.6459009" lat="46.4991454"><ele>329</ele><time>2019-09-10T18:06:06.000Z</time></trkpt><trkpt lon="15.6460252" lat="46.4991866"><ele>329</ele><time>2019-09-10T18:06:07.000Z</time></trkpt><trkpt lon="15.6460951" lat="46.4992078"><ele>329</ele><time>2019-09-10T18:06:08.000Z</time></trkpt><trkpt lon="15.6460951" lat="46.4992078"><ele>329</ele><time>2019-09-10T18:06:09.000Z</time></trkpt><trkpt lon="15.6462799" lat="46.4992617"><ele>328</ele><time>2019-09-10T18:06:10.000Z</time></trkpt><trkpt lon="15.6462799" lat="46.4992617"><ele>328</ele><time>2019-09-10T18:06:11.000Z</time></trkpt><trkpt lon="15.6464648" lat="46.4993234"><ele>328</ele><time>2019-09-10T18:06:12.000Z</time></trkpt><trkpt lon="15.6465502" lat="46.4993448"><ele>328</ele><time>2019-09-10T18:06:13.000Z</time></trkpt><trkpt lon="15.6465502" lat="46.4993448"><ele>328</ele><time>2019-09-10T18:06:14.000Z</time></trkpt><trkpt lon="15.6467153" lat="46.4993937"><ele>328</ele><time>2019-09-10T18:06:15.000Z</time></trkpt><trkpt lon="15.6467954" lat="46.4994156"><ele>328</ele><time>2019-09-10T18:06:16.000Z</time></trkpt><trkpt lon="15.6468724" lat="46.4994393"><ele>328</ele><time>2019-09-10T18:06:17.000Z</time></trkpt><trkpt lon="15.6468724" lat="46.4994393"><ele>328</ele><time>2019-09-10T18:06:18.000Z</time></trkpt><trkpt lon="15.6470077" lat="46.4994869"><ele>328</ele><time>2019-09-10T18:06:19.000Z</time></trkpt><trkpt lon="15.6470675" lat="46.4995103"><ele>328</ele><time>2019-09-10T18:06:20.000Z</time></trkpt><trkpt lon="15.6470675" lat="46.4995103"><ele>328</ele><time>2019-09-10T18:06:21.000Z</time></trkpt><trkpt lon="15.6471716" lat="46.4995558"><ele>328</ele><time>2019-09-10T18:06:22.000Z</time></trkpt><trkpt lon="15.6471716" lat="46.4995558"><ele>328</ele><time>2019-09-10T18:06:23.000Z</time></trkpt><trkpt lon="15.6472171" lat="46.4995911"><ele>329</ele><time>2019-09-10T18:06:24.000Z</time></trkpt><trkpt lon="15.6472171" lat="46.4995911"><ele>329</ele><time>2019-09-10T18:06:25.000Z</time></trkpt><trkpt lon="15.6472378" lat="46.4996348"><ele>328</ele><time>2019-09-10T18:06:26.000Z</time></trkpt><trkpt lon="15.6472378" lat="46.4996348"><ele>328</ele><time>2019-09-10T18:06:27.000Z</time></trkpt><trkpt lon="15.6471652" lat="46.4997111"><ele>328</ele><time>2019-09-10T18:06:28.000Z</time></trkpt><trkpt lon="15.6470938" lat="46.4997207"><ele>328</ele><time>2019-09-10T18:06:29.000Z</time></trkpt><trkpt lon="15.647021" lat="46.4997307"><ele>328</ele><time>2019-09-10T18:06:30.000Z</time></trkpt><trkpt lon="15.6469435" lat="46.499739"><ele>328</ele><time>2019-09-10T18:06:31.000Z</time></trkpt><trkpt lon="15.6469435" lat="46.499739"><ele>328</ele><time>2019-09-10T18:06:32.000Z</time></trkpt><trkpt lon="15.6467816" lat="46.4997564"><ele>329</ele><time>2019-09-10T18:06:33.000Z</time></trkpt><trkpt lon="15.6466957" lat="46.4997655"><ele>329</ele><time>2019-09-10T18:06:34.000Z</time></trkpt><trkpt lon="15.6466957" lat="46.4997655"><ele>329</ele><time>2019-09-10T18:06:35.000Z</time></trkpt><trkpt lon="15.6465302" lat="46.4997938"><ele>329</ele><time>2019-09-10T18:06:36.000Z</time></trkpt><trkpt lon="15.6465302" lat="46.4997938"><ele>329</ele><time>2019-09-10T18:06:37.000Z</time></trkpt><trkpt lon="15.6463873" lat="46.4998445"><ele>329</ele><time>2019-09-10T18:06:38.000Z</time></trkpt><trkpt lon="15.6463254" lat="46.4998734"><ele>329</ele><time>2019-09-10T18:06:39.000Z</time></trkpt><trkpt lon="15.6462687" lat="46.4999036"><ele>329</ele><time>2019-09-10T18:06:40.000Z</time></trkpt><trkpt lon="15.6462687" lat="46.4999036"><ele>329</ele><time>2019-09-10T18:06:41.000Z</time></trkpt><trkpt lon="15.6461568" lat="46.4999687"><ele>329</ele><time>2019-09-10T18:06:42.000Z</time></trkpt><trkpt lon="15.6461029" lat="46.5000037"><ele>329</ele><time>2019-09-10T18:06:43.000Z</time></trkpt><trkpt lon="15.6460469" lat="46.5000379"><ele>329</ele><time>2019-09-10T18:06:44.000Z</time></trkpt><trkpt lon="15.6459929" lat="46.5000743"><ele>330</ele><time>2019-09-10T18:06:45.000Z</time></trkpt><trkpt lon="15.6459397" lat="46.5001103"><ele>329</ele><time>2019-09-10T18:06:46.000Z</time></trkpt><trkpt lon="15.6459397" lat="46.5001103"><ele>329</ele><time>2019-09-10T18:06:47.000Z</time></trkpt><trkpt lon="15.6458204" lat="46.5001905"><ele>329</ele><time>2019-09-10T18:06:48.000Z</time></trkpt><trkpt lon="15.6458204" lat="46.5001905"><ele>329</ele><time>2019-09-10T18:06:49.000Z</time></trkpt><trkpt lon="15.6456891" lat="46.5002694"><ele>329</ele><time>2019-09-10T18:06:50.000Z</time></trkpt><trkpt lon="15.6456245" lat="46.500309"><ele>329</ele><time>2019-09-10T18:06:51.000Z</time></trkpt><trkpt lon="15.6455591" lat="46.5003477"><ele>329</ele><time>2019-09-10T18:06:52.000Z</time></trkpt><trkpt lon="15.6454947" lat="46.5003879"><ele>329</ele><time>2019-09-10T18:06:53.000Z</time></trkpt><trkpt lon="15.6454947" lat="46.5003879"><ele>329</ele><time>2019-09-10T18:06:54.000Z</time></trkpt><trkpt lon="15.6453639" lat="46.5004645"><ele>330</ele><time>2019-09-10T18:06:55.000Z</time></trkpt><trkpt lon="15.6453639" lat="46.5004645"><ele>330</ele><time>2019-09-10T18:06:56.000Z</time></trkpt><trkpt lon="15.6452243" lat="46.5005459"><ele>330</ele><time>2019-09-10T18:06:57.000Z</time></trkpt><trkpt lon="15.6451533" lat="46.5005864"><ele>330</ele><time>2019-09-10T18:06:58.000Z</time></trkpt><trkpt lon="15.6451533" lat="46.5005864"><ele>330</ele><time>2019-09-10T18:06:59.000Z</time></trkpt><trkpt lon="15.6450048" lat="46.5006622"><ele>330</ele><time>2019-09-10T18:07:00.000Z</time></trkpt><trkpt lon="15.6450048" lat="46.5006622"><ele>330</ele><time>2019-09-10T18:07:01.000Z</time></trkpt><trkpt lon="15.6448583" lat="46.5007395"><ele>330</ele><time>2019-09-10T18:07:02.000Z</time></trkpt><trkpt lon="15.644786" lat="46.500778"><ele>330</ele><time>2019-09-10T18:07:03.000Z</time></trkpt><trkpt lon="15.644786" lat="46.500778"><ele>330</ele><time>2019-09-10T18:07:04.000Z</time></trkpt><trkpt lon="15.6446405" lat="46.5008556"><ele>330</ele><time>2019-09-10T18:07:05.000Z</time></trkpt><trkpt lon="15.6445661" lat="46.5008937"><ele>330</ele><time>2019-09-10T18:07:06.000Z</time></trkpt><trkpt lon="15.6445661" lat="46.5008937"><ele>330</ele><time>2019-09-10T18:07:07.000Z</time></trkpt><trkpt lon="15.6444242" lat="46.500975"><ele>330</ele><time>2019-09-10T18:07:08.000Z</time></trkpt><trkpt lon="15.6444242" lat="46.500975"><ele>330</ele><time>2019-09-10T18:07:09.000Z</time></trkpt><trkpt lon="15.6443117" lat="46.5010716"><ele>331</ele><time>2019-09-10T18:07:10.000Z</time></trkpt><trkpt lon="15.6442649" lat="46.5011254"><ele>331</ele><time>2019-09-10T18:07:11.000Z</time></trkpt><trkpt lon="15.6442175" lat="46.5011794"><ele>331</ele><time>2019-09-10T18:07:12.000Z</time></trkpt><trkpt lon="15.6442175" lat="46.5011794"><ele>331</ele><time>2019-09-10T18:07:13.000Z</time></trkpt><trkpt lon="15.6441195" lat="46.501284"><ele>331</ele><time>2019-09-10T18:07:14.000Z</time></trkpt><trkpt lon="15.6440651" lat="46.501334"><ele>331</ele><time>2019-09-10T18:07:15.000Z</time></trkpt><trkpt lon="15.6440037" lat="46.50138"><ele>332</ele><time>2019-09-10T18:07:16.000Z</time></trkpt><trkpt lon="15.6440037" lat="46.50138"><ele>332</ele><time>2019-09-10T18:07:17.000Z</time></trkpt><trkpt lon="15.6438634" lat="46.5014549"><ele>332</ele><time>2019-09-10T18:07:18.000Z</time></trkpt><trkpt lon="15.6437854" lat="46.501485"><ele>332</ele><time>2019-09-10T18:07:19.000Z</time></trkpt><trkpt lon="15.6437044" lat="46.5015106"><ele>332</ele><time>2019-09-10T18:07:20.000Z</time></trkpt><trkpt lon="15.6437044" lat="46.5015106"><ele>332</ele><time>2019-09-10T18:07:21.000Z</time></trkpt><trkpt lon="15.6435392" lat="46.5015642"><ele>332</ele><time>2019-09-10T18:07:22.000Z</time></trkpt><trkpt lon="15.6435392" lat="46.5015642"><ele>332</ele><time>2019-09-10T18:07:23.000Z</time></trkpt><trkpt lon="15.6433894" lat="46.5016363"><ele>332</ele><time>2019-09-10T18:07:24.000Z</time></trkpt><trkpt lon="15.64332" lat="46.5016787"><ele>332</ele><time>2019-09-10T18:07:25.000Z</time></trkpt><trkpt lon="15.64332" lat="46.5016787"><ele>332</ele><time>2019-09-10T18:07:26.000Z</time></trkpt><trkpt lon="15.6431959" lat="46.5017757"><ele>332</ele><time>2019-09-10T18:07:27.000Z</time></trkpt><trkpt lon="15.6431959" lat="46.5017757"><ele>332</ele><time>2019-09-10T18:07:28.000Z</time></trkpt><trkpt lon="15.6430839" lat="46.5018804"><ele>332</ele><time>2019-09-10T18:07:29.000Z</time></trkpt><trkpt lon="15.6430377" lat="46.501936"><ele>332</ele><time>2019-09-10T18:07:30.000Z</time></trkpt><trkpt lon="15.6430377" lat="46.501936"><ele>332</ele><time>2019-09-10T18:07:31.000Z</time></trkpt><trkpt lon="15.6429556" lat="46.5020501"><ele>332</ele><time>2019-09-10T18:07:32.000Z</time></trkpt><trkpt lon="15.6429556" lat="46.5020501"><ele>332</ele><time>2019-09-10T18:07:33.000Z</time></trkpt><trkpt lon="15.6428811" lat="46.502165"><ele>332</ele><time>2019-09-10T18:07:34.000Z</time></trkpt><trkpt lon="15.6428446" lat="46.5022251"><ele>332</ele><time>2019-09-10T18:07:35.000Z</time></trkpt><trkpt lon="15.6428105" lat="46.5022847"><ele>332</ele><time>2019-09-10T18:07:36.000Z</time></trkpt><trkpt lon="15.6428105" lat="46.5022847"><ele>332</ele><time>2019-09-10T18:07:37.000Z</time></trkpt><trkpt lon="15.6427406" lat="46.5024059"><ele>332</ele><time>2019-09-10T18:07:38.000Z</time></trkpt><trkpt lon="15.6427081" lat="46.5024668"><ele>332</ele><time>2019-09-10T18:07:39.000Z</time></trkpt><trkpt lon="15.6426786" lat="46.5025284"><ele>332</ele><time>2019-09-10T18:07:40.000Z</time></trkpt><trkpt lon="15.6426786" lat="46.5025284"><ele>332</ele><time>2019-09-10T18:07:41.000Z</time></trkpt><trkpt lon="15.6426205" lat="46.5026501"><ele>333</ele><time>2019-09-10T18:07:42.000Z</time></trkpt><trkpt lon="15.6426205" lat="46.5026501"><ele>333</ele><time>2019-09-10T18:07:43.000Z</time></trkpt><trkpt lon="15.6425647" lat="46.5027731"><ele>333</ele><time>2019-09-10T18:07:44.000Z</time></trkpt><trkpt lon="15.6425379" lat="46.5028357"><ele>333</ele><time>2019-09-10T18:07:45.000Z</time></trkpt><trkpt lon="15.6425379" lat="46.5028357"><ele>333</ele><time>2019-09-10T18:07:46.000Z</time></trkpt><trkpt lon="15.6424878" lat="46.5029608"><ele>333</ele><time>2019-09-10T18:07:47.000Z</time></trkpt><trkpt lon="15.6424878" lat="46.5029608"><ele>333</ele><time>2019-09-10T18:07:48.000Z</time></trkpt><trkpt lon="15.6424419" lat="46.5030885"><ele>333</ele><time>2019-09-10T18:07:49.000Z</time></trkpt><trkpt lon="15.6424419" lat="46.5030885"><ele>333</ele><time>2019-09-10T18:07:50.000Z</time></trkpt><trkpt lon="15.6424042" lat="46.5032212"><ele>332</ele><time>2019-09-10T18:07:51.000Z</time></trkpt><trkpt lon="15.6424042" lat="46.5032212"><ele>332</ele><time>2019-09-10T18:07:52.000Z</time></trkpt><trkpt lon="15.6423677" lat="46.5033562"><ele>332</ele><time>2019-09-10T18:07:53.000Z</time></trkpt><trkpt lon="15.6423677" lat="46.5033562"><ele>332</ele><time>2019-09-10T18:07:54.000Z</time></trkpt><trkpt lon="15.6423319" lat="46.5034889"><ele>332</ele><time>2019-09-10T18:07:55.000Z</time></trkpt><trkpt lon="15.6423147" lat="46.503554"><ele>332</ele><time>2019-09-10T18:07:56.000Z</time></trkpt><trkpt lon="15.6423147" lat="46.503554"><ele>332</ele><time>2019-09-10T18:07:57.000Z</time></trkpt><trkpt lon="15.6422862" lat="46.5036838"><ele>332</ele><time>2019-09-10T18:07:58.000Z</time></trkpt><trkpt lon="15.6422722" lat="46.503748"><ele>332</ele><time>2019-09-10T18:07:59.000Z</time></trkpt><trkpt lon="15.6422598" lat="46.5038122"><ele>332</ele><time>2019-09-10T18:08:00.000Z</time></trkpt><trkpt lon="15.6422598" lat="46.5038122"><ele>332</ele><time>2019-09-10T18:08:01.000Z</time></trkpt><trkpt lon="15.6422362" lat="46.503942"><ele>331</ele><time>2019-09-10T18:08:02.000Z</time></trkpt><trkpt lon="15.6422245" lat="46.5040075"><ele>331</ele><time>2019-09-10T18:08:03.000Z</time></trkpt><trkpt lon="15.6422245" lat="46.5040075"><ele>331</ele><time>2019-09-10T18:08:04.000Z</time></trkpt><trkpt lon="15.6422009" lat="46.5041398"><ele>331</ele><time>2019-09-10T18:08:05.000Z</time></trkpt><trkpt lon="15.6421914" lat="46.5042069"><ele>331</ele><time>2019-09-10T18:08:06.000Z</time></trkpt><trkpt lon="15.6421846" lat="46.5042738"><ele>331</ele><time>2019-09-10T18:08:07.000Z</time></trkpt><trkpt lon="15.6421846" lat="46.5042738"><ele>331</ele><time>2019-09-10T18:08:08.000Z</time></trkpt><trkpt lon="15.6421866" lat="46.5044057"><ele>331</ele><time>2019-09-10T18:08:09.000Z</time></trkpt><trkpt lon="15.6421866" lat="46.5044057"><ele>331</ele><time>2019-09-10T18:08:10.000Z</time></trkpt><trkpt lon="15.6421886" lat="46.504536"><ele>331</ele><time>2019-09-10T18:08:11.000Z</time></trkpt><trkpt lon="15.6421886" lat="46.504536"><ele>331</ele><time>2019-09-10T18:08:12.000Z</time></trkpt><trkpt lon="15.6421692" lat="46.5046657"><ele>331</ele><time>2019-09-10T18:08:13.000Z</time></trkpt><trkpt lon="15.6421692" lat="46.5046657"><ele>331</ele><time>2019-09-10T18:08:14.000Z</time></trkpt><trkpt lon="15.6421247" lat="46.5047933"><ele>331</ele><time>2019-09-10T18:08:15.000Z</time></trkpt><trkpt lon="15.6420979" lat="46.5048567"><ele>331</ele><time>2019-09-10T18:08:16.000Z</time></trkpt><trkpt lon="15.6420702" lat="46.504919"><ele>331</ele><time>2019-09-10T18:08:17.000Z</time></trkpt><trkpt lon="15.6420702" lat="46.504919"><ele>331</ele><time>2019-09-10T18:08:18.000Z</time></trkpt><trkpt lon="15.6420265" lat="46.5050485"><ele>331</ele><time>2019-09-10T18:08:19.000Z</time></trkpt><trkpt lon="15.6420265" lat="46.5050485"><ele>331</ele><time>2019-09-10T18:08:20.000Z</time></trkpt><trkpt lon="15.6419869" lat="46.5051796"><ele>331</ele><time>2019-09-10T18:08:21.000Z</time></trkpt><trkpt lon="15.6419869" lat="46.5051796"><ele>331</ele><time>2019-09-10T18:08:22.000Z</time></trkpt><trkpt lon="15.6419533" lat="46.505314"><ele>330</ele><time>2019-09-10T18:08:23.000Z</time></trkpt><trkpt lon="15.6419382" lat="46.505384"><ele>330</ele><time>2019-09-10T18:08:24.000Z</time></trkpt><trkpt lon="15.6419212" lat="46.5054537"><ele>330</ele><time>2019-09-10T18:08:25.000Z</time></trkpt><trkpt lon="15.6419212" lat="46.5054537"><ele>330</ele><time>2019-09-10T18:08:26.000Z</time></trkpt><trkpt lon="15.6418802" lat="46.5055923"><ele>330</ele><time>2019-09-10T18:08:27.000Z</time></trkpt><trkpt lon="15.6418802" lat="46.5055923"><ele>330</ele><time>2019-09-10T18:08:28.000Z</time></trkpt><trkpt lon="15.6418341" lat="46.5057292"><ele>330</ele><time>2019-09-10T18:08:29.000Z</time></trkpt><trkpt lon="15.6418341" lat="46.5057292"><ele>330</ele><time>2019-09-10T18:08:30.000Z</time></trkpt><trkpt lon="15.6417833" lat="46.5058603"><ele>330</ele><time>2019-09-10T18:08:31.000Z</time></trkpt><trkpt lon="15.6417582" lat="46.5059237"><ele>330</ele><time>2019-09-10T18:08:32.000Z</time></trkpt><trkpt lon="15.6417582" lat="46.5059237"><ele>330</ele><time>2019-09-10T18:08:33.000Z</time></trkpt><trkpt lon="15.641711" lat="46.5060487"><ele>330</ele><time>2019-09-10T18:08:34.000Z</time></trkpt><trkpt lon="15.6416871" lat="46.506113"><ele>330</ele><time>2019-09-10T18:08:35.000Z</time></trkpt><trkpt lon="15.6416871" lat="46.506113"><ele>330</ele><time>2019-09-10T18:08:36.000Z</time></trkpt><trkpt lon="15.6416259" lat="46.506241"><ele>330</ele><time>2019-09-10T18:08:37.000Z</time></trkpt><trkpt lon="15.6415863" lat="46.5063009"><ele>330</ele><time>2019-09-10T18:08:38.000Z</time></trkpt><trkpt lon="15.6415863" lat="46.5063009"><ele>330</ele><time>2019-09-10T18:08:39.000Z</time></trkpt><trkpt lon="15.6414801" lat="46.5064093"><ele>330</ele><time>2019-09-10T18:08:40.000Z</time></trkpt><trkpt lon="15.6414186" lat="46.5064579"><ele>331</ele><time>2019-09-10T18:08:41.000Z</time></trkpt><trkpt lon="15.6414186" lat="46.5064579"><ele>331</ele><time>2019-09-10T18:08:42.000Z</time></trkpt><trkpt lon="15.6412888" lat="46.5065466"><ele>331</ele><time>2019-09-10T18:08:43.000Z</time></trkpt><trkpt lon="15.6412195" lat="46.5065884"><ele>332</ele><time>2019-09-10T18:08:44.000Z</time></trkpt><trkpt lon="15.6412195" lat="46.5065884"><ele>332</ele><time>2019-09-10T18:08:45.000Z</time></trkpt><trkpt lon="15.6410801" lat="46.5066724"><ele>332</ele><time>2019-09-10T18:08:46.000Z</time></trkpt><trkpt lon="15.6410801" lat="46.5066724"><ele>332</ele><time>2019-09-10T18:08:47.000Z</time></trkpt><trkpt lon="15.6409464" lat="46.5067552"><ele>332</ele><time>2019-09-10T18:08:48.000Z</time></trkpt><trkpt lon="15.6408797" lat="46.5067958"><ele>333</ele><time>2019-09-10T18:08:49.000Z</time></trkpt><trkpt lon="15.6408797" lat="46.5067958"><ele>333</ele><time>2019-09-10T18:08:50.000Z</time></trkpt><trkpt lon="15.6407472" lat="46.5068751"><ele>333</ele><time>2019-09-10T18:08:51.000Z</time></trkpt><trkpt lon="15.6407472" lat="46.5068751"><ele>333</ele><time>2019-09-10T18:08:52.000Z</time></trkpt><trkpt lon="15.6406189" lat="46.5069528"><ele>333</ele><time>2019-09-10T18:08:53.000Z</time></trkpt><trkpt lon="15.6405543" lat="46.5069922"><ele>333</ele><time>2019-09-10T18:08:54.000Z</time></trkpt><trkpt lon="15.6405543" lat="46.5069922"><ele>333</ele><time>2019-09-10T18:08:55.000Z</time></trkpt><trkpt lon="15.6404281" lat="46.5070673"><ele>334</ele><time>2019-09-10T18:08:56.000Z</time></trkpt><trkpt lon="15.6403668" lat="46.5071058"><ele>334</ele><time>2019-09-10T18:08:57.000Z</time></trkpt><trkpt lon="15.6403668" lat="46.5071058"><ele>334</ele><time>2019-09-10T18:08:58.000Z</time></trkpt><trkpt lon="15.640246" lat="46.5071798"><ele>334</ele><time>2019-09-10T18:08:59.000Z</time></trkpt><trkpt lon="15.6401871" lat="46.5072178"><ele>334</ele><time>2019-09-10T18:09:00.000Z</time></trkpt><trkpt lon="15.6401871" lat="46.5072178"><ele>334</ele><time>2019-09-10T18:09:01.000Z</time></trkpt><trkpt lon="15.6400635" lat="46.5072978"><ele>334</ele><time>2019-09-10T18:09:02.000Z</time></trkpt><trkpt lon="15.639999" lat="46.5073363"><ele>334</ele><time>2019-09-10T18:09:03.000Z</time></trkpt><trkpt lon="15.639999" lat="46.5073363"><ele>334</ele><time>2019-09-10T18:09:04.000Z</time></trkpt><trkpt lon="15.6398717" lat="46.5074127"><ele>334</ele><time>2019-09-10T18:09:05.000Z</time></trkpt><trkpt lon="15.6398076" lat="46.5074508"><ele>334</ele><time>2019-09-10T18:09:06.000Z</time></trkpt><trkpt lon="15.6398076" lat="46.5074508"><ele>334</ele><time>2019-09-10T18:09:07.000Z</time></trkpt><trkpt lon="15.6396797" lat="46.5075275"><ele>334</ele><time>2019-09-10T18:09:08.000Z</time></trkpt><trkpt lon="15.6396154" lat="46.5075659"><ele>334</ele><time>2019-09-10T18:09:09.000Z</time></trkpt><trkpt lon="15.6396154" lat="46.5075659"><ele>334</ele><time>2019-09-10T18:09:10.000Z</time></trkpt><trkpt lon="15.6394893" lat="46.5076476"><ele>334</ele><time>2019-09-10T18:09:11.000Z</time></trkpt><trkpt lon="15.6394265" lat="46.5076912"><ele>334</ele><time>2019-09-10T18:09:12.000Z</time></trkpt><trkpt lon="15.6394265" lat="46.5076912"><ele>334</ele><time>2019-09-10T18:09:13.000Z</time></trkpt><trkpt lon="15.639313" lat="46.5077872"><ele>334</ele><time>2019-09-10T18:09:14.000Z</time></trkpt><trkpt lon="15.6392677" lat="46.5078408"><ele>334</ele><time>2019-09-10T18:09:15.000Z</time></trkpt><trkpt lon="15.6392303" lat="46.5078981"><ele>334</ele><time>2019-09-10T18:09:16.000Z</time></trkpt><trkpt lon="15.6392303" lat="46.5078981"><ele>334</ele><time>2019-09-10T18:09:17.000Z</time></trkpt><trkpt lon="15.6391599" lat="46.5080159"><ele>334</ele><time>2019-09-10T18:09:18.000Z</time></trkpt><trkpt lon="15.639127" lat="46.5080763"><ele>334</ele><time>2019-09-10T18:09:19.000Z</time></trkpt><trkpt lon="15.639127" lat="46.5080763"><ele>334</ele><time>2019-09-10T18:09:20.000Z</time></trkpt><trkpt lon="15.6390588" lat="46.508194"><ele>334</ele><time>2019-09-10T18:09:21.000Z</time></trkpt><trkpt lon="15.6390588" lat="46.508194"><ele>334</ele><time>2019-09-10T18:09:22.000Z</time></trkpt><trkpt lon="15.6389833" lat="46.5083091"><ele>334</ele><time>2019-09-10T18:09:23.000Z</time></trkpt><trkpt lon="15.6389833" lat="46.5083091"><ele>334</ele><time>2019-09-10T18:09:24.000Z</time></trkpt><trkpt lon="15.6389088" lat="46.5084231"><ele>335</ele><time>2019-09-10T18:09:25.000Z</time></trkpt><trkpt lon="15.6388693" lat="46.5084798"><ele>335</ele><time>2019-09-10T18:09:26.000Z</time></trkpt><trkpt lon="15.6388693" lat="46.5084798"><ele>335</ele><time>2019-09-10T18:09:27.000Z</time></trkpt><trkpt lon="15.6387914" lat="46.5085947"><ele>335</ele><time>2019-09-10T18:09:28.000Z</time></trkpt><trkpt lon="15.6387914" lat="46.5085947"><ele>335</ele><time>2019-09-10T18:09:29.000Z</time></trkpt><trkpt lon="15.6387137" lat="46.5087114"><ele>335</ele><time>2019-09-10T18:09:30.000Z</time></trkpt><trkpt lon="15.6387137" lat="46.5087114"><ele>335</ele><time>2019-09-10T18:09:31.000Z</time></trkpt><trkpt lon="15.6386342" lat="46.5088265"><ele>335</ele><time>2019-09-10T18:09:32.000Z</time></trkpt><trkpt lon="15.6386342" lat="46.5088265"><ele>335</ele><time>2019-09-10T18:09:33.000Z</time></trkpt><trkpt lon="15.6385551" lat="46.5089412"><ele>335</ele><time>2019-09-10T18:09:34.000Z</time></trkpt><trkpt lon="15.6385551" lat="46.5089412"><ele>335</ele><time>2019-09-10T18:09:35.000Z</time></trkpt><trkpt lon="15.6384751" lat="46.5090518"><ele>336</ele><time>2019-09-10T18:09:36.000Z</time></trkpt><trkpt lon="15.6384751" lat="46.5090518"><ele>336</ele><time>2019-09-10T18:09:37.000Z</time></trkpt><trkpt lon="15.6383986" lat="46.5091616"><ele>336</ele><time>2019-09-10T18:09:38.000Z</time></trkpt><trkpt lon="15.6383986" lat="46.5091616"><ele>336</ele><time>2019-09-10T18:09:39.000Z</time></trkpt><trkpt lon="15.6383196" lat="46.5092733"><ele>337</ele><time>2019-09-10T18:09:40.000Z</time></trkpt><trkpt lon="15.6382812" lat="46.509329"><ele>337</ele><time>2019-09-10T18:09:41.000Z</time></trkpt><trkpt lon="15.6382812" lat="46.509329"><ele>337</ele><time>2019-09-10T18:09:42.000Z</time></trkpt><trkpt lon="15.6382014" lat="46.5094385"><ele>338</ele><time>2019-09-10T18:09:43.000Z</time></trkpt><trkpt lon="15.6381617" lat="46.5094916"><ele>338</ele><time>2019-09-10T18:09:44.000Z</time></trkpt><trkpt lon="15.6381225" lat="46.5095442"><ele>338</ele><time>2019-09-10T18:09:45.000Z</time></trkpt><trkpt lon="15.6381225" lat="46.5095442"><ele>338</ele><time>2019-09-10T18:09:46.000Z</time></trkpt><trkpt lon="15.6380446" lat="46.5096473"><ele>339</ele><time>2019-09-10T18:09:47.000Z</time></trkpt><trkpt lon="15.6380446" lat="46.5096473"><ele>339</ele><time>2019-09-10T18:09:48.000Z</time></trkpt><trkpt lon="15.6379706" lat="46.5097441"><ele>340</ele><time>2019-09-10T18:09:49.000Z</time></trkpt><trkpt lon="15.6379334" lat="46.509792"><ele>340</ele><time>2019-09-10T18:09:50.000Z</time></trkpt><trkpt lon="15.6379334" lat="46.509792"><ele>340</ele><time>2019-09-10T18:09:51.000Z</time></trkpt><trkpt lon="15.63786" lat="46.5098854"><ele>341</ele><time>2019-09-10T18:09:52.000Z</time></trkpt><trkpt lon="15.6378232" lat="46.5099309"><ele>341</ele><time>2019-09-10T18:09:53.000Z</time></trkpt><trkpt lon="15.6377829" lat="46.5099761"><ele>341</ele><time>2019-09-10T18:09:54.000Z</time></trkpt><trkpt lon="15.6377414" lat="46.5100206"><ele>341</ele><time>2019-09-10T18:09:55.000Z</time></trkpt><trkpt lon="15.6377414" lat="46.5100206"><ele>341</ele><time>2019-09-10T18:09:56.000Z</time></trkpt><trkpt lon="15.6376565" lat="46.5101055"><ele>341</ele><time>2019-09-10T18:09:57.000Z</time></trkpt><trkpt lon="15.6376565" lat="46.5101055"><ele>341</ele><time>2019-09-10T18:09:58.000Z</time></trkpt><trkpt lon="15.637567" lat="46.5101945"><ele>342</ele><time>2019-09-10T18:09:59.000Z</time></trkpt><trkpt lon="15.6375233" lat="46.5102376"><ele>342</ele><time>2019-09-10T18:10:00.000Z</time></trkpt><trkpt lon="15.6374797" lat="46.5102804"><ele>342</ele><time>2019-09-10T18:10:01.000Z</time></trkpt><trkpt lon="15.6374797" lat="46.5102804"><ele>342</ele><time>2019-09-10T18:10:02.000Z</time></trkpt><trkpt lon="15.6373932" lat="46.5103673"><ele>342</ele><time>2019-09-10T18:10:03.000Z</time></trkpt><trkpt lon="15.6373932" lat="46.5103673"><ele>342</ele><time>2019-09-10T18:10:04.000Z</time></trkpt><trkpt lon="15.6373078" lat="46.5104571"><ele>342</ele><time>2019-09-10T18:10:05.000Z</time></trkpt><trkpt lon="15.6373078" lat="46.5104571"><ele>342</ele><time>2019-09-10T18:10:06.000Z</time></trkpt><trkpt lon="15.6372221" lat="46.5105432"><ele>343</ele><time>2019-09-10T18:10:07.000Z</time></trkpt><trkpt lon="15.6372221" lat="46.5105432"><ele>343</ele><time>2019-09-10T18:10:08.000Z</time></trkpt><trkpt lon="15.6371359" lat="46.5106273"><ele>343</ele><time>2019-09-10T18:10:09.000Z</time></trkpt><trkpt lon="15.6370921" lat="46.5106684"><ele>343</ele><time>2019-09-10T18:10:10.000Z</time></trkpt><trkpt lon="15.6370921" lat="46.5106684"><ele>343</ele><time>2019-09-10T18:10:11.000Z</time></trkpt><trkpt lon="15.637006" lat="46.5107515"><ele>343</ele><time>2019-09-10T18:10:12.000Z</time></trkpt><trkpt lon="15.6369617" lat="46.5107932"><ele>343</ele><time>2019-09-10T18:10:13.000Z</time></trkpt><trkpt lon="15.6369617" lat="46.5107932"><ele>343</ele><time>2019-09-10T18:10:14.000Z</time></trkpt><trkpt lon="15.6368677" lat="46.5108785"><ele>344</ele><time>2019-09-10T18:10:15.000Z</time></trkpt><trkpt lon="15.6368204" lat="46.5109201"><ele>344</ele><time>2019-09-10T18:10:16.000Z</time></trkpt><trkpt lon="15.6368204" lat="46.5109201"><ele>344</ele><time>2019-09-10T18:10:17.000Z</time></trkpt><trkpt lon="15.6367235" lat="46.5110002"><ele>344</ele><time>2019-09-10T18:10:18.000Z</time></trkpt><trkpt lon="15.6367235" lat="46.5110002"><ele>344</ele><time>2019-09-10T18:10:19.000Z</time></trkpt><trkpt lon="15.6366225" lat="46.5110755"><ele>345</ele><time>2019-09-10T18:10:20.000Z</time></trkpt><trkpt lon="15.6365709" lat="46.5111123"><ele>345</ele><time>2019-09-10T18:10:21.000Z</time></trkpt><trkpt lon="15.6365192" lat="46.5111495"><ele>345</ele><time>2019-09-10T18:10:22.000Z</time></trkpt><trkpt lon="15.6365192" lat="46.5111495"><ele>345</ele><time>2019-09-10T18:10:23.000Z</time></trkpt><trkpt lon="15.6364162" lat="46.5112245"><ele>345</ele><time>2019-09-10T18:10:24.000Z</time></trkpt><trkpt lon="15.6364162" lat="46.5112245"><ele>345</ele><time>2019-09-10T18:10:25.000Z</time></trkpt><trkpt lon="15.6363149" lat="46.5113012"><ele>346</ele><time>2019-09-10T18:10:26.000Z</time></trkpt><trkpt lon="15.6362649" lat="46.5113394"><ele>346</ele><time>2019-09-10T18:10:27.000Z</time></trkpt><trkpt lon="15.6362649" lat="46.5113394"><ele>346</ele><time>2019-09-10T18:10:28.000Z</time></trkpt><trkpt lon="15.6361694" lat="46.5114188"><ele>347</ele><time>2019-09-10T18:10:29.000Z</time></trkpt><trkpt lon="15.6361254" lat="46.5114595"><ele>347</ele><time>2019-09-10T18:10:30.000Z</time></trkpt><trkpt lon="15.6361254" lat="46.5114595"><ele>347</ele><time>2019-09-10T18:10:31.000Z</time></trkpt><trkpt lon="15.6360521" lat="46.5115412"><ele>347</ele><time>2019-09-10T18:10:32.000Z</time></trkpt><trkpt lon="15.6360252" lat="46.511586"><ele>348</ele><time>2019-09-10T18:10:33.000Z</time></trkpt><trkpt lon="15.6360025" lat="46.5116326"><ele>348</ele><time>2019-09-10T18:10:34.000Z</time></trkpt><trkpt lon="15.6360025" lat="46.5116326"><ele>348</ele><time>2019-09-10T18:10:35.000Z</time></trkpt><trkpt lon="15.6359599" lat="46.5117296"><ele>348</ele><time>2019-09-10T18:10:36.000Z</time></trkpt><trkpt lon="15.6359599" lat="46.5117296"><ele>348</ele><time>2019-09-10T18:10:37.000Z</time></trkpt><trkpt lon="15.6359103" lat="46.5118271"><ele>348</ele><time>2019-09-10T18:10:38.000Z</time></trkpt><trkpt lon="15.6358852" lat="46.5118749"><ele>348</ele><time>2019-09-10T18:10:39.000Z</time></trkpt><trkpt lon="15.6358619" lat="46.5119251"><ele>348</ele><time>2019-09-10T18:10:40.000Z</time></trkpt><trkpt lon="15.6358619" lat="46.5119251"><ele>348</ele><time>2019-09-10T18:10:41.000Z</time></trkpt><trkpt lon="15.635807" lat="46.5120215"><ele>348</ele><time>2019-09-10T18:10:42.000Z</time></trkpt><trkpt lon="15.6357792" lat="46.5120684"><ele>348</ele><time>2019-09-10T18:10:43.000Z</time></trkpt><trkpt lon="15.6357792" lat="46.5120684"><ele>348</ele><time>2019-09-10T18:10:44.000Z</time></trkpt><trkpt lon="15.6357291" lat="46.5121647"><ele>348</ele><time>2019-09-10T18:10:45.000Z</time></trkpt><trkpt lon="15.6357291" lat="46.5121647"><ele>348</ele><time>2019-09-10T18:10:46.000Z</time></trkpt><trkpt lon="15.6356765" lat="46.512261"><ele>348</ele><time>2019-09-10T18:10:47.000Z</time></trkpt><trkpt lon="15.6356765" lat="46.512261"><ele>348</ele><time>2019-09-10T18:10:48.000Z</time></trkpt><trkpt lon="15.6356254" lat="46.5123596"><ele>349</ele><time>2019-09-10T18:10:49.000Z</time></trkpt><trkpt lon="15.6355966" lat="46.5124079"><ele>349</ele><time>2019-09-10T18:10:50.000Z</time></trkpt><trkpt lon="15.6355723" lat="46.5124567"><ele>349</ele><time>2019-09-10T18:10:51.000Z</time></trkpt><trkpt lon="15.6355474" lat="46.5125051"><ele>349</ele><time>2019-09-10T18:10:52.000Z</time></trkpt><trkpt lon="15.6355474" lat="46.5125051"><ele>349</ele><time>2019-09-10T18:10:53.000Z</time></trkpt><trkpt lon="15.6354963" lat="46.5126022"><ele>349</ele><time>2019-09-10T18:10:54.000Z</time></trkpt><trkpt lon="15.6354735" lat="46.5126523"><ele>349</ele><time>2019-09-10T18:10:55.000Z</time></trkpt><trkpt lon="15.6354528" lat="46.5127034"><ele>349</ele><time>2019-09-10T18:10:56.000Z</time></trkpt><trkpt lon="15.6354327" lat="46.5127553"><ele>349</ele><time>2019-09-10T18:10:57.000Z</time></trkpt><trkpt lon="15.6354105" lat="46.5128072"><ele>349</ele><time>2019-09-10T18:10:58.000Z</time></trkpt><trkpt lon="15.6354105" lat="46.5128072"><ele>349</ele><time>2019-09-10T18:10:59.000Z</time></trkpt><trkpt lon="15.6353632" lat="46.5129143"><ele>350</ele><time>2019-09-10T18:11:00.000Z</time></trkpt><trkpt lon="15.6353632" lat="46.5129143"><ele>350</ele><time>2019-09-10T18:11:01.000Z</time></trkpt><trkpt lon="15.6353136" lat="46.5130285"><ele>349</ele><time>2019-09-10T18:11:02.000Z</time></trkpt><trkpt lon="15.635289" lat="46.5130869"><ele>349</ele><time>2019-09-10T18:11:03.000Z</time></trkpt><trkpt lon="15.635289" lat="46.5130869"><ele>349</ele><time>2019-09-10T18:11:04.000Z</time></trkpt><trkpt lon="15.6352396" lat="46.5132042"><ele>350</ele><time>2019-09-10T18:11:05.000Z</time></trkpt><trkpt lon="15.6352159" lat="46.5132634"><ele>350</ele><time>2019-09-10T18:11:06.000Z</time></trkpt><trkpt lon="15.6351916" lat="46.513322"><ele>350</ele><time>2019-09-10T18:11:07.000Z</time></trkpt><trkpt lon="15.6351619" lat="46.5133784"><ele>350</ele><time>2019-09-10T18:11:08.000Z</time></trkpt><trkpt lon="15.6351619" lat="46.5133784"><ele>350</ele><time>2019-09-10T18:11:09.000Z</time></trkpt><trkpt lon="15.6351113" lat="46.5134917"><ele>350</ele><time>2019-09-10T18:11:10.000Z</time></trkpt><trkpt lon="15.6350868" lat="46.5135506"><ele>350</ele><time>2019-09-10T18:11:11.000Z</time></trkpt><trkpt lon="15.6350584" lat="46.513609"><ele>350</ele><time>2019-09-10T18:11:12.000Z</time></trkpt><trkpt lon="15.6350584" lat="46.513609"><ele>350</ele><time>2019-09-10T18:11:13.000Z</time></trkpt><trkpt lon="15.634999" lat="46.5137265"><ele>349</ele><time>2019-09-10T18:11:14.000Z</time></trkpt><trkpt lon="15.6349723" lat="46.5137869"><ele>349</ele><time>2019-09-10T18:11:15.000Z</time></trkpt><trkpt lon="15.6349723" lat="46.5137869"><ele>349</ele><time>2019-09-10T18:11:16.000Z</time></trkpt><trkpt lon="15.6349175" lat="46.5139075"><ele>350</ele><time>2019-09-10T18:11:17.000Z</time></trkpt><trkpt lon="15.6349175" lat="46.5139075"><ele>350</ele><time>2019-09-10T18:11:18.000Z</time></trkpt><trkpt lon="15.6348728" lat="46.514027"><ele>349</ele><time>2019-09-10T18:11:19.000Z</time></trkpt><trkpt lon="15.6348539" lat="46.5140864"><ele>349</ele><time>2019-09-10T18:11:20.000Z</time></trkpt><trkpt lon="15.6348326" lat="46.514148"><ele>349</ele><time>2019-09-10T18:11:21.000Z</time></trkpt><trkpt lon="15.6348326" lat="46.514148"><ele>349</ele><time>2019-09-10T18:11:22.000Z</time></trkpt><trkpt lon="15.6347905" lat="46.5142849"><ele>349</ele><time>2019-09-10T18:11:23.000Z</time></trkpt><trkpt lon="15.6347905" lat="46.5142849"><ele>349</ele><time>2019-09-10T18:11:24.000Z</time></trkpt><trkpt lon="15.6347471" lat="46.5144337"><ele>348</ele><time>2019-09-10T18:11:25.000Z</time></trkpt><trkpt lon="15.6347311" lat="46.5145119"><ele>347</ele><time>2019-09-10T18:11:26.000Z</time></trkpt><trkpt lon="15.6347311" lat="46.5145119"><ele>347</ele><time>2019-09-10T18:11:27.000Z</time></trkpt><trkpt lon="15.6347301" lat="46.5146654"><ele>347</ele><time>2019-09-10T18:11:28.000Z</time></trkpt><trkpt lon="15.6347601" lat="46.5147392"><ele>346</ele><time>2019-09-10T18:11:29.000Z</time></trkpt><trkpt lon="15.6348121" lat="46.5148104"><ele>346</ele><time>2019-09-10T18:11:30.000Z</time></trkpt><trkpt lon="15.6348121" lat="46.5148104"><ele>346</ele><time>2019-09-10T18:11:31.000Z</time></trkpt><trkpt lon="15.6349496" lat="46.5149456"><ele>345</ele><time>2019-09-10T18:11:32.000Z</time></trkpt><trkpt lon="15.6349496" lat="46.5149456"><ele>345</ele><time>2019-09-10T18:11:33.000Z</time></trkpt><trkpt lon="15.6351361" lat="46.5150622"><ele>344</ele><time>2019-09-10T18:11:34.000Z</time></trkpt><trkpt lon="15.6351361" lat="46.5150622"><ele>344</ele><time>2019-09-10T18:11:35.000Z</time></trkpt><trkpt lon="15.6353163" lat="46.5151738"><ele>344</ele><time>2019-09-10T18:11:36.000Z</time></trkpt><trkpt lon="15.6353914" lat="46.5152311"><ele>343</ele><time>2019-09-10T18:11:37.000Z</time></trkpt><trkpt lon="15.6354539" lat="46.5152942"><ele>343</ele><time>2019-09-10T18:11:38.000Z</time></trkpt><trkpt lon="15.6355021" lat="46.5153651"><ele>343</ele><time>2019-09-10T18:11:39.000Z</time></trkpt><trkpt lon="15.6355021" lat="46.5153651"><ele>343</ele><time>2019-09-10T18:11:40.000Z</time></trkpt><trkpt lon="15.6355503" lat="46.5155292"><ele>342</ele><time>2019-09-10T18:11:41.000Z</time></trkpt><trkpt lon="15.6355503" lat="46.5155292"><ele>342</ele><time>2019-09-10T18:11:42.000Z</time></trkpt><trkpt lon="15.635534" lat="46.5157008"><ele>342</ele><time>2019-09-10T18:11:43.000Z</time></trkpt><trkpt lon="15.635534" lat="46.5157008"><ele>342</ele><time>2019-09-10T18:11:44.000Z</time></trkpt><trkpt lon="15.6354402" lat="46.51585"><ele>341</ele><time>2019-09-10T18:11:45.000Z</time></trkpt><trkpt lon="15.635389" lat="46.5159158"><ele>341</ele><time>2019-09-10T18:11:46.000Z</time></trkpt><trkpt lon="15.6353477" lat="46.5159806"><ele>341</ele><time>2019-09-10T18:11:47.000Z</time></trkpt><trkpt lon="15.6353477" lat="46.5159806"><ele>341</ele><time>2019-09-10T18:11:48.000Z</time></trkpt><trkpt lon="15.6352806" lat="46.5161139"><ele>341</ele><time>2019-09-10T18:11:49.000Z</time></trkpt><trkpt lon="15.6352567" lat="46.5161847"><ele>341</ele><time>2019-09-10T18:11:50.000Z</time></trkpt><trkpt lon="15.6352369" lat="46.5162592"><ele>341</ele><time>2019-09-10T18:11:51.000Z</time></trkpt><trkpt lon="15.6352369" lat="46.5162592"><ele>341</ele><time>2019-09-10T18:11:52.000Z</time></trkpt><trkpt lon="15.6351972" lat="46.5164093"><ele>341</ele><time>2019-09-10T18:11:53.000Z</time></trkpt><trkpt lon="15.6351796" lat="46.5164849"><ele>340</ele><time>2019-09-10T18:11:54.000Z</time></trkpt><trkpt lon="15.6351796" lat="46.5164849"><ele>340</ele><time>2019-09-10T18:11:55.000Z</time></trkpt><trkpt lon="15.6351131" lat="46.5166261"><ele>340</ele><time>2019-09-10T18:11:56.000Z</time></trkpt><trkpt lon="15.6350714" lat="46.5166919"><ele>340</ele><time>2019-09-10T18:11:57.000Z</time></trkpt><trkpt lon="15.6350296" lat="46.5167563"><ele>340</ele><time>2019-09-10T18:11:58.000Z</time></trkpt><trkpt lon="15.6350296" lat="46.5167563"><ele>340</ele><time>2019-09-10T18:11:59.000Z</time></trkpt><trkpt lon="15.6349341" lat="46.5168767"><ele>340</ele><time>2019-09-10T18:12:00.000Z</time></trkpt><trkpt lon="15.6348871" lat="46.5169342"><ele>340</ele><time>2019-09-10T18:12:01.000Z</time></trkpt><trkpt lon="15.6348871" lat="46.5169342"><ele>340</ele><time>2019-09-10T18:12:02.000Z</time></trkpt><trkpt lon="15.6347892" lat="46.5170449"><ele>340</ele><time>2019-09-10T18:12:03.000Z</time></trkpt><trkpt lon="15.6347443" lat="46.5170998"><ele>340</ele><time>2019-09-10T18:12:04.000Z</time></trkpt><trkpt lon="15.6347443" lat="46.5170998"><ele>340</ele><time>2019-09-10T18:12:05.000Z</time></trkpt><trkpt lon="15.6346566" lat="46.5172104"><ele>341</ele><time>2019-09-10T18:12:06.000Z</time></trkpt><trkpt lon="15.6346119" lat="46.5172645"><ele>341</ele><time>2019-09-10T18:12:07.000Z</time></trkpt><trkpt lon="15.634569" lat="46.5173185"><ele>341</ele><time>2019-09-10T18:12:08.000Z</time></trkpt><trkpt lon="15.6345278" lat="46.517373"><ele>341</ele><time>2019-09-10T18:12:09.000Z</time></trkpt><trkpt lon="15.6345278" lat="46.517373"><ele>341</ele><time>2019-09-10T18:12:10.000Z</time></trkpt><trkpt lon="15.6344655" lat="46.5174641"><ele>341</ele><time>2019-09-10T18:12:11.000Z</time></trkpt><trkpt lon="15.6344655" lat="46.5174641"><ele>341</ele><time>2019-09-10T18:12:12.000Z</time></trkpt><trkpt lon="15.6344443" lat="46.5175081"><ele>341</ele><time>2019-09-10T18:12:13.000Z</time></trkpt><trkpt lon="15.6344443" lat="46.5175081"><ele>341</ele><time>2019-09-10T18:12:14.000Z</time></trkpt><trkpt lon="15.6344118" lat="46.5176056"><ele>341</ele><time>2019-09-10T18:12:15.000Z</time></trkpt><trkpt lon="15.6344046" lat="46.5176551"><ele>341</ele><time>2019-09-10T18:12:16.000Z</time></trkpt><trkpt lon="15.6344046" lat="46.5176551"><ele>341</ele><time>2019-09-10T18:12:17.000Z</time></trkpt><trkpt lon="15.6343982" lat="46.5177642"><ele>341</ele><time>2019-09-10T18:12:18.000Z</time></trkpt><trkpt lon="15.6343959" lat="46.517818"><ele>341</ele><time>2019-09-10T18:12:19.000Z</time></trkpt><trkpt lon="15.6343959" lat="46.517818"><ele>341</ele><time>2019-09-10T18:12:20.000Z</time></trkpt><trkpt lon="15.6343981" lat="46.5179171"><ele>341</ele><time>2019-09-10T18:12:21.000Z</time></trkpt><trkpt lon="15.6343943" lat="46.5179645"><ele>341</ele><time>2019-09-10T18:12:22.000Z</time></trkpt><trkpt lon="15.6343943" lat="46.5179645"><ele>341</ele><time>2019-09-10T18:12:23.000Z</time></trkpt><trkpt lon="15.6343648" lat="46.5180642"><ele>341</ele><time>2019-09-10T18:12:24.000Z</time></trkpt><trkpt lon="15.6343648" lat="46.5180642"><ele>341</ele><time>2019-09-10T18:12:25.000Z</time></trkpt><trkpt lon="15.6343573" lat="46.5181738"><ele>340</ele><time>2019-09-10T18:12:26.000Z</time></trkpt><trkpt lon="15.6343573" lat="46.5181738"><ele>340</ele><time>2019-09-10T18:12:27.000Z</time></trkpt><trkpt lon="15.6343529" lat="46.5182858"><ele>340</ele><time>2019-09-10T18:12:28.000Z</time></trkpt><trkpt lon="15.6343529" lat="46.5182858"><ele>340</ele><time>2019-09-10T18:12:29.000Z</time></trkpt><trkpt lon="15.6343588" lat="46.5183977"><ele>340</ele><time>2019-09-10T18:12:30.000Z</time></trkpt><trkpt lon="15.6343588" lat="46.5183977"><ele>340</ele><time>2019-09-10T18:12:31.000Z</time></trkpt><trkpt lon="15.6343502" lat="46.5185107"><ele>339</ele><time>2019-09-10T18:12:32.000Z</time></trkpt><trkpt lon="15.6343475" lat="46.5185686"><ele>339</ele><time>2019-09-10T18:12:33.000Z</time></trkpt><trkpt lon="15.6343475" lat="46.5185686"><ele>339</ele><time>2019-09-10T18:12:34.000Z</time></trkpt><trkpt lon="15.6343394" lat="46.5186946"><ele>339</ele><time>2019-09-10T18:12:35.000Z</time></trkpt><trkpt lon="15.6343394" lat="46.5186946"><ele>339</ele><time>2019-09-10T18:12:36.000Z</time></trkpt><trkpt lon="15.6343283" lat="46.5188197"><ele>339</ele><time>2019-09-10T18:12:37.000Z</time></trkpt><trkpt lon="15.6343276" lat="46.5188816"><ele>339</ele><time>2019-09-10T18:12:38.000Z</time></trkpt><trkpt lon="15.6343295" lat="46.5189426"><ele>339</ele><time>2019-09-10T18:12:39.000Z</time></trkpt><trkpt lon="15.6343323" lat="46.5190031"><ele>338</ele><time>2019-09-10T18:12:40.000Z</time></trkpt><trkpt lon="15.6343323" lat="46.5190031"><ele>338</ele><time>2019-09-10T18:12:41.000Z</time></trkpt><trkpt lon="15.6343642" lat="46.5191245"><ele>338</ele><time>2019-09-10T18:12:42.000Z</time></trkpt><trkpt lon="15.6343642" lat="46.5191245"><ele>338</ele><time>2019-09-10T18:12:43.000Z</time></trkpt><trkpt lon="15.6344071" lat="46.5192519"><ele>338</ele><time>2019-09-10T18:12:44.000Z</time></trkpt><trkpt lon="15.6344071" lat="46.5192519"><ele>338</ele><time>2019-09-10T18:12:45.000Z</time></trkpt><trkpt lon="15.6344489" lat="46.5193853"><ele>337</ele><time>2019-09-10T18:12:46.000Z</time></trkpt><trkpt lon="15.6344489" lat="46.5193853"><ele>337</ele><time>2019-09-10T18:12:47.000Z</time></trkpt><trkpt lon="15.6344935" lat="46.5195184"><ele>337</ele><time>2019-09-10T18:12:48.000Z</time></trkpt><trkpt lon="15.6345151" lat="46.5195845"><ele>337</ele><time>2019-09-10T18:12:49.000Z</time></trkpt><trkpt lon="15.6345151" lat="46.5195845"><ele>337</ele><time>2019-09-10T18:12:50.000Z</time></trkpt><trkpt lon="15.6345577" lat="46.5197169"><ele>336</ele><time>2019-09-10T18:12:51.000Z</time></trkpt><trkpt lon="15.6345813" lat="46.5197817"><ele>336</ele><time>2019-09-10T18:12:52.000Z</time></trkpt><trkpt lon="15.6345813" lat="46.5197817"><ele>336</ele><time>2019-09-10T18:12:53.000Z</time></trkpt><trkpt lon="15.6346247" lat="46.5199118"><ele>336</ele><time>2019-09-10T18:12:54.000Z</time></trkpt><trkpt lon="15.634646" lat="46.5199758"><ele>336</ele><time>2019-09-10T18:12:55.000Z</time></trkpt><trkpt lon="15.634646" lat="46.5199758"><ele>336</ele><time>2019-09-10T18:12:56.000Z</time></trkpt><trkpt lon="15.6346864" lat="46.5201072"><ele>335</ele><time>2019-09-10T18:12:57.000Z</time></trkpt><trkpt lon="15.6347077" lat="46.5201737"><ele>335</ele><time>2019-09-10T18:12:58.000Z</time></trkpt><trkpt lon="15.6347299" lat="46.5202402"><ele>335</ele><time>2019-09-10T18:12:59.000Z</time></trkpt><trkpt lon="15.6347299" lat="46.5202402"><ele>335</ele><time>2019-09-10T18:13:00.000Z</time></trkpt><trkpt lon="15.6347732" lat="46.5203716"><ele>335</ele><time>2019-09-10T18:13:01.000Z</time></trkpt><trkpt lon="15.6347932" lat="46.5204372"><ele>335</ele><time>2019-09-10T18:13:02.000Z</time></trkpt><trkpt lon="15.6347932" lat="46.5204372"><ele>335</ele><time>2019-09-10T18:13:03.000Z</time></trkpt><trkpt lon="15.6348373" lat="46.5205678"><ele>335</ele><time>2019-09-10T18:13:04.000Z</time></trkpt><trkpt lon="15.634862" lat="46.5206328"><ele>334</ele><time>2019-09-10T18:13:05.000Z</time></trkpt><trkpt lon="15.634862" lat="46.5206328"><ele>334</ele><time>2019-09-10T18:13:06.000Z</time></trkpt><trkpt lon="15.6349045" lat="46.5207632"><ele>334</ele><time>2019-09-10T18:13:07.000Z</time></trkpt><trkpt lon="15.6349244" lat="46.5208275"><ele>334</ele><time>2019-09-10T18:13:08.000Z</time></trkpt><trkpt lon="15.6349244" lat="46.5208275"><ele>334</ele><time>2019-09-10T18:13:09.000Z</time></trkpt><trkpt lon="15.6349643" lat="46.5209554"><ele>334</ele><time>2019-09-10T18:13:10.000Z</time></trkpt><trkpt lon="15.6349643" lat="46.5209554"><ele>334</ele><time>2019-09-10T18:13:11.000Z</time></trkpt><trkpt lon="15.6350057" lat="46.5210833"><ele>334</ele><time>2019-09-10T18:13:12.000Z</time></trkpt><trkpt lon="15.6350057" lat="46.5210833"><ele>334</ele><time>2019-09-10T18:13:13.000Z</time></trkpt><trkpt lon="15.6350489" lat="46.5212078"><ele>334</ele><time>2019-09-10T18:13:14.000Z</time></trkpt><trkpt lon="15.6350697" lat="46.5212689"><ele>333</ele><time>2019-09-10T18:13:15.000Z</time></trkpt><trkpt lon="15.6350882" lat="46.5213278"><ele>333</ele><time>2019-09-10T18:13:16.000Z</time></trkpt><trkpt lon="15.6351092" lat="46.5213845"><ele>333</ele><time>2019-09-10T18:13:17.000Z</time></trkpt><trkpt lon="15.6351092" lat="46.5213845"><ele>333</ele><time>2019-09-10T18:13:18.000Z</time></trkpt><trkpt lon="15.6351502" lat="46.5214903"><ele>333</ele><time>2019-09-10T18:13:19.000Z</time></trkpt><trkpt lon="15.6351632" lat="46.5215388"><ele>333</ele><time>2019-09-10T18:13:20.000Z</time></trkpt><trkpt lon="15.6351632" lat="46.5215388"><ele>333</ele><time>2019-09-10T18:13:21.000Z</time></trkpt><trkpt lon="15.6351671" lat="46.5216004"><ele>333</ele><time>2019-09-10T18:13:22.000Z</time></trkpt><trkpt lon="15.6351671" lat="46.5216004"><ele>333</ele><time>2019-09-10T18:13:23.000Z</time></trkpt><trkpt lon="15.6351684" lat="46.5216481"><ele>333</ele><time>2019-09-10T18:13:24.000Z</time></trkpt><trkpt lon="15.6351684" lat="46.5216481"><ele>333</ele><time>2019-09-10T18:13:25.000Z</time></trkpt><trkpt lon="15.6351754" lat="46.5217023"><ele>333</ele><time>2019-09-10T18:13:26.000Z</time></trkpt><trkpt lon="15.6351935" lat="46.5217716"><ele>333</ele><time>2019-09-10T18:13:27.000Z</time></trkpt><trkpt lon="15.6352061" lat="46.5218166"><ele>333</ele><time>2019-09-10T18:13:28.000Z</time></trkpt><trkpt lon="15.6352061" lat="46.5218166"><ele>333</ele><time>2019-09-10T18:13:29.000Z</time></trkpt><trkpt lon="15.6352392" lat="46.5219041"><ele>333</ele><time>2019-09-10T18:13:30.000Z</time></trkpt><trkpt lon="15.6352544" lat="46.5219431"><ele>333</ele><time>2019-09-10T18:13:31.000Z</time></trkpt><trkpt lon="15.6352686" lat="46.5219831"><ele>333</ele><time>2019-09-10T18:13:32.000Z</time></trkpt><trkpt lon="15.6352686" lat="46.5219831"><ele>333</ele><time>2019-09-10T18:13:33.000Z</time></trkpt><trkpt lon="15.6353008" lat="46.5220779"><ele>332</ele><time>2019-09-10T18:13:34.000Z</time></trkpt><trkpt lon="15.6353158" lat="46.5221273"><ele>332</ele><time>2019-09-10T18:13:35.000Z</time></trkpt><trkpt lon="15.6353158" lat="46.5221273"><ele>332</ele><time>2019-09-10T18:13:36.000Z</time></trkpt><trkpt lon="15.6353435" lat="46.5222291"><ele>332</ele><time>2019-09-10T18:13:37.000Z</time></trkpt><trkpt lon="15.6353563" lat="46.5222815"><ele>332</ele><time>2019-09-10T18:13:38.000Z</time></trkpt><trkpt lon="15.6353563" lat="46.5222815"><ele>332</ele><time>2019-09-10T18:13:39.000Z</time></trkpt><trkpt lon="15.635386" lat="46.5223852"><ele>332</ele><time>2019-09-10T18:13:40.000Z</time></trkpt><trkpt lon="15.6353989" lat="46.52244"><ele>332</ele><time>2019-09-10T18:13:41.000Z</time></trkpt><trkpt lon="15.6353989" lat="46.52244"><ele>332</ele><time>2019-09-10T18:13:42.000Z</time></trkpt><trkpt lon="15.6354241" lat="46.5225502"><ele>332</ele><time>2019-09-10T18:13:43.000Z</time></trkpt><trkpt lon="15.6354241" lat="46.5225502"><ele>332</ele><time>2019-09-10T18:13:44.000Z</time></trkpt><trkpt lon="15.635454" lat="46.522664"><ele>331</ele><time>2019-09-10T18:13:45.000Z</time></trkpt><trkpt lon="15.63547" lat="46.5227202"><ele>331</ele><time>2019-09-10T18:13:46.000Z</time></trkpt><trkpt lon="15.6354862" lat="46.5227756"><ele>331</ele><time>2019-09-10T18:13:47.000Z</time></trkpt><trkpt lon="15.6354862" lat="46.5227756"><ele>331</ele><time>2019-09-10T18:13:48.000Z</time></trkpt><trkpt lon="15.6355161" lat="46.5228848"><ele>331</ele><time>2019-09-10T18:13:49.000Z</time></trkpt><trkpt lon="15.6355307" lat="46.5229382"><ele>331</ele><time>2019-09-10T18:13:50.000Z</time></trkpt><trkpt lon="15.6355307" lat="46.5229382"><ele>331</ele><time>2019-09-10T18:13:51.000Z</time></trkpt><trkpt lon="15.6355607" lat="46.5230375"><ele>331</ele><time>2019-09-10T18:13:52.000Z</time></trkpt><trkpt lon="15.6355607" lat="46.5230375"><ele>331</ele><time>2019-09-10T18:13:53.000Z</time></trkpt><trkpt lon="15.6355983" lat="46.523143"><ele>331</ele><time>2019-09-10T18:13:54.000Z</time></trkpt><trkpt lon="15.6355983" lat="46.523143"><ele>331</ele><time>2019-09-10T18:13:55.000Z</time></trkpt><trkpt lon="15.6356418" lat="46.523254"><ele>331</ele><time>2019-09-10T18:13:56.000Z</time></trkpt><trkpt lon="15.6356418" lat="46.523254"><ele>331</ele><time>2019-09-10T18:13:57.000Z</time></trkpt><trkpt lon="15.6356894" lat="46.5233631"><ele>331</ele><time>2019-09-10T18:13:58.000Z</time></trkpt><trkpt lon="15.6356894" lat="46.5233631"><ele>331</ele><time>2019-09-10T18:13:59.000Z</time></trkpt><trkpt lon="15.6357392" lat="46.5234678"><ele>330</ele><time>2019-09-10T18:14:00.000Z</time></trkpt><trkpt lon="15.6357392" lat="46.5234678"><ele>330</ele><time>2019-09-10T18:14:01.000Z</time></trkpt><trkpt lon="15.6357916" lat="46.523571"><ele>330</ele><time>2019-09-10T18:14:02.000Z</time></trkpt><trkpt lon="15.6357916" lat="46.523571"><ele>330</ele><time>2019-09-10T18:14:03.000Z</time></trkpt><trkpt lon="15.6358446" lat="46.5236845"><ele>330</ele><time>2019-09-10T18:14:04.000Z</time></trkpt><trkpt lon="15.635872" lat="46.5237433"><ele>330</ele><time>2019-09-10T18:14:05.000Z</time></trkpt><trkpt lon="15.6358996" lat="46.5238014"><ele>330</ele><time>2019-09-10T18:14:06.000Z</time></trkpt><trkpt lon="15.6359282" lat="46.5238586"><ele>330</ele><time>2019-09-10T18:14:07.000Z</time></trkpt><trkpt lon="15.6359282" lat="46.5238586"><ele>330</ele><time>2019-09-10T18:14:08.000Z</time></trkpt><trkpt lon="15.6359841" lat="46.5239654"><ele>330</ele><time>2019-09-10T18:14:09.000Z</time></trkpt><trkpt lon="15.6359841" lat="46.5239654"><ele>330</ele><time>2019-09-10T18:14:10.000Z</time></trkpt><trkpt lon="15.636041" lat="46.5240787"><ele>329</ele><time>2019-09-10T18:14:11.000Z</time></trkpt><trkpt lon="15.636041" lat="46.5240787"><ele>329</ele><time>2019-09-10T18:14:12.000Z</time></trkpt><trkpt lon="15.6361059" lat="46.5241917"><ele>329</ele><time>2019-09-10T18:14:13.000Z</time></trkpt><trkpt lon="15.6361059" lat="46.5241917"><ele>329</ele><time>2019-09-10T18:14:14.000Z</time></trkpt><trkpt lon="15.6361795" lat="46.5243089"><ele>329</ele><time>2019-09-10T18:14:15.000Z</time></trkpt><trkpt lon="15.6362182" lat="46.5243667"><ele>329</ele><time>2019-09-10T18:14:16.000Z</time></trkpt><trkpt lon="15.6362591" lat="46.5244221"><ele>329</ele><time>2019-09-10T18:14:17.000Z</time></trkpt><trkpt lon="15.6362591" lat="46.5244221"><ele>329</ele><time>2019-09-10T18:14:18.000Z</time></trkpt><trkpt lon="15.6363409" lat="46.5245264"><ele>329</ele><time>2019-09-10T18:14:19.000Z</time></trkpt><trkpt lon="15.636381" lat="46.5245776"><ele>329</ele><time>2019-09-10T18:14:20.000Z</time></trkpt><trkpt lon="15.6364222" lat="46.524629"><ele>329</ele><time>2019-09-10T18:14:21.000Z</time></trkpt><trkpt lon="15.6364222" lat="46.524629"><ele>329</ele><time>2019-09-10T18:14:22.000Z</time></trkpt><trkpt lon="15.6365069" lat="46.5247326"><ele>329</ele><time>2019-09-10T18:14:23.000Z</time></trkpt><trkpt lon="15.6365069" lat="46.5247326"><ele>329</ele><time>2019-09-10T18:14:24.000Z</time></trkpt><trkpt lon="15.6365909" lat="46.5248396"><ele>328</ele><time>2019-09-10T18:14:25.000Z</time></trkpt><trkpt lon="15.6365909" lat="46.5248396"><ele>328</ele><time>2019-09-10T18:14:26.000Z</time></trkpt><trkpt lon="15.6366706" lat="46.5249511"><ele>328</ele><time>2019-09-10T18:14:27.000Z</time></trkpt><trkpt lon="15.6367043" lat="46.5250098"><ele>328</ele><time>2019-09-10T18:14:28.000Z</time></trkpt><trkpt lon="15.6367043" lat="46.5250098"><ele>328</ele><time>2019-09-10T18:14:29.000Z</time></trkpt><trkpt lon="15.6367584" lat="46.5251313"><ele>328</ele><time>2019-09-10T18:14:30.000Z</time></trkpt><trkpt lon="15.6367584" lat="46.5251313"><ele>328</ele><time>2019-09-10T18:14:31.000Z</time></trkpt><trkpt lon="15.6367981" lat="46.5252536"><ele>328</ele><time>2019-09-10T18:14:32.000Z</time></trkpt><trkpt lon="15.6367981" lat="46.5252536"><ele>328</ele><time>2019-09-10T18:14:33.000Z</time></trkpt><trkpt lon="15.636827" lat="46.5253757"><ele>328</ele><time>2019-09-10T18:14:34.000Z</time></trkpt><trkpt lon="15.636827" lat="46.5253757"><ele>328</ele><time>2019-09-10T18:14:35.000Z</time></trkpt><trkpt lon="15.6368446" lat="46.5254998"><ele>328</ele><time>2019-09-10T18:14:36.000Z</time></trkpt><trkpt lon="15.6368446" lat="46.5254998"><ele>328</ele><time>2019-09-10T18:14:37.000Z</time></trkpt><trkpt lon="15.6368611" lat="46.5256195"><ele>328</ele><time>2019-09-10T18:14:38.000Z</time></trkpt><trkpt lon="15.6368611" lat="46.5256195"><ele>328</ele><time>2019-09-10T18:14:39.000Z</time></trkpt><trkpt lon="15.6368734" lat="46.5257337"><ele>327</ele><time>2019-09-10T18:14:40.000Z</time></trkpt><trkpt lon="15.6368798" lat="46.5257903"><ele>327</ele><time>2019-09-10T18:14:41.000Z</time></trkpt><trkpt lon="15.6368798" lat="46.5257903"><ele>327</ele><time>2019-09-10T18:14:42.000Z</time></trkpt><trkpt lon="15.6368942" lat="46.525906"><ele>327</ele><time>2019-09-10T18:14:43.000Z</time></trkpt><trkpt lon="15.6368942" lat="46.525906"><ele>327</ele><time>2019-09-10T18:14:44.000Z</time></trkpt><trkpt lon="15.6369093" lat="46.5260219"><ele>327</ele><time>2019-09-10T18:14:45.000Z</time></trkpt><trkpt lon="15.6369093" lat="46.5260219"><ele>327</ele><time>2019-09-10T18:14:46.000Z</time></trkpt><trkpt lon="15.6369228" lat="46.5261412"><ele>327</ele><time>2019-09-10T18:14:47.000Z</time></trkpt><trkpt lon="15.6369314" lat="46.5262038"><ele>327</ele><time>2019-09-10T18:14:48.000Z</time></trkpt><trkpt lon="15.6369314" lat="46.5262038"><ele>327</ele><time>2019-09-10T18:14:49.000Z</time></trkpt><trkpt lon="15.6369494" lat="46.5263299"><ele>327</ele><time>2019-09-10T18:14:50.000Z</time></trkpt><trkpt lon="15.6369587" lat="46.5263924"><ele>327</ele><time>2019-09-10T18:14:51.000Z</time></trkpt><trkpt lon="15.6369587" lat="46.5263924"><ele>327</ele><time>2019-09-10T18:14:52.000Z</time></trkpt><trkpt lon="15.6369823" lat="46.5265153"><ele>327</ele><time>2019-09-10T18:14:53.000Z</time></trkpt><trkpt lon="15.6369918" lat="46.5265768"><ele>327</ele><time>2019-09-10T18:14:54.000Z</time></trkpt><trkpt lon="15.6369918" lat="46.5265768"><ele>327</ele><time>2019-09-10T18:14:55.000Z</time></trkpt><trkpt lon="15.6370129" lat="46.526701"><ele>327</ele><time>2019-09-10T18:14:56.000Z</time></trkpt><trkpt lon="15.6370129" lat="46.526701"><ele>327</ele><time>2019-09-10T18:14:57.000Z</time></trkpt><trkpt lon="15.6370343" lat="46.5268252"><ele>327</ele><time>2019-09-10T18:14:58.000Z</time></trkpt><trkpt lon="15.637044" lat="46.5268877"><ele>327</ele><time>2019-09-10T18:14:59.000Z</time></trkpt><trkpt lon="15.637044" lat="46.5268877"><ele>327</ele><time>2019-09-10T18:15:00.000Z</time></trkpt><trkpt lon="15.6370686" lat="46.5270111"><ele>327</ele><time>2019-09-10T18:15:01.000Z</time></trkpt><trkpt lon="15.6370686" lat="46.5270111"><ele>327</ele><time>2019-09-10T18:15:02.000Z</time></trkpt><trkpt lon="15.6370903" lat="46.5271296"><ele>327</ele><time>2019-09-10T18:15:03.000Z</time></trkpt><trkpt lon="15.6371" lat="46.5271904"><ele>327</ele><time>2019-09-10T18:15:04.000Z</time></trkpt><trkpt lon="15.6371" lat="46.5271904"><ele>327</ele><time>2019-09-10T18:15:05.000Z</time></trkpt><trkpt lon="15.6371237" lat="46.5273145"><ele>327</ele><time>2019-09-10T18:15:06.000Z</time></trkpt><trkpt lon="15.6371237" lat="46.5273145"><ele>327</ele><time>2019-09-10T18:15:07.000Z</time></trkpt><trkpt lon="15.6371461" lat="46.5274386"><ele>327</ele><time>2019-09-10T18:15:08.000Z</time></trkpt><trkpt lon="15.6371461" lat="46.5274386"><ele>327</ele><time>2019-09-10T18:15:09.000Z</time></trkpt><trkpt lon="15.6371672" lat="46.5275611"><ele>327</ele><time>2019-09-10T18:15:10.000Z</time></trkpt><trkpt lon="15.6371672" lat="46.5275611"><ele>327</ele><time>2019-09-10T18:15:11.000Z</time></trkpt><trkpt lon="15.63719" lat="46.5276813"><ele>327</ele><time>2019-09-10T18:15:12.000Z</time></trkpt><trkpt lon="15.6372006" lat="46.5277408"><ele>326</ele><time>2019-09-10T18:15:13.000Z</time></trkpt><trkpt lon="15.6372006" lat="46.5277408"><ele>326</ele><time>2019-09-10T18:15:14.000Z</time></trkpt><trkpt lon="15.6372231" lat="46.5278631"><ele>326</ele><time>2019-09-10T18:15:15.000Z</time></trkpt><trkpt lon="15.6372352" lat="46.5279238"><ele>326</ele><time>2019-09-10T18:15:16.000Z</time></trkpt><trkpt lon="15.637246" lat="46.5279835"><ele>326</ele><time>2019-09-10T18:15:17.000Z</time></trkpt><trkpt lon="15.637246" lat="46.5279835"><ele>326</ele><time>2019-09-10T18:15:18.000Z</time></trkpt><trkpt lon="15.6372642" lat="46.5280984"><ele>326</ele><time>2019-09-10T18:15:19.000Z</time></trkpt><trkpt lon="15.637275" lat="46.5281534"><ele>326</ele><time>2019-09-10T18:15:20.000Z</time></trkpt><trkpt lon="15.6372858" lat="46.5282037"><ele>326</ele><time>2019-09-10T18:15:21.000Z</time></trkpt><trkpt lon="15.6372858" lat="46.5282037"><ele>326</ele><time>2019-09-10T18:15:22.000Z</time></trkpt><trkpt lon="15.6372957" lat="46.5282898"><ele>326</ele><time>2019-09-10T18:15:23.000Z</time></trkpt><trkpt lon="15.6372986" lat="46.528337"><ele>326</ele><time>2019-09-10T18:15:24.000Z</time></trkpt><trkpt lon="15.6372986" lat="46.528337"><ele>326</ele><time>2019-09-10T18:15:25.000Z</time></trkpt><trkpt lon="15.6373209" lat="46.5284452"><ele>326</ele><time>2019-09-10T18:15:26.000Z</time></trkpt><trkpt lon="15.6373209" lat="46.5284452"><ele>326</ele><time>2019-09-10T18:15:27.000Z</time></trkpt><trkpt lon="15.6373395" lat="46.5285525"><ele>326</ele><time>2019-09-10T18:15:28.000Z</time></trkpt><trkpt lon="15.6373395" lat="46.5285525"><ele>326</ele><time>2019-09-10T18:15:29.000Z</time></trkpt><trkpt lon="15.6373537" lat="46.5286463"><ele>326</ele><time>2019-09-10T18:15:30.000Z</time></trkpt><trkpt lon="15.6373537" lat="46.5286463"><ele>326</ele><time>2019-09-10T18:15:31.000Z</time></trkpt><trkpt lon="15.6373748" lat="46.5287275"><ele>326</ele><time>2019-09-10T18:15:32.000Z</time></trkpt><trkpt lon="15.6373858" lat="46.5287692"><ele>326</ele><time>2019-09-10T18:15:33.000Z</time></trkpt><trkpt lon="15.6373858" lat="46.5287692"><ele>326</ele><time>2019-09-10T18:15:34.000Z</time></trkpt><trkpt lon="15.6374076" lat="46.5288527"><ele>325</ele><time>2019-09-10T18:15:35.000Z</time></trkpt><trkpt lon="15.6374076" lat="46.5288527"><ele>325</ele><time>2019-09-10T18:15:36.000Z</time></trkpt><trkpt lon="15.6374219" lat="46.5289343"><ele>325</ele><time>2019-09-10T18:15:37.000Z</time></trkpt><trkpt lon="15.6374219" lat="46.5289343"><ele>325</ele><time>2019-09-10T18:15:38.000Z</time></trkpt><trkpt lon="15.6374285" lat="46.5290202"><ele>325</ele><time>2019-09-10T18:15:39.000Z</time></trkpt><trkpt lon="15.6374325" lat="46.5290703"><ele>325</ele><time>2019-09-10T18:15:40.000Z</time></trkpt><trkpt lon="15.6374325" lat="46.5290703"><ele>325</ele><time>2019-09-10T18:15:41.000Z</time></trkpt><trkpt lon="15.6374455" lat="46.5291774"><ele>325</ele><time>2019-09-10T18:15:42.000Z</time></trkpt><trkpt lon="15.6374455" lat="46.5291774"><ele>325</ele><time>2019-09-10T18:15:43.000Z</time></trkpt><trkpt lon="15.6374694" lat="46.5292845"><ele>325</ele><time>2019-09-10T18:15:44.000Z</time></trkpt><trkpt lon="15.6374694" lat="46.5292845"><ele>325</ele><time>2019-09-10T18:15:45.000Z</time></trkpt><trkpt lon="15.6374856" lat="46.5293895"><ele>326</ele><time>2019-09-10T18:15:46.000Z</time></trkpt><trkpt lon="15.6374856" lat="46.5293895"><ele>326</ele><time>2019-09-10T18:15:47.000Z</time></trkpt><trkpt lon="15.63751" lat="46.529497"><ele>326</ele><time>2019-09-10T18:15:48.000Z</time></trkpt><trkpt lon="15.63751" lat="46.529497"><ele>326</ele><time>2019-09-10T18:15:49.000Z</time></trkpt><trkpt lon="15.6375227" lat="46.5295995"><ele>326</ele><time>2019-09-10T18:15:50.000Z</time></trkpt><trkpt lon="15.6375193" lat="46.5296502"><ele>326</ele><time>2019-09-10T18:15:51.000Z</time></trkpt><trkpt lon="15.6375193" lat="46.5296502"><ele>326</ele><time>2019-09-10T18:15:52.000Z</time></trkpt><trkpt lon="15.637496" lat="46.5297539"><ele>326</ele><time>2019-09-10T18:15:53.000Z</time></trkpt><trkpt lon="15.637496" lat="46.5297539"><ele>326</ele><time>2019-09-10T18:15:54.000Z</time></trkpt><trkpt lon="15.6374358" lat="46.5298469"><ele>326</ele><time>2019-09-10T18:15:55.000Z</time></trkpt><trkpt lon="15.6374358" lat="46.5298469"><ele>326</ele><time>2019-09-10T18:15:56.000Z</time></trkpt><trkpt lon="15.6373347" lat="46.529926"><ele>326</ele><time>2019-09-10T18:15:57.000Z</time></trkpt><trkpt lon="15.6373347" lat="46.529926"><ele>326</ele><time>2019-09-10T18:15:58.000Z</time></trkpt><trkpt lon="15.6372003" lat="46.5300069"><ele>326</ele><time>2019-09-10T18:15:59.000Z</time></trkpt><trkpt lon="15.6372003" lat="46.5300069"><ele>326</ele><time>2019-09-10T18:16:00.000Z</time></trkpt><trkpt lon="15.6370635" lat="46.5300911"><ele>326</ele><time>2019-09-10T18:16:01.000Z</time></trkpt><trkpt lon="15.6369956" lat="46.5301326"><ele>326</ele><time>2019-09-10T18:16:02.000Z</time></trkpt><trkpt lon="15.6369956" lat="46.5301326"><ele>326</ele><time>2019-09-10T18:16:03.000Z</time></trkpt><trkpt lon="15.6368626" lat="46.5302161"><ele>326</ele><time>2019-09-10T18:16:04.000Z</time></trkpt><trkpt lon="15.6368626" lat="46.5302161"><ele>326</ele><time>2019-09-10T18:16:05.000Z</time></trkpt><trkpt lon="15.6367299" lat="46.5302974"><ele>326</ele><time>2019-09-10T18:16:06.000Z</time></trkpt><trkpt lon="15.636665" lat="46.5303378"><ele>326</ele><time>2019-09-10T18:16:07.000Z</time></trkpt><trkpt lon="15.636665" lat="46.5303378"><ele>326</ele><time>2019-09-10T18:16:08.000Z</time></trkpt><trkpt lon="15.6365345" lat="46.530418"><ele>326</ele><time>2019-09-10T18:16:09.000Z</time></trkpt><trkpt lon="15.6364704" lat="46.5304576"><ele>326</ele><time>2019-09-10T18:16:10.000Z</time></trkpt><trkpt lon="15.6364704" lat="46.5304576"><ele>326</ele><time>2019-09-10T18:16:11.000Z</time></trkpt><trkpt lon="15.6363434" lat="46.5305367"><ele>326</ele><time>2019-09-10T18:16:12.000Z</time></trkpt><trkpt lon="15.6363434" lat="46.5305367"><ele>326</ele><time>2019-09-10T18:16:13.000Z</time></trkpt><trkpt lon="15.6362108" lat="46.5306204"><ele>326</ele><time>2019-09-10T18:16:14.000Z</time></trkpt><trkpt lon="15.6362108" lat="46.5306204"><ele>326</ele><time>2019-09-10T18:16:15.000Z</time></trkpt><trkpt lon="15.6360744" lat="46.530704"><ele>326</ele><time>2019-09-10T18:16:16.000Z</time></trkpt><trkpt lon="15.6360067" lat="46.5307458"><ele>326</ele><time>2019-09-10T18:16:17.000Z</time></trkpt><trkpt lon="15.6360067" lat="46.5307458"><ele>326</ele><time>2019-09-10T18:16:18.000Z</time></trkpt><trkpt lon="15.6358698" lat="46.530829"><ele>326</ele><time>2019-09-10T18:16:19.000Z</time></trkpt><trkpt lon="15.6358016" lat="46.5308716"><ele>326</ele><time>2019-09-10T18:16:20.000Z</time></trkpt><trkpt lon="15.6357326" lat="46.5309144"><ele>326</ele><time>2019-09-10T18:16:21.000Z</time></trkpt><trkpt lon="15.6356631" lat="46.530957"><ele>326</ele><time>2019-09-10T18:16:22.000Z</time></trkpt><trkpt lon="15.6356631" lat="46.530957"><ele>326</ele><time>2019-09-10T18:16:23.000Z</time></trkpt><trkpt lon="15.6355266" lat="46.531041"><ele>326</ele><time>2019-09-10T18:16:24.000Z</time></trkpt><trkpt lon="15.6355266" lat="46.531041"><ele>326</ele><time>2019-09-10T18:16:25.000Z</time></trkpt><trkpt lon="15.6353868" lat="46.5311275"><ele>326</ele><time>2019-09-10T18:16:26.000Z</time></trkpt><trkpt lon="15.6353175" lat="46.5311701"><ele>326</ele><time>2019-09-10T18:16:27.000Z</time></trkpt><trkpt lon="15.6353175" lat="46.5311701"><ele>326</ele><time>2019-09-10T18:16:28.000Z</time></trkpt><trkpt lon="15.6351805" lat="46.531256"><ele>326</ele><time>2019-09-10T18:16:29.000Z</time></trkpt><trkpt lon="15.6351805" lat="46.531256"><ele>326</ele><time>2019-09-10T18:16:30.000Z</time></trkpt><trkpt lon="15.6350409" lat="46.531342"><ele>326</ele><time>2019-09-10T18:16:31.000Z</time></trkpt><trkpt lon="15.6350409" lat="46.531342"><ele>326</ele><time>2019-09-10T18:16:32.000Z</time></trkpt><trkpt lon="15.6349027" lat="46.5314277"><ele>327</ele><time>2019-09-10T18:16:33.000Z</time></trkpt><trkpt lon="15.6349027" lat="46.5314277"><ele>327</ele><time>2019-09-10T18:16:34.000Z</time></trkpt><trkpt lon="15.6347653" lat="46.531513"><ele>327</ele><time>2019-09-10T18:16:35.000Z</time></trkpt><trkpt lon="15.6346962" lat="46.5315552"><ele>327</ele><time>2019-09-10T18:16:36.000Z</time></trkpt><trkpt lon="15.6346276" lat="46.5315975"><ele>327</ele><time>2019-09-10T18:16:37.000Z</time></trkpt><trkpt lon="15.6346276" lat="46.5315975"><ele>327</ele><time>2019-09-10T18:16:38.000Z</time></trkpt><trkpt lon="15.6344915" lat="46.5316822"><ele>327</ele><time>2019-09-10T18:16:39.000Z</time></trkpt><trkpt lon="15.6344255" lat="46.5317244"><ele>327</ele><time>2019-09-10T18:16:40.000Z</time></trkpt><trkpt lon="15.6344255" lat="46.5317244"><ele>327</ele><time>2019-09-10T18:16:41.000Z</time></trkpt><trkpt lon="15.6342947" lat="46.5318078"><ele>327</ele><time>2019-09-10T18:16:42.000Z</time></trkpt><trkpt lon="15.63423" lat="46.5318491"><ele>327</ele><time>2019-09-10T18:16:43.000Z</time></trkpt><trkpt lon="15.63423" lat="46.5318491"><ele>327</ele><time>2019-09-10T18:16:44.000Z</time></trkpt><trkpt lon="15.6341021" lat="46.5319259"><ele>327</ele><time>2019-09-10T18:16:45.000Z</time></trkpt><trkpt lon="15.6341021" lat="46.5319259"><ele>327</ele><time>2019-09-10T18:16:46.000Z</time></trkpt><trkpt lon="15.6339918" lat="46.531993"><ele>327</ele><time>2019-09-10T18:16:47.000Z</time></trkpt><trkpt lon="15.6339918" lat="46.531993"><ele>327</ele><time>2019-09-10T18:16:48.000Z</time></trkpt><trkpt lon="15.6339048" lat="46.532046"><ele>327</ele><time>2019-09-10T18:16:49.000Z</time></trkpt><trkpt lon="15.6339048" lat="46.532046"><ele>327</ele><time>2019-09-10T18:16:50.000Z</time></trkpt><trkpt lon="15.6339048" lat="46.532046"><ele>327</ele><time>2019-09-10T18:16:51.000Z</time></trkpt><trkpt lon="15.633822" lat="46.5320988"><ele>327</ele><time>2019-09-10T18:16:52.000Z</time></trkpt><trkpt lon="15.633822" lat="46.5320988"><ele>327</ele><time>2019-09-10T18:16:53.000Z</time></trkpt><trkpt lon="15.633822" lat="46.5320988"><ele>327</ele><time>2019-09-10T18:16:54.000Z</time></trkpt><trkpt lon="15.6337911" lat="46.5321207"><ele>327</ele><time>2019-09-10T18:16:55.000Z</time></trkpt><trkpt lon="15.6337911" lat="46.5321207"><ele>327</ele><time>2019-09-10T18:16:56.000Z</time></trkpt><trkpt lon="15.6337588" lat="46.532149"><ele>327</ele><time>2019-09-10T18:16:57.000Z</time></trkpt><trkpt lon="15.6337588" lat="46.532149"><ele>327</ele><time>2019-09-10T18:16:58.000Z</time></trkpt><trkpt lon="15.6337401" lat="46.5321829"><ele>327</ele><time>2019-09-10T18:16:59.000Z</time></trkpt><trkpt lon="15.6337401" lat="46.5321829"><ele>327</ele><time>2019-09-10T18:17:00.000Z</time></trkpt><trkpt lon="15.6337196" lat="46.5322217"><ele>327</ele><time>2019-09-10T18:17:01.000Z</time></trkpt><trkpt lon="15.6337196" lat="46.5322217"><ele>327</ele><time>2019-09-10T18:17:02.000Z</time></trkpt><trkpt lon="15.6336538" lat="46.5323018"><ele>326</ele><time>2019-09-10T18:17:03.000Z</time></trkpt><trkpt lon="15.6336538" lat="46.5323018"><ele>326</ele><time>2019-09-10T18:17:04.000Z</time></trkpt><trkpt lon="15.6336221" lat="46.5323924"><ele>327</ele><time>2019-09-10T18:17:05.000Z</time></trkpt><trkpt lon="15.6335841" lat="46.5324445"><ele>326</ele><time>2019-09-10T18:17:06.000Z</time></trkpt><trkpt lon="15.6335841" lat="46.5324445"><ele>326</ele><time>2019-09-10T18:17:07.000Z</time></trkpt><trkpt lon="15.6334329" lat="46.5324816"><ele>327</ele><time>2019-09-10T18:17:08.000Z</time></trkpt><trkpt lon="15.6334329" lat="46.5324816"><ele>327</ele><time>2019-09-10T18:17:09.000Z</time></trkpt><trkpt lon="15.6332911" lat="46.532513"><ele>327</ele><time>2019-09-10T18:17:10.000Z</time></trkpt><trkpt lon="15.6332277" lat="46.5325339"><ele>327</ele><time>2019-09-10T18:17:11.000Z</time></trkpt><trkpt lon="15.633176" lat="46.532564"><ele>327</ele><time>2019-09-10T18:17:12.000Z</time></trkpt><trkpt lon="15.633176" lat="46.532564"><ele>327</ele><time>2019-09-10T18:17:13.000Z</time></trkpt><trkpt lon="15.6330747" lat="46.5326344"><ele>327</ele><time>2019-09-10T18:17:14.000Z</time></trkpt><trkpt lon="15.6330162" lat="46.5326748"><ele>327</ele><time>2019-09-10T18:17:15.000Z</time></trkpt><trkpt lon="15.6329578" lat="46.5327126"><ele>327</ele><time>2019-09-10T18:17:16.000Z</time></trkpt><trkpt lon="15.6328961" lat="46.5327517"><ele>327</ele><time>2019-09-10T18:17:17.000Z</time></trkpt><trkpt lon="15.6328961" lat="46.5327517"><ele>327</ele><time>2019-09-10T18:17:18.000Z</time></trkpt><trkpt lon="15.6327628" lat="46.5328329"><ele>327</ele><time>2019-09-10T18:17:19.000Z</time></trkpt><trkpt lon="15.6327628" lat="46.5328329"><ele>327</ele><time>2019-09-10T18:17:20.000Z</time></trkpt><trkpt lon="15.6326257" lat="46.5329151"><ele>327</ele><time>2019-09-10T18:17:21.000Z</time></trkpt><trkpt lon="15.6325545" lat="46.5329549"><ele>327</ele><time>2019-09-10T18:17:22.000Z</time></trkpt><trkpt lon="15.6325545" lat="46.5329549"><ele>327</ele><time>2019-09-10T18:17:23.000Z</time></trkpt><trkpt lon="15.6323989" lat="46.5330236"><ele>327</ele><time>2019-09-10T18:17:24.000Z</time></trkpt><trkpt lon="15.6323989" lat="46.5330236"><ele>327</ele><time>2019-09-10T18:17:25.000Z</time></trkpt><trkpt lon="15.6322414" lat="46.5330858"><ele>327</ele><time>2019-09-10T18:17:26.000Z</time></trkpt><trkpt lon="15.6322414" lat="46.5330858"><ele>327</ele><time>2019-09-10T18:17:27.000Z</time></trkpt><trkpt lon="15.6320782" lat="46.5331318"><ele>328</ele><time>2019-09-10T18:17:28.000Z</time></trkpt><trkpt lon="15.6319956" lat="46.5331499"><ele>328</ele><time>2019-09-10T18:17:29.000Z</time></trkpt><trkpt lon="15.6319956" lat="46.5331499"><ele>328</ele><time>2019-09-10T18:17:30.000Z</time></trkpt><trkpt lon="15.6318304" lat="46.5331782"><ele>328</ele><time>2019-09-10T18:17:31.000Z</time></trkpt><trkpt lon="15.6318304" lat="46.5331782"><ele>328</ele><time>2019-09-10T18:17:32.000Z</time></trkpt><trkpt lon="15.6316608" lat="46.533196"><ele>328</ele><time>2019-09-10T18:17:33.000Z</time></trkpt><trkpt lon="15.6315757" lat="46.5332"><ele>328</ele><time>2019-09-10T18:17:34.000Z</time></trkpt><trkpt lon="15.6315757" lat="46.5332"><ele>328</ele><time>2019-09-10T18:17:35.000Z</time></trkpt><trkpt lon="15.6314037" lat="46.5331971"><ele>328</ele><time>2019-09-10T18:17:36.000Z</time></trkpt><trkpt lon="15.6314037" lat="46.5331971"><ele>328</ele><time>2019-09-10T18:17:37.000Z</time></trkpt><trkpt lon="15.6312331" lat="46.5331827"><ele>328</ele><time>2019-09-10T18:17:38.000Z</time></trkpt><trkpt lon="15.6311483" lat="46.5331739"><ele>328</ele><time>2019-09-10T18:17:39.000Z</time></trkpt><trkpt lon="15.6311483" lat="46.5331739"><ele>328</ele><time>2019-09-10T18:17:40.000Z</time></trkpt><trkpt lon="15.6309807" lat="46.5331542"><ele>328</ele><time>2019-09-10T18:17:41.000Z</time></trkpt><trkpt lon="15.6309014" lat="46.5331686"><ele>328</ele><time>2019-09-10T18:17:42.000Z</time></trkpt><trkpt lon="15.6309014" lat="46.5331686"><ele>328</ele><time>2019-09-10T18:17:43.000Z</time></trkpt><trkpt lon="15.6308104" lat="46.5332602"><ele>327</ele><time>2019-09-10T18:17:44.000Z</time></trkpt><trkpt lon="15.6308104" lat="46.5332602"><ele>327</ele><time>2019-09-10T18:17:45.000Z</time></trkpt><trkpt lon="15.630716" lat="46.5333486"><ele>327</ele><time>2019-09-10T18:17:46.000Z</time></trkpt><trkpt lon="15.630716" lat="46.5333486"><ele>327</ele><time>2019-09-10T18:17:47.000Z</time></trkpt><trkpt lon="15.6305834" lat="46.5334048"><ele>327</ele><time>2019-09-10T18:17:48.000Z</time></trkpt><trkpt lon="15.6305214" lat="46.5334324"><ele>327</ele><time>2019-09-10T18:17:49.000Z</time></trkpt><trkpt lon="15.6304624" lat="46.5334604"><ele>327</ele><time>2019-09-10T18:17:50.000Z</time></trkpt><trkpt lon="15.6304077" lat="46.5334873"><ele>327</ele><time>2019-09-10T18:17:51.000Z</time></trkpt><trkpt lon="15.6303538" lat="46.533512"><ele>327</ele><time>2019-09-10T18:17:52.000Z</time></trkpt><trkpt lon="15.6302926" lat="46.5335395"><ele>327</ele><time>2019-09-10T18:17:53.000Z</time></trkpt><trkpt lon="15.6302926" lat="46.5335395"><ele>327</ele><time>2019-09-10T18:17:54.000Z</time></trkpt><trkpt lon="15.6301535" lat="46.5335971"><ele>327</ele><time>2019-09-10T18:17:55.000Z</time></trkpt><trkpt lon="15.6301535" lat="46.5335971"><ele>327</ele><time>2019-09-10T18:17:56.000Z</time></trkpt><trkpt lon="15.6300104" lat="46.5336585"><ele>327</ele><time>2019-09-10T18:17:57.000Z</time></trkpt><trkpt lon="15.6300104" lat="46.5336585"><ele>327</ele><time>2019-09-10T18:17:58.000Z</time></trkpt><trkpt lon="15.6298976" lat="46.5337293"><ele>327</ele><time>2019-09-10T18:17:59.000Z</time></trkpt><trkpt lon="15.6298976" lat="46.5337293"><ele>327</ele><time>2019-09-10T18:18:00.000Z</time></trkpt><trkpt lon="15.6298868" lat="46.5338169"><ele>328</ele><time>2019-09-10T18:18:01.000Z</time></trkpt><trkpt lon="15.6298935" lat="46.5338639"><ele>327</ele><time>2019-09-10T18:18:02.000Z</time></trkpt><trkpt lon="15.6299238" lat="46.5339107"><ele>327</ele><time>2019-09-10T18:18:03.000Z</time></trkpt><trkpt lon="15.6299238" lat="46.5339107"><ele>327</ele><time>2019-09-10T18:18:04.000Z</time></trkpt><trkpt lon="15.6299709" lat="46.5340069"><ele>327</ele><time>2019-09-10T18:18:05.000Z</time></trkpt><trkpt lon="15.6299709" lat="46.5340069"><ele>327</ele><time>2019-09-10T18:18:06.000Z</time></trkpt><trkpt lon="15.6300168" lat="46.5340973"><ele>327</ele><time>2019-09-10T18:18:07.000Z</time></trkpt><trkpt lon="15.6300168" lat="46.5340973"><ele>327</ele><time>2019-09-10T18:18:08.000Z</time></trkpt><trkpt lon="15.6300687" lat="46.5341767"><ele>327</ele><time>2019-09-10T18:18:09.000Z</time></trkpt><trkpt lon="15.6300687" lat="46.5341767"><ele>327</ele><time>2019-09-10T18:18:10.000Z</time></trkpt><trkpt lon="15.630094" lat="46.5342306"><ele>327</ele><time>2019-09-10T18:18:11.000Z</time></trkpt><trkpt lon="15.630094" lat="46.5342306"><ele>327</ele><time>2019-09-10T18:18:12.000Z</time></trkpt><trkpt lon="15.630077" lat="46.5342607"><ele>327</ele><time>2019-09-10T18:18:13.000Z</time></trkpt><trkpt lon="15.630077" lat="46.5342607"><ele>327</ele><time>2019-09-10T18:18:14.000Z</time></trkpt><trkpt lon="15.6300184" lat="46.5342857"><ele>327</ele><time>2019-09-10T18:18:15.000Z</time></trkpt><trkpt lon="15.6300184" lat="46.5342857"><ele>327</ele><time>2019-09-10T18:18:16.000Z</time></trkpt><trkpt lon="15.629938" lat="46.5343061"><ele>327</ele><time>2019-09-10T18:18:17.000Z</time></trkpt><trkpt lon="15.629938" lat="46.5343061"><ele>327</ele><time>2019-09-10T18:18:18.000Z</time></trkpt><trkpt lon="15.6299058" lat="46.5343471"><ele>327</ele><time>2019-09-10T18:18:19.000Z</time></trkpt><trkpt lon="15.6299058" lat="46.5343471"><ele>327</ele><time>2019-09-10T18:18:20.000Z</time></trkpt><trkpt lon="15.6299178" lat="46.5344465"><ele>327</ele><time>2019-09-10T18:18:21.000Z</time></trkpt><trkpt lon="15.6299178" lat="46.5344465"><ele>327</ele><time>2019-09-10T18:18:22.000Z</time></trkpt><trkpt lon="15.6299269" lat="46.5344733"><ele>327</ele><time>2019-09-10T18:18:23.000Z</time></trkpt><trkpt lon="15.6299269" lat="46.5344733"><ele>327</ele><time>2019-09-10T18:18:24.000Z</time></trkpt><trkpt lon="15.6299269" lat="46.5344733"><ele>327</ele><time>2019-09-10T18:18:25.000Z</time></trkpt><trkpt lon="-999.0" lat="-999.0"><ele>0.0</ele><time>2019-09-10T18:18:26.000Z</time></trkpt><trkpt lon="15.6299418" lat="46.5345086"><ele>327</ele><time>2019-09-10T18:18:27.000Z</time></trkpt><trkpt lon="15.6299418" lat="46.5345086"><ele>327</ele><time>2019-09-10T18:18:28.000Z</time></trkpt><trkpt lon="15.6299753" lat="46.534587"><ele>327</ele><time>2019-09-10T18:18:29.000Z</time></trkpt><trkpt lon="15.6299753" lat="46.534587"><ele>327</ele><time>2019-09-10T18:18:30.000Z</time></trkpt><trkpt lon="15.6299923" lat="46.5346244"><ele>327</ele><time>2019-09-10T18:18:31.000Z</time></trkpt><trkpt lon="15.6299923" lat="46.5346244"><ele>327</ele><time>2019-09-10T18:18:32.000Z</time></trkpt><trkpt lon="15.6299923" lat="46.5346244"><ele>327</ele><time>2019-09-10T18:18:33.000Z</time></trkpt><trkpt lon="15.63006" lat="46.5347597"><ele>326</ele><time>2019-09-10T18:18:34.000Z</time></trkpt><trkpt lon="15.63006" lat="46.5347597"><ele>326</ele><time>2019-09-10T18:18:35.000Z</time></trkpt><trkpt lon="15.630098" lat="46.5348439"><ele>326</ele><time>2019-09-10T18:18:36.000Z</time></trkpt><trkpt lon="15.6301159" lat="46.5348841"><ele>326</ele><time>2019-09-10T18:18:37.000Z</time></trkpt><trkpt lon="15.6301159" lat="46.5348841"><ele>326</ele><time>2019-09-10T18:18:38.000Z</time></trkpt><trkpt lon="15.6301507" lat="46.5349578"><ele>326</ele><time>2019-09-10T18:18:39.000Z</time></trkpt><trkpt lon="15.6301617" lat="46.5349943"><ele>326</ele><time>2019-09-10T18:18:40.000Z</time></trkpt><trkpt lon="15.6301771" lat="46.5350337"><ele>326</ele><time>2019-09-10T18:18:41.000Z</time></trkpt><trkpt lon="15.6301771" lat="46.5350337"><ele>326</ele><time>2019-09-10T18:18:42.000Z</time></trkpt><trkpt lon="15.6301771" lat="46.5350337"><ele>326</ele><time>2019-09-10T18:18:43.000Z</time></trkpt><trkpt lon="15.6302337" lat="46.5351524"><ele>326</ele><time>2019-09-10T18:18:44.000Z</time></trkpt><trkpt lon="15.6302611" lat="46.5351926"><ele>326</ele><time>2019-09-10T18:18:45.000Z</time></trkpt><trkpt lon="15.6302611" lat="46.5351926"><ele>326</ele><time>2019-09-10T18:18:46.000Z</time></trkpt><trkpt lon="15.6302611" lat="46.5351926"><ele>326</ele><time>2019-09-10T18:18:47.000Z</time></trkpt><trkpt lon="15.6303356" lat="46.5353345"><ele>326</ele><time>2019-09-10T18:18:48.000Z</time></trkpt><trkpt lon="15.6303569" lat="46.5353849"><ele>326</ele><time>2019-09-10T18:18:49.000Z</time></trkpt><trkpt lon="15.6303569" lat="46.5353849"><ele>326</ele><time>2019-09-10T18:18:50.000Z</time></trkpt><trkpt lon="15.6304111" lat="46.5354861"><ele>326</ele><time>2019-09-10T18:18:51.000Z</time></trkpt><trkpt lon="15.6304358" lat="46.5355371"><ele>327</ele><time>2019-09-10T18:18:52.000Z</time></trkpt><trkpt lon="15.6304358" lat="46.5355371"><ele>327</ele><time>2019-09-10T18:18:53.000Z</time></trkpt><trkpt lon="15.6304901" lat="46.5356422"><ele>327</ele><time>2019-09-10T18:18:54.000Z</time></trkpt><trkpt lon="15.6304901" lat="46.5356422"><ele>327</ele><time>2019-09-10T18:18:55.000Z</time></trkpt><trkpt lon="15.6305421" lat="46.535752"><ele>326</ele><time>2019-09-10T18:18:56.000Z</time></trkpt><trkpt lon="15.6305696" lat="46.5358059"><ele>326</ele><time>2019-09-10T18:18:57.000Z</time></trkpt><trkpt lon="15.6305978" lat="46.5358593"><ele>326</ele><time>2019-09-10T18:18:58.000Z</time></trkpt><trkpt lon="15.6306252" lat="46.535912"><ele>327</ele><time>2019-09-10T18:18:59.000Z</time></trkpt><trkpt lon="15.6306252" lat="46.535912"><ele>327</ele><time>2019-09-10T18:19:00.000Z</time></trkpt><trkpt lon="15.6306802" lat="46.5360137"><ele>327</ele><time>2019-09-10T18:19:01.000Z</time></trkpt><trkpt lon="15.6307036" lat="46.5360632"><ele>327</ele><time>2019-09-10T18:19:02.000Z</time></trkpt><trkpt lon="15.6307036" lat="46.5360632"><ele>327</ele><time>2019-09-10T18:19:03.000Z</time></trkpt><trkpt lon="15.6307502" lat="46.536156"><ele>327</ele><time>2019-09-10T18:19:04.000Z</time></trkpt><trkpt lon="15.6307502" lat="46.536156"><ele>327</ele><time>2019-09-10T18:19:05.000Z</time></trkpt><trkpt lon="15.6308021" lat="46.5362424"><ele>327</ele><time>2019-09-10T18:19:06.000Z</time></trkpt><trkpt lon="15.6308021" lat="46.5362424"><ele>327</ele><time>2019-09-10T18:19:07.000Z</time></trkpt><trkpt lon="15.63085" lat="46.5363258"><ele>327</ele><time>2019-09-10T18:19:08.000Z</time></trkpt><trkpt lon="15.6308622" lat="46.5363687"><ele>327</ele><time>2019-09-10T18:19:09.000Z</time></trkpt><trkpt lon="15.6308622" lat="46.5363687"><ele>327</ele><time>2019-09-10T18:19:10.000Z</time></trkpt><trkpt lon="15.6308932" lat="46.5364599"><ele>327</ele><time>2019-09-10T18:19:11.000Z</time></trkpt><trkpt lon="15.6309056" lat="46.5365068"><ele>327</ele><time>2019-09-10T18:19:12.000Z</time></trkpt><trkpt lon="15.6309232" lat="46.5365545"><ele>327</ele><time>2019-09-10T18:19:13.000Z</time></trkpt><trkpt lon="15.6309421" lat="46.5366025"><ele>327</ele><time>2019-09-10T18:19:14.000Z</time></trkpt><trkpt lon="15.6309652" lat="46.536647"><ele>327</ele><time>2019-09-10T18:19:15.000Z</time></trkpt><trkpt lon="15.6309652" lat="46.536647"><ele>327</ele><time>2019-09-10T18:19:16.000Z</time></trkpt><trkpt lon="15.6310146" lat="46.5367374"><ele>327</ele><time>2019-09-10T18:19:17.000Z</time></trkpt><trkpt lon="15.6310413" lat="46.5367822"><ele>327</ele><time>2019-09-10T18:19:18.000Z</time></trkpt><trkpt lon="15.6310413" lat="46.5367822"><ele>327</ele><time>2019-09-10T18:19:19.000Z</time></trkpt><trkpt lon="15.6310413" lat="46.5367822"><ele>327</ele><time>2019-09-10T18:19:20.000Z</time></trkpt><trkpt lon="15.6311348" lat="46.536915"><ele>327</ele><time>2019-09-10T18:19:21.000Z</time></trkpt><trkpt lon="15.6311643" lat="46.5369643"><ele>327</ele><time>2019-09-10T18:19:22.000Z</time></trkpt><trkpt lon="15.6311643" lat="46.5369643"><ele>327</ele><time>2019-09-10T18:19:23.000Z</time></trkpt><trkpt lon="15.6312176" lat="46.5370634"><ele>327</ele><time>2019-09-10T18:19:24.000Z</time></trkpt><trkpt lon="15.6312176" lat="46.5370634"><ele>327</ele><time>2019-09-10T18:19:25.000Z</time></trkpt><trkpt lon="15.6312176" lat="46.5370634"><ele>327</ele><time>2019-09-10T18:19:26.000Z</time></trkpt><trkpt lon="-999.0" lat="-999.0"><ele>0.0</ele><time>2019-09-10T18:19:27.000Z</time></trkpt><trkpt lon="15.6313159" lat="46.5372621"><ele>327</ele><time>2019-09-10T18:19:28.000Z</time></trkpt><trkpt lon="15.6313159" lat="46.5372621"><ele>327</ele><time>2019-09-10T18:19:29.000Z</time></trkpt><trkpt lon="15.6313651" lat="46.5373642"><ele>327</ele><time>2019-09-10T18:19:30.000Z</time></trkpt><trkpt lon="15.6313869" lat="46.5374207"><ele>327</ele><time>2019-09-10T18:19:31.000Z</time></trkpt><trkpt lon="15.6314072" lat="46.537474"><ele>327</ele><time>2019-09-10T18:19:32.000Z</time></trkpt><trkpt lon="15.6314072" lat="46.537474"><ele>327</ele><time>2019-09-10T18:19:33.000Z</time></trkpt><trkpt lon="15.6314591" lat="46.5375684"><ele>327</ele><time>2019-09-10T18:19:34.000Z</time></trkpt><trkpt lon="15.6314591" lat="46.5375684"><ele>327</ele><time>2019-09-10T18:19:35.000Z</time></trkpt><trkpt lon="15.6314591" lat="46.5375684"><ele>327</ele><time>2019-09-10T18:19:36.000Z</time></trkpt><trkpt lon="15.6315242" lat="46.5376969"><ele>327</ele><time>2019-09-10T18:19:37.000Z</time></trkpt><trkpt lon="15.6315358" lat="46.5377384"><ele>327</ele><time>2019-09-10T18:19:38.000Z</time></trkpt><trkpt lon="15.6315358" lat="46.5377384"><ele>327</ele><time>2019-09-10T18:19:39.000Z</time></trkpt><trkpt lon="15.6315837" lat="46.537817"><ele>327</ele><time>2019-09-10T18:19:40.000Z</time></trkpt><trkpt lon="15.6316047" lat="46.5378602"><ele>327</ele><time>2019-09-10T18:19:41.000Z</time></trkpt><trkpt lon="15.6316276" lat="46.5379016"><ele>327</ele><time>2019-09-10T18:19:42.000Z</time></trkpt><trkpt lon="15.6316276" lat="46.5379016"><ele>327</ele><time>2019-09-10T18:19:43.000Z</time></trkpt><trkpt lon="15.6316728" lat="46.5379799"><ele>327</ele><time>2019-09-10T18:19:44.000Z</time></trkpt><trkpt lon="15.6316728" lat="46.5379799"><ele>327</ele><time>2019-09-10T18:19:45.000Z</time></trkpt><trkpt lon="15.63171" lat="46.5380665"><ele>327</ele><time>2019-09-10T18:19:46.000Z</time></trkpt><trkpt lon="15.6317346" lat="46.5381116"><ele>327</ele><time>2019-09-10T18:19:47.000Z</time></trkpt><trkpt lon="15.6317346" lat="46.5381116"><ele>327</ele><time>2019-09-10T18:19:48.000Z</time></trkpt><trkpt lon="15.6317791" lat="46.5381938"><ele>327</ele><time>2019-09-10T18:19:49.000Z</time></trkpt><trkpt lon="15.6317791" lat="46.5381938"><ele>327</ele><time>2019-09-10T18:19:50.000Z</time></trkpt><trkpt lon="15.6318188" lat="46.5382888"><ele>327</ele><time>2019-09-10T18:19:51.000Z</time></trkpt><trkpt lon="15.6318188" lat="46.5382888"><ele>327</ele><time>2019-09-10T18:19:52.000Z</time></trkpt><trkpt lon="15.6318645" lat="46.5383904"><ele>327</ele><time>2019-09-10T18:19:53.000Z</time></trkpt><trkpt lon="15.6318645" lat="46.5383904"><ele>327</ele><time>2019-09-10T18:19:54.000Z</time></trkpt><trkpt lon="15.6319101" lat="46.5384908"><ele>327</ele><time>2019-09-10T18:19:55.000Z</time></trkpt><trkpt lon="15.631931" lat="46.5385389"><ele>328</ele><time>2019-09-10T18:19:56.000Z</time></trkpt><trkpt lon="15.631931" lat="46.5385389"><ele>328</ele><time>2019-09-10T18:19:57.000Z</time></trkpt><trkpt lon="15.6319756" lat="46.5386345"><ele>328</ele><time>2019-09-10T18:19:58.000Z</time></trkpt><trkpt lon="15.6319756" lat="46.5386345"><ele>328</ele><time>2019-09-10T18:19:59.000Z</time></trkpt><trkpt lon="15.6320114" lat="46.5387316"><ele>328</ele><time>2019-09-10T18:20:00.000Z</time></trkpt><trkpt lon="15.6320266" lat="46.5387807"><ele>328</ele><time>2019-09-10T18:20:01.000Z</time></trkpt><trkpt lon="15.6320478" lat="46.5388292"><ele>328</ele><time>2019-09-10T18:20:02.000Z</time></trkpt><trkpt lon="15.6320478" lat="46.5388292"><ele>328</ele><time>2019-09-10T18:20:03.000Z</time></trkpt><trkpt lon="15.6320884" lat="46.5389224"><ele>328</ele><time>2019-09-10T18:20:04.000Z</time></trkpt><trkpt lon="15.6320884" lat="46.5389224"><ele>328</ele><time>2019-09-10T18:20:05.000Z</time></trkpt><trkpt lon="15.6321152" lat="46.5390171"><ele>328</ele><time>2019-09-10T18:20:06.000Z</time></trkpt><trkpt lon="15.6321152" lat="46.5390171"><ele>328</ele><time>2019-09-10T18:20:07.000Z</time></trkpt><trkpt lon="15.6321493" lat="46.5391054"><ele>328</ele><time>2019-09-10T18:20:08.000Z</time></trkpt><trkpt lon="15.6321493" lat="46.5391054"><ele>328</ele><time>2019-09-10T18:20:09.000Z</time></trkpt><trkpt lon="15.6321493" lat="46.5391054"><ele>328</ele><time>2019-09-10T18:20:10.000Z</time></trkpt><trkpt lon="15.6321524" lat="46.5392284"><ele>328</ele><time>2019-09-10T18:20:11.000Z</time></trkpt><trkpt lon="15.6321524" lat="46.5392284"><ele>328</ele><time>2019-09-10T18:20:12.000Z</time></trkpt><trkpt lon="15.6321524" lat="46.5392284"><ele>328</ele><time>2019-09-10T18:20:13.000Z</time></trkpt><trkpt lon="-999.0" lat="-999.0"><ele>0.0</ele><time>2019-09-10T18:20:14.000Z</time></trkpt><trkpt lon="15.6320173" lat="46.539355"><ele>327</ele><time>2019-09-10T18:20:15.000Z</time></trkpt><trkpt lon="15.6320173" lat="46.539355"><ele>327</ele><time>2019-09-10T18:20:16.000Z</time></trkpt><trkpt lon="15.6319111" lat="46.5394038"><ele>328</ele><time>2019-09-10T18:20:17.000Z</time></trkpt><trkpt lon="15.6318661" lat="46.539434"><ele>327</ele><time>2019-09-10T18:20:18.000Z</time></trkpt><trkpt lon="15.6318224" lat="46.5394646"><ele>328</ele><time>2019-09-10T18:20:19.000Z</time></trkpt><trkpt lon="15.6318224" lat="46.5394646"><ele>328</ele><time>2019-09-10T18:20:20.000Z</time></trkpt><trkpt lon="15.6317283" lat="46.539514"><ele>328</ele><time>2019-09-10T18:20:21.000Z</time></trkpt><trkpt lon="15.6316802" lat="46.5395336"><ele>328</ele><time>2019-09-10T18:20:22.000Z</time></trkpt><trkpt lon="15.6316802" lat="46.5395336"><ele>328</ele><time>2019-09-10T18:20:23.000Z</time></trkpt><trkpt lon="15.6316264" lat="46.5395532"><ele>328</ele><time>2019-09-10T18:20:24.000Z</time></trkpt><trkpt lon="15.6316264" lat="46.5395532"><ele>328</ele><time>2019-09-10T18:20:25.000Z</time></trkpt><trkpt lon="15.6315659" lat="46.5395709"><ele>328</ele><time>2019-09-10T18:20:26.000Z</time></trkpt><trkpt lon="15.6315659" lat="46.5395709"><ele>328</ele><time>2019-09-10T18:20:27.000Z</time></trkpt><trkpt lon="15.6315659" lat="46.5395709"><ele>328</ele><time>2019-09-10T18:20:28.000Z</time></trkpt><trkpt lon="-999.0" lat="-999.0"><ele>0.0</ele><time>2019-09-10T18:20:29.000Z</time></trkpt><trkpt lon="15.6315301" lat="46.5395837"><ele>327</ele><time>2019-09-10T18:20:30.000Z</time></trkpt><trkpt lon="15.6315301" lat="46.5395837"><ele>327</ele><time>2019-09-10T18:20:31.000Z</time></trkpt><trkpt lon="15.6315301" lat="46.5395837"><ele>327</ele><time>2019-09-10T18:20:32.000Z</time></trkpt><trkpt lon="15.6315301" lat="46.5395837"><ele>327</ele><time>2019-09-10T18:20:33.000Z</time></trkpt><trkpt lon="-999.0" lat="-999.0"><ele>0.0</ele><time>2019-09-10T18:20:34.000Z</time></trkpt><trkpt lon="15.6315696" lat="46.5395797"><ele>328</ele><time>2019-09-10T18:20:35.000Z</time></trkpt><trkpt lon="15.6315696" lat="46.5395797"><ele>328</ele><time>2019-09-10T18:20:36.000Z</time></trkpt><trkpt lon="15.6316012" lat="46.5395636"><ele>328</ele><time>2019-09-10T18:20:37.000Z</time></trkpt><trkpt lon="15.6316012" lat="46.5395636"><ele>328</ele><time>2019-09-10T18:20:38.000Z</time></trkpt><trkpt lon="15.6316012" lat="46.5395636"><ele>328</ele><time>2019-09-10T18:20:39.000Z</time></trkpt><trkpt lon="-999.0" lat="-999.0"><ele>0.0</ele><time>2019-09-10T18:20:40.000Z</time></trkpt><trkpt lon="-999.0" lat="-999.0"><ele>0.0</ele><time>2019-09-10T18:20:41.000Z</time></trkpt><trkpt lon="-999.0" lat="-999.0"><ele>0.0</ele><time>2019-09-10T18:20:42.000Z</time></trkpt><trkpt lon="-999.0" lat="-999.0"><ele>0.0</ele><time>2019-09-10T18:20:43.000Z</time></trkpt><trkpt lon="-999.0" lat="-999.0"><ele>0.0</ele><time>2019-09-10T18:20:44.000Z</time></trkpt><trkpt lon="-999.0" lat="-999.0"><ele>0.0</ele><time>2019-09-10T18:20:45.000Z</time></trkpt><trkpt lon="-999.0" lat="-999.0"><ele>0.0</ele><time>2019-09-10T18:20:46.000Z</time></trkpt><trkpt lon="-999.0" lat="-999.0"><ele>0.0</ele><time>2019-09-10T18:20:47.000Z</time></trkpt><trkpt lon="-999.0" lat="-999.0"><ele>0.0</ele><time>2019-09-10T18:20:48.000Z</time></trkpt><trkpt lon="-999.0" lat="-999.0"><ele>0.0</ele><time>2019-09-10T18:20:49.000Z</time></trkpt><trkpt lon="-999.0" lat="-999.0"><ele>0.0</ele><time>2019-09-10T18:20:50.000Z</time></trkpt><trkpt lon="-999.0" lat="-999.0"><ele>0.0</ele><time>2019-09-10T18:20:51.000Z</time></trkpt><trkpt lon="-999.0" lat="-999.0"><ele>0.0</ele><time>2019-09-10T18:20:52.000Z</time></trkpt><trkpt lon="-999.0" lat="-999.0"><ele>0.0</ele><time>2019-09-10T18:20:53.000Z</time></trkpt><trkpt lon="-999.0" lat="-999.0"><ele>0.0</ele><time>2019-09-10T18:20:54.000Z</time></trkpt><trkpt lon="-999.0" lat="-999.0"><ele>0.0</ele><time>2019-09-10T18:20:55.000Z</time></trkpt><trkpt lon="-999.0" lat="-999.0"><ele>0.0</ele><time>2019-09-10T18:20:56.000Z</time></trkpt><trkpt lon="-999.0" lat="-999.0"><ele>0.0</ele><time>2019-09-10T18:20:57.000Z</time></trkpt><trkpt lon="-999.0" lat="-999.0"><ele>0.0</ele><time>2019-09-10T18:20:58.000Z</time></trkpt><trkpt lon="-999.0" lat="-999.0"><ele>0.0</ele><time>2019-09-10T18:20:59.000Z</time></trkpt><trkpt lon="-999.0" lat="-999.0"><ele>0.0</ele><time>2019-09-10T18:21:00.000Z</time></trkpt><trkpt lon="-999.0" lat="-999.0"><ele>0.0</ele><time>2019-09-10T18:21:01.000Z</time></trkpt><trkpt lon="-999.0" lat="-999.0"><ele>0.0</ele><time>2019-09-10T18:21:02.000Z</time></trkpt><trkpt lon="-999.0" lat="-999.0"><ele>0.0</ele><time>2019-09-10T18:21:03.000Z</time></trkpt><trkpt lon="-999.0" lat="-999.0"><ele>0.0</ele><time>2019-09-10T18:21:04.000Z</time></trkpt><trkpt lon="-999.0" lat="-999.0"><ele>0.0</ele><time>2019-09-10T18:21:05.000Z</time></trkpt><trkpt lon="-999.0" lat="-999.0"><ele>0.0</ele><time>2019-09-10T18:21:06.000Z</time></trkpt><trkpt lon="-999.0" lat="-999.0"><ele>0.0</ele><time>2019-09-10T18:21:07.000Z</time></trkpt><trkpt lon="-999.0" lat="-999.0"><ele>0.0</ele><time>2019-09-10T18:21:08.000Z</time></trkpt><trkpt lon="-999.0" lat="-999.0"><ele>0.0</ele><time>2019-09-10T18:21:09.000Z</time></trkpt><trkpt lon="-999.0" lat="-999.0"><ele>0.0</ele><time>2019-09-10T18:21:10.000Z</time></trkpt><trkpt lon="-999.0" lat="-999.0"><ele>0.0</ele><time>2019-09-10T18:21:11.000Z</time></trkpt><trkpt lon="-999.0" lat="-999.0"><ele>0.0</ele><time>2019-09-10T18:21:12.000Z</time></trkpt><trkpt lon="-999.0" lat="-999.0"><ele>0.0</ele><time>2019-09-10T18:21:13.000Z</time></trkpt><trkpt lon="-999.0" lat="-999.0"><ele>0.0</ele><time>2019-09-10T18:21:14.000Z</time></trkpt><trkpt lon="-999.0" lat="-999.0"><ele>0.0</ele><time>2019-09-10T18:21:15.000Z</time></trkpt><trkpt lon="-999.0" lat="-999.0"><ele>0.0</ele><time>2019-09-10T18:21:16.000Z</time></trkpt><trkpt lon="-999.0" lat="-999.0"><ele>0.0</ele><time>2019-09-10T18:21:17.000Z</time></trkpt><trkpt lon="-999.0" lat="-999.0"><ele>0.0</ele><time>2019-09-10T18:21:18.000Z</time></trkpt><trkpt lon="-999.0" lat="-999.0"><ele>0.0</ele><time>2019-09-10T18:21:19.000Z</time></trkpt><trkpt lon="-999.0" lat="-999.0"><ele>0.0</ele><time>2019-09-10T18:21:20.000Z</time></trkpt><trkpt lon="-999.0" lat="-999.0"><ele>0.0</ele><time>2019-09-10T18:21:21.000Z</time></trkpt><trkpt lon="-999.0" lat="-999.0"><ele>0.0</ele><time>2019-09-10T18:21:22.000Z</time></trkpt><trkpt lon="-999.0" lat="-999.0"><ele>0.0</ele><time>2019-09-10T18:21:23.000Z</time></trkpt><trkpt lon="-999.0" lat="-999.0"><ele>0.0</ele><time>2019-09-10T18:21:24.000Z</time></trkpt><trkpt lon="-999.0" lat="-999.0"><ele>0.0</ele><time>2019-09-10T18:21:25.000Z</time></trkpt><trkpt lon="-999.0" lat="-999.0"><ele>0.0</ele><time>2019-09-10T18:21:26.000Z</time></trkpt><trkpt lon="-999.0" lat="-999.0"><ele>0.0</ele><time>2019-09-10T18:21:27.000Z</time></trkpt><trkpt lon="-999.0" lat="-999.0"><ele>0.0</ele><time>2019-09-10T18:21:28.000Z</time></trkpt><trkpt lon="-999.0" lat="-999.0"><ele>0.0</ele><time>2019-09-10T18:21:30.000Z</time></trkpt><trkpt lon="-999.0" lat="-999.0"><ele>0.0</ele><time>2019-09-10T18:21:31.000Z</time></trkpt><trkpt lon="-999.0" lat="-999.0"><ele>0.0</ele><time>2019-09-10T18:21:32.000Z</time></trkpt><trkpt lon="-999.0" lat="-999.0"><ele>0.0</ele><time>2019-09-10T18:21:33.000Z</time></trkpt><trkpt lon="-999.0" lat="-999.0"><ele>0.0</ele><time>2019-09-10T18:21:34.000Z</time></trkpt><trkpt lon="-999.0" lat="-999.0"><ele>0.0</ele><time>2019-09-10T18:21:35.000Z</time></trkpt><trkpt lon="-999.0" lat="-999.0"><ele>0.0</ele><time>2019-09-10T18:21:36.000Z</time></trkpt><trkpt lon="-999.0" lat="-999.0"><ele>0.0</ele><time>2019-09-10T18:21:37.000Z</time></trkpt><trkpt lon="-999.0" lat="-999.0"><ele>0.0</ele><time>2019-09-10T18:21:38.000Z</time></trkpt><trkpt lon="-999.0" lat="-999.0"><ele>0.0</ele><time>2019-09-10T18:21:39.000Z</time></trkpt><trkpt lon="-999.0" lat="-999.0"><ele>0.0</ele><time>2019-09-10T18:21:40.000Z</time></trkpt><trkpt lon="-999.0" lat="-999.0"><ele>0.0</ele><time>2019-09-10T18:21:41.000Z</time></trkpt><trkpt lon="-999.0" lat="-999.0"><ele>0.0</ele><time>2019-09-10T18:21:42.000Z</time></trkpt><trkpt lon="-999.0" lat="-999.0"><ele>0.0</ele><time>2019-09-10T18:21:43.000Z</time></trkpt><trkpt lon="-999.0" lat="-999.0"><ele>0.0</ele><time>2019-09-10T18:21:44.000Z</time></trkpt><trkpt lon="-999.0" lat="-999.0"><ele>0.0</ele><time>2019-09-10T18:21:45.000Z</time></trkpt><trkpt lon="-999.0" lat="-999.0"><ele>0.0</ele><time>2019-09-10T18:21:46.000Z</time></trkpt><trkpt lon="-999.0" lat="-999.0"><ele>0.0</ele><time>2019-09-10T18:21:47.000Z</time></trkpt><trkpt lon="-999.0" lat="-999.0"><ele>0.0</ele><time>2019-09-10T18:21:48.000Z</time></trkpt><trkpt lon="-999.0" lat="-999.0"><ele>0.0</ele><time>2019-09-10T18:21:49.000Z</time></trkpt><trkpt lon="-999.0" lat="-999.0"><ele>0.0</ele><time>2019-09-10T18:21:50.000Z</time></trkpt><trkpt lon="-999.0" lat="-999.0"><ele>0.0</ele><time>2019-09-10T18:21:51.000Z</time></trkpt><trkpt lon="-999.0" lat="-999.0"><ele>0.0</ele><time>2019-09-10T18:21:52.000Z</time></trkpt><trkpt lon="-999.0" lat="-999.0"><ele>0.0</ele><time>2019-09-10T18:21:53.000Z</time></trkpt><trkpt lon="-999.0" lat="-999.0"><ele>0.0</ele><time>2019-09-10T18:21:54.000Z</time></trkpt><trkpt lon="-999.0" lat="-999.0"><ele>0.0</ele><time>2019-09-10T18:21:55.000Z</time></trkpt><trkpt lon="-999.0" lat="-999.0"><ele>0.0</ele><time>2019-09-10T18:21:56.000Z</time></trkpt><trkpt lon="-999.0" lat="-999.0"><ele>0.0</ele><time>2019-09-10T18:21:57.000Z</time></trkpt><trkpt lon="-999.0" lat="-999.0"><ele>0.0</ele><time>2019-09-10T18:21:58.000Z</time></trkpt><trkpt lon="-999.0" lat="-999.0"><ele>0.0</ele><time>2019-09-10T18:21:59.000Z</time></trkpt><trkpt lon="-999.0" lat="-999.0"><ele>0.0</ele><time>2019-09-10T18:22:00.000Z</time></trkpt><trkpt lon="-999.0" lat="-999.0"><ele>0.0</ele><time>2019-09-10T18:22:01.000Z</time></trkpt><trkpt lon="-999.0" lat="-999.0"><ele>0.0</ele><time>2019-09-10T18:22:02.000Z</time></trkpt><trkpt lon="-999.0" lat="-999.0"><ele>0.0</ele><time>2019-09-10T18:22:03.000Z</time></trkpt><trkpt lon="-999.0" lat="-999.0"><ele>0.0</ele><time>2019-09-10T18:22:04.000Z</time></trkpt><trkpt lon="-999.0" lat="-999.0"><ele>0.0</ele><time>2019-09-10T18:22:05.000Z</time></trkpt><trkpt lon="-999.0" lat="-999.0"><ele>0.0</ele><time>2019-09-10T18:22:06.000Z</time></trkpt><trkpt lon="-999.0" lat="-999.0"><ele>0.0</ele><time>2019-09-10T18:22:07.000Z</time></trkpt><trkpt lon="-999.0" lat="-999.0"><ele>0.0</ele><time>2019-09-10T18:22:08.000Z</time></trkpt><trkpt lon="-999.0" lat="-999.0"><ele>0.0</ele><time>2019-09-10T18:22:09.000Z</time></trkpt><trkpt lon="-999.0" lat="-999.0"><ele>0.0</ele><time>2019-09-10T18:22:10.000Z</time></trkpt><trkpt lon="-999.0" lat="-999.0"><ele>0.0</ele><time>2019-09-10T18:22:11.000Z</time></trkpt><trkpt lon="-999.0" lat="-999.0"><ele>0.0</ele><time>2019-09-10T18:22:12.000Z</time></trkpt><trkpt lon="-999.0" lat="-999.0"><ele>0.0</ele><time>2019-09-10T18:22:13.000Z</time></trkpt><trkpt lon="-999.0" lat="-999.0"><ele>0.0</ele><time>2019-09-10T18:22:14.000Z</time></trkpt><trkpt lon="-999.0" lat="-999.0"><ele>0.0</ele><time>2019-09-10T18:22:15.000Z</time></trkpt><trkpt lon="-999.0" lat="-999.0"><ele>0.0</ele><time>2019-09-10T18:22:16.000Z</time></trkpt><trkpt lon="-999.0" lat="-999.0"><ele>0.0</ele><time>2019-09-10T18:22:17.000Z</time></trkpt><trkpt lon="-999.0" lat="-999.0"><ele>0.0</ele><time>2019-09-10T18:22:18.000Z</time></trkpt><trkpt lon="-999.0" lat="-999.0"><ele>0.0</ele><time>2019-09-10T18:22:19.000Z</time></trkpt><trkpt lon="-999.0" lat="-999.0"><ele>0.0</ele><time>2019-09-10T18:22:20.000Z</time></trkpt><trkpt lon="15.63163" lat="46.5395414"><ele>328</ele><time>2019-09-10T18:22:21.000Z</time></trkpt><trkpt lon="15.63163" lat="46.5395414"><ele>328</ele><time>2019-09-10T18:22:22.000Z</time></trkpt><trkpt lon="15.63163" lat="46.5395414"><ele>328</ele><time>2019-09-10T18:22:23.000Z</time></trkpt><trkpt lon="15.6315903" lat="46.539561"><ele>328</ele><time>2019-09-10T18:22:24.000Z</time></trkpt><trkpt lon="15.6315151" lat="46.5396148"><ele>328</ele><time>2019-09-10T18:22:25.000Z</time></trkpt><trkpt lon="15.6315151" lat="46.5396148"><ele>328</ele><time>2019-09-10T18:22:26.000Z</time></trkpt><trkpt lon="15.6313875" lat="46.5396768"><ele>328</ele><time>2019-09-10T18:22:27.000Z</time></trkpt><trkpt lon="15.6313086" lat="46.539712"><ele>328</ele><time>2019-09-10T18:22:28.000Z</time></trkpt><trkpt lon="15.6313086" lat="46.539712"><ele>328</ele><time>2019-09-10T18:22:29.000Z</time></trkpt><trkpt lon="15.631154" lat="46.5397801"><ele>328</ele><time>2019-09-10T18:22:30.000Z</time></trkpt><trkpt lon="15.631154" lat="46.5397801"><ele>328</ele><time>2019-09-10T18:22:31.000Z</time></trkpt><trkpt lon="15.6310001" lat="46.5398475"><ele>328</ele><time>2019-09-10T18:22:32.000Z</time></trkpt><trkpt lon="15.6310001" lat="46.5398475"><ele>328</ele><time>2019-09-10T18:22:33.000Z</time></trkpt><trkpt lon="15.6308472" lat="46.5399078"><ele>328</ele><time>2019-09-10T18:22:34.000Z</time></trkpt><trkpt lon="15.6308472" lat="46.5399078"><ele>328</ele><time>2019-09-10T18:22:35.000Z</time></trkpt><trkpt lon="15.6307005" lat="46.5399738"><ele>328</ele><time>2019-09-10T18:22:36.000Z</time></trkpt><trkpt lon="15.6307005" lat="46.5399738"><ele>328</ele><time>2019-09-10T18:22:37.000Z</time></trkpt><trkpt lon="15.6305645" lat="46.5400371"><ele>329</ele><time>2019-09-10T18:22:38.000Z</time></trkpt><trkpt lon="15.6304994" lat="46.5400707"><ele>329</ele><time>2019-09-10T18:22:39.000Z</time></trkpt><trkpt lon="15.6304994" lat="46.5400707"><ele>329</ele><time>2019-09-10T18:22:40.000Z</time></trkpt><trkpt lon="15.6303736" lat="46.5401368"><ele>329</ele><time>2019-09-10T18:22:41.000Z</time></trkpt><trkpt lon="15.6303126" lat="46.5401669"><ele>329</ele><time>2019-09-10T18:22:42.000Z</time></trkpt><trkpt lon="15.6302538" lat="46.5401957"><ele>329</ele><time>2019-09-10T18:22:43.000Z</time></trkpt><trkpt lon="15.6301943" lat="46.5402263"><ele>329</ele><time>2019-09-10T18:22:44.000Z</time></trkpt><trkpt lon="15.6301326" lat="46.5402571"><ele>329</ele><time>2019-09-10T18:22:45.000Z</time></trkpt><trkpt lon="15.6301326" lat="46.5402571"><ele>329</ele><time>2019-09-10T18:22:46.000Z</time></trkpt><trkpt lon="15.6300072" lat="46.5403229"><ele>329</ele><time>2019-09-10T18:22:47.000Z</time></trkpt><trkpt lon="15.6299437" lat="46.5403558"><ele>329</ele><time>2019-09-10T18:22:48.000Z</time></trkpt><trkpt lon="15.6299437" lat="46.5403558"><ele>329</ele><time>2019-09-10T18:22:49.000Z</time></trkpt><trkpt lon="15.6298196" lat="46.5404167"><ele>329</ele><time>2019-09-10T18:22:50.000Z</time></trkpt><trkpt lon="15.6297604" lat="46.5404459"><ele>329</ele><time>2019-09-10T18:22:51.000Z</time></trkpt><trkpt lon="15.6297604" lat="46.5404459"><ele>329</ele><time>2019-09-10T18:22:52.000Z</time></trkpt><trkpt lon="15.6296394" lat="46.5405019"><ele>329</ele><time>2019-09-10T18:22:53.000Z</time></trkpt><trkpt lon="15.6296394" lat="46.5405019"><ele>329</ele><time>2019-09-10T18:22:54.000Z</time></trkpt><trkpt lon="15.6295185" lat="46.5405626"><ele>329</ele><time>2019-09-10T18:22:55.000Z</time></trkpt><trkpt lon="15.6295185" lat="46.5405626"><ele>329</ele><time>2019-09-10T18:22:56.000Z</time></trkpt><trkpt lon="15.6294006" lat="46.5406191"><ele>329</ele><time>2019-09-10T18:22:57.000Z</time></trkpt><trkpt lon="15.6293458" lat="46.5406456"><ele>329</ele><time>2019-09-10T18:22:58.000Z</time></trkpt><trkpt lon="15.6293458" lat="46.5406456"><ele>329</ele><time>2019-09-10T18:22:59.000Z</time></trkpt><trkpt lon="15.6292637" lat="46.5407005"><ele>329</ele><time>2019-09-10T18:23:00.000Z</time></trkpt><trkpt lon="15.6292637" lat="46.5407005"><ele>329</ele><time>2019-09-10T18:23:01.000Z</time></trkpt><trkpt lon="15.6292453" lat="46.5407465"><ele>329</ele><time>2019-09-10T18:23:02.000Z</time></trkpt><trkpt lon="15.6292453" lat="46.5407465"><ele>329</ele><time>2019-09-10T18:23:03.000Z</time></trkpt><trkpt lon="15.6292909" lat="46.5408323"><ele>329</ele><time>2019-09-10T18:23:04.000Z</time></trkpt><trkpt lon="15.6292909" lat="46.5408323"><ele>329</ele><time>2019-09-10T18:23:05.000Z</time></trkpt><trkpt lon="15.629355" lat="46.5409"><ele>329</ele><time>2019-09-10T18:23:06.000Z</time></trkpt><trkpt lon="15.629355" lat="46.5409"><ele>329</ele><time>2019-09-10T18:23:07.000Z</time></trkpt><trkpt lon="15.6294331" lat="46.5409843"><ele>329</ele><time>2019-09-10T18:23:08.000Z</time></trkpt><trkpt lon="15.6294731" lat="46.5410294"><ele>329</ele><time>2019-09-10T18:23:09.000Z</time></trkpt><trkpt lon="15.6294731" lat="46.5410294"><ele>329</ele><time>2019-09-10T18:23:10.000Z</time></trkpt><trkpt lon="15.6295576" lat="46.5411264"><ele>329</ele><time>2019-09-10T18:23:11.000Z</time></trkpt><trkpt lon="15.6295576" lat="46.5411264"><ele>329</ele><time>2019-09-10T18:23:12.000Z</time></trkpt><trkpt lon="15.6296482" lat="46.541219"><ele>329</ele><time>2019-09-10T18:23:13.000Z</time></trkpt><trkpt lon="15.629691" lat="46.5412637"><ele>329</ele><time>2019-09-10T18:23:14.000Z</time></trkpt><trkpt lon="15.629691" lat="46.5412637"><ele>329</ele><time>2019-09-10T18:23:15.000Z</time></trkpt><trkpt lon="15.6297721" lat="46.5413513"><ele>329</ele><time>2019-09-10T18:23:16.000Z</time></trkpt><trkpt lon="15.6298113" lat="46.5413966"><ele>329</ele><time>2019-09-10T18:23:17.000Z</time></trkpt><trkpt lon="15.6298113" lat="46.5413966"><ele>329</ele><time>2019-09-10T18:23:18.000Z</time></trkpt><trkpt lon="15.6298926" lat="46.5414845"><ele>329</ele><time>2019-09-10T18:23:19.000Z</time></trkpt><trkpt lon="15.6299273" lat="46.5415277"><ele>329</ele><time>2019-09-10T18:23:20.000Z</time></trkpt><trkpt lon="15.6299273" lat="46.5415277"><ele>329</ele><time>2019-09-10T18:23:21.000Z</time></trkpt><trkpt lon="15.6299985" lat="46.5416084"><ele>329</ele><time>2019-09-10T18:23:22.000Z</time></trkpt><trkpt lon="15.6300307" lat="46.5416441"><ele>329</ele><time>2019-09-10T18:23:23.000Z</time></trkpt><trkpt lon="15.6300307" lat="46.5416441"><ele>329</ele><time>2019-09-10T18:23:24.000Z</time></trkpt><trkpt lon="15.6300676" lat="46.5416809"><ele>329</ele><time>2019-09-10T18:23:25.000Z</time></trkpt><trkpt lon="15.6300676" lat="46.5416809"><ele>329</ele><time>2019-09-10T18:23:26.000Z</time></trkpt><trkpt lon="15.6300934" lat="46.5417075"><ele>329</ele><time>2019-09-10T18:23:27.000Z</time></trkpt><trkpt lon="15.6300934" lat="46.5417075"><ele>329</ele><time>2019-09-10T18:23:28.000Z</time></trkpt><trkpt lon="15.6301325" lat="46.5417487"><ele>328</ele><time>2019-09-10T18:23:29.000Z</time></trkpt><trkpt lon="15.6301325" lat="46.5417487"><ele>328</ele><time>2019-09-10T18:23:30.000Z</time></trkpt><trkpt lon="15.6301282" lat="46.5417822"><ele>328</ele><time>2019-09-10T18:23:31.000Z</time></trkpt><trkpt lon="15.6301282" lat="46.5417822"><ele>328</ele><time>2019-09-10T18:23:32.000Z</time></trkpt><trkpt lon="15.6300674" lat="46.5418417"><ele>328</ele><time>2019-09-10T18:23:33.000Z</time></trkpt><trkpt lon="15.6299885" lat="46.5418801"><ele>328</ele><time>2019-09-10T18:23:34.000Z</time></trkpt><trkpt lon="15.6299885" lat="46.5418801"><ele>328</ele><time>2019-09-10T18:23:35.000Z</time></trkpt><trkpt lon="15.6299181" lat="46.5419076"><ele>328</ele><time>2019-09-10T18:23:36.000Z</time></trkpt><trkpt lon="15.6299181" lat="46.5419076"><ele>328</ele><time>2019-09-10T18:23:37.000Z</time></trkpt><trkpt lon="15.6298775" lat="46.5419239"><ele>328</ele><time>2019-09-10T18:23:38.000Z</time></trkpt><trkpt lon="15.6298366" lat="46.5419402"><ele>328</ele><time>2019-09-10T18:23:39.000Z</time></trkpt><trkpt lon="15.6298366" lat="46.5419402"><ele>328</ele><time>2019-09-10T18:23:40.000Z</time></trkpt><trkpt lon="15.6297272" lat="46.5419892"><ele>328</ele><time>2019-09-10T18:23:41.000Z</time></trkpt><trkpt lon="15.6296769" lat="46.542014"><ele>328</ele><time>2019-09-10T18:23:42.000Z</time></trkpt><trkpt lon="15.6296254" lat="46.5420388"><ele>328</ele><time>2019-09-10T18:23:43.000Z</time></trkpt><trkpt lon="15.6296254" lat="46.5420388"><ele>328</ele><time>2019-09-10T18:23:44.000Z</time></trkpt><trkpt lon="15.6295181" lat="46.5420877"><ele>328</ele><time>2019-09-10T18:23:45.000Z</time></trkpt><trkpt lon="15.6294578" lat="46.5421141"><ele>328</ele><time>2019-09-10T18:23:46.000Z</time></trkpt><trkpt lon="15.6294578" lat="46.5421141"><ele>328</ele><time>2019-09-10T18:23:47.000Z</time></trkpt><trkpt lon="15.62933" lat="46.5421766"><ele>328</ele><time>2019-09-10T18:23:48.000Z</time></trkpt><trkpt lon="15.6292666" lat="46.5422079"><ele>328</ele><time>2019-09-10T18:23:49.000Z</time></trkpt><trkpt lon="15.6292666" lat="46.5422079"><ele>328</ele><time>2019-09-10T18:23:50.000Z</time></trkpt><trkpt lon="15.6291421" lat="46.5422678"><ele>327</ele><time>2019-09-10T18:23:51.000Z</time></trkpt><trkpt lon="15.6291421" lat="46.5422678"><ele>327</ele><time>2019-09-10T18:23:52.000Z</time></trkpt><trkpt lon="15.6290154" lat="46.5423285"><ele>328</ele><time>2019-09-10T18:23:53.000Z</time></trkpt><trkpt lon="15.6289462" lat="46.5423574"><ele>328</ele><time>2019-09-10T18:23:54.000Z</time></trkpt><trkpt lon="15.6289462" lat="46.5423574"><ele>328</ele><time>2019-09-10T18:23:55.000Z</time></trkpt><trkpt lon="15.6288119" lat="46.5424201"><ele>328</ele><time>2019-09-10T18:23:56.000Z</time></trkpt><trkpt lon="15.6287426" lat="46.5424521"><ele>328</ele><time>2019-09-10T18:23:57.000Z</time></trkpt><trkpt lon="15.6287426" lat="46.5424521"><ele>328</ele><time>2019-09-10T18:23:58.000Z</time></trkpt><trkpt lon="15.6286053" lat="46.5425085"><ele>328</ele><time>2019-09-10T18:23:59.000Z</time></trkpt><trkpt lon="15.6286053" lat="46.5425085"><ele>328</ele><time>2019-09-10T18:24:00.000Z</time></trkpt><trkpt lon="15.628473" lat="46.5425701"><ele>328</ele><time>2019-09-10T18:24:01.000Z</time></trkpt><trkpt lon="15.628473" lat="46.5425701"><ele>328</ele><time>2019-09-10T18:24:02.000Z</time></trkpt><trkpt lon="15.6283381" lat="46.5426275"><ele>328</ele><time>2019-09-10T18:24:03.000Z</time></trkpt><trkpt lon="15.6282725" lat="46.5426565"><ele>328</ele><time>2019-09-10T18:24:04.000Z</time></trkpt><trkpt lon="15.6282725" lat="46.5426565"><ele>328</ele><time>2019-09-10T18:24:05.000Z</time></trkpt><trkpt lon="15.6281401" lat="46.5427148"><ele>328</ele><time>2019-09-10T18:24:06.000Z</time></trkpt><trkpt lon="15.6281401" lat="46.5427148"><ele>328</ele><time>2019-09-10T18:24:07.000Z</time></trkpt><trkpt lon="15.6280237" lat="46.5427644"><ele>328</ele><time>2019-09-10T18:24:08.000Z</time></trkpt><trkpt lon="15.6280237" lat="46.5427644"><ele>328</ele><time>2019-09-10T18:24:09.000Z</time></trkpt><trkpt lon="15.6279852" lat="46.5427851"><ele>328</ele><time>2019-09-10T18:24:10.000Z</time></trkpt><trkpt lon="15.6279852" lat="46.5427851"><ele>328</ele><time>2019-09-10T18:24:11.000Z</time></trkpt><trkpt lon="15.6278997" lat="46.5428342"><ele>328</ele><time>2019-09-10T18:24:12.000Z</time></trkpt><trkpt lon="15.6278997" lat="46.5428342"><ele>328</ele><time>2019-09-10T18:24:13.000Z</time></trkpt><trkpt lon="15.6278131" lat="46.5428999"><ele>328</ele><time>2019-09-10T18:24:14.000Z</time></trkpt><trkpt lon="15.6277543" lat="46.5429175"><ele>328</ele><time>2019-09-10T18:24:15.000Z</time></trkpt><trkpt lon="15.6276931" lat="46.5429188"><ele>328</ele><time>2019-09-10T18:24:16.000Z</time></trkpt><trkpt lon="15.6276931" lat="46.5429188"><ele>328</ele><time>2019-09-10T18:24:17.000Z</time></trkpt><trkpt lon="15.6275816" lat="46.5429278"><ele>328</ele><time>2019-09-10T18:24:18.000Z</time></trkpt><trkpt lon="15.6275816" lat="46.5429278"><ele>328</ele><time>2019-09-10T18:24:19.000Z</time></trkpt><trkpt lon="15.6275093" lat="46.542944"><ele>328</ele><time>2019-09-10T18:24:20.000Z</time></trkpt><trkpt lon="15.6275093" lat="46.542944"><ele>328</ele><time>2019-09-10T18:24:21.000Z</time></trkpt><trkpt lon="15.6274348" lat="46.542961"><ele>328</ele><time>2019-09-10T18:24:22.000Z</time></trkpt><trkpt lon="15.6274348" lat="46.542961"><ele>328</ele><time>2019-09-10T18:24:23.000Z</time></trkpt><trkpt lon="15.6273134" lat="46.5429892"><ele>328</ele><time>2019-09-10T18:24:24.000Z</time></trkpt><trkpt lon="15.6273134" lat="46.5429892"><ele>328</ele><time>2019-09-10T18:24:25.000Z</time></trkpt><trkpt lon="15.6272418" lat="46.5430032"><ele>328</ele><time>2019-09-10T18:24:26.000Z</time></trkpt><trkpt lon="15.6272418" lat="46.5430032"><ele>328</ele><time>2019-09-10T18:24:27.000Z</time></trkpt><trkpt lon="15.6271057" lat="46.5430326"><ele>328</ele><time>2019-09-10T18:24:28.000Z</time></trkpt><trkpt lon="15.6270518" lat="46.5430489"><ele>328</ele><time>2019-09-10T18:24:29.000Z</time></trkpt><trkpt lon="15.6269966" lat="46.5430651"><ele>328</ele><time>2019-09-10T18:24:30.000Z</time></trkpt><trkpt lon="15.6269966" lat="46.5430651"><ele>328</ele><time>2019-09-10T18:24:31.000Z</time></trkpt><trkpt lon="15.6268789" lat="46.5430891"><ele>328</ele><time>2019-09-10T18:24:32.000Z</time></trkpt><trkpt lon="15.6268789" lat="46.5430891"><ele>328</ele><time>2019-09-10T18:24:33.000Z</time></trkpt><trkpt lon="15.6267531" lat="46.5431151"><ele>328</ele><time>2019-09-10T18:24:34.000Z</time></trkpt><trkpt lon="15.6266914" lat="46.5431286"><ele>329</ele><time>2019-09-10T18:24:35.000Z</time></trkpt><trkpt lon="15.6266274" lat="46.5431426"><ele>329</ele><time>2019-09-10T18:24:36.000Z</time></trkpt><trkpt lon="15.6266274" lat="46.5431426"><ele>329</ele><time>2019-09-10T18:24:37.000Z</time></trkpt><trkpt lon="15.6265016" lat="46.5431692"><ele>329</ele><time>2019-09-10T18:24:38.000Z</time></trkpt><trkpt lon="15.6265016" lat="46.5431692"><ele>329</ele><time>2019-09-10T18:24:39.000Z</time></trkpt><trkpt lon="15.626375" lat="46.543198"><ele>329</ele><time>2019-09-10T18:24:40.000Z</time></trkpt><trkpt lon="15.6263111" lat="46.5432109"><ele>329</ele><time>2019-09-10T18:24:41.000Z</time></trkpt><trkpt lon="15.6262472" lat="46.5432251"><ele>329</ele><time>2019-09-10T18:24:42.000Z</time></trkpt><trkpt lon="15.6262472" lat="46.5432251"><ele>329</ele><time>2019-09-10T18:24:43.000Z</time></trkpt><trkpt lon="15.6261191" lat="46.5432487"><ele>329</ele><time>2019-09-10T18:24:44.000Z</time></trkpt><trkpt lon="15.6260545" lat="46.5432602"><ele>329</ele><time>2019-09-10T18:24:45.000Z</time></trkpt><trkpt lon="15.6259913" lat="46.5432736"><ele>329</ele><time>2019-09-10T18:24:46.000Z</time></trkpt><trkpt lon="15.6259296" lat="46.5432874"><ele>329</ele><time>2019-09-10T18:24:47.000Z</time></trkpt><trkpt lon="15.6259296" lat="46.5432874"><ele>329</ele><time>2019-09-10T18:24:48.000Z</time></trkpt><trkpt lon="15.6258037" lat="46.5433151"><ele>329</ele><time>2019-09-10T18:24:49.000Z</time></trkpt><trkpt lon="15.6258037" lat="46.5433151"><ele>329</ele><time>2019-09-10T18:24:50.000Z</time></trkpt><trkpt lon="15.6256655" lat="46.5433423"><ele>329</ele><time>2019-09-10T18:24:51.000Z</time></trkpt><trkpt lon="15.6256655" lat="46.5433423"><ele>329</ele><time>2019-09-10T18:24:52.000Z</time></trkpt><trkpt lon="15.6255263" lat="46.5433688"><ele>329</ele><time>2019-09-10T18:24:53.000Z</time></trkpt><trkpt lon="15.625457" lat="46.5433827"><ele>330</ele><time>2019-09-10T18:24:54.000Z</time></trkpt><trkpt lon="15.625388" lat="46.5433995"><ele>330</ele><time>2019-09-10T18:24:55.000Z</time></trkpt><trkpt lon="15.625388" lat="46.5433995"><ele>330</ele><time>2019-09-10T18:24:56.000Z</time></trkpt><trkpt lon="15.6252483" lat="46.5434306"><ele>330</ele><time>2019-09-10T18:24:57.000Z</time></trkpt><trkpt lon="15.6251793" lat="46.5434471"><ele>330</ele><time>2019-09-10T18:24:58.000Z</time></trkpt><trkpt lon="15.6251124" lat="46.5434604"><ele>330</ele><time>2019-09-10T18:24:59.000Z</time></trkpt><trkpt lon="15.6251124" lat="46.5434604"><ele>330</ele><time>2019-09-10T18:25:00.000Z</time></trkpt><trkpt lon="15.6249883" lat="46.5434901"><ele>330</ele><time>2019-09-10T18:25:01.000Z</time></trkpt><trkpt lon="15.6249286" lat="46.5434997"><ele>330</ele><time>2019-09-10T18:25:02.000Z</time></trkpt><trkpt lon="15.6249286" lat="46.5434997"><ele>330</ele><time>2019-09-10T18:25:03.000Z</time></trkpt><trkpt lon="15.6248094" lat="46.5435185"><ele>330</ele><time>2019-09-10T18:25:04.000Z</time></trkpt><trkpt lon="15.6247522" lat="46.5435311"><ele>330</ele><time>2019-09-10T18:25:05.000Z</time></trkpt><trkpt lon="15.6246955" lat="46.5435439"><ele>330</ele><time>2019-09-10T18:25:06.000Z</time></trkpt><trkpt lon="15.6246955" lat="46.5435439"><ele>330</ele><time>2019-09-10T18:25:07.000Z</time></trkpt><trkpt lon="15.6245857" lat="46.5435709"><ele>330</ele><time>2019-09-10T18:25:08.000Z</time></trkpt><trkpt lon="15.6245857" lat="46.5435709"><ele>330</ele><time>2019-09-10T18:25:09.000Z</time></trkpt><trkpt lon="15.6245203" lat="46.5435848"><ele>329</ele><time>2019-09-10T18:25:10.000Z</time></trkpt><trkpt lon="15.6245203" lat="46.5435848"><ele>329</ele><time>2019-09-10T18:25:11.000Z</time></trkpt><trkpt lon="15.6244742" lat="46.5435978"><ele>329</ele><time>2019-09-10T18:25:12.000Z</time></trkpt><trkpt lon="15.6244314" lat="46.543609"><ele>329</ele><time>2019-09-10T18:25:13.000Z</time></trkpt><trkpt lon="15.6244314" lat="46.543609"><ele>329</ele><time>2019-09-10T18:25:14.000Z</time></trkpt><trkpt lon="15.6243043" lat="46.5436456"><ele>329</ele><time>2019-09-10T18:25:15.000Z</time></trkpt><trkpt lon="15.6243043" lat="46.5436456"><ele>329</ele><time>2019-09-10T18:25:16.000Z</time></trkpt><trkpt lon="15.6242643" lat="46.5436837"><ele>329</ele><time>2019-09-10T18:25:17.000Z</time></trkpt><trkpt lon="15.6242478" lat="46.5437244"><ele>329</ele><time>2019-09-10T18:25:18.000Z</time></trkpt><trkpt lon="15.6242478" lat="46.5437244"><ele>329</ele><time>2019-09-10T18:25:19.000Z</time></trkpt><trkpt lon="15.6242549" lat="46.5437817"><ele>329</ele><time>2019-09-10T18:25:20.000Z</time></trkpt><trkpt lon="15.6242549" lat="46.5437817"><ele>329</ele><time>2019-09-10T18:25:21.000Z</time></trkpt><trkpt lon="15.6242796" lat="46.5438375"><ele>329</ele><time>2019-09-10T18:25:22.000Z</time></trkpt><trkpt lon="15.6242971" lat="46.5438703"><ele>329</ele><time>2019-09-10T18:25:23.000Z</time></trkpt><trkpt lon="15.6242971" lat="46.5438703"><ele>329</ele><time>2019-09-10T18:25:24.000Z</time></trkpt><trkpt lon="15.6243247" lat="46.5439187"><ele>329</ele><time>2019-09-10T18:25:25.000Z</time></trkpt><trkpt lon="15.624343" lat="46.5439499"><ele>329</ele><time>2019-09-10T18:25:26.000Z</time></trkpt><trkpt lon="15.624343" lat="46.5439499"><ele>329</ele><time>2019-09-10T18:25:27.000Z</time></trkpt><trkpt lon="15.624382" lat="46.5440208"><ele>329</ele><time>2019-09-10T18:25:28.000Z</time></trkpt><trkpt lon="15.6244063" lat="46.5440675"><ele>329</ele><time>2019-09-10T18:25:29.000Z</time></trkpt><trkpt lon="15.6244063" lat="46.5440675"><ele>329</ele><time>2019-09-10T18:25:30.000Z</time></trkpt><trkpt lon="15.6244521" lat="46.5441518"><ele>329</ele><time>2019-09-10T18:25:31.000Z</time></trkpt><trkpt lon="15.6244697" lat="46.5441883"><ele>329</ele><time>2019-09-10T18:25:32.000Z</time></trkpt><trkpt lon="15.6244697" lat="46.5441883"><ele>329</ele><time>2019-09-10T18:25:33.000Z</time></trkpt><trkpt lon="15.6244845" lat="46.5442408"><ele>329</ele><time>2019-09-10T18:25:34.000Z</time></trkpt><trkpt lon="15.6244845" lat="46.5442408"><ele>329</ele><time>2019-09-10T18:25:35.000Z</time></trkpt><trkpt lon="15.6244987" lat="46.5442867"><ele>329</ele><time>2019-09-10T18:25:36.000Z</time></trkpt><trkpt lon="15.6245069" lat="46.54432"><ele>329</ele><time>2019-09-10T18:25:37.000Z</time></trkpt><trkpt lon="15.6245159" lat="46.5443554"><ele>329</ele><time>2019-09-10T18:25:38.000Z</time></trkpt><trkpt lon="15.6245159" lat="46.5443554"><ele>329</ele><time>2019-09-10T18:25:39.000Z</time></trkpt><trkpt lon="15.6245371" lat="46.5444237"><ele>329</ele><time>2019-09-10T18:25:40.000Z</time></trkpt><trkpt lon="15.624563" lat="46.5444744"><ele>329</ele><time>2019-09-10T18:25:41.000Z</time></trkpt><trkpt lon="15.624563" lat="46.5444744"><ele>329</ele><time>2019-09-10T18:25:42.000Z</time></trkpt><trkpt lon="15.624563" lat="46.5444744"><ele>329</ele><time>2019-09-10T18:25:43.000Z</time></trkpt><trkpt lon="15.6246073" lat="46.544535"><ele>329</ele><time>2019-09-10T18:25:44.000Z</time></trkpt><trkpt lon="15.6246073" lat="46.544535"><ele>329</ele><time>2019-09-10T18:25:45.000Z</time></trkpt><trkpt lon="15.6246296" lat="46.5445614"><ele>329</ele><time>2019-09-10T18:25:46.000Z</time></trkpt><trkpt lon="15.6246296" lat="46.5445614"><ele>329</ele><time>2019-09-10T18:25:47.000Z</time></trkpt><trkpt lon="15.6246296" lat="46.5445614"><ele>329</ele><time>2019-09-10T18:25:48.000Z</time></trkpt><trkpt lon="15.6246496" lat="46.5445848"><ele>329</ele><time>2019-09-10T18:25:49.000Z</time></trkpt><trkpt lon="15.6246496" lat="46.5445848"><ele>329</ele><time>2019-09-10T18:25:50.000Z</time></trkpt><trkpt lon="15.6246496" lat="46.5445848"><ele>329</ele><time>2019-09-10T18:25:51.000Z</time></trkpt><trkpt lon="-999.0" lat="-999.0"><ele>0.0</ele><time>2019-09-10T18:25:52.000Z</time></trkpt><trkpt lon="-999.0" lat="-999.0"><ele>0.0</ele><time>2019-09-10T18:25:53.000Z</time></trkpt><trkpt lon="-999.0" lat="-999.0"><ele>0.0</ele><time>2019-09-10T18:25:54.000Z</time></trkpt><trkpt lon="-999.0" lat="-999.0"><ele>0.0</ele><time>2019-09-10T18:25:55.000Z</time></trkpt><trkpt lon="-999.0" lat="-999.0"><ele>0.0</ele><time>2019-09-10T18:25:56.000Z</time></trkpt><trkpt lon="-999.0" lat="-999.0"><ele>0.0</ele><time>2019-09-10T18:25:57.000Z</time></trkpt><trkpt lon="-999.0" lat="-999.0"><ele>0.0</ele><time>2019-09-10T18:25:58.000Z</time></trkpt><trkpt lon="-999.0" lat="-999.0"><ele>0.0</ele><time>2019-09-10T18:25:59.000Z</time></trkpt><trkpt lon="-999.0" lat="-999.0"><ele>0.0</ele><time>2019-09-10T18:26:00.000Z</time></trkpt><trkpt lon="-999.0" lat="-999.0"><ele>0.0</ele><time>2019-09-10T18:26:01.000Z</time></trkpt><trkpt lon="15.6246663" lat="46.5445582"><ele>328</ele><time>2019-09-10T18:26:02.000Z</time></trkpt><trkpt lon="15.6246663" lat="46.5445582"><ele>328</ele><time>2019-09-10T18:26:03.000Z</time></trkpt><trkpt lon="15.6246663" lat="46.5445582"><ele>328</ele><time>2019-09-10T18:26:04.000Z</time></trkpt><trkpt lon="-999.0" lat="-999.0"><ele>0.0</ele><time>2019-09-10T18:26:05.000Z</time></trkpt><trkpt lon="-999.0" lat="-999.0"><ele>0.0</ele><time>2019-09-10T18:26:06.000Z</time></trkpt><trkpt lon="-999.0" lat="-999.0"><ele>0.0</ele><time>2019-09-10T18:26:07.000Z</time></trkpt><trkpt lon="-999.0" lat="-999.0"><ele>0.0</ele><time>2019-09-10T18:26:08.000Z</time></trkpt><trkpt lon="-999.0" lat="-999.0"><ele>0.0</ele><time>2019-09-10T18:26:09.000Z</time></trkpt><trkpt lon="-999.0" lat="-999.0"><ele>0.0</ele><time>2019-09-10T18:26:10.000Z</time></trkpt><trkpt lon="-999.0" lat="-999.0"><ele>0.0</ele><time>2019-09-10T18:26:11.000Z</time></trkpt><trkpt lon="-999.0" lat="-999.0"><ele>0.0</ele><time>2019-09-10T18:26:12.000Z</time></trkpt><trkpt lon="-999.0" lat="-999.0"><ele>0.0</ele><time>2019-09-10T18:26:13.000Z</time></trkpt><trkpt lon="-999.0" lat="-999.0"><ele>0.0</ele><time>2019-09-10T18:26:14.000Z</time></trkpt><trkpt lon="-999.0" lat="-999.0"><ele>0.0</ele><time>2019-09-10T18:26:15.000Z</time></trkpt><trkpt lon="-999.0" lat="-999.0"><ele>0.0</ele><time>2019-09-10T18:26:16.000Z</time></trkpt><trkpt lon="-999.0" lat="-999.0"><ele>0.0</ele><time>2019-09-10T18:26:17.000Z</time></trkpt><trkpt lon="-999.0" lat="-999.0"><ele>0.0</ele><time>2019-09-10T18:26:18.000Z</time></trkpt><trkpt lon="-999.0" lat="-999.0"><ele>0.0</ele><time>2019-09-10T18:26:19.000Z</time></trkpt><trkpt lon="-999.0" lat="-999.0"><ele>0.0</ele><time>2019-09-10T18:26:20.000Z</time></trkpt><trkpt lon="-999.0" lat="-999.0"><ele>0.0</ele><time>2019-09-10T18:26:21.000Z</time></trkpt><trkpt lon="-999.0" lat="-999.0"><ele>0.0</ele><time>2019-09-10T18:26:22.000Z</time></trkpt><trkpt lon="-999.0" lat="-999.0"><ele>0.0</ele><time>2019-09-10T18:26:23.000Z</time></trkpt><trkpt lon="-999.0" lat="-999.0"><ele>0.0</ele><time>2019-09-10T18:26:24.000Z</time></trkpt><trkpt lon="-999.0" lat="-999.0"><ele>0.0</ele><time>2019-09-10T18:26:25.000Z</time></trkpt><trkpt lon="15.624672" lat="46.5445853"><ele>328</ele><time>2019-09-10T18:26:26.000Z</time></trkpt><trkpt lon="15.624672" lat="46.5445853"><ele>328</ele><time>2019-09-10T18:26:27.000Z</time></trkpt><trkpt lon="15.624672" lat="46.5445853"><ele>328</ele><time>2019-09-10T18:26:28.000Z</time></trkpt><trkpt lon="15.624672" lat="46.5445853"><ele>328</ele><time>2019-09-10T18:26:29.000Z</time></trkpt><trkpt lon="15.6246741" lat="46.5446181"><ele>328</ele><time>2019-09-10T18:26:30.000Z</time></trkpt><trkpt lon="15.6246741" lat="46.5446181"><ele>328</ele><time>2019-09-10T18:26:31.000Z</time></trkpt><trkpt lon="15.6246767" lat="46.5446551"><ele>328</ele><time>2019-09-10T18:26:32.000Z</time></trkpt><trkpt lon="15.6246779" lat="46.5446844"><ele>328</ele><time>2019-09-10T18:26:33.000Z</time></trkpt><trkpt lon="15.6246779" lat="46.5446844"><ele>328</ele><time>2019-09-10T18:26:34.000Z</time></trkpt><trkpt lon="15.6246816" lat="46.5447192"><ele>328</ele><time>2019-09-10T18:26:35.000Z</time></trkpt><trkpt lon="15.6246816" lat="46.5447192"><ele>328</ele><time>2019-09-10T18:26:36.000Z</time></trkpt><trkpt lon="15.6246816" lat="46.5447192"><ele>328</ele><time>2019-09-10T18:26:37.000Z</time></trkpt><trkpt lon="15.6246701" lat="46.5447537"><ele>328</ele><time>2019-09-10T18:26:38.000Z</time></trkpt><trkpt lon="15.6246701" lat="46.5447537"><ele>328</ele><time>2019-09-10T18:26:39.000Z</time></trkpt><trkpt lon="15.6246701" lat="46.5447537"><ele>328</ele><time>2019-09-10T18:26:40.000Z</time></trkpt><trkpt lon="-999.0" lat="-999.0"><ele>0.0</ele><time>2019-09-10T18:26:41.000Z</time></trkpt><trkpt lon="-999.0" lat="-999.0"><ele>0.0</ele><time>2019-09-10T18:26:42.000Z</time></trkpt><trkpt lon="-999.0" lat="-999.0"><ele>0.0</ele><time>2019-09-10T18:26:43.000Z</time></trkpt><trkpt lon="-999.0" lat="-999.0"><ele>0.0</ele><time>2019-09-10T18:26:44.000Z</time></trkpt><trkpt lon="-999.0" lat="-999.0"><ele>0.0</ele><time>2019-09-10T18:26:45.000Z</time></trkpt><trkpt lon="-999.0" lat="-999.0"><ele>0.0</ele><time>2019-09-10T18:26:46.000Z</time></trkpt><trkpt lon="-999.0" lat="-999.0"><ele>0.0</ele><time>2019-09-10T18:26:47.000Z</time></trkpt><trkpt lon="-999.0" lat="-999.0"><ele>0.0</ele><time>2019-09-10T18:26:48.000Z</time></trkpt><trkpt lon="-999.0" lat="-999.0"><ele>0.0</ele><time>2019-09-10T18:26:49.000Z</time></trkpt><trkpt lon="15.6246348" lat="46.5447703"><ele>328</ele><time>2019-09-10T18:26:50.000Z</time></trkpt><trkpt lon="15.6246348" lat="46.5447703"><ele>328</ele><time>2019-09-10T18:26:51.000Z</time></trkpt><trkpt lon="15.6246348" lat="46.5447703"><ele>328</ele><time>2019-09-10T18:26:52.000Z</time></trkpt><trkpt lon="15.6245855" lat="46.5447792"><ele>329</ele><time>2019-09-10T18:26:53.000Z</time></trkpt><trkpt lon="15.6245855" lat="46.5447792"><ele>329</ele><time>2019-09-10T18:26:54.000Z</time></trkpt><trkpt lon="15.6244173" lat="46.544811"><ele>329</ele><time>2019-09-10T18:26:55.000Z</time></trkpt><trkpt lon="15.6243573" lat="46.5448255"><ele>329</ele><time>2019-09-10T18:26:56.000Z</time></trkpt><trkpt lon="15.6243573" lat="46.5448255"><ele>329</ele><time>2019-09-10T18:26:57.000Z</time></trkpt><trkpt lon="15.6242395" lat="46.5448502"><ele>328</ele><time>2019-09-10T18:26:58.000Z</time></trkpt><trkpt lon="15.6241112" lat="46.5448619"><ele>329</ele><time>2019-09-10T18:26:59.000Z</time></trkpt><trkpt lon="15.6241112" lat="46.5448619"><ele>329</ele><time>2019-09-10T18:27:00.000Z</time></trkpt><trkpt lon="15.623982" lat="46.5448621"><ele>329</ele><time>2019-09-10T18:27:01.000Z</time></trkpt><trkpt lon="15.623982" lat="46.5448621"><ele>329</ele><time>2019-09-10T18:27:02.000Z</time></trkpt><trkpt lon="15.6239295" lat="46.5448651"><ele>329</ele><time>2019-09-10T18:27:03.000Z</time></trkpt><trkpt lon="15.6238165" lat="46.5448734"><ele>329</ele><time>2019-09-10T18:27:04.000Z</time></trkpt><trkpt lon="15.6237611" lat="46.5448809"><ele>329</ele><time>2019-09-10T18:27:05.000Z</time></trkpt><trkpt lon="15.6237094" lat="46.5448883"><ele>329</ele><time>2019-09-10T18:27:06.000Z</time></trkpt><trkpt lon="15.6237094" lat="46.5448883"><ele>329</ele><time>2019-09-10T18:27:07.000Z</time></trkpt><trkpt lon="15.623659" lat="46.5448979"><ele>329</ele><time>2019-09-10T18:27:08.000Z</time></trkpt><trkpt lon="15.623659" lat="46.5448979"><ele>329</ele><time>2019-09-10T18:27:09.000Z</time></trkpt><trkpt lon="15.6235808" lat="46.5449112"><ele>329</ele><time>2019-09-10T18:27:10.000Z</time></trkpt><trkpt lon="15.6235102" lat="46.5449238"><ele>329</ele><time>2019-09-10T18:27:11.000Z</time></trkpt><trkpt lon="15.6235102" lat="46.5449238"><ele>329</ele><time>2019-09-10T18:27:12.000Z</time></trkpt><trkpt lon="15.6234357" lat="46.5449396"><ele>329</ele><time>2019-09-10T18:27:13.000Z</time></trkpt><trkpt lon="15.6234357" lat="46.5449396"><ele>329</ele><time>2019-09-10T18:27:14.000Z</time></trkpt><trkpt lon="15.6233944" lat="46.5449482"><ele>329</ele><time>2019-09-10T18:27:15.000Z</time></trkpt><trkpt lon="15.623331" lat="46.5449604"><ele>329</ele><time>2019-09-10T18:27:16.000Z</time></trkpt><trkpt lon="15.623331" lat="46.5449604"><ele>329</ele><time>2019-09-10T18:27:17.000Z</time></trkpt><trkpt lon="15.623331" lat="46.5449604"><ele>329</ele><time>2019-09-10T18:27:18.000Z</time></trkpt><trkpt lon="15.6232407" lat="46.5449803"><ele>329</ele><time>2019-09-10T18:27:19.000Z</time></trkpt><trkpt lon="15.6231936" lat="46.5449958"><ele>329</ele><time>2019-09-10T18:27:20.000Z</time></trkpt><trkpt lon="15.6231936" lat="46.5449958"><ele>329</ele><time>2019-09-10T18:27:21.000Z</time></trkpt><trkpt lon="15.6231459" lat="46.5450211"><ele>329</ele><time>2019-09-10T18:27:22.000Z</time></trkpt><trkpt lon="15.6231166" lat="46.5450482"><ele>329</ele><time>2019-09-10T18:27:23.000Z</time></trkpt><trkpt lon="15.6231166" lat="46.5450482"><ele>329</ele><time>2019-09-10T18:27:24.000Z</time></trkpt><trkpt lon="15.6231187" lat="46.5450955"><ele>329</ele><time>2019-09-10T18:27:25.000Z</time></trkpt><trkpt lon="15.6231187" lat="46.5450955"><ele>329</ele><time>2019-09-10T18:27:26.000Z</time></trkpt><trkpt lon="15.6231449" lat="46.5451393"><ele>329</ele><time>2019-09-10T18:27:27.000Z</time></trkpt><trkpt lon="15.6231715" lat="46.5451679"><ele>329</ele><time>2019-09-10T18:27:28.000Z</time></trkpt><trkpt lon="15.6232013" lat="46.5451969"><ele>329</ele><time>2019-09-10T18:27:29.000Z</time></trkpt><trkpt lon="15.6232013" lat="46.5451969"><ele>329</ele><time>2019-09-10T18:27:30.000Z</time></trkpt><trkpt lon="15.6232013" lat="46.5451969"><ele>329</ele><time>2019-09-10T18:27:31.000Z</time></trkpt><trkpt lon="15.6232511" lat="46.5452479"><ele>329</ele><time>2019-09-10T18:27:32.000Z</time></trkpt><trkpt lon="15.6232488" lat="46.5452888"><ele>329</ele><time>2019-09-10T18:27:33.000Z</time></trkpt><trkpt lon="15.6232488" lat="46.5452888"><ele>329</ele><time>2019-09-10T18:27:34.000Z</time></trkpt><trkpt lon="15.6232237" lat="46.5453269"><ele>329</ele><time>2019-09-10T18:27:35.000Z</time></trkpt><trkpt lon="15.6232237" lat="46.5453269"><ele>329</ele><time>2019-09-10T18:27:36.000Z</time></trkpt><trkpt lon="15.6232366" lat="46.5453753"><ele>329</ele><time>2019-09-10T18:27:37.000Z</time></trkpt><trkpt lon="15.6232366" lat="46.5453753"><ele>329</ele><time>2019-09-10T18:27:38.000Z</time></trkpt><trkpt lon="15.6232768" lat="46.5454221"><ele>329</ele><time>2019-09-10T18:27:39.000Z</time></trkpt><trkpt lon="15.6232768" lat="46.5454221"><ele>329</ele><time>2019-09-10T18:27:40.000Z</time></trkpt><trkpt lon="15.6233211" lat="46.5454626"><ele>329</ele><time>2019-09-10T18:27:41.000Z</time></trkpt><trkpt lon="15.6233211" lat="46.5454626"><ele>329</ele><time>2019-09-10T18:27:42.000Z</time></trkpt><trkpt lon="15.6233634" lat="46.5454999"><ele>329</ele><time>2019-09-10T18:27:43.000Z</time></trkpt><trkpt lon="15.6233981" lat="46.5455307"><ele>329</ele><time>2019-09-10T18:27:44.000Z</time></trkpt><trkpt lon="15.6234226" lat="46.5455525"><ele>329</ele><time>2019-09-10T18:27:45.000Z</time></trkpt><trkpt lon="15.6234226" lat="46.5455525"><ele>329</ele><time>2019-09-10T18:27:46.000Z</time></trkpt><trkpt lon="15.6234688" lat="46.5455921"><ele>329</ele><time>2019-09-10T18:27:47.000Z</time></trkpt><trkpt lon="15.623496" lat="46.5456151"><ele>329</ele><time>2019-09-10T18:27:48.000Z</time></trkpt><trkpt lon="15.6235223" lat="46.5456379"><ele>329</ele><time>2019-09-10T18:27:49.000Z</time></trkpt><trkpt lon="15.6235223" lat="46.5456379"><ele>329</ele><time>2019-09-10T18:27:50.000Z</time></trkpt><trkpt lon="15.6235746" lat="46.5456812"><ele>330</ele><time>2019-09-10T18:27:51.000Z</time></trkpt><trkpt lon="15.6235746" lat="46.5456812"><ele>330</ele><time>2019-09-10T18:27:52.000Z</time></trkpt><trkpt lon="15.6236291" lat="46.5457343"><ele>329</ele><time>2019-09-10T18:27:53.000Z</time></trkpt><trkpt lon="15.623658" lat="46.5457618"><ele>329</ele><time>2019-09-10T18:27:54.000Z</time></trkpt><trkpt lon="15.6236884" lat="46.5457882"><ele>329</ele><time>2019-09-10T18:27:55.000Z</time></trkpt><trkpt lon="15.6237143" lat="46.5458115"><ele>329</ele><time>2019-09-10T18:27:56.000Z</time></trkpt><trkpt lon="15.6237143" lat="46.5458115"><ele>329</ele><time>2019-09-10T18:27:57.000Z</time></trkpt><trkpt lon="15.6237877" lat="46.5458808"><ele>329</ele><time>2019-09-10T18:27:58.000Z</time></trkpt><trkpt lon="15.6237877" lat="46.5458808"><ele>329</ele><time>2019-09-10T18:27:59.000Z</time></trkpt><trkpt lon="15.6238561" lat="46.5459511"><ele>330</ele><time>2019-09-10T18:28:00.000Z</time></trkpt><trkpt lon="15.6238561" lat="46.5459511"><ele>330</ele><time>2019-09-10T18:28:01.000Z</time></trkpt><trkpt lon="15.6238887" lat="46.5459862"><ele>330</ele><time>2019-09-10T18:28:02.000Z</time></trkpt><trkpt lon="15.6238887" lat="46.5459862"><ele>330</ele><time>2019-09-10T18:28:03.000Z</time></trkpt><trkpt lon="15.6239661" lat="46.5460542"><ele>329</ele><time>2019-09-10T18:28:04.000Z</time></trkpt><trkpt lon="15.6240424" lat="46.5461238"><ele>329</ele><time>2019-09-10T18:28:05.000Z</time></trkpt><trkpt lon="15.6240424" lat="46.5461238"><ele>329</ele><time>2019-09-10T18:28:06.000Z</time></trkpt><trkpt lon="15.6241196" lat="46.5461961"><ele>329</ele><time>2019-09-10T18:28:07.000Z</time></trkpt><trkpt lon="15.6241196" lat="46.5461961"><ele>329</ele><time>2019-09-10T18:28:08.000Z</time></trkpt><trkpt lon="15.6241977" lat="46.5462704"><ele>329</ele><time>2019-09-10T18:28:09.000Z</time></trkpt><trkpt lon="15.6241977" lat="46.5462704"><ele>329</ele><time>2019-09-10T18:28:10.000Z</time></trkpt><trkpt lon="15.6242784" lat="46.5463467"><ele>329</ele><time>2019-09-10T18:28:11.000Z</time></trkpt><trkpt lon="15.6243176" lat="46.5463859"><ele>329</ele><time>2019-09-10T18:28:12.000Z</time></trkpt><trkpt lon="15.6243176" lat="46.5463859"><ele>329</ele><time>2019-09-10T18:28:13.000Z</time></trkpt><trkpt lon="15.6243976" lat="46.5464614"><ele>330</ele><time>2019-09-10T18:28:14.000Z</time></trkpt><trkpt lon="15.6243976" lat="46.5464614"><ele>330</ele><time>2019-09-10T18:28:15.000Z</time></trkpt><trkpt lon="15.6244757" lat="46.5465334"><ele>330</ele><time>2019-09-10T18:28:16.000Z</time></trkpt><trkpt lon="15.6245131" lat="46.5465683"><ele>330</ele><time>2019-09-10T18:28:17.000Z</time></trkpt><trkpt lon="15.6245477" lat="46.5466037"><ele>329</ele><time>2019-09-10T18:28:18.000Z</time></trkpt><trkpt lon="15.6245477" lat="46.5466037"><ele>329</ele><time>2019-09-10T18:28:19.000Z</time></trkpt><trkpt lon="15.624575" lat="46.5466404"><ele>329</ele><time>2019-09-10T18:28:20.000Z</time></trkpt><trkpt lon="15.624617" lat="46.546712"><ele>329</ele><time>2019-09-10T18:28:21.000Z</time></trkpt><trkpt lon="15.6246361" lat="46.5467477"><ele>329</ele><time>2019-09-10T18:28:22.000Z</time></trkpt><trkpt lon="15.6246361" lat="46.5467477"><ele>329</ele><time>2019-09-10T18:28:23.000Z</time></trkpt><trkpt lon="15.6246919" lat="46.546811"><ele>329</ele><time>2019-09-10T18:28:24.000Z</time></trkpt><trkpt lon="15.6247418" lat="46.5468352"><ele>329</ele><time>2019-09-10T18:28:25.000Z</time></trkpt><trkpt lon="15.6247418" lat="46.5468352"><ele>329</ele><time>2019-09-10T18:28:26.000Z</time></trkpt><trkpt lon="15.6248402" lat="46.5468852"><ele>329</ele><time>2019-09-10T18:28:27.000Z</time></trkpt><trkpt lon="15.6248862" lat="46.5469103"><ele>329</ele><time>2019-09-10T18:28:28.000Z</time></trkpt><trkpt lon="15.6248862" lat="46.5469103"><ele>329</ele><time>2019-09-10T18:28:29.000Z</time></trkpt><trkpt lon="15.6249793" lat="46.5469601"><ele>329</ele><time>2019-09-10T18:28:30.000Z</time></trkpt><trkpt lon="15.6250265" lat="46.5469882"><ele>329</ele><time>2019-09-10T18:28:31.000Z</time></trkpt><trkpt lon="15.6250265" lat="46.5469882"><ele>329</ele><time>2019-09-10T18:28:32.000Z</time></trkpt><trkpt lon="15.6250738" lat="46.5470239"><ele>329</ele><time>2019-09-10T18:28:33.000Z</time></trkpt><trkpt lon="15.6251685" lat="46.5470943"><ele>329</ele><time>2019-09-10T18:28:34.000Z</time></trkpt><trkpt lon="15.6251685" lat="46.5470943"><ele>329</ele><time>2019-09-10T18:28:35.000Z</time></trkpt><trkpt lon="15.6252714" lat="46.5471484"><ele>329</ele><time>2019-09-10T18:28:36.000Z</time></trkpt><trkpt lon="15.6253101" lat="46.5471784"><ele>329</ele><time>2019-09-10T18:28:37.000Z</time></trkpt><trkpt lon="15.6253501" lat="46.5472054"><ele>329</ele><time>2019-09-10T18:28:38.000Z</time></trkpt><trkpt lon="15.6253959" lat="46.5472247"><ele>329</ele><time>2019-09-10T18:28:39.000Z</time></trkpt><trkpt lon="15.6253959" lat="46.5472247"><ele>329</ele><time>2019-09-10T18:28:40.000Z</time></trkpt><trkpt lon="15.6254472" lat="46.5472443"><ele>329</ele><time>2019-09-10T18:28:41.000Z</time></trkpt><trkpt lon="15.6255467" lat="46.5472942"><ele>329</ele><time>2019-09-10T18:28:42.000Z</time></trkpt><trkpt lon="15.6255467" lat="46.5472942"><ele>329</ele><time>2019-09-10T18:28:43.000Z</time></trkpt><trkpt lon="15.6256448" lat="46.5473417"><ele>329</ele><time>2019-09-10T18:28:44.000Z</time></trkpt><trkpt lon="15.6256939" lat="46.5473651"><ele>329</ele><time>2019-09-10T18:28:45.000Z</time></trkpt><trkpt lon="15.6257444" lat="46.5473866"><ele>329</ele><time>2019-09-10T18:28:46.000Z</time></trkpt><trkpt lon="15.6257444" lat="46.5473866"><ele>329</ele><time>2019-09-10T18:28:47.000Z</time></trkpt><trkpt lon="15.6258403" lat="46.5474264"><ele>329</ele><time>2019-09-10T18:28:48.000Z</time></trkpt><trkpt lon="15.6258849" lat="46.5474478"><ele>329</ele><time>2019-09-10T18:28:49.000Z</time></trkpt><trkpt lon="15.6259268" lat="46.5474699"><ele>329</ele><time>2019-09-10T18:28:50.000Z</time></trkpt><trkpt lon="15.6259268" lat="46.5474699"><ele>329</ele><time>2019-09-10T18:28:51.000Z</time></trkpt><trkpt lon="15.6259868" lat="46.5474975"><ele>329</ele><time>2019-09-10T18:28:52.000Z</time></trkpt><trkpt lon="15.6260243" lat="46.5475171"><ele>329</ele><time>2019-09-10T18:28:53.000Z</time></trkpt><trkpt lon="15.6260917" lat="46.5475519"><ele>329</ele><time>2019-09-10T18:28:54.000Z</time></trkpt><trkpt lon="15.6260917" lat="46.5475519"><ele>329</ele><time>2019-09-10T18:28:55.000Z</time></trkpt><trkpt lon="15.6261785" lat="46.5475941"><ele>329</ele><time>2019-09-10T18:28:56.000Z</time></trkpt><trkpt lon="15.6261785" lat="46.5475941"><ele>329</ele><time>2019-09-10T18:28:57.000Z</time></trkpt><trkpt lon="15.626243" lat="46.5476241"><ele>329</ele><time>2019-09-10T18:28:58.000Z</time></trkpt><trkpt lon="15.626243" lat="46.5476241"><ele>329</ele><time>2019-09-10T18:28:59.000Z</time></trkpt><trkpt lon="15.6263342" lat="46.5476676"><ele>329</ele><time>2019-09-10T18:29:00.000Z</time></trkpt><trkpt lon="15.6263342" lat="46.5476676"><ele>329</ele><time>2019-09-10T18:29:01.000Z</time></trkpt><trkpt lon="15.6264025" lat="46.5477018"><ele>329</ele><time>2019-09-10T18:29:02.000Z</time></trkpt><trkpt lon="15.6264423" lat="46.5477202"><ele>329</ele><time>2019-09-10T18:29:03.000Z</time></trkpt><trkpt lon="15.6264795" lat="46.5477385"><ele>329</ele><time>2019-09-10T18:29:04.000Z</time></trkpt><trkpt lon="15.6264795" lat="46.5477385"><ele>329</ele><time>2019-09-10T18:29:05.000Z</time></trkpt><trkpt lon="15.6265481" lat="46.5477745"><ele>329</ele><time>2019-09-10T18:29:06.000Z</time></trkpt><trkpt lon="15.6265481" lat="46.5477745"><ele>329</ele><time>2019-09-10T18:29:07.000Z</time></trkpt><trkpt lon="15.6265926" lat="46.5478065"><ele>329</ele><time>2019-09-10T18:29:08.000Z</time></trkpt><trkpt lon="15.6266154" lat="46.5478297"><ele>329</ele><time>2019-09-10T18:29:09.000Z</time></trkpt><trkpt lon="15.6266154" lat="46.5478297"><ele>329</ele><time>2019-09-10T18:29:10.000Z</time></trkpt><trkpt lon="15.6266653" lat="46.5478888"><ele>329</ele><time>2019-09-10T18:29:11.000Z</time></trkpt><trkpt lon="15.6266653" lat="46.5478888"><ele>329</ele><time>2019-09-10T18:29:12.000Z</time></trkpt><trkpt lon="15.6267016" lat="46.5479136"><ele>329</ele><time>2019-09-10T18:29:13.000Z</time></trkpt><trkpt lon="15.6267016" lat="46.5479136"><ele>329</ele><time>2019-09-10T18:29:14.000Z</time></trkpt><trkpt lon="15.6267016" lat="46.5479136"><ele>329</ele><time>2019-09-10T18:29:15.000Z</time></trkpt><trkpt lon="15.6267344" lat="46.5478927"><ele>329</ele><time>2019-09-10T18:29:16.000Z</time></trkpt><trkpt lon="15.6267344" lat="46.5478927"><ele>329</ele><time>2019-09-10T18:29:17.000Z</time></trkpt><trkpt lon="15.6266648" lat="46.5478845"><ele>329</ele><time>2019-09-10T18:29:18.000Z</time></trkpt><trkpt lon="15.6266143" lat="46.5479086"><ele>329</ele><time>2019-09-10T18:29:19.000Z</time></trkpt><trkpt lon="15.6266143" lat="46.5479086"><ele>329</ele><time>2019-09-10T18:29:20.000Z</time></trkpt><trkpt lon="15.6264911" lat="46.5479701"><ele>329</ele><time>2019-09-10T18:29:21.000Z</time></trkpt><trkpt lon="15.6264208" lat="46.5480009"><ele>329</ele><time>2019-09-10T18:29:22.000Z</time></trkpt><trkpt lon="15.6264208" lat="46.5480009"><ele>329</ele><time>2019-09-10T18:29:23.000Z</time></trkpt><trkpt lon="15.6262677" lat="46.5480469"><ele>329</ele><time>2019-09-10T18:29:24.000Z</time></trkpt><trkpt lon="15.6261933" lat="46.5480668"><ele>329</ele><time>2019-09-10T18:29:25.000Z</time></trkpt><trkpt lon="15.6261296" lat="46.548086"><ele>329</ele><time>2019-09-10T18:29:26.000Z</time></trkpt><trkpt lon="15.6260732" lat="46.5481069"><ele>329</ele><time>2019-09-10T18:29:27.000Z</time></trkpt><trkpt lon="15.6260732" lat="46.5481069"><ele>329</ele><time>2019-09-10T18:29:28.000Z</time></trkpt><trkpt lon="15.6259696" lat="46.5481413"><ele>329</ele><time>2019-09-10T18:29:29.000Z</time></trkpt><trkpt lon="15.6259195" lat="46.5481568"><ele>329</ele><time>2019-09-10T18:29:30.000Z</time></trkpt><trkpt lon="15.6259195" lat="46.5481568"><ele>329</ele><time>2019-09-10T18:29:31.000Z</time></trkpt><trkpt lon="15.6258167" lat="46.5481847"><ele>329</ele><time>2019-09-10T18:29:32.000Z</time></trkpt><trkpt lon="15.6257654" lat="46.5482003"><ele>329</ele><time>2019-09-10T18:29:33.000Z</time></trkpt><trkpt lon="15.6257111" lat="46.5482155"><ele>329</ele><time>2019-09-10T18:29:34.000Z</time></trkpt><trkpt lon="15.6256577" lat="46.5482312"><ele>329</ele><time>2019-09-10T18:29:35.000Z</time></trkpt><trkpt lon="15.6256577" lat="46.5482312"><ele>329</ele><time>2019-09-10T18:29:36.000Z</time></trkpt><trkpt lon="15.6255916" lat="46.548258"><ele>329</ele><time>2019-09-10T18:29:37.000Z</time></trkpt><trkpt lon="15.6255916" lat="46.548258"><ele>329</ele><time>2019-09-10T18:29:38.000Z</time></trkpt><trkpt lon="15.6255518" lat="46.5482934"><ele>329</ele><time>2019-09-10T18:29:39.000Z</time></trkpt><trkpt lon="15.6255518" lat="46.5482934"><ele>329</ele><time>2019-09-10T18:29:40.000Z</time></trkpt><trkpt lon="15.6255483" lat="46.5483905"><ele>329</ele><time>2019-09-10T18:29:41.000Z</time></trkpt><trkpt lon="15.6255696" lat="46.5484254"><ele>329</ele><time>2019-09-10T18:29:42.000Z</time></trkpt><trkpt lon="15.6255696" lat="46.5484254"><ele>329</ele><time>2019-09-10T18:29:43.000Z</time></trkpt><trkpt lon="15.6256289" lat="46.548493"><ele>329</ele><time>2019-09-10T18:29:44.000Z</time></trkpt><trkpt lon="15.6256289" lat="46.548493"><ele>329</ele><time>2019-09-10T18:29:45.000Z</time></trkpt><trkpt lon="15.6256937" lat="46.5485663"><ele>329</ele><time>2019-09-10T18:29:46.000Z</time></trkpt><trkpt lon="15.6256937" lat="46.5485663"><ele>329</ele><time>2019-09-10T18:29:47.000Z</time></trkpt><trkpt lon="15.6257544" lat="46.5486438"><ele>329</ele><time>2019-09-10T18:29:48.000Z</time></trkpt><trkpt lon="15.6257839" lat="46.5486831"><ele>329</ele><time>2019-09-10T18:29:49.000Z</time></trkpt><trkpt lon="15.6257839" lat="46.5486831"><ele>329</ele><time>2019-09-10T18:29:50.000Z</time></trkpt><trkpt lon="15.6258454" lat="46.5487643"><ele>329</ele><time>2019-09-10T18:29:51.000Z</time></trkpt><trkpt lon="15.6258784" lat="46.5488046"><ele>329</ele><time>2019-09-10T18:29:52.000Z</time></trkpt><trkpt lon="15.6258784" lat="46.5488046"><ele>329</ele><time>2019-09-10T18:29:53.000Z</time></trkpt><trkpt lon="15.625946" lat="46.548885"><ele>329</ele><time>2019-09-10T18:29:54.000Z</time></trkpt><trkpt lon="15.6259805" lat="46.5489269"><ele>329</ele><time>2019-09-10T18:29:55.000Z</time></trkpt><trkpt lon="15.6260171" lat="46.5489682"><ele>329</ele><time>2019-09-10T18:29:56.000Z</time></trkpt><trkpt lon="15.6260537" lat="46.5490114"><ele>329</ele><time>2019-09-10T18:29:57.000Z</time></trkpt><trkpt lon="15.6260537" lat="46.5490114"><ele>329</ele><time>2019-09-10T18:29:58.000Z</time></trkpt><trkpt lon="15.6261252" lat="46.549099"><ele>329</ele><time>2019-09-10T18:29:59.000Z</time></trkpt><trkpt lon="15.6261607" lat="46.5491419"><ele>329</ele><time>2019-09-10T18:30:00.000Z</time></trkpt><trkpt lon="15.6261607" lat="46.5491419"><ele>329</ele><time>2019-09-10T18:30:01.000Z</time></trkpt><trkpt lon="15.6262282" lat="46.5492237"><ele>329</ele><time>2019-09-10T18:30:02.000Z</time></trkpt><trkpt lon="15.6262603" lat="46.5492657"><ele>329</ele><time>2019-09-10T18:30:03.000Z</time></trkpt><trkpt lon="15.6262603" lat="46.5492657"><ele>329</ele><time>2019-09-10T18:30:04.000Z</time></trkpt><trkpt lon="15.6263321" lat="46.5493506"><ele>329</ele><time>2019-09-10T18:30:05.000Z</time></trkpt><trkpt lon="15.6263321" lat="46.5493506"><ele>329</ele><time>2019-09-10T18:30:06.000Z</time></trkpt><trkpt lon="15.6264003" lat="46.549436"><ele>329</ele><time>2019-09-10T18:30:07.000Z</time></trkpt><trkpt lon="15.6264336" lat="46.5494778"><ele>329</ele><time>2019-09-10T18:30:08.000Z</time></trkpt><trkpt lon="15.6264336" lat="46.5494778"><ele>329</ele><time>2019-09-10T18:30:09.000Z</time></trkpt><trkpt lon="15.6264997" lat="46.5495583"><ele>329</ele><time>2019-09-10T18:30:10.000Z</time></trkpt><trkpt lon="15.626531" lat="46.5495966"><ele>329</ele><time>2019-09-10T18:30:11.000Z</time></trkpt><trkpt lon="15.6265594" lat="46.5496344"><ele>329</ele><time>2019-09-10T18:30:12.000Z</time></trkpt><trkpt lon="15.6265594" lat="46.5496344"><ele>329</ele><time>2019-09-10T18:30:13.000Z</time></trkpt><trkpt lon="15.6266167" lat="46.5497127"><ele>329</ele><time>2019-09-10T18:30:14.000Z</time></trkpt><trkpt lon="15.6266459" lat="46.5497525"><ele>329</ele><time>2019-09-10T18:30:15.000Z</time></trkpt><trkpt lon="15.6266459" lat="46.5497525"><ele>329</ele><time>2019-09-10T18:30:16.000Z</time></trkpt><trkpt lon="15.6267014" lat="46.5498275"><ele>329</ele><time>2019-09-10T18:30:17.000Z</time></trkpt><trkpt lon="15.6267286" lat="46.5498629"><ele>329</ele><time>2019-09-10T18:30:18.000Z</time></trkpt><trkpt lon="15.6267516" lat="46.5498968"><ele>329</ele><time>2019-09-10T18:30:19.000Z</time></trkpt><trkpt lon="15.6267516" lat="46.5498968"><ele>329</ele><time>2019-09-10T18:30:20.000Z</time></trkpt><trkpt lon="15.6267477" lat="46.5499435"><ele>329</ele><time>2019-09-10T18:30:21.000Z</time></trkpt><trkpt lon="15.6267477" lat="46.5499435"><ele>329</ele><time>2019-09-10T18:30:22.000Z</time></trkpt><trkpt lon="15.6267076" lat="46.5499807"><ele>330</ele><time>2019-09-10T18:30:23.000Z</time></trkpt><trkpt lon="15.6267076" lat="46.5499807"><ele>330</ele><time>2019-09-10T18:30:24.000Z</time></trkpt><trkpt lon="15.6266215" lat="46.5500212"><ele>329</ele><time>2019-09-10T18:30:25.000Z</time></trkpt><trkpt lon="15.6265402" lat="46.5500491"><ele>329</ele><time>2019-09-10T18:30:26.000Z</time></trkpt><trkpt lon="15.6265402" lat="46.5500491"><ele>329</ele><time>2019-09-10T18:30:27.000Z</time></trkpt><trkpt lon="15.6264854" lat="46.5500598"><ele>329</ele><time>2019-09-10T18:30:28.000Z</time></trkpt><trkpt lon="15.626444" lat="46.5500655"><ele>329</ele><time>2019-09-10T18:30:29.000Z</time></trkpt><trkpt lon="15.626394" lat="46.5500694"><ele>329</ele><time>2019-09-10T18:30:30.000Z</time></trkpt><trkpt lon="15.626394" lat="46.5500694"><ele>329</ele><time>2019-09-10T18:30:31.000Z</time></trkpt><trkpt lon="15.6263019" lat="46.550056"><ele>329</ele><time>2019-09-10T18:30:32.000Z</time></trkpt><trkpt lon="15.6263019" lat="46.550056"><ele>329</ele><time>2019-09-10T18:30:33.000Z</time></trkpt><trkpt lon="15.6262591" lat="46.5500413"><ele>329</ele><time>2019-09-10T18:30:34.000Z</time></trkpt><trkpt lon="15.6262591" lat="46.5500413"><ele>329</ele><time>2019-09-10T18:30:35.000Z</time></trkpt><trkpt lon="15.6262591" lat="46.5500413"><ele>329</ele><time>2019-09-10T18:30:36.000Z</time></trkpt><trkpt lon="-999.0" lat="-999.0"><ele>0.0</ele><time>2019-09-10T18:30:37.000Z</time></trkpt><trkpt lon="-999.0" lat="-999.0"><ele>0.0</ele><time>2019-09-10T18:30:38.000Z</time></trkpt><trkpt lon="-999.0" lat="-999.0"><ele>0.0</ele><time>2019-09-10T18:30:39.000Z</time></trkpt><trkpt lon="-999.0" lat="-999.0"><ele>0.0</ele><time>2019-09-10T18:30:40.000Z</time></trkpt><trkpt lon="-999.0" lat="-999.0"><ele>0.0</ele><time>2019-09-10T18:30:41.000Z</time></trkpt><trkpt lon="-999.0" lat="-999.0"><ele>0.0</ele><time>2019-09-10T18:30:42.000Z</time></trkpt><trkpt lon="-999.0" lat="-999.0"><ele>0.0</ele><time>2019-09-10T18:30:43.000Z</time></trkpt><trkpt lon="-999.0" lat="-999.0"><ele>0.0</ele><time>2019-09-10T18:30:44.000Z</time></trkpt><trkpt lon="-999.0" lat="-999.0"><ele>0.0</ele><time>2019-09-10T18:30:45.000Z</time></trkpt><trkpt lon="-999.0" lat="-999.0"><ele>0.0</ele><time>2019-09-10T18:30:46.000Z</time></trkpt><trkpt lon="-999.0" lat="-999.0"><ele>0.0</ele><time>2019-09-10T18:30:47.000Z</time></trkpt><trkpt lon="-999.0" lat="-999.0"><ele>0.0</ele><time>2019-09-10T18:30:48.000Z</time></trkpt><trkpt lon="-999.0" lat="-999.0"><ele>0.0</ele><time>2019-09-10T18:30:49.000Z</time></trkpt><trkpt lon="-999.0" lat="-999.0"><ele>0.0</ele><time>2019-09-10T18:30:50.000Z</time></trkpt><trkpt lon="-999.0" lat="-999.0"><ele>0.0</ele><time>2019-09-10T18:30:51.000Z</time></trkpt><trkpt lon="-999.0" lat="-999.0"><ele>0.0</ele><time>2019-09-10T18:30:52.000Z</time></trkpt><trkpt lon="15.6262035" lat="46.550014"><ele>328</ele><time>2019-09-10T18:30:53.000Z</time></trkpt><trkpt lon="15.6262035" lat="46.550014"><ele>328</ele><time>2019-09-10T18:30:54.000Z</time></trkpt><trkpt lon="15.6262035" lat="46.550014"><ele>328</ele><time>2019-09-10T18:30:55.000Z</time></trkpt><trkpt lon="-999.0" lat="-999.0"><ele>0.0</ele><time>2019-09-10T18:30:56.000Z</time></trkpt><trkpt lon="15.626173" lat="46.5499967"><ele>329</ele><time>2019-09-10T18:30:57.000Z</time></trkpt><trkpt lon="15.626173" lat="46.5499967"><ele>329</ele><time>2019-09-10T18:30:58.000Z</time></trkpt><trkpt lon="15.626173" lat="46.5499967"><ele>329</ele><time>2019-09-10T18:30:59.000Z</time></trkpt><trkpt lon="-999.0" lat="-999.0"><ele>0.0</ele><time>2019-09-10T18:31:00.000Z</time></trkpt><trkpt lon="-999.0" lat="-999.0"><ele>0.0</ele><time>2019-09-10T18:31:01.000Z</time></trkpt><trkpt lon="-999.0" lat="-999.0"><ele>0.0</ele><time>2019-09-10T18:31:02.000Z</time></trkpt><trkpt lon="-999.0" lat="-999.0"><ele>0.0</ele><time>2019-09-10T18:31:03.000Z</time></trkpt><trkpt lon="-999.0" lat="-999.0"><ele>0.0</ele><time>2019-09-10T18:31:04.000Z</time></trkpt><trkpt lon="-999.0" lat="-999.0"><ele>0.0</ele><time>2019-09-10T18:31:05.000Z</time></trkpt><trkpt lon="15.6261814" lat="46.5499675"><ele>329</ele><time>2019-09-10T18:31:06.000Z</time></trkpt><trkpt lon="15.6261814" lat="46.5499675"><ele>329</ele><time>2019-09-10T18:31:07.000Z</time></trkpt><trkpt lon="15.6261814" lat="46.5499675"><ele>329</ele><time>2019-09-10T18:31:08.000Z</time></trkpt><trkpt lon="15.6261814" lat="46.5499675"><ele>329</ele><time>2019-09-10T18:31:09.000Z</time></trkpt><trkpt lon="-999.0" lat="-999.0"><ele>0.0</ele><time>2019-09-10T18:31:10.000Z</time></trkpt><trkpt lon="-999.0" lat="-999.0"><ele>0.0</ele><time>2019-09-10T18:31:11.000Z</time></trkpt><trkpt lon="-999.0" lat="-999.0"><ele>0.0</ele><time>2019-09-10T18:31:12.000Z</time></trkpt><trkpt lon="-999.0" lat="-999.0"><ele>0.0</ele><time>2019-09-10T18:31:13.000Z</time></trkpt><trkpt lon="-999.0" lat="-999.0"><ele>0.0</ele><time>2019-09-10T18:31:14.000Z</time></trkpt><trkpt lon="-999.0" lat="-999.0"><ele>0.0</ele><time>2019-09-10T18:31:15.000Z</time></trkpt><trkpt lon="-999.0" lat="-999.0"><ele>0.0</ele><time>2019-09-10T18:31:16.000Z</time></trkpt><trkpt lon="-999.0" lat="-999.0"><ele>0.0</ele><time>2019-09-10T18:31:17.000Z</time></trkpt><trkpt lon="-999.0" lat="-999.0"><ele>0.0</ele><time>2019-09-10T18:31:18.000Z</time></trkpt><trkpt lon="-999.0" lat="-999.0"><ele>0.0</ele><time>2019-09-10T18:31:19.000Z</time></trkpt><trkpt lon="-999.0" lat="-999.0"><ele>0.0</ele><time>2019-09-10T18:31:20.000Z</time></trkpt><trkpt lon="-999.0" lat="-999.0"><ele>0.0</ele><time>2019-09-10T18:31:21.000Z</time></trkpt><trkpt lon="-999.0" lat="-999.0"><ele>0.0</ele><time>2019-09-10T18:31:22.000Z</time></trkpt><trkpt lon="-999.0" lat="-999.0"><ele>0.0</ele><time>2019-09-10T18:31:23.000Z</time></trkpt><trkpt lon="-999.0" lat="-999.0"><ele>0.0</ele><time>2019-09-10T18:31:24.000Z</time></trkpt><trkpt lon="-999.0" lat="-999.0"><ele>0.0</ele><time>2019-09-10T18:31:25.000Z</time></trkpt><trkpt lon="-999.0" lat="-999.0"><ele>0.0</ele><time>2019-09-10T18:31:26.000Z</time></trkpt><trkpt lon="-999.0" lat="-999.0"><ele>0.0</ele><time>2019-09-10T18:31:27.000Z</time></trkpt><trkpt lon="-999.0" lat="-999.0"><ele>0.0</ele><time>2019-09-10T18:31:28.000Z</time></trkpt><trkpt lon="-999.0" lat="-999.0"><ele>0.0</ele><time>2019-09-10T18:31:29.000Z</time></trkpt><trkpt lon="-999.0" lat="-999.0"><ele>0.0</ele><time>2019-09-10T18:31:30.000Z</time></trkpt><trkpt lon="-999.0" lat="-999.0"><ele>0.0</ele><time>2019-09-10T18:31:31.000Z</time></trkpt><trkpt lon="-999.0" lat="-999.0"><ele>0.0</ele><time>2019-09-10T18:31:32.000Z</time></trkpt><trkpt lon="-999.0" lat="-999.0"><ele>0.0</ele><time>2019-09-10T18:31:33.000Z</time></trkpt><trkpt lon="-999.0" lat="-999.0"><ele>0.0</ele><time>2019-09-10T18:31:34.000Z</time></trkpt><trkpt lon="-999.0" lat="-999.0"><ele>0.0</ele><time>2019-09-10T18:31:35.000Z</time></trkpt><trkpt lon="-999.0" lat="-999.0"><ele>0.0</ele><time>2019-09-10T18:31:36.000Z</time></trkpt><trkpt lon="-999.0" lat="-999.0"><ele>0.0</ele><time>2019-09-10T18:31:37.000Z</time></trkpt><trkpt lon="-999.0" lat="-999.0"><ele>0.0</ele><time>2019-09-10T18:31:38.000Z</time></trkpt><trkpt lon="-999.0" lat="-999.0"><ele>0.0</ele><time>2019-09-10T18:31:39.000Z</time></trkpt><trkpt lon="-999.0" lat="-999.0"><ele>0.0</ele><time>2019-09-10T18:31:40.000Z</time></trkpt><trkpt lon="-999.0" lat="-999.0"><ele>0.0</ele><time>2019-09-10T18:31:41.000Z</time></trkpt><trkpt lon="-999.0" lat="-999.0"><ele>0.0</ele><time>2019-09-10T18:31:42.000Z</time></trkpt><trkpt lon="-999.0" lat="-999.0"><ele>0.0</ele><time>2019-09-10T18:31:43.000Z</time></trkpt><trkpt lon="-999.0" lat="-999.0"><ele>0.0</ele><time>2019-09-10T18:31:44.000Z</time></trkpt><trkpt lon="-999.0" lat="-999.0"><ele>0.0</ele><time>2019-09-10T18:31:45.000Z</time></trkpt><trkpt lon="-999.0" lat="-999.0"><ele>0.0</ele><time>2019-09-10T18:31:46.000Z</time></trkpt><trkpt lon="-999.0" lat="-999.0"><ele>0.0</ele><time>2019-09-10T18:31:47.000Z</time></trkpt><trkpt lon="-999.0" lat="-999.0"><ele>0.0</ele><time>2019-09-10T18:31:48.000Z</time></trkpt><trkpt lon="-999.0" lat="-999.0"><ele>0.0</ele><time>2019-09-10T18:31:49.000Z</time></trkpt><trkpt lon="-999.0" lat="-999.0"><ele>0.0</ele><time>2019-09-10T18:31:50.000Z</time></trkpt><trkpt lon="-999.0" lat="-999.0"><ele>0.0</ele><time>2019-09-10T18:31:51.000Z</time></trkpt><trkpt lon="-999.0" lat="-999.0"><ele>0.0</ele><time>2019-09-10T18:31:52.000Z</time></trkpt><trkpt lon="-999.0" lat="-999.0"><ele>0.0</ele><time>2019-09-10T18:31:53.000Z</time></trkpt><trkpt lon="-999.0" lat="-999.0"><ele>0.0</ele><time>2019-09-10T18:31:54.000Z</time></trkpt><trkpt lon="-999.0" lat="-999.0"><ele>0.0</ele><time>2019-09-10T18:31:55.000Z</time></trkpt><trkpt lon="-999.0" lat="-999.0"><ele>0.0</ele><time>2019-09-10T18:31:56.000Z</time></trkpt><trkpt lon="-999.0" lat="-999.0"><ele>0.0</ele><time>2019-09-10T18:31:57.000Z</time></trkpt><trkpt lon="-999.0" lat="-999.0"><ele>0.0</ele><time>2019-09-10T18:31:58.000Z</time></trkpt><trkpt lon="-999.0" lat="-999.0"><ele>0.0</ele><time>2019-09-10T18:31:59.000Z</time></trkpt><trkpt lon="-999.0" lat="-999.0"><ele>0.0</ele><time>2019-09-10T18:32:00.000Z</time></trkpt><trkpt lon="-999.0" lat="-999.0"><ele>0.0</ele><time>2019-09-10T18:32:01.000Z</time></trkpt><trkpt lon="-999.0" lat="-999.0"><ele>0.0</ele><time>2019-09-10T18:32:02.000Z</time></trkpt><trkpt lon="-999.0" lat="-999.0"><ele>0.0</ele><time>2019-09-10T18:32:03.000Z</time></trkpt><trkpt lon="-999.0" lat="-999.0"><ele>0.0</ele><time>2019-09-10T18:32:04.000Z</time></trkpt><trkpt lon="-999.0" lat="-999.0"><ele>0.0</ele><time>2019-09-10T18:32:05.000Z</time></trkpt><trkpt lon="-999.0" lat="-999.0"><ele>0.0</ele><time>2019-09-10T18:32:06.000Z</time></trkpt><trkpt lon="-999.0" lat="-999.0"><ele>0.0</ele><time>2019-09-10T18:32:07.000Z</time></trkpt><trkpt lon="-999.0" lat="-999.0"><ele>0.0</ele><time>2019-09-10T18:32:08.000Z</time></trkpt><trkpt lon="-999.0" lat="-999.0"><ele>0.0</ele><time>2019-09-10T18:32:09.000Z</time></trkpt><trkpt lon="-999.0" lat="-999.0"><ele>0.0</ele><time>2019-09-10T18:32:10.000Z</time></trkpt><trkpt lon="-999.0" lat="-999.0"><ele>0.0</ele><time>2019-09-10T18:32:11.000Z</time></trkpt><trkpt lon="-999.0" lat="-999.0"><ele>0.0</ele><time>2019-09-10T18:32:12.000Z</time></trkpt><trkpt lon="-999.0" lat="-999.0"><ele>0.0</ele><time>2019-09-10T18:32:13.000Z</time></trkpt><trkpt lon="-999.0" lat="-999.0"><ele>0.0</ele><time>2019-09-10T18:32:14.000Z</time></trkpt><trkpt lon="15.6261997" lat="46.5499402"><ele>328</ele><time>2019-09-10T18:32:15.000Z</time></trkpt><trkpt lon="15.6261997" lat="46.5499402"><ele>328</ele><time>2019-09-10T18:32:16.000Z</time></trkpt><trkpt lon="15.6261997" lat="46.5499402"><ele>328</ele><time>2019-09-10T18:32:17.000Z</time></trkpt><trkpt lon="15.6261997" lat="46.5499402"><ele>328</ele><time>2019-09-10T18:32:18.000Z</time></trkpt><trkpt lon="-999.0" lat="-999.0"><ele>0.0</ele><time>2019-09-10T18:32:19.000Z</time></trkpt><trkpt lon="-999.0" lat="-999.0"><ele>0.0</ele><time>2019-09-10T18:32:20.000Z</time></trkpt><trkpt lon="-999.0" lat="-999.0"><ele>0.0</ele><time>2019-09-10T18:32:21.000Z</time></trkpt><trkpt lon="-999.0" lat="-999.0"><ele>0.0</ele><time>2019-09-10T18:32:22.000Z</time></trkpt><trkpt lon="-999.0" lat="-999.0"><ele>0.0</ele><time>2019-09-10T18:32:23.000Z</time></trkpt><trkpt lon="-999.0" lat="-999.0"><ele>0.0</ele><time>2019-09-10T18:32:24.000Z</time></trkpt><trkpt lon="-999.0" lat="-999.0"><ele>0.0</ele><time>2019-09-10T18:32:25.000Z</time></trkpt><trkpt lon="-999.0" lat="-999.0"><ele>0.0</ele><time>2019-09-10T18:32:26.000Z</time></trkpt><trkpt lon="-999.0" lat="-999.0"><ele>0.0</ele><time>2019-09-10T18:32:27.000Z</time></trkpt><trkpt lon="-999.0" lat="-999.0"><ele>0.0</ele><time>2019-09-10T18:32:28.000Z</time></trkpt><trkpt lon="-999.0" lat="-999.0"><ele>0.0</ele><time>2019-09-10T18:32:29.000Z</time></trkpt><trkpt lon="-999.0" lat="-999.0"><ele>0.0</ele><time>2019-09-10T18:32:30.000Z</time></trkpt><trkpt lon="-999.0" lat="-999.0"><ele>0.0</ele><time>2019-09-10T18:32:31.000Z</time></trkpt><trkpt lon="-999.0" lat="-999.0"><ele>0.0</ele><time>2019-09-10T18:32:32.000Z</time></trkpt><trkpt lon="-999.0" lat="-999.0"><ele>0.0</ele><time>2019-09-10T18:32:33.000Z</time></trkpt><trkpt lon="-999.0" lat="-999.0"><ele>0.0</ele><time>2019-09-10T18:32:34.000Z</time></trkpt><trkpt lon="-999.0" lat="-999.0"><ele>0.0</ele><time>2019-09-10T18:32:35.000Z</time></trkpt><trkpt lon="-999.0" lat="-999.0"><ele>0.0</ele><time>2019-09-10T18:32:36.000Z</time></trkpt><trkpt lon="-999.0" lat="-999.0"><ele>0.0</ele><time>2019-09-10T18:32:37.000Z</time></trkpt><trkpt lon="-999.0" lat="-999.0"><ele>0.0</ele><time>2019-09-10T18:32:38.000Z</time></trkpt><trkpt lon="-999.0" lat="-999.0"><ele>0.0</ele><time>2019-09-10T18:32:39.000Z</time></trkpt><trkpt lon="-999.0" lat="-999.0"><ele>0.0</ele><time>2019-09-10T18:32:40.000Z</time></trkpt><trkpt lon="-999.0" lat="-999.0"><ele>0.0</ele><time>2019-09-10T18:32:41.000Z</time></trkpt><trkpt lon="-999.0" lat="-999.0"><ele>0.0</ele><time>2019-09-10T18:32:42.000Z</time></trkpt><trkpt lon="-999.0" lat="-999.0"><ele>0.0</ele><time>2019-09-10T18:32:43.000Z</time></trkpt><trkpt lon="-999.0" lat="-999.0"><ele>0.0</ele><time>2019-09-10T18:32:44.000Z</time></trkpt><trkpt lon="-999.0" lat="-999.0"><ele>0.0</ele><time>2019-09-10T18:32:45.000Z</time></trkpt><trkpt lon="-999.0" lat="-999.0"><ele>0.0</ele><time>2019-09-10T18:32:46.000Z</time></trkpt><trkpt lon="-999.0" lat="-999.0"><ele>0.0</ele><time>2019-09-10T18:32:47.000Z</time></trkpt><trkpt lon="-999.0" lat="-999.0"><ele>0.0</ele><time>2019-09-10T18:32:48.000Z</time></trkpt><trkpt lon="-999.0" lat="-999.0"><ele>0.0</ele><time>2019-09-10T18:32:49.000Z</time></trkpt><trkpt lon="-999.0" lat="-999.0"><ele>0.0</ele><time>2019-09-10T18:32:50.000Z</time></trkpt><trkpt lon="-999.0" lat="-999.0"><ele>0.0</ele><time>2019-09-10T18:32:51.000Z</time></trkpt><trkpt lon="-999.0" lat="-999.0"><ele>0.0</ele><time>2019-09-10T18:32:52.000Z</time></trkpt><trkpt lon="-999.0" lat="-999.0"><ele>0.0</ele><time>2019-09-10T18:32:53.000Z</time></trkpt><trkpt lon="15.6262068" lat="46.5499096"><ele>326</ele><time>2019-09-10T18:32:54.000Z</time></trkpt><trkpt lon="15.6262068" lat="46.5499096"><ele>326</ele><time>2019-09-10T18:32:55.000Z</time></trkpt><trkpt lon="15.6262068" lat="46.5499096"><ele>326</ele><time>2019-09-10T18:32:56.000Z</time></trkpt><trkpt lon="15.6262068" lat="46.5499096"><ele>326</ele><time>2019-09-10T18:32:57.000Z</time></trkpt><trkpt lon="-999.0" lat="-999.0"><ele>0.0</ele><time>2019-09-10T18:32:58.000Z</time></trkpt><trkpt lon="15.6261824" lat="46.5498884"><ele>326</ele><time>2019-09-10T18:32:59.000Z</time></trkpt><trkpt lon="15.6261824" lat="46.5498884"><ele>326</ele><time>2019-09-10T18:33:00.000Z</time></trkpt><trkpt lon="15.6261824" lat="46.5498884"><ele>326</ele><time>2019-09-10T18:33:01.000Z</time></trkpt><trkpt lon="15.6261824" lat="46.5498884"><ele>326</ele><time>2019-09-10T18:33:02.000Z</time></trkpt><trkpt lon="-999.0" lat="-999.0"><ele>0.0</ele><time>2019-09-10T18:33:03.000Z</time></trkpt><trkpt lon="-999.0" lat="-999.0"><ele>0.0</ele><time>2019-09-10T18:33:04.000Z</time></trkpt><trkpt lon="15.6261429" lat="46.5498717"><ele>325</ele><time>2019-09-10T18:33:05.000Z</time></trkpt><trkpt lon="15.6261429" lat="46.5498717"><ele>325</ele><time>2019-09-10T18:33:06.000Z</time></trkpt><trkpt lon="15.6261429" lat="46.5498717"><ele>325</ele><time>2019-09-10T18:33:07.000Z</time></trkpt><trkpt lon="15.6261429" lat="46.5498717"><ele>325</ele><time>2019-09-10T18:33:08.000Z</time></trkpt><trkpt lon="-999.0" lat="-999.0"><ele>0.0</ele><time>2019-09-10T18:33:09.000Z</time></trkpt><trkpt lon="-999.0" lat="-999.0"><ele>0.0</ele><time>2019-09-10T18:33:10.000Z</time></trkpt><trkpt lon="-999.0" lat="-999.0"><ele>0.0</ele><time>2019-09-10T18:33:11.000Z</time></trkpt><trkpt lon="-999.0" lat="-999.0"><ele>0.0</ele><time>2019-09-10T18:33:12.000Z</time></trkpt><trkpt lon="-999.0" lat="-999.0"><ele>0.0</ele><time>2019-09-10T18:33:13.000Z</time></trkpt><trkpt lon="-999.0" lat="-999.0"><ele>0.0</ele><time>2019-09-10T18:33:14.000Z</time></trkpt><trkpt lon="-999.0" lat="-999.0"><ele>0.0</ele><time>2019-09-10T18:33:15.000Z</time></trkpt><trkpt lon="-999.0" lat="-999.0"><ele>0.0</ele><time>2019-09-10T18:33:16.000Z</time></trkpt><trkpt lon="-999.0" lat="-999.0"><ele>0.0</ele><time>2019-09-10T18:33:17.000Z</time></trkpt><trkpt lon="-999.0" lat="-999.0"><ele>0.0</ele><time>2019-09-10T18:33:18.000Z</time></trkpt><trkpt lon="-999.0" lat="-999.0"><ele>0.0</ele><time>2019-09-10T18:33:19.000Z</time></trkpt><trkpt lon="-999.0" lat="-999.0"><ele>0.0</ele><time>2019-09-10T18:33:20.000Z</time></trkpt><trkpt lon="-999.0" lat="-999.0"><ele>0.0</ele><time>2019-09-10T18:33:21.000Z</time></trkpt><trkpt lon="-999.0" lat="-999.0"><ele>0.0</ele><time>2019-09-10T18:33:22.000Z</time></trkpt><trkpt lon="-999.0" lat="-999.0"><ele>0.0</ele><time>2019-09-10T18:33:23.000Z</time></trkpt><trkpt lon="-999.0" lat="-999.0"><ele>0.0</ele><time>2019-09-10T18:33:24.000Z</time></trkpt><trkpt lon="-999.0" lat="-999.0"><ele>0.0</ele><time>2019-09-10T18:33:25.000Z</time></trkpt><trkpt lon="-999.0" lat="-999.0"><ele>0.0</ele><time>2019-09-10T18:33:26.000Z</time></trkpt><trkpt lon="-999.0" lat="-999.0"><ele>0.0</ele><time>2019-09-10T18:33:27.000Z</time></trkpt><trkpt lon="-999.0" lat="-999.0"><ele>0.0</ele><time>2019-09-10T18:33:28.000Z</time></trkpt><trkpt lon="-999.0" lat="-999.0"><ele>0.0</ele><time>2019-09-10T18:33:29.000Z</time></trkpt><trkpt lon="-999.0" lat="-999.0"><ele>0.0</ele><time>2019-09-10T18:33:30.000Z</time></trkpt><trkpt lon="-999.0" lat="-999.0"><ele>0.0</ele><time>2019-09-10T18:33:31.000Z</time></trkpt><trkpt lon="-999.0" lat="-999.0"><ele>0.0</ele><time>2019-09-10T18:33:32.000Z</time></trkpt><trkpt lon="-999.0" lat="-999.0"><ele>0.0</ele><time>2019-09-10T18:33:33.000Z</time></trkpt><trkpt lon="15.6262699" lat="46.5500729"><ele>330</ele><time>2019-09-10T18:33:34.000Z</time></trkpt><trkpt lon="15.6262699" lat="46.5500729"><ele>330</ele><time>2019-09-10T18:33:35.000Z</time></trkpt><trkpt lon="15.6262699" lat="46.5500729"><ele>330</ele><time>2019-09-10T18:33:36.000Z</time></trkpt><trkpt lon="15.6262699" lat="46.5500729"><ele>330</ele><time>2019-09-10T18:33:37.000Z</time></trkpt><trkpt lon="-999.0" lat="-999.0"><ele>0.0</ele><time>2019-09-10T18:33:38.000Z</time></trkpt><trkpt lon="-999.0" lat="-999.0"><ele>0.0</ele><time>2019-09-10T18:33:39.000Z</time></trkpt><trkpt lon="-999.0" lat="-999.0"><ele>0.0</ele><time>2019-09-10T18:33:40.000Z</time></trkpt><trkpt lon="-999.0" lat="-999.0"><ele>0.0</ele><time>2019-09-10T18:33:41.000Z</time></trkpt><trkpt lon="-999.0" lat="-999.0"><ele>0.0</ele><time>2019-09-10T18:33:42.000Z</time></trkpt><trkpt lon="-999.0" lat="-999.0"><ele>0.0</ele><time>2019-09-10T18:33:43.000Z</time></trkpt><trkpt lon="-999.0" lat="-999.0"><ele>0.0</ele><time>2019-09-10T18:33:44.000Z</time></trkpt><trkpt lon="-999.0" lat="-999.0"><ele>0.0</ele><time>2019-09-10T18:33:45.000Z</time></trkpt><trkpt lon="-999.0" lat="-999.0"><ele>0.0</ele><time>2019-09-10T18:33:46.000Z</time></trkpt><trkpt lon="-999.0" lat="-999.0"><ele>0.0</ele><time>2019-09-10T18:33:47.000Z</time></trkpt><trkpt lon="-999.0" lat="-999.0"><ele>0.0</ele><time>2019-09-10T18:33:48.000Z</time></trkpt><trkpt lon="-999.0" lat="-999.0"><ele>0.0</ele><time>2019-09-10T18:33:49.000Z</time></trkpt><trkpt lon="15.6262684" lat="46.5501185"><ele>330</ele><time>2019-09-10T18:33:50.000Z</time></trkpt><trkpt lon="15.6262684" lat="46.5501185"><ele>330</ele><time>2019-09-10T18:33:51.000Z</time></trkpt><trkpt lon="15.6262684" lat="46.5501185"><ele>330</ele><time>2019-09-10T18:33:52.000Z</time></trkpt><trkpt lon="15.6262684" lat="46.5501185"><ele>330</ele><time>2019-09-10T18:33:53.000Z</time></trkpt><trkpt lon="-999.0" lat="-999.0"><ele>0.0</ele><time>2019-09-10T18:33:54.000Z</time></trkpt><trkpt lon="-999.0" lat="-999.0"><ele>0.0</ele><time>2019-09-10T18:33:55.000Z</time></trkpt><trkpt lon="-999.0" lat="-999.0"><ele>0.0</ele><time>2019-09-10T18:33:56.000Z</time></trkpt><trkpt lon="-999.0" lat="-999.0"><ele>0.0</ele><time>2019-09-10T18:33:57.000Z</time></trkpt><trkpt lon="-999.0" lat="-999.0"><ele>0.0</ele><time>2019-09-10T18:33:58.000Z</time></trkpt><trkpt lon="-999.0" lat="-999.0"><ele>0.0</ele><time>2019-09-10T18:33:59.000Z</time></trkpt><trkpt lon="-999.0" lat="-999.0"><ele>0.0</ele><time>2019-09-10T18:34:00.000Z</time></trkpt><trkpt lon="-999.0" lat="-999.0"><ele>0.0</ele><time>2019-09-10T18:34:01.000Z</time></trkpt><trkpt lon="-999.0" lat="-999.0"><ele>0.0</ele><time>2019-09-10T18:34:02.000Z</time></trkpt><trkpt lon="-999.0" lat="-999.0"><ele>0.0</ele><time>2019-09-10T18:34:03.000Z</time></trkpt><trkpt lon="-999.0" lat="-999.0"><ele>0.0</ele><time>2019-09-10T18:34:04.000Z</time></trkpt><trkpt lon="15.6262776" lat="46.5500919"><ele>330</ele><time>2019-09-10T18:34:05.000Z</time></trkpt><trkpt lon="15.6262776" lat="46.5500919"><ele>330</ele><time>2019-09-10T18:34:06.000Z</time></trkpt><trkpt lon="15.6262776" lat="46.5500919"><ele>330</ele><time>2019-09-10T18:34:07.000Z</time></trkpt><trkpt lon="15.6262776" lat="46.5500919"><ele>330</ele><time>2019-09-10T18:34:08.000Z</time></trkpt><trkpt lon="-999.0" lat="-999.0"><ele>0.0</ele><time>2019-09-10T18:34:09.000Z</time></trkpt><trkpt lon="-999.0" lat="-999.0"><ele>0.0</ele><time>2019-09-10T18:34:10.000Z</time></trkpt><trkpt lon="-999.0" lat="-999.0"><ele>0.0</ele><time>2019-09-10T18:34:11.000Z</time></trkpt><trkpt lon="-999.0" lat="-999.0"><ele>0.0</ele><time>2019-09-10T18:34:12.000Z</time></trkpt><trkpt lon="-999.0" lat="-999.0"><ele>0.0</ele><time>2019-09-10T18:34:13.000Z</time></trkpt><trkpt lon="-999.0" lat="-999.0"><ele>0.0</ele><time>2019-09-10T18:34:14.000Z</time></trkpt><trkpt lon="-999.0" lat="-999.0"><ele>0.0</ele><time>2019-09-10T18:34:15.000Z</time></trkpt><trkpt lon="-999.0" lat="-999.0"><ele>0.0</ele><time>2019-09-10T18:34:16.000Z</time></trkpt><trkpt lon="-999.0" lat="-999.0"><ele>0.0</ele><time>2019-09-10T18:34:17.000Z</time></trkpt><trkpt lon="-999.0" lat="-999.0"><ele>0.0</ele><time>2019-09-10T18:34:18.000Z</time></trkpt><trkpt lon="-999.0" lat="-999.0"><ele>0.0</ele><time>2019-09-10T18:34:19.000Z</time></trkpt><trkpt lon="-999.0" lat="-999.0"><ele>0.0</ele><time>2019-09-10T18:34:20.000Z</time></trkpt><trkpt lon="-999.0" lat="-999.0"><ele>0.0</ele><time>2019-09-10T18:34:21.000Z</time></trkpt><trkpt lon="-999.0" lat="-999.0"><ele>0.0</ele><time>2019-09-10T18:34:22.000Z</time></trkpt><trkpt lon="-999.0" lat="-999.0"><ele>0.0</ele><time>2019-09-10T18:34:23.000Z</time></trkpt><trkpt lon="-999.0" lat="-999.0"><ele>0.0</ele><time>2019-09-10T18:34:24.000Z</time></trkpt><trkpt lon="-999.0" lat="-999.0"><ele>0.0</ele><time>2019-09-10T18:34:25.000Z</time></trkpt><trkpt lon="-999.0" lat="-999.0"><ele>0.0</ele><time>2019-09-10T18:34:26.000Z</time></trkpt><trkpt lon="-999.0" lat="-999.0"><ele>0.0</ele><time>2019-09-10T18:34:27.000Z</time></trkpt><trkpt lon="-999.0" lat="-999.0"><ele>0.0</ele><time>2019-09-10T18:34:28.000Z</time></trkpt><trkpt lon="-999.0" lat="-999.0"><ele>0.0</ele><time>2019-09-10T18:34:29.000Z</time></trkpt><trkpt lon="-999.0" lat="-999.0"><ele>0.0</ele><time>2019-09-10T18:34:30.000Z</time></trkpt><trkpt lon="-999.0" lat="-999.0"><ele>0.0</ele><time>2019-09-10T18:34:31.000Z</time></trkpt><trkpt lon="-999.0" lat="-999.0"><ele>0.0</ele><time>2019-09-10T18:34:32.000Z</time></trkpt><trkpt lon="-999.0" lat="-999.0"><ele>0.0</ele><time>2019-09-10T18:34:33.000Z</time></trkpt><trkpt lon="-999.0" lat="-999.0"><ele>0.0</ele><time>2019-09-10T18:34:34.000Z</time></trkpt><trkpt lon="-999.0" lat="-999.0"><ele>0.0</ele><time>2019-09-10T18:34:35.000Z</time></trkpt><trkpt lon="-999.0" lat="-999.0"><ele>0.0</ele><time>2019-09-10T18:34:36.000Z</time></trkpt><trkpt lon="-999.0" lat="-999.0"><ele>0.0</ele><time>2019-09-10T18:34:37.000Z</time></trkpt><trkpt lon="-999.0" lat="-999.0"><ele>0.0</ele><time>2019-09-10T18:34:38.000Z</time></trkpt><trkpt lon="-999.0" lat="-999.0"><ele>0.0</ele><time>2019-09-10T18:34:39.000Z</time></trkpt><trkpt lon="-999.0" lat="-999.0"><ele>0.0</ele><time>2019-09-10T18:34:40.000Z</time></trkpt><trkpt lon="-999.0" lat="-999.0"><ele>0.0</ele><time>2019-09-10T18:34:41.000Z</time></trkpt><trkpt lon="-999.0" lat="-999.0"><ele>0.0</ele><time>2019-09-10T18:34:42.000Z</time></trkpt><trkpt lon="-999.0" lat="-999.0"><ele>0.0</ele><time>2019-09-10T18:34:43.000Z</time></trkpt><trkpt lon="-999.0" lat="-999.0"><ele>0.0</ele><time>2019-09-10T18:34:44.000Z</time></trkpt><trkpt lon="-999.0" lat="-999.0"><ele>0.0</ele><time>2019-09-10T18:34:45.000Z</time></trkpt><trkpt lon="-999.0" lat="-999.0"><ele>0.0</ele><time>2019-09-10T18:34:46.000Z</time></trkpt><trkpt lon="-999.0" lat="-999.0"><ele>0.0</ele><time>2019-09-10T18:34:47.000Z</time></trkpt><trkpt lon="-999.0" lat="-999.0"><ele>0.0</ele><time>2019-09-10T18:34:48.000Z</time></trkpt><trkpt lon="-999.0" lat="-999.0"><ele>0.0</ele><time>2019-09-10T18:34:49.000Z</time></trkpt><trkpt lon="-999.0" lat="-999.0"><ele>0.0</ele><time>2019-09-10T18:34:50.000Z</time></trkpt><trkpt lon="-999.0" lat="-999.0"><ele>0.0</ele><time>2019-09-10T18:34:51.000Z</time></trkpt><trkpt lon="-999.0" lat="-999.0"><ele>0.0</ele><time>2019-09-10T18:34:52.000Z</time></trkpt><trkpt lon="-999.0" lat="-999.0"><ele>0.0</ele><time>2019-09-10T18:34:53.000Z</time></trkpt><trkpt lon="-999.0" lat="-999.0"><ele>0.0</ele><time>2019-09-10T18:34:54.000Z</time></trkpt><trkpt lon="-999.0" lat="-999.0"><ele>0.0</ele><time>2019-09-10T18:34:55.000Z</time></trkpt><trkpt lon="-999.0" lat="-999.0"><ele>0.0</ele><time>2019-09-10T18:34:56.000Z</time></trkpt><trkpt lon="-999.0" lat="-999.0"><ele>0.0</ele><time>2019-09-10T18:34:57.000Z</time></trkpt><trkpt lon="-999.0" lat="-999.0"><ele>0.0</ele><time>2019-09-10T18:34:58.000Z</time></trkpt><trkpt lon="-999.0" lat="-999.0"><ele>0.0</ele><time>2019-09-10T18:34:59.000Z</time></trkpt><trkpt lon="-999.0" lat="-999.0"><ele>0.0</ele><time>2019-09-10T18:35:00.000Z</time></trkpt><trkpt lon="-999.0" lat="-999.0"><ele>0.0</ele><time>2019-09-10T18:35:01.000Z</time></trkpt><trkpt lon="-999.0" lat="-999.0"><ele>0.0</ele><time>2019-09-10T18:35:02.000Z</time></trkpt><trkpt lon="-999.0" lat="-999.0"><ele>0.0</ele><time>2019-09-10T18:35:03.000Z</time></trkpt><trkpt lon="-999.0" lat="-999.0"><ele>0.0</ele><time>2019-09-10T18:35:04.000Z</time></trkpt><trkpt lon="-999.0" lat="-999.0"><ele>0.0</ele><time>2019-09-10T18:35:05.000Z</time></trkpt><trkpt lon="-999.0" lat="-999.0"><ele>0.0</ele><time>2019-09-10T18:35:06.000Z</time></trkpt><trkpt lon="-999.0" lat="-999.0"><ele>0.0</ele><time>2019-09-10T18:35:07.000Z</time></trkpt><trkpt lon="-999.0" lat="-999.0"><ele>0.0</ele><time>2019-09-10T18:35:08.000Z</time></trkpt><trkpt lon="-999.0" lat="-999.0"><ele>0.0</ele><time>2019-09-10T18:35:09.000Z</time></trkpt><trkpt lon="-999.0" lat="-999.0"><ele>0.0</ele><time>2019-09-10T18:35:10.000Z</time></trkpt><trkpt lon="-999.0" lat="-999.0"><ele>0.0</ele><time>2019-09-10T18:35:11.000Z</time></trkpt><trkpt lon="-999.0" lat="-999.0"><ele>0.0</ele><time>2019-09-10T18:35:12.000Z</time></trkpt><trkpt lon="-999.0" lat="-999.0"><ele>0.0</ele><time>2019-09-10T18:35:13.000Z</time></trkpt><trkpt lon="-999.0" lat="-999.0"><ele>0.0</ele><time>2019-09-10T18:35:14.000Z</time></trkpt><trkpt lon="-999.0" lat="-999.0"><ele>0.0</ele><time>2019-09-10T18:35:15.000Z</time></trkpt><trkpt lon="-999.0" lat="-999.0"><ele>0.0</ele><time>2019-09-10T18:35:16.000Z</time></trkpt><trkpt lon="-999.0" lat="-999.0"><ele>0.0</ele><time>2019-09-10T18:35:17.000Z</time></trkpt><trkpt lon="-999.0" lat="-999.0"><ele>0.0</ele><time>2019-09-10T18:35:18.000Z</time></trkpt><trkpt lon="-999.0" lat="-999.0"><ele>0.0</ele><time>2019-09-10T18:35:19.000Z</time></trkpt><trkpt lon="-999.0" lat="-999.0"><ele>0.0</ele><time>2019-09-10T18:35:20.000Z</time></trkpt><trkpt lon="-999.0" lat="-999.0"><ele>0.0</ele><time>2019-09-10T18:35:21.000Z</time></trkpt><trkpt lon="-999.0" lat="-999.0"><ele>0.0</ele><time>2019-09-10T18:35:22.000Z</time></trkpt><trkpt lon="-999.0" lat="-999.0"><ele>0.0</ele><time>2019-09-10T18:35:23.000Z</time></trkpt><trkpt lon="-999.0" lat="-999.0"><ele>0.0</ele><time>2019-09-10T18:35:24.000Z</time></trkpt><trkpt lon="-999.0" lat="-999.0"><ele>0.0</ele><time>2019-09-10T18:35:25.000Z</time></trkpt><trkpt lon="-999.0" lat="-999.0"><ele>0.0</ele><time>2019-09-10T18:35:26.000Z</time></trkpt><trkpt lon="-999.0" lat="-999.0"><ele>0.0</ele><time>2019-09-10T18:35:27.000Z</time></trkpt><trkpt lon="-999.0" lat="-999.0"><ele>0.0</ele><time>2019-09-10T18:35:28.000Z</time></trkpt><trkpt lon="-999.0" lat="-999.0"><ele>0.0</ele><time>2019-09-10T18:35:29.000Z</time></trkpt><trkpt lon="-999.0" lat="-999.0"><ele>0.0</ele><time>2019-09-10T18:35:30.000Z</time></trkpt><trkpt lon="-999.0" lat="-999.0"><ele>0.0</ele><time>2019-09-10T18:35:31.000Z</time></trkpt><trkpt lon="-999.0" lat="-999.0"><ele>0.0</ele><time>2019-09-10T18:35:32.000Z</time></trkpt><trkpt lon="-999.0" lat="-999.0"><ele>0.0</ele><time>2019-09-10T18:35:33.000Z</time></trkpt><trkpt lon="-999.0" lat="-999.0"><ele>0.0</ele><time>2019-09-10T18:35:34.000Z</time></trkpt><trkpt lon="-999.0" lat="-999.0"><ele>0.0</ele><time>2019-09-10T18:35:35.000Z</time></trkpt><trkpt lon="-999.0" lat="-999.0"><ele>0.0</ele><time>2019-09-10T18:35:36.000Z</time></trkpt><trkpt lon="-999.0" lat="-999.0"><ele>0.0</ele><time>2019-09-10T18:35:37.000Z</time></trkpt><trkpt lon="-999.0" lat="-999.0"><ele>0.0</ele><time>2019-09-10T18:35:38.000Z</time></trkpt><trkpt lon="-999.0" lat="-999.0"><ele>0.0</ele><time>2019-09-10T18:35:39.000Z</time></trkpt><trkpt lon="-999.0" lat="-999.0"><ele>0.0</ele><time>2019-09-10T18:35:40.000Z</time></trkpt><trkpt lon="-999.0" lat="-999.0"><ele>0.0</ele><time>2019-09-10T18:35:41.000Z</time></trkpt><trkpt lon="-999.0" lat="-999.0"><ele>0.0</ele><time>2019-09-10T18:35:42.000Z</time></trkpt><trkpt lon="-999.0" lat="-999.0"><ele>0.0</ele><time>2019-09-10T18:35:43.000Z</time></trkpt><trkpt lon="-999.0" lat="-999.0"><ele>0.0</ele><time>2019-09-10T18:35:44.000Z</time></trkpt><trkpt lon="-999.0" lat="-999.0"><ele>0.0</ele><time>2019-09-10T18:35:45.000Z</time></trkpt><trkpt lon="-999.0" lat="-999.0"><ele>0.0</ele><time>2019-09-10T18:35:46.000Z</time></trkpt><trkpt lon="-999.0" lat="-999.0"><ele>0.0</ele><time>2019-09-10T18:35:47.000Z</time></trkpt><trkpt lon="-999.0" lat="-999.0"><ele>0.0</ele><time>2019-09-10T18:35:48.000Z</time></trkpt><trkpt lon="-999.0" lat="-999.0"><ele>0.0</ele><time>2019-09-10T18:35:49.000Z</time></trkpt><trkpt lon="-999.0" lat="-999.0"><ele>0.0</ele><time>2019-09-10T18:35:50.000Z</time></trkpt><trkpt lon="-999.0" lat="-999.0"><ele>0.0</ele><time>2019-09-10T18:35:51.000Z</time></trkpt><trkpt lon="-999.0" lat="-999.0"><ele>0.0</ele><time>2019-09-10T18:35:52.000Z</time></trkpt><trkpt lon="-999.0" lat="-999.0"><ele>0.0</ele><time>2019-09-10T18:35:53.000Z</time></trkpt><trkpt lon="-999.0" lat="-999.0"><ele>0.0</ele><time>2019-09-10T18:35:54.000Z</time></trkpt><trkpt lon="-999.0" lat="-999.0"><ele>0.0</ele><time>2019-09-10T18:35:55.000Z</time></trkpt><trkpt lon="-999.0" lat="-999.0"><ele>0.0</ele><time>2019-09-10T18:35:56.000Z</time></trkpt><trkpt lon="-999.0" lat="-999.0"><ele>0.0</ele><time>2019-09-10T18:35:57.000Z</time></trkpt><trkpt lon="-999.0" lat="-999.0"><ele>0.0</ele><time>2019-09-10T18:35:58.000Z</time></trkpt><trkpt lon="-999.0" lat="-999.0"><ele>0.0</ele><time>2019-09-10T18:35:59.000Z</time></trkpt><trkpt lon="-999.0" lat="-999.0"><ele>0.0</ele><time>2019-09-10T18:36:00.000Z</time></trkpt><trkpt lon="-999.0" lat="-999.0"><ele>0.0</ele><time>2019-09-10T18:36:01.000Z</time></trkpt><trkpt lon="-999.0" lat="-999.0"><ele>0.0</ele><time>2019-09-10T18:36:02.000Z</time></trkpt></trkseg></trk></gpx>